<?xml version="1.0" encoding="UTF-8" standalone="no" ?>
<gpx xmlns="http://www.topografix.com/GPX/1/1" xmlns:xsi="http://www.w3.org/2001/XMLSchema-instance" xsi:schemaLocation="http://www.topografix.com/GPX/1/1 http://www.topografix.com/GPX/1/1/gpx.xsd" version="1.1" creator="VisuGPX - https://www.visugpx.com">
  <metadata>
    <name>SALSIGNE le 02.06.2019 - ACFC</name>
    <desc><![CDATA[Joli parcours avec un passage devant l'ancienne mine d'or de SALSIGNE.]]></desc>
  </metadata>
  <trk>
    <name><![CDATA[TrailRunning]]></name>
    <trkseg>
      <trkpt lat="43.32887" lon="2.35841">
        <ele>283.9</ele>
        <time>2019-06-02T06:02:25.000Z</time>
      </trkpt>
      <trkpt lat="43.32886" lon="2.35842">
        <ele>283.9</ele>
        <time>2019-06-02T06:02:26.000Z</time>
      </trkpt>
      <trkpt lat="43.32886" lon="2.35843">
        <ele>283.9</ele>
        <time>2019-06-02T06:02:27.000Z</time>
      </trkpt>
      <trkpt lat="43.32886" lon="2.35843">
        <ele>283.9</ele>
        <time>2019-06-02T06:02:28.000Z</time>
      </trkpt>
      <trkpt lat="43.32886" lon="2.35842">
        <ele>283.9</ele>
        <time>2019-06-02T06:02:29.000Z</time>
      </trkpt>
      <trkpt lat="43.32886" lon="2.35841">
        <ele>283.9</ele>
        <time>2019-06-02T06:02:30.000Z</time>
      </trkpt>
      <trkpt lat="43.32886" lon="2.35839">
        <ele>283.8</ele>
        <time>2019-06-02T06:02:31.000Z</time>
      </trkpt>
      <trkpt lat="43.32886" lon="2.35837">
        <ele>283.8</ele>
        <time>2019-06-02T06:02:32.000Z</time>
      </trkpt>
      <trkpt lat="43.32887" lon="2.35834">
        <ele>283.8</ele>
        <time>2019-06-02T06:02:33.000Z</time>
      </trkpt>
      <trkpt lat="43.32887" lon="2.35832">
        <ele>283.7</ele>
        <time>2019-06-02T06:02:34.000Z</time>
      </trkpt>
      <trkpt lat="43.32887" lon="2.35829">
        <ele>283.7</ele>
        <time>2019-06-02T06:02:35.000Z</time>
      </trkpt>
      <trkpt lat="43.32887" lon="2.35826">
        <ele>283.6</ele>
        <time>2019-06-02T06:02:36.000Z</time>
      </trkpt>
      <trkpt lat="43.32887" lon="2.35823">
        <ele>283.5</ele>
        <time>2019-06-02T06:02:37.000Z</time>
      </trkpt>
      <trkpt lat="43.32887" lon="2.35821">
        <ele>283.5</ele>
        <time>2019-06-02T06:02:38.000Z</time>
      </trkpt>
      <trkpt lat="43.32887" lon="2.35818">
        <ele>283.4</ele>
        <time>2019-06-02T06:02:39.000Z</time>
      </trkpt>
      <trkpt lat="43.32886" lon="2.35816">
        <ele>283.3</ele>
        <time>2019-06-02T06:02:40.000Z</time>
      </trkpt>
      <trkpt lat="43.32886" lon="2.35814">
        <ele>283.2</ele>
        <time>2019-06-02T06:02:41.000Z</time>
      </trkpt>
      <trkpt lat="43.32885" lon="2.35813">
        <ele>283.1</ele>
        <time>2019-06-02T06:02:42.000Z</time>
      </trkpt>
      <trkpt lat="43.32884" lon="2.35812">
        <ele>283</ele>
        <time>2019-06-02T06:02:43.000Z</time>
      </trkpt>
      <trkpt lat="43.32883" lon="2.35811">
        <ele>282.8</ele>
        <time>2019-06-02T06:02:44.000Z</time>
      </trkpt>
      <trkpt lat="43.32882" lon="2.3581">
        <ele>282.7</ele>
        <time>2019-06-02T06:02:45.000Z</time>
      </trkpt>
      <trkpt lat="43.32881" lon="2.3581">
        <ele>282.6</ele>
        <time>2019-06-02T06:02:46.000Z</time>
      </trkpt>
      <trkpt lat="43.32879" lon="2.3581">
        <ele>282.5</ele>
        <time>2019-06-02T06:02:47.000Z</time>
      </trkpt>
      <trkpt lat="43.32878" lon="2.3581">
        <ele>282.3</ele>
        <time>2019-06-02T06:02:48.000Z</time>
      </trkpt>
      <trkpt lat="43.32876" lon="2.3581">
        <ele>282.2</ele>
        <time>2019-06-02T06:02:49.000Z</time>
      </trkpt>
      <trkpt lat="43.32875" lon="2.3581">
        <ele>282</ele>
        <time>2019-06-02T06:02:50.000Z</time>
      </trkpt>
      <trkpt lat="43.32873" lon="2.3581">
        <ele>281.9</ele>
        <time>2019-06-02T06:02:51.000Z</time>
      </trkpt>
      <trkpt lat="43.32871" lon="2.35811">
        <ele>281.7</ele>
        <time>2019-06-02T06:02:52.000Z</time>
      </trkpt>
      <trkpt lat="43.32869" lon="2.35811">
        <ele>281.5</ele>
        <time>2019-06-02T06:02:53.000Z</time>
      </trkpt>
      <trkpt lat="43.32867" lon="2.35811">
        <ele>281.4</ele>
        <time>2019-06-02T06:02:54.000Z</time>
      </trkpt>
      <trkpt lat="43.32865" lon="2.35811">
        <ele>281.2</ele>
        <time>2019-06-02T06:02:55.000Z</time>
      </trkpt>
      <trkpt lat="43.32863" lon="2.35811">
        <ele>281</ele>
        <time>2019-06-02T06:02:56.000Z</time>
      </trkpt>
      <trkpt lat="43.32861" lon="2.35811">
        <ele>280.8</ele>
        <time>2019-06-02T06:02:57.000Z</time>
      </trkpt>
      <trkpt lat="43.32859" lon="2.35811">
        <ele>280.6</ele>
        <time>2019-06-02T06:02:58.000Z</time>
      </trkpt>
      <trkpt lat="43.32857" lon="2.35811">
        <ele>280.4</ele>
        <time>2019-06-02T06:02:59.000Z</time>
      </trkpt>
      <trkpt lat="43.32855" lon="2.35812">
        <ele>280.2</ele>
        <time>2019-06-02T06:03:00.000Z</time>
      </trkpt>
      <trkpt lat="43.32853" lon="2.35812">
        <ele>280</ele>
        <time>2019-06-02T06:03:01.000Z</time>
      </trkpt>
      <trkpt lat="43.32851" lon="2.35812">
        <ele>279.9</ele>
        <time>2019-06-02T06:03:02.000Z</time>
      </trkpt>
      <trkpt lat="43.32849" lon="2.35813">
        <ele>279.7</ele>
        <time>2019-06-02T06:03:03.000Z</time>
      </trkpt>
      <trkpt lat="43.32847" lon="2.35814">
        <ele>279.5</ele>
        <time>2019-06-02T06:03:04.000Z</time>
      </trkpt>
      <trkpt lat="43.32845" lon="2.35815">
        <ele>279.3</ele>
        <time>2019-06-02T06:03:05.000Z</time>
      </trkpt>
      <trkpt lat="43.32843" lon="2.35817">
        <ele>279.1</ele>
        <time>2019-06-02T06:03:06.000Z</time>
      </trkpt>
      <trkpt lat="43.32841" lon="2.35818">
        <ele>278.9</ele>
        <time>2019-06-02T06:03:07.000Z</time>
      </trkpt>
      <trkpt lat="43.32839" lon="2.3582">
        <ele>278.7</ele>
        <time>2019-06-02T06:03:08.000Z</time>
      </trkpt>
      <trkpt lat="43.32837" lon="2.35822">
        <ele>278.5</ele>
        <time>2019-06-02T06:03:09.000Z</time>
      </trkpt>
      <trkpt lat="43.32835" lon="2.35824">
        <ele>278.3</ele>
        <time>2019-06-02T06:03:10.000Z</time>
      </trkpt>
      <trkpt lat="43.32834" lon="2.35826">
        <ele>278.1</ele>
        <time>2019-06-02T06:03:11.000Z</time>
      </trkpt>
      <trkpt lat="43.32832" lon="2.35828">
        <ele>278.1</ele>
        <time>2019-06-02T06:03:12.000Z</time>
      </trkpt>
      <trkpt lat="43.32831" lon="2.3583">
        <ele>278</ele>
        <time>2019-06-02T06:03:13.000Z</time>
      </trkpt>
      <trkpt lat="43.32829" lon="2.35832">
        <ele>278</ele>
        <time>2019-06-02T06:03:14.000Z</time>
      </trkpt>
      <trkpt lat="43.32828" lon="2.35835">
        <ele>278</ele>
        <time>2019-06-02T06:03:15.000Z</time>
      </trkpt>
      <trkpt lat="43.32826" lon="2.35838">
        <ele>278.1</ele>
        <time>2019-06-02T06:03:16.000Z</time>
      </trkpt>
      <trkpt lat="43.32825" lon="2.3584">
        <ele>278.1</ele>
        <time>2019-06-02T06:03:17.000Z</time>
      </trkpt>
      <trkpt lat="43.32824" lon="2.35843">
        <ele>278.1</ele>
        <time>2019-06-02T06:03:18.000Z</time>
      </trkpt>
      <trkpt lat="43.32823" lon="2.35846">
        <ele>278.1</ele>
        <time>2019-06-02T06:03:19.000Z</time>
      </trkpt>
      <trkpt lat="43.32821" lon="2.35848">
        <ele>278.2</ele>
        <time>2019-06-02T06:03:20.000Z</time>
      </trkpt>
      <trkpt lat="43.3282" lon="2.35851">
        <ele>278.2</ele>
        <time>2019-06-02T06:03:21.000Z</time>
      </trkpt>
      <trkpt lat="43.32819" lon="2.35854">
        <ele>278.2</ele>
        <time>2019-06-02T06:03:22.000Z</time>
      </trkpt>
      <trkpt lat="43.32818" lon="2.35857">
        <ele>278.1</ele>
        <time>2019-06-02T06:03:23.000Z</time>
      </trkpt>
      <trkpt lat="43.32817" lon="2.3586">
        <ele>278.1</ele>
        <time>2019-06-02T06:03:24.000Z</time>
      </trkpt>
      <trkpt lat="43.32816" lon="2.35863">
        <ele>278.1</ele>
        <time>2019-06-02T06:03:25.000Z</time>
      </trkpt>
      <trkpt lat="43.32815" lon="2.35866">
        <ele>278.1</ele>
        <time>2019-06-02T06:03:26.000Z</time>
      </trkpt>
      <trkpt lat="43.32814" lon="2.35869">
        <ele>278</ele>
        <time>2019-06-02T06:03:27.000Z</time>
      </trkpt>
      <trkpt lat="43.32812" lon="2.35871">
        <ele>278</ele>
        <time>2019-06-02T06:03:28.000Z</time>
      </trkpt>
      <trkpt lat="43.32811" lon="2.35874">
        <ele>277.9</ele>
        <time>2019-06-02T06:03:29.000Z</time>
      </trkpt>
      <trkpt lat="43.3281" lon="2.35877">
        <ele>277.9</ele>
        <time>2019-06-02T06:03:30.000Z</time>
      </trkpt>
      <trkpt lat="43.32809" lon="2.3588">
        <ele>277.8</ele>
        <time>2019-06-02T06:03:31.000Z</time>
      </trkpt>
      <trkpt lat="43.32808" lon="2.35883">
        <ele>277.8</ele>
        <time>2019-06-02T06:03:32.000Z</time>
      </trkpt>
      <trkpt lat="43.32807" lon="2.35886">
        <ele>277.7</ele>
        <time>2019-06-02T06:03:33.000Z</time>
      </trkpt>
      <trkpt lat="43.32806" lon="2.35889">
        <ele>277.6</ele>
        <time>2019-06-02T06:03:34.000Z</time>
      </trkpt>
      <trkpt lat="43.32805" lon="2.35892">
        <ele>277.5</ele>
        <time>2019-06-02T06:03:35.000Z</time>
      </trkpt>
      <trkpt lat="43.32804" lon="2.35895">
        <ele>277.4</ele>
        <time>2019-06-02T06:03:36.000Z</time>
      </trkpt>
      <trkpt lat="43.32803" lon="2.35898">
        <ele>277.3</ele>
        <time>2019-06-02T06:03:37.000Z</time>
      </trkpt>
      <trkpt lat="43.32802" lon="2.35901">
        <ele>277.2</ele>
        <time>2019-06-02T06:03:38.000Z</time>
      </trkpt>
      <trkpt lat="43.32801" lon="2.35904">
        <ele>277.1</ele>
        <time>2019-06-02T06:03:39.000Z</time>
      </trkpt>
      <trkpt lat="43.328" lon="2.35907">
        <ele>277</ele>
        <time>2019-06-02T06:03:40.000Z</time>
      </trkpt>
      <trkpt lat="43.32799" lon="2.3591">
        <ele>276.8</ele>
        <time>2019-06-02T06:03:41.000Z</time>
      </trkpt>
      <trkpt lat="43.32798" lon="2.35913">
        <ele>276.7</ele>
        <time>2019-06-02T06:03:42.000Z</time>
      </trkpt>
      <trkpt lat="43.32797" lon="2.35916">
        <ele>276.5</ele>
        <time>2019-06-02T06:03:43.000Z</time>
      </trkpt>
      <trkpt lat="43.32796" lon="2.35919">
        <ele>276.4</ele>
        <time>2019-06-02T06:03:44.000Z</time>
      </trkpt>
      <trkpt lat="43.32795" lon="2.35922">
        <ele>276.3</ele>
        <time>2019-06-02T06:03:45.000Z</time>
      </trkpt>
      <trkpt lat="43.32794" lon="2.35925">
        <ele>276.2</ele>
        <time>2019-06-02T06:03:46.000Z</time>
      </trkpt>
      <trkpt lat="43.32793" lon="2.35928">
        <ele>276</ele>
        <time>2019-06-02T06:03:47.000Z</time>
      </trkpt>
      <trkpt lat="43.32792" lon="2.35931">
        <ele>275.9</ele>
        <time>2019-06-02T06:03:48.000Z</time>
      </trkpt>
      <trkpt lat="43.32791" lon="2.35934">
        <ele>275.8</ele>
        <time>2019-06-02T06:03:49.000Z</time>
      </trkpt>
      <trkpt lat="43.32789" lon="2.35937">
        <ele>275.7</ele>
        <time>2019-06-02T06:03:50.000Z</time>
      </trkpt>
      <trkpt lat="43.32788" lon="2.3594">
        <ele>275.5</ele>
        <time>2019-06-02T06:03:51.000Z</time>
      </trkpt>
      <trkpt lat="43.32787" lon="2.35943">
        <ele>275.4</ele>
        <time>2019-06-02T06:03:52.000Z</time>
      </trkpt>
      <trkpt lat="43.32786" lon="2.35946">
        <ele>275.2</ele>
        <time>2019-06-02T06:03:53.000Z</time>
      </trkpt>
      <trkpt lat="43.32785" lon="2.35948">
        <ele>275.1</ele>
        <time>2019-06-02T06:03:54.000Z</time>
      </trkpt>
      <trkpt lat="43.32783" lon="2.35951">
        <ele>275</ele>
        <time>2019-06-02T06:03:55.000Z</time>
      </trkpt>
      <trkpt lat="43.32782" lon="2.35954">
        <ele>274.8</ele>
        <time>2019-06-02T06:03:56.000Z</time>
      </trkpt>
      <trkpt lat="43.32781" lon="2.35957">
        <ele>274.7</ele>
        <time>2019-06-02T06:03:57.000Z</time>
      </trkpt>
      <trkpt lat="43.3278" lon="2.3596">
        <ele>274.5</ele>
        <time>2019-06-02T06:03:58.000Z</time>
      </trkpt>
      <trkpt lat="43.32778" lon="2.35963">
        <ele>274.4</ele>
        <time>2019-06-02T06:03:59.000Z</time>
      </trkpt>
      <trkpt lat="43.32777" lon="2.35966">
        <ele>274.2</ele>
        <time>2019-06-02T06:04:00.000Z</time>
      </trkpt>
      <trkpt lat="43.32776" lon="2.35969">
        <ele>274</ele>
        <time>2019-06-02T06:04:01.000Z</time>
      </trkpt>
      <trkpt lat="43.32775" lon="2.35971">
        <ele>273.9</ele>
        <time>2019-06-02T06:04:02.000Z</time>
      </trkpt>
      <trkpt lat="43.32773" lon="2.35974">
        <ele>273.7</ele>
        <time>2019-06-02T06:04:03.000Z</time>
      </trkpt>
      <trkpt lat="43.32772" lon="2.35977">
        <ele>273.6</ele>
        <time>2019-06-02T06:04:04.000Z</time>
      </trkpt>
      <trkpt lat="43.32771" lon="2.3598">
        <ele>273.4</ele>
        <time>2019-06-02T06:04:05.000Z</time>
      </trkpt>
      <trkpt lat="43.3277" lon="2.35983">
        <ele>273.3</ele>
        <time>2019-06-02T06:04:06.000Z</time>
      </trkpt>
      <trkpt lat="43.32768" lon="2.35986">
        <ele>273.1</ele>
        <time>2019-06-02T06:04:07.000Z</time>
      </trkpt>
      <trkpt lat="43.32767" lon="2.35988">
        <ele>272.9</ele>
        <time>2019-06-02T06:04:08.000Z</time>
      </trkpt>
      <trkpt lat="43.32766" lon="2.35991">
        <ele>272.8</ele>
        <time>2019-06-02T06:04:09.000Z</time>
      </trkpt>
      <trkpt lat="43.32765" lon="2.35994">
        <ele>272.6</ele>
        <time>2019-06-02T06:04:10.000Z</time>
      </trkpt>
      <trkpt lat="43.32763" lon="2.35997">
        <ele>272.5</ele>
        <time>2019-06-02T06:04:11.000Z</time>
      </trkpt>
      <trkpt lat="43.32762" lon="2.35999">
        <ele>272.3</ele>
        <time>2019-06-02T06:04:12.000Z</time>
      </trkpt>
      <trkpt lat="43.32761" lon="2.36002">
        <ele>272.2</ele>
        <time>2019-06-02T06:04:13.000Z</time>
      </trkpt>
      <trkpt lat="43.32759" lon="2.36004">
        <ele>272.2</ele>
        <time>2019-06-02T06:04:14.000Z</time>
      </trkpt>
      <trkpt lat="43.32758" lon="2.36007">
        <ele>272.1</ele>
        <time>2019-06-02T06:04:15.000Z</time>
      </trkpt>
      <trkpt lat="43.32756" lon="2.36009">
        <ele>272</ele>
        <time>2019-06-02T06:04:16.000Z</time>
      </trkpt>
      <trkpt lat="43.32755" lon="2.36012">
        <ele>271.9</ele>
        <time>2019-06-02T06:04:17.000Z</time>
      </trkpt>
      <trkpt lat="43.32753" lon="2.36014">
        <ele>271.8</ele>
        <time>2019-06-02T06:04:18.000Z</time>
      </trkpt>
      <trkpt lat="43.32751" lon="2.36016">
        <ele>271.7</ele>
        <time>2019-06-02T06:04:19.000Z</time>
      </trkpt>
      <trkpt lat="43.3275" lon="2.36019">
        <ele>271.7</ele>
        <time>2019-06-02T06:04:20.000Z</time>
      </trkpt>
      <trkpt lat="43.32748" lon="2.36021">
        <ele>271.8</ele>
        <time>2019-06-02T06:04:21.000Z</time>
      </trkpt>
      <trkpt lat="43.32747" lon="2.36024">
        <ele>271.9</ele>
        <time>2019-06-02T06:04:22.000Z</time>
      </trkpt>
      <trkpt lat="43.32746" lon="2.36026">
        <ele>272</ele>
        <time>2019-06-02T06:04:23.000Z</time>
      </trkpt>
      <trkpt lat="43.32744" lon="2.36029">
        <ele>272</ele>
        <time>2019-06-02T06:04:24.000Z</time>
      </trkpt>
      <trkpt lat="43.32743" lon="2.36032">
        <ele>272.1</ele>
        <time>2019-06-02T06:04:25.000Z</time>
      </trkpt>
      <trkpt lat="43.32742" lon="2.36035">
        <ele>272.2</ele>
        <time>2019-06-02T06:04:26.000Z</time>
      </trkpt>
      <trkpt lat="43.3274" lon="2.36037">
        <ele>272.3</ele>
        <time>2019-06-02T06:04:27.000Z</time>
      </trkpt>
      <trkpt lat="43.32739" lon="2.3604">
        <ele>272.3</ele>
        <time>2019-06-02T06:04:28.000Z</time>
      </trkpt>
      <trkpt lat="43.32738" lon="2.36043">
        <ele>272.4</ele>
        <time>2019-06-02T06:04:29.000Z</time>
      </trkpt>
      <trkpt lat="43.32737" lon="2.36046">
        <ele>272.4</ele>
        <time>2019-06-02T06:04:30.000Z</time>
      </trkpt>
      <trkpt lat="43.32736" lon="2.36048">
        <ele>272.5</ele>
        <time>2019-06-02T06:04:31.000Z</time>
      </trkpt>
      <trkpt lat="43.32735" lon="2.36051">
        <ele>272.5</ele>
        <time>2019-06-02T06:04:32.000Z</time>
      </trkpt>
      <trkpt lat="43.32734" lon="2.36054">
        <ele>272.6</ele>
        <time>2019-06-02T06:04:33.000Z</time>
      </trkpt>
      <trkpt lat="43.32733" lon="2.36057">
        <ele>272.6</ele>
        <time>2019-06-02T06:04:34.000Z</time>
      </trkpt>
      <trkpt lat="43.32733" lon="2.3606">
        <ele>272.7</ele>
        <time>2019-06-02T06:04:35.000Z</time>
      </trkpt>
      <trkpt lat="43.32732" lon="2.36063">
        <ele>272.7</ele>
        <time>2019-06-02T06:04:36.000Z</time>
      </trkpt>
      <trkpt lat="43.32732" lon="2.36066">
        <ele>272.8</ele>
        <time>2019-06-02T06:04:37.000Z</time>
      </trkpt>
      <trkpt lat="43.32732" lon="2.36069">
        <ele>272.9</ele>
        <time>2019-06-02T06:04:38.000Z</time>
      </trkpt>
      <trkpt lat="43.32732" lon="2.36073">
        <ele>272.9</ele>
        <time>2019-06-02T06:04:39.000Z</time>
      </trkpt>
      <trkpt lat="43.32732" lon="2.36076">
        <ele>273</ele>
        <time>2019-06-02T06:04:40.000Z</time>
      </trkpt>
      <trkpt lat="43.32732" lon="2.3608">
        <ele>273.1</ele>
        <time>2019-06-02T06:04:41.000Z</time>
      </trkpt>
      <trkpt lat="43.32732" lon="2.36083">
        <ele>273.1</ele>
        <time>2019-06-02T06:04:42.000Z</time>
      </trkpt>
      <trkpt lat="43.32732" lon="2.36086">
        <ele>273.2</ele>
        <time>2019-06-02T06:04:43.000Z</time>
      </trkpt>
      <trkpt lat="43.32732" lon="2.36089">
        <ele>273.3</ele>
        <time>2019-06-02T06:04:44.000Z</time>
      </trkpt>
      <trkpt lat="43.32731" lon="2.36092">
        <ele>273.4</ele>
        <time>2019-06-02T06:04:45.000Z</time>
      </trkpt>
      <trkpt lat="43.3273" lon="2.36095">
        <ele>273.4</ele>
        <time>2019-06-02T06:04:46.000Z</time>
      </trkpt>
      <trkpt lat="43.32729" lon="2.36098">
        <ele>273.4</ele>
        <time>2019-06-02T06:04:47.000Z</time>
      </trkpt>
      <trkpt lat="43.32728" lon="2.361">
        <ele>273.4</ele>
        <time>2019-06-02T06:04:48.000Z</time>
      </trkpt>
      <trkpt lat="43.32727" lon="2.36103">
        <ele>273.4</ele>
        <time>2019-06-02T06:04:49.000Z</time>
      </trkpt>
      <trkpt lat="43.32726" lon="2.36105">
        <ele>273.4</ele>
        <time>2019-06-02T06:04:50.000Z</time>
      </trkpt>
      <trkpt lat="43.32724" lon="2.36108">
        <ele>273.4</ele>
        <time>2019-06-02T06:04:51.000Z</time>
      </trkpt>
      <trkpt lat="43.32723" lon="2.36111">
        <ele>273.4</ele>
        <time>2019-06-02T06:04:52.000Z</time>
      </trkpt>
      <trkpt lat="43.32722" lon="2.36114">
        <ele>273.4</ele>
        <time>2019-06-02T06:04:53.000Z</time>
      </trkpt>
      <trkpt lat="43.32721" lon="2.36117">
        <ele>273.4</ele>
        <time>2019-06-02T06:04:54.000Z</time>
      </trkpt>
      <trkpt lat="43.3272" lon="2.3612">
        <ele>273.4</ele>
        <time>2019-06-02T06:04:55.000Z</time>
      </trkpt>
      <trkpt lat="43.32719" lon="2.36122">
        <ele>273.3</ele>
        <time>2019-06-02T06:04:56.000Z</time>
      </trkpt>
      <trkpt lat="43.32718" lon="2.36125">
        <ele>273.3</ele>
        <time>2019-06-02T06:04:57.000Z</time>
      </trkpt>
      <trkpt lat="43.32717" lon="2.36128">
        <ele>273.3</ele>
        <time>2019-06-02T06:04:58.000Z</time>
      </trkpt>
      <trkpt lat="43.32716" lon="2.36132">
        <ele>273.3</ele>
        <time>2019-06-02T06:04:59.000Z</time>
      </trkpt>
      <trkpt lat="43.32715" lon="2.36135">
        <ele>273.2</ele>
        <time>2019-06-02T06:05:00.000Z</time>
      </trkpt>
      <trkpt lat="43.32714" lon="2.36138">
        <ele>273.2</ele>
        <time>2019-06-02T06:05:01.000Z</time>
      </trkpt>
      <trkpt lat="43.32713" lon="2.36141">
        <ele>273.2</ele>
        <time>2019-06-02T06:05:02.000Z</time>
      </trkpt>
      <trkpt lat="43.32713" lon="2.36144">
        <ele>273.1</ele>
        <time>2019-06-02T06:05:03.000Z</time>
      </trkpt>
      <trkpt lat="43.32712" lon="2.36147">
        <ele>273.1</ele>
        <time>2019-06-02T06:05:04.000Z</time>
      </trkpt>
      <trkpt lat="43.32711" lon="2.3615">
        <ele>273.1</ele>
        <time>2019-06-02T06:05:05.000Z</time>
      </trkpt>
      <trkpt lat="43.3271" lon="2.36153">
        <ele>273</ele>
        <time>2019-06-02T06:05:06.000Z</time>
      </trkpt>
      <trkpt lat="43.32709" lon="2.36156">
        <ele>273</ele>
        <time>2019-06-02T06:05:07.000Z</time>
      </trkpt>
      <trkpt lat="43.32708" lon="2.36158">
        <ele>272.9</ele>
        <time>2019-06-02T06:05:08.000Z</time>
      </trkpt>
      <trkpt lat="43.32707" lon="2.36161">
        <ele>272.8</ele>
        <time>2019-06-02T06:05:09.000Z</time>
      </trkpt>
      <trkpt lat="43.32707" lon="2.36164">
        <ele>272.8</ele>
        <time>2019-06-02T06:05:10.000Z</time>
      </trkpt>
      <trkpt lat="43.32706" lon="2.36167">
        <ele>272.7</ele>
        <time>2019-06-02T06:05:11.000Z</time>
      </trkpt>
      <trkpt lat="43.32705" lon="2.3617">
        <ele>272.8</ele>
        <time>2019-06-02T06:05:12.000Z</time>
      </trkpt>
      <trkpt lat="43.32704" lon="2.36173">
        <ele>272.8</ele>
        <time>2019-06-02T06:05:13.000Z</time>
      </trkpt>
      <trkpt lat="43.32704" lon="2.36176">
        <ele>272.9</ele>
        <time>2019-06-02T06:05:14.000Z</time>
      </trkpt>
      <trkpt lat="43.32703" lon="2.36178">
        <ele>272.9</ele>
        <time>2019-06-02T06:05:15.000Z</time>
      </trkpt>
      <trkpt lat="43.32702" lon="2.36181">
        <ele>273</ele>
        <time>2019-06-02T06:05:16.000Z</time>
      </trkpt>
      <trkpt lat="43.32701" lon="2.36184">
        <ele>273</ele>
        <time>2019-06-02T06:05:17.000Z</time>
      </trkpt>
      <trkpt lat="43.327" lon="2.36187">
        <ele>273.1</ele>
        <time>2019-06-02T06:05:18.000Z</time>
      </trkpt>
      <trkpt lat="43.327" lon="2.3619">
        <ele>273.1</ele>
        <time>2019-06-02T06:05:19.000Z</time>
      </trkpt>
      <trkpt lat="43.32699" lon="2.36193">
        <ele>273.2</ele>
        <time>2019-06-02T06:05:20.000Z</time>
      </trkpt>
      <trkpt lat="43.32698" lon="2.36195">
        <ele>273.2</ele>
        <time>2019-06-02T06:05:21.000Z</time>
      </trkpt>
      <trkpt lat="43.32698" lon="2.36198">
        <ele>273.3</ele>
        <time>2019-06-02T06:05:22.000Z</time>
      </trkpt>
      <trkpt lat="43.32697" lon="2.36201">
        <ele>273.3</ele>
        <time>2019-06-02T06:05:23.000Z</time>
      </trkpt>
      <trkpt lat="43.32696" lon="2.36204">
        <ele>273.4</ele>
        <time>2019-06-02T06:05:24.000Z</time>
      </trkpt>
      <trkpt lat="43.32695" lon="2.36207">
        <ele>273.4</ele>
        <time>2019-06-02T06:05:25.000Z</time>
      </trkpt>
      <trkpt lat="43.32695" lon="2.3621">
        <ele>273.4</ele>
        <time>2019-06-02T06:05:26.000Z</time>
      </trkpt>
      <trkpt lat="43.32694" lon="2.36213">
        <ele>273.5</ele>
        <time>2019-06-02T06:05:27.000Z</time>
      </trkpt>
      <trkpt lat="43.32693" lon="2.36216">
        <ele>273.5</ele>
        <time>2019-06-02T06:05:28.000Z</time>
      </trkpt>
      <trkpt lat="43.32693" lon="2.36219">
        <ele>273.6</ele>
        <time>2019-06-02T06:05:29.000Z</time>
      </trkpt>
      <trkpt lat="43.32692" lon="2.36222">
        <ele>273.6</ele>
        <time>2019-06-02T06:05:30.000Z</time>
      </trkpt>
      <trkpt lat="43.32691" lon="2.36225">
        <ele>273.6</ele>
        <time>2019-06-02T06:05:31.000Z</time>
      </trkpt>
      <trkpt lat="43.3269" lon="2.36228">
        <ele>273.7</ele>
        <time>2019-06-02T06:05:32.000Z</time>
      </trkpt>
      <trkpt lat="43.3269" lon="2.36231">
        <ele>273.7</ele>
        <time>2019-06-02T06:05:33.000Z</time>
      </trkpt>
      <trkpt lat="43.32689" lon="2.36234">
        <ele>273.7</ele>
        <time>2019-06-02T06:05:34.000Z</time>
      </trkpt>
      <trkpt lat="43.32688" lon="2.36237">
        <ele>273.7</ele>
        <time>2019-06-02T06:05:35.000Z</time>
      </trkpt>
      <trkpt lat="43.32687" lon="2.3624">
        <ele>273.7</ele>
        <time>2019-06-02T06:05:36.000Z</time>
      </trkpt>
      <trkpt lat="43.32686" lon="2.36243">
        <ele>273.8</ele>
        <time>2019-06-02T06:05:37.000Z</time>
      </trkpt>
      <trkpt lat="43.32686" lon="2.36246">
        <ele>273.8</ele>
        <time>2019-06-02T06:05:38.000Z</time>
      </trkpt>
      <trkpt lat="43.32685" lon="2.36249">
        <ele>273.8</ele>
        <time>2019-06-02T06:05:39.000Z</time>
      </trkpt>
      <trkpt lat="43.32684" lon="2.36252">
        <ele>273.7</ele>
        <time>2019-06-02T06:05:40.000Z</time>
      </trkpt>
      <trkpt lat="43.32683" lon="2.36255">
        <ele>273.7</ele>
        <time>2019-06-02T06:05:41.000Z</time>
      </trkpt>
      <trkpt lat="43.32682" lon="2.36258">
        <ele>273.6</ele>
        <time>2019-06-02T06:05:42.000Z</time>
      </trkpt>
      <trkpt lat="43.32682" lon="2.36261">
        <ele>273.6</ele>
        <time>2019-06-02T06:05:43.000Z</time>
      </trkpt>
      <trkpt lat="43.32681" lon="2.36264">
        <ele>273.5</ele>
        <time>2019-06-02T06:05:44.000Z</time>
      </trkpt>
      <trkpt lat="43.3268" lon="2.36267">
        <ele>273.5</ele>
        <time>2019-06-02T06:05:45.000Z</time>
      </trkpt>
      <trkpt lat="43.32679" lon="2.3627">
        <ele>273.4</ele>
        <time>2019-06-02T06:05:46.000Z</time>
      </trkpt>
      <trkpt lat="43.32679" lon="2.36273">
        <ele>273.4</ele>
        <time>2019-06-02T06:05:47.000Z</time>
      </trkpt>
      <trkpt lat="43.32678" lon="2.36276">
        <ele>273.4</ele>
        <time>2019-06-02T06:05:48.000Z</time>
      </trkpt>
      <trkpt lat="43.32677" lon="2.36279">
        <ele>273.3</ele>
        <time>2019-06-02T06:05:49.000Z</time>
      </trkpt>
      <trkpt lat="43.32677" lon="2.36283">
        <ele>273.3</ele>
        <time>2019-06-02T06:05:50.000Z</time>
      </trkpt>
      <trkpt lat="43.32676" lon="2.36286">
        <ele>273.3</ele>
        <time>2019-06-02T06:05:51.000Z</time>
      </trkpt>
      <trkpt lat="43.32676" lon="2.36289">
        <ele>273.3</ele>
        <time>2019-06-02T06:05:52.000Z</time>
      </trkpt>
      <trkpt lat="43.32675" lon="2.36292">
        <ele>273.3</ele>
        <time>2019-06-02T06:05:53.000Z</time>
      </trkpt>
      <trkpt lat="43.32675" lon="2.36295">
        <ele>273.3</ele>
        <time>2019-06-02T06:05:54.000Z</time>
      </trkpt>
      <trkpt lat="43.32674" lon="2.36298">
        <ele>273.3</ele>
        <time>2019-06-02T06:05:55.000Z</time>
      </trkpt>
      <trkpt lat="43.32674" lon="2.36301">
        <ele>273.3</ele>
        <time>2019-06-02T06:05:56.000Z</time>
      </trkpt>
      <trkpt lat="43.32673" lon="2.36304">
        <ele>273.3</ele>
        <time>2019-06-02T06:05:57.000Z</time>
      </trkpt>
      <trkpt lat="43.32673" lon="2.36307">
        <ele>273.3</ele>
        <time>2019-06-02T06:05:58.000Z</time>
      </trkpt>
      <trkpt lat="43.32673" lon="2.3631">
        <ele>273.4</ele>
        <time>2019-06-02T06:05:59.000Z</time>
      </trkpt>
      <trkpt lat="43.32673" lon="2.36313">
        <ele>273.4</ele>
        <time>2019-06-02T06:06:00.000Z</time>
      </trkpt>
      <trkpt lat="43.32672" lon="2.36316">
        <ele>273.4</ele>
        <time>2019-06-02T06:06:01.000Z</time>
      </trkpt>
      <trkpt lat="43.32672" lon="2.36319">
        <ele>273.5</ele>
        <time>2019-06-02T06:06:02.000Z</time>
      </trkpt>
      <trkpt lat="43.32672" lon="2.36322">
        <ele>273.5</ele>
        <time>2019-06-02T06:06:03.000Z</time>
      </trkpt>
      <trkpt lat="43.32672" lon="2.36325">
        <ele>273.6</ele>
        <time>2019-06-02T06:06:04.000Z</time>
      </trkpt>
      <trkpt lat="43.32672" lon="2.36328">
        <ele>273.6</ele>
        <time>2019-06-02T06:06:05.000Z</time>
      </trkpt>
      <trkpt lat="43.32672" lon="2.36331">
        <ele>273.7</ele>
        <time>2019-06-02T06:06:06.000Z</time>
      </trkpt>
      <trkpt lat="43.32672" lon="2.36334">
        <ele>273.7</ele>
        <time>2019-06-02T06:06:07.000Z</time>
      </trkpt>
      <trkpt lat="43.32672" lon="2.36337">
        <ele>273.8</ele>
        <time>2019-06-02T06:06:08.000Z</time>
      </trkpt>
      <trkpt lat="43.32672" lon="2.3634">
        <ele>273.9</ele>
        <time>2019-06-02T06:06:09.000Z</time>
      </trkpt>
      <trkpt lat="43.32672" lon="2.36343">
        <ele>273.9</ele>
        <time>2019-06-02T06:06:10.000Z</time>
      </trkpt>
      <trkpt lat="43.32672" lon="2.36346">
        <ele>274</ele>
        <time>2019-06-02T06:06:11.000Z</time>
      </trkpt>
      <trkpt lat="43.32672" lon="2.36349">
        <ele>274.1</ele>
        <time>2019-06-02T06:06:12.000Z</time>
      </trkpt>
      <trkpt lat="43.32672" lon="2.36352">
        <ele>274.2</ele>
        <time>2019-06-02T06:06:13.000Z</time>
      </trkpt>
      <trkpt lat="43.32672" lon="2.36355">
        <ele>274.2</ele>
        <time>2019-06-02T06:06:14.000Z</time>
      </trkpt>
      <trkpt lat="43.32673" lon="2.36358">
        <ele>274.3</ele>
        <time>2019-06-02T06:06:15.000Z</time>
      </trkpt>
      <trkpt lat="43.32673" lon="2.36361">
        <ele>274.4</ele>
        <time>2019-06-02T06:06:16.000Z</time>
      </trkpt>
      <trkpt lat="43.32673" lon="2.36364">
        <ele>274.5</ele>
        <time>2019-06-02T06:06:17.000Z</time>
      </trkpt>
      <trkpt lat="43.32673" lon="2.36367">
        <ele>274.6</ele>
        <time>2019-06-02T06:06:18.000Z</time>
      </trkpt>
      <trkpt lat="43.32674" lon="2.3637">
        <ele>274.7</ele>
        <time>2019-06-02T06:06:19.000Z</time>
      </trkpt>
      <trkpt lat="43.32674" lon="2.36373">
        <ele>274.7</ele>
        <time>2019-06-02T06:06:20.000Z</time>
      </trkpt>
      <trkpt lat="43.32674" lon="2.36376">
        <ele>274.8</ele>
        <time>2019-06-02T06:06:21.000Z</time>
      </trkpt>
      <trkpt lat="43.32675" lon="2.36379">
        <ele>274.9</ele>
        <time>2019-06-02T06:06:22.000Z</time>
      </trkpt>
      <trkpt lat="43.32675" lon="2.36382">
        <ele>275</ele>
        <time>2019-06-02T06:06:23.000Z</time>
      </trkpt>
      <trkpt lat="43.32675" lon="2.36385">
        <ele>275.1</ele>
        <time>2019-06-02T06:06:24.000Z</time>
      </trkpt>
      <trkpt lat="43.32676" lon="2.36388">
        <ele>275.2</ele>
        <time>2019-06-02T06:06:25.000Z</time>
      </trkpt>
      <trkpt lat="43.32676" lon="2.36391">
        <ele>275.3</ele>
        <time>2019-06-02T06:06:26.000Z</time>
      </trkpt>
      <trkpt lat="43.32677" lon="2.36394">
        <ele>275.4</ele>
        <time>2019-06-02T06:06:27.000Z</time>
      </trkpt>
      <trkpt lat="43.32677" lon="2.36397">
        <ele>275.5</ele>
        <time>2019-06-02T06:06:28.000Z</time>
      </trkpt>
      <trkpt lat="43.32678" lon="2.364">
        <ele>275.6</ele>
        <time>2019-06-02T06:06:29.000Z</time>
      </trkpt>
      <trkpt lat="43.32679" lon="2.36403">
        <ele>275.7</ele>
        <time>2019-06-02T06:06:30.000Z</time>
      </trkpt>
      <trkpt lat="43.3268" lon="2.36406">
        <ele>275.8</ele>
        <time>2019-06-02T06:06:31.000Z</time>
      </trkpt>
      <trkpt lat="43.32681" lon="2.36409">
        <ele>275.9</ele>
        <time>2019-06-02T06:06:32.000Z</time>
      </trkpt>
      <trkpt lat="43.32681" lon="2.36412">
        <ele>276</ele>
        <time>2019-06-02T06:06:33.000Z</time>
      </trkpt>
      <trkpt lat="43.32682" lon="2.36415">
        <ele>276.1</ele>
        <time>2019-06-02T06:06:34.000Z</time>
      </trkpt>
      <trkpt lat="43.32684" lon="2.36418">
        <ele>276.2</ele>
        <time>2019-06-02T06:06:35.000Z</time>
      </trkpt>
      <trkpt lat="43.32685" lon="2.36421">
        <ele>276.3</ele>
        <time>2019-06-02T06:06:36.000Z</time>
      </trkpt>
      <trkpt lat="43.32686" lon="2.36423">
        <ele>276.3</ele>
        <time>2019-06-02T06:06:37.000Z</time>
      </trkpt>
      <trkpt lat="43.32687" lon="2.36426">
        <ele>276.4</ele>
        <time>2019-06-02T06:06:38.000Z</time>
      </trkpt>
      <trkpt lat="43.32687" lon="2.36428">
        <ele>276.5</ele>
        <time>2019-06-02T06:06:39.000Z</time>
      </trkpt>
      <trkpt lat="43.32688" lon="2.3643">
        <ele>276.5</ele>
        <time>2019-06-02T06:06:40.000Z</time>
      </trkpt>
      <trkpt lat="43.32689" lon="2.36432">
        <ele>276.6</ele>
        <time>2019-06-02T06:06:41.000Z</time>
      </trkpt>
      <trkpt lat="43.3269" lon="2.36434">
        <ele>276.6</ele>
        <time>2019-06-02T06:06:42.000Z</time>
      </trkpt>
      <trkpt lat="43.32691" lon="2.36435">
        <ele>276.7</ele>
        <time>2019-06-02T06:06:43.000Z</time>
      </trkpt>
      <trkpt lat="43.32691" lon="2.36437">
        <ele>276.7</ele>
        <time>2019-06-02T06:06:44.000Z</time>
      </trkpt>
      <trkpt lat="43.32692" lon="2.36438">
        <ele>276.7</ele>
        <time>2019-06-02T06:06:45.000Z</time>
      </trkpt>
      <trkpt lat="43.32692" lon="2.3644">
        <ele>276.7</ele>
        <time>2019-06-02T06:06:46.000Z</time>
      </trkpt>
      <trkpt lat="43.32693" lon="2.36442">
        <ele>276.8</ele>
        <time>2019-06-02T06:06:47.000Z</time>
      </trkpt>
      <trkpt lat="43.32693" lon="2.36443">
        <ele>276.8</ele>
        <time>2019-06-02T06:06:48.000Z</time>
      </trkpt>
      <trkpt lat="43.32694" lon="2.36445">
        <ele>276.8</ele>
        <time>2019-06-02T06:06:49.000Z</time>
      </trkpt>
      <trkpt lat="43.32694" lon="2.36447">
        <ele>276.9</ele>
        <time>2019-06-02T06:06:50.000Z</time>
      </trkpt>
      <trkpt lat="43.32696" lon="2.36449">
        <ele>276.9</ele>
        <time>2019-06-02T06:06:51.000Z</time>
      </trkpt>
      <trkpt lat="43.32697" lon="2.36451">
        <ele>277</ele>
        <time>2019-06-02T06:06:52.000Z</time>
      </trkpt>
      <trkpt lat="43.32698" lon="2.36453">
        <ele>277.1</ele>
        <time>2019-06-02T06:06:53.000Z</time>
      </trkpt>
      <trkpt lat="43.32699" lon="2.36456">
        <ele>277.2</ele>
        <time>2019-06-02T06:06:54.000Z</time>
      </trkpt>
      <trkpt lat="43.327" lon="2.36458">
        <ele>277.2</ele>
        <time>2019-06-02T06:06:55.000Z</time>
      </trkpt>
      <trkpt lat="43.32701" lon="2.36461">
        <ele>277.2</ele>
        <time>2019-06-02T06:06:56.000Z</time>
      </trkpt>
      <trkpt lat="43.32701" lon="2.36464">
        <ele>277.2</ele>
        <time>2019-06-02T06:06:57.000Z</time>
      </trkpt>
      <trkpt lat="43.32701" lon="2.36467">
        <ele>277.2</ele>
        <time>2019-06-02T06:06:58.000Z</time>
      </trkpt>
      <trkpt lat="43.32701" lon="2.3647">
        <ele>277.2</ele>
        <time>2019-06-02T06:06:59.000Z</time>
      </trkpt>
      <trkpt lat="43.32701" lon="2.36473">
        <ele>277.2</ele>
        <time>2019-06-02T06:07:00.000Z</time>
      </trkpt>
      <trkpt lat="43.32701" lon="2.36476">
        <ele>277.2</ele>
        <time>2019-06-02T06:07:01.000Z</time>
      </trkpt>
      <trkpt lat="43.32701" lon="2.36479">
        <ele>277.2</ele>
        <time>2019-06-02T06:07:02.000Z</time>
      </trkpt>
      <trkpt lat="43.32701" lon="2.36482">
        <ele>277.1</ele>
        <time>2019-06-02T06:07:03.000Z</time>
      </trkpt>
      <trkpt lat="43.327" lon="2.36485">
        <ele>277.1</ele>
        <time>2019-06-02T06:07:04.000Z</time>
      </trkpt>
      <trkpt lat="43.327" lon="2.36488">
        <ele>277</ele>
        <time>2019-06-02T06:07:05.000Z</time>
      </trkpt>
      <trkpt lat="43.32699" lon="2.36491">
        <ele>277</ele>
        <time>2019-06-02T06:07:06.000Z</time>
      </trkpt>
      <trkpt lat="43.32699" lon="2.36494">
        <ele>277</ele>
        <time>2019-06-02T06:07:07.000Z</time>
      </trkpt>
      <trkpt lat="43.32698" lon="2.36497">
        <ele>276.9</ele>
        <time>2019-06-02T06:07:08.000Z</time>
      </trkpt>
      <trkpt lat="43.32698" lon="2.365">
        <ele>276.9</ele>
        <time>2019-06-02T06:07:09.000Z</time>
      </trkpt>
      <trkpt lat="43.32697" lon="2.36503">
        <ele>277</ele>
        <time>2019-06-02T06:07:10.000Z</time>
      </trkpt>
      <trkpt lat="43.32697" lon="2.36506">
        <ele>277</ele>
        <time>2019-06-02T06:07:11.000Z</time>
      </trkpt>
      <trkpt lat="43.32696" lon="2.36509">
        <ele>277.1</ele>
        <time>2019-06-02T06:07:12.000Z</time>
      </trkpt>
      <trkpt lat="43.32696" lon="2.36512">
        <ele>277.2</ele>
        <time>2019-06-02T06:07:13.000Z</time>
      </trkpt>
      <trkpt lat="43.32696" lon="2.36515">
        <ele>277.3</ele>
        <time>2019-06-02T06:07:14.000Z</time>
      </trkpt>
      <trkpt lat="43.32695" lon="2.36518">
        <ele>277.4</ele>
        <time>2019-06-02T06:07:15.000Z</time>
      </trkpt>
      <trkpt lat="43.32695" lon="2.36521">
        <ele>277.5</ele>
        <time>2019-06-02T06:07:16.000Z</time>
      </trkpt>
      <trkpt lat="43.32694" lon="2.36524">
        <ele>277.6</ele>
        <time>2019-06-02T06:07:17.000Z</time>
      </trkpt>
      <trkpt lat="43.32694" lon="2.36527">
        <ele>277.7</ele>
        <time>2019-06-02T06:07:18.000Z</time>
      </trkpt>
      <trkpt lat="43.32694" lon="2.36529">
        <ele>277.8</ele>
        <time>2019-06-02T06:07:19.000Z</time>
      </trkpt>
      <trkpt lat="43.32693" lon="2.36532">
        <ele>277.9</ele>
        <time>2019-06-02T06:07:20.000Z</time>
      </trkpt>
      <trkpt lat="43.32693" lon="2.36534">
        <ele>277.9</ele>
        <time>2019-06-02T06:07:21.000Z</time>
      </trkpt>
      <trkpt lat="43.32693" lon="2.36535">
        <ele>278</ele>
        <time>2019-06-02T06:07:22.000Z</time>
      </trkpt>
      <trkpt lat="43.32693" lon="2.36536">
        <ele>278</ele>
        <time>2019-06-02T06:07:23.000Z</time>
      </trkpt>
      <trkpt lat="43.32693" lon="2.36536">
        <ele>278</ele>
        <time>2019-06-02T06:07:24.000Z</time>
      </trkpt>
      <trkpt lat="43.32693" lon="2.36536">
        <ele>278</ele>
        <time>2019-06-02T06:07:25.000Z</time>
      </trkpt>
      <trkpt lat="43.32693" lon="2.36537">
        <ele>278</ele>
        <time>2019-06-02T06:07:26.000Z</time>
      </trkpt>
      <trkpt lat="43.32693" lon="2.36538">
        <ele>278.1</ele>
        <time>2019-06-02T06:07:27.000Z</time>
      </trkpt>
      <trkpt lat="43.32692" lon="2.3654">
        <ele>278.1</ele>
        <time>2019-06-02T06:07:28.000Z</time>
      </trkpt>
      <trkpt lat="43.32692" lon="2.36542">
        <ele>278.2</ele>
        <time>2019-06-02T06:07:29.000Z</time>
      </trkpt>
      <trkpt lat="43.32691" lon="2.36545">
        <ele>278.2</ele>
        <time>2019-06-02T06:07:30.000Z</time>
      </trkpt>
      <trkpt lat="43.3269" lon="2.36548">
        <ele>278.3</ele>
        <time>2019-06-02T06:07:31.000Z</time>
      </trkpt>
      <trkpt lat="43.32689" lon="2.36551">
        <ele>278.3</ele>
        <time>2019-06-02T06:07:32.000Z</time>
      </trkpt>
      <trkpt lat="43.32688" lon="2.36554">
        <ele>278.3</ele>
        <time>2019-06-02T06:07:33.000Z</time>
      </trkpt>
      <trkpt lat="43.32686" lon="2.36556">
        <ele>278.3</ele>
        <time>2019-06-02T06:07:34.000Z</time>
      </trkpt>
      <trkpt lat="43.32685" lon="2.36559">
        <ele>278.4</ele>
        <time>2019-06-02T06:07:35.000Z</time>
      </trkpt>
      <trkpt lat="43.32683" lon="2.36561">
        <ele>278.3</ele>
        <time>2019-06-02T06:07:36.000Z</time>
      </trkpt>
      <trkpt lat="43.32682" lon="2.36564">
        <ele>278.3</ele>
        <time>2019-06-02T06:07:37.000Z</time>
      </trkpt>
      <trkpt lat="43.3268" lon="2.36566">
        <ele>278.3</ele>
        <time>2019-06-02T06:07:38.000Z</time>
      </trkpt>
      <trkpt lat="43.32679" lon="2.36568">
        <ele>278.3</ele>
        <time>2019-06-02T06:07:39.000Z</time>
      </trkpt>
      <trkpt lat="43.32677" lon="2.3657">
        <ele>278.3</ele>
        <time>2019-06-02T06:07:40.000Z</time>
      </trkpt>
      <trkpt lat="43.32675" lon="2.36573">
        <ele>278.2</ele>
        <time>2019-06-02T06:07:41.000Z</time>
      </trkpt>
      <trkpt lat="43.32674" lon="2.36575">
        <ele>278.2</ele>
        <time>2019-06-02T06:07:42.000Z</time>
      </trkpt>
      <trkpt lat="43.32672" lon="2.36577">
        <ele>278.1</ele>
        <time>2019-06-02T06:07:43.000Z</time>
      </trkpt>
      <trkpt lat="43.3267" lon="2.36579">
        <ele>278.1</ele>
        <time>2019-06-02T06:07:44.000Z</time>
      </trkpt>
      <trkpt lat="43.32668" lon="2.36582">
        <ele>278</ele>
        <time>2019-06-02T06:07:45.000Z</time>
      </trkpt>
      <trkpt lat="43.32666" lon="2.36584">
        <ele>278</ele>
        <time>2019-06-02T06:07:46.000Z</time>
      </trkpt>
      <trkpt lat="43.32665" lon="2.36586">
        <ele>278.1</ele>
        <time>2019-06-02T06:07:47.000Z</time>
      </trkpt>
      <trkpt lat="43.32663" lon="2.36588">
        <ele>278.1</ele>
        <time>2019-06-02T06:07:48.000Z</time>
      </trkpt>
      <trkpt lat="43.32661" lon="2.36591">
        <ele>278.2</ele>
        <time>2019-06-02T06:07:49.000Z</time>
      </trkpt>
      <trkpt lat="43.32659" lon="2.36593">
        <ele>278.3</ele>
        <time>2019-06-02T06:07:50.000Z</time>
      </trkpt>
      <trkpt lat="43.32658" lon="2.36595">
        <ele>278.3</ele>
        <time>2019-06-02T06:07:51.000Z</time>
      </trkpt>
      <trkpt lat="43.32656" lon="2.36597">
        <ele>278.4</ele>
        <time>2019-06-02T06:07:52.000Z</time>
      </trkpt>
      <trkpt lat="43.32654" lon="2.366">
        <ele>278.4</ele>
        <time>2019-06-02T06:07:53.000Z</time>
      </trkpt>
      <trkpt lat="43.32652" lon="2.36602">
        <ele>278.5</ele>
        <time>2019-06-02T06:07:54.000Z</time>
      </trkpt>
      <trkpt lat="43.32651" lon="2.36604">
        <ele>278.5</ele>
        <time>2019-06-02T06:07:55.000Z</time>
      </trkpt>
      <trkpt lat="43.32649" lon="2.36606">
        <ele>278.5</ele>
        <time>2019-06-02T06:07:56.000Z</time>
      </trkpt>
      <trkpt lat="43.32647" lon="2.36608">
        <ele>278.6</ele>
        <time>2019-06-02T06:07:57.000Z</time>
      </trkpt>
      <trkpt lat="43.32645" lon="2.36611">
        <ele>278.6</ele>
        <time>2019-06-02T06:07:58.000Z</time>
      </trkpt>
      <trkpt lat="43.32643" lon="2.36613">
        <ele>278.7</ele>
        <time>2019-06-02T06:07:59.000Z</time>
      </trkpt>
      <trkpt lat="43.32642" lon="2.36615">
        <ele>278.7</ele>
        <time>2019-06-02T06:08:00.000Z</time>
      </trkpt>
      <trkpt lat="43.3264" lon="2.36617">
        <ele>278.7</ele>
        <time>2019-06-02T06:08:01.000Z</time>
      </trkpt>
      <trkpt lat="43.32638" lon="2.36619">
        <ele>278.7</ele>
        <time>2019-06-02T06:08:02.000Z</time>
      </trkpt>
      <trkpt lat="43.32636" lon="2.36621">
        <ele>278.8</ele>
        <time>2019-06-02T06:08:03.000Z</time>
      </trkpt>
      <trkpt lat="43.32635" lon="2.36623">
        <ele>278.8</ele>
        <time>2019-06-02T06:08:04.000Z</time>
      </trkpt>
      <trkpt lat="43.32633" lon="2.36625">
        <ele>278.8</ele>
        <time>2019-06-02T06:08:05.000Z</time>
      </trkpt>
      <trkpt lat="43.32631" lon="2.36628">
        <ele>278.8</ele>
        <time>2019-06-02T06:08:06.000Z</time>
      </trkpt>
      <trkpt lat="43.3263" lon="2.3663">
        <ele>278.8</ele>
        <time>2019-06-02T06:08:07.000Z</time>
      </trkpt>
      <trkpt lat="43.32628" lon="2.36632">
        <ele>278.9</ele>
        <time>2019-06-02T06:08:08.000Z</time>
      </trkpt>
      <trkpt lat="43.32626" lon="2.36634">
        <ele>278.9</ele>
        <time>2019-06-02T06:08:09.000Z</time>
      </trkpt>
      <trkpt lat="43.32625" lon="2.36636">
        <ele>278.9</ele>
        <time>2019-06-02T06:08:10.000Z</time>
      </trkpt>
      <trkpt lat="43.32623" lon="2.36638">
        <ele>278.9</ele>
        <time>2019-06-02T06:08:11.000Z</time>
      </trkpt>
      <trkpt lat="43.32621" lon="2.36641">
        <ele>278.9</ele>
        <time>2019-06-02T06:08:12.000Z</time>
      </trkpt>
      <trkpt lat="43.3262" lon="2.36643">
        <ele>278.9</ele>
        <time>2019-06-02T06:08:13.000Z</time>
      </trkpt>
      <trkpt lat="43.32618" lon="2.36646">
        <ele>278.9</ele>
        <time>2019-06-02T06:08:14.000Z</time>
      </trkpt>
      <trkpt lat="43.32617" lon="2.36648">
        <ele>279</ele>
        <time>2019-06-02T06:08:15.000Z</time>
      </trkpt>
      <trkpt lat="43.32615" lon="2.3665">
        <ele>279</ele>
        <time>2019-06-02T06:08:16.000Z</time>
      </trkpt>
      <trkpt lat="43.32613" lon="2.36653">
        <ele>279</ele>
        <time>2019-06-02T06:08:17.000Z</time>
      </trkpt>
      <trkpt lat="43.32612" lon="2.36656">
        <ele>279</ele>
        <time>2019-06-02T06:08:18.000Z</time>
      </trkpt>
      <trkpt lat="43.3261" lon="2.36658">
        <ele>279</ele>
        <time>2019-06-02T06:08:19.000Z</time>
      </trkpt>
      <trkpt lat="43.32609" lon="2.36661">
        <ele>279</ele>
        <time>2019-06-02T06:08:20.000Z</time>
      </trkpt>
      <trkpt lat="43.32608" lon="2.36664">
        <ele>279.1</ele>
        <time>2019-06-02T06:08:21.000Z</time>
      </trkpt>
      <trkpt lat="43.32606" lon="2.36666">
        <ele>279.1</ele>
        <time>2019-06-02T06:08:22.000Z</time>
      </trkpt>
      <trkpt lat="43.32605" lon="2.36669">
        <ele>279.1</ele>
        <time>2019-06-02T06:08:23.000Z</time>
      </trkpt>
      <trkpt lat="43.32603" lon="2.36672">
        <ele>279.2</ele>
        <time>2019-06-02T06:08:24.000Z</time>
      </trkpt>
      <trkpt lat="43.32602" lon="2.36674">
        <ele>279.2</ele>
        <time>2019-06-02T06:08:25.000Z</time>
      </trkpt>
      <trkpt lat="43.32601" lon="2.36677">
        <ele>279.2</ele>
        <time>2019-06-02T06:08:26.000Z</time>
      </trkpt>
      <trkpt lat="43.32599" lon="2.3668">
        <ele>279.3</ele>
        <time>2019-06-02T06:08:27.000Z</time>
      </trkpt>
      <trkpt lat="43.32598" lon="2.36682">
        <ele>279.3</ele>
        <time>2019-06-02T06:08:28.000Z</time>
      </trkpt>
      <trkpt lat="43.32597" lon="2.36685">
        <ele>279.3</ele>
        <time>2019-06-02T06:08:29.000Z</time>
      </trkpt>
      <trkpt lat="43.32596" lon="2.36688">
        <ele>279.4</ele>
        <time>2019-06-02T06:08:30.000Z</time>
      </trkpt>
      <trkpt lat="43.32594" lon="2.3669">
        <ele>279.4</ele>
        <time>2019-06-02T06:08:31.000Z</time>
      </trkpt>
      <trkpt lat="43.32593" lon="2.36693">
        <ele>279.5</ele>
        <time>2019-06-02T06:08:32.000Z</time>
      </trkpt>
      <trkpt lat="43.32592" lon="2.36696">
        <ele>279.5</ele>
        <time>2019-06-02T06:08:33.000Z</time>
      </trkpt>
      <trkpt lat="43.32591" lon="2.36698">
        <ele>279.5</ele>
        <time>2019-06-02T06:08:34.000Z</time>
      </trkpt>
      <trkpt lat="43.32589" lon="2.36701">
        <ele>279.5</ele>
        <time>2019-06-02T06:08:35.000Z</time>
      </trkpt>
      <trkpt lat="43.32588" lon="2.36703">
        <ele>279.6</ele>
        <time>2019-06-02T06:08:36.000Z</time>
      </trkpt>
      <trkpt lat="43.32587" lon="2.36706">
        <ele>279.6</ele>
        <time>2019-06-02T06:08:37.000Z</time>
      </trkpt>
      <trkpt lat="43.32586" lon="2.36708">
        <ele>279.6</ele>
        <time>2019-06-02T06:08:38.000Z</time>
      </trkpt>
      <trkpt lat="43.32585" lon="2.36711">
        <ele>279.6</ele>
        <time>2019-06-02T06:08:39.000Z</time>
      </trkpt>
      <trkpt lat="43.32583" lon="2.36713">
        <ele>279.7</ele>
        <time>2019-06-02T06:08:40.000Z</time>
      </trkpt>
      <trkpt lat="43.32582" lon="2.36715">
        <ele>279.7</ele>
        <time>2019-06-02T06:08:41.000Z</time>
      </trkpt>
      <trkpt lat="43.32581" lon="2.36717">
        <ele>279.8</ele>
        <time>2019-06-02T06:08:42.000Z</time>
      </trkpt>
      <trkpt lat="43.3258" lon="2.36719">
        <ele>279.9</ele>
        <time>2019-06-02T06:08:43.000Z</time>
      </trkpt>
      <trkpt lat="43.32578" lon="2.36722">
        <ele>279.9</ele>
        <time>2019-06-02T06:08:44.000Z</time>
      </trkpt>
      <trkpt lat="43.32577" lon="2.36724">
        <ele>280</ele>
        <time>2019-06-02T06:08:45.000Z</time>
      </trkpt>
      <trkpt lat="43.32575" lon="2.36726">
        <ele>280.1</ele>
        <time>2019-06-02T06:08:46.000Z</time>
      </trkpt>
      <trkpt lat="43.32574" lon="2.36729">
        <ele>280.2</ele>
        <time>2019-06-02T06:08:47.000Z</time>
      </trkpt>
      <trkpt lat="43.32572" lon="2.36732">
        <ele>280.3</ele>
        <time>2019-06-02T06:08:48.000Z</time>
      </trkpt>
      <trkpt lat="43.3257" lon="2.36735">
        <ele>280.4</ele>
        <time>2019-06-02T06:08:49.000Z</time>
      </trkpt>
      <trkpt lat="43.32569" lon="2.36738">
        <ele>280.5</ele>
        <time>2019-06-02T06:08:50.000Z</time>
      </trkpt>
      <trkpt lat="43.32567" lon="2.36741">
        <ele>280.6</ele>
        <time>2019-06-02T06:08:51.000Z</time>
      </trkpt>
      <trkpt lat="43.32566" lon="2.36743">
        <ele>280.7</ele>
        <time>2019-06-02T06:08:52.000Z</time>
      </trkpt>
      <trkpt lat="43.32565" lon="2.36744">
        <ele>280.8</ele>
        <time>2019-06-02T06:08:53.000Z</time>
      </trkpt>
      <trkpt lat="43.32564" lon="2.36746">
        <ele>280.8</ele>
        <time>2019-06-02T06:08:54.000Z</time>
      </trkpt>
      <trkpt lat="43.32563" lon="2.36747">
        <ele>280.9</ele>
        <time>2019-06-02T06:08:55.000Z</time>
      </trkpt>
      <trkpt lat="43.32562" lon="2.36749">
        <ele>281</ele>
        <time>2019-06-02T06:08:56.000Z</time>
      </trkpt>
      <trkpt lat="43.32561" lon="2.3675">
        <ele>281</ele>
        <time>2019-06-02T06:08:57.000Z</time>
      </trkpt>
      <trkpt lat="43.3256" lon="2.36752">
        <ele>281.1</ele>
        <time>2019-06-02T06:08:58.000Z</time>
      </trkpt>
      <trkpt lat="43.32558" lon="2.36754">
        <ele>281.2</ele>
        <time>2019-06-02T06:08:59.000Z</time>
      </trkpt>
      <trkpt lat="43.32557" lon="2.36756">
        <ele>281.3</ele>
        <time>2019-06-02T06:09:00.000Z</time>
      </trkpt>
      <trkpt lat="43.32555" lon="2.36758">
        <ele>281.4</ele>
        <time>2019-06-02T06:09:01.000Z</time>
      </trkpt>
      <trkpt lat="43.32553" lon="2.3676">
        <ele>281.5</ele>
        <time>2019-06-02T06:09:02.000Z</time>
      </trkpt>
      <trkpt lat="43.32551" lon="2.36762">
        <ele>281.6</ele>
        <time>2019-06-02T06:09:03.000Z</time>
      </trkpt>
      <trkpt lat="43.32549" lon="2.36765">
        <ele>281.7</ele>
        <time>2019-06-02T06:09:04.000Z</time>
      </trkpt>
      <trkpt lat="43.32547" lon="2.36767">
        <ele>281.8</ele>
        <time>2019-06-02T06:09:05.000Z</time>
      </trkpt>
      <trkpt lat="43.32545" lon="2.3677">
        <ele>281.9</ele>
        <time>2019-06-02T06:09:06.000Z</time>
      </trkpt>
      <trkpt lat="43.32543" lon="2.36772">
        <ele>282.1</ele>
        <time>2019-06-02T06:09:07.000Z</time>
      </trkpt>
      <trkpt lat="43.32541" lon="2.36775">
        <ele>282.2</ele>
        <time>2019-06-02T06:09:08.000Z</time>
      </trkpt>
      <trkpt lat="43.32539" lon="2.36777">
        <ele>282.3</ele>
        <time>2019-06-02T06:09:09.000Z</time>
      </trkpt>
      <trkpt lat="43.32537" lon="2.3678">
        <ele>282.4</ele>
        <time>2019-06-02T06:09:10.000Z</time>
      </trkpt>
      <trkpt lat="43.32535" lon="2.36782">
        <ele>282.5</ele>
        <time>2019-06-02T06:09:11.000Z</time>
      </trkpt>
      <trkpt lat="43.32533" lon="2.36784">
        <ele>282.7</ele>
        <time>2019-06-02T06:09:12.000Z</time>
      </trkpt>
      <trkpt lat="43.32531" lon="2.36787">
        <ele>282.8</ele>
        <time>2019-06-02T06:09:13.000Z</time>
      </trkpt>
      <trkpt lat="43.3253" lon="2.36789">
        <ele>282.9</ele>
        <time>2019-06-02T06:09:14.000Z</time>
      </trkpt>
      <trkpt lat="43.32528" lon="2.36791">
        <ele>283</ele>
        <time>2019-06-02T06:09:15.000Z</time>
      </trkpt>
      <trkpt lat="43.32526" lon="2.36793">
        <ele>283.1</ele>
        <time>2019-06-02T06:09:16.000Z</time>
      </trkpt>
      <trkpt lat="43.32524" lon="2.36795">
        <ele>283.2</ele>
        <time>2019-06-02T06:09:17.000Z</time>
      </trkpt>
      <trkpt lat="43.32522" lon="2.36797">
        <ele>283.2</ele>
        <time>2019-06-02T06:09:18.000Z</time>
      </trkpt>
      <trkpt lat="43.3252" lon="2.36799">
        <ele>283.3</ele>
        <time>2019-06-02T06:09:19.000Z</time>
      </trkpt>
      <trkpt lat="43.32518" lon="2.368">
        <ele>283.4</ele>
        <time>2019-06-02T06:09:20.000Z</time>
      </trkpt>
      <trkpt lat="43.32516" lon="2.36802">
        <ele>283.5</ele>
        <time>2019-06-02T06:09:21.000Z</time>
      </trkpt>
      <trkpt lat="43.32515" lon="2.36804">
        <ele>283.6</ele>
        <time>2019-06-02T06:09:22.000Z</time>
      </trkpt>
      <trkpt lat="43.32513" lon="2.36806">
        <ele>283.7</ele>
        <time>2019-06-02T06:09:23.000Z</time>
      </trkpt>
      <trkpt lat="43.32511" lon="2.36808">
        <ele>283.8</ele>
        <time>2019-06-02T06:09:24.000Z</time>
      </trkpt>
      <trkpt lat="43.32509" lon="2.3681">
        <ele>283.9</ele>
        <time>2019-06-02T06:09:25.000Z</time>
      </trkpt>
      <trkpt lat="43.32508" lon="2.36812">
        <ele>284</ele>
        <time>2019-06-02T06:09:26.000Z</time>
      </trkpt>
      <trkpt lat="43.32506" lon="2.36813">
        <ele>284</ele>
        <time>2019-06-02T06:09:27.000Z</time>
      </trkpt>
      <trkpt lat="43.32505" lon="2.36815">
        <ele>284.1</ele>
        <time>2019-06-02T06:09:28.000Z</time>
      </trkpt>
      <trkpt lat="43.32503" lon="2.36817">
        <ele>284.2</ele>
        <time>2019-06-02T06:09:29.000Z</time>
      </trkpt>
      <trkpt lat="43.32501" lon="2.36819">
        <ele>284.3</ele>
        <time>2019-06-02T06:09:30.000Z</time>
      </trkpt>
      <trkpt lat="43.325" lon="2.36822">
        <ele>284.4</ele>
        <time>2019-06-02T06:09:31.000Z</time>
      </trkpt>
      <trkpt lat="43.32498" lon="2.36824">
        <ele>284.5</ele>
        <time>2019-06-02T06:09:32.000Z</time>
      </trkpt>
      <trkpt lat="43.32497" lon="2.36826">
        <ele>284.5</ele>
        <time>2019-06-02T06:09:33.000Z</time>
      </trkpt>
      <trkpt lat="43.32495" lon="2.36828">
        <ele>284.5</ele>
        <time>2019-06-02T06:09:34.000Z</time>
      </trkpt>
      <trkpt lat="43.32494" lon="2.3683">
        <ele>284.5</ele>
        <time>2019-06-02T06:09:35.000Z</time>
      </trkpt>
      <trkpt lat="43.32492" lon="2.36832">
        <ele>284.6</ele>
        <time>2019-06-02T06:09:36.000Z</time>
      </trkpt>
      <trkpt lat="43.32491" lon="2.36834">
        <ele>284.6</ele>
        <time>2019-06-02T06:09:37.000Z</time>
      </trkpt>
      <trkpt lat="43.32489" lon="2.36837">
        <ele>284.5</ele>
        <time>2019-06-02T06:09:38.000Z</time>
      </trkpt>
      <trkpt lat="43.32487" lon="2.36839">
        <ele>284.5</ele>
        <time>2019-06-02T06:09:39.000Z</time>
      </trkpt>
      <trkpt lat="43.32486" lon="2.36841">
        <ele>284.5</ele>
        <time>2019-06-02T06:09:40.000Z</time>
      </trkpt>
      <trkpt lat="43.32484" lon="2.36843">
        <ele>284.5</ele>
        <time>2019-06-02T06:09:41.000Z</time>
      </trkpt>
      <trkpt lat="43.32482" lon="2.36845">
        <ele>284.5</ele>
        <time>2019-06-02T06:09:42.000Z</time>
      </trkpt>
      <trkpt lat="43.3248" lon="2.36848">
        <ele>284.4</ele>
        <time>2019-06-02T06:09:43.000Z</time>
      </trkpt>
      <trkpt lat="43.32479" lon="2.3685">
        <ele>284.4</ele>
        <time>2019-06-02T06:09:44.000Z</time>
      </trkpt>
      <trkpt lat="43.32477" lon="2.36852">
        <ele>284.4</ele>
        <time>2019-06-02T06:09:45.000Z</time>
      </trkpt>
      <trkpt lat="43.32475" lon="2.36854">
        <ele>284.4</ele>
        <time>2019-06-02T06:09:46.000Z</time>
      </trkpt>
      <trkpt lat="43.32473" lon="2.36856">
        <ele>284.3</ele>
        <time>2019-06-02T06:09:47.000Z</time>
      </trkpt>
      <trkpt lat="43.32471" lon="2.36859">
        <ele>284.3</ele>
        <time>2019-06-02T06:09:48.000Z</time>
      </trkpt>
      <trkpt lat="43.32469" lon="2.36861">
        <ele>284.3</ele>
        <time>2019-06-02T06:09:49.000Z</time>
      </trkpt>
      <trkpt lat="43.32467" lon="2.36863">
        <ele>284.3</ele>
        <time>2019-06-02T06:09:50.000Z</time>
      </trkpt>
      <trkpt lat="43.32465" lon="2.36865">
        <ele>284.3</ele>
        <time>2019-06-02T06:09:51.000Z</time>
      </trkpt>
      <trkpt lat="43.32463" lon="2.36868">
        <ele>284.2</ele>
        <time>2019-06-02T06:09:52.000Z</time>
      </trkpt>
      <trkpt lat="43.32461" lon="2.3687">
        <ele>284.2</ele>
        <time>2019-06-02T06:09:53.000Z</time>
      </trkpt>
      <trkpt lat="43.32459" lon="2.36872">
        <ele>284.2</ele>
        <time>2019-06-02T06:09:54.000Z</time>
      </trkpt>
      <trkpt lat="43.32457" lon="2.36874">
        <ele>284.2</ele>
        <time>2019-06-02T06:09:55.000Z</time>
      </trkpt>
      <trkpt lat="43.32456" lon="2.36876">
        <ele>284.2</ele>
        <time>2019-06-02T06:09:56.000Z</time>
      </trkpt>
      <trkpt lat="43.32454" lon="2.36878">
        <ele>284.2</ele>
        <time>2019-06-02T06:09:57.000Z</time>
      </trkpt>
      <trkpt lat="43.32452" lon="2.36881">
        <ele>284.1</ele>
        <time>2019-06-02T06:09:58.000Z</time>
      </trkpt>
      <trkpt lat="43.3245" lon="2.36883">
        <ele>284.1</ele>
        <time>2019-06-02T06:09:59.000Z</time>
      </trkpt>
      <trkpt lat="43.32448" lon="2.36885">
        <ele>284.1</ele>
        <time>2019-06-02T06:10:00.000Z</time>
      </trkpt>
      <trkpt lat="43.32446" lon="2.36887">
        <ele>284.1</ele>
        <time>2019-06-02T06:10:01.000Z</time>
      </trkpt>
      <trkpt lat="43.32444" lon="2.3689">
        <ele>284.1</ele>
        <time>2019-06-02T06:10:02.000Z</time>
      </trkpt>
      <trkpt lat="43.32442" lon="2.36892">
        <ele>284.1</ele>
        <time>2019-06-02T06:10:03.000Z</time>
      </trkpt>
      <trkpt lat="43.3244" lon="2.36895">
        <ele>284.1</ele>
        <time>2019-06-02T06:10:04.000Z</time>
      </trkpt>
      <trkpt lat="43.32439" lon="2.36897">
        <ele>284.1</ele>
        <time>2019-06-02T06:10:05.000Z</time>
      </trkpt>
      <trkpt lat="43.32437" lon="2.36899">
        <ele>284.1</ele>
        <time>2019-06-02T06:10:06.000Z</time>
      </trkpt>
      <trkpt lat="43.32435" lon="2.36902">
        <ele>284.2</ele>
        <time>2019-06-02T06:10:07.000Z</time>
      </trkpt>
      <trkpt lat="43.32433" lon="2.36904">
        <ele>284.2</ele>
        <time>2019-06-02T06:10:08.000Z</time>
      </trkpt>
      <trkpt lat="43.32431" lon="2.36907">
        <ele>284.2</ele>
        <time>2019-06-02T06:10:09.000Z</time>
      </trkpt>
      <trkpt lat="43.32429" lon="2.36909">
        <ele>284.2</ele>
        <time>2019-06-02T06:10:10.000Z</time>
      </trkpt>
      <trkpt lat="43.32427" lon="2.36911">
        <ele>284.2</ele>
        <time>2019-06-02T06:10:11.000Z</time>
      </trkpt>
      <trkpt lat="43.32426" lon="2.36913">
        <ele>284.2</ele>
        <time>2019-06-02T06:10:12.000Z</time>
      </trkpt>
      <trkpt lat="43.32424" lon="2.36916">
        <ele>284.2</ele>
        <time>2019-06-02T06:10:13.000Z</time>
      </trkpt>
      <trkpt lat="43.32422" lon="2.36918">
        <ele>284.2</ele>
        <time>2019-06-02T06:10:14.000Z</time>
      </trkpt>
      <trkpt lat="43.3242" lon="2.3692">
        <ele>284.2</ele>
        <time>2019-06-02T06:10:15.000Z</time>
      </trkpt>
      <trkpt lat="43.32418" lon="2.36922">
        <ele>284.2</ele>
        <time>2019-06-02T06:10:16.000Z</time>
      </trkpt>
      <trkpt lat="43.32416" lon="2.36924">
        <ele>284.2</ele>
        <time>2019-06-02T06:10:17.000Z</time>
      </trkpt>
      <trkpt lat="43.32415" lon="2.36927">
        <ele>284.1</ele>
        <time>2019-06-02T06:10:18.000Z</time>
      </trkpt>
      <trkpt lat="43.32413" lon="2.36929">
        <ele>284</ele>
        <time>2019-06-02T06:10:19.000Z</time>
      </trkpt>
      <trkpt lat="43.32411" lon="2.36931">
        <ele>284</ele>
        <time>2019-06-02T06:10:20.000Z</time>
      </trkpt>
      <trkpt lat="43.32409" lon="2.36933">
        <ele>283.9</ele>
        <time>2019-06-02T06:10:21.000Z</time>
      </trkpt>
      <trkpt lat="43.32408" lon="2.36936">
        <ele>283.8</ele>
        <time>2019-06-02T06:10:22.000Z</time>
      </trkpt>
      <trkpt lat="43.32406" lon="2.36938">
        <ele>283.7</ele>
        <time>2019-06-02T06:10:23.000Z</time>
      </trkpt>
      <trkpt lat="43.32404" lon="2.3694">
        <ele>283.7</ele>
        <time>2019-06-02T06:10:24.000Z</time>
      </trkpt>
      <trkpt lat="43.32403" lon="2.36943">
        <ele>283.6</ele>
        <time>2019-06-02T06:10:25.000Z</time>
      </trkpt>
      <trkpt lat="43.32401" lon="2.36945">
        <ele>283.6</ele>
        <time>2019-06-02T06:10:26.000Z</time>
      </trkpt>
      <trkpt lat="43.324" lon="2.36948">
        <ele>283.5</ele>
        <time>2019-06-02T06:10:27.000Z</time>
      </trkpt>
      <trkpt lat="43.32398" lon="2.3695">
        <ele>283.5</ele>
        <time>2019-06-02T06:10:28.000Z</time>
      </trkpt>
      <trkpt lat="43.32396" lon="2.36953">
        <ele>283.4</ele>
        <time>2019-06-02T06:10:29.000Z</time>
      </trkpt>
      <trkpt lat="43.32395" lon="2.36955">
        <ele>283.4</ele>
        <time>2019-06-02T06:10:30.000Z</time>
      </trkpt>
      <trkpt lat="43.32393" lon="2.36958">
        <ele>283.3</ele>
        <time>2019-06-02T06:10:31.000Z</time>
      </trkpt>
      <trkpt lat="43.32392" lon="2.3696">
        <ele>283.3</ele>
        <time>2019-06-02T06:10:32.000Z</time>
      </trkpt>
      <trkpt lat="43.32391" lon="2.36963">
        <ele>283.2</ele>
        <time>2019-06-02T06:10:33.000Z</time>
      </trkpt>
      <trkpt lat="43.32389" lon="2.36966">
        <ele>283.2</ele>
        <time>2019-06-02T06:10:34.000Z</time>
      </trkpt>
      <trkpt lat="43.32388" lon="2.36968">
        <ele>283.2</ele>
        <time>2019-06-02T06:10:35.000Z</time>
      </trkpt>
      <trkpt lat="43.32386" lon="2.36971">
        <ele>283.1</ele>
        <time>2019-06-02T06:10:36.000Z</time>
      </trkpt>
      <trkpt lat="43.32385" lon="2.36974">
        <ele>283.1</ele>
        <time>2019-06-02T06:10:37.000Z</time>
      </trkpt>
      <trkpt lat="43.32384" lon="2.36977">
        <ele>283.1</ele>
        <time>2019-06-02T06:10:38.000Z</time>
      </trkpt>
      <trkpt lat="43.32382" lon="2.36979">
        <ele>283</ele>
        <time>2019-06-02T06:10:39.000Z</time>
      </trkpt>
      <trkpt lat="43.32381" lon="2.36982">
        <ele>283</ele>
        <time>2019-06-02T06:10:40.000Z</time>
      </trkpt>
      <trkpt lat="43.3238" lon="2.36985">
        <ele>283</ele>
        <time>2019-06-02T06:10:41.000Z</time>
      </trkpt>
      <trkpt lat="43.32379" lon="2.36988">
        <ele>283</ele>
        <time>2019-06-02T06:10:42.000Z</time>
      </trkpt>
      <trkpt lat="43.32378" lon="2.36991">
        <ele>283</ele>
        <time>2019-06-02T06:10:43.000Z</time>
      </trkpt>
      <trkpt lat="43.32376" lon="2.36994">
        <ele>282.9</ele>
        <time>2019-06-02T06:10:44.000Z</time>
      </trkpt>
      <trkpt lat="43.32375" lon="2.36997">
        <ele>282.9</ele>
        <time>2019-06-02T06:10:45.000Z</time>
      </trkpt>
      <trkpt lat="43.32374" lon="2.36999">
        <ele>282.9</ele>
        <time>2019-06-02T06:10:46.000Z</time>
      </trkpt>
      <trkpt lat="43.32373" lon="2.37002">
        <ele>282.9</ele>
        <time>2019-06-02T06:10:47.000Z</time>
      </trkpt>
      <trkpt lat="43.32372" lon="2.37005">
        <ele>282.9</ele>
        <time>2019-06-02T06:10:48.000Z</time>
      </trkpt>
      <trkpt lat="43.32371" lon="2.37008">
        <ele>283</ele>
        <time>2019-06-02T06:10:49.000Z</time>
      </trkpt>
      <trkpt lat="43.3237" lon="2.37011">
        <ele>283</ele>
        <time>2019-06-02T06:10:50.000Z</time>
      </trkpt>
      <trkpt lat="43.32369" lon="2.37014">
        <ele>283</ele>
        <time>2019-06-02T06:10:51.000Z</time>
      </trkpt>
      <trkpt lat="43.32368" lon="2.37017">
        <ele>283</ele>
        <time>2019-06-02T06:10:52.000Z</time>
      </trkpt>
      <trkpt lat="43.32367" lon="2.3702">
        <ele>283</ele>
        <time>2019-06-02T06:10:53.000Z</time>
      </trkpt>
      <trkpt lat="43.32366" lon="2.37023">
        <ele>283</ele>
        <time>2019-06-02T06:10:54.000Z</time>
      </trkpt>
      <trkpt lat="43.32365" lon="2.37026">
        <ele>283</ele>
        <time>2019-06-02T06:10:55.000Z</time>
      </trkpt>
      <trkpt lat="43.32364" lon="2.37029">
        <ele>283</ele>
        <time>2019-06-02T06:10:56.000Z</time>
      </trkpt>
      <trkpt lat="43.32363" lon="2.37032">
        <ele>283.1</ele>
        <time>2019-06-02T06:10:57.000Z</time>
      </trkpt>
      <trkpt lat="43.32362" lon="2.37035">
        <ele>283.1</ele>
        <time>2019-06-02T06:10:58.000Z</time>
      </trkpt>
      <trkpt lat="43.32361" lon="2.37039">
        <ele>283.1</ele>
        <time>2019-06-02T06:10:59.000Z</time>
      </trkpt>
      <trkpt lat="43.32361" lon="2.37042">
        <ele>283.1</ele>
        <time>2019-06-02T06:11:00.000Z</time>
      </trkpt>
      <trkpt lat="43.3236" lon="2.37045">
        <ele>283.1</ele>
        <time>2019-06-02T06:11:01.000Z</time>
      </trkpt>
      <trkpt lat="43.32359" lon="2.37048">
        <ele>283.1</ele>
        <time>2019-06-02T06:11:02.000Z</time>
      </trkpt>
      <trkpt lat="43.32358" lon="2.37051">
        <ele>283.2</ele>
        <time>2019-06-02T06:11:03.000Z</time>
      </trkpt>
      <trkpt lat="43.32357" lon="2.37054">
        <ele>283.2</ele>
        <time>2019-06-02T06:11:04.000Z</time>
      </trkpt>
      <trkpt lat="43.32356" lon="2.37057">
        <ele>283.2</ele>
        <time>2019-06-02T06:11:05.000Z</time>
      </trkpt>
      <trkpt lat="43.32355" lon="2.3706">
        <ele>283.2</ele>
        <time>2019-06-02T06:11:06.000Z</time>
      </trkpt>
      <trkpt lat="43.32354" lon="2.37063">
        <ele>283.2</ele>
        <time>2019-06-02T06:11:07.000Z</time>
      </trkpt>
      <trkpt lat="43.32354" lon="2.37066">
        <ele>283.2</ele>
        <time>2019-06-02T06:11:08.000Z</time>
      </trkpt>
      <trkpt lat="43.32353" lon="2.3707">
        <ele>283.2</ele>
        <time>2019-06-02T06:11:09.000Z</time>
      </trkpt>
      <trkpt lat="43.32352" lon="2.37073">
        <ele>283.3</ele>
        <time>2019-06-02T06:11:10.000Z</time>
      </trkpt>
      <trkpt lat="43.32351" lon="2.37076">
        <ele>283.3</ele>
        <time>2019-06-02T06:11:11.000Z</time>
      </trkpt>
      <trkpt lat="43.3235" lon="2.37079">
        <ele>283.3</ele>
        <time>2019-06-02T06:11:12.000Z</time>
      </trkpt>
      <trkpt lat="43.32349" lon="2.37082">
        <ele>283.3</ele>
        <time>2019-06-02T06:11:13.000Z</time>
      </trkpt>
      <trkpt lat="43.32348" lon="2.37085">
        <ele>283.3</ele>
        <time>2019-06-02T06:11:14.000Z</time>
      </trkpt>
      <trkpt lat="43.32348" lon="2.37088">
        <ele>283.3</ele>
        <time>2019-06-02T06:11:15.000Z</time>
      </trkpt>
      <trkpt lat="43.32347" lon="2.37092">
        <ele>283.3</ele>
        <time>2019-06-02T06:11:16.000Z</time>
      </trkpt>
      <trkpt lat="43.32346" lon="2.37095">
        <ele>283.3</ele>
        <time>2019-06-02T06:11:17.000Z</time>
      </trkpt>
      <trkpt lat="43.32345" lon="2.37098">
        <ele>283.3</ele>
        <time>2019-06-02T06:11:18.000Z</time>
      </trkpt>
      <trkpt lat="43.32344" lon="2.37101">
        <ele>283.3</ele>
        <time>2019-06-02T06:11:19.000Z</time>
      </trkpt>
      <trkpt lat="43.32344" lon="2.37104">
        <ele>283.3</ele>
        <time>2019-06-02T06:11:20.000Z</time>
      </trkpt>
      <trkpt lat="43.32343" lon="2.37107">
        <ele>283.3</ele>
        <time>2019-06-02T06:11:21.000Z</time>
      </trkpt>
      <trkpt lat="43.32342" lon="2.37111">
        <ele>283.3</ele>
        <time>2019-06-02T06:11:22.000Z</time>
      </trkpt>
      <trkpt lat="43.32341" lon="2.37114">
        <ele>283.3</ele>
        <time>2019-06-02T06:11:23.000Z</time>
      </trkpt>
      <trkpt lat="43.3234" lon="2.37117">
        <ele>283.3</ele>
        <time>2019-06-02T06:11:24.000Z</time>
      </trkpt>
      <trkpt lat="43.3234" lon="2.3712">
        <ele>283.3</ele>
        <time>2019-06-02T06:11:25.000Z</time>
      </trkpt>
      <trkpt lat="43.32339" lon="2.37124">
        <ele>283.3</ele>
        <time>2019-06-02T06:11:26.000Z</time>
      </trkpt>
      <trkpt lat="43.32338" lon="2.37127">
        <ele>283.4</ele>
        <time>2019-06-02T06:11:27.000Z</time>
      </trkpt>
      <trkpt lat="43.32338" lon="2.3713">
        <ele>283.4</ele>
        <time>2019-06-02T06:11:28.000Z</time>
      </trkpt>
      <trkpt lat="43.32337" lon="2.37133">
        <ele>283.4</ele>
        <time>2019-06-02T06:11:29.000Z</time>
      </trkpt>
      <trkpt lat="43.32336" lon="2.37136">
        <ele>283.4</ele>
        <time>2019-06-02T06:11:30.000Z</time>
      </trkpt>
      <trkpt lat="43.32335" lon="2.3714">
        <ele>283.5</ele>
        <time>2019-06-02T06:11:31.000Z</time>
      </trkpt>
      <trkpt lat="43.32334" lon="2.37143">
        <ele>283.5</ele>
        <time>2019-06-02T06:11:32.000Z</time>
      </trkpt>
      <trkpt lat="43.32334" lon="2.37146">
        <ele>283.5</ele>
        <time>2019-06-02T06:11:33.000Z</time>
      </trkpt>
      <trkpt lat="43.32333" lon="2.37149">
        <ele>283.6</ele>
        <time>2019-06-02T06:11:34.000Z</time>
      </trkpt>
      <trkpt lat="43.32332" lon="2.37153">
        <ele>283.7</ele>
        <time>2019-06-02T06:11:35.000Z</time>
      </trkpt>
      <trkpt lat="43.32331" lon="2.37156">
        <ele>283.7</ele>
        <time>2019-06-02T06:11:36.000Z</time>
      </trkpt>
      <trkpt lat="43.3233" lon="2.37159">
        <ele>283.8</ele>
        <time>2019-06-02T06:11:37.000Z</time>
      </trkpt>
      <trkpt lat="43.3233" lon="2.37162">
        <ele>283.9</ele>
        <time>2019-06-02T06:11:38.000Z</time>
      </trkpt>
      <trkpt lat="43.32329" lon="2.37165">
        <ele>284</ele>
        <time>2019-06-02T06:11:39.000Z</time>
      </trkpt>
      <trkpt lat="43.32328" lon="2.37168">
        <ele>284.1</ele>
        <time>2019-06-02T06:11:40.000Z</time>
      </trkpt>
      <trkpt lat="43.32327" lon="2.37172">
        <ele>284.2</ele>
        <time>2019-06-02T06:11:41.000Z</time>
      </trkpt>
      <trkpt lat="43.32326" lon="2.37175">
        <ele>284.3</ele>
        <time>2019-06-02T06:11:42.000Z</time>
      </trkpt>
      <trkpt lat="43.32325" lon="2.37178">
        <ele>284.4</ele>
        <time>2019-06-02T06:11:43.000Z</time>
      </trkpt>
      <trkpt lat="43.32324" lon="2.37181">
        <ele>284.5</ele>
        <time>2019-06-02T06:11:44.000Z</time>
      </trkpt>
      <trkpt lat="43.32323" lon="2.37184">
        <ele>284.6</ele>
        <time>2019-06-02T06:11:45.000Z</time>
      </trkpt>
      <trkpt lat="43.32322" lon="2.37187">
        <ele>284.7</ele>
        <time>2019-06-02T06:11:46.000Z</time>
      </trkpt>
      <trkpt lat="43.32321" lon="2.3719">
        <ele>284.8</ele>
        <time>2019-06-02T06:11:47.000Z</time>
      </trkpt>
      <trkpt lat="43.3232" lon="2.37193">
        <ele>284.9</ele>
        <time>2019-06-02T06:11:48.000Z</time>
      </trkpt>
      <trkpt lat="43.32319" lon="2.37197">
        <ele>285.1</ele>
        <time>2019-06-02T06:11:49.000Z</time>
      </trkpt>
      <trkpt lat="43.32318" lon="2.372">
        <ele>285.2</ele>
        <time>2019-06-02T06:11:50.000Z</time>
      </trkpt>
      <trkpt lat="43.32317" lon="2.37203">
        <ele>285.3</ele>
        <time>2019-06-02T06:11:51.000Z</time>
      </trkpt>
      <trkpt lat="43.32316" lon="2.37206">
        <ele>285.4</ele>
        <time>2019-06-02T06:11:52.000Z</time>
      </trkpt>
      <trkpt lat="43.32315" lon="2.37209">
        <ele>285.6</ele>
        <time>2019-06-02T06:11:53.000Z</time>
      </trkpt>
      <trkpt lat="43.32314" lon="2.37212">
        <ele>285.7</ele>
        <time>2019-06-02T06:11:54.000Z</time>
      </trkpt>
      <trkpt lat="43.32313" lon="2.37215">
        <ele>285.8</ele>
        <time>2019-06-02T06:11:55.000Z</time>
      </trkpt>
      <trkpt lat="43.32312" lon="2.37218">
        <ele>286</ele>
        <time>2019-06-02T06:11:56.000Z</time>
      </trkpt>
      <trkpt lat="43.32311" lon="2.37221">
        <ele>286.1</ele>
        <time>2019-06-02T06:11:57.000Z</time>
      </trkpt>
      <trkpt lat="43.3231" lon="2.37224">
        <ele>286.2</ele>
        <time>2019-06-02T06:11:58.000Z</time>
      </trkpt>
      <trkpt lat="43.32309" lon="2.37227">
        <ele>286.4</ele>
        <time>2019-06-02T06:11:59.000Z</time>
      </trkpt>
      <trkpt lat="43.32308" lon="2.3723">
        <ele>286.5</ele>
        <time>2019-06-02T06:12:00.000Z</time>
      </trkpt>
      <trkpt lat="43.32307" lon="2.37233">
        <ele>286.7</ele>
        <time>2019-06-02T06:12:01.000Z</time>
      </trkpt>
      <trkpt lat="43.32306" lon="2.37236">
        <ele>286.8</ele>
        <time>2019-06-02T06:12:02.000Z</time>
      </trkpt>
      <trkpt lat="43.32305" lon="2.3724">
        <ele>287</ele>
        <time>2019-06-02T06:12:03.000Z</time>
      </trkpt>
      <trkpt lat="43.32304" lon="2.37243">
        <ele>287.1</ele>
        <time>2019-06-02T06:12:04.000Z</time>
      </trkpt>
      <trkpt lat="43.32303" lon="2.37246">
        <ele>287.3</ele>
        <time>2019-06-02T06:12:05.000Z</time>
      </trkpt>
      <trkpt lat="43.32302" lon="2.37249">
        <ele>287.4</ele>
        <time>2019-06-02T06:12:06.000Z</time>
      </trkpt>
      <trkpt lat="43.32301" lon="2.37252">
        <ele>287.5</ele>
        <time>2019-06-02T06:12:07.000Z</time>
      </trkpt>
      <trkpt lat="43.32301" lon="2.37255">
        <ele>287.6</ele>
        <time>2019-06-02T06:12:08.000Z</time>
      </trkpt>
      <trkpt lat="43.323" lon="2.37258">
        <ele>287.7</ele>
        <time>2019-06-02T06:12:09.000Z</time>
      </trkpt>
      <trkpt lat="43.32299" lon="2.37261">
        <ele>287.7</ele>
        <time>2019-06-02T06:12:10.000Z</time>
      </trkpt>
      <trkpt lat="43.32298" lon="2.37264">
        <ele>287.8</ele>
        <time>2019-06-02T06:12:11.000Z</time>
      </trkpt>
      <trkpt lat="43.32297" lon="2.37267">
        <ele>287.8</ele>
        <time>2019-06-02T06:12:12.000Z</time>
      </trkpt>
      <trkpt lat="43.32297" lon="2.3727">
        <ele>287.9</ele>
        <time>2019-06-02T06:12:13.000Z</time>
      </trkpt>
      <trkpt lat="43.32296" lon="2.37273">
        <ele>288</ele>
        <time>2019-06-02T06:12:14.000Z</time>
      </trkpt>
      <trkpt lat="43.32295" lon="2.37276">
        <ele>288</ele>
        <time>2019-06-02T06:12:15.000Z</time>
      </trkpt>
      <trkpt lat="43.32294" lon="2.37279">
        <ele>288.1</ele>
        <time>2019-06-02T06:12:16.000Z</time>
      </trkpt>
      <trkpt lat="43.32293" lon="2.37282">
        <ele>288.1</ele>
        <time>2019-06-02T06:12:17.000Z</time>
      </trkpt>
      <trkpt lat="43.32292" lon="2.37285">
        <ele>288.2</ele>
        <time>2019-06-02T06:12:18.000Z</time>
      </trkpt>
      <trkpt lat="43.32291" lon="2.37288">
        <ele>288.3</ele>
        <time>2019-06-02T06:12:19.000Z</time>
      </trkpt>
      <trkpt lat="43.32289" lon="2.37291">
        <ele>288.3</ele>
        <time>2019-06-02T06:12:20.000Z</time>
      </trkpt>
      <trkpt lat="43.32288" lon="2.37294">
        <ele>288.4</ele>
        <time>2019-06-02T06:12:21.000Z</time>
      </trkpt>
      <trkpt lat="43.32287" lon="2.37297">
        <ele>288.5</ele>
        <time>2019-06-02T06:12:22.000Z</time>
      </trkpt>
      <trkpt lat="43.32286" lon="2.373">
        <ele>288.6</ele>
        <time>2019-06-02T06:12:23.000Z</time>
      </trkpt>
      <trkpt lat="43.32284" lon="2.37303">
        <ele>288.6</ele>
        <time>2019-06-02T06:12:24.000Z</time>
      </trkpt>
      <trkpt lat="43.32283" lon="2.37306">
        <ele>288.7</ele>
        <time>2019-06-02T06:12:25.000Z</time>
      </trkpt>
      <trkpt lat="43.32281" lon="2.37309">
        <ele>288.8</ele>
        <time>2019-06-02T06:12:26.000Z</time>
      </trkpt>
      <trkpt lat="43.3228" lon="2.37312">
        <ele>288.8</ele>
        <time>2019-06-02T06:12:27.000Z</time>
      </trkpt>
      <trkpt lat="43.32278" lon="2.37315">
        <ele>288.9</ele>
        <time>2019-06-02T06:12:28.000Z</time>
      </trkpt>
      <trkpt lat="43.32277" lon="2.37318">
        <ele>289</ele>
        <time>2019-06-02T06:12:29.000Z</time>
      </trkpt>
      <trkpt lat="43.32275" lon="2.37321">
        <ele>289</ele>
        <time>2019-06-02T06:12:30.000Z</time>
      </trkpt>
      <trkpt lat="43.32274" lon="2.37324">
        <ele>289.1</ele>
        <time>2019-06-02T06:12:31.000Z</time>
      </trkpt>
      <trkpt lat="43.32273" lon="2.37326">
        <ele>289.2</ele>
        <time>2019-06-02T06:12:32.000Z</time>
      </trkpt>
      <trkpt lat="43.32271" lon="2.37329">
        <ele>289.2</ele>
        <time>2019-06-02T06:12:33.000Z</time>
      </trkpt>
      <trkpt lat="43.3227" lon="2.37332">
        <ele>289.3</ele>
        <time>2019-06-02T06:12:34.000Z</time>
      </trkpt>
      <trkpt lat="43.32268" lon="2.37335">
        <ele>289.3</ele>
        <time>2019-06-02T06:12:35.000Z</time>
      </trkpt>
      <trkpt lat="43.32267" lon="2.37338">
        <ele>289.3</ele>
        <time>2019-06-02T06:12:36.000Z</time>
      </trkpt>
      <trkpt lat="43.32266" lon="2.37341">
        <ele>289.2</ele>
        <time>2019-06-02T06:12:37.000Z</time>
      </trkpt>
      <trkpt lat="43.32264" lon="2.37343">
        <ele>289.2</ele>
        <time>2019-06-02T06:12:38.000Z</time>
      </trkpt>
      <trkpt lat="43.32263" lon="2.37346">
        <ele>289.2</ele>
        <time>2019-06-02T06:12:39.000Z</time>
      </trkpt>
      <trkpt lat="43.32262" lon="2.37349">
        <ele>289.1</ele>
        <time>2019-06-02T06:12:40.000Z</time>
      </trkpt>
      <trkpt lat="43.32261" lon="2.37352">
        <ele>289.1</ele>
        <time>2019-06-02T06:12:41.000Z</time>
      </trkpt>
      <trkpt lat="43.32259" lon="2.37355">
        <ele>289</ele>
        <time>2019-06-02T06:12:42.000Z</time>
      </trkpt>
      <trkpt lat="43.32258" lon="2.37358">
        <ele>288.9</ele>
        <time>2019-06-02T06:12:43.000Z</time>
      </trkpt>
      <trkpt lat="43.32257" lon="2.3736">
        <ele>288.9</ele>
        <time>2019-06-02T06:12:44.000Z</time>
      </trkpt>
      <trkpt lat="43.32256" lon="2.37363">
        <ele>288.8</ele>
        <time>2019-06-02T06:12:45.000Z</time>
      </trkpt>
      <trkpt lat="43.32255" lon="2.37366">
        <ele>288.7</ele>
        <time>2019-06-02T06:12:46.000Z</time>
      </trkpt>
      <trkpt lat="43.32254" lon="2.37369">
        <ele>288.7</ele>
        <time>2019-06-02T06:12:47.000Z</time>
      </trkpt>
      <trkpt lat="43.32252" lon="2.37372">
        <ele>288.6</ele>
        <time>2019-06-02T06:12:48.000Z</time>
      </trkpt>
      <trkpt lat="43.32251" lon="2.37375">
        <ele>288.5</ele>
        <time>2019-06-02T06:12:49.000Z</time>
      </trkpt>
      <trkpt lat="43.3225" lon="2.37378">
        <ele>288.4</ele>
        <time>2019-06-02T06:12:50.000Z</time>
      </trkpt>
      <trkpt lat="43.32249" lon="2.37381">
        <ele>288.3</ele>
        <time>2019-06-02T06:12:51.000Z</time>
      </trkpt>
      <trkpt lat="43.32248" lon="2.37385">
        <ele>288.1</ele>
        <time>2019-06-02T06:12:52.000Z</time>
      </trkpt>
      <trkpt lat="43.32247" lon="2.37388">
        <ele>288</ele>
        <time>2019-06-02T06:12:53.000Z</time>
      </trkpt>
      <trkpt lat="43.32246" lon="2.37391">
        <ele>287.9</ele>
        <time>2019-06-02T06:12:54.000Z</time>
      </trkpt>
      <trkpt lat="43.32245" lon="2.37394">
        <ele>287.8</ele>
        <time>2019-06-02T06:12:55.000Z</time>
      </trkpt>
      <trkpt lat="43.32244" lon="2.37397">
        <ele>287.7</ele>
        <time>2019-06-02T06:12:56.000Z</time>
      </trkpt>
      <trkpt lat="43.32243" lon="2.374">
        <ele>287.6</ele>
        <time>2019-06-02T06:12:57.000Z</time>
      </trkpt>
      <trkpt lat="43.32242" lon="2.37404">
        <ele>287.5</ele>
        <time>2019-06-02T06:12:58.000Z</time>
      </trkpt>
      <trkpt lat="43.32241" lon="2.37407">
        <ele>287.3</ele>
        <time>2019-06-02T06:12:59.000Z</time>
      </trkpt>
      <trkpt lat="43.3224" lon="2.3741">
        <ele>287.2</ele>
        <time>2019-06-02T06:13:00.000Z</time>
      </trkpt>
      <trkpt lat="43.32239" lon="2.37414">
        <ele>287.1</ele>
        <time>2019-06-02T06:13:01.000Z</time>
      </trkpt>
      <trkpt lat="43.32239" lon="2.37417">
        <ele>287</ele>
        <time>2019-06-02T06:13:02.000Z</time>
      </trkpt>
      <trkpt lat="43.32238" lon="2.3742">
        <ele>286.9</ele>
        <time>2019-06-02T06:13:03.000Z</time>
      </trkpt>
      <trkpt lat="43.32237" lon="2.37424">
        <ele>286.7</ele>
        <time>2019-06-02T06:13:04.000Z</time>
      </trkpt>
      <trkpt lat="43.32236" lon="2.37427">
        <ele>286.6</ele>
        <time>2019-06-02T06:13:05.000Z</time>
      </trkpt>
      <trkpt lat="43.32235" lon="2.37431">
        <ele>286.5</ele>
        <time>2019-06-02T06:13:06.000Z</time>
      </trkpt>
      <trkpt lat="43.32235" lon="2.37434">
        <ele>286.4</ele>
        <time>2019-06-02T06:13:07.000Z</time>
      </trkpt>
      <trkpt lat="43.32234" lon="2.37437">
        <ele>286.3</ele>
        <time>2019-06-02T06:13:08.000Z</time>
      </trkpt>
      <trkpt lat="43.32233" lon="2.37441">
        <ele>286.1</ele>
        <time>2019-06-02T06:13:09.000Z</time>
      </trkpt>
      <trkpt lat="43.32233" lon="2.37444">
        <ele>286</ele>
        <time>2019-06-02T06:13:10.000Z</time>
      </trkpt>
      <trkpt lat="43.32232" lon="2.37448">
        <ele>285.9</ele>
        <time>2019-06-02T06:13:11.000Z</time>
      </trkpt>
      <trkpt lat="43.32231" lon="2.37452">
        <ele>285.7</ele>
        <time>2019-06-02T06:13:12.000Z</time>
      </trkpt>
      <trkpt lat="43.32231" lon="2.37455">
        <ele>285.6</ele>
        <time>2019-06-02T06:13:13.000Z</time>
      </trkpt>
      <trkpt lat="43.3223" lon="2.37459">
        <ele>285.5</ele>
        <time>2019-06-02T06:13:14.000Z</time>
      </trkpt>
      <trkpt lat="43.32229" lon="2.37463">
        <ele>285.3</ele>
        <time>2019-06-02T06:13:15.000Z</time>
      </trkpt>
      <trkpt lat="43.32229" lon="2.37467">
        <ele>285.2</ele>
        <time>2019-06-02T06:13:16.000Z</time>
      </trkpt>
      <trkpt lat="43.32228" lon="2.37471">
        <ele>285.1</ele>
        <time>2019-06-02T06:13:17.000Z</time>
      </trkpt>
      <trkpt lat="43.32227" lon="2.37475">
        <ele>284.9</ele>
        <time>2019-06-02T06:13:18.000Z</time>
      </trkpt>
      <trkpt lat="43.32227" lon="2.37479">
        <ele>284.8</ele>
        <time>2019-06-02T06:13:19.000Z</time>
      </trkpt>
      <trkpt lat="43.32226" lon="2.37483">
        <ele>284.6</ele>
        <time>2019-06-02T06:13:20.000Z</time>
      </trkpt>
      <trkpt lat="43.32226" lon="2.37487">
        <ele>284.5</ele>
        <time>2019-06-02T06:13:21.000Z</time>
      </trkpt>
      <trkpt lat="43.32225" lon="2.37491">
        <ele>284.3</ele>
        <time>2019-06-02T06:13:22.000Z</time>
      </trkpt>
      <trkpt lat="43.32224" lon="2.37495">
        <ele>284.2</ele>
        <time>2019-06-02T06:13:23.000Z</time>
      </trkpt>
      <trkpt lat="43.32223" lon="2.37499">
        <ele>284</ele>
        <time>2019-06-02T06:13:24.000Z</time>
      </trkpt>
      <trkpt lat="43.32223" lon="2.37503">
        <ele>283.8</ele>
        <time>2019-06-02T06:13:25.000Z</time>
      </trkpt>
      <trkpt lat="43.32222" lon="2.37507">
        <ele>283.6</ele>
        <time>2019-06-02T06:13:26.000Z</time>
      </trkpt>
      <trkpt lat="43.32221" lon="2.37511">
        <ele>283.4</ele>
        <time>2019-06-02T06:13:27.000Z</time>
      </trkpt>
      <trkpt lat="43.32221" lon="2.37514">
        <ele>283.3</ele>
        <time>2019-06-02T06:13:28.000Z</time>
      </trkpt>
      <trkpt lat="43.3222" lon="2.37518">
        <ele>283.1</ele>
        <time>2019-06-02T06:13:29.000Z</time>
      </trkpt>
      <trkpt lat="43.32219" lon="2.37522">
        <ele>282.9</ele>
        <time>2019-06-02T06:13:30.000Z</time>
      </trkpt>
      <trkpt lat="43.32219" lon="2.37525">
        <ele>282.7</ele>
        <time>2019-06-02T06:13:31.000Z</time>
      </trkpt>
      <trkpt lat="43.32218" lon="2.37528">
        <ele>282.6</ele>
        <time>2019-06-02T06:13:32.000Z</time>
      </trkpt>
      <trkpt lat="43.32217" lon="2.37531">
        <ele>282.4</ele>
        <time>2019-06-02T06:13:33.000Z</time>
      </trkpt>
      <trkpt lat="43.32217" lon="2.37534">
        <ele>282.3</ele>
        <time>2019-06-02T06:13:34.000Z</time>
      </trkpt>
      <trkpt lat="43.32216" lon="2.37537">
        <ele>282.2</ele>
        <time>2019-06-02T06:13:35.000Z</time>
      </trkpt>
      <trkpt lat="43.32216" lon="2.37539">
        <ele>282.1</ele>
        <time>2019-06-02T06:13:36.000Z</time>
      </trkpt>
      <trkpt lat="43.32215" lon="2.3754">
        <ele>282</ele>
        <time>2019-06-02T06:13:37.000Z</time>
      </trkpt>
      <trkpt lat="43.32215" lon="2.37542">
        <ele>281.9</ele>
        <time>2019-06-02T06:13:38.000Z</time>
      </trkpt>
      <trkpt lat="43.32215" lon="2.37542">
        <ele>281.9</ele>
        <time>2019-06-02T06:13:39.000Z</time>
      </trkpt>
      <trkpt lat="43.32214" lon="2.37542">
        <ele>281.9</ele>
        <time>2019-06-02T06:13:40.000Z</time>
      </trkpt>
      <trkpt lat="43.32214" lon="2.37542">
        <ele>281.9</ele>
        <time>2019-06-02T06:13:41.000Z</time>
      </trkpt>
      <trkpt lat="43.32215" lon="2.37541">
        <ele>281.9</ele>
        <time>2019-06-02T06:13:42.000Z</time>
      </trkpt>
      <trkpt lat="43.32215" lon="2.37541">
        <ele>282</ele>
        <time>2019-06-02T06:13:43.000Z</time>
      </trkpt>
      <trkpt lat="43.32215" lon="2.3754">
        <ele>282</ele>
        <time>2019-06-02T06:13:44.000Z</time>
      </trkpt>
      <trkpt lat="43.32215" lon="2.37539">
        <ele>282</ele>
        <time>2019-06-02T06:13:45.000Z</time>
      </trkpt>
      <trkpt lat="43.32215" lon="2.37539">
        <ele>282.1</ele>
        <time>2019-06-02T06:13:46.000Z</time>
      </trkpt>
      <trkpt lat="43.32215" lon="2.37539">
        <ele>282.1</ele>
        <time>2019-06-02T06:13:47.000Z</time>
      </trkpt>
      <trkpt lat="43.32215" lon="2.37539">
        <ele>282.1</ele>
        <time>2019-06-02T06:13:48.000Z</time>
      </trkpt>
      <trkpt lat="43.32213" lon="2.37539">
        <ele>282.1</ele>
        <time>2019-06-02T06:13:49.000Z</time>
      </trkpt>
      <trkpt lat="43.32212" lon="2.37538">
        <ele>282.1</ele>
        <time>2019-06-02T06:13:50.000Z</time>
      </trkpt>
      <trkpt lat="43.32212" lon="2.37536">
        <ele>282.2</ele>
        <time>2019-06-02T06:13:51.000Z</time>
      </trkpt>
      <trkpt lat="43.32212" lon="2.37534">
        <ele>282.3</ele>
        <time>2019-06-02T06:13:52.000Z</time>
      </trkpt>
      <trkpt lat="43.32213" lon="2.37531">
        <ele>282.5</ele>
        <time>2019-06-02T06:13:53.000Z</time>
      </trkpt>
      <trkpt lat="43.32214" lon="2.37529">
        <ele>282.5</ele>
        <time>2019-06-02T06:13:54.000Z</time>
      </trkpt>
      <trkpt lat="43.32216" lon="2.37528">
        <ele>282.6</ele>
        <time>2019-06-02T06:13:55.000Z</time>
      </trkpt>
      <trkpt lat="43.32217" lon="2.37526">
        <ele>282.7</ele>
        <time>2019-06-02T06:13:56.000Z</time>
      </trkpt>
      <trkpt lat="43.32219" lon="2.37525">
        <ele>282.7</ele>
        <time>2019-06-02T06:13:57.000Z</time>
      </trkpt>
      <trkpt lat="43.3222" lon="2.37523">
        <ele>282.8</ele>
        <time>2019-06-02T06:13:58.000Z</time>
      </trkpt>
      <trkpt lat="43.32221" lon="2.37522">
        <ele>282.9</ele>
        <time>2019-06-02T06:13:59.000Z</time>
      </trkpt>
      <trkpt lat="43.32222" lon="2.3752">
        <ele>283</ele>
        <time>2019-06-02T06:14:00.000Z</time>
      </trkpt>
      <trkpt lat="43.32223" lon="2.37518">
        <ele>283.1</ele>
        <time>2019-06-02T06:14:01.000Z</time>
      </trkpt>
      <trkpt lat="43.32223" lon="2.37515">
        <ele>283.2</ele>
        <time>2019-06-02T06:14:02.000Z</time>
      </trkpt>
      <trkpt lat="43.32224" lon="2.37512">
        <ele>283.4</ele>
        <time>2019-06-02T06:14:03.000Z</time>
      </trkpt>
      <trkpt lat="43.32224" lon="2.37509">
        <ele>283.5</ele>
        <time>2019-06-02T06:14:04.000Z</time>
      </trkpt>
      <trkpt lat="43.32223" lon="2.37506">
        <ele>283.7</ele>
        <time>2019-06-02T06:14:05.000Z</time>
      </trkpt>
      <trkpt lat="43.32223" lon="2.37503">
        <ele>283.8</ele>
        <time>2019-06-02T06:14:06.000Z</time>
      </trkpt>
      <trkpt lat="43.32223" lon="2.375">
        <ele>284</ele>
        <time>2019-06-02T06:14:07.000Z</time>
      </trkpt>
      <trkpt lat="43.32223" lon="2.37497">
        <ele>284.1</ele>
        <time>2019-06-02T06:14:08.000Z</time>
      </trkpt>
      <trkpt lat="43.32223" lon="2.37495">
        <ele>284.2</ele>
        <time>2019-06-02T06:14:09.000Z</time>
      </trkpt>
      <trkpt lat="43.32222" lon="2.37493">
        <ele>284.3</ele>
        <time>2019-06-02T06:14:10.000Z</time>
      </trkpt>
      <trkpt lat="43.32222" lon="2.37491">
        <ele>284.3</ele>
        <time>2019-06-02T06:14:11.000Z</time>
      </trkpt>
      <trkpt lat="43.32221" lon="2.3749">
        <ele>284.4</ele>
        <time>2019-06-02T06:14:12.000Z</time>
      </trkpt>
      <trkpt lat="43.3222" lon="2.3749">
        <ele>284.4</ele>
        <time>2019-06-02T06:14:13.000Z</time>
      </trkpt>
      <trkpt lat="43.32219" lon="2.37491">
        <ele>284.3</ele>
        <time>2019-06-02T06:14:14.000Z</time>
      </trkpt>
      <trkpt lat="43.32218" lon="2.37492">
        <ele>284.3</ele>
        <time>2019-06-02T06:14:15.000Z</time>
      </trkpt>
      <trkpt lat="43.32218" lon="2.37494">
        <ele>284.2</ele>
        <time>2019-06-02T06:14:16.000Z</time>
      </trkpt>
      <trkpt lat="43.32218" lon="2.37497">
        <ele>284.1</ele>
        <time>2019-06-02T06:14:17.000Z</time>
      </trkpt>
      <trkpt lat="43.32218" lon="2.375">
        <ele>284</ele>
        <time>2019-06-02T06:14:18.000Z</time>
      </trkpt>
      <trkpt lat="43.32218" lon="2.37504">
        <ele>283.8</ele>
        <time>2019-06-02T06:14:19.000Z</time>
      </trkpt>
      <trkpt lat="43.32218" lon="2.37507">
        <ele>283.6</ele>
        <time>2019-06-02T06:14:20.000Z</time>
      </trkpt>
      <trkpt lat="43.32219" lon="2.37511">
        <ele>283.4</ele>
        <time>2019-06-02T06:14:21.000Z</time>
      </trkpt>
      <trkpt lat="43.32219" lon="2.37515">
        <ele>283.2</ele>
        <time>2019-06-02T06:14:22.000Z</time>
      </trkpt>
      <trkpt lat="43.32218" lon="2.37519">
        <ele>283</ele>
        <time>2019-06-02T06:14:23.000Z</time>
      </trkpt>
      <trkpt lat="43.32218" lon="2.37522">
        <ele>282.9</ele>
        <time>2019-06-02T06:14:24.000Z</time>
      </trkpt>
      <trkpt lat="43.32217" lon="2.37526">
        <ele>282.7</ele>
        <time>2019-06-02T06:14:25.000Z</time>
      </trkpt>
      <trkpt lat="43.32216" lon="2.37529">
        <ele>282.5</ele>
        <time>2019-06-02T06:14:26.000Z</time>
      </trkpt>
      <trkpt lat="43.32215" lon="2.37533">
        <ele>282.4</ele>
        <time>2019-06-02T06:14:27.000Z</time>
      </trkpt>
      <trkpt lat="43.32214" lon="2.37536">
        <ele>282.2</ele>
        <time>2019-06-02T06:14:28.000Z</time>
      </trkpt>
      <trkpt lat="43.32213" lon="2.37539">
        <ele>282.1</ele>
        <time>2019-06-02T06:14:29.000Z</time>
      </trkpt>
      <trkpt lat="43.32212" lon="2.37541">
        <ele>282</ele>
        <time>2019-06-02T06:14:30.000Z</time>
      </trkpt>
      <trkpt lat="43.32211" lon="2.37544">
        <ele>281.9</ele>
        <time>2019-06-02T06:14:31.000Z</time>
      </trkpt>
      <trkpt lat="43.3221" lon="2.37546">
        <ele>281.8</ele>
        <time>2019-06-02T06:14:32.000Z</time>
      </trkpt>
      <trkpt lat="43.32209" lon="2.37548">
        <ele>281.7</ele>
        <time>2019-06-02T06:14:33.000Z</time>
      </trkpt>
      <trkpt lat="43.32208" lon="2.3755">
        <ele>281.6</ele>
        <time>2019-06-02T06:14:34.000Z</time>
      </trkpt>
      <trkpt lat="43.32207" lon="2.37552">
        <ele>281.5</ele>
        <time>2019-06-02T06:14:35.000Z</time>
      </trkpt>
      <trkpt lat="43.32206" lon="2.37554">
        <ele>281.5</ele>
        <time>2019-06-02T06:14:36.000Z</time>
      </trkpt>
      <trkpt lat="43.32204" lon="2.37555">
        <ele>281.4</ele>
        <time>2019-06-02T06:14:37.000Z</time>
      </trkpt>
      <trkpt lat="43.32203" lon="2.37557">
        <ele>281.4</ele>
        <time>2019-06-02T06:14:38.000Z</time>
      </trkpt>
      <trkpt lat="43.32201" lon="2.37558">
        <ele>281.3</ele>
        <time>2019-06-02T06:14:39.000Z</time>
      </trkpt>
      <trkpt lat="43.32199" lon="2.37559">
        <ele>281.3</ele>
        <time>2019-06-02T06:14:40.000Z</time>
      </trkpt>
      <trkpt lat="43.32198" lon="2.3756">
        <ele>281.3</ele>
        <time>2019-06-02T06:14:41.000Z</time>
      </trkpt>
      <trkpt lat="43.32196" lon="2.37562">
        <ele>281.3</ele>
        <time>2019-06-02T06:14:42.000Z</time>
      </trkpt>
      <trkpt lat="43.32194" lon="2.37563">
        <ele>281.2</ele>
        <time>2019-06-02T06:14:43.000Z</time>
      </trkpt>
      <trkpt lat="43.32192" lon="2.37565">
        <ele>281.2</ele>
        <time>2019-06-02T06:14:44.000Z</time>
      </trkpt>
      <trkpt lat="43.3219" lon="2.37566">
        <ele>281.2</ele>
        <time>2019-06-02T06:14:45.000Z</time>
      </trkpt>
      <trkpt lat="43.32188" lon="2.37568">
        <ele>281.1</ele>
        <time>2019-06-02T06:14:46.000Z</time>
      </trkpt>
      <trkpt lat="43.32186" lon="2.3757">
        <ele>281.1</ele>
        <time>2019-06-02T06:14:47.000Z</time>
      </trkpt>
      <trkpt lat="43.32184" lon="2.37572">
        <ele>281.1</ele>
        <time>2019-06-02T06:14:48.000Z</time>
      </trkpt>
      <trkpt lat="43.32182" lon="2.37574">
        <ele>281</ele>
        <time>2019-06-02T06:14:49.000Z</time>
      </trkpt>
      <trkpt lat="43.32181" lon="2.37576">
        <ele>281</ele>
        <time>2019-06-02T06:14:50.000Z</time>
      </trkpt>
      <trkpt lat="43.32179" lon="2.37578">
        <ele>280.9</ele>
        <time>2019-06-02T06:14:51.000Z</time>
      </trkpt>
      <trkpt lat="43.32177" lon="2.37581">
        <ele>280.9</ele>
        <time>2019-06-02T06:14:52.000Z</time>
      </trkpt>
      <trkpt lat="43.32175" lon="2.37583">
        <ele>280.8</ele>
        <time>2019-06-02T06:14:53.000Z</time>
      </trkpt>
      <trkpt lat="43.32174" lon="2.37585">
        <ele>280.8</ele>
        <time>2019-06-02T06:14:54.000Z</time>
      </trkpt>
      <trkpt lat="43.32172" lon="2.37588">
        <ele>280.7</ele>
        <time>2019-06-02T06:14:55.000Z</time>
      </trkpt>
      <trkpt lat="43.3217" lon="2.3759">
        <ele>280.7</ele>
        <time>2019-06-02T06:14:56.000Z</time>
      </trkpt>
      <trkpt lat="43.32168" lon="2.37593">
        <ele>280.6</ele>
        <time>2019-06-02T06:14:57.000Z</time>
      </trkpt>
      <trkpt lat="43.32167" lon="2.37595">
        <ele>280.6</ele>
        <time>2019-06-02T06:14:58.000Z</time>
      </trkpt>
      <trkpt lat="43.32165" lon="2.37597">
        <ele>280.6</ele>
        <time>2019-06-02T06:14:59.000Z</time>
      </trkpt>
      <trkpt lat="43.32163" lon="2.37599">
        <ele>280.6</ele>
        <time>2019-06-02T06:15:00.000Z</time>
      </trkpt>
      <trkpt lat="43.32161" lon="2.37602">
        <ele>280.6</ele>
        <time>2019-06-02T06:15:01.000Z</time>
      </trkpt>
      <trkpt lat="43.3216" lon="2.37604">
        <ele>280.6</ele>
        <time>2019-06-02T06:15:02.000Z</time>
      </trkpt>
      <trkpt lat="43.32158" lon="2.37606">
        <ele>280.6</ele>
        <time>2019-06-02T06:15:03.000Z</time>
      </trkpt>
      <trkpt lat="43.32156" lon="2.37608">
        <ele>280.6</ele>
        <time>2019-06-02T06:15:04.000Z</time>
      </trkpt>
      <trkpt lat="43.32154" lon="2.3761">
        <ele>280.6</ele>
        <time>2019-06-02T06:15:05.000Z</time>
      </trkpt>
      <trkpt lat="43.32153" lon="2.37612">
        <ele>280.6</ele>
        <time>2019-06-02T06:15:06.000Z</time>
      </trkpt>
      <trkpt lat="43.32151" lon="2.37614">
        <ele>280.6</ele>
        <time>2019-06-02T06:15:07.000Z</time>
      </trkpt>
      <trkpt lat="43.32149" lon="2.37616">
        <ele>280.6</ele>
        <time>2019-06-02T06:15:08.000Z</time>
      </trkpt>
      <trkpt lat="43.32147" lon="2.37618">
        <ele>280.6</ele>
        <time>2019-06-02T06:15:09.000Z</time>
      </trkpt>
      <trkpt lat="43.32146" lon="2.3762">
        <ele>280.6</ele>
        <time>2019-06-02T06:15:10.000Z</time>
      </trkpt>
      <trkpt lat="43.32144" lon="2.37622">
        <ele>280.6</ele>
        <time>2019-06-02T06:15:11.000Z</time>
      </trkpt>
      <trkpt lat="43.32142" lon="2.37624">
        <ele>280.6</ele>
        <time>2019-06-02T06:15:12.000Z</time>
      </trkpt>
      <trkpt lat="43.3214" lon="2.37626">
        <ele>280.6</ele>
        <time>2019-06-02T06:15:13.000Z</time>
      </trkpt>
      <trkpt lat="43.32138" lon="2.37628">
        <ele>280.6</ele>
        <time>2019-06-02T06:15:14.000Z</time>
      </trkpt>
      <trkpt lat="43.32137" lon="2.3763">
        <ele>280.5</ele>
        <time>2019-06-02T06:15:15.000Z</time>
      </trkpt>
      <trkpt lat="43.32135" lon="2.37633">
        <ele>280.5</ele>
        <time>2019-06-02T06:15:16.000Z</time>
      </trkpt>
      <trkpt lat="43.32133" lon="2.37635">
        <ele>280.5</ele>
        <time>2019-06-02T06:15:17.000Z</time>
      </trkpt>
      <trkpt lat="43.32131" lon="2.37637">
        <ele>280.5</ele>
        <time>2019-06-02T06:15:18.000Z</time>
      </trkpt>
      <trkpt lat="43.3213" lon="2.37639">
        <ele>280.5</ele>
        <time>2019-06-02T06:15:19.000Z</time>
      </trkpt>
      <trkpt lat="43.32128" lon="2.37641">
        <ele>280.5</ele>
        <time>2019-06-02T06:15:20.000Z</time>
      </trkpt>
      <trkpt lat="43.32126" lon="2.37643">
        <ele>280.4</ele>
        <time>2019-06-02T06:15:21.000Z</time>
      </trkpt>
      <trkpt lat="43.32124" lon="2.37646">
        <ele>280.4</ele>
        <time>2019-06-02T06:15:22.000Z</time>
      </trkpt>
      <trkpt lat="43.32123" lon="2.37648">
        <ele>280.4</ele>
        <time>2019-06-02T06:15:23.000Z</time>
      </trkpt>
      <trkpt lat="43.32121" lon="2.3765">
        <ele>280.4</ele>
        <time>2019-06-02T06:15:24.000Z</time>
      </trkpt>
      <trkpt lat="43.32119" lon="2.37652">
        <ele>280.3</ele>
        <time>2019-06-02T06:15:25.000Z</time>
      </trkpt>
      <trkpt lat="43.32117" lon="2.37654">
        <ele>280.3</ele>
        <time>2019-06-02T06:15:26.000Z</time>
      </trkpt>
      <trkpt lat="43.32116" lon="2.37657">
        <ele>280.3</ele>
        <time>2019-06-02T06:15:27.000Z</time>
      </trkpt>
      <trkpt lat="43.32114" lon="2.37659">
        <ele>280.2</ele>
        <time>2019-06-02T06:15:28.000Z</time>
      </trkpt>
      <trkpt lat="43.32113" lon="2.37661">
        <ele>280.2</ele>
        <time>2019-06-02T06:15:29.000Z</time>
      </trkpt>
      <trkpt lat="43.32111" lon="2.37663">
        <ele>280.2</ele>
        <time>2019-06-02T06:15:30.000Z</time>
      </trkpt>
      <trkpt lat="43.3211" lon="2.37665">
        <ele>280.1</ele>
        <time>2019-06-02T06:15:31.000Z</time>
      </trkpt>
      <trkpt lat="43.32108" lon="2.37667">
        <ele>280.1</ele>
        <time>2019-06-02T06:15:32.000Z</time>
      </trkpt>
      <trkpt lat="43.32106" lon="2.3767">
        <ele>280.1</ele>
        <time>2019-06-02T06:15:33.000Z</time>
      </trkpt>
      <trkpt lat="43.32105" lon="2.37672">
        <ele>280</ele>
        <time>2019-06-02T06:15:34.000Z</time>
      </trkpt>
      <trkpt lat="43.32103" lon="2.37674">
        <ele>280</ele>
        <time>2019-06-02T06:15:35.000Z</time>
      </trkpt>
      <trkpt lat="43.32101" lon="2.37677">
        <ele>280</ele>
        <time>2019-06-02T06:15:36.000Z</time>
      </trkpt>
      <trkpt lat="43.32099" lon="2.37679">
        <ele>280</ele>
        <time>2019-06-02T06:15:37.000Z</time>
      </trkpt>
      <trkpt lat="43.32097" lon="2.37682">
        <ele>279.9</ele>
        <time>2019-06-02T06:15:38.000Z</time>
      </trkpt>
      <trkpt lat="43.32095" lon="2.37684">
        <ele>279.9</ele>
        <time>2019-06-02T06:15:39.000Z</time>
      </trkpt>
      <trkpt lat="43.32093" lon="2.37686">
        <ele>279.9</ele>
        <time>2019-06-02T06:15:40.000Z</time>
      </trkpt>
      <trkpt lat="43.32091" lon="2.37689">
        <ele>279.9</ele>
        <time>2019-06-02T06:15:41.000Z</time>
      </trkpt>
      <trkpt lat="43.32089" lon="2.37691">
        <ele>279.9</ele>
        <time>2019-06-02T06:15:42.000Z</time>
      </trkpt>
      <trkpt lat="43.32087" lon="2.37693">
        <ele>279.9</ele>
        <time>2019-06-02T06:15:43.000Z</time>
      </trkpt>
      <trkpt lat="43.32085" lon="2.37696">
        <ele>279.9</ele>
        <time>2019-06-02T06:15:44.000Z</time>
      </trkpt>
      <trkpt lat="43.32084" lon="2.37698">
        <ele>279.9</ele>
        <time>2019-06-02T06:15:45.000Z</time>
      </trkpt>
      <trkpt lat="43.32082" lon="2.377">
        <ele>279.9</ele>
        <time>2019-06-02T06:15:46.000Z</time>
      </trkpt>
      <trkpt lat="43.3208" lon="2.37702">
        <ele>279.8</ele>
        <time>2019-06-02T06:15:47.000Z</time>
      </trkpt>
      <trkpt lat="43.32078" lon="2.37704">
        <ele>279.8</ele>
        <time>2019-06-02T06:15:48.000Z</time>
      </trkpt>
      <trkpt lat="43.32076" lon="2.37706">
        <ele>279.8</ele>
        <time>2019-06-02T06:15:49.000Z</time>
      </trkpt>
      <trkpt lat="43.32074" lon="2.37708">
        <ele>279.7</ele>
        <time>2019-06-02T06:15:50.000Z</time>
      </trkpt>
      <trkpt lat="43.32072" lon="2.3771">
        <ele>279.7</ele>
        <time>2019-06-02T06:15:51.000Z</time>
      </trkpt>
      <trkpt lat="43.32071" lon="2.37712">
        <ele>279.7</ele>
        <time>2019-06-02T06:15:52.000Z</time>
      </trkpt>
      <trkpt lat="43.32069" lon="2.37714">
        <ele>279.6</ele>
        <time>2019-06-02T06:15:53.000Z</time>
      </trkpt>
      <trkpt lat="43.32067" lon="2.37716">
        <ele>279.6</ele>
        <time>2019-06-02T06:15:54.000Z</time>
      </trkpt>
      <trkpt lat="43.32065" lon="2.37718">
        <ele>279.5</ele>
        <time>2019-06-02T06:15:55.000Z</time>
      </trkpt>
      <trkpt lat="43.32063" lon="2.3772">
        <ele>279.5</ele>
        <time>2019-06-02T06:15:56.000Z</time>
      </trkpt>
      <trkpt lat="43.32062" lon="2.37722">
        <ele>279.4</ele>
        <time>2019-06-02T06:15:57.000Z</time>
      </trkpt>
      <trkpt lat="43.3206" lon="2.37725">
        <ele>279.4</ele>
        <time>2019-06-02T06:15:58.000Z</time>
      </trkpt>
      <trkpt lat="43.32058" lon="2.37727">
        <ele>279.3</ele>
        <time>2019-06-02T06:15:59.000Z</time>
      </trkpt>
      <trkpt lat="43.32056" lon="2.3773">
        <ele>279.2</ele>
        <time>2019-06-02T06:16:00.000Z</time>
      </trkpt>
      <trkpt lat="43.32055" lon="2.37732">
        <ele>279.2</ele>
        <time>2019-06-02T06:16:01.000Z</time>
      </trkpt>
      <trkpt lat="43.32053" lon="2.37734">
        <ele>279.1</ele>
        <time>2019-06-02T06:16:02.000Z</time>
      </trkpt>
      <trkpt lat="43.32051" lon="2.37736">
        <ele>279</ele>
        <time>2019-06-02T06:16:03.000Z</time>
      </trkpt>
      <trkpt lat="43.32049" lon="2.37738">
        <ele>278.9</ele>
        <time>2019-06-02T06:16:04.000Z</time>
      </trkpt>
      <trkpt lat="43.32047" lon="2.3774">
        <ele>278.9</ele>
        <time>2019-06-02T06:16:05.000Z</time>
      </trkpt>
      <trkpt lat="43.32046" lon="2.37742">
        <ele>278.8</ele>
        <time>2019-06-02T06:16:06.000Z</time>
      </trkpt>
      <trkpt lat="43.32044" lon="2.37744">
        <ele>278.8</ele>
        <time>2019-06-02T06:16:07.000Z</time>
      </trkpt>
      <trkpt lat="43.32042" lon="2.37745">
        <ele>278.7</ele>
        <time>2019-06-02T06:16:08.000Z</time>
      </trkpt>
      <trkpt lat="43.3204" lon="2.37747">
        <ele>278.7</ele>
        <time>2019-06-02T06:16:09.000Z</time>
      </trkpt>
      <trkpt lat="43.32038" lon="2.37748">
        <ele>278.6</ele>
        <time>2019-06-02T06:16:10.000Z</time>
      </trkpt>
      <trkpt lat="43.32036" lon="2.3775">
        <ele>278.6</ele>
        <time>2019-06-02T06:16:11.000Z</time>
      </trkpt>
      <trkpt lat="43.32034" lon="2.37751">
        <ele>278.6</ele>
        <time>2019-06-02T06:16:12.000Z</time>
      </trkpt>
      <trkpt lat="43.32032" lon="2.37753">
        <ele>278.6</ele>
        <time>2019-06-02T06:16:13.000Z</time>
      </trkpt>
      <trkpt lat="43.3203" lon="2.37754">
        <ele>278.6</ele>
        <time>2019-06-02T06:16:14.000Z</time>
      </trkpt>
      <trkpt lat="43.32028" lon="2.37755">
        <ele>278.6</ele>
        <time>2019-06-02T06:16:15.000Z</time>
      </trkpt>
      <trkpt lat="43.32026" lon="2.37757">
        <ele>278.6</ele>
        <time>2019-06-02T06:16:16.000Z</time>
      </trkpt>
      <trkpt lat="43.32023" lon="2.37758">
        <ele>278.6</ele>
        <time>2019-06-02T06:16:17.000Z</time>
      </trkpt>
      <trkpt lat="43.32021" lon="2.37759">
        <ele>278.6</ele>
        <time>2019-06-02T06:16:18.000Z</time>
      </trkpt>
      <trkpt lat="43.32019" lon="2.37761">
        <ele>278.6</ele>
        <time>2019-06-02T06:16:19.000Z</time>
      </trkpt>
      <trkpt lat="43.32016" lon="2.37762">
        <ele>278.6</ele>
        <time>2019-06-02T06:16:20.000Z</time>
      </trkpt>
      <trkpt lat="43.32014" lon="2.37763">
        <ele>278.6</ele>
        <time>2019-06-02T06:16:21.000Z</time>
      </trkpt>
      <trkpt lat="43.32012" lon="2.37764">
        <ele>278.6</ele>
        <time>2019-06-02T06:16:22.000Z</time>
      </trkpt>
      <trkpt lat="43.32009" lon="2.37766">
        <ele>278.7</ele>
        <time>2019-06-02T06:16:23.000Z</time>
      </trkpt>
      <trkpt lat="43.32007" lon="2.37767">
        <ele>278.7</ele>
        <time>2019-06-02T06:16:24.000Z</time>
      </trkpt>
      <trkpt lat="43.32005" lon="2.37768">
        <ele>278.7</ele>
        <time>2019-06-02T06:16:25.000Z</time>
      </trkpt>
      <trkpt lat="43.32002" lon="2.3777">
        <ele>278.7</ele>
        <time>2019-06-02T06:16:26.000Z</time>
      </trkpt>
      <trkpt lat="43.32" lon="2.37771">
        <ele>278.7</ele>
        <time>2019-06-02T06:16:27.000Z</time>
      </trkpt>
      <trkpt lat="43.31998" lon="2.37772">
        <ele>278.6</ele>
        <time>2019-06-02T06:16:28.000Z</time>
      </trkpt>
      <trkpt lat="43.31995" lon="2.37774">
        <ele>278.4</ele>
        <time>2019-06-02T06:16:29.000Z</time>
      </trkpt>
      <trkpt lat="43.31993" lon="2.37775">
        <ele>278.2</ele>
        <time>2019-06-02T06:16:30.000Z</time>
      </trkpt>
      <trkpt lat="43.31991" lon="2.37776">
        <ele>278</ele>
        <time>2019-06-02T06:16:31.000Z</time>
      </trkpt>
      <trkpt lat="43.31988" lon="2.37778">
        <ele>277.8</ele>
        <time>2019-06-02T06:16:32.000Z</time>
      </trkpt>
      <trkpt lat="43.31986" lon="2.37779">
        <ele>277.6</ele>
        <time>2019-06-02T06:16:33.000Z</time>
      </trkpt>
      <trkpt lat="43.31984" lon="2.3778">
        <ele>277.5</ele>
        <time>2019-06-02T06:16:34.000Z</time>
      </trkpt>
      <trkpt lat="43.31982" lon="2.37782">
        <ele>277.3</ele>
        <time>2019-06-02T06:16:35.000Z</time>
      </trkpt>
      <trkpt lat="43.31979" lon="2.37783">
        <ele>277.1</ele>
        <time>2019-06-02T06:16:36.000Z</time>
      </trkpt>
      <trkpt lat="43.31977" lon="2.37785">
        <ele>276.9</ele>
        <time>2019-06-02T06:16:37.000Z</time>
      </trkpt>
      <trkpt lat="43.31975" lon="2.37786">
        <ele>276.7</ele>
        <time>2019-06-02T06:16:38.000Z</time>
      </trkpt>
      <trkpt lat="43.31972" lon="2.37788">
        <ele>276.6</ele>
        <time>2019-06-02T06:16:39.000Z</time>
      </trkpt>
      <trkpt lat="43.3197" lon="2.37789">
        <ele>276.4</ele>
        <time>2019-06-02T06:16:40.000Z</time>
      </trkpt>
      <trkpt lat="43.31968" lon="2.37791">
        <ele>276.2</ele>
        <time>2019-06-02T06:16:41.000Z</time>
      </trkpt>
      <trkpt lat="43.31966" lon="2.37792">
        <ele>276</ele>
        <time>2019-06-02T06:16:42.000Z</time>
      </trkpt>
      <trkpt lat="43.31963" lon="2.37794">
        <ele>275.8</ele>
        <time>2019-06-02T06:16:43.000Z</time>
      </trkpt>
      <trkpt lat="43.31961" lon="2.37795">
        <ele>275.6</ele>
        <time>2019-06-02T06:16:44.000Z</time>
      </trkpt>
      <trkpt lat="43.31959" lon="2.37797">
        <ele>275.5</ele>
        <time>2019-06-02T06:16:45.000Z</time>
      </trkpt>
      <trkpt lat="43.31956" lon="2.37798">
        <ele>275.3</ele>
        <time>2019-06-02T06:16:46.000Z</time>
      </trkpt>
      <trkpt lat="43.31954" lon="2.37799">
        <ele>275.1</ele>
        <time>2019-06-02T06:16:47.000Z</time>
      </trkpt>
      <trkpt lat="43.31952" lon="2.37801">
        <ele>274.9</ele>
        <time>2019-06-02T06:16:48.000Z</time>
      </trkpt>
      <trkpt lat="43.31949" lon="2.37802">
        <ele>274.7</ele>
        <time>2019-06-02T06:16:49.000Z</time>
      </trkpt>
      <trkpt lat="43.31947" lon="2.37804">
        <ele>274.5</ele>
        <time>2019-06-02T06:16:50.000Z</time>
      </trkpt>
      <trkpt lat="43.31945" lon="2.37805">
        <ele>274.4</ele>
        <time>2019-06-02T06:16:51.000Z</time>
      </trkpt>
      <trkpt lat="43.31942" lon="2.37806">
        <ele>274.2</ele>
        <time>2019-06-02T06:16:52.000Z</time>
      </trkpt>
      <trkpt lat="43.3194" lon="2.37808">
        <ele>274</ele>
        <time>2019-06-02T06:16:53.000Z</time>
      </trkpt>
      <trkpt lat="43.31938" lon="2.37809">
        <ele>273.8</ele>
        <time>2019-06-02T06:16:54.000Z</time>
      </trkpt>
      <trkpt lat="43.31936" lon="2.37811">
        <ele>273.6</ele>
        <time>2019-06-02T06:16:55.000Z</time>
      </trkpt>
      <trkpt lat="43.31934" lon="2.37813">
        <ele>273.5</ele>
        <time>2019-06-02T06:16:56.000Z</time>
      </trkpt>
      <trkpt lat="43.31931" lon="2.37814">
        <ele>273.3</ele>
        <time>2019-06-02T06:16:57.000Z</time>
      </trkpt>
      <trkpt lat="43.31929" lon="2.37816">
        <ele>273.1</ele>
        <time>2019-06-02T06:16:58.000Z</time>
      </trkpt>
      <trkpt lat="43.31927" lon="2.37817">
        <ele>272.9</ele>
        <time>2019-06-02T06:16:59.000Z</time>
      </trkpt>
      <trkpt lat="43.31925" lon="2.37819">
        <ele>272.8</ele>
        <time>2019-06-02T06:17:00.000Z</time>
      </trkpt>
      <trkpt lat="43.31923" lon="2.3782">
        <ele>272.6</ele>
        <time>2019-06-02T06:17:01.000Z</time>
      </trkpt>
      <trkpt lat="43.31921" lon="2.37822">
        <ele>272.4</ele>
        <time>2019-06-02T06:17:02.000Z</time>
      </trkpt>
      <trkpt lat="43.31918" lon="2.37823">
        <ele>272.2</ele>
        <time>2019-06-02T06:17:03.000Z</time>
      </trkpt>
      <trkpt lat="43.31916" lon="2.37824">
        <ele>272.1</ele>
        <time>2019-06-02T06:17:04.000Z</time>
      </trkpt>
      <trkpt lat="43.31914" lon="2.37825">
        <ele>271.9</ele>
        <time>2019-06-02T06:17:05.000Z</time>
      </trkpt>
      <trkpt lat="43.31911" lon="2.37826">
        <ele>271.7</ele>
        <time>2019-06-02T06:17:06.000Z</time>
      </trkpt>
      <trkpt lat="43.31909" lon="2.37826">
        <ele>271.6</ele>
        <time>2019-06-02T06:17:07.000Z</time>
      </trkpt>
      <trkpt lat="43.31908" lon="2.37827">
        <ele>271.4</ele>
        <time>2019-06-02T06:17:08.000Z</time>
      </trkpt>
      <trkpt lat="43.31906" lon="2.37828">
        <ele>271.3</ele>
        <time>2019-06-02T06:17:09.000Z</time>
      </trkpt>
      <trkpt lat="43.31905" lon="2.37829">
        <ele>271.2</ele>
        <time>2019-06-02T06:17:10.000Z</time>
      </trkpt>
      <trkpt lat="43.31903" lon="2.37829">
        <ele>271.1</ele>
        <time>2019-06-02T06:17:11.000Z</time>
      </trkpt>
      <trkpt lat="43.31902" lon="2.3783">
        <ele>271</ele>
        <time>2019-06-02T06:17:12.000Z</time>
      </trkpt>
      <trkpt lat="43.319" lon="2.37831">
        <ele>270.9</ele>
        <time>2019-06-02T06:17:13.000Z</time>
      </trkpt>
      <trkpt lat="43.31898" lon="2.37832">
        <ele>270.7</ele>
        <time>2019-06-02T06:17:14.000Z</time>
      </trkpt>
      <trkpt lat="43.31896" lon="2.37833">
        <ele>270.5</ele>
        <time>2019-06-02T06:17:15.000Z</time>
      </trkpt>
      <trkpt lat="43.31893" lon="2.37834">
        <ele>270.3</ele>
        <time>2019-06-02T06:17:16.000Z</time>
      </trkpt>
      <trkpt lat="43.3189" lon="2.37835">
        <ele>270.1</ele>
        <time>2019-06-02T06:17:17.000Z</time>
      </trkpt>
      <trkpt lat="43.31887" lon="2.37836">
        <ele>269.9</ele>
        <time>2019-06-02T06:17:18.000Z</time>
      </trkpt>
      <trkpt lat="43.31884" lon="2.37836">
        <ele>269.7</ele>
        <time>2019-06-02T06:17:19.000Z</time>
      </trkpt>
      <trkpt lat="43.31881" lon="2.37837">
        <ele>269.4</ele>
        <time>2019-06-02T06:17:20.000Z</time>
      </trkpt>
      <trkpt lat="43.31878" lon="2.37837">
        <ele>269.2</ele>
        <time>2019-06-02T06:17:21.000Z</time>
      </trkpt>
      <trkpt lat="43.31875" lon="2.37837">
        <ele>269</ele>
        <time>2019-06-02T06:17:22.000Z</time>
      </trkpt>
      <trkpt lat="43.31872" lon="2.37838">
        <ele>268.8</ele>
        <time>2019-06-02T06:17:23.000Z</time>
      </trkpt>
      <trkpt lat="43.31869" lon="2.37838">
        <ele>268.6</ele>
        <time>2019-06-02T06:17:24.000Z</time>
      </trkpt>
      <trkpt lat="43.31866" lon="2.37839">
        <ele>268.4</ele>
        <time>2019-06-02T06:17:25.000Z</time>
      </trkpt>
      <trkpt lat="43.31864" lon="2.37839">
        <ele>268.2</ele>
        <time>2019-06-02T06:17:26.000Z</time>
      </trkpt>
      <trkpt lat="43.31861" lon="2.3784">
        <ele>268</ele>
        <time>2019-06-02T06:17:27.000Z</time>
      </trkpt>
      <trkpt lat="43.31858" lon="2.37841">
        <ele>267.7</ele>
        <time>2019-06-02T06:17:28.000Z</time>
      </trkpt>
      <trkpt lat="43.31855" lon="2.37841">
        <ele>267.5</ele>
        <time>2019-06-02T06:17:29.000Z</time>
      </trkpt>
      <trkpt lat="43.31853" lon="2.37842">
        <ele>267.3</ele>
        <time>2019-06-02T06:17:30.000Z</time>
      </trkpt>
      <trkpt lat="43.3185" lon="2.37843">
        <ele>267.1</ele>
        <time>2019-06-02T06:17:31.000Z</time>
      </trkpt>
      <trkpt lat="43.31848" lon="2.37843">
        <ele>266.9</ele>
        <time>2019-06-02T06:17:32.000Z</time>
      </trkpt>
      <trkpt lat="43.31845" lon="2.37844">
        <ele>266.7</ele>
        <time>2019-06-02T06:17:33.000Z</time>
      </trkpt>
      <trkpt lat="43.31843" lon="2.37844">
        <ele>266.6</ele>
        <time>2019-06-02T06:17:34.000Z</time>
      </trkpt>
      <trkpt lat="43.3184" lon="2.37845">
        <ele>266.4</ele>
        <time>2019-06-02T06:17:35.000Z</time>
      </trkpt>
      <trkpt lat="43.31838" lon="2.37845">
        <ele>266.2</ele>
        <time>2019-06-02T06:17:36.000Z</time>
      </trkpt>
      <trkpt lat="43.31835" lon="2.37846">
        <ele>266</ele>
        <time>2019-06-02T06:17:37.000Z</time>
      </trkpt>
      <trkpt lat="43.31833" lon="2.37846">
        <ele>265.8</ele>
        <time>2019-06-02T06:17:38.000Z</time>
      </trkpt>
      <trkpt lat="43.3183" lon="2.37846">
        <ele>265.6</ele>
        <time>2019-06-02T06:17:39.000Z</time>
      </trkpt>
      <trkpt lat="43.31828" lon="2.37846">
        <ele>265.4</ele>
        <time>2019-06-02T06:17:40.000Z</time>
      </trkpt>
      <trkpt lat="43.31826" lon="2.37847">
        <ele>265.2</ele>
        <time>2019-06-02T06:17:41.000Z</time>
      </trkpt>
      <trkpt lat="43.31823" lon="2.37847">
        <ele>265</ele>
        <time>2019-06-02T06:17:42.000Z</time>
      </trkpt>
      <trkpt lat="43.31821" lon="2.37847">
        <ele>264.8</ele>
        <time>2019-06-02T06:17:43.000Z</time>
      </trkpt>
      <trkpt lat="43.31819" lon="2.37848">
        <ele>264.6</ele>
        <time>2019-06-02T06:17:44.000Z</time>
      </trkpt>
      <trkpt lat="43.31817" lon="2.37848">
        <ele>264.4</ele>
        <time>2019-06-02T06:17:45.000Z</time>
      </trkpt>
      <trkpt lat="43.31814" lon="2.37849">
        <ele>264.2</ele>
        <time>2019-06-02T06:17:46.000Z</time>
      </trkpt>
      <trkpt lat="43.31812" lon="2.3785">
        <ele>264.1</ele>
        <time>2019-06-02T06:17:47.000Z</time>
      </trkpt>
      <trkpt lat="43.3181" lon="2.37851">
        <ele>263.9</ele>
        <time>2019-06-02T06:17:48.000Z</time>
      </trkpt>
      <trkpt lat="43.31808" lon="2.37853">
        <ele>263.7</ele>
        <time>2019-06-02T06:17:49.000Z</time>
      </trkpt>
      <trkpt lat="43.31806" lon="2.37854">
        <ele>263.6</ele>
        <time>2019-06-02T06:17:50.000Z</time>
      </trkpt>
      <trkpt lat="43.31805" lon="2.37856">
        <ele>263.4</ele>
        <time>2019-06-02T06:17:51.000Z</time>
      </trkpt>
      <trkpt lat="43.31803" lon="2.37859">
        <ele>263.3</ele>
        <time>2019-06-02T06:17:52.000Z</time>
      </trkpt>
      <trkpt lat="43.31802" lon="2.37861">
        <ele>263.2</ele>
        <time>2019-06-02T06:17:53.000Z</time>
      </trkpt>
      <trkpt lat="43.31801" lon="2.37864">
        <ele>263.1</ele>
        <time>2019-06-02T06:17:54.000Z</time>
      </trkpt>
      <trkpt lat="43.31801" lon="2.37868">
        <ele>263</ele>
        <time>2019-06-02T06:17:55.000Z</time>
      </trkpt>
      <trkpt lat="43.318" lon="2.37871">
        <ele>262.9</ele>
        <time>2019-06-02T06:17:56.000Z</time>
      </trkpt>
      <trkpt lat="43.318" lon="2.37875">
        <ele>262.9</ele>
        <time>2019-06-02T06:17:57.000Z</time>
      </trkpt>
      <trkpt lat="43.31799" lon="2.37878">
        <ele>262.8</ele>
        <time>2019-06-02T06:17:58.000Z</time>
      </trkpt>
      <trkpt lat="43.31799" lon="2.37882">
        <ele>262.8</ele>
        <time>2019-06-02T06:17:59.000Z</time>
      </trkpt>
      <trkpt lat="43.31798" lon="2.37885">
        <ele>262.7</ele>
        <time>2019-06-02T06:18:00.000Z</time>
      </trkpt>
      <trkpt lat="43.31796" lon="2.37888">
        <ele>262.5</ele>
        <time>2019-06-02T06:18:01.000Z</time>
      </trkpt>
      <trkpt lat="43.31795" lon="2.37891">
        <ele>262.4</ele>
        <time>2019-06-02T06:18:02.000Z</time>
      </trkpt>
      <trkpt lat="43.31793" lon="2.37894">
        <ele>262.2</ele>
        <time>2019-06-02T06:18:03.000Z</time>
      </trkpt>
      <trkpt lat="43.31791" lon="2.37896">
        <ele>262.1</ele>
        <time>2019-06-02T06:18:04.000Z</time>
      </trkpt>
      <trkpt lat="43.31789" lon="2.37899">
        <ele>261.9</ele>
        <time>2019-06-02T06:18:05.000Z</time>
      </trkpt>
      <trkpt lat="43.31788" lon="2.37902">
        <ele>261.8</ele>
        <time>2019-06-02T06:18:06.000Z</time>
      </trkpt>
      <trkpt lat="43.31786" lon="2.37904">
        <ele>261.7</ele>
        <time>2019-06-02T06:18:07.000Z</time>
      </trkpt>
      <trkpt lat="43.31785" lon="2.37907">
        <ele>261.5</ele>
        <time>2019-06-02T06:18:08.000Z</time>
      </trkpt>
      <trkpt lat="43.31783" lon="2.37909">
        <ele>261.4</ele>
        <time>2019-06-02T06:18:09.000Z</time>
      </trkpt>
      <trkpt lat="43.31782" lon="2.37912">
        <ele>261.3</ele>
        <time>2019-06-02T06:18:10.000Z</time>
      </trkpt>
      <trkpt lat="43.31781" lon="2.37915">
        <ele>261.2</ele>
        <time>2019-06-02T06:18:11.000Z</time>
      </trkpt>
      <trkpt lat="43.3178" lon="2.37918">
        <ele>261.1</ele>
        <time>2019-06-02T06:18:12.000Z</time>
      </trkpt>
      <trkpt lat="43.31779" lon="2.37921">
        <ele>261.1</ele>
        <time>2019-06-02T06:18:13.000Z</time>
      </trkpt>
      <trkpt lat="43.31778" lon="2.37924">
        <ele>261.1</ele>
        <time>2019-06-02T06:18:14.000Z</time>
      </trkpt>
      <trkpt lat="43.31777" lon="2.37928">
        <ele>261</ele>
        <time>2019-06-02T06:18:15.000Z</time>
      </trkpt>
      <trkpt lat="43.31776" lon="2.37931">
        <ele>261</ele>
        <time>2019-06-02T06:18:16.000Z</time>
      </trkpt>
      <trkpt lat="43.31775" lon="2.37934">
        <ele>261</ele>
        <time>2019-06-02T06:18:17.000Z</time>
      </trkpt>
      <trkpt lat="43.31774" lon="2.37937">
        <ele>261</ele>
        <time>2019-06-02T06:18:18.000Z</time>
      </trkpt>
      <trkpt lat="43.31773" lon="2.3794">
        <ele>260.9</ele>
        <time>2019-06-02T06:18:19.000Z</time>
      </trkpt>
      <trkpt lat="43.31772" lon="2.37942">
        <ele>260.9</ele>
        <time>2019-06-02T06:18:20.000Z</time>
      </trkpt>
      <trkpt lat="43.31771" lon="2.37944">
        <ele>260.8</ele>
        <time>2019-06-02T06:18:21.000Z</time>
      </trkpt>
      <trkpt lat="43.3177" lon="2.37946">
        <ele>260.8</ele>
        <time>2019-06-02T06:18:22.000Z</time>
      </trkpt>
      <trkpt lat="43.31769" lon="2.37947">
        <ele>260.7</ele>
        <time>2019-06-02T06:18:23.000Z</time>
      </trkpt>
      <trkpt lat="43.31767" lon="2.37949">
        <ele>260.6</ele>
        <time>2019-06-02T06:18:24.000Z</time>
      </trkpt>
      <trkpt lat="43.31766" lon="2.3795">
        <ele>260.6</ele>
        <time>2019-06-02T06:18:25.000Z</time>
      </trkpt>
      <trkpt lat="43.31765" lon="2.37952">
        <ele>260.5</ele>
        <time>2019-06-02T06:18:26.000Z</time>
      </trkpt>
      <trkpt lat="43.31764" lon="2.37953">
        <ele>260.5</ele>
        <time>2019-06-02T06:18:27.000Z</time>
      </trkpt>
      <trkpt lat="43.31763" lon="2.37956">
        <ele>260.4</ele>
        <time>2019-06-02T06:18:28.000Z</time>
      </trkpt>
      <trkpt lat="43.31763" lon="2.37958">
        <ele>260.4</ele>
        <time>2019-06-02T06:18:29.000Z</time>
      </trkpt>
      <trkpt lat="43.31762" lon="2.37961">
        <ele>260.4</ele>
        <time>2019-06-02T06:18:30.000Z</time>
      </trkpt>
      <trkpt lat="43.31761" lon="2.37964">
        <ele>260.4</ele>
        <time>2019-06-02T06:18:31.000Z</time>
      </trkpt>
      <trkpt lat="43.3176" lon="2.37967">
        <ele>260.4</ele>
        <time>2019-06-02T06:18:32.000Z</time>
      </trkpt>
      <trkpt lat="43.3176" lon="2.37971">
        <ele>260.3</ele>
        <time>2019-06-02T06:18:33.000Z</time>
      </trkpt>
      <trkpt lat="43.31759" lon="2.37974">
        <ele>260.3</ele>
        <time>2019-06-02T06:18:34.000Z</time>
      </trkpt>
      <trkpt lat="43.31758" lon="2.37978">
        <ele>260.3</ele>
        <time>2019-06-02T06:18:35.000Z</time>
      </trkpt>
      <trkpt lat="43.31757" lon="2.37981">
        <ele>260.3</ele>
        <time>2019-06-02T06:18:36.000Z</time>
      </trkpt>
      <trkpt lat="43.31756" lon="2.37984">
        <ele>260.3</ele>
        <time>2019-06-02T06:18:37.000Z</time>
      </trkpt>
      <trkpt lat="43.31755" lon="2.37988">
        <ele>260.2</ele>
        <time>2019-06-02T06:18:38.000Z</time>
      </trkpt>
      <trkpt lat="43.31754" lon="2.37991">
        <ele>260.2</ele>
        <time>2019-06-02T06:18:39.000Z</time>
      </trkpt>
      <trkpt lat="43.31753" lon="2.37994">
        <ele>260.1</ele>
        <time>2019-06-02T06:18:40.000Z</time>
      </trkpt>
      <trkpt lat="43.31752" lon="2.37996">
        <ele>260.1</ele>
        <time>2019-06-02T06:18:41.000Z</time>
      </trkpt>
      <trkpt lat="43.3175" lon="2.37999">
        <ele>260</ele>
        <time>2019-06-02T06:18:42.000Z</time>
      </trkpt>
      <trkpt lat="43.31748" lon="2.38002">
        <ele>259.9</ele>
        <time>2019-06-02T06:18:43.000Z</time>
      </trkpt>
      <trkpt lat="43.31746" lon="2.38004">
        <ele>259.8</ele>
        <time>2019-06-02T06:18:44.000Z</time>
      </trkpt>
      <trkpt lat="43.31744" lon="2.38006">
        <ele>259.7</ele>
        <time>2019-06-02T06:18:45.000Z</time>
      </trkpt>
      <trkpt lat="43.31742" lon="2.38007">
        <ele>259.5</ele>
        <time>2019-06-02T06:18:46.000Z</time>
      </trkpt>
      <trkpt lat="43.31739" lon="2.38007">
        <ele>259.2</ele>
        <time>2019-06-02T06:18:47.000Z</time>
      </trkpt>
      <trkpt lat="43.31737" lon="2.38006">
        <ele>258.9</ele>
        <time>2019-06-02T06:18:48.000Z</time>
      </trkpt>
      <trkpt lat="43.31734" lon="2.38005">
        <ele>258.6</ele>
        <time>2019-06-02T06:18:49.000Z</time>
      </trkpt>
      <trkpt lat="43.31732" lon="2.38003">
        <ele>258.2</ele>
        <time>2019-06-02T06:18:50.000Z</time>
      </trkpt>
      <trkpt lat="43.3173" lon="2.38002">
        <ele>257.9</ele>
        <time>2019-06-02T06:18:51.000Z</time>
      </trkpt>
      <trkpt lat="43.31728" lon="2.38">
        <ele>257.6</ele>
        <time>2019-06-02T06:18:52.000Z</time>
      </trkpt>
      <trkpt lat="43.31726" lon="2.37998">
        <ele>257.3</ele>
        <time>2019-06-02T06:18:53.000Z</time>
      </trkpt>
      <trkpt lat="43.31724" lon="2.37996">
        <ele>257.1</ele>
        <time>2019-06-02T06:18:54.000Z</time>
      </trkpt>
      <trkpt lat="43.31722" lon="2.37994">
        <ele>256.9</ele>
        <time>2019-06-02T06:18:55.000Z</time>
      </trkpt>
      <trkpt lat="43.3172" lon="2.37992">
        <ele>256.6</ele>
        <time>2019-06-02T06:18:56.000Z</time>
      </trkpt>
      <trkpt lat="43.31717" lon="2.3799">
        <ele>256.4</ele>
        <time>2019-06-02T06:18:57.000Z</time>
      </trkpt>
      <trkpt lat="43.31715" lon="2.37988">
        <ele>256.1</ele>
        <time>2019-06-02T06:18:58.000Z</time>
      </trkpt>
      <trkpt lat="43.31713" lon="2.37986">
        <ele>255.8</ele>
        <time>2019-06-02T06:18:59.000Z</time>
      </trkpt>
      <trkpt lat="43.3171" lon="2.37984">
        <ele>255.5</ele>
        <time>2019-06-02T06:19:00.000Z</time>
      </trkpt>
      <trkpt lat="43.31708" lon="2.37982">
        <ele>255.2</ele>
        <time>2019-06-02T06:19:01.000Z</time>
      </trkpt>
      <trkpt lat="43.31706" lon="2.3798">
        <ele>255</ele>
        <time>2019-06-02T06:19:02.000Z</time>
      </trkpt>
      <trkpt lat="43.31703" lon="2.37978">
        <ele>254.7</ele>
        <time>2019-06-02T06:19:03.000Z</time>
      </trkpt>
      <trkpt lat="43.31701" lon="2.37977">
        <ele>254.4</ele>
        <time>2019-06-02T06:19:04.000Z</time>
      </trkpt>
      <trkpt lat="43.31698" lon="2.37975">
        <ele>254.1</ele>
        <time>2019-06-02T06:19:05.000Z</time>
      </trkpt>
      <trkpt lat="43.31696" lon="2.37973">
        <ele>253.8</ele>
        <time>2019-06-02T06:19:06.000Z</time>
      </trkpt>
      <trkpt lat="43.31693" lon="2.37972">
        <ele>253.5</ele>
        <time>2019-06-02T06:19:07.000Z</time>
      </trkpt>
      <trkpt lat="43.31691" lon="2.3797">
        <ele>253.3</ele>
        <time>2019-06-02T06:19:08.000Z</time>
      </trkpt>
      <trkpt lat="43.31689" lon="2.37968">
        <ele>253</ele>
        <time>2019-06-02T06:19:09.000Z</time>
      </trkpt>
      <trkpt lat="43.31687" lon="2.37967">
        <ele>252.8</ele>
        <time>2019-06-02T06:19:10.000Z</time>
      </trkpt>
      <trkpt lat="43.31685" lon="2.37965">
        <ele>252.6</ele>
        <time>2019-06-02T06:19:11.000Z</time>
      </trkpt>
      <trkpt lat="43.31683" lon="2.37964">
        <ele>252.3</ele>
        <time>2019-06-02T06:19:12.000Z</time>
      </trkpt>
      <trkpt lat="43.31681" lon="2.37962">
        <ele>252.1</ele>
        <time>2019-06-02T06:19:13.000Z</time>
      </trkpt>
      <trkpt lat="43.31678" lon="2.37961">
        <ele>251.8</ele>
        <time>2019-06-02T06:19:14.000Z</time>
      </trkpt>
      <trkpt lat="43.31676" lon="2.3796">
        <ele>251.5</ele>
        <time>2019-06-02T06:19:15.000Z</time>
      </trkpt>
      <trkpt lat="43.31673" lon="2.37959">
        <ele>251.2</ele>
        <time>2019-06-02T06:19:16.000Z</time>
      </trkpt>
      <trkpt lat="43.31671" lon="2.37958">
        <ele>250.9</ele>
        <time>2019-06-02T06:19:17.000Z</time>
      </trkpt>
      <trkpt lat="43.31668" lon="2.37958">
        <ele>250.6</ele>
        <time>2019-06-02T06:19:18.000Z</time>
      </trkpt>
      <trkpt lat="43.31666" lon="2.37958">
        <ele>250.4</ele>
        <time>2019-06-02T06:19:19.000Z</time>
      </trkpt>
      <trkpt lat="43.31663" lon="2.37958">
        <ele>250.3</ele>
        <time>2019-06-02T06:19:20.000Z</time>
      </trkpt>
      <trkpt lat="43.31661" lon="2.37958">
        <ele>250.2</ele>
        <time>2019-06-02T06:19:21.000Z</time>
      </trkpt>
      <trkpt lat="43.31659" lon="2.37958">
        <ele>250.1</ele>
        <time>2019-06-02T06:19:22.000Z</time>
      </trkpt>
      <trkpt lat="43.31658" lon="2.37959">
        <ele>250</ele>
        <time>2019-06-02T06:19:23.000Z</time>
      </trkpt>
      <trkpt lat="43.31656" lon="2.37959">
        <ele>249.9</ele>
        <time>2019-06-02T06:19:24.000Z</time>
      </trkpt>
      <trkpt lat="43.31655" lon="2.3796">
        <ele>249.9</ele>
        <time>2019-06-02T06:19:25.000Z</time>
      </trkpt>
      <trkpt lat="43.31653" lon="2.3796">
        <ele>249.8</ele>
        <time>2019-06-02T06:19:26.000Z</time>
      </trkpt>
      <trkpt lat="43.31652" lon="2.3796">
        <ele>249.7</ele>
        <time>2019-06-02T06:19:27.000Z</time>
      </trkpt>
      <trkpt lat="43.31652" lon="2.3796">
        <ele>249.7</ele>
        <time>2019-06-02T06:19:28.000Z</time>
      </trkpt>
      <trkpt lat="43.31651" lon="2.3796">
        <ele>249.7</ele>
        <time>2019-06-02T06:19:29.000Z</time>
      </trkpt>
      <trkpt lat="43.31651" lon="2.37961">
        <ele>249.6</ele>
        <time>2019-06-02T06:19:30.000Z</time>
      </trkpt>
      <trkpt lat="43.3165" lon="2.37961">
        <ele>249.6</ele>
        <time>2019-06-02T06:19:31.000Z</time>
      </trkpt>
      <trkpt lat="43.3165" lon="2.37961">
        <ele>249.6</ele>
        <time>2019-06-02T06:19:32.000Z</time>
      </trkpt>
      <trkpt lat="43.3165" lon="2.3796">
        <ele>249.6</ele>
        <time>2019-06-02T06:19:33.000Z</time>
      </trkpt>
      <trkpt lat="43.3165" lon="2.3796">
        <ele>249.6</ele>
        <time>2019-06-02T06:19:34.000Z</time>
      </trkpt>
      <trkpt lat="43.3165" lon="2.3796">
        <ele>249.6</ele>
        <time>2019-06-02T06:19:35.000Z</time>
      </trkpt>
      <trkpt lat="43.3165" lon="2.3796">
        <ele>249.6</ele>
        <time>2019-06-02T06:19:36.000Z</time>
      </trkpt>
      <trkpt lat="43.3165" lon="2.3796">
        <ele>249.6</ele>
        <time>2019-06-02T06:19:37.000Z</time>
      </trkpt>
      <trkpt lat="43.3165" lon="2.3796">
        <ele>249.6</ele>
        <time>2019-06-02T06:19:38.000Z</time>
      </trkpt>
      <trkpt lat="43.3165" lon="2.3796">
        <ele>249.6</ele>
        <time>2019-06-02T06:19:39.000Z</time>
      </trkpt>
      <trkpt lat="43.3165" lon="2.3796">
        <ele>249.6</ele>
        <time>2019-06-02T06:19:40.000Z</time>
      </trkpt>
      <trkpt lat="43.3165" lon="2.3796">
        <ele>249.6</ele>
        <time>2019-06-02T06:19:41.000Z</time>
      </trkpt>
      <trkpt lat="43.3165" lon="2.3796">
        <ele>249.6</ele>
        <time>2019-06-02T06:19:42.000Z</time>
      </trkpt>
      <trkpt lat="43.3165" lon="2.3796">
        <ele>249.6</ele>
        <time>2019-06-02T06:19:43.000Z</time>
      </trkpt>
      <trkpt lat="43.3165" lon="2.3796">
        <ele>249.6</ele>
        <time>2019-06-02T06:19:44.000Z</time>
      </trkpt>
      <trkpt lat="43.3165" lon="2.3796">
        <ele>249.6</ele>
        <time>2019-06-02T06:19:45.000Z</time>
      </trkpt>
      <trkpt lat="43.3165" lon="2.3796">
        <ele>249.6</ele>
        <time>2019-06-02T06:19:46.000Z</time>
      </trkpt>
      <trkpt lat="43.3165" lon="2.3796">
        <ele>249.6</ele>
        <time>2019-06-02T06:19:47.000Z</time>
      </trkpt>
      <trkpt lat="43.3165" lon="2.3796">
        <ele>249.6</ele>
        <time>2019-06-02T06:19:48.000Z</time>
      </trkpt>
      <trkpt lat="43.3165" lon="2.3796">
        <ele>249.6</ele>
        <time>2019-06-02T06:19:49.000Z</time>
      </trkpt>
      <trkpt lat="43.3165" lon="2.3796">
        <ele>249.6</ele>
        <time>2019-06-02T06:19:50.000Z</time>
      </trkpt>
      <trkpt lat="43.3165" lon="2.3796">
        <ele>249.6</ele>
        <time>2019-06-02T06:19:51.000Z</time>
      </trkpt>
      <trkpt lat="43.3165" lon="2.3796">
        <ele>249.6</ele>
        <time>2019-06-02T06:19:52.000Z</time>
      </trkpt>
      <trkpt lat="43.3165" lon="2.3796">
        <ele>249.6</ele>
        <time>2019-06-02T06:19:53.000Z</time>
      </trkpt>
      <trkpt lat="43.3165" lon="2.3796">
        <ele>249.6</ele>
        <time>2019-06-02T06:19:54.000Z</time>
      </trkpt>
      <trkpt lat="43.3165" lon="2.3796">
        <ele>249.6</ele>
        <time>2019-06-02T06:19:55.000Z</time>
      </trkpt>
      <trkpt lat="43.3165" lon="2.3796">
        <ele>249.6</ele>
        <time>2019-06-02T06:19:56.000Z</time>
      </trkpt>
      <trkpt lat="43.3165" lon="2.3796">
        <ele>249.6</ele>
        <time>2019-06-02T06:19:57.000Z</time>
      </trkpt>
      <trkpt lat="43.3165" lon="2.3796">
        <ele>249.6</ele>
        <time>2019-06-02T06:19:58.000Z</time>
      </trkpt>
      <trkpt lat="43.3165" lon="2.3796">
        <ele>249.6</ele>
        <time>2019-06-02T06:19:59.000Z</time>
      </trkpt>
      <trkpt lat="43.3165" lon="2.3796">
        <ele>249.6</ele>
        <time>2019-06-02T06:20:00.000Z</time>
      </trkpt>
      <trkpt lat="43.3165" lon="2.3796">
        <ele>249.6</ele>
        <time>2019-06-02T06:20:01.000Z</time>
      </trkpt>
      <trkpt lat="43.3165" lon="2.3796">
        <ele>249.6</ele>
        <time>2019-06-02T06:20:02.000Z</time>
      </trkpt>
      <trkpt lat="43.3165" lon="2.3796">
        <ele>249.6</ele>
        <time>2019-06-02T06:20:03.000Z</time>
      </trkpt>
      <trkpt lat="43.3165" lon="2.3796">
        <ele>249.6</ele>
        <time>2019-06-02T06:20:04.000Z</time>
      </trkpt>
      <trkpt lat="43.3165" lon="2.3796">
        <ele>249.6</ele>
        <time>2019-06-02T06:20:05.000Z</time>
      </trkpt>
      <trkpt lat="43.3165" lon="2.3796">
        <ele>249.6</ele>
        <time>2019-06-02T06:20:06.000Z</time>
      </trkpt>
      <trkpt lat="43.3165" lon="2.3796">
        <ele>249.6</ele>
        <time>2019-06-02T06:20:07.000Z</time>
      </trkpt>
      <trkpt lat="43.3165" lon="2.3796">
        <ele>249.6</ele>
        <time>2019-06-02T06:20:08.000Z</time>
      </trkpt>
      <trkpt lat="43.3165" lon="2.3796">
        <ele>249.6</ele>
        <time>2019-06-02T06:20:09.000Z</time>
      </trkpt>
      <trkpt lat="43.3165" lon="2.37961">
        <ele>249.6</ele>
        <time>2019-06-02T06:20:10.000Z</time>
      </trkpt>
      <trkpt lat="43.31649" lon="2.37961">
        <ele>249.6</ele>
        <time>2019-06-02T06:20:11.000Z</time>
      </trkpt>
      <trkpt lat="43.31649" lon="2.37963">
        <ele>249.5</ele>
        <time>2019-06-02T06:20:12.000Z</time>
      </trkpt>
      <trkpt lat="43.31648" lon="2.37965">
        <ele>249.5</ele>
        <time>2019-06-02T06:20:13.000Z</time>
      </trkpt>
      <trkpt lat="43.31647" lon="2.37967">
        <ele>249.4</ele>
        <time>2019-06-02T06:20:14.000Z</time>
      </trkpt>
      <trkpt lat="43.31646" lon="2.37968">
        <ele>249.4</ele>
        <time>2019-06-02T06:20:15.000Z</time>
      </trkpt>
      <trkpt lat="43.31646" lon="2.37969">
        <ele>249.4</ele>
        <time>2019-06-02T06:20:16.000Z</time>
      </trkpt>
      <trkpt lat="43.31646" lon="2.37969">
        <ele>249.4</ele>
        <time>2019-06-02T06:20:17.000Z</time>
      </trkpt>
      <trkpt lat="43.31646" lon="2.37969">
        <ele>249.4</ele>
        <time>2019-06-02T06:20:18.000Z</time>
      </trkpt>
      <trkpt lat="43.31646" lon="2.37969">
        <ele>249.4</ele>
        <time>2019-06-02T06:20:19.000Z</time>
      </trkpt>
      <trkpt lat="43.31646" lon="2.37969">
        <ele>249.4</ele>
        <time>2019-06-02T06:20:20.000Z</time>
      </trkpt>
      <trkpt lat="43.31646" lon="2.37969">
        <ele>249.3</ele>
        <time>2019-06-02T06:20:21.000Z</time>
      </trkpt>
      <trkpt lat="43.31645" lon="2.37969">
        <ele>249.3</ele>
        <time>2019-06-02T06:20:22.000Z</time>
      </trkpt>
      <trkpt lat="43.31645" lon="2.37968">
        <ele>249.3</ele>
        <time>2019-06-02T06:20:23.000Z</time>
      </trkpt>
      <trkpt lat="43.31644" lon="2.37969">
        <ele>249.2</ele>
        <time>2019-06-02T06:20:24.000Z</time>
      </trkpt>
      <trkpt lat="43.31644" lon="2.37969">
        <ele>249.2</ele>
        <time>2019-06-02T06:20:25.000Z</time>
      </trkpt>
      <trkpt lat="43.31644" lon="2.37969">
        <ele>249.2</ele>
        <time>2019-06-02T06:20:26.000Z</time>
      </trkpt>
      <trkpt lat="43.31644" lon="2.37969">
        <ele>249.2</ele>
        <time>2019-06-02T06:20:27.000Z</time>
      </trkpt>
      <trkpt lat="43.31644" lon="2.37969">
        <ele>249.2</ele>
        <time>2019-06-02T06:20:28.000Z</time>
      </trkpt>
      <trkpt lat="43.31644" lon="2.37969">
        <ele>249.2</ele>
        <time>2019-06-02T06:20:29.000Z</time>
      </trkpt>
      <trkpt lat="43.31644" lon="2.37969">
        <ele>249.2</ele>
        <time>2019-06-02T06:20:30.000Z</time>
      </trkpt>
      <trkpt lat="43.31644" lon="2.37969">
        <ele>249.2</ele>
        <time>2019-06-02T06:20:31.000Z</time>
      </trkpt>
      <trkpt lat="43.31644" lon="2.37969">
        <ele>249.2</ele>
        <time>2019-06-02T06:20:32.000Z</time>
      </trkpt>
      <trkpt lat="43.31644" lon="2.3797">
        <ele>249.2</ele>
        <time>2019-06-02T06:20:33.000Z</time>
      </trkpt>
      <trkpt lat="43.31644" lon="2.3797">
        <ele>249.2</ele>
        <time>2019-06-02T06:20:34.000Z</time>
      </trkpt>
      <trkpt lat="43.31644" lon="2.3797">
        <ele>249.2</ele>
        <time>2019-06-02T06:20:35.000Z</time>
      </trkpt>
      <trkpt lat="43.31644" lon="2.3797">
        <ele>249.2</ele>
        <time>2019-06-02T06:20:36.000Z</time>
      </trkpt>
      <trkpt lat="43.31644" lon="2.3797">
        <ele>249.2</ele>
        <time>2019-06-02T06:20:37.000Z</time>
      </trkpt>
      <trkpt lat="43.31644" lon="2.3797">
        <ele>249.2</ele>
        <time>2019-06-02T06:20:38.000Z</time>
      </trkpt>
      <trkpt lat="43.31644" lon="2.3797">
        <ele>249.2</ele>
        <time>2019-06-02T06:20:39.000Z</time>
      </trkpt>
      <trkpt lat="43.31644" lon="2.3797">
        <ele>249.2</ele>
        <time>2019-06-02T06:20:40.000Z</time>
      </trkpt>
      <trkpt lat="43.31643" lon="2.3797">
        <ele>249.1</ele>
        <time>2019-06-02T06:20:41.000Z</time>
      </trkpt>
      <trkpt lat="43.31642" lon="2.37971">
        <ele>249.1</ele>
        <time>2019-06-02T06:20:42.000Z</time>
      </trkpt>
      <trkpt lat="43.31641" lon="2.37971">
        <ele>249</ele>
        <time>2019-06-02T06:20:43.000Z</time>
      </trkpt>
      <trkpt lat="43.31641" lon="2.37972">
        <ele>249</ele>
        <time>2019-06-02T06:20:44.000Z</time>
      </trkpt>
      <trkpt lat="43.31641" lon="2.37972">
        <ele>249</ele>
        <time>2019-06-02T06:20:45.000Z</time>
      </trkpt>
      <trkpt lat="43.31641" lon="2.37972">
        <ele>249</ele>
        <time>2019-06-02T06:20:46.000Z</time>
      </trkpt>
      <trkpt lat="43.31641" lon="2.37972">
        <ele>249</ele>
        <time>2019-06-02T06:20:47.000Z</time>
      </trkpt>
      <trkpt lat="43.31641" lon="2.37972">
        <ele>249</ele>
        <time>2019-06-02T06:20:48.000Z</time>
      </trkpt>
      <trkpt lat="43.31641" lon="2.37972">
        <ele>249</ele>
        <time>2019-06-02T06:20:49.000Z</time>
      </trkpt>
      <trkpt lat="43.31641" lon="2.37972">
        <ele>249</ele>
        <time>2019-06-02T06:20:50.000Z</time>
      </trkpt>
      <trkpt lat="43.31641" lon="2.37972">
        <ele>249</ele>
        <time>2019-06-02T06:20:51.000Z</time>
      </trkpt>
      <trkpt lat="43.31641" lon="2.37972">
        <ele>249</ele>
        <time>2019-06-02T06:20:52.000Z</time>
      </trkpt>
      <trkpt lat="43.31641" lon="2.37972">
        <ele>249</ele>
        <time>2019-06-02T06:20:53.000Z</time>
      </trkpt>
      <trkpt lat="43.31641" lon="2.37972">
        <ele>249</ele>
        <time>2019-06-02T06:20:54.000Z</time>
      </trkpt>
      <trkpt lat="43.31641" lon="2.37972">
        <ele>249</ele>
        <time>2019-06-02T06:20:55.000Z</time>
      </trkpt>
      <trkpt lat="43.31641" lon="2.37972">
        <ele>249</ele>
        <time>2019-06-02T06:20:56.000Z</time>
      </trkpt>
      <trkpt lat="43.31641" lon="2.37971">
        <ele>249</ele>
        <time>2019-06-02T06:20:57.000Z</time>
      </trkpt>
      <trkpt lat="43.3164" lon="2.37971">
        <ele>249</ele>
        <time>2019-06-02T06:20:58.000Z</time>
      </trkpt>
      <trkpt lat="43.31639" lon="2.37971">
        <ele>248.9</ele>
        <time>2019-06-02T06:20:59.000Z</time>
      </trkpt>
      <trkpt lat="43.31638" lon="2.3797">
        <ele>248.9</ele>
        <time>2019-06-02T06:21:00.000Z</time>
      </trkpt>
      <trkpt lat="43.31637" lon="2.37969">
        <ele>248.8</ele>
        <time>2019-06-02T06:21:01.000Z</time>
      </trkpt>
      <trkpt lat="43.31637" lon="2.37968">
        <ele>248.8</ele>
        <time>2019-06-02T06:21:02.000Z</time>
      </trkpt>
      <trkpt lat="43.31637" lon="2.37966">
        <ele>248.8</ele>
        <time>2019-06-02T06:21:03.000Z</time>
      </trkpt>
      <trkpt lat="43.31637" lon="2.37966">
        <ele>248.8</ele>
        <time>2019-06-02T06:21:04.000Z</time>
      </trkpt>
      <trkpt lat="43.31637" lon="2.37965">
        <ele>248.8</ele>
        <time>2019-06-02T06:21:05.000Z</time>
      </trkpt>
      <trkpt lat="43.31637" lon="2.37965">
        <ele>248.8</ele>
        <time>2019-06-02T06:21:06.000Z</time>
      </trkpt>
      <trkpt lat="43.31637" lon="2.37965">
        <ele>248.8</ele>
        <time>2019-06-02T06:21:07.000Z</time>
      </trkpt>
      <trkpt lat="43.31637" lon="2.37965">
        <ele>248.8</ele>
        <time>2019-06-02T06:21:08.000Z</time>
      </trkpt>
      <trkpt lat="43.31637" lon="2.37965">
        <ele>248.8</ele>
        <time>2019-06-02T06:21:09.000Z</time>
      </trkpt>
      <trkpt lat="43.31636" lon="2.37965">
        <ele>248.8</ele>
        <time>2019-06-02T06:21:10.000Z</time>
      </trkpt>
      <trkpt lat="43.31636" lon="2.37965">
        <ele>248.8</ele>
        <time>2019-06-02T06:21:11.000Z</time>
      </trkpt>
      <trkpt lat="43.31636" lon="2.37964">
        <ele>248.8</ele>
        <time>2019-06-02T06:21:12.000Z</time>
      </trkpt>
      <trkpt lat="43.31636" lon="2.37961">
        <ele>248.8</ele>
        <time>2019-06-02T06:21:13.000Z</time>
      </trkpt>
      <trkpt lat="43.31635" lon="2.37957">
        <ele>248.8</ele>
        <time>2019-06-02T06:21:14.000Z</time>
      </trkpt>
      <trkpt lat="43.31635" lon="2.37953">
        <ele>248.8</ele>
        <time>2019-06-02T06:21:15.000Z</time>
      </trkpt>
      <trkpt lat="43.31634" lon="2.3795">
        <ele>248.9</ele>
        <time>2019-06-02T06:21:16.000Z</time>
      </trkpt>
      <trkpt lat="43.31634" lon="2.37947">
        <ele>248.9</ele>
        <time>2019-06-02T06:21:17.000Z</time>
      </trkpt>
      <trkpt lat="43.31633" lon="2.37944">
        <ele>248.8</ele>
        <time>2019-06-02T06:21:18.000Z</time>
      </trkpt>
      <trkpt lat="43.31632" lon="2.37942">
        <ele>248.8</ele>
        <time>2019-06-02T06:21:19.000Z</time>
      </trkpt>
      <trkpt lat="43.3163" lon="2.3794">
        <ele>248.8</ele>
        <time>2019-06-02T06:21:20.000Z</time>
      </trkpt>
      <trkpt lat="43.31628" lon="2.37937">
        <ele>248.7</ele>
        <time>2019-06-02T06:21:21.000Z</time>
      </trkpt>
      <trkpt lat="43.31626" lon="2.37936">
        <ele>248.7</ele>
        <time>2019-06-02T06:21:22.000Z</time>
      </trkpt>
      <trkpt lat="43.31624" lon="2.37934">
        <ele>248.6</ele>
        <time>2019-06-02T06:21:23.000Z</time>
      </trkpt>
      <trkpt lat="43.31621" lon="2.37932">
        <ele>248.6</ele>
        <time>2019-06-02T06:21:24.000Z</time>
      </trkpt>
      <trkpt lat="43.31618" lon="2.37931">
        <ele>248.5</ele>
        <time>2019-06-02T06:21:25.000Z</time>
      </trkpt>
      <trkpt lat="43.31616" lon="2.3793">
        <ele>248.5</ele>
        <time>2019-06-02T06:21:26.000Z</time>
      </trkpt>
      <trkpt lat="43.31613" lon="2.37929">
        <ele>248.4</ele>
        <time>2019-06-02T06:21:27.000Z</time>
      </trkpt>
      <trkpt lat="43.3161" lon="2.37928">
        <ele>248.3</ele>
        <time>2019-06-02T06:21:28.000Z</time>
      </trkpt>
      <trkpt lat="43.31607" lon="2.37927">
        <ele>248.3</ele>
        <time>2019-06-02T06:21:29.000Z</time>
      </trkpt>
      <trkpt lat="43.31604" lon="2.37926">
        <ele>248.2</ele>
        <time>2019-06-02T06:21:30.000Z</time>
      </trkpt>
      <trkpt lat="43.31602" lon="2.37925">
        <ele>248.1</ele>
        <time>2019-06-02T06:21:31.000Z</time>
      </trkpt>
      <trkpt lat="43.31599" lon="2.37924">
        <ele>248.1</ele>
        <time>2019-06-02T06:21:32.000Z</time>
      </trkpt>
      <trkpt lat="43.31596" lon="2.37924">
        <ele>248</ele>
        <time>2019-06-02T06:21:33.000Z</time>
      </trkpt>
      <trkpt lat="43.31593" lon="2.37923">
        <ele>248</ele>
        <time>2019-06-02T06:21:34.000Z</time>
      </trkpt>
      <trkpt lat="43.31591" lon="2.37922">
        <ele>247.9</ele>
        <time>2019-06-02T06:21:35.000Z</time>
      </trkpt>
      <trkpt lat="43.31588" lon="2.37922">
        <ele>247.9</ele>
        <time>2019-06-02T06:21:36.000Z</time>
      </trkpt>
      <trkpt lat="43.31586" lon="2.37921">
        <ele>247.8</ele>
        <time>2019-06-02T06:21:37.000Z</time>
      </trkpt>
      <trkpt lat="43.31583" lon="2.37921">
        <ele>247.8</ele>
        <time>2019-06-02T06:21:38.000Z</time>
      </trkpt>
      <trkpt lat="43.31581" lon="2.3792">
        <ele>248</ele>
        <time>2019-06-02T06:21:39.000Z</time>
      </trkpt>
      <trkpt lat="43.31578" lon="2.3792">
        <ele>248.2</ele>
        <time>2019-06-02T06:21:40.000Z</time>
      </trkpt>
      <trkpt lat="43.31575" lon="2.37919">
        <ele>248.4</ele>
        <time>2019-06-02T06:21:41.000Z</time>
      </trkpt>
      <trkpt lat="43.31573" lon="2.37919">
        <ele>248.5</ele>
        <time>2019-06-02T06:21:42.000Z</time>
      </trkpt>
      <trkpt lat="43.3157" lon="2.37918">
        <ele>248.7</ele>
        <time>2019-06-02T06:21:43.000Z</time>
      </trkpt>
      <trkpt lat="43.31568" lon="2.37917">
        <ele>248.9</ele>
        <time>2019-06-02T06:21:44.000Z</time>
      </trkpt>
      <trkpt lat="43.31565" lon="2.37917">
        <ele>249.1</ele>
        <time>2019-06-02T06:21:45.000Z</time>
      </trkpt>
      <trkpt lat="43.31562" lon="2.37916">
        <ele>249.3</ele>
        <time>2019-06-02T06:21:46.000Z</time>
      </trkpt>
      <trkpt lat="43.3156" lon="2.37916">
        <ele>249.5</ele>
        <time>2019-06-02T06:21:47.000Z</time>
      </trkpt>
      <trkpt lat="43.31557" lon="2.37915">
        <ele>249.7</ele>
        <time>2019-06-02T06:21:48.000Z</time>
      </trkpt>
      <trkpt lat="43.31554" lon="2.37915">
        <ele>249.8</ele>
        <time>2019-06-02T06:21:49.000Z</time>
      </trkpt>
      <trkpt lat="43.31552" lon="2.37915">
        <ele>250</ele>
        <time>2019-06-02T06:21:50.000Z</time>
      </trkpt>
      <trkpt lat="43.31549" lon="2.37916">
        <ele>250.1</ele>
        <time>2019-06-02T06:21:51.000Z</time>
      </trkpt>
      <trkpt lat="43.31547" lon="2.37916">
        <ele>250.2</ele>
        <time>2019-06-02T06:21:52.000Z</time>
      </trkpt>
      <trkpt lat="43.31545" lon="2.37917">
        <ele>250.3</ele>
        <time>2019-06-02T06:21:53.000Z</time>
      </trkpt>
      <trkpt lat="43.31542" lon="2.37918">
        <ele>250.3</ele>
        <time>2019-06-02T06:21:54.000Z</time>
      </trkpt>
      <trkpt lat="43.3154" lon="2.3792">
        <ele>250.4</ele>
        <time>2019-06-02T06:21:55.000Z</time>
      </trkpt>
      <trkpt lat="43.31538" lon="2.37921">
        <ele>250.4</ele>
        <time>2019-06-02T06:21:56.000Z</time>
      </trkpt>
      <trkpt lat="43.31536" lon="2.37923">
        <ele>250.3</ele>
        <time>2019-06-02T06:21:57.000Z</time>
      </trkpt>
      <trkpt lat="43.31534" lon="2.37925">
        <ele>250.3</ele>
        <time>2019-06-02T06:21:58.000Z</time>
      </trkpt>
      <trkpt lat="43.31532" lon="2.37926">
        <ele>250.3</ele>
        <time>2019-06-02T06:21:59.000Z</time>
      </trkpt>
      <trkpt lat="43.3153" lon="2.37928">
        <ele>250.2</ele>
        <time>2019-06-02T06:22:00.000Z</time>
      </trkpt>
      <trkpt lat="43.31528" lon="2.3793">
        <ele>250.1</ele>
        <time>2019-06-02T06:22:01.000Z</time>
      </trkpt>
      <trkpt lat="43.31526" lon="2.37932">
        <ele>250.1</ele>
        <time>2019-06-02T06:22:02.000Z</time>
      </trkpt>
      <trkpt lat="43.31524" lon="2.37935">
        <ele>250</ele>
        <time>2019-06-02T06:22:03.000Z</time>
      </trkpt>
      <trkpt lat="43.31522" lon="2.37937">
        <ele>249.8</ele>
        <time>2019-06-02T06:22:04.000Z</time>
      </trkpt>
      <trkpt lat="43.3152" lon="2.37939">
        <ele>249.7</ele>
        <time>2019-06-02T06:22:05.000Z</time>
      </trkpt>
      <trkpt lat="43.31518" lon="2.37941">
        <ele>249.6</ele>
        <time>2019-06-02T06:22:06.000Z</time>
      </trkpt>
      <trkpt lat="43.31516" lon="2.37944">
        <ele>249.5</ele>
        <time>2019-06-02T06:22:07.000Z</time>
      </trkpt>
      <trkpt lat="43.31514" lon="2.37946">
        <ele>249.3</ele>
        <time>2019-06-02T06:22:08.000Z</time>
      </trkpt>
      <trkpt lat="43.31512" lon="2.37948">
        <ele>249.1</ele>
        <time>2019-06-02T06:22:09.000Z</time>
      </trkpt>
      <trkpt lat="43.3151" lon="2.37951">
        <ele>249</ele>
        <time>2019-06-02T06:22:10.000Z</time>
      </trkpt>
      <trkpt lat="43.31508" lon="2.37953">
        <ele>248.8</ele>
        <time>2019-06-02T06:22:11.000Z</time>
      </trkpt>
      <trkpt lat="43.31506" lon="2.37956">
        <ele>248.6</ele>
        <time>2019-06-02T06:22:12.000Z</time>
      </trkpt>
      <trkpt lat="43.31504" lon="2.37958">
        <ele>248.4</ele>
        <time>2019-06-02T06:22:13.000Z</time>
      </trkpt>
      <trkpt lat="43.31502" lon="2.37961">
        <ele>248.2</ele>
        <time>2019-06-02T06:22:14.000Z</time>
      </trkpt>
      <trkpt lat="43.315" lon="2.37963">
        <ele>248</ele>
        <time>2019-06-02T06:22:15.000Z</time>
      </trkpt>
      <trkpt lat="43.31498" lon="2.37966">
        <ele>247.9</ele>
        <time>2019-06-02T06:22:16.000Z</time>
      </trkpt>
      <trkpt lat="43.31496" lon="2.37968">
        <ele>247.9</ele>
        <time>2019-06-02T06:22:17.000Z</time>
      </trkpt>
      <trkpt lat="43.31494" lon="2.3797">
        <ele>247.8</ele>
        <time>2019-06-02T06:22:18.000Z</time>
      </trkpt>
      <trkpt lat="43.31492" lon="2.37973">
        <ele>247.7</ele>
        <time>2019-06-02T06:22:19.000Z</time>
      </trkpt>
      <trkpt lat="43.3149" lon="2.37975">
        <ele>247.7</ele>
        <time>2019-06-02T06:22:20.000Z</time>
      </trkpt>
      <trkpt lat="43.31488" lon="2.37977">
        <ele>247.6</ele>
        <time>2019-06-02T06:22:21.000Z</time>
      </trkpt>
      <trkpt lat="43.31486" lon="2.37979">
        <ele>247.6</ele>
        <time>2019-06-02T06:22:22.000Z</time>
      </trkpt>
      <trkpt lat="43.31484" lon="2.37982">
        <ele>247.5</ele>
        <time>2019-06-02T06:22:23.000Z</time>
      </trkpt>
      <trkpt lat="43.31482" lon="2.37984">
        <ele>247.5</ele>
        <time>2019-06-02T06:22:24.000Z</time>
      </trkpt>
      <trkpt lat="43.3148" lon="2.37986">
        <ele>247.4</ele>
        <time>2019-06-02T06:22:25.000Z</time>
      </trkpt>
      <trkpt lat="43.31478" lon="2.37987">
        <ele>247.4</ele>
        <time>2019-06-02T06:22:26.000Z</time>
      </trkpt>
      <trkpt lat="43.31476" lon="2.37989">
        <ele>247.4</ele>
        <time>2019-06-02T06:22:27.000Z</time>
      </trkpt>
      <trkpt lat="43.31474" lon="2.37991">
        <ele>247.3</ele>
        <time>2019-06-02T06:22:28.000Z</time>
      </trkpt>
      <trkpt lat="43.31472" lon="2.37992">
        <ele>247.3</ele>
        <time>2019-06-02T06:22:29.000Z</time>
      </trkpt>
      <trkpt lat="43.3147" lon="2.37994">
        <ele>247.3</ele>
        <time>2019-06-02T06:22:30.000Z</time>
      </trkpt>
      <trkpt lat="43.31468" lon="2.37995">
        <ele>247.3</ele>
        <time>2019-06-02T06:22:31.000Z</time>
      </trkpt>
      <trkpt lat="43.31466" lon="2.37996">
        <ele>247.4</ele>
        <time>2019-06-02T06:22:32.000Z</time>
      </trkpt>
      <trkpt lat="43.31464" lon="2.37998">
        <ele>247.4</ele>
        <time>2019-06-02T06:22:33.000Z</time>
      </trkpt>
      <trkpt lat="43.31462" lon="2.37999">
        <ele>247.4</ele>
        <time>2019-06-02T06:22:34.000Z</time>
      </trkpt>
      <trkpt lat="43.3146" lon="2.38">
        <ele>247.4</ele>
        <time>2019-06-02T06:22:35.000Z</time>
      </trkpt>
      <trkpt lat="43.31458" lon="2.38001">
        <ele>247.5</ele>
        <time>2019-06-02T06:22:36.000Z</time>
      </trkpt>
      <trkpt lat="43.31456" lon="2.38003">
        <ele>247.5</ele>
        <time>2019-06-02T06:22:37.000Z</time>
      </trkpt>
      <trkpt lat="43.31454" lon="2.38004">
        <ele>247.6</ele>
        <time>2019-06-02T06:22:38.000Z</time>
      </trkpt>
      <trkpt lat="43.31452" lon="2.38005">
        <ele>247.6</ele>
        <time>2019-06-02T06:22:39.000Z</time>
      </trkpt>
      <trkpt lat="43.3145" lon="2.38007">
        <ele>247.7</ele>
        <time>2019-06-02T06:22:40.000Z</time>
      </trkpt>
      <trkpt lat="43.31448" lon="2.38008">
        <ele>247.7</ele>
        <time>2019-06-02T06:22:41.000Z</time>
      </trkpt>
      <trkpt lat="43.31446" lon="2.3801">
        <ele>247.8</ele>
        <time>2019-06-02T06:22:42.000Z</time>
      </trkpt>
      <trkpt lat="43.31444" lon="2.38011">
        <ele>247.8</ele>
        <time>2019-06-02T06:22:43.000Z</time>
      </trkpt>
      <trkpt lat="43.31442" lon="2.38013">
        <ele>247.8</ele>
        <time>2019-06-02T06:22:44.000Z</time>
      </trkpt>
      <trkpt lat="43.31441" lon="2.38015">
        <ele>247.8</ele>
        <time>2019-06-02T06:22:45.000Z</time>
      </trkpt>
      <trkpt lat="43.31439" lon="2.38016">
        <ele>247.8</ele>
        <time>2019-06-02T06:22:46.000Z</time>
      </trkpt>
      <trkpt lat="43.31437" lon="2.38018">
        <ele>247.8</ele>
        <time>2019-06-02T06:22:47.000Z</time>
      </trkpt>
      <trkpt lat="43.31435" lon="2.3802">
        <ele>247.8</ele>
        <time>2019-06-02T06:22:48.000Z</time>
      </trkpt>
      <trkpt lat="43.31434" lon="2.38022">
        <ele>247.8</ele>
        <time>2019-06-02T06:22:49.000Z</time>
      </trkpt>
      <trkpt lat="43.31432" lon="2.38024">
        <ele>247.8</ele>
        <time>2019-06-02T06:22:50.000Z</time>
      </trkpt>
      <trkpt lat="43.3143" lon="2.38026">
        <ele>247.7</ele>
        <time>2019-06-02T06:22:51.000Z</time>
      </trkpt>
      <trkpt lat="43.31429" lon="2.38028">
        <ele>247.7</ele>
        <time>2019-06-02T06:22:52.000Z</time>
      </trkpt>
      <trkpt lat="43.31427" lon="2.3803">
        <ele>247.6</ele>
        <time>2019-06-02T06:22:53.000Z</time>
      </trkpt>
      <trkpt lat="43.31425" lon="2.38033">
        <ele>247.6</ele>
        <time>2019-06-02T06:22:54.000Z</time>
      </trkpt>
      <trkpt lat="43.31424" lon="2.38035">
        <ele>247.5</ele>
        <time>2019-06-02T06:22:55.000Z</time>
      </trkpt>
      <trkpt lat="43.31422" lon="2.38037">
        <ele>247.5</ele>
        <time>2019-06-02T06:22:56.000Z</time>
      </trkpt>
      <trkpt lat="43.31421" lon="2.38039">
        <ele>247.4</ele>
        <time>2019-06-02T06:22:57.000Z</time>
      </trkpt>
      <trkpt lat="43.31419" lon="2.38041">
        <ele>247.3</ele>
        <time>2019-06-02T06:22:58.000Z</time>
      </trkpt>
      <trkpt lat="43.31417" lon="2.38044">
        <ele>247.3</ele>
        <time>2019-06-02T06:22:59.000Z</time>
      </trkpt>
      <trkpt lat="43.31416" lon="2.38046">
        <ele>247.3</ele>
        <time>2019-06-02T06:23:00.000Z</time>
      </trkpt>
      <trkpt lat="43.31414" lon="2.38048">
        <ele>247.4</ele>
        <time>2019-06-02T06:23:01.000Z</time>
      </trkpt>
      <trkpt lat="43.31412" lon="2.3805">
        <ele>247.4</ele>
        <time>2019-06-02T06:23:02.000Z</time>
      </trkpt>
      <trkpt lat="43.3141" lon="2.38053">
        <ele>247.5</ele>
        <time>2019-06-02T06:23:03.000Z</time>
      </trkpt>
      <trkpt lat="43.31409" lon="2.38055">
        <ele>247.6</ele>
        <time>2019-06-02T06:23:04.000Z</time>
      </trkpt>
      <trkpt lat="43.31407" lon="2.38057">
        <ele>247.7</ele>
        <time>2019-06-02T06:23:05.000Z</time>
      </trkpt>
      <trkpt lat="43.31405" lon="2.38059">
        <ele>247.8</ele>
        <time>2019-06-02T06:23:06.000Z</time>
      </trkpt>
      <trkpt lat="43.31402" lon="2.38061">
        <ele>247.9</ele>
        <time>2019-06-02T06:23:07.000Z</time>
      </trkpt>
      <trkpt lat="43.314" lon="2.38063">
        <ele>248.1</ele>
        <time>2019-06-02T06:23:08.000Z</time>
      </trkpt>
      <trkpt lat="43.31398" lon="2.38065">
        <ele>248.2</ele>
        <time>2019-06-02T06:23:09.000Z</time>
      </trkpt>
      <trkpt lat="43.31396" lon="2.38067">
        <ele>248.4</ele>
        <time>2019-06-02T06:23:10.000Z</time>
      </trkpt>
      <trkpt lat="43.31394" lon="2.38068">
        <ele>248.5</ele>
        <time>2019-06-02T06:23:11.000Z</time>
      </trkpt>
      <trkpt lat="43.31392" lon="2.3807">
        <ele>248.7</ele>
        <time>2019-06-02T06:23:12.000Z</time>
      </trkpt>
      <trkpt lat="43.3139" lon="2.38072">
        <ele>248.9</ele>
        <time>2019-06-02T06:23:13.000Z</time>
      </trkpt>
      <trkpt lat="43.31387" lon="2.38073">
        <ele>249.1</ele>
        <time>2019-06-02T06:23:14.000Z</time>
      </trkpt>
      <trkpt lat="43.31385" lon="2.38075">
        <ele>249.3</ele>
        <time>2019-06-02T06:23:15.000Z</time>
      </trkpt>
      <trkpt lat="43.31383" lon="2.38076">
        <ele>249.5</ele>
        <time>2019-06-02T06:23:16.000Z</time>
      </trkpt>
      <trkpt lat="43.31381" lon="2.38078">
        <ele>249.7</ele>
        <time>2019-06-02T06:23:17.000Z</time>
      </trkpt>
      <trkpt lat="43.31378" lon="2.38079">
        <ele>249.9</ele>
        <time>2019-06-02T06:23:18.000Z</time>
      </trkpt>
      <trkpt lat="43.31376" lon="2.3808">
        <ele>250.1</ele>
        <time>2019-06-02T06:23:19.000Z</time>
      </trkpt>
      <trkpt lat="43.31374" lon="2.38082">
        <ele>250.3</ele>
        <time>2019-06-02T06:23:20.000Z</time>
      </trkpt>
      <trkpt lat="43.31372" lon="2.38083">
        <ele>250.5</ele>
        <time>2019-06-02T06:23:21.000Z</time>
      </trkpt>
      <trkpt lat="43.3137" lon="2.38084">
        <ele>250.7</ele>
        <time>2019-06-02T06:23:22.000Z</time>
      </trkpt>
      <trkpt lat="43.31367" lon="2.38085">
        <ele>250.9</ele>
        <time>2019-06-02T06:23:23.000Z</time>
      </trkpt>
      <trkpt lat="43.31365" lon="2.38086">
        <ele>251.1</ele>
        <time>2019-06-02T06:23:24.000Z</time>
      </trkpt>
      <trkpt lat="43.31363" lon="2.38087">
        <ele>251.3</ele>
        <time>2019-06-02T06:23:25.000Z</time>
      </trkpt>
      <trkpt lat="43.31361" lon="2.38088">
        <ele>251.4</ele>
        <time>2019-06-02T06:23:26.000Z</time>
      </trkpt>
      <trkpt lat="43.31358" lon="2.38089">
        <ele>251.6</ele>
        <time>2019-06-02T06:23:27.000Z</time>
      </trkpt>
      <trkpt lat="43.31356" lon="2.38091">
        <ele>251.8</ele>
        <time>2019-06-02T06:23:28.000Z</time>
      </trkpt>
      <trkpt lat="43.31354" lon="2.38092">
        <ele>252</ele>
        <time>2019-06-02T06:23:29.000Z</time>
      </trkpt>
      <trkpt lat="43.31352" lon="2.38093">
        <ele>252.2</ele>
        <time>2019-06-02T06:23:30.000Z</time>
      </trkpt>
      <trkpt lat="43.31349" lon="2.38094">
        <ele>252.3</ele>
        <time>2019-06-02T06:23:31.000Z</time>
      </trkpt>
      <trkpt lat="43.31347" lon="2.38095">
        <ele>252.5</ele>
        <time>2019-06-02T06:23:32.000Z</time>
      </trkpt>
      <trkpt lat="43.31345" lon="2.38096">
        <ele>252.7</ele>
        <time>2019-06-02T06:23:33.000Z</time>
      </trkpt>
      <trkpt lat="43.31343" lon="2.38097">
        <ele>252.8</ele>
        <time>2019-06-02T06:23:34.000Z</time>
      </trkpt>
      <trkpt lat="43.3134" lon="2.38098">
        <ele>253</ele>
        <time>2019-06-02T06:23:35.000Z</time>
      </trkpt>
      <trkpt lat="43.31338" lon="2.38099">
        <ele>253.1</ele>
        <time>2019-06-02T06:23:36.000Z</time>
      </trkpt>
      <trkpt lat="43.31336" lon="2.381">
        <ele>253.3</ele>
        <time>2019-06-02T06:23:37.000Z</time>
      </trkpt>
      <trkpt lat="43.31333" lon="2.38101">
        <ele>253.4</ele>
        <time>2019-06-02T06:23:38.000Z</time>
      </trkpt>
      <trkpt lat="43.31331" lon="2.38102">
        <ele>253.5</ele>
        <time>2019-06-02T06:23:39.000Z</time>
      </trkpt>
      <trkpt lat="43.31329" lon="2.38104">
        <ele>253.5</ele>
        <time>2019-06-02T06:23:40.000Z</time>
      </trkpt>
      <trkpt lat="43.31327" lon="2.38105">
        <ele>253.5</ele>
        <time>2019-06-02T06:23:41.000Z</time>
      </trkpt>
      <trkpt lat="43.31324" lon="2.38106">
        <ele>253.6</ele>
        <time>2019-06-02T06:23:42.000Z</time>
      </trkpt>
      <trkpt lat="43.31322" lon="2.38107">
        <ele>253.6</ele>
        <time>2019-06-02T06:23:43.000Z</time>
      </trkpt>
      <trkpt lat="43.3132" lon="2.38109">
        <ele>253.7</ele>
        <time>2019-06-02T06:23:44.000Z</time>
      </trkpt>
      <trkpt lat="43.31318" lon="2.3811">
        <ele>253.7</ele>
        <time>2019-06-02T06:23:45.000Z</time>
      </trkpt>
      <trkpt lat="43.31316" lon="2.38111">
        <ele>253.8</ele>
        <time>2019-06-02T06:23:46.000Z</time>
      </trkpt>
      <trkpt lat="43.31314" lon="2.38112">
        <ele>253.9</ele>
        <time>2019-06-02T06:23:47.000Z</time>
      </trkpt>
      <trkpt lat="43.31312" lon="2.38113">
        <ele>254</ele>
        <time>2019-06-02T06:23:48.000Z</time>
      </trkpt>
      <trkpt lat="43.3131" lon="2.38114">
        <ele>254</ele>
        <time>2019-06-02T06:23:49.000Z</time>
      </trkpt>
      <trkpt lat="43.31308" lon="2.38115">
        <ele>254.1</ele>
        <time>2019-06-02T06:23:50.000Z</time>
      </trkpt>
      <trkpt lat="43.31306" lon="2.38115">
        <ele>254.2</ele>
        <time>2019-06-02T06:23:51.000Z</time>
      </trkpt>
      <trkpt lat="43.31304" lon="2.38116">
        <ele>254.3</ele>
        <time>2019-06-02T06:23:52.000Z</time>
      </trkpt>
      <trkpt lat="43.31302" lon="2.38117">
        <ele>254.4</ele>
        <time>2019-06-02T06:23:53.000Z</time>
      </trkpt>
      <trkpt lat="43.313" lon="2.38118">
        <ele>254.5</ele>
        <time>2019-06-02T06:23:54.000Z</time>
      </trkpt>
      <trkpt lat="43.31298" lon="2.38119">
        <ele>254.6</ele>
        <time>2019-06-02T06:23:55.000Z</time>
      </trkpt>
      <trkpt lat="43.31296" lon="2.3812">
        <ele>254.7</ele>
        <time>2019-06-02T06:23:56.000Z</time>
      </trkpt>
      <trkpt lat="43.31294" lon="2.38121">
        <ele>254.8</ele>
        <time>2019-06-02T06:23:57.000Z</time>
      </trkpt>
      <trkpt lat="43.31292" lon="2.38122">
        <ele>254.9</ele>
        <time>2019-06-02T06:23:58.000Z</time>
      </trkpt>
      <trkpt lat="43.3129" lon="2.38123">
        <ele>255</ele>
        <time>2019-06-02T06:23:59.000Z</time>
      </trkpt>
      <trkpt lat="43.31288" lon="2.38124">
        <ele>255.1</ele>
        <time>2019-06-02T06:24:00.000Z</time>
      </trkpt>
      <trkpt lat="43.31286" lon="2.38125">
        <ele>255.2</ele>
        <time>2019-06-02T06:24:01.000Z</time>
      </trkpt>
      <trkpt lat="43.31284" lon="2.38125">
        <ele>255.3</ele>
        <time>2019-06-02T06:24:02.000Z</time>
      </trkpt>
      <trkpt lat="43.31282" lon="2.38126">
        <ele>255.5</ele>
        <time>2019-06-02T06:24:03.000Z</time>
      </trkpt>
      <trkpt lat="43.3128" lon="2.38126">
        <ele>255.7</ele>
        <time>2019-06-02T06:24:04.000Z</time>
      </trkpt>
      <trkpt lat="43.31278" lon="2.38126">
        <ele>255.9</ele>
        <time>2019-06-02T06:24:05.000Z</time>
      </trkpt>
      <trkpt lat="43.31276" lon="2.38127">
        <ele>256.1</ele>
        <time>2019-06-02T06:24:06.000Z</time>
      </trkpt>
      <trkpt lat="43.31274" lon="2.38127">
        <ele>256.3</ele>
        <time>2019-06-02T06:24:07.000Z</time>
      </trkpt>
      <trkpt lat="43.31272" lon="2.38127">
        <ele>256.5</ele>
        <time>2019-06-02T06:24:08.000Z</time>
      </trkpt>
      <trkpt lat="43.3127" lon="2.38127">
        <ele>256.7</ele>
        <time>2019-06-02T06:24:09.000Z</time>
      </trkpt>
      <trkpt lat="43.31268" lon="2.38127">
        <ele>256.9</ele>
        <time>2019-06-02T06:24:10.000Z</time>
      </trkpt>
      <trkpt lat="43.31266" lon="2.38127">
        <ele>257.1</ele>
        <time>2019-06-02T06:24:11.000Z</time>
      </trkpt>
      <trkpt lat="43.31265" lon="2.38127">
        <ele>257.3</ele>
        <time>2019-06-02T06:24:12.000Z</time>
      </trkpt>
      <trkpt lat="43.31263" lon="2.38127">
        <ele>257.4</ele>
        <time>2019-06-02T06:24:13.000Z</time>
      </trkpt>
      <trkpt lat="43.31261" lon="2.38127">
        <ele>257.6</ele>
        <time>2019-06-02T06:24:14.000Z</time>
      </trkpt>
      <trkpt lat="43.3126" lon="2.38127">
        <ele>257.8</ele>
        <time>2019-06-02T06:24:15.000Z</time>
      </trkpt>
      <trkpt lat="43.31258" lon="2.38127">
        <ele>257.9</ele>
        <time>2019-06-02T06:24:16.000Z</time>
      </trkpt>
      <trkpt lat="43.31257" lon="2.38127">
        <ele>258.1</ele>
        <time>2019-06-02T06:24:17.000Z</time>
      </trkpt>
      <trkpt lat="43.31255" lon="2.38127">
        <ele>258.2</ele>
        <time>2019-06-02T06:24:18.000Z</time>
      </trkpt>
      <trkpt lat="43.31254" lon="2.38128">
        <ele>258.3</ele>
        <time>2019-06-02T06:24:19.000Z</time>
      </trkpt>
      <trkpt lat="43.31252" lon="2.38128">
        <ele>258.5</ele>
        <time>2019-06-02T06:24:20.000Z</time>
      </trkpt>
      <trkpt lat="43.3125" lon="2.38129">
        <ele>258.6</ele>
        <time>2019-06-02T06:24:21.000Z</time>
      </trkpt>
      <trkpt lat="43.31248" lon="2.38129">
        <ele>258.8</ele>
        <time>2019-06-02T06:24:22.000Z</time>
      </trkpt>
      <trkpt lat="43.31246" lon="2.3813">
        <ele>258.9</ele>
        <time>2019-06-02T06:24:23.000Z</time>
      </trkpt>
      <trkpt lat="43.31244" lon="2.3813">
        <ele>259</ele>
        <time>2019-06-02T06:24:24.000Z</time>
      </trkpt>
      <trkpt lat="43.31242" lon="2.38131">
        <ele>259.1</ele>
        <time>2019-06-02T06:24:25.000Z</time>
      </trkpt>
      <trkpt lat="43.3124" lon="2.38132">
        <ele>259.3</ele>
        <time>2019-06-02T06:24:26.000Z</time>
      </trkpt>
      <trkpt lat="43.31238" lon="2.38132">
        <ele>259.4</ele>
        <time>2019-06-02T06:24:27.000Z</time>
      </trkpt>
      <trkpt lat="43.31236" lon="2.38133">
        <ele>259.6</ele>
        <time>2019-06-02T06:24:28.000Z</time>
      </trkpt>
      <trkpt lat="43.31233" lon="2.38133">
        <ele>259.8</ele>
        <time>2019-06-02T06:24:29.000Z</time>
      </trkpt>
      <trkpt lat="43.31231" lon="2.38133">
        <ele>259.9</ele>
        <time>2019-06-02T06:24:30.000Z</time>
      </trkpt>
      <trkpt lat="43.31229" lon="2.38134">
        <ele>260.1</ele>
        <time>2019-06-02T06:24:31.000Z</time>
      </trkpt>
      <trkpt lat="43.31227" lon="2.38134">
        <ele>260.3</ele>
        <time>2019-06-02T06:24:32.000Z</time>
      </trkpt>
      <trkpt lat="43.31225" lon="2.38134">
        <ele>260.5</ele>
        <time>2019-06-02T06:24:33.000Z</time>
      </trkpt>
      <trkpt lat="43.31222" lon="2.38134">
        <ele>260.7</ele>
        <time>2019-06-02T06:24:34.000Z</time>
      </trkpt>
      <trkpt lat="43.3122" lon="2.38134">
        <ele>260.9</ele>
        <time>2019-06-02T06:24:35.000Z</time>
      </trkpt>
      <trkpt lat="43.31219" lon="2.38133">
        <ele>261.1</ele>
        <time>2019-06-02T06:24:36.000Z</time>
      </trkpt>
      <trkpt lat="43.31217" lon="2.38133">
        <ele>261.3</ele>
        <time>2019-06-02T06:24:37.000Z</time>
      </trkpt>
      <trkpt lat="43.31215" lon="2.38132">
        <ele>261.5</ele>
        <time>2019-06-02T06:24:38.000Z</time>
      </trkpt>
      <trkpt lat="43.31213" lon="2.38131">
        <ele>261.7</ele>
        <time>2019-06-02T06:24:39.000Z</time>
      </trkpt>
      <trkpt lat="43.31212" lon="2.3813">
        <ele>261.9</ele>
        <time>2019-06-02T06:24:40.000Z</time>
      </trkpt>
      <trkpt lat="43.3121" lon="2.38129">
        <ele>262.2</ele>
        <time>2019-06-02T06:24:41.000Z</time>
      </trkpt>
      <trkpt lat="43.31208" lon="2.38127">
        <ele>262.4</ele>
        <time>2019-06-02T06:24:42.000Z</time>
      </trkpt>
      <trkpt lat="43.31206" lon="2.38125">
        <ele>262.7</ele>
        <time>2019-06-02T06:24:43.000Z</time>
      </trkpt>
      <trkpt lat="43.31204" lon="2.38123">
        <ele>263</ele>
        <time>2019-06-02T06:24:44.000Z</time>
      </trkpt>
      <trkpt lat="43.31202" lon="2.38121">
        <ele>263.3</ele>
        <time>2019-06-02T06:24:45.000Z</time>
      </trkpt>
      <trkpt lat="43.312" lon="2.38119">
        <ele>263.5</ele>
        <time>2019-06-02T06:24:46.000Z</time>
      </trkpt>
      <trkpt lat="43.31198" lon="2.38117">
        <ele>263.8</ele>
        <time>2019-06-02T06:24:47.000Z</time>
      </trkpt>
      <trkpt lat="43.31196" lon="2.38115">
        <ele>264</ele>
        <time>2019-06-02T06:24:48.000Z</time>
      </trkpt>
      <trkpt lat="43.31195" lon="2.38113">
        <ele>264.2</ele>
        <time>2019-06-02T06:24:49.000Z</time>
      </trkpt>
      <trkpt lat="43.31193" lon="2.38111">
        <ele>264.5</ele>
        <time>2019-06-02T06:24:50.000Z</time>
      </trkpt>
      <trkpt lat="43.31191" lon="2.38109">
        <ele>264.7</ele>
        <time>2019-06-02T06:24:51.000Z</time>
      </trkpt>
      <trkpt lat="43.31189" lon="2.38107">
        <ele>264.9</ele>
        <time>2019-06-02T06:24:52.000Z</time>
      </trkpt>
      <trkpt lat="43.31188" lon="2.38104">
        <ele>265.1</ele>
        <time>2019-06-02T06:24:53.000Z</time>
      </trkpt>
      <trkpt lat="43.31186" lon="2.38102">
        <ele>265.3</ele>
        <time>2019-06-02T06:24:54.000Z</time>
      </trkpt>
      <trkpt lat="43.31184" lon="2.381">
        <ele>265.5</ele>
        <time>2019-06-02T06:24:55.000Z</time>
      </trkpt>
      <trkpt lat="43.31182" lon="2.38097">
        <ele>265.7</ele>
        <time>2019-06-02T06:24:56.000Z</time>
      </trkpt>
      <trkpt lat="43.31181" lon="2.38095">
        <ele>265.9</ele>
        <time>2019-06-02T06:24:57.000Z</time>
      </trkpt>
      <trkpt lat="43.31179" lon="2.38092">
        <ele>266.1</ele>
        <time>2019-06-02T06:24:58.000Z</time>
      </trkpt>
      <trkpt lat="43.31178" lon="2.3809">
        <ele>266.2</ele>
        <time>2019-06-02T06:24:59.000Z</time>
      </trkpt>
      <trkpt lat="43.31177" lon="2.38088">
        <ele>266.4</ele>
        <time>2019-06-02T06:25:00.000Z</time>
      </trkpt>
      <trkpt lat="43.31176" lon="2.38086">
        <ele>266.5</ele>
        <time>2019-06-02T06:25:01.000Z</time>
      </trkpt>
      <trkpt lat="43.31175" lon="2.38084">
        <ele>266.6</ele>
        <time>2019-06-02T06:25:02.000Z</time>
      </trkpt>
      <trkpt lat="43.31174" lon="2.38083">
        <ele>266.7</ele>
        <time>2019-06-02T06:25:03.000Z</time>
      </trkpt>
      <trkpt lat="43.31173" lon="2.38081">
        <ele>266.7</ele>
        <time>2019-06-02T06:25:04.000Z</time>
      </trkpt>
      <trkpt lat="43.31172" lon="2.38079">
        <ele>266.8</ele>
        <time>2019-06-02T06:25:05.000Z</time>
      </trkpt>
      <trkpt lat="43.31171" lon="2.38077">
        <ele>266.8</ele>
        <time>2019-06-02T06:25:06.000Z</time>
      </trkpt>
      <trkpt lat="43.31169" lon="2.38075">
        <ele>266.9</ele>
        <time>2019-06-02T06:25:07.000Z</time>
      </trkpt>
      <trkpt lat="43.31168" lon="2.38073">
        <ele>266.9</ele>
        <time>2019-06-02T06:25:08.000Z</time>
      </trkpt>
      <trkpt lat="43.31167" lon="2.3807">
        <ele>267</ele>
        <time>2019-06-02T06:25:09.000Z</time>
      </trkpt>
      <trkpt lat="43.31165" lon="2.38068">
        <ele>267.3</ele>
        <time>2019-06-02T06:25:10.000Z</time>
      </trkpt>
      <trkpt lat="43.31164" lon="2.38065">
        <ele>267.6</ele>
        <time>2019-06-02T06:25:11.000Z</time>
      </trkpt>
      <trkpt lat="43.31162" lon="2.38063">
        <ele>267.9</ele>
        <time>2019-06-02T06:25:12.000Z</time>
      </trkpt>
      <trkpt lat="43.31161" lon="2.3806">
        <ele>268.2</ele>
        <time>2019-06-02T06:25:13.000Z</time>
      </trkpt>
      <trkpt lat="43.3116" lon="2.38057">
        <ele>268.4</ele>
        <time>2019-06-02T06:25:14.000Z</time>
      </trkpt>
      <trkpt lat="43.31158" lon="2.38054">
        <ele>268.7</ele>
        <time>2019-06-02T06:25:15.000Z</time>
      </trkpt>
      <trkpt lat="43.31157" lon="2.38051">
        <ele>268.9</ele>
        <time>2019-06-02T06:25:16.000Z</time>
      </trkpt>
      <trkpt lat="43.31155" lon="2.38048">
        <ele>269.2</ele>
        <time>2019-06-02T06:25:17.000Z</time>
      </trkpt>
      <trkpt lat="43.31154" lon="2.38045">
        <ele>269.4</ele>
        <time>2019-06-02T06:25:18.000Z</time>
      </trkpt>
      <trkpt lat="43.31152" lon="2.38042">
        <ele>269.6</ele>
        <time>2019-06-02T06:25:19.000Z</time>
      </trkpt>
      <trkpt lat="43.31151" lon="2.38039">
        <ele>269.8</ele>
        <time>2019-06-02T06:25:20.000Z</time>
      </trkpt>
      <trkpt lat="43.31149" lon="2.38036">
        <ele>270</ele>
        <time>2019-06-02T06:25:21.000Z</time>
      </trkpt>
      <trkpt lat="43.31148" lon="2.38034">
        <ele>270.2</ele>
        <time>2019-06-02T06:25:22.000Z</time>
      </trkpt>
      <trkpt lat="43.31146" lon="2.38031">
        <ele>270.3</ele>
        <time>2019-06-02T06:25:23.000Z</time>
      </trkpt>
      <trkpt lat="43.31145" lon="2.38029">
        <ele>270.5</ele>
        <time>2019-06-02T06:25:24.000Z</time>
      </trkpt>
      <trkpt lat="43.31144" lon="2.38027">
        <ele>270.7</ele>
        <time>2019-06-02T06:25:25.000Z</time>
      </trkpt>
      <trkpt lat="43.31142" lon="2.38025">
        <ele>270.8</ele>
        <time>2019-06-02T06:25:26.000Z</time>
      </trkpt>
      <trkpt lat="43.31141" lon="2.38023">
        <ele>271</ele>
        <time>2019-06-02T06:25:27.000Z</time>
      </trkpt>
      <trkpt lat="43.31139" lon="2.38021">
        <ele>271.1</ele>
        <time>2019-06-02T06:25:28.000Z</time>
      </trkpt>
      <trkpt lat="43.31138" lon="2.38019">
        <ele>271.3</ele>
        <time>2019-06-02T06:25:29.000Z</time>
      </trkpt>
      <trkpt lat="43.31136" lon="2.38018">
        <ele>271.4</ele>
        <time>2019-06-02T06:25:30.000Z</time>
      </trkpt>
      <trkpt lat="43.31135" lon="2.38016">
        <ele>271.5</ele>
        <time>2019-06-02T06:25:31.000Z</time>
      </trkpt>
      <trkpt lat="43.31134" lon="2.38015">
        <ele>271.7</ele>
        <time>2019-06-02T06:25:32.000Z</time>
      </trkpt>
      <trkpt lat="43.31132" lon="2.38013">
        <ele>271.8</ele>
        <time>2019-06-02T06:25:33.000Z</time>
      </trkpt>
      <trkpt lat="43.31131" lon="2.38012">
        <ele>271.9</ele>
        <time>2019-06-02T06:25:34.000Z</time>
      </trkpt>
      <trkpt lat="43.31129" lon="2.38011">
        <ele>272.1</ele>
        <time>2019-06-02T06:25:35.000Z</time>
      </trkpt>
      <trkpt lat="43.31128" lon="2.3801">
        <ele>272.2</ele>
        <time>2019-06-02T06:25:36.000Z</time>
      </trkpt>
      <trkpt lat="43.31126" lon="2.38009">
        <ele>272.3</ele>
        <time>2019-06-02T06:25:37.000Z</time>
      </trkpt>
      <trkpt lat="43.31125" lon="2.38007">
        <ele>272.5</ele>
        <time>2019-06-02T06:25:38.000Z</time>
      </trkpt>
      <trkpt lat="43.31123" lon="2.38006">
        <ele>272.6</ele>
        <time>2019-06-02T06:25:39.000Z</time>
      </trkpt>
      <trkpt lat="43.31122" lon="2.38005">
        <ele>272.7</ele>
        <time>2019-06-02T06:25:40.000Z</time>
      </trkpt>
      <trkpt lat="43.3112" lon="2.38004">
        <ele>272.8</ele>
        <time>2019-06-02T06:25:41.000Z</time>
      </trkpt>
      <trkpt lat="43.31119" lon="2.38003">
        <ele>272.9</ele>
        <time>2019-06-02T06:25:42.000Z</time>
      </trkpt>
      <trkpt lat="43.31119" lon="2.38003">
        <ele>273</ele>
        <time>2019-06-02T06:25:43.000Z</time>
      </trkpt>
      <trkpt lat="43.31119" lon="2.38004">
        <ele>273</ele>
        <time>2019-06-02T06:25:44.000Z</time>
      </trkpt>
      <trkpt lat="43.31119" lon="2.38005">
        <ele>273.1</ele>
        <time>2019-06-02T06:25:45.000Z</time>
      </trkpt>
      <trkpt lat="43.31119" lon="2.38005">
        <ele>273.1</ele>
        <time>2019-06-02T06:25:46.000Z</time>
      </trkpt>
      <trkpt lat="43.31119" lon="2.38005">
        <ele>273.1</ele>
        <time>2019-06-02T06:25:47.000Z</time>
      </trkpt>
      <trkpt lat="43.31119" lon="2.38005">
        <ele>273.1</ele>
        <time>2019-06-02T06:25:48.000Z</time>
      </trkpt>
      <trkpt lat="43.31119" lon="2.38006">
        <ele>273.2</ele>
        <time>2019-06-02T06:25:49.000Z</time>
      </trkpt>
      <trkpt lat="43.31119" lon="2.38008">
        <ele>273.3</ele>
        <time>2019-06-02T06:25:50.000Z</time>
      </trkpt>
      <trkpt lat="43.31119" lon="2.3801">
        <ele>273.4</ele>
        <time>2019-06-02T06:25:51.000Z</time>
      </trkpt>
      <trkpt lat="43.31119" lon="2.38011">
        <ele>273.4</ele>
        <time>2019-06-02T06:25:52.000Z</time>
      </trkpt>
      <trkpt lat="43.31119" lon="2.38011">
        <ele>273.4</ele>
        <time>2019-06-02T06:25:53.000Z</time>
      </trkpt>
      <trkpt lat="43.31119" lon="2.38012">
        <ele>273.5</ele>
        <time>2019-06-02T06:25:54.000Z</time>
      </trkpt>
      <trkpt lat="43.31119" lon="2.38012">
        <ele>273.5</ele>
        <time>2019-06-02T06:25:55.000Z</time>
      </trkpt>
      <trkpt lat="43.31119" lon="2.38013">
        <ele>273.6</ele>
        <time>2019-06-02T06:25:56.000Z</time>
      </trkpt>
      <trkpt lat="43.31119" lon="2.38016">
        <ele>273.7</ele>
        <time>2019-06-02T06:25:57.000Z</time>
      </trkpt>
      <trkpt lat="43.3112" lon="2.38018">
        <ele>273.8</ele>
        <time>2019-06-02T06:25:58.000Z</time>
      </trkpt>
      <trkpt lat="43.3112" lon="2.38021">
        <ele>274</ele>
        <time>2019-06-02T06:25:59.000Z</time>
      </trkpt>
      <trkpt lat="43.31121" lon="2.38024">
        <ele>274</ele>
        <time>2019-06-02T06:26:00.000Z</time>
      </trkpt>
      <trkpt lat="43.31121" lon="2.38026">
        <ele>274.1</ele>
        <time>2019-06-02T06:26:01.000Z</time>
      </trkpt>
      <trkpt lat="43.31122" lon="2.38028">
        <ele>274.2</ele>
        <time>2019-06-02T06:26:02.000Z</time>
      </trkpt>
      <trkpt lat="43.31122" lon="2.3803">
        <ele>274.2</ele>
        <time>2019-06-02T06:26:03.000Z</time>
      </trkpt>
      <trkpt lat="43.31123" lon="2.38032">
        <ele>274.3</ele>
        <time>2019-06-02T06:26:04.000Z</time>
      </trkpt>
      <trkpt lat="43.31123" lon="2.38034">
        <ele>274.4</ele>
        <time>2019-06-02T06:26:05.000Z</time>
      </trkpt>
      <trkpt lat="43.31123" lon="2.38037">
        <ele>274.6</ele>
        <time>2019-06-02T06:26:06.000Z</time>
      </trkpt>
      <trkpt lat="43.31123" lon="2.38039">
        <ele>274.8</ele>
        <time>2019-06-02T06:26:07.000Z</time>
      </trkpt>
      <trkpt lat="43.31123" lon="2.38042">
        <ele>274.9</ele>
        <time>2019-06-02T06:26:08.000Z</time>
      </trkpt>
      <trkpt lat="43.31122" lon="2.38045">
        <ele>275.2</ele>
        <time>2019-06-02T06:26:09.000Z</time>
      </trkpt>
      <trkpt lat="43.31122" lon="2.38048">
        <ele>275.4</ele>
        <time>2019-06-02T06:26:10.000Z</time>
      </trkpt>
      <trkpt lat="43.31122" lon="2.38051">
        <ele>275.6</ele>
        <time>2019-06-02T06:26:11.000Z</time>
      </trkpt>
      <trkpt lat="43.31122" lon="2.38054">
        <ele>275.9</ele>
        <time>2019-06-02T06:26:12.000Z</time>
      </trkpt>
      <trkpt lat="43.31121" lon="2.38057">
        <ele>276.1</ele>
        <time>2019-06-02T06:26:13.000Z</time>
      </trkpt>
      <trkpt lat="43.31121" lon="2.3806">
        <ele>276.4</ele>
        <time>2019-06-02T06:26:14.000Z</time>
      </trkpt>
      <trkpt lat="43.31121" lon="2.38063">
        <ele>276.7</ele>
        <time>2019-06-02T06:26:15.000Z</time>
      </trkpt>
      <trkpt lat="43.3112" lon="2.38066">
        <ele>276.9</ele>
        <time>2019-06-02T06:26:16.000Z</time>
      </trkpt>
      <trkpt lat="43.3112" lon="2.38069">
        <ele>277.2</ele>
        <time>2019-06-02T06:26:17.000Z</time>
      </trkpt>
      <trkpt lat="43.3112" lon="2.38072">
        <ele>277.4</ele>
        <time>2019-06-02T06:26:18.000Z</time>
      </trkpt>
      <trkpt lat="43.3112" lon="2.38075">
        <ele>277.6</ele>
        <time>2019-06-02T06:26:19.000Z</time>
      </trkpt>
      <trkpt lat="43.3112" lon="2.38078">
        <ele>277.8</ele>
        <time>2019-06-02T06:26:20.000Z</time>
      </trkpt>
      <trkpt lat="43.3112" lon="2.38081">
        <ele>278</ele>
        <time>2019-06-02T06:26:21.000Z</time>
      </trkpt>
      <trkpt lat="43.3112" lon="2.38084">
        <ele>278.1</ele>
        <time>2019-06-02T06:26:22.000Z</time>
      </trkpt>
      <trkpt lat="43.3112" lon="2.38087">
        <ele>277.9</ele>
        <time>2019-06-02T06:26:23.000Z</time>
      </trkpt>
      <trkpt lat="43.31121" lon="2.3809">
        <ele>277.6</ele>
        <time>2019-06-02T06:26:24.000Z</time>
      </trkpt>
      <trkpt lat="43.31121" lon="2.38093">
        <ele>277.3</ele>
        <time>2019-06-02T06:26:25.000Z</time>
      </trkpt>
      <trkpt lat="43.31121" lon="2.38096">
        <ele>277.1</ele>
        <time>2019-06-02T06:26:26.000Z</time>
      </trkpt>
      <trkpt lat="43.31122" lon="2.38099">
        <ele>276.8</ele>
        <time>2019-06-02T06:26:27.000Z</time>
      </trkpt>
      <trkpt lat="43.31122" lon="2.38102">
        <ele>276.5</ele>
        <time>2019-06-02T06:26:28.000Z</time>
      </trkpt>
      <trkpt lat="43.31122" lon="2.38105">
        <ele>276.2</ele>
        <time>2019-06-02T06:26:29.000Z</time>
      </trkpt>
      <trkpt lat="43.31123" lon="2.38108">
        <ele>275.9</ele>
        <time>2019-06-02T06:26:30.000Z</time>
      </trkpt>
      <trkpt lat="43.31123" lon="2.38111">
        <ele>275.6</ele>
        <time>2019-06-02T06:26:31.000Z</time>
      </trkpt>
      <trkpt lat="43.31123" lon="2.38114">
        <ele>275.3</ele>
        <time>2019-06-02T06:26:32.000Z</time>
      </trkpt>
      <trkpt lat="43.31124" lon="2.38118">
        <ele>275</ele>
        <time>2019-06-02T06:26:33.000Z</time>
      </trkpt>
      <trkpt lat="43.31124" lon="2.38121">
        <ele>274.7</ele>
        <time>2019-06-02T06:26:34.000Z</time>
      </trkpt>
      <trkpt lat="43.31124" lon="2.38125">
        <ele>274.5</ele>
        <time>2019-06-02T06:26:35.000Z</time>
      </trkpt>
      <trkpt lat="43.31124" lon="2.38128">
        <ele>274.2</ele>
        <time>2019-06-02T06:26:36.000Z</time>
      </trkpt>
      <trkpt lat="43.31124" lon="2.38132">
        <ele>274</ele>
        <time>2019-06-02T06:26:37.000Z</time>
      </trkpt>
      <trkpt lat="43.31124" lon="2.38135">
        <ele>273.8</ele>
        <time>2019-06-02T06:26:38.000Z</time>
      </trkpt>
      <trkpt lat="43.31124" lon="2.38139">
        <ele>273.6</ele>
        <time>2019-06-02T06:26:39.000Z</time>
      </trkpt>
      <trkpt lat="43.31123" lon="2.38142">
        <ele>273.4</ele>
        <time>2019-06-02T06:26:40.000Z</time>
      </trkpt>
      <trkpt lat="43.31123" lon="2.38146">
        <ele>273.3</ele>
        <time>2019-06-02T06:26:41.000Z</time>
      </trkpt>
      <trkpt lat="43.31122" lon="2.38149">
        <ele>273.2</ele>
        <time>2019-06-02T06:26:42.000Z</time>
      </trkpt>
      <trkpt lat="43.31121" lon="2.38152">
        <ele>273.1</ele>
        <time>2019-06-02T06:26:43.000Z</time>
      </trkpt>
      <trkpt lat="43.31121" lon="2.38155">
        <ele>273</ele>
        <time>2019-06-02T06:26:44.000Z</time>
      </trkpt>
      <trkpt lat="43.3112" lon="2.38158">
        <ele>272.9</ele>
        <time>2019-06-02T06:26:45.000Z</time>
      </trkpt>
      <trkpt lat="43.3112" lon="2.38161">
        <ele>272.7</ele>
        <time>2019-06-02T06:26:46.000Z</time>
      </trkpt>
      <trkpt lat="43.31119" lon="2.38164">
        <ele>272.6</ele>
        <time>2019-06-02T06:26:47.000Z</time>
      </trkpt>
      <trkpt lat="43.3112" lon="2.38167">
        <ele>272.3</ele>
        <time>2019-06-02T06:26:48.000Z</time>
      </trkpt>
      <trkpt lat="43.3112" lon="2.3817">
        <ele>271.9</ele>
        <time>2019-06-02T06:26:49.000Z</time>
      </trkpt>
      <trkpt lat="43.31121" lon="2.38172">
        <ele>271.5</ele>
        <time>2019-06-02T06:26:50.000Z</time>
      </trkpt>
      <trkpt lat="43.31122" lon="2.38175">
        <ele>271.1</ele>
        <time>2019-06-02T06:26:51.000Z</time>
      </trkpt>
      <trkpt lat="43.31123" lon="2.38177">
        <ele>270.6</ele>
        <time>2019-06-02T06:26:52.000Z</time>
      </trkpt>
      <trkpt lat="43.31124" lon="2.3818">
        <ele>270.1</ele>
        <time>2019-06-02T06:26:53.000Z</time>
      </trkpt>
      <trkpt lat="43.31125" lon="2.38183">
        <ele>269.7</ele>
        <time>2019-06-02T06:26:54.000Z</time>
      </trkpt>
      <trkpt lat="43.31126" lon="2.38185">
        <ele>269.3</ele>
        <time>2019-06-02T06:26:55.000Z</time>
      </trkpt>
      <trkpt lat="43.31126" lon="2.38188">
        <ele>268.9</ele>
        <time>2019-06-02T06:26:56.000Z</time>
      </trkpt>
      <trkpt lat="43.31126" lon="2.3819">
        <ele>268.8</ele>
        <time>2019-06-02T06:26:57.000Z</time>
      </trkpt>
      <trkpt lat="43.31125" lon="2.38191">
        <ele>268.8</ele>
        <time>2019-06-02T06:26:58.000Z</time>
      </trkpt>
      <trkpt lat="43.31123" lon="2.38192">
        <ele>268.9</ele>
        <time>2019-06-02T06:26:59.000Z</time>
      </trkpt>
      <trkpt lat="43.3112" lon="2.38193">
        <ele>269.3</ele>
        <time>2019-06-02T06:27:00.000Z</time>
      </trkpt>
      <trkpt lat="43.31118" lon="2.38193">
        <ele>269.6</ele>
        <time>2019-06-02T06:27:01.000Z</time>
      </trkpt>
      <trkpt lat="43.31116" lon="2.38192">
        <ele>270</ele>
        <time>2019-06-02T06:27:02.000Z</time>
      </trkpt>
      <trkpt lat="43.31114" lon="2.38192">
        <ele>270.3</ele>
        <time>2019-06-02T06:27:03.000Z</time>
      </trkpt>
      <trkpt lat="43.31112" lon="2.38191">
        <ele>270.6</ele>
        <time>2019-06-02T06:27:04.000Z</time>
      </trkpt>
      <trkpt lat="43.31111" lon="2.38191">
        <ele>270.9</ele>
        <time>2019-06-02T06:27:05.000Z</time>
      </trkpt>
      <trkpt lat="43.31109" lon="2.3819">
        <ele>271.2</ele>
        <time>2019-06-02T06:27:06.000Z</time>
      </trkpt>
      <trkpt lat="43.31107" lon="2.3819">
        <ele>271.5</ele>
        <time>2019-06-02T06:27:07.000Z</time>
      </trkpt>
      <trkpt lat="43.31105" lon="2.3819">
        <ele>271.8</ele>
        <time>2019-06-02T06:27:08.000Z</time>
      </trkpt>
      <trkpt lat="43.31103" lon="2.38191">
        <ele>272.1</ele>
        <time>2019-06-02T06:27:09.000Z</time>
      </trkpt>
      <trkpt lat="43.31101" lon="2.38191">
        <ele>272.3</ele>
        <time>2019-06-02T06:27:10.000Z</time>
      </trkpt>
      <trkpt lat="43.31099" lon="2.3819">
        <ele>272.6</ele>
        <time>2019-06-02T06:27:11.000Z</time>
      </trkpt>
      <trkpt lat="43.31097" lon="2.3819">
        <ele>272.8</ele>
        <time>2019-06-02T06:27:12.000Z</time>
      </trkpt>
      <trkpt lat="43.31096" lon="2.3819">
        <ele>273.1</ele>
        <time>2019-06-02T06:27:13.000Z</time>
      </trkpt>
      <trkpt lat="43.31094" lon="2.3819">
        <ele>273.3</ele>
        <time>2019-06-02T06:27:14.000Z</time>
      </trkpt>
      <trkpt lat="43.31093" lon="2.3819">
        <ele>273.5</ele>
        <time>2019-06-02T06:27:15.000Z</time>
      </trkpt>
      <trkpt lat="43.31091" lon="2.3819">
        <ele>273.8</ele>
        <time>2019-06-02T06:27:16.000Z</time>
      </trkpt>
      <trkpt lat="43.3109" lon="2.3819">
        <ele>274</ele>
        <time>2019-06-02T06:27:17.000Z</time>
      </trkpt>
      <trkpt lat="43.31088" lon="2.3819">
        <ele>274.2</ele>
        <time>2019-06-02T06:27:18.000Z</time>
      </trkpt>
      <trkpt lat="43.31087" lon="2.3819">
        <ele>274.4</ele>
        <time>2019-06-02T06:27:19.000Z</time>
      </trkpt>
      <trkpt lat="43.31085" lon="2.38191">
        <ele>274.6</ele>
        <time>2019-06-02T06:27:20.000Z</time>
      </trkpt>
      <trkpt lat="43.31083" lon="2.38191">
        <ele>274.8</ele>
        <time>2019-06-02T06:27:21.000Z</time>
      </trkpt>
      <trkpt lat="43.31082" lon="2.38192">
        <ele>274.9</ele>
        <time>2019-06-02T06:27:22.000Z</time>
      </trkpt>
      <trkpt lat="43.3108" lon="2.38192">
        <ele>275.1</ele>
        <time>2019-06-02T06:27:23.000Z</time>
      </trkpt>
      <trkpt lat="43.31078" lon="2.38193">
        <ele>275.2</ele>
        <time>2019-06-02T06:27:24.000Z</time>
      </trkpt>
      <trkpt lat="43.31076" lon="2.38193">
        <ele>275.3</ele>
        <time>2019-06-02T06:27:25.000Z</time>
      </trkpt>
      <trkpt lat="43.31074" lon="2.38194">
        <ele>275.4</ele>
        <time>2019-06-02T06:27:26.000Z</time>
      </trkpt>
      <trkpt lat="43.31073" lon="2.38194">
        <ele>275.6</ele>
        <time>2019-06-02T06:27:27.000Z</time>
      </trkpt>
      <trkpt lat="43.31071" lon="2.38195">
        <ele>275.7</ele>
        <time>2019-06-02T06:27:28.000Z</time>
      </trkpt>
      <trkpt lat="43.31069" lon="2.38195">
        <ele>275.8</ele>
        <time>2019-06-02T06:27:29.000Z</time>
      </trkpt>
      <trkpt lat="43.31067" lon="2.38196">
        <ele>276</ele>
        <time>2019-06-02T06:27:30.000Z</time>
      </trkpt>
      <trkpt lat="43.31066" lon="2.38196">
        <ele>276.1</ele>
        <time>2019-06-02T06:27:31.000Z</time>
      </trkpt>
      <trkpt lat="43.31064" lon="2.38196">
        <ele>276.3</ele>
        <time>2019-06-02T06:27:32.000Z</time>
      </trkpt>
      <trkpt lat="43.31062" lon="2.38196">
        <ele>276.4</ele>
        <time>2019-06-02T06:27:33.000Z</time>
      </trkpt>
      <trkpt lat="43.31061" lon="2.38196">
        <ele>276.6</ele>
        <time>2019-06-02T06:27:34.000Z</time>
      </trkpt>
      <trkpt lat="43.31059" lon="2.38196">
        <ele>276.8</ele>
        <time>2019-06-02T06:27:35.000Z</time>
      </trkpt>
      <trkpt lat="43.31058" lon="2.38196">
        <ele>276.9</ele>
        <time>2019-06-02T06:27:36.000Z</time>
      </trkpt>
      <trkpt lat="43.31056" lon="2.38196">
        <ele>277.1</ele>
        <time>2019-06-02T06:27:37.000Z</time>
      </trkpt>
      <trkpt lat="43.31054" lon="2.38196">
        <ele>277.3</ele>
        <time>2019-06-02T06:27:38.000Z</time>
      </trkpt>
      <trkpt lat="43.31053" lon="2.38196">
        <ele>277.4</ele>
        <time>2019-06-02T06:27:39.000Z</time>
      </trkpt>
      <trkpt lat="43.31051" lon="2.38196">
        <ele>277.6</ele>
        <time>2019-06-02T06:27:40.000Z</time>
      </trkpt>
      <trkpt lat="43.3105" lon="2.38196">
        <ele>277.8</ele>
        <time>2019-06-02T06:27:41.000Z</time>
      </trkpt>
      <trkpt lat="43.31048" lon="2.38197">
        <ele>277.9</ele>
        <time>2019-06-02T06:27:42.000Z</time>
      </trkpt>
      <trkpt lat="43.31046" lon="2.38197">
        <ele>278.1</ele>
        <time>2019-06-02T06:27:43.000Z</time>
      </trkpt>
      <trkpt lat="43.31045" lon="2.38197">
        <ele>278.3</ele>
        <time>2019-06-02T06:27:44.000Z</time>
      </trkpt>
      <trkpt lat="43.31043" lon="2.38197">
        <ele>278.4</ele>
        <time>2019-06-02T06:27:45.000Z</time>
      </trkpt>
      <trkpt lat="43.31041" lon="2.38197">
        <ele>278.5</ele>
        <time>2019-06-02T06:27:46.000Z</time>
      </trkpt>
      <trkpt lat="43.3104" lon="2.38198">
        <ele>278.7</ele>
        <time>2019-06-02T06:27:47.000Z</time>
      </trkpt>
      <trkpt lat="43.31038" lon="2.38198">
        <ele>278.8</ele>
        <time>2019-06-02T06:27:48.000Z</time>
      </trkpt>
      <trkpt lat="43.31036" lon="2.38198">
        <ele>278.9</ele>
        <time>2019-06-02T06:27:49.000Z</time>
      </trkpt>
      <trkpt lat="43.31035" lon="2.38198">
        <ele>279.1</ele>
        <time>2019-06-02T06:27:50.000Z</time>
      </trkpt>
      <trkpt lat="43.31033" lon="2.38198">
        <ele>279.3</ele>
        <time>2019-06-02T06:27:51.000Z</time>
      </trkpt>
      <trkpt lat="43.31032" lon="2.38198">
        <ele>279.5</ele>
        <time>2019-06-02T06:27:52.000Z</time>
      </trkpt>
      <trkpt lat="43.3103" lon="2.38197">
        <ele>279.8</ele>
        <time>2019-06-02T06:27:53.000Z</time>
      </trkpt>
      <trkpt lat="43.31029" lon="2.38196">
        <ele>280.1</ele>
        <time>2019-06-02T06:27:54.000Z</time>
      </trkpt>
      <trkpt lat="43.31027" lon="2.38196">
        <ele>280.4</ele>
        <time>2019-06-02T06:27:55.000Z</time>
      </trkpt>
      <trkpt lat="43.31026" lon="2.38195">
        <ele>280.8</ele>
        <time>2019-06-02T06:27:56.000Z</time>
      </trkpt>
      <trkpt lat="43.31024" lon="2.38194">
        <ele>281.1</ele>
        <time>2019-06-02T06:27:57.000Z</time>
      </trkpt>
      <trkpt lat="43.31023" lon="2.38193">
        <ele>281.5</ele>
        <time>2019-06-02T06:27:58.000Z</time>
      </trkpt>
      <trkpt lat="43.31021" lon="2.38192">
        <ele>281.8</ele>
        <time>2019-06-02T06:27:59.000Z</time>
      </trkpt>
      <trkpt lat="43.31019" lon="2.38192">
        <ele>282.1</ele>
        <time>2019-06-02T06:28:00.000Z</time>
      </trkpt>
      <trkpt lat="43.31018" lon="2.38191">
        <ele>282.4</ele>
        <time>2019-06-02T06:28:01.000Z</time>
      </trkpt>
      <trkpt lat="43.31016" lon="2.38191">
        <ele>282.6</ele>
        <time>2019-06-02T06:28:02.000Z</time>
      </trkpt>
      <trkpt lat="43.31014" lon="2.38191">
        <ele>282.9</ele>
        <time>2019-06-02T06:28:03.000Z</time>
      </trkpt>
      <trkpt lat="43.31012" lon="2.38191">
        <ele>283.1</ele>
        <time>2019-06-02T06:28:04.000Z</time>
      </trkpt>
      <trkpt lat="43.31011" lon="2.38191">
        <ele>283.3</ele>
        <time>2019-06-02T06:28:05.000Z</time>
      </trkpt>
      <trkpt lat="43.31009" lon="2.3819">
        <ele>283.6</ele>
        <time>2019-06-02T06:28:06.000Z</time>
      </trkpt>
      <trkpt lat="43.31007" lon="2.3819">
        <ele>283.8</ele>
        <time>2019-06-02T06:28:07.000Z</time>
      </trkpt>
      <trkpt lat="43.31005" lon="2.3819">
        <ele>284.1</ele>
        <time>2019-06-02T06:28:08.000Z</time>
      </trkpt>
      <trkpt lat="43.31003" lon="2.3819">
        <ele>284.3</ele>
        <time>2019-06-02T06:28:09.000Z</time>
      </trkpt>
      <trkpt lat="43.31" lon="2.3819">
        <ele>284.6</ele>
        <time>2019-06-02T06:28:10.000Z</time>
      </trkpt>
      <trkpt lat="43.30998" lon="2.3819">
        <ele>284.7</ele>
        <time>2019-06-02T06:28:11.000Z</time>
      </trkpt>
      <trkpt lat="43.30996" lon="2.3819">
        <ele>284.8</ele>
        <time>2019-06-02T06:28:12.000Z</time>
      </trkpt>
      <trkpt lat="43.30994" lon="2.3819">
        <ele>284.8</ele>
        <time>2019-06-02T06:28:13.000Z</time>
      </trkpt>
      <trkpt lat="43.30992" lon="2.3819">
        <ele>284.9</ele>
        <time>2019-06-02T06:28:14.000Z</time>
      </trkpt>
      <trkpt lat="43.3099" lon="2.3819">
        <ele>285</ele>
        <time>2019-06-02T06:28:15.000Z</time>
      </trkpt>
      <trkpt lat="43.30988" lon="2.38189">
        <ele>285.1</ele>
        <time>2019-06-02T06:28:16.000Z</time>
      </trkpt>
      <trkpt lat="43.30986" lon="2.38189">
        <ele>285.1</ele>
        <time>2019-06-02T06:28:17.000Z</time>
      </trkpt>
      <trkpt lat="43.30984" lon="2.38189">
        <ele>285.2</ele>
        <time>2019-06-02T06:28:18.000Z</time>
      </trkpt>
      <trkpt lat="43.30982" lon="2.38189">
        <ele>285.2</ele>
        <time>2019-06-02T06:28:19.000Z</time>
      </trkpt>
      <trkpt lat="43.3098" lon="2.38189">
        <ele>285.2</ele>
        <time>2019-06-02T06:28:20.000Z</time>
      </trkpt>
      <trkpt lat="43.30978" lon="2.3819">
        <ele>285.2</ele>
        <time>2019-06-02T06:28:21.000Z</time>
      </trkpt>
      <trkpt lat="43.30976" lon="2.3819">
        <ele>285.2</ele>
        <time>2019-06-02T06:28:22.000Z</time>
      </trkpt>
      <trkpt lat="43.30974" lon="2.3819">
        <ele>285.2</ele>
        <time>2019-06-02T06:28:23.000Z</time>
      </trkpt>
      <trkpt lat="43.30972" lon="2.3819">
        <ele>285.2</ele>
        <time>2019-06-02T06:28:24.000Z</time>
      </trkpt>
      <trkpt lat="43.3097" lon="2.38191">
        <ele>285.1</ele>
        <time>2019-06-02T06:28:25.000Z</time>
      </trkpt>
      <trkpt lat="43.30968" lon="2.38191">
        <ele>285.1</ele>
        <time>2019-06-02T06:28:26.000Z</time>
      </trkpt>
      <trkpt lat="43.30966" lon="2.38192">
        <ele>285.1</ele>
        <time>2019-06-02T06:28:27.000Z</time>
      </trkpt>
      <trkpt lat="43.30964" lon="2.38192">
        <ele>285</ele>
        <time>2019-06-02T06:28:28.000Z</time>
      </trkpt>
      <trkpt lat="43.30962" lon="2.38192">
        <ele>285</ele>
        <time>2019-06-02T06:28:29.000Z</time>
      </trkpt>
      <trkpt lat="43.3096" lon="2.38193">
        <ele>285</ele>
        <time>2019-06-02T06:28:30.000Z</time>
      </trkpt>
      <trkpt lat="43.30958" lon="2.38193">
        <ele>284.9</ele>
        <time>2019-06-02T06:28:31.000Z</time>
      </trkpt>
      <trkpt lat="43.30956" lon="2.38193">
        <ele>284.9</ele>
        <time>2019-06-02T06:28:32.000Z</time>
      </trkpt>
      <trkpt lat="43.30954" lon="2.38194">
        <ele>284.9</ele>
        <time>2019-06-02T06:28:33.000Z</time>
      </trkpt>
      <trkpt lat="43.30952" lon="2.38194">
        <ele>284.9</ele>
        <time>2019-06-02T06:28:34.000Z</time>
      </trkpt>
      <trkpt lat="43.3095" lon="2.38194">
        <ele>284.9</ele>
        <time>2019-06-02T06:28:35.000Z</time>
      </trkpt>
      <trkpt lat="43.30948" lon="2.38195">
        <ele>284.9</ele>
        <time>2019-06-02T06:28:36.000Z</time>
      </trkpt>
      <trkpt lat="43.30946" lon="2.38195">
        <ele>284.9</ele>
        <time>2019-06-02T06:28:37.000Z</time>
      </trkpt>
      <trkpt lat="43.30944" lon="2.38195">
        <ele>284.9</ele>
        <time>2019-06-02T06:28:38.000Z</time>
      </trkpt>
      <trkpt lat="43.30942" lon="2.38195">
        <ele>284.9</ele>
        <time>2019-06-02T06:28:39.000Z</time>
      </trkpt>
      <trkpt lat="43.3094" lon="2.38196">
        <ele>284.9</ele>
        <time>2019-06-02T06:28:40.000Z</time>
      </trkpt>
      <trkpt lat="43.30938" lon="2.38196">
        <ele>285</ele>
        <time>2019-06-02T06:28:41.000Z</time>
      </trkpt>
      <trkpt lat="43.30936" lon="2.38196">
        <ele>285</ele>
        <time>2019-06-02T06:28:42.000Z</time>
      </trkpt>
      <trkpt lat="43.30935" lon="2.38196">
        <ele>285</ele>
        <time>2019-06-02T06:28:43.000Z</time>
      </trkpt>
      <trkpt lat="43.30933" lon="2.38196">
        <ele>285</ele>
        <time>2019-06-02T06:28:44.000Z</time>
      </trkpt>
      <trkpt lat="43.30931" lon="2.38196">
        <ele>285</ele>
        <time>2019-06-02T06:28:45.000Z</time>
      </trkpt>
      <trkpt lat="43.30929" lon="2.38196">
        <ele>285</ele>
        <time>2019-06-02T06:28:46.000Z</time>
      </trkpt>
      <trkpt lat="43.30928" lon="2.38197">
        <ele>285.1</ele>
        <time>2019-06-02T06:28:47.000Z</time>
      </trkpt>
      <trkpt lat="43.30926" lon="2.38197">
        <ele>285.1</ele>
        <time>2019-06-02T06:28:48.000Z</time>
      </trkpt>
      <trkpt lat="43.30924" lon="2.38197">
        <ele>285.1</ele>
        <time>2019-06-02T06:28:49.000Z</time>
      </trkpt>
      <trkpt lat="43.30923" lon="2.38197">
        <ele>285.1</ele>
        <time>2019-06-02T06:28:50.000Z</time>
      </trkpt>
      <trkpt lat="43.30921" lon="2.38197">
        <ele>285.2</ele>
        <time>2019-06-02T06:28:51.000Z</time>
      </trkpt>
      <trkpt lat="43.30919" lon="2.38197">
        <ele>285.2</ele>
        <time>2019-06-02T06:28:52.000Z</time>
      </trkpt>
      <trkpt lat="43.30917" lon="2.38197">
        <ele>285.2</ele>
        <time>2019-06-02T06:28:53.000Z</time>
      </trkpt>
      <trkpt lat="43.30915" lon="2.38197">
        <ele>285.2</ele>
        <time>2019-06-02T06:28:54.000Z</time>
      </trkpt>
      <trkpt lat="43.30912" lon="2.38198">
        <ele>285.2</ele>
        <time>2019-06-02T06:28:55.000Z</time>
      </trkpt>
      <trkpt lat="43.3091" lon="2.38198">
        <ele>285.2</ele>
        <time>2019-06-02T06:28:56.000Z</time>
      </trkpt>
      <trkpt lat="43.30907" lon="2.38198">
        <ele>285.2</ele>
        <time>2019-06-02T06:28:57.000Z</time>
      </trkpt>
      <trkpt lat="43.30905" lon="2.38198">
        <ele>285.2</ele>
        <time>2019-06-02T06:28:58.000Z</time>
      </trkpt>
      <trkpt lat="43.30902" lon="2.38198">
        <ele>285.2</ele>
        <time>2019-06-02T06:28:59.000Z</time>
      </trkpt>
      <trkpt lat="43.30899" lon="2.38198">
        <ele>285.2</ele>
        <time>2019-06-02T06:29:00.000Z</time>
      </trkpt>
      <trkpt lat="43.30896" lon="2.38197">
        <ele>285.3</ele>
        <time>2019-06-02T06:29:01.000Z</time>
      </trkpt>
      <trkpt lat="43.30894" lon="2.38196">
        <ele>285.4</ele>
        <time>2019-06-02T06:29:02.000Z</time>
      </trkpt>
      <trkpt lat="43.30892" lon="2.38195">
        <ele>285.6</ele>
        <time>2019-06-02T06:29:03.000Z</time>
      </trkpt>
      <trkpt lat="43.30889" lon="2.38194">
        <ele>285.7</ele>
        <time>2019-06-02T06:29:04.000Z</time>
      </trkpt>
      <trkpt lat="43.30887" lon="2.38194">
        <ele>285.8</ele>
        <time>2019-06-02T06:29:05.000Z</time>
      </trkpt>
      <trkpt lat="43.30885" lon="2.38193">
        <ele>285.8</ele>
        <time>2019-06-02T06:29:06.000Z</time>
      </trkpt>
      <trkpt lat="43.30883" lon="2.38193">
        <ele>285.9</ele>
        <time>2019-06-02T06:29:07.000Z</time>
      </trkpt>
      <trkpt lat="43.30881" lon="2.38192">
        <ele>285.9</ele>
        <time>2019-06-02T06:29:08.000Z</time>
      </trkpt>
      <trkpt lat="43.30878" lon="2.38192">
        <ele>285.8</ele>
        <time>2019-06-02T06:29:09.000Z</time>
      </trkpt>
      <trkpt lat="43.30875" lon="2.38193">
        <ele>285.8</ele>
        <time>2019-06-02T06:29:10.000Z</time>
      </trkpt>
      <trkpt lat="43.30873" lon="2.38194">
        <ele>285.7</ele>
        <time>2019-06-02T06:29:11.000Z</time>
      </trkpt>
      <trkpt lat="43.30872" lon="2.38194">
        <ele>285.7</ele>
        <time>2019-06-02T06:29:12.000Z</time>
      </trkpt>
      <trkpt lat="43.30871" lon="2.38195">
        <ele>285.6</ele>
        <time>2019-06-02T06:29:13.000Z</time>
      </trkpt>
      <trkpt lat="43.3087" lon="2.38196">
        <ele>285.6</ele>
        <time>2019-06-02T06:29:14.000Z</time>
      </trkpt>
      <trkpt lat="43.3087" lon="2.38196">
        <ele>285.5</ele>
        <time>2019-06-02T06:29:15.000Z</time>
      </trkpt>
      <trkpt lat="43.3087" lon="2.38196">
        <ele>285.5</ele>
        <time>2019-06-02T06:29:16.000Z</time>
      </trkpt>
      <trkpt lat="43.3087" lon="2.38196">
        <ele>285.5</ele>
        <time>2019-06-02T06:29:17.000Z</time>
      </trkpt>
      <trkpt lat="43.3087" lon="2.38196">
        <ele>285.5</ele>
        <time>2019-06-02T06:29:18.000Z</time>
      </trkpt>
      <trkpt lat="43.3087" lon="2.38196">
        <ele>285.5</ele>
        <time>2019-06-02T06:29:19.000Z</time>
      </trkpt>
      <trkpt lat="43.3087" lon="2.38196">
        <ele>285.5</ele>
        <time>2019-06-02T06:29:20.000Z</time>
      </trkpt>
      <trkpt lat="43.3087" lon="2.38196">
        <ele>285.5</ele>
        <time>2019-06-02T06:29:21.000Z</time>
      </trkpt>
      <trkpt lat="43.3087" lon="2.38196">
        <ele>285.5</ele>
        <time>2019-06-02T06:29:22.000Z</time>
      </trkpt>
      <trkpt lat="43.3087" lon="2.38196">
        <ele>285.5</ele>
        <time>2019-06-02T06:29:23.000Z</time>
      </trkpt>
      <trkpt lat="43.3087" lon="2.38196">
        <ele>285.5</ele>
        <time>2019-06-02T06:29:24.000Z</time>
      </trkpt>
      <trkpt lat="43.3087" lon="2.38196">
        <ele>285.5</ele>
        <time>2019-06-02T06:29:25.000Z</time>
      </trkpt>
      <trkpt lat="43.3087" lon="2.38196">
        <ele>285.5</ele>
        <time>2019-06-02T06:29:26.000Z</time>
      </trkpt>
      <trkpt lat="43.3087" lon="2.38196">
        <ele>285.5</ele>
        <time>2019-06-02T06:29:27.000Z</time>
      </trkpt>
      <trkpt lat="43.3087" lon="2.38196">
        <ele>285.5</ele>
        <time>2019-06-02T06:29:28.000Z</time>
      </trkpt>
      <trkpt lat="43.3087" lon="2.38196">
        <ele>285.5</ele>
        <time>2019-06-02T06:29:29.000Z</time>
      </trkpt>
      <trkpt lat="43.3087" lon="2.38196">
        <ele>285.5</ele>
        <time>2019-06-02T06:29:30.000Z</time>
      </trkpt>
      <trkpt lat="43.3087" lon="2.38196">
        <ele>285.5</ele>
        <time>2019-06-02T06:29:31.000Z</time>
      </trkpt>
      <trkpt lat="43.3087" lon="2.38196">
        <ele>285.5</ele>
        <time>2019-06-02T06:29:32.000Z</time>
      </trkpt>
      <trkpt lat="43.3087" lon="2.38196">
        <ele>285.5</ele>
        <time>2019-06-02T06:29:33.000Z</time>
      </trkpt>
      <trkpt lat="43.3087" lon="2.38196">
        <ele>285.5</ele>
        <time>2019-06-02T06:29:34.000Z</time>
      </trkpt>
      <trkpt lat="43.3087" lon="2.38196">
        <ele>285.5</ele>
        <time>2019-06-02T06:29:35.000Z</time>
      </trkpt>
      <trkpt lat="43.3087" lon="2.38196">
        <ele>285.5</ele>
        <time>2019-06-02T06:29:36.000Z</time>
      </trkpt>
      <trkpt lat="43.3087" lon="2.38196">
        <ele>285.5</ele>
        <time>2019-06-02T06:29:37.000Z</time>
      </trkpt>
      <trkpt lat="43.3087" lon="2.38196">
        <ele>285.5</ele>
        <time>2019-06-02T06:29:38.000Z</time>
      </trkpt>
      <trkpt lat="43.3087" lon="2.38196">
        <ele>285.5</ele>
        <time>2019-06-02T06:29:39.000Z</time>
      </trkpt>
      <trkpt lat="43.3087" lon="2.38196">
        <ele>285.5</ele>
        <time>2019-06-02T06:29:40.000Z</time>
      </trkpt>
      <trkpt lat="43.3087" lon="2.38196">
        <ele>285.5</ele>
        <time>2019-06-02T06:29:41.000Z</time>
      </trkpt>
      <trkpt lat="43.3087" lon="2.38196">
        <ele>285.5</ele>
        <time>2019-06-02T06:29:42.000Z</time>
      </trkpt>
      <trkpt lat="43.3087" lon="2.38196">
        <ele>285.5</ele>
        <time>2019-06-02T06:29:43.000Z</time>
      </trkpt>
      <trkpt lat="43.3087" lon="2.38196">
        <ele>285.5</ele>
        <time>2019-06-02T06:29:44.000Z</time>
      </trkpt>
      <trkpt lat="43.3087" lon="2.38196">
        <ele>285.5</ele>
        <time>2019-06-02T06:29:45.000Z</time>
      </trkpt>
      <trkpt lat="43.3087" lon="2.38196">
        <ele>285.5</ele>
        <time>2019-06-02T06:29:46.000Z</time>
      </trkpt>
      <trkpt lat="43.3087" lon="2.38196">
        <ele>285.5</ele>
        <time>2019-06-02T06:29:47.000Z</time>
      </trkpt>
      <trkpt lat="43.3087" lon="2.38196">
        <ele>285.5</ele>
        <time>2019-06-02T06:29:48.000Z</time>
      </trkpt>
      <trkpt lat="43.3087" lon="2.38196">
        <ele>285.5</ele>
        <time>2019-06-02T06:29:49.000Z</time>
      </trkpt>
      <trkpt lat="43.3087" lon="2.38196">
        <ele>285.5</ele>
        <time>2019-06-02T06:29:50.000Z</time>
      </trkpt>
      <trkpt lat="43.3087" lon="2.38196">
        <ele>285.5</ele>
        <time>2019-06-02T06:29:51.000Z</time>
      </trkpt>
      <trkpt lat="43.3087" lon="2.38196">
        <ele>285.5</ele>
        <time>2019-06-02T06:29:52.000Z</time>
      </trkpt>
      <trkpt lat="43.3087" lon="2.38196">
        <ele>285.5</ele>
        <time>2019-06-02T06:29:53.000Z</time>
      </trkpt>
      <trkpt lat="43.3087" lon="2.38196">
        <ele>285.5</ele>
        <time>2019-06-02T06:29:54.000Z</time>
      </trkpt>
      <trkpt lat="43.3087" lon="2.38196">
        <ele>285.5</ele>
        <time>2019-06-02T06:29:55.000Z</time>
      </trkpt>
      <trkpt lat="43.3087" lon="2.38196">
        <ele>285.5</ele>
        <time>2019-06-02T06:29:56.000Z</time>
      </trkpt>
      <trkpt lat="43.3087" lon="2.38196">
        <ele>285.5</ele>
        <time>2019-06-02T06:29:57.000Z</time>
      </trkpt>
      <trkpt lat="43.3087" lon="2.38196">
        <ele>285.5</ele>
        <time>2019-06-02T06:29:58.000Z</time>
      </trkpt>
      <trkpt lat="43.3087" lon="2.38196">
        <ele>285.5</ele>
        <time>2019-06-02T06:29:59.000Z</time>
      </trkpt>
      <trkpt lat="43.3087" lon="2.38196">
        <ele>285.5</ele>
        <time>2019-06-02T06:30:00.000Z</time>
      </trkpt>
      <trkpt lat="43.3087" lon="2.38196">
        <ele>285.5</ele>
        <time>2019-06-02T06:30:01.000Z</time>
      </trkpt>
      <trkpt lat="43.3087" lon="2.38196">
        <ele>285.5</ele>
        <time>2019-06-02T06:30:02.000Z</time>
      </trkpt>
      <trkpt lat="43.3087" lon="2.38196">
        <ele>285.5</ele>
        <time>2019-06-02T06:30:03.000Z</time>
      </trkpt>
      <trkpt lat="43.3087" lon="2.38196">
        <ele>285.5</ele>
        <time>2019-06-02T06:30:04.000Z</time>
      </trkpt>
      <trkpt lat="43.3087" lon="2.38196">
        <ele>285.5</ele>
        <time>2019-06-02T06:30:05.000Z</time>
      </trkpt>
      <trkpt lat="43.3087" lon="2.38196">
        <ele>285.5</ele>
        <time>2019-06-02T06:30:06.000Z</time>
      </trkpt>
      <trkpt lat="43.3087" lon="2.38196">
        <ele>285.5</ele>
        <time>2019-06-02T06:30:07.000Z</time>
      </trkpt>
      <trkpt lat="43.3087" lon="2.38196">
        <ele>285.5</ele>
        <time>2019-06-02T06:30:08.000Z</time>
      </trkpt>
      <trkpt lat="43.3087" lon="2.38196">
        <ele>285.5</ele>
        <time>2019-06-02T06:30:09.000Z</time>
      </trkpt>
      <trkpt lat="43.3087" lon="2.38196">
        <ele>285.5</ele>
        <time>2019-06-02T06:30:10.000Z</time>
      </trkpt>
      <trkpt lat="43.3087" lon="2.38196">
        <ele>285.5</ele>
        <time>2019-06-02T06:30:11.000Z</time>
      </trkpt>
      <trkpt lat="43.3087" lon="2.38196">
        <ele>285.5</ele>
        <time>2019-06-02T06:30:12.000Z</time>
      </trkpt>
      <trkpt lat="43.3087" lon="2.38196">
        <ele>285.5</ele>
        <time>2019-06-02T06:30:13.000Z</time>
      </trkpt>
      <trkpt lat="43.3087" lon="2.38196">
        <ele>285.5</ele>
        <time>2019-06-02T06:30:14.000Z</time>
      </trkpt>
      <trkpt lat="43.3087" lon="2.38196">
        <ele>285.5</ele>
        <time>2019-06-02T06:30:15.000Z</time>
      </trkpt>
      <trkpt lat="43.3087" lon="2.38196">
        <ele>285.5</ele>
        <time>2019-06-02T06:30:16.000Z</time>
      </trkpt>
      <trkpt lat="43.3087" lon="2.38196">
        <ele>285.5</ele>
        <time>2019-06-02T06:30:17.000Z</time>
      </trkpt>
      <trkpt lat="43.3087" lon="2.38196">
        <ele>285.5</ele>
        <time>2019-06-02T06:30:18.000Z</time>
      </trkpt>
      <trkpt lat="43.3087" lon="2.38196">
        <ele>285.5</ele>
        <time>2019-06-02T06:30:19.000Z</time>
      </trkpt>
      <trkpt lat="43.3087" lon="2.38196">
        <ele>285.5</ele>
        <time>2019-06-02T06:30:20.000Z</time>
      </trkpt>
      <trkpt lat="43.3087" lon="2.38196">
        <ele>285.5</ele>
        <time>2019-06-02T06:30:21.000Z</time>
      </trkpt>
      <trkpt lat="43.3087" lon="2.38196">
        <ele>285.5</ele>
        <time>2019-06-02T06:30:22.000Z</time>
      </trkpt>
      <trkpt lat="43.3087" lon="2.38196">
        <ele>285.5</ele>
        <time>2019-06-02T06:30:23.000Z</time>
      </trkpt>
      <trkpt lat="43.3087" lon="2.38196">
        <ele>285.5</ele>
        <time>2019-06-02T06:30:24.000Z</time>
      </trkpt>
      <trkpt lat="43.3087" lon="2.38196">
        <ele>285.5</ele>
        <time>2019-06-02T06:30:25.000Z</time>
      </trkpt>
      <trkpt lat="43.3087" lon="2.38196">
        <ele>285.5</ele>
        <time>2019-06-02T06:30:26.000Z</time>
      </trkpt>
      <trkpt lat="43.3087" lon="2.38196">
        <ele>285.5</ele>
        <time>2019-06-02T06:30:27.000Z</time>
      </trkpt>
      <trkpt lat="43.3087" lon="2.38196">
        <ele>285.5</ele>
        <time>2019-06-02T06:30:28.000Z</time>
      </trkpt>
      <trkpt lat="43.3087" lon="2.38196">
        <ele>285.5</ele>
        <time>2019-06-02T06:30:29.000Z</time>
      </trkpt>
      <trkpt lat="43.3087" lon="2.38196">
        <ele>285.5</ele>
        <time>2019-06-02T06:30:30.000Z</time>
      </trkpt>
      <trkpt lat="43.3087" lon="2.38196">
        <ele>285.5</ele>
        <time>2019-06-02T06:30:31.000Z</time>
      </trkpt>
      <trkpt lat="43.3087" lon="2.38197">
        <ele>285.5</ele>
        <time>2019-06-02T06:30:32.000Z</time>
      </trkpt>
      <trkpt lat="43.30869" lon="2.38197">
        <ele>285.5</ele>
        <time>2019-06-02T06:30:33.000Z</time>
      </trkpt>
      <trkpt lat="43.30868" lon="2.38198">
        <ele>285.4</ele>
        <time>2019-06-02T06:30:34.000Z</time>
      </trkpt>
      <trkpt lat="43.30867" lon="2.38198">
        <ele>285.4</ele>
        <time>2019-06-02T06:30:35.000Z</time>
      </trkpt>
      <trkpt lat="43.30866" lon="2.38199">
        <ele>285.3</ele>
        <time>2019-06-02T06:30:36.000Z</time>
      </trkpt>
      <trkpt lat="43.30865" lon="2.382">
        <ele>285.3</ele>
        <time>2019-06-02T06:30:37.000Z</time>
      </trkpt>
      <trkpt lat="43.30864" lon="2.38201">
        <ele>285.2</ele>
        <time>2019-06-02T06:30:38.000Z</time>
      </trkpt>
      <trkpt lat="43.30864" lon="2.38202">
        <ele>285.2</ele>
        <time>2019-06-02T06:30:39.000Z</time>
      </trkpt>
      <trkpt lat="43.30864" lon="2.38202">
        <ele>285.2</ele>
        <time>2019-06-02T06:30:40.000Z</time>
      </trkpt>
      <trkpt lat="43.30864" lon="2.38202">
        <ele>285.2</ele>
        <time>2019-06-02T06:30:41.000Z</time>
      </trkpt>
      <trkpt lat="43.30862" lon="2.38203">
        <ele>285.1</ele>
        <time>2019-06-02T06:30:42.000Z</time>
      </trkpt>
      <trkpt lat="43.3086" lon="2.38205">
        <ele>285.1</ele>
        <time>2019-06-02T06:30:43.000Z</time>
      </trkpt>
      <trkpt lat="43.30858" lon="2.38205">
        <ele>285.1</ele>
        <time>2019-06-02T06:30:44.000Z</time>
      </trkpt>
      <trkpt lat="43.30856" lon="2.38206">
        <ele>285.1</ele>
        <time>2019-06-02T06:30:45.000Z</time>
      </trkpt>
      <trkpt lat="43.30853" lon="2.38207">
        <ele>285.1</ele>
        <time>2019-06-02T06:30:46.000Z</time>
      </trkpt>
      <trkpt lat="43.30851" lon="2.38208">
        <ele>285.1</ele>
        <time>2019-06-02T06:30:47.000Z</time>
      </trkpt>
      <trkpt lat="43.30849" lon="2.38208">
        <ele>285.1</ele>
        <time>2019-06-02T06:30:48.000Z</time>
      </trkpt>
      <trkpt lat="43.30847" lon="2.38209">
        <ele>285.2</ele>
        <time>2019-06-02T06:30:49.000Z</time>
      </trkpt>
      <trkpt lat="43.30845" lon="2.3821">
        <ele>285.2</ele>
        <time>2019-06-02T06:30:50.000Z</time>
      </trkpt>
      <trkpt lat="43.30842" lon="2.3821">
        <ele>285.2</ele>
        <time>2019-06-02T06:30:51.000Z</time>
      </trkpt>
      <trkpt lat="43.3084" lon="2.38211">
        <ele>285.3</ele>
        <time>2019-06-02T06:30:52.000Z</time>
      </trkpt>
      <trkpt lat="43.30838" lon="2.38212">
        <ele>285.3</ele>
        <time>2019-06-02T06:30:53.000Z</time>
      </trkpt>
      <trkpt lat="43.30836" lon="2.38213">
        <ele>285.4</ele>
        <time>2019-06-02T06:30:54.000Z</time>
      </trkpt>
      <trkpt lat="43.30834" lon="2.38214">
        <ele>285.4</ele>
        <time>2019-06-02T06:30:55.000Z</time>
      </trkpt>
      <trkpt lat="43.30832" lon="2.38215">
        <ele>285.4</ele>
        <time>2019-06-02T06:30:56.000Z</time>
      </trkpt>
      <trkpt lat="43.3083" lon="2.38216">
        <ele>285.2</ele>
        <time>2019-06-02T06:30:57.000Z</time>
      </trkpt>
      <trkpt lat="43.30828" lon="2.38217">
        <ele>285.1</ele>
        <time>2019-06-02T06:30:58.000Z</time>
      </trkpt>
      <trkpt lat="43.30826" lon="2.38218">
        <ele>285</ele>
        <time>2019-06-02T06:30:59.000Z</time>
      </trkpt>
      <trkpt lat="43.30824" lon="2.38219">
        <ele>284.9</ele>
        <time>2019-06-02T06:31:00.000Z</time>
      </trkpt>
      <trkpt lat="43.30822" lon="2.3822">
        <ele>284.8</ele>
        <time>2019-06-02T06:31:01.000Z</time>
      </trkpt>
      <trkpt lat="43.3082" lon="2.38221">
        <ele>284.6</ele>
        <time>2019-06-02T06:31:02.000Z</time>
      </trkpt>
      <trkpt lat="43.30818" lon="2.38222">
        <ele>284.5</ele>
        <time>2019-06-02T06:31:03.000Z</time>
      </trkpt>
      <trkpt lat="43.30816" lon="2.38223">
        <ele>284.4</ele>
        <time>2019-06-02T06:31:04.000Z</time>
      </trkpt>
      <trkpt lat="43.30814" lon="2.38224">
        <ele>284.3</ele>
        <time>2019-06-02T06:31:05.000Z</time>
      </trkpt>
      <trkpt lat="43.30811" lon="2.38225">
        <ele>284.2</ele>
        <time>2019-06-02T06:31:06.000Z</time>
      </trkpt>
      <trkpt lat="43.30809" lon="2.38226">
        <ele>284.1</ele>
        <time>2019-06-02T06:31:07.000Z</time>
      </trkpt>
      <trkpt lat="43.30807" lon="2.38227">
        <ele>284</ele>
        <time>2019-06-02T06:31:08.000Z</time>
      </trkpt>
      <trkpt lat="43.30805" lon="2.38228">
        <ele>283.9</ele>
        <time>2019-06-02T06:31:09.000Z</time>
      </trkpt>
      <trkpt lat="43.30803" lon="2.38229">
        <ele>283.8</ele>
        <time>2019-06-02T06:31:10.000Z</time>
      </trkpt>
      <trkpt lat="43.308" lon="2.38229">
        <ele>283.7</ele>
        <time>2019-06-02T06:31:11.000Z</time>
      </trkpt>
      <trkpt lat="43.30798" lon="2.3823">
        <ele>283.6</ele>
        <time>2019-06-02T06:31:12.000Z</time>
      </trkpt>
      <trkpt lat="43.30796" lon="2.38231">
        <ele>283.5</ele>
        <time>2019-06-02T06:31:13.000Z</time>
      </trkpt>
      <trkpt lat="43.30794" lon="2.38232">
        <ele>283.4</ele>
        <time>2019-06-02T06:31:14.000Z</time>
      </trkpt>
      <trkpt lat="43.30792" lon="2.38233">
        <ele>283.3</ele>
        <time>2019-06-02T06:31:15.000Z</time>
      </trkpt>
      <trkpt lat="43.3079" lon="2.38233">
        <ele>283.2</ele>
        <time>2019-06-02T06:31:16.000Z</time>
      </trkpt>
      <trkpt lat="43.30788" lon="2.38234">
        <ele>283.1</ele>
        <time>2019-06-02T06:31:17.000Z</time>
      </trkpt>
      <trkpt lat="43.30786" lon="2.38235">
        <ele>283.1</ele>
        <time>2019-06-02T06:31:18.000Z</time>
      </trkpt>
      <trkpt lat="43.30784" lon="2.38236">
        <ele>283</ele>
        <time>2019-06-02T06:31:19.000Z</time>
      </trkpt>
      <trkpt lat="43.30782" lon="2.38238">
        <ele>282.9</ele>
        <time>2019-06-02T06:31:20.000Z</time>
      </trkpt>
      <trkpt lat="43.3078" lon="2.38239">
        <ele>282.9</ele>
        <time>2019-06-02T06:31:21.000Z</time>
      </trkpt>
      <trkpt lat="43.30778" lon="2.3824">
        <ele>282.8</ele>
        <time>2019-06-02T06:31:22.000Z</time>
      </trkpt>
      <trkpt lat="43.30777" lon="2.38241">
        <ele>282.8</ele>
        <time>2019-06-02T06:31:23.000Z</time>
      </trkpt>
      <trkpt lat="43.30775" lon="2.38243">
        <ele>282.7</ele>
        <time>2019-06-02T06:31:24.000Z</time>
      </trkpt>
      <trkpt lat="43.30773" lon="2.38244">
        <ele>282.7</ele>
        <time>2019-06-02T06:31:25.000Z</time>
      </trkpt>
      <trkpt lat="43.30771" lon="2.38246">
        <ele>282.6</ele>
        <time>2019-06-02T06:31:26.000Z</time>
      </trkpt>
      <trkpt lat="43.30768" lon="2.38248">
        <ele>282.6</ele>
        <time>2019-06-02T06:31:27.000Z</time>
      </trkpt>
      <trkpt lat="43.30766" lon="2.38249">
        <ele>282.6</ele>
        <time>2019-06-02T06:31:28.000Z</time>
      </trkpt>
      <trkpt lat="43.30764" lon="2.38251">
        <ele>282.5</ele>
        <time>2019-06-02T06:31:29.000Z</time>
      </trkpt>
      <trkpt lat="43.30763" lon="2.38252">
        <ele>282.5</ele>
        <time>2019-06-02T06:31:30.000Z</time>
      </trkpt>
      <trkpt lat="43.30761" lon="2.38254">
        <ele>282.5</ele>
        <time>2019-06-02T06:31:31.000Z</time>
      </trkpt>
      <trkpt lat="43.30759" lon="2.38256">
        <ele>282.5</ele>
        <time>2019-06-02T06:31:32.000Z</time>
      </trkpt>
      <trkpt lat="43.30758" lon="2.38258">
        <ele>282.5</ele>
        <time>2019-06-02T06:31:33.000Z</time>
      </trkpt>
      <trkpt lat="43.30756" lon="2.3826">
        <ele>282.6</ele>
        <time>2019-06-02T06:31:34.000Z</time>
      </trkpt>
      <trkpt lat="43.30755" lon="2.38262">
        <ele>282.6</ele>
        <time>2019-06-02T06:31:35.000Z</time>
      </trkpt>
      <trkpt lat="43.30754" lon="2.38264">
        <ele>282.7</ele>
        <time>2019-06-02T06:31:36.000Z</time>
      </trkpt>
      <trkpt lat="43.30753" lon="2.38267">
        <ele>282.8</ele>
        <time>2019-06-02T06:31:37.000Z</time>
      </trkpt>
      <trkpt lat="43.30752" lon="2.38269">
        <ele>282.9</ele>
        <time>2019-06-02T06:31:38.000Z</time>
      </trkpt>
      <trkpt lat="43.30751" lon="2.38272">
        <ele>283</ele>
        <time>2019-06-02T06:31:39.000Z</time>
      </trkpt>
      <trkpt lat="43.3075" lon="2.38275">
        <ele>283.2</ele>
        <time>2019-06-02T06:31:40.000Z</time>
      </trkpt>
      <trkpt lat="43.3075" lon="2.38278">
        <ele>283.3</ele>
        <time>2019-06-02T06:31:41.000Z</time>
      </trkpt>
      <trkpt lat="43.30749" lon="2.38281">
        <ele>283.3</ele>
        <time>2019-06-02T06:31:42.000Z</time>
      </trkpt>
      <trkpt lat="43.30749" lon="2.38283">
        <ele>283.4</ele>
        <time>2019-06-02T06:31:43.000Z</time>
      </trkpt>
      <trkpt lat="43.30748" lon="2.38286">
        <ele>283.4</ele>
        <time>2019-06-02T06:31:44.000Z</time>
      </trkpt>
      <trkpt lat="43.30748" lon="2.38288">
        <ele>283.5</ele>
        <time>2019-06-02T06:31:45.000Z</time>
      </trkpt>
      <trkpt lat="43.30747" lon="2.38291">
        <ele>283.6</ele>
        <time>2019-06-02T06:31:46.000Z</time>
      </trkpt>
      <trkpt lat="43.30747" lon="2.38294">
        <ele>283.6</ele>
        <time>2019-06-02T06:31:47.000Z</time>
      </trkpt>
      <trkpt lat="43.30746" lon="2.38297">
        <ele>283.7</ele>
        <time>2019-06-02T06:31:48.000Z</time>
      </trkpt>
      <trkpt lat="43.30745" lon="2.383">
        <ele>283.8</ele>
        <time>2019-06-02T06:31:49.000Z</time>
      </trkpt>
      <trkpt lat="43.30744" lon="2.38304">
        <ele>283.8</ele>
        <time>2019-06-02T06:31:50.000Z</time>
      </trkpt>
      <trkpt lat="43.30743" lon="2.38306">
        <ele>283.8</ele>
        <time>2019-06-02T06:31:51.000Z</time>
      </trkpt>
      <trkpt lat="43.30742" lon="2.38309">
        <ele>283.7</ele>
        <time>2019-06-02T06:31:52.000Z</time>
      </trkpt>
      <trkpt lat="43.3074" lon="2.38311">
        <ele>283.6</ele>
        <time>2019-06-02T06:31:53.000Z</time>
      </trkpt>
      <trkpt lat="43.30738" lon="2.38313">
        <ele>283.5</ele>
        <time>2019-06-02T06:31:54.000Z</time>
      </trkpt>
      <trkpt lat="43.30736" lon="2.38315">
        <ele>283.3</ele>
        <time>2019-06-02T06:31:55.000Z</time>
      </trkpt>
      <trkpt lat="43.30733" lon="2.38317">
        <ele>283.1</ele>
        <time>2019-06-02T06:31:56.000Z</time>
      </trkpt>
      <trkpt lat="43.30731" lon="2.38319">
        <ele>282.9</ele>
        <time>2019-06-02T06:31:57.000Z</time>
      </trkpt>
      <trkpt lat="43.30729" lon="2.38321">
        <ele>282.7</ele>
        <time>2019-06-02T06:31:58.000Z</time>
      </trkpt>
      <trkpt lat="43.30726" lon="2.38324">
        <ele>282.6</ele>
        <time>2019-06-02T06:31:59.000Z</time>
      </trkpt>
      <trkpt lat="43.30724" lon="2.38327">
        <ele>282.5</ele>
        <time>2019-06-02T06:32:00.000Z</time>
      </trkpt>
      <trkpt lat="43.30722" lon="2.38329">
        <ele>282.3</ele>
        <time>2019-06-02T06:32:01.000Z</time>
      </trkpt>
      <trkpt lat="43.30719" lon="2.38332">
        <ele>282.3</ele>
        <time>2019-06-02T06:32:02.000Z</time>
      </trkpt>
      <trkpt lat="43.30717" lon="2.38335">
        <ele>281.7</ele>
        <time>2019-06-02T06:32:03.000Z</time>
      </trkpt>
      <trkpt lat="43.30715" lon="2.38338">
        <ele>281</ele>
        <time>2019-06-02T06:32:04.000Z</time>
      </trkpt>
      <trkpt lat="43.30713" lon="2.38341">
        <ele>280.4</ele>
        <time>2019-06-02T06:32:05.000Z</time>
      </trkpt>
      <trkpt lat="43.30711" lon="2.38344">
        <ele>279.8</ele>
        <time>2019-06-02T06:32:06.000Z</time>
      </trkpt>
      <trkpt lat="43.30709" lon="2.38346">
        <ele>279.2</ele>
        <time>2019-06-02T06:32:07.000Z</time>
      </trkpt>
      <trkpt lat="43.30707" lon="2.38349">
        <ele>278.8</ele>
        <time>2019-06-02T06:32:08.000Z</time>
      </trkpt>
      <trkpt lat="43.30705" lon="2.38351">
        <ele>278.3</ele>
        <time>2019-06-02T06:32:09.000Z</time>
      </trkpt>
      <trkpt lat="43.30703" lon="2.38353">
        <ele>277.9</ele>
        <time>2019-06-02T06:32:10.000Z</time>
      </trkpt>
      <trkpt lat="43.30701" lon="2.38355">
        <ele>277.6</ele>
        <time>2019-06-02T06:32:11.000Z</time>
      </trkpt>
      <trkpt lat="43.30699" lon="2.38357">
        <ele>277.2</ele>
        <time>2019-06-02T06:32:12.000Z</time>
      </trkpt>
      <trkpt lat="43.30697" lon="2.38359">
        <ele>276.9</ele>
        <time>2019-06-02T06:32:13.000Z</time>
      </trkpt>
      <trkpt lat="43.30695" lon="2.38361">
        <ele>276.7</ele>
        <time>2019-06-02T06:32:14.000Z</time>
      </trkpt>
      <trkpt lat="43.30693" lon="2.38363">
        <ele>276.4</ele>
        <time>2019-06-02T06:32:15.000Z</time>
      </trkpt>
      <trkpt lat="43.3069" lon="2.38365">
        <ele>276.2</ele>
        <time>2019-06-02T06:32:16.000Z</time>
      </trkpt>
      <trkpt lat="43.30688" lon="2.38367">
        <ele>276</ele>
        <time>2019-06-02T06:32:17.000Z</time>
      </trkpt>
      <trkpt lat="43.30686" lon="2.38369">
        <ele>275.8</ele>
        <time>2019-06-02T06:32:18.000Z</time>
      </trkpt>
      <trkpt lat="43.30684" lon="2.38371">
        <ele>275.7</ele>
        <time>2019-06-02T06:32:19.000Z</time>
      </trkpt>
      <trkpt lat="43.30682" lon="2.38373">
        <ele>275.5</ele>
        <time>2019-06-02T06:32:20.000Z</time>
      </trkpt>
      <trkpt lat="43.3068" lon="2.38375">
        <ele>275.4</ele>
        <time>2019-06-02T06:32:21.000Z</time>
      </trkpt>
      <trkpt lat="43.30678" lon="2.38378">
        <ele>275.3</ele>
        <time>2019-06-02T06:32:22.000Z</time>
      </trkpt>
      <trkpt lat="43.30677" lon="2.3838">
        <ele>275.2</ele>
        <time>2019-06-02T06:32:23.000Z</time>
      </trkpt>
      <trkpt lat="43.30675" lon="2.38382">
        <ele>275.2</ele>
        <time>2019-06-02T06:32:24.000Z</time>
      </trkpt>
      <trkpt lat="43.30673" lon="2.38385">
        <ele>275.2</ele>
        <time>2019-06-02T06:32:25.000Z</time>
      </trkpt>
      <trkpt lat="43.30671" lon="2.38387">
        <ele>275.2</ele>
        <time>2019-06-02T06:32:26.000Z</time>
      </trkpt>
      <trkpt lat="43.30669" lon="2.38389">
        <ele>275.2</ele>
        <time>2019-06-02T06:32:27.000Z</time>
      </trkpt>
      <trkpt lat="43.30667" lon="2.38391">
        <ele>275.3</ele>
        <time>2019-06-02T06:32:28.000Z</time>
      </trkpt>
      <trkpt lat="43.30665" lon="2.38393">
        <ele>275.1</ele>
        <time>2019-06-02T06:32:29.000Z</time>
      </trkpt>
      <trkpt lat="43.30663" lon="2.38395">
        <ele>275</ele>
        <time>2019-06-02T06:32:30.000Z</time>
      </trkpt>
      <trkpt lat="43.30661" lon="2.38397">
        <ele>274.8</ele>
        <time>2019-06-02T06:32:31.000Z</time>
      </trkpt>
      <trkpt lat="43.30659" lon="2.38399">
        <ele>274.7</ele>
        <time>2019-06-02T06:32:32.000Z</time>
      </trkpt>
      <trkpt lat="43.30657" lon="2.38401">
        <ele>274.6</ele>
        <time>2019-06-02T06:32:33.000Z</time>
      </trkpt>
      <trkpt lat="43.30655" lon="2.38404">
        <ele>274.5</ele>
        <time>2019-06-02T06:32:34.000Z</time>
      </trkpt>
      <trkpt lat="43.30654" lon="2.38406">
        <ele>274.4</ele>
        <time>2019-06-02T06:32:35.000Z</time>
      </trkpt>
      <trkpt lat="43.30652" lon="2.38409">
        <ele>274.4</ele>
        <time>2019-06-02T06:32:36.000Z</time>
      </trkpt>
      <trkpt lat="43.30651" lon="2.38411">
        <ele>274.4</ele>
        <time>2019-06-02T06:32:37.000Z</time>
      </trkpt>
      <trkpt lat="43.3065" lon="2.38414">
        <ele>274.4</ele>
        <time>2019-06-02T06:32:38.000Z</time>
      </trkpt>
      <trkpt lat="43.30649" lon="2.38417">
        <ele>274.4</ele>
        <time>2019-06-02T06:32:39.000Z</time>
      </trkpt>
      <trkpt lat="43.30648" lon="2.38419">
        <ele>273.8</ele>
        <time>2019-06-02T06:32:40.000Z</time>
      </trkpt>
      <trkpt lat="43.30647" lon="2.38422">
        <ele>273.2</ele>
        <time>2019-06-02T06:32:41.000Z</time>
      </trkpt>
      <trkpt lat="43.30645" lon="2.38425">
        <ele>272.7</ele>
        <time>2019-06-02T06:32:42.000Z</time>
      </trkpt>
      <trkpt lat="43.30644" lon="2.38427">
        <ele>272.2</ele>
        <time>2019-06-02T06:32:43.000Z</time>
      </trkpt>
      <trkpt lat="43.30642" lon="2.3843">
        <ele>271.7</ele>
        <time>2019-06-02T06:32:44.000Z</time>
      </trkpt>
      <trkpt lat="43.30641" lon="2.38432">
        <ele>271.3</ele>
        <time>2019-06-02T06:32:45.000Z</time>
      </trkpt>
      <trkpt lat="43.30639" lon="2.38434">
        <ele>270.9</ele>
        <time>2019-06-02T06:32:46.000Z</time>
      </trkpt>
      <trkpt lat="43.30637" lon="2.38436">
        <ele>270.6</ele>
        <time>2019-06-02T06:32:47.000Z</time>
      </trkpt>
      <trkpt lat="43.30636" lon="2.38438">
        <ele>270.3</ele>
        <time>2019-06-02T06:32:48.000Z</time>
      </trkpt>
      <trkpt lat="43.30634" lon="2.3844">
        <ele>270</ele>
        <time>2019-06-02T06:32:49.000Z</time>
      </trkpt>
      <trkpt lat="43.30632" lon="2.38442">
        <ele>269.8</ele>
        <time>2019-06-02T06:32:50.000Z</time>
      </trkpt>
      <trkpt lat="43.3063" lon="2.38444">
        <ele>269.6</ele>
        <time>2019-06-02T06:32:51.000Z</time>
      </trkpt>
      <trkpt lat="43.30629" lon="2.38445">
        <ele>269.4</ele>
        <time>2019-06-02T06:32:52.000Z</time>
      </trkpt>
      <trkpt lat="43.30627" lon="2.38447">
        <ele>269.2</ele>
        <time>2019-06-02T06:32:53.000Z</time>
      </trkpt>
      <trkpt lat="43.30625" lon="2.38449">
        <ele>269.1</ele>
        <time>2019-06-02T06:32:54.000Z</time>
      </trkpt>
      <trkpt lat="43.30623" lon="2.38451">
        <ele>268.9</ele>
        <time>2019-06-02T06:32:55.000Z</time>
      </trkpt>
      <trkpt lat="43.30621" lon="2.38453">
        <ele>268.8</ele>
        <time>2019-06-02T06:32:56.000Z</time>
      </trkpt>
      <trkpt lat="43.30619" lon="2.38455">
        <ele>268.6</ele>
        <time>2019-06-02T06:32:57.000Z</time>
      </trkpt>
      <trkpt lat="43.30617" lon="2.38457">
        <ele>268.5</ele>
        <time>2019-06-02T06:32:58.000Z</time>
      </trkpt>
      <trkpt lat="43.30615" lon="2.38459">
        <ele>268.4</ele>
        <time>2019-06-02T06:32:59.000Z</time>
      </trkpt>
      <trkpt lat="43.30613" lon="2.38462">
        <ele>268.3</ele>
        <time>2019-06-02T06:33:00.000Z</time>
      </trkpt>
      <trkpt lat="43.30611" lon="2.38464">
        <ele>268.3</ele>
        <time>2019-06-02T06:33:01.000Z</time>
      </trkpt>
      <trkpt lat="43.30609" lon="2.38466">
        <ele>268.3</ele>
        <time>2019-06-02T06:33:02.000Z</time>
      </trkpt>
      <trkpt lat="43.30607" lon="2.38468">
        <ele>268.3</ele>
        <time>2019-06-02T06:33:03.000Z</time>
      </trkpt>
      <trkpt lat="43.30604" lon="2.3847">
        <ele>268.4</ele>
        <time>2019-06-02T06:33:04.000Z</time>
      </trkpt>
      <trkpt lat="43.30602" lon="2.38472">
        <ele>268.5</ele>
        <time>2019-06-02T06:33:05.000Z</time>
      </trkpt>
      <trkpt lat="43.306" lon="2.38473">
        <ele>268.6</ele>
        <time>2019-06-02T06:33:06.000Z</time>
      </trkpt>
      <trkpt lat="43.30598" lon="2.38475">
        <ele>268.8</ele>
        <time>2019-06-02T06:33:07.000Z</time>
      </trkpt>
      <trkpt lat="43.30596" lon="2.38476">
        <ele>269</ele>
        <time>2019-06-02T06:33:08.000Z</time>
      </trkpt>
      <trkpt lat="43.30594" lon="2.38478">
        <ele>269.2</ele>
        <time>2019-06-02T06:33:09.000Z</time>
      </trkpt>
      <trkpt lat="43.30592" lon="2.38479">
        <ele>269.4</ele>
        <time>2019-06-02T06:33:10.000Z</time>
      </trkpt>
      <trkpt lat="43.3059" lon="2.3848">
        <ele>269.6</ele>
        <time>2019-06-02T06:33:11.000Z</time>
      </trkpt>
      <trkpt lat="43.30587" lon="2.38481">
        <ele>269.9</ele>
        <time>2019-06-02T06:33:12.000Z</time>
      </trkpt>
      <trkpt lat="43.30585" lon="2.38482">
        <ele>270.1</ele>
        <time>2019-06-02T06:33:13.000Z</time>
      </trkpt>
      <trkpt lat="43.30583" lon="2.38483">
        <ele>270.4</ele>
        <time>2019-06-02T06:33:14.000Z</time>
      </trkpt>
      <trkpt lat="43.30581" lon="2.38484">
        <ele>270.4</ele>
        <time>2019-06-02T06:33:15.000Z</time>
      </trkpt>
      <trkpt lat="43.30579" lon="2.38485">
        <ele>270.5</ele>
        <time>2019-06-02T06:33:16.000Z</time>
      </trkpt>
      <trkpt lat="43.30577" lon="2.38486">
        <ele>270.6</ele>
        <time>2019-06-02T06:33:17.000Z</time>
      </trkpt>
      <trkpt lat="43.30575" lon="2.38487">
        <ele>270.6</ele>
        <time>2019-06-02T06:33:18.000Z</time>
      </trkpt>
      <trkpt lat="43.30573" lon="2.38488">
        <ele>270.7</ele>
        <time>2019-06-02T06:33:19.000Z</time>
      </trkpt>
      <trkpt lat="43.30571" lon="2.38489">
        <ele>270.8</ele>
        <time>2019-06-02T06:33:20.000Z</time>
      </trkpt>
      <trkpt lat="43.30569" lon="2.3849">
        <ele>270.9</ele>
        <time>2019-06-02T06:33:21.000Z</time>
      </trkpt>
      <trkpt lat="43.30567" lon="2.38491">
        <ele>271</ele>
        <time>2019-06-02T06:33:22.000Z</time>
      </trkpt>
      <trkpt lat="43.30566" lon="2.38492">
        <ele>271.1</ele>
        <time>2019-06-02T06:33:23.000Z</time>
      </trkpt>
      <trkpt lat="43.30564" lon="2.38493">
        <ele>271.2</ele>
        <time>2019-06-02T06:33:24.000Z</time>
      </trkpt>
      <trkpt lat="43.30563" lon="2.38495">
        <ele>271.3</ele>
        <time>2019-06-02T06:33:25.000Z</time>
      </trkpt>
      <trkpt lat="43.30562" lon="2.38496">
        <ele>271.4</ele>
        <time>2019-06-02T06:33:26.000Z</time>
      </trkpt>
      <trkpt lat="43.30561" lon="2.38498">
        <ele>271.5</ele>
        <time>2019-06-02T06:33:27.000Z</time>
      </trkpt>
      <trkpt lat="43.3056" lon="2.38499">
        <ele>271.6</ele>
        <time>2019-06-02T06:33:28.000Z</time>
      </trkpt>
      <trkpt lat="43.30559" lon="2.38501">
        <ele>271.7</ele>
        <time>2019-06-02T06:33:29.000Z</time>
      </trkpt>
      <trkpt lat="43.30557" lon="2.38502">
        <ele>271.5</ele>
        <time>2019-06-02T06:33:30.000Z</time>
      </trkpt>
      <trkpt lat="43.30556" lon="2.38504">
        <ele>271.3</ele>
        <time>2019-06-02T06:33:31.000Z</time>
      </trkpt>
      <trkpt lat="43.30555" lon="2.38505">
        <ele>271.1</ele>
        <time>2019-06-02T06:33:32.000Z</time>
      </trkpt>
      <trkpt lat="43.30554" lon="2.38507">
        <ele>270.9</ele>
        <time>2019-06-02T06:33:33.000Z</time>
      </trkpt>
      <trkpt lat="43.30553" lon="2.38509">
        <ele>270.6</ele>
        <time>2019-06-02T06:33:34.000Z</time>
      </trkpt>
      <trkpt lat="43.30551" lon="2.38512">
        <ele>270.3</ele>
        <time>2019-06-02T06:33:35.000Z</time>
      </trkpt>
      <trkpt lat="43.3055" lon="2.38514">
        <ele>270</ele>
        <time>2019-06-02T06:33:36.000Z</time>
      </trkpt>
      <trkpt lat="43.30549" lon="2.38517">
        <ele>269.7</ele>
        <time>2019-06-02T06:33:37.000Z</time>
      </trkpt>
      <trkpt lat="43.30548" lon="2.38519">
        <ele>269.4</ele>
        <time>2019-06-02T06:33:38.000Z</time>
      </trkpt>
      <trkpt lat="43.30547" lon="2.38522">
        <ele>269.2</ele>
        <time>2019-06-02T06:33:39.000Z</time>
      </trkpt>
      <trkpt lat="43.30545" lon="2.38525">
        <ele>268.9</ele>
        <time>2019-06-02T06:33:40.000Z</time>
      </trkpt>
      <trkpt lat="43.30544" lon="2.38528">
        <ele>268.7</ele>
        <time>2019-06-02T06:33:41.000Z</time>
      </trkpt>
      <trkpt lat="43.30542" lon="2.38531">
        <ele>268.5</ele>
        <time>2019-06-02T06:33:42.000Z</time>
      </trkpt>
      <trkpt lat="43.3054" lon="2.38534">
        <ele>268.4</ele>
        <time>2019-06-02T06:33:43.000Z</time>
      </trkpt>
      <trkpt lat="43.30539" lon="2.38536">
        <ele>268.3</ele>
        <time>2019-06-02T06:33:44.000Z</time>
      </trkpt>
      <trkpt lat="43.30537" lon="2.38538">
        <ele>268.3</ele>
        <time>2019-06-02T06:33:45.000Z</time>
      </trkpt>
      <trkpt lat="43.30535" lon="2.3854">
        <ele>268.4</ele>
        <time>2019-06-02T06:33:46.000Z</time>
      </trkpt>
      <trkpt lat="43.30533" lon="2.38541">
        <ele>268.6</ele>
        <time>2019-06-02T06:33:47.000Z</time>
      </trkpt>
      <trkpt lat="43.30532" lon="2.38543">
        <ele>268.7</ele>
        <time>2019-06-02T06:33:48.000Z</time>
      </trkpt>
      <trkpt lat="43.3053" lon="2.38544">
        <ele>268.9</ele>
        <time>2019-06-02T06:33:49.000Z</time>
      </trkpt>
      <trkpt lat="43.30528" lon="2.38545">
        <ele>269.1</ele>
        <time>2019-06-02T06:33:50.000Z</time>
      </trkpt>
      <trkpt lat="43.30526" lon="2.38546">
        <ele>269.3</ele>
        <time>2019-06-02T06:33:51.000Z</time>
      </trkpt>
      <trkpt lat="43.30525" lon="2.38548">
        <ele>269.4</ele>
        <time>2019-06-02T06:33:52.000Z</time>
      </trkpt>
      <trkpt lat="43.30523" lon="2.3855">
        <ele>269.6</ele>
        <time>2019-06-02T06:33:53.000Z</time>
      </trkpt>
      <trkpt lat="43.30521" lon="2.38553">
        <ele>269.7</ele>
        <time>2019-06-02T06:33:54.000Z</time>
      </trkpt>
      <trkpt lat="43.30519" lon="2.38555">
        <ele>269.8</ele>
        <time>2019-06-02T06:33:55.000Z</time>
      </trkpt>
      <trkpt lat="43.30518" lon="2.38559">
        <ele>269.9</ele>
        <time>2019-06-02T06:33:56.000Z</time>
      </trkpt>
      <trkpt lat="43.30516" lon="2.38562">
        <ele>270.1</ele>
        <time>2019-06-02T06:33:57.000Z</time>
      </trkpt>
      <trkpt lat="43.30514" lon="2.38565">
        <ele>270.2</ele>
        <time>2019-06-02T06:33:58.000Z</time>
      </trkpt>
      <trkpt lat="43.30512" lon="2.38569">
        <ele>270.4</ele>
        <time>2019-06-02T06:33:59.000Z</time>
      </trkpt>
      <trkpt lat="43.30511" lon="2.38572">
        <ele>270.7</ele>
        <time>2019-06-02T06:34:00.000Z</time>
      </trkpt>
      <trkpt lat="43.30509" lon="2.38575">
        <ele>271</ele>
        <time>2019-06-02T06:34:01.000Z</time>
      </trkpt>
      <trkpt lat="43.30507" lon="2.38578">
        <ele>271.3</ele>
        <time>2019-06-02T06:34:02.000Z</time>
      </trkpt>
      <trkpt lat="43.30505" lon="2.38581">
        <ele>271.7</ele>
        <time>2019-06-02T06:34:03.000Z</time>
      </trkpt>
      <trkpt lat="43.30503" lon="2.38583">
        <ele>272.1</ele>
        <time>2019-06-02T06:34:04.000Z</time>
      </trkpt>
      <trkpt lat="43.30501" lon="2.38586">
        <ele>272.1</ele>
        <time>2019-06-02T06:34:05.000Z</time>
      </trkpt>
      <trkpt lat="43.30499" lon="2.38588">
        <ele>271.9</ele>
        <time>2019-06-02T06:34:06.000Z</time>
      </trkpt>
      <trkpt lat="43.30497" lon="2.38591">
        <ele>271.5</ele>
        <time>2019-06-02T06:34:07.000Z</time>
      </trkpt>
      <trkpt lat="43.30495" lon="2.38593">
        <ele>271.1</ele>
        <time>2019-06-02T06:34:08.000Z</time>
      </trkpt>
      <trkpt lat="43.30494" lon="2.38595">
        <ele>270.7</ele>
        <time>2019-06-02T06:34:09.000Z</time>
      </trkpt>
      <trkpt lat="43.30492" lon="2.38597">
        <ele>270.4</ele>
        <time>2019-06-02T06:34:10.000Z</time>
      </trkpt>
      <trkpt lat="43.3049" lon="2.38599">
        <ele>270</ele>
        <time>2019-06-02T06:34:11.000Z</time>
      </trkpt>
      <trkpt lat="43.30489" lon="2.38602">
        <ele>269.7</ele>
        <time>2019-06-02T06:34:12.000Z</time>
      </trkpt>
      <trkpt lat="43.30487" lon="2.38604">
        <ele>269.4</ele>
        <time>2019-06-02T06:34:13.000Z</time>
      </trkpt>
      <trkpt lat="43.30486" lon="2.38606">
        <ele>269.1</ele>
        <time>2019-06-02T06:34:14.000Z</time>
      </trkpt>
      <trkpt lat="43.30485" lon="2.38608">
        <ele>268.7</ele>
        <time>2019-06-02T06:34:15.000Z</time>
      </trkpt>
      <trkpt lat="43.30483" lon="2.38611">
        <ele>268.4</ele>
        <time>2019-06-02T06:34:16.000Z</time>
      </trkpt>
      <trkpt lat="43.30482" lon="2.38613">
        <ele>268</ele>
        <time>2019-06-02T06:34:17.000Z</time>
      </trkpt>
      <trkpt lat="43.30481" lon="2.38616">
        <ele>267.7</ele>
        <time>2019-06-02T06:34:18.000Z</time>
      </trkpt>
      <trkpt lat="43.3048" lon="2.38618">
        <ele>267.3</ele>
        <time>2019-06-02T06:34:19.000Z</time>
      </trkpt>
      <trkpt lat="43.30479" lon="2.38621">
        <ele>267</ele>
        <time>2019-06-02T06:34:20.000Z</time>
      </trkpt>
      <trkpt lat="43.30478" lon="2.38623">
        <ele>266.7</ele>
        <time>2019-06-02T06:34:21.000Z</time>
      </trkpt>
      <trkpt lat="43.30477" lon="2.38626">
        <ele>266.4</ele>
        <time>2019-06-02T06:34:22.000Z</time>
      </trkpt>
      <trkpt lat="43.30476" lon="2.38628">
        <ele>266.1</ele>
        <time>2019-06-02T06:34:23.000Z</time>
      </trkpt>
      <trkpt lat="43.30474" lon="2.38631">
        <ele>265.8</ele>
        <time>2019-06-02T06:34:24.000Z</time>
      </trkpt>
      <trkpt lat="43.30473" lon="2.38633">
        <ele>265.6</ele>
        <time>2019-06-02T06:34:25.000Z</time>
      </trkpt>
      <trkpt lat="43.30472" lon="2.38636">
        <ele>265.3</ele>
        <time>2019-06-02T06:34:26.000Z</time>
      </trkpt>
      <trkpt lat="43.30471" lon="2.38638">
        <ele>265.1</ele>
        <time>2019-06-02T06:34:27.000Z</time>
      </trkpt>
      <trkpt lat="43.30471" lon="2.3864">
        <ele>264.9</ele>
        <time>2019-06-02T06:34:28.000Z</time>
      </trkpt>
      <trkpt lat="43.3047" lon="2.38642">
        <ele>264.7</ele>
        <time>2019-06-02T06:34:29.000Z</time>
      </trkpt>
      <trkpt lat="43.3047" lon="2.38644">
        <ele>264.4</ele>
        <time>2019-06-02T06:34:30.000Z</time>
      </trkpt>
      <trkpt lat="43.3047" lon="2.38645">
        <ele>264.2</ele>
        <time>2019-06-02T06:34:31.000Z</time>
      </trkpt>
      <trkpt lat="43.30469" lon="2.38648">
        <ele>263.9</ele>
        <time>2019-06-02T06:34:32.000Z</time>
      </trkpt>
      <trkpt lat="43.30468" lon="2.38651">
        <ele>263.6</ele>
        <time>2019-06-02T06:34:33.000Z</time>
      </trkpt>
      <trkpt lat="43.30467" lon="2.38654">
        <ele>263.3</ele>
        <time>2019-06-02T06:34:34.000Z</time>
      </trkpt>
      <trkpt lat="43.30466" lon="2.38657">
        <ele>263.1</ele>
        <time>2019-06-02T06:34:35.000Z</time>
      </trkpt>
      <trkpt lat="43.30464" lon="2.38661">
        <ele>262.9</ele>
        <time>2019-06-02T06:34:36.000Z</time>
      </trkpt>
      <trkpt lat="43.30463" lon="2.38664">
        <ele>262.8</ele>
        <time>2019-06-02T06:34:37.000Z</time>
      </trkpt>
      <trkpt lat="43.30461" lon="2.38667">
        <ele>262.7</ele>
        <time>2019-06-02T06:34:38.000Z</time>
      </trkpt>
      <trkpt lat="43.30459" lon="2.3867">
        <ele>262.7</ele>
        <time>2019-06-02T06:34:39.000Z</time>
      </trkpt>
      <trkpt lat="43.30457" lon="2.38673">
        <ele>262.8</ele>
        <time>2019-06-02T06:34:40.000Z</time>
      </trkpt>
      <trkpt lat="43.30455" lon="2.38675">
        <ele>262.9</ele>
        <time>2019-06-02T06:34:41.000Z</time>
      </trkpt>
      <trkpt lat="43.30453" lon="2.38677">
        <ele>263.1</ele>
        <time>2019-06-02T06:34:42.000Z</time>
      </trkpt>
      <trkpt lat="43.30451" lon="2.38679">
        <ele>263.4</ele>
        <time>2019-06-02T06:34:43.000Z</time>
      </trkpt>
      <trkpt lat="43.30449" lon="2.38681">
        <ele>263.6</ele>
        <time>2019-06-02T06:34:44.000Z</time>
      </trkpt>
      <trkpt lat="43.30447" lon="2.38683">
        <ele>263.8</ele>
        <time>2019-06-02T06:34:45.000Z</time>
      </trkpt>
      <trkpt lat="43.30446" lon="2.38685">
        <ele>263.9</ele>
        <time>2019-06-02T06:34:46.000Z</time>
      </trkpt>
      <trkpt lat="43.30444" lon="2.38686">
        <ele>264</ele>
        <time>2019-06-02T06:34:47.000Z</time>
      </trkpt>
      <trkpt lat="43.30443" lon="2.38688">
        <ele>264.1</ele>
        <time>2019-06-02T06:34:48.000Z</time>
      </trkpt>
      <trkpt lat="43.30442" lon="2.3869">
        <ele>264.1</ele>
        <time>2019-06-02T06:34:49.000Z</time>
      </trkpt>
      <trkpt lat="43.30441" lon="2.38692">
        <ele>264.1</ele>
        <time>2019-06-02T06:34:50.000Z</time>
      </trkpt>
      <trkpt lat="43.3044" lon="2.38695">
        <ele>264.2</ele>
        <time>2019-06-02T06:34:51.000Z</time>
      </trkpt>
      <trkpt lat="43.30437" lon="2.38698">
        <ele>264.4</ele>
        <time>2019-06-02T06:34:52.000Z</time>
      </trkpt>
      <trkpt lat="43.30435" lon="2.38701">
        <ele>264.7</ele>
        <time>2019-06-02T06:34:53.000Z</time>
      </trkpt>
      <trkpt lat="43.30433" lon="2.38705">
        <ele>264.9</ele>
        <time>2019-06-02T06:34:54.000Z</time>
      </trkpt>
      <trkpt lat="43.30431" lon="2.38708">
        <ele>265.2</ele>
        <time>2019-06-02T06:34:55.000Z</time>
      </trkpt>
      <trkpt lat="43.30429" lon="2.38711">
        <ele>265.2</ele>
        <time>2019-06-02T06:34:56.000Z</time>
      </trkpt>
      <trkpt lat="43.30428" lon="2.38714">
        <ele>265.2</ele>
        <time>2019-06-02T06:34:57.000Z</time>
      </trkpt>
      <trkpt lat="43.30427" lon="2.38717">
        <ele>265.3</ele>
        <time>2019-06-02T06:34:58.000Z</time>
      </trkpt>
      <trkpt lat="43.30425" lon="2.3872">
        <ele>265.4</ele>
        <time>2019-06-02T06:34:59.000Z</time>
      </trkpt>
      <trkpt lat="43.30424" lon="2.38723">
        <ele>265.6</ele>
        <time>2019-06-02T06:35:00.000Z</time>
      </trkpt>
      <trkpt lat="43.30422" lon="2.38726">
        <ele>265.8</ele>
        <time>2019-06-02T06:35:01.000Z</time>
      </trkpt>
      <trkpt lat="43.3042" lon="2.3873">
        <ele>266</ele>
        <time>2019-06-02T06:35:02.000Z</time>
      </trkpt>
      <trkpt lat="43.30418" lon="2.38733">
        <ele>266.3</ele>
        <time>2019-06-02T06:35:03.000Z</time>
      </trkpt>
      <trkpt lat="43.30417" lon="2.38737">
        <ele>266.4</ele>
        <time>2019-06-02T06:35:04.000Z</time>
      </trkpt>
      <trkpt lat="43.30415" lon="2.38741">
        <ele>266.1</ele>
        <time>2019-06-02T06:35:05.000Z</time>
      </trkpt>
      <trkpt lat="43.30414" lon="2.38744">
        <ele>265.7</ele>
        <time>2019-06-02T06:35:06.000Z</time>
      </trkpt>
      <trkpt lat="43.30413" lon="2.38748">
        <ele>265.4</ele>
        <time>2019-06-02T06:35:07.000Z</time>
      </trkpt>
      <trkpt lat="43.30413" lon="2.38751">
        <ele>265</ele>
        <time>2019-06-02T06:35:08.000Z</time>
      </trkpt>
      <trkpt lat="43.30412" lon="2.38754">
        <ele>264.5</ele>
        <time>2019-06-02T06:35:09.000Z</time>
      </trkpt>
      <trkpt lat="43.30411" lon="2.38758">
        <ele>264.1</ele>
        <time>2019-06-02T06:35:10.000Z</time>
      </trkpt>
      <trkpt lat="43.3041" lon="2.38761">
        <ele>263.6</ele>
        <time>2019-06-02T06:35:11.000Z</time>
      </trkpt>
      <trkpt lat="43.30409" lon="2.38764">
        <ele>263.2</ele>
        <time>2019-06-02T06:35:12.000Z</time>
      </trkpt>
      <trkpt lat="43.30408" lon="2.38767">
        <ele>262.8</ele>
        <time>2019-06-02T06:35:13.000Z</time>
      </trkpt>
      <trkpt lat="43.30406" lon="2.3877">
        <ele>262.5</ele>
        <time>2019-06-02T06:35:14.000Z</time>
      </trkpt>
      <trkpt lat="43.30404" lon="2.38773">
        <ele>262.1</ele>
        <time>2019-06-02T06:35:15.000Z</time>
      </trkpt>
      <trkpt lat="43.30402" lon="2.38777">
        <ele>261.7</ele>
        <time>2019-06-02T06:35:16.000Z</time>
      </trkpt>
      <trkpt lat="43.30401" lon="2.3878">
        <ele>261.3</ele>
        <time>2019-06-02T06:35:17.000Z</time>
      </trkpt>
      <trkpt lat="43.304" lon="2.38784">
        <ele>260.9</ele>
        <time>2019-06-02T06:35:18.000Z</time>
      </trkpt>
      <trkpt lat="43.30398" lon="2.38789">
        <ele>260.4</ele>
        <time>2019-06-02T06:35:19.000Z</time>
      </trkpt>
      <trkpt lat="43.30397" lon="2.38793">
        <ele>259.9</ele>
        <time>2019-06-02T06:35:20.000Z</time>
      </trkpt>
      <trkpt lat="43.30396" lon="2.38798">
        <ele>259.4</ele>
        <time>2019-06-02T06:35:21.000Z</time>
      </trkpt>
      <trkpt lat="43.30395" lon="2.38802">
        <ele>258.9</ele>
        <time>2019-06-02T06:35:22.000Z</time>
      </trkpt>
      <trkpt lat="43.30394" lon="2.38806">
        <ele>258.4</ele>
        <time>2019-06-02T06:35:23.000Z</time>
      </trkpt>
      <trkpt lat="43.30393" lon="2.38811">
        <ele>258</ele>
        <time>2019-06-02T06:35:24.000Z</time>
      </trkpt>
      <trkpt lat="43.30391" lon="2.38814">
        <ele>257.8</ele>
        <time>2019-06-02T06:35:25.000Z</time>
      </trkpt>
      <trkpt lat="43.30389" lon="2.38818">
        <ele>257.7</ele>
        <time>2019-06-02T06:35:26.000Z</time>
      </trkpt>
      <trkpt lat="43.30387" lon="2.38821">
        <ele>257.7</ele>
        <time>2019-06-02T06:35:27.000Z</time>
      </trkpt>
      <trkpt lat="43.30385" lon="2.38823">
        <ele>257.7</ele>
        <time>2019-06-02T06:35:28.000Z</time>
      </trkpt>
      <trkpt lat="43.30384" lon="2.38826">
        <ele>257.7</ele>
        <time>2019-06-02T06:35:29.000Z</time>
      </trkpt>
      <trkpt lat="43.30382" lon="2.38828">
        <ele>257.8</ele>
        <time>2019-06-02T06:35:30.000Z</time>
      </trkpt>
      <trkpt lat="43.30381" lon="2.3883">
        <ele>257.8</ele>
        <time>2019-06-02T06:35:31.000Z</time>
      </trkpt>
      <trkpt lat="43.3038" lon="2.38832">
        <ele>257.8</ele>
        <time>2019-06-02T06:35:32.000Z</time>
      </trkpt>
      <trkpt lat="43.30379" lon="2.38834">
        <ele>257.7</ele>
        <time>2019-06-02T06:35:33.000Z</time>
      </trkpt>
      <trkpt lat="43.30377" lon="2.38835">
        <ele>257.6</ele>
        <time>2019-06-02T06:35:34.000Z</time>
      </trkpt>
      <trkpt lat="43.30375" lon="2.38837">
        <ele>257.7</ele>
        <time>2019-06-02T06:35:35.000Z</time>
      </trkpt>
      <trkpt lat="43.30373" lon="2.38838">
        <ele>257.9</ele>
        <time>2019-06-02T06:35:36.000Z</time>
      </trkpt>
      <trkpt lat="43.3037" lon="2.38839">
        <ele>258.2</ele>
        <time>2019-06-02T06:35:37.000Z</time>
      </trkpt>
      <trkpt lat="43.30368" lon="2.3884">
        <ele>258.5</ele>
        <time>2019-06-02T06:35:38.000Z</time>
      </trkpt>
      <trkpt lat="43.30366" lon="2.38841">
        <ele>258.7</ele>
        <time>2019-06-02T06:35:39.000Z</time>
      </trkpt>
      <trkpt lat="43.30364" lon="2.38841">
        <ele>258.9</ele>
        <time>2019-06-02T06:35:40.000Z</time>
      </trkpt>
      <trkpt lat="43.30363" lon="2.38842">
        <ele>259</ele>
        <time>2019-06-02T06:35:41.000Z</time>
      </trkpt>
      <trkpt lat="43.30361" lon="2.38844">
        <ele>259.1</ele>
        <time>2019-06-02T06:35:42.000Z</time>
      </trkpt>
      <trkpt lat="43.30359" lon="2.38845">
        <ele>259.1</ele>
        <time>2019-06-02T06:35:43.000Z</time>
      </trkpt>
      <trkpt lat="43.30357" lon="2.38847">
        <ele>259.1</ele>
        <time>2019-06-02T06:35:44.000Z</time>
      </trkpt>
      <trkpt lat="43.30355" lon="2.3885">
        <ele>259.1</ele>
        <time>2019-06-02T06:35:45.000Z</time>
      </trkpt>
      <trkpt lat="43.30353" lon="2.38852">
        <ele>259.1</ele>
        <time>2019-06-02T06:35:46.000Z</time>
      </trkpt>
      <trkpt lat="43.3035" lon="2.38855">
        <ele>259.1</ele>
        <time>2019-06-02T06:35:47.000Z</time>
      </trkpt>
      <trkpt lat="43.30348" lon="2.38857">
        <ele>259.1</ele>
        <time>2019-06-02T06:35:48.000Z</time>
      </trkpt>
      <trkpt lat="43.30346" lon="2.38859">
        <ele>259.1</ele>
        <time>2019-06-02T06:35:49.000Z</time>
      </trkpt>
      <trkpt lat="43.30344" lon="2.38861">
        <ele>259.2</ele>
        <time>2019-06-02T06:35:50.000Z</time>
      </trkpt>
      <trkpt lat="43.30342" lon="2.38863">
        <ele>259.2</ele>
        <time>2019-06-02T06:35:51.000Z</time>
      </trkpt>
      <trkpt lat="43.3034" lon="2.38865">
        <ele>259.3</ele>
        <time>2019-06-02T06:35:52.000Z</time>
      </trkpt>
      <trkpt lat="43.30338" lon="2.38867">
        <ele>259.4</ele>
        <time>2019-06-02T06:35:53.000Z</time>
      </trkpt>
      <trkpt lat="43.30336" lon="2.38869">
        <ele>259.4</ele>
        <time>2019-06-02T06:35:54.000Z</time>
      </trkpt>
      <trkpt lat="43.30334" lon="2.38871">
        <ele>259.5</ele>
        <time>2019-06-02T06:35:55.000Z</time>
      </trkpt>
      <trkpt lat="43.30332" lon="2.38874">
        <ele>259.3</ele>
        <time>2019-06-02T06:35:56.000Z</time>
      </trkpt>
      <trkpt lat="43.3033" lon="2.38877">
        <ele>258.9</ele>
        <time>2019-06-02T06:35:57.000Z</time>
      </trkpt>
      <trkpt lat="43.30328" lon="2.3888">
        <ele>258.5</ele>
        <time>2019-06-02T06:35:58.000Z</time>
      </trkpt>
      <trkpt lat="43.30326" lon="2.38883">
        <ele>258.1</ele>
        <time>2019-06-02T06:35:59.000Z</time>
      </trkpt>
      <trkpt lat="43.30323" lon="2.38886">
        <ele>257.7</ele>
        <time>2019-06-02T06:36:00.000Z</time>
      </trkpt>
      <trkpt lat="43.30321" lon="2.3889">
        <ele>257.3</ele>
        <time>2019-06-02T06:36:01.000Z</time>
      </trkpt>
      <trkpt lat="43.30319" lon="2.38893">
        <ele>256.9</ele>
        <time>2019-06-02T06:36:02.000Z</time>
      </trkpt>
      <trkpt lat="43.30317" lon="2.38897">
        <ele>256.5</ele>
        <time>2019-06-02T06:36:03.000Z</time>
      </trkpt>
      <trkpt lat="43.30315" lon="2.38901">
        <ele>256.1</ele>
        <time>2019-06-02T06:36:04.000Z</time>
      </trkpt>
      <trkpt lat="43.30313" lon="2.38905">
        <ele>255.7</ele>
        <time>2019-06-02T06:36:05.000Z</time>
      </trkpt>
      <trkpt lat="43.30311" lon="2.38909">
        <ele>255.4</ele>
        <time>2019-06-02T06:36:06.000Z</time>
      </trkpt>
      <trkpt lat="43.30309" lon="2.38912">
        <ele>255.1</ele>
        <time>2019-06-02T06:36:07.000Z</time>
      </trkpt>
      <trkpt lat="43.30307" lon="2.38916">
        <ele>254.9</ele>
        <time>2019-06-02T06:36:08.000Z</time>
      </trkpt>
      <trkpt lat="43.30305" lon="2.38919">
        <ele>254.6</ele>
        <time>2019-06-02T06:36:09.000Z</time>
      </trkpt>
      <trkpt lat="43.30303" lon="2.38922">
        <ele>254.2</ele>
        <time>2019-06-02T06:36:10.000Z</time>
      </trkpt>
      <trkpt lat="43.30301" lon="2.38924">
        <ele>254</ele>
        <time>2019-06-02T06:36:11.000Z</time>
      </trkpt>
      <trkpt lat="43.30299" lon="2.38926">
        <ele>254</ele>
        <time>2019-06-02T06:36:12.000Z</time>
      </trkpt>
      <trkpt lat="43.30297" lon="2.38928">
        <ele>253.9</ele>
        <time>2019-06-02T06:36:13.000Z</time>
      </trkpt>
      <trkpt lat="43.30294" lon="2.3893">
        <ele>254</ele>
        <time>2019-06-02T06:36:14.000Z</time>
      </trkpt>
      <trkpt lat="43.30292" lon="2.38932">
        <ele>254.1</ele>
        <time>2019-06-02T06:36:15.000Z</time>
      </trkpt>
      <trkpt lat="43.3029" lon="2.38933">
        <ele>254.2</ele>
        <time>2019-06-02T06:36:16.000Z</time>
      </trkpt>
      <trkpt lat="43.30288" lon="2.38935">
        <ele>254.2</ele>
        <time>2019-06-02T06:36:17.000Z</time>
      </trkpt>
      <trkpt lat="43.30286" lon="2.38937">
        <ele>254.2</ele>
        <time>2019-06-02T06:36:18.000Z</time>
      </trkpt>
      <trkpt lat="43.30284" lon="2.38939">
        <ele>254.2</ele>
        <time>2019-06-02T06:36:19.000Z</time>
      </trkpt>
      <trkpt lat="43.30282" lon="2.38942">
        <ele>254.1</ele>
        <time>2019-06-02T06:36:20.000Z</time>
      </trkpt>
      <trkpt lat="43.3028" lon="2.38944">
        <ele>254</ele>
        <time>2019-06-02T06:36:21.000Z</time>
      </trkpt>
      <trkpt lat="43.30279" lon="2.38947">
        <ele>253.8</ele>
        <time>2019-06-02T06:36:22.000Z</time>
      </trkpt>
      <trkpt lat="43.30278" lon="2.3895">
        <ele>253.6</ele>
        <time>2019-06-02T06:36:23.000Z</time>
      </trkpt>
      <trkpt lat="43.30277" lon="2.38953">
        <ele>253.4</ele>
        <time>2019-06-02T06:36:24.000Z</time>
      </trkpt>
      <trkpt lat="43.30276" lon="2.38955">
        <ele>253.1</ele>
        <time>2019-06-02T06:36:25.000Z</time>
      </trkpt>
      <trkpt lat="43.30275" lon="2.38958">
        <ele>252.9</ele>
        <time>2019-06-02T06:36:26.000Z</time>
      </trkpt>
      <trkpt lat="43.30274" lon="2.3896">
        <ele>252.7</ele>
        <time>2019-06-02T06:36:27.000Z</time>
      </trkpt>
      <trkpt lat="43.30273" lon="2.38963">
        <ele>252.5</ele>
        <time>2019-06-02T06:36:28.000Z</time>
      </trkpt>
      <trkpt lat="43.30272" lon="2.38965">
        <ele>252.4</ele>
        <time>2019-06-02T06:36:29.000Z</time>
      </trkpt>
      <trkpt lat="43.30271" lon="2.38967">
        <ele>252.4</ele>
        <time>2019-06-02T06:36:30.000Z</time>
      </trkpt>
      <trkpt lat="43.3027" lon="2.38969">
        <ele>252.4</ele>
        <time>2019-06-02T06:36:31.000Z</time>
      </trkpt>
      <trkpt lat="43.30268" lon="2.38971">
        <ele>252.7</ele>
        <time>2019-06-02T06:36:32.000Z</time>
      </trkpt>
      <trkpt lat="43.30265" lon="2.38972">
        <ele>253.1</ele>
        <time>2019-06-02T06:36:33.000Z</time>
      </trkpt>
      <trkpt lat="43.30263" lon="2.38972">
        <ele>253.7</ele>
        <time>2019-06-02T06:36:34.000Z</time>
      </trkpt>
      <trkpt lat="43.3026" lon="2.38973">
        <ele>254.3</ele>
        <time>2019-06-02T06:36:35.000Z</time>
      </trkpt>
      <trkpt lat="43.30258" lon="2.38973">
        <ele>254.8</ele>
        <time>2019-06-02T06:36:36.000Z</time>
      </trkpt>
      <trkpt lat="43.30256" lon="2.38974">
        <ele>255.2</ele>
        <time>2019-06-02T06:36:37.000Z</time>
      </trkpt>
      <trkpt lat="43.30255" lon="2.38976">
        <ele>255.4</ele>
        <time>2019-06-02T06:36:38.000Z</time>
      </trkpt>
      <trkpt lat="43.30254" lon="2.38977">
        <ele>255.5</ele>
        <time>2019-06-02T06:36:39.000Z</time>
      </trkpt>
      <trkpt lat="43.30252" lon="2.38979">
        <ele>255.6</ele>
        <time>2019-06-02T06:36:40.000Z</time>
      </trkpt>
      <trkpt lat="43.30251" lon="2.38981">
        <ele>255.7</ele>
        <time>2019-06-02T06:36:41.000Z</time>
      </trkpt>
      <trkpt lat="43.3025" lon="2.38984">
        <ele>255.7</ele>
        <time>2019-06-02T06:36:42.000Z</time>
      </trkpt>
      <trkpt lat="43.30249" lon="2.38987">
        <ele>255.5</ele>
        <time>2019-06-02T06:36:43.000Z</time>
      </trkpt>
      <trkpt lat="43.30247" lon="2.38989">
        <ele>255.2</ele>
        <time>2019-06-02T06:36:44.000Z</time>
      </trkpt>
      <trkpt lat="43.30246" lon="2.38992">
        <ele>255</ele>
        <time>2019-06-02T06:36:45.000Z</time>
      </trkpt>
      <trkpt lat="43.30244" lon="2.38995">
        <ele>254.7</ele>
        <time>2019-06-02T06:36:46.000Z</time>
      </trkpt>
      <trkpt lat="43.30242" lon="2.38997">
        <ele>254.6</ele>
        <time>2019-06-02T06:36:47.000Z</time>
      </trkpt>
      <trkpt lat="43.30239" lon="2.38999">
        <ele>254.5</ele>
        <time>2019-06-02T06:36:48.000Z</time>
      </trkpt>
      <trkpt lat="43.30237" lon="2.39001">
        <ele>254.2</ele>
        <time>2019-06-02T06:36:49.000Z</time>
      </trkpt>
      <trkpt lat="43.30234" lon="2.39003">
        <ele>253.8</ele>
        <time>2019-06-02T06:36:50.000Z</time>
      </trkpt>
      <trkpt lat="43.30232" lon="2.39006">
        <ele>253.3</ele>
        <time>2019-06-02T06:36:51.000Z</time>
      </trkpt>
      <trkpt lat="43.3023" lon="2.39009">
        <ele>252.6</ele>
        <time>2019-06-02T06:36:52.000Z</time>
      </trkpt>
      <trkpt lat="43.30228" lon="2.39013">
        <ele>251.9</ele>
        <time>2019-06-02T06:36:53.000Z</time>
      </trkpt>
      <trkpt lat="43.30226" lon="2.39016">
        <ele>251.2</ele>
        <time>2019-06-02T06:36:54.000Z</time>
      </trkpt>
      <trkpt lat="43.30224" lon="2.39019">
        <ele>250.6</ele>
        <time>2019-06-02T06:36:55.000Z</time>
      </trkpt>
      <trkpt lat="43.30222" lon="2.39022">
        <ele>250.1</ele>
        <time>2019-06-02T06:36:56.000Z</time>
      </trkpt>
      <trkpt lat="43.3022" lon="2.39025">
        <ele>249.6</ele>
        <time>2019-06-02T06:36:57.000Z</time>
      </trkpt>
      <trkpt lat="43.30218" lon="2.39028">
        <ele>249.3</ele>
        <time>2019-06-02T06:36:58.000Z</time>
      </trkpt>
      <trkpt lat="43.30215" lon="2.39031">
        <ele>249</ele>
        <time>2019-06-02T06:36:59.000Z</time>
      </trkpt>
      <trkpt lat="43.30213" lon="2.39033">
        <ele>248.7</ele>
        <time>2019-06-02T06:37:00.000Z</time>
      </trkpt>
      <trkpt lat="43.3021" lon="2.39036">
        <ele>248.5</ele>
        <time>2019-06-02T06:37:01.000Z</time>
      </trkpt>
      <trkpt lat="43.30208" lon="2.39038">
        <ele>248.3</ele>
        <time>2019-06-02T06:37:02.000Z</time>
      </trkpt>
      <trkpt lat="43.30205" lon="2.39041">
        <ele>248.1</ele>
        <time>2019-06-02T06:37:03.000Z</time>
      </trkpt>
      <trkpt lat="43.30203" lon="2.39043">
        <ele>247.9</ele>
        <time>2019-06-02T06:37:04.000Z</time>
      </trkpt>
      <trkpt lat="43.30201" lon="2.39046">
        <ele>247.8</ele>
        <time>2019-06-02T06:37:05.000Z</time>
      </trkpt>
      <trkpt lat="43.30198" lon="2.39048">
        <ele>247.6</ele>
        <time>2019-06-02T06:37:06.000Z</time>
      </trkpt>
      <trkpt lat="43.30196" lon="2.3905">
        <ele>247.6</ele>
        <time>2019-06-02T06:37:07.000Z</time>
      </trkpt>
      <trkpt lat="43.30193" lon="2.39053">
        <ele>247.5</ele>
        <time>2019-06-02T06:37:08.000Z</time>
      </trkpt>
      <trkpt lat="43.30191" lon="2.39055">
        <ele>247.5</ele>
        <time>2019-06-02T06:37:09.000Z</time>
      </trkpt>
      <trkpt lat="43.30188" lon="2.39057">
        <ele>247.6</ele>
        <time>2019-06-02T06:37:10.000Z</time>
      </trkpt>
      <trkpt lat="43.30186" lon="2.39059">
        <ele>247.6</ele>
        <time>2019-06-02T06:37:11.000Z</time>
      </trkpt>
      <trkpt lat="43.30184" lon="2.39061">
        <ele>247.7</ele>
        <time>2019-06-02T06:37:12.000Z</time>
      </trkpt>
      <trkpt lat="43.30181" lon="2.39063">
        <ele>247.8</ele>
        <time>2019-06-02T06:37:13.000Z</time>
      </trkpt>
      <trkpt lat="43.30179" lon="2.39065">
        <ele>248</ele>
        <time>2019-06-02T06:37:14.000Z</time>
      </trkpt>
      <trkpt lat="43.30176" lon="2.39066">
        <ele>248.2</ele>
        <time>2019-06-02T06:37:15.000Z</time>
      </trkpt>
      <trkpt lat="43.30174" lon="2.39068">
        <ele>248.4</ele>
        <time>2019-06-02T06:37:16.000Z</time>
      </trkpt>
      <trkpt lat="43.30171" lon="2.3907">
        <ele>248.6</ele>
        <time>2019-06-02T06:37:17.000Z</time>
      </trkpt>
      <trkpt lat="43.30169" lon="2.39072">
        <ele>248.9</ele>
        <time>2019-06-02T06:37:18.000Z</time>
      </trkpt>
      <trkpt lat="43.30166" lon="2.39073">
        <ele>249.1</ele>
        <time>2019-06-02T06:37:19.000Z</time>
      </trkpt>
      <trkpt lat="43.30163" lon="2.39075">
        <ele>248.9</ele>
        <time>2019-06-02T06:37:20.000Z</time>
      </trkpt>
      <trkpt lat="43.30161" lon="2.39077">
        <ele>248.7</ele>
        <time>2019-06-02T06:37:21.000Z</time>
      </trkpt>
      <trkpt lat="43.30158" lon="2.39078">
        <ele>248.6</ele>
        <time>2019-06-02T06:37:22.000Z</time>
      </trkpt>
      <trkpt lat="43.30155" lon="2.3908">
        <ele>248.4</ele>
        <time>2019-06-02T06:37:23.000Z</time>
      </trkpt>
      <trkpt lat="43.30151" lon="2.39082">
        <ele>248.3</ele>
        <time>2019-06-02T06:37:24.000Z</time>
      </trkpt>
      <trkpt lat="43.30148" lon="2.39083">
        <ele>248.2</ele>
        <time>2019-06-02T06:37:25.000Z</time>
      </trkpt>
      <trkpt lat="43.30145" lon="2.39085">
        <ele>247.9</ele>
        <time>2019-06-02T06:37:26.000Z</time>
      </trkpt>
      <trkpt lat="43.30142" lon="2.39085">
        <ele>247.6</ele>
        <time>2019-06-02T06:37:27.000Z</time>
      </trkpt>
      <trkpt lat="43.30139" lon="2.39086">
        <ele>247.5</ele>
        <time>2019-06-02T06:37:28.000Z</time>
      </trkpt>
      <trkpt lat="43.30136" lon="2.39086">
        <ele>247.5</ele>
        <time>2019-06-02T06:37:29.000Z</time>
      </trkpt>
      <trkpt lat="43.30133" lon="2.39087">
        <ele>247.4</ele>
        <time>2019-06-02T06:37:30.000Z</time>
      </trkpt>
      <trkpt lat="43.3013" lon="2.39088">
        <ele>247.2</ele>
        <time>2019-06-02T06:37:31.000Z</time>
      </trkpt>
      <trkpt lat="43.30128" lon="2.39089">
        <ele>246.8</ele>
        <time>2019-06-02T06:37:32.000Z</time>
      </trkpt>
      <trkpt lat="43.30126" lon="2.3909">
        <ele>246.4</ele>
        <time>2019-06-02T06:37:33.000Z</time>
      </trkpt>
      <trkpt lat="43.30123" lon="2.39092">
        <ele>246</ele>
        <time>2019-06-02T06:37:34.000Z</time>
      </trkpt>
      <trkpt lat="43.30121" lon="2.39094">
        <ele>245.5</ele>
        <time>2019-06-02T06:37:35.000Z</time>
      </trkpt>
      <trkpt lat="43.30119" lon="2.39096">
        <ele>245.1</ele>
        <time>2019-06-02T06:37:36.000Z</time>
      </trkpt>
      <trkpt lat="43.30116" lon="2.39097">
        <ele>244.8</ele>
        <time>2019-06-02T06:37:37.000Z</time>
      </trkpt>
      <trkpt lat="43.30113" lon="2.39098">
        <ele>244.6</ele>
        <time>2019-06-02T06:37:38.000Z</time>
      </trkpt>
      <trkpt lat="43.30111" lon="2.39099">
        <ele>244.6</ele>
        <time>2019-06-02T06:37:39.000Z</time>
      </trkpt>
      <trkpt lat="43.30108" lon="2.391">
        <ele>244.5</ele>
        <time>2019-06-02T06:37:40.000Z</time>
      </trkpt>
      <trkpt lat="43.30105" lon="2.391">
        <ele>244.6</ele>
        <time>2019-06-02T06:37:41.000Z</time>
      </trkpt>
      <trkpt lat="43.30103" lon="2.39101">
        <ele>244.6</ele>
        <time>2019-06-02T06:37:42.000Z</time>
      </trkpt>
      <trkpt lat="43.30101" lon="2.39101">
        <ele>244.7</ele>
        <time>2019-06-02T06:37:43.000Z</time>
      </trkpt>
      <trkpt lat="43.301" lon="2.39101">
        <ele>244.7</ele>
        <time>2019-06-02T06:37:44.000Z</time>
      </trkpt>
      <trkpt lat="43.30099" lon="2.39101">
        <ele>244.7</ele>
        <time>2019-06-02T06:37:45.000Z</time>
      </trkpt>
      <trkpt lat="43.30099" lon="2.39101">
        <ele>244.7</ele>
        <time>2019-06-02T06:37:46.000Z</time>
      </trkpt>
      <trkpt lat="43.30099" lon="2.39102">
        <ele>244.4</ele>
        <time>2019-06-02T06:37:47.000Z</time>
      </trkpt>
      <trkpt lat="43.30099" lon="2.39104">
        <ele>244</ele>
        <time>2019-06-02T06:37:48.000Z</time>
      </trkpt>
      <trkpt lat="43.30098" lon="2.39106">
        <ele>243.6</ele>
        <time>2019-06-02T06:37:49.000Z</time>
      </trkpt>
      <trkpt lat="43.30097" lon="2.39108">
        <ele>243.3</ele>
        <time>2019-06-02T06:37:50.000Z</time>
      </trkpt>
      <trkpt lat="43.30094" lon="2.39109">
        <ele>243.2</ele>
        <time>2019-06-02T06:37:51.000Z</time>
      </trkpt>
      <trkpt lat="43.30092" lon="2.3911">
        <ele>243.1</ele>
        <time>2019-06-02T06:37:52.000Z</time>
      </trkpt>
      <trkpt lat="43.3009" lon="2.39111">
        <ele>243.1</ele>
        <time>2019-06-02T06:37:53.000Z</time>
      </trkpt>
      <trkpt lat="43.30088" lon="2.39112">
        <ele>243.1</ele>
        <time>2019-06-02T06:37:54.000Z</time>
      </trkpt>
      <trkpt lat="43.30086" lon="2.39113">
        <ele>243.1</ele>
        <time>2019-06-02T06:37:55.000Z</time>
      </trkpt>
      <trkpt lat="43.30084" lon="2.39114">
        <ele>243.1</ele>
        <time>2019-06-02T06:37:56.000Z</time>
      </trkpt>
      <trkpt lat="43.30082" lon="2.39116">
        <ele>242.8</ele>
        <time>2019-06-02T06:37:57.000Z</time>
      </trkpt>
      <trkpt lat="43.3008" lon="2.39117">
        <ele>242.5</ele>
        <time>2019-06-02T06:37:58.000Z</time>
      </trkpt>
      <trkpt lat="43.30078" lon="2.39119">
        <ele>242.1</ele>
        <time>2019-06-02T06:37:59.000Z</time>
      </trkpt>
      <trkpt lat="43.30076" lon="2.39121">
        <ele>241.7</ele>
        <time>2019-06-02T06:38:00.000Z</time>
      </trkpt>
      <trkpt lat="43.30074" lon="2.39123">
        <ele>241.3</ele>
        <time>2019-06-02T06:38:01.000Z</time>
      </trkpt>
      <trkpt lat="43.30072" lon="2.39126">
        <ele>240.8</ele>
        <time>2019-06-02T06:38:02.000Z</time>
      </trkpt>
      <trkpt lat="43.3007" lon="2.39129">
        <ele>240.4</ele>
        <time>2019-06-02T06:38:03.000Z</time>
      </trkpt>
      <trkpt lat="43.30068" lon="2.39131">
        <ele>240</ele>
        <time>2019-06-02T06:38:04.000Z</time>
      </trkpt>
      <trkpt lat="43.30067" lon="2.39133">
        <ele>239.7</ele>
        <time>2019-06-02T06:38:05.000Z</time>
      </trkpt>
      <trkpt lat="43.30065" lon="2.39135">
        <ele>239.4</ele>
        <time>2019-06-02T06:38:06.000Z</time>
      </trkpt>
      <trkpt lat="43.30064" lon="2.39137">
        <ele>239.2</ele>
        <time>2019-06-02T06:38:07.000Z</time>
      </trkpt>
      <trkpt lat="43.30063" lon="2.39138">
        <ele>239.1</ele>
        <time>2019-06-02T06:38:08.000Z</time>
      </trkpt>
      <trkpt lat="43.30062" lon="2.39139">
        <ele>239</ele>
        <time>2019-06-02T06:38:09.000Z</time>
      </trkpt>
      <trkpt lat="43.30062" lon="2.3914">
        <ele>238.9</ele>
        <time>2019-06-02T06:38:10.000Z</time>
      </trkpt>
      <trkpt lat="43.30062" lon="2.3914">
        <ele>238.9</ele>
        <time>2019-06-02T06:38:11.000Z</time>
      </trkpt>
      <trkpt lat="43.30062" lon="2.3914">
        <ele>238.9</ele>
        <time>2019-06-02T06:38:12.000Z</time>
      </trkpt>
      <trkpt lat="43.30062" lon="2.3914">
        <ele>238.8</ele>
        <time>2019-06-02T06:38:13.000Z</time>
      </trkpt>
      <trkpt lat="43.30062" lon="2.39141">
        <ele>238.8</ele>
        <time>2019-06-02T06:38:14.000Z</time>
      </trkpt>
      <trkpt lat="43.30061" lon="2.39142">
        <ele>238.6</ele>
        <time>2019-06-02T06:38:15.000Z</time>
      </trkpt>
      <trkpt lat="43.3006" lon="2.39143">
        <ele>238.5</ele>
        <time>2019-06-02T06:38:16.000Z</time>
      </trkpt>
      <trkpt lat="43.30058" lon="2.39145">
        <ele>238.3</ele>
        <time>2019-06-02T06:38:17.000Z</time>
      </trkpt>
      <trkpt lat="43.30056" lon="2.39147">
        <ele>238.2</ele>
        <time>2019-06-02T06:38:18.000Z</time>
      </trkpt>
      <trkpt lat="43.30055" lon="2.39148">
        <ele>238.1</ele>
        <time>2019-06-02T06:38:19.000Z</time>
      </trkpt>
      <trkpt lat="43.30053" lon="2.3915">
        <ele>238</ele>
        <time>2019-06-02T06:38:20.000Z</time>
      </trkpt>
      <trkpt lat="43.30051" lon="2.39151">
        <ele>237.9</ele>
        <time>2019-06-02T06:38:21.000Z</time>
      </trkpt>
      <trkpt lat="43.30049" lon="2.39153">
        <ele>237.9</ele>
        <time>2019-06-02T06:38:22.000Z</time>
      </trkpt>
      <trkpt lat="43.30047" lon="2.39154">
        <ele>237.8</ele>
        <time>2019-06-02T06:38:23.000Z</time>
      </trkpt>
      <trkpt lat="43.30045" lon="2.39156">
        <ele>237.8</ele>
        <time>2019-06-02T06:38:24.000Z</time>
      </trkpt>
      <trkpt lat="43.30043" lon="2.39157">
        <ele>237.8</ele>
        <time>2019-06-02T06:38:25.000Z</time>
      </trkpt>
      <trkpt lat="43.30041" lon="2.39159">
        <ele>237.8</ele>
        <time>2019-06-02T06:38:26.000Z</time>
      </trkpt>
      <trkpt lat="43.30039" lon="2.39161">
        <ele>237.8</ele>
        <time>2019-06-02T06:38:27.000Z</time>
      </trkpt>
      <trkpt lat="43.30037" lon="2.39163">
        <ele>237.8</ele>
        <time>2019-06-02T06:38:28.000Z</time>
      </trkpt>
      <trkpt lat="43.30035" lon="2.39165">
        <ele>237.8</ele>
        <time>2019-06-02T06:38:29.000Z</time>
      </trkpt>
      <trkpt lat="43.30033" lon="2.39167">
        <ele>237.7</ele>
        <time>2019-06-02T06:38:30.000Z</time>
      </trkpt>
      <trkpt lat="43.30031" lon="2.39169">
        <ele>237.3</ele>
        <time>2019-06-02T06:38:31.000Z</time>
      </trkpt>
      <trkpt lat="43.30029" lon="2.39171">
        <ele>236.9</ele>
        <time>2019-06-02T06:38:32.000Z</time>
      </trkpt>
      <trkpt lat="43.30027" lon="2.39174">
        <ele>236.5</ele>
        <time>2019-06-02T06:38:33.000Z</time>
      </trkpt>
      <trkpt lat="43.30025" lon="2.39176">
        <ele>236.1</ele>
        <time>2019-06-02T06:38:34.000Z</time>
      </trkpt>
      <trkpt lat="43.30022" lon="2.39179">
        <ele>235.7</ele>
        <time>2019-06-02T06:38:35.000Z</time>
      </trkpt>
      <trkpt lat="43.3002" lon="2.39181">
        <ele>235.4</ele>
        <time>2019-06-02T06:38:36.000Z</time>
      </trkpt>
      <trkpt lat="43.30018" lon="2.39183">
        <ele>235.1</ele>
        <time>2019-06-02T06:38:37.000Z</time>
      </trkpt>
      <trkpt lat="43.30016" lon="2.39185">
        <ele>234.8</ele>
        <time>2019-06-02T06:38:38.000Z</time>
      </trkpt>
      <trkpt lat="43.30013" lon="2.39188">
        <ele>234.6</ele>
        <time>2019-06-02T06:38:39.000Z</time>
      </trkpt>
      <trkpt lat="43.30011" lon="2.3919">
        <ele>234.5</ele>
        <time>2019-06-02T06:38:40.000Z</time>
      </trkpt>
      <trkpt lat="43.30009" lon="2.39192">
        <ele>234.3</ele>
        <time>2019-06-02T06:38:41.000Z</time>
      </trkpt>
      <trkpt lat="43.30007" lon="2.39193">
        <ele>234.2</ele>
        <time>2019-06-02T06:38:42.000Z</time>
      </trkpt>
      <trkpt lat="43.30005" lon="2.39195">
        <ele>234.1</ele>
        <time>2019-06-02T06:38:43.000Z</time>
      </trkpt>
      <trkpt lat="43.30003" lon="2.39197">
        <ele>234</ele>
        <time>2019-06-02T06:38:44.000Z</time>
      </trkpt>
      <trkpt lat="43.30001" lon="2.39199">
        <ele>233.9</ele>
        <time>2019-06-02T06:38:45.000Z</time>
      </trkpt>
      <trkpt lat="43.29999" lon="2.392">
        <ele>233.7</ele>
        <time>2019-06-02T06:38:46.000Z</time>
      </trkpt>
      <trkpt lat="43.29997" lon="2.39202">
        <ele>233.4</ele>
        <time>2019-06-02T06:38:47.000Z</time>
      </trkpt>
      <trkpt lat="43.29995" lon="2.39204">
        <ele>233.1</ele>
        <time>2019-06-02T06:38:48.000Z</time>
      </trkpt>
      <trkpt lat="43.29993" lon="2.39206">
        <ele>232.8</ele>
        <time>2019-06-02T06:38:49.000Z</time>
      </trkpt>
      <trkpt lat="43.29991" lon="2.39208">
        <ele>232.4</ele>
        <time>2019-06-02T06:38:50.000Z</time>
      </trkpt>
      <trkpt lat="43.29989" lon="2.3921">
        <ele>232.1</ele>
        <time>2019-06-02T06:38:51.000Z</time>
      </trkpt>
      <trkpt lat="43.29986" lon="2.39213">
        <ele>231.8</ele>
        <time>2019-06-02T06:38:52.000Z</time>
      </trkpt>
      <trkpt lat="43.29984" lon="2.39215">
        <ele>231.6</ele>
        <time>2019-06-02T06:38:53.000Z</time>
      </trkpt>
      <trkpt lat="43.29982" lon="2.39216">
        <ele>231.5</ele>
        <time>2019-06-02T06:38:54.000Z</time>
      </trkpt>
      <trkpt lat="43.2998" lon="2.39216">
        <ele>231.5</ele>
        <time>2019-06-02T06:38:55.000Z</time>
      </trkpt>
      <trkpt lat="43.29978" lon="2.39217">
        <ele>231.5</ele>
        <time>2019-06-02T06:38:56.000Z</time>
      </trkpt>
      <trkpt lat="43.29976" lon="2.39217">
        <ele>231.6</ele>
        <time>2019-06-02T06:38:57.000Z</time>
      </trkpt>
      <trkpt lat="43.29974" lon="2.39218">
        <ele>231.5</ele>
        <time>2019-06-02T06:38:58.000Z</time>
      </trkpt>
      <trkpt lat="43.29973" lon="2.3922">
        <ele>231.3</ele>
        <time>2019-06-02T06:38:59.000Z</time>
      </trkpt>
      <trkpt lat="43.29971" lon="2.39223">
        <ele>231.1</ele>
        <time>2019-06-02T06:39:00.000Z</time>
      </trkpt>
      <trkpt lat="43.29968" lon="2.39225">
        <ele>230.8</ele>
        <time>2019-06-02T06:39:01.000Z</time>
      </trkpt>
      <trkpt lat="43.29966" lon="2.39228">
        <ele>230.6</ele>
        <time>2019-06-02T06:39:02.000Z</time>
      </trkpt>
      <trkpt lat="43.29964" lon="2.39231">
        <ele>230.5</ele>
        <time>2019-06-02T06:39:03.000Z</time>
      </trkpt>
      <trkpt lat="43.29961" lon="2.39233">
        <ele>230.4</ele>
        <time>2019-06-02T06:39:04.000Z</time>
      </trkpt>
      <trkpt lat="43.29958" lon="2.39235">
        <ele>230.4</ele>
        <time>2019-06-02T06:39:05.000Z</time>
      </trkpt>
      <trkpt lat="43.29956" lon="2.39237">
        <ele>230.4</ele>
        <time>2019-06-02T06:39:06.000Z</time>
      </trkpt>
      <trkpt lat="43.29954" lon="2.3924">
        <ele>230.3</ele>
        <time>2019-06-02T06:39:07.000Z</time>
      </trkpt>
      <trkpt lat="43.29953" lon="2.39243">
        <ele>230</ele>
        <time>2019-06-02T06:39:08.000Z</time>
      </trkpt>
      <trkpt lat="43.29952" lon="2.39246">
        <ele>229.8</ele>
        <time>2019-06-02T06:39:09.000Z</time>
      </trkpt>
      <trkpt lat="43.29951" lon="2.3925">
        <ele>229.5</ele>
        <time>2019-06-02T06:39:10.000Z</time>
      </trkpt>
      <trkpt lat="43.29949" lon="2.39254">
        <ele>229.1</ele>
        <time>2019-06-02T06:39:11.000Z</time>
      </trkpt>
      <trkpt lat="43.29948" lon="2.39256">
        <ele>228.8</ele>
        <time>2019-06-02T06:39:12.000Z</time>
      </trkpt>
      <trkpt lat="43.29946" lon="2.39259">
        <ele>228.6</ele>
        <time>2019-06-02T06:39:13.000Z</time>
      </trkpt>
      <trkpt lat="43.29944" lon="2.3926">
        <ele>228.6</ele>
        <time>2019-06-02T06:39:14.000Z</time>
      </trkpt>
      <trkpt lat="43.29942" lon="2.39262">
        <ele>228.7</ele>
        <time>2019-06-02T06:39:15.000Z</time>
      </trkpt>
      <trkpt lat="43.29941" lon="2.39263">
        <ele>228.8</ele>
        <time>2019-06-02T06:39:16.000Z</time>
      </trkpt>
      <trkpt lat="43.29939" lon="2.39264">
        <ele>228.9</ele>
        <time>2019-06-02T06:39:17.000Z</time>
      </trkpt>
      <trkpt lat="43.29937" lon="2.39265">
        <ele>229</ele>
        <time>2019-06-02T06:39:18.000Z</time>
      </trkpt>
      <trkpt lat="43.29935" lon="2.39266">
        <ele>229.1</ele>
        <time>2019-06-02T06:39:19.000Z</time>
      </trkpt>
      <trkpt lat="43.29934" lon="2.39268">
        <ele>229.1</ele>
        <time>2019-06-02T06:39:20.000Z</time>
      </trkpt>
      <trkpt lat="43.29932" lon="2.39271">
        <ele>229</ele>
        <time>2019-06-02T06:39:21.000Z</time>
      </trkpt>
      <trkpt lat="43.29931" lon="2.39273">
        <ele>228.8</ele>
        <time>2019-06-02T06:39:22.000Z</time>
      </trkpt>
      <trkpt lat="43.29929" lon="2.39276">
        <ele>228.7</ele>
        <time>2019-06-02T06:39:23.000Z</time>
      </trkpt>
      <trkpt lat="43.29928" lon="2.3928">
        <ele>228.5</ele>
        <time>2019-06-02T06:39:24.000Z</time>
      </trkpt>
      <trkpt lat="43.29927" lon="2.39283">
        <ele>228.3</ele>
        <time>2019-06-02T06:39:25.000Z</time>
      </trkpt>
      <trkpt lat="43.29925" lon="2.39287">
        <ele>228.2</ele>
        <time>2019-06-02T06:39:26.000Z</time>
      </trkpt>
      <trkpt lat="43.29924" lon="2.39291">
        <ele>228</ele>
        <time>2019-06-02T06:39:27.000Z</time>
      </trkpt>
      <trkpt lat="43.29922" lon="2.39294">
        <ele>227.9</ele>
        <time>2019-06-02T06:39:28.000Z</time>
      </trkpt>
      <trkpt lat="43.29921" lon="2.39298">
        <ele>227.8</ele>
        <time>2019-06-02T06:39:29.000Z</time>
      </trkpt>
      <trkpt lat="43.29919" lon="2.39302">
        <ele>227.7</ele>
        <time>2019-06-02T06:39:30.000Z</time>
      </trkpt>
      <trkpt lat="43.29918" lon="2.39306">
        <ele>227.6</ele>
        <time>2019-06-02T06:39:31.000Z</time>
      </trkpt>
      <trkpt lat="43.29916" lon="2.3931">
        <ele>227.5</ele>
        <time>2019-06-02T06:39:32.000Z</time>
      </trkpt>
      <trkpt lat="43.29915" lon="2.39315">
        <ele>227</ele>
        <time>2019-06-02T06:39:33.000Z</time>
      </trkpt>
      <trkpt lat="43.29914" lon="2.39319">
        <ele>226.6</ele>
        <time>2019-06-02T06:39:34.000Z</time>
      </trkpt>
      <trkpt lat="43.29913" lon="2.39323">
        <ele>226.1</ele>
        <time>2019-06-02T06:39:35.000Z</time>
      </trkpt>
      <trkpt lat="43.29912" lon="2.39326">
        <ele>225.7</ele>
        <time>2019-06-02T06:39:36.000Z</time>
      </trkpt>
      <trkpt lat="43.29911" lon="2.3933">
        <ele>225.4</ele>
        <time>2019-06-02T06:39:37.000Z</time>
      </trkpt>
      <trkpt lat="43.29909" lon="2.39332">
        <ele>225.1</ele>
        <time>2019-06-02T06:39:38.000Z</time>
      </trkpt>
      <trkpt lat="43.29907" lon="2.39334">
        <ele>224.8</ele>
        <time>2019-06-02T06:39:39.000Z</time>
      </trkpt>
      <trkpt lat="43.29905" lon="2.39337">
        <ele>224.3</ele>
        <time>2019-06-02T06:39:40.000Z</time>
      </trkpt>
      <trkpt lat="43.29903" lon="2.39339">
        <ele>223.8</ele>
        <time>2019-06-02T06:39:41.000Z</time>
      </trkpt>
      <trkpt lat="43.29901" lon="2.39342">
        <ele>223.3</ele>
        <time>2019-06-02T06:39:42.000Z</time>
      </trkpt>
      <trkpt lat="43.29899" lon="2.39345">
        <ele>222.7</ele>
        <time>2019-06-02T06:39:43.000Z</time>
      </trkpt>
      <trkpt lat="43.29898" lon="2.39348">
        <ele>222</ele>
        <time>2019-06-02T06:39:44.000Z</time>
      </trkpt>
      <trkpt lat="43.29897" lon="2.39352">
        <ele>221.4</ele>
        <time>2019-06-02T06:39:45.000Z</time>
      </trkpt>
      <trkpt lat="43.29895" lon="2.39355">
        <ele>220.8</ele>
        <time>2019-06-02T06:39:46.000Z</time>
      </trkpt>
      <trkpt lat="43.29894" lon="2.39358">
        <ele>220.4</ele>
        <time>2019-06-02T06:39:47.000Z</time>
      </trkpt>
      <trkpt lat="43.29892" lon="2.3936">
        <ele>220</ele>
        <time>2019-06-02T06:39:48.000Z</time>
      </trkpt>
      <trkpt lat="43.29889" lon="2.39362">
        <ele>219.9</ele>
        <time>2019-06-02T06:39:49.000Z</time>
      </trkpt>
      <trkpt lat="43.29886" lon="2.39363">
        <ele>219.8</ele>
        <time>2019-06-02T06:39:50.000Z</time>
      </trkpt>
      <trkpt lat="43.29884" lon="2.39364">
        <ele>219.8</ele>
        <time>2019-06-02T06:39:51.000Z</time>
      </trkpt>
      <trkpt lat="43.29881" lon="2.39365">
        <ele>219.8</ele>
        <time>2019-06-02T06:39:52.000Z</time>
      </trkpt>
      <trkpt lat="43.2988" lon="2.39366">
        <ele>219.7</ele>
        <time>2019-06-02T06:39:53.000Z</time>
      </trkpt>
      <trkpt lat="43.29878" lon="2.39368">
        <ele>219.6</ele>
        <time>2019-06-02T06:39:54.000Z</time>
      </trkpt>
      <trkpt lat="43.29877" lon="2.39369">
        <ele>219.4</ele>
        <time>2019-06-02T06:39:55.000Z</time>
      </trkpt>
      <trkpt lat="43.29876" lon="2.39371">
        <ele>219.3</ele>
        <time>2019-06-02T06:39:56.000Z</time>
      </trkpt>
      <trkpt lat="43.29875" lon="2.39372">
        <ele>219.2</ele>
        <time>2019-06-02T06:39:57.000Z</time>
      </trkpt>
      <trkpt lat="43.29874" lon="2.39374">
        <ele>219.1</ele>
        <time>2019-06-02T06:39:58.000Z</time>
      </trkpt>
      <trkpt lat="43.29872" lon="2.39375">
        <ele>219</ele>
        <time>2019-06-02T06:39:59.000Z</time>
      </trkpt>
      <trkpt lat="43.29871" lon="2.39376">
        <ele>219</ele>
        <time>2019-06-02T06:40:00.000Z</time>
      </trkpt>
      <trkpt lat="43.2987" lon="2.39377">
        <ele>219</ele>
        <time>2019-06-02T06:40:01.000Z</time>
      </trkpt>
      <trkpt lat="43.29869" lon="2.39377">
        <ele>219</ele>
        <time>2019-06-02T06:40:02.000Z</time>
      </trkpt>
      <trkpt lat="43.29867" lon="2.39378">
        <ele>219.1</ele>
        <time>2019-06-02T06:40:03.000Z</time>
      </trkpt>
      <trkpt lat="43.29866" lon="2.39378">
        <ele>219.2</ele>
        <time>2019-06-02T06:40:04.000Z</time>
      </trkpt>
      <trkpt lat="43.29865" lon="2.39378">
        <ele>219.3</ele>
        <time>2019-06-02T06:40:05.000Z</time>
      </trkpt>
      <trkpt lat="43.29864" lon="2.39377">
        <ele>219.5</ele>
        <time>2019-06-02T06:40:06.000Z</time>
      </trkpt>
      <trkpt lat="43.29862" lon="2.39377">
        <ele>219.7</ele>
        <time>2019-06-02T06:40:07.000Z</time>
      </trkpt>
      <trkpt lat="43.29861" lon="2.39376">
        <ele>219.9</ele>
        <time>2019-06-02T06:40:08.000Z</time>
      </trkpt>
      <trkpt lat="43.2986" lon="2.39375">
        <ele>220.1</ele>
        <time>2019-06-02T06:40:09.000Z</time>
      </trkpt>
      <trkpt lat="43.29859" lon="2.39374">
        <ele>220.3</ele>
        <time>2019-06-02T06:40:10.000Z</time>
      </trkpt>
      <trkpt lat="43.29859" lon="2.39372">
        <ele>220.5</ele>
        <time>2019-06-02T06:40:11.000Z</time>
      </trkpt>
      <trkpt lat="43.29858" lon="2.39371">
        <ele>220.7</ele>
        <time>2019-06-02T06:40:12.000Z</time>
      </trkpt>
      <trkpt lat="43.29858" lon="2.39369">
        <ele>221</ele>
        <time>2019-06-02T06:40:13.000Z</time>
      </trkpt>
      <trkpt lat="43.29857" lon="2.39368">
        <ele>221.2</ele>
        <time>2019-06-02T06:40:14.000Z</time>
      </trkpt>
      <trkpt lat="43.29857" lon="2.39366">
        <ele>221.4</ele>
        <time>2019-06-02T06:40:15.000Z</time>
      </trkpt>
      <trkpt lat="43.29857" lon="2.39364">
        <ele>221.6</ele>
        <time>2019-06-02T06:40:16.000Z</time>
      </trkpt>
      <trkpt lat="43.29857" lon="2.39363">
        <ele>221.8</ele>
        <time>2019-06-02T06:40:17.000Z</time>
      </trkpt>
      <trkpt lat="43.29857" lon="2.39361">
        <ele>222</ele>
        <time>2019-06-02T06:40:18.000Z</time>
      </trkpt>
      <trkpt lat="43.29857" lon="2.39359">
        <ele>222.1</ele>
        <time>2019-06-02T06:40:19.000Z</time>
      </trkpt>
      <trkpt lat="43.29857" lon="2.39358">
        <ele>222.3</ele>
        <time>2019-06-02T06:40:20.000Z</time>
      </trkpt>
      <trkpt lat="43.29857" lon="2.39356">
        <ele>222.4</ele>
        <time>2019-06-02T06:40:21.000Z</time>
      </trkpt>
      <trkpt lat="43.29858" lon="2.39355">
        <ele>222.6</ele>
        <time>2019-06-02T06:40:22.000Z</time>
      </trkpt>
      <trkpt lat="43.29858" lon="2.39353">
        <ele>222.8</ele>
        <time>2019-06-02T06:40:23.000Z</time>
      </trkpt>
      <trkpt lat="43.29858" lon="2.39352">
        <ele>222.9</ele>
        <time>2019-06-02T06:40:24.000Z</time>
      </trkpt>
      <trkpt lat="43.29859" lon="2.3935">
        <ele>223.1</ele>
        <time>2019-06-02T06:40:25.000Z</time>
      </trkpt>
      <trkpt lat="43.29859" lon="2.39348">
        <ele>223.3</ele>
        <time>2019-06-02T06:40:26.000Z</time>
      </trkpt>
      <trkpt lat="43.2986" lon="2.39346">
        <ele>223.5</ele>
        <time>2019-06-02T06:40:27.000Z</time>
      </trkpt>
      <trkpt lat="43.2986" lon="2.39344">
        <ele>223.7</ele>
        <time>2019-06-02T06:40:28.000Z</time>
      </trkpt>
      <trkpt lat="43.29861" lon="2.39343">
        <ele>223.9</ele>
        <time>2019-06-02T06:40:29.000Z</time>
      </trkpt>
      <trkpt lat="43.29861" lon="2.39341">
        <ele>224.1</ele>
        <time>2019-06-02T06:40:30.000Z</time>
      </trkpt>
      <trkpt lat="43.29861" lon="2.3934">
        <ele>224.2</ele>
        <time>2019-06-02T06:40:31.000Z</time>
      </trkpt>
      <trkpt lat="43.29862" lon="2.39339">
        <ele>224.4</ele>
        <time>2019-06-02T06:40:32.000Z</time>
      </trkpt>
      <trkpt lat="43.29862" lon="2.39338">
        <ele>224.5</ele>
        <time>2019-06-02T06:40:33.000Z</time>
      </trkpt>
      <trkpt lat="43.29863" lon="2.39337">
        <ele>224.6</ele>
        <time>2019-06-02T06:40:34.000Z</time>
      </trkpt>
      <trkpt lat="43.29864" lon="2.39335">
        <ele>224.8</ele>
        <time>2019-06-02T06:40:35.000Z</time>
      </trkpt>
      <trkpt lat="43.29864" lon="2.39334">
        <ele>224.9</ele>
        <time>2019-06-02T06:40:36.000Z</time>
      </trkpt>
      <trkpt lat="43.29865" lon="2.39332">
        <ele>225.1</ele>
        <time>2019-06-02T06:40:37.000Z</time>
      </trkpt>
      <trkpt lat="43.29866" lon="2.39331">
        <ele>225.2</ele>
        <time>2019-06-02T06:40:38.000Z</time>
      </trkpt>
      <trkpt lat="43.29866" lon="2.3933">
        <ele>225.2</ele>
        <time>2019-06-02T06:40:39.000Z</time>
      </trkpt>
      <trkpt lat="43.29866" lon="2.39329">
        <ele>225.3</ele>
        <time>2019-06-02T06:40:40.000Z</time>
      </trkpt>
      <trkpt lat="43.29867" lon="2.39329">
        <ele>225.3</ele>
        <time>2019-06-02T06:40:41.000Z</time>
      </trkpt>
      <trkpt lat="43.29867" lon="2.39329">
        <ele>225.3</ele>
        <time>2019-06-02T06:40:42.000Z</time>
      </trkpt>
      <trkpt lat="43.29867" lon="2.39328">
        <ele>225.4</ele>
        <time>2019-06-02T06:40:43.000Z</time>
      </trkpt>
      <trkpt lat="43.29867" lon="2.39328">
        <ele>225.4</ele>
        <time>2019-06-02T06:40:44.000Z</time>
      </trkpt>
      <trkpt lat="43.29867" lon="2.39328">
        <ele>225.4</ele>
        <time>2019-06-02T06:40:45.000Z</time>
      </trkpt>
      <trkpt lat="43.29867" lon="2.39328">
        <ele>225.4</ele>
        <time>2019-06-02T06:40:46.000Z</time>
      </trkpt>
      <trkpt lat="43.29867" lon="2.39328">
        <ele>225.4</ele>
        <time>2019-06-02T06:40:47.000Z</time>
      </trkpt>
      <trkpt lat="43.29867" lon="2.39328">
        <ele>225.4</ele>
        <time>2019-06-02T06:40:48.000Z</time>
      </trkpt>
      <trkpt lat="43.29867" lon="2.39328">
        <ele>225.4</ele>
        <time>2019-06-02T06:40:49.000Z</time>
      </trkpt>
      <trkpt lat="43.29867" lon="2.39328">
        <ele>225.4</ele>
        <time>2019-06-02T06:40:50.000Z</time>
      </trkpt>
      <trkpt lat="43.29867" lon="2.39328">
        <ele>225.4</ele>
        <time>2019-06-02T06:40:51.000Z</time>
      </trkpt>
      <trkpt lat="43.29867" lon="2.39328">
        <ele>225.4</ele>
        <time>2019-06-02T06:40:52.000Z</time>
      </trkpt>
      <trkpt lat="43.29867" lon="2.39328">
        <ele>225.4</ele>
        <time>2019-06-02T06:40:53.000Z</time>
      </trkpt>
      <trkpt lat="43.29867" lon="2.39328">
        <ele>225.4</ele>
        <time>2019-06-02T06:40:54.000Z</time>
      </trkpt>
      <trkpt lat="43.29867" lon="2.39328">
        <ele>225.4</ele>
        <time>2019-06-02T06:40:55.000Z</time>
      </trkpt>
      <trkpt lat="43.29867" lon="2.39328">
        <ele>225.4</ele>
        <time>2019-06-02T06:40:56.000Z</time>
      </trkpt>
      <trkpt lat="43.29867" lon="2.39328">
        <ele>225.4</ele>
        <time>2019-06-02T06:40:57.000Z</time>
      </trkpt>
      <trkpt lat="43.29867" lon="2.39328">
        <ele>225.4</ele>
        <time>2019-06-02T06:40:58.000Z</time>
      </trkpt>
      <trkpt lat="43.29867" lon="2.39328">
        <ele>225.4</ele>
        <time>2019-06-02T06:40:59.000Z</time>
      </trkpt>
      <trkpt lat="43.29867" lon="2.39328">
        <ele>225.4</ele>
        <time>2019-06-02T06:41:00.000Z</time>
      </trkpt>
      <trkpt lat="43.29867" lon="2.39328">
        <ele>225.4</ele>
        <time>2019-06-02T06:41:01.000Z</time>
      </trkpt>
      <trkpt lat="43.29867" lon="2.39328">
        <ele>225.4</ele>
        <time>2019-06-02T06:41:02.000Z</time>
      </trkpt>
      <trkpt lat="43.29867" lon="2.39328">
        <ele>225.4</ele>
        <time>2019-06-02T06:41:03.000Z</time>
      </trkpt>
      <trkpt lat="43.29867" lon="2.39328">
        <ele>225.4</ele>
        <time>2019-06-02T06:41:04.000Z</time>
      </trkpt>
      <trkpt lat="43.29867" lon="2.39328">
        <ele>225.4</ele>
        <time>2019-06-02T06:41:05.000Z</time>
      </trkpt>
      <trkpt lat="43.29867" lon="2.39328">
        <ele>225.4</ele>
        <time>2019-06-02T06:41:06.000Z</time>
      </trkpt>
      <trkpt lat="43.29867" lon="2.39328">
        <ele>225.4</ele>
        <time>2019-06-02T06:41:07.000Z</time>
      </trkpt>
      <trkpt lat="43.29867" lon="2.39328">
        <ele>225.4</ele>
        <time>2019-06-02T06:41:08.000Z</time>
      </trkpt>
      <trkpt lat="43.29867" lon="2.39328">
        <ele>225.4</ele>
        <time>2019-06-02T06:41:09.000Z</time>
      </trkpt>
      <trkpt lat="43.29867" lon="2.39328">
        <ele>225.4</ele>
        <time>2019-06-02T06:41:10.000Z</time>
      </trkpt>
      <trkpt lat="43.29867" lon="2.39328">
        <ele>225.4</ele>
        <time>2019-06-02T06:41:11.000Z</time>
      </trkpt>
      <trkpt lat="43.29867" lon="2.39328">
        <ele>225.4</ele>
        <time>2019-06-02T06:41:12.000Z</time>
      </trkpt>
      <trkpt lat="43.29867" lon="2.39328">
        <ele>225.4</ele>
        <time>2019-06-02T06:41:13.000Z</time>
      </trkpt>
      <trkpt lat="43.29867" lon="2.39328">
        <ele>225.4</ele>
        <time>2019-06-02T06:41:14.000Z</time>
      </trkpt>
      <trkpt lat="43.29867" lon="2.39328">
        <ele>225.4</ele>
        <time>2019-06-02T06:41:15.000Z</time>
      </trkpt>
      <trkpt lat="43.29867" lon="2.39328">
        <ele>225.4</ele>
        <time>2019-06-02T06:41:16.000Z</time>
      </trkpt>
      <trkpt lat="43.29867" lon="2.39328">
        <ele>225.4</ele>
        <time>2019-06-02T06:41:17.000Z</time>
      </trkpt>
      <trkpt lat="43.29867" lon="2.39328">
        <ele>225.4</ele>
        <time>2019-06-02T06:41:18.000Z</time>
      </trkpt>
      <trkpt lat="43.29867" lon="2.39328">
        <ele>225.4</ele>
        <time>2019-06-02T06:41:19.000Z</time>
      </trkpt>
      <trkpt lat="43.29867" lon="2.39328">
        <ele>225.4</ele>
        <time>2019-06-02T06:41:20.000Z</time>
      </trkpt>
      <trkpt lat="43.29867" lon="2.39328">
        <ele>225.4</ele>
        <time>2019-06-02T06:41:21.000Z</time>
      </trkpt>
      <trkpt lat="43.29867" lon="2.39328">
        <ele>225.4</ele>
        <time>2019-06-02T06:41:22.000Z</time>
      </trkpt>
      <trkpt lat="43.29867" lon="2.39329">
        <ele>225.3</ele>
        <time>2019-06-02T06:41:23.000Z</time>
      </trkpt>
      <trkpt lat="43.29867" lon="2.39329">
        <ele>225.3</ele>
        <time>2019-06-02T06:41:24.000Z</time>
      </trkpt>
      <trkpt lat="43.29868" lon="2.39328">
        <ele>225.4</ele>
        <time>2019-06-02T06:41:25.000Z</time>
      </trkpt>
      <trkpt lat="43.29868" lon="2.39328">
        <ele>225.4</ele>
        <time>2019-06-02T06:41:26.000Z</time>
      </trkpt>
      <trkpt lat="43.29868" lon="2.39329">
        <ele>225.3</ele>
        <time>2019-06-02T06:41:27.000Z</time>
      </trkpt>
      <trkpt lat="43.29867" lon="2.39331">
        <ele>225.2</ele>
        <time>2019-06-02T06:41:28.000Z</time>
      </trkpt>
      <trkpt lat="43.29866" lon="2.39332">
        <ele>225.1</ele>
        <time>2019-06-02T06:41:29.000Z</time>
      </trkpt>
      <trkpt lat="43.29865" lon="2.39334">
        <ele>225</ele>
        <time>2019-06-02T06:41:30.000Z</time>
      </trkpt>
      <trkpt lat="43.29865" lon="2.39335">
        <ele>224.7</ele>
        <time>2019-06-02T06:41:31.000Z</time>
      </trkpt>
      <trkpt lat="43.29864" lon="2.39337">
        <ele>224.5</ele>
        <time>2019-06-02T06:41:32.000Z</time>
      </trkpt>
      <trkpt lat="43.29863" lon="2.39339">
        <ele>224.3</ele>
        <time>2019-06-02T06:41:33.000Z</time>
      </trkpt>
      <trkpt lat="43.29863" lon="2.39341">
        <ele>224.1</ele>
        <time>2019-06-02T06:41:34.000Z</time>
      </trkpt>
      <trkpt lat="43.29862" lon="2.39343">
        <ele>223.9</ele>
        <time>2019-06-02T06:41:35.000Z</time>
      </trkpt>
      <trkpt lat="43.29862" lon="2.39344">
        <ele>223.7</ele>
        <time>2019-06-02T06:41:36.000Z</time>
      </trkpt>
      <trkpt lat="43.29861" lon="2.39346">
        <ele>223.5</ele>
        <time>2019-06-02T06:41:37.000Z</time>
      </trkpt>
      <trkpt lat="43.29861" lon="2.39347">
        <ele>223.3</ele>
        <time>2019-06-02T06:41:38.000Z</time>
      </trkpt>
      <trkpt lat="43.29861" lon="2.39349">
        <ele>223.1</ele>
        <time>2019-06-02T06:41:39.000Z</time>
      </trkpt>
      <trkpt lat="43.29861" lon="2.3935">
        <ele>223</ele>
        <time>2019-06-02T06:41:40.000Z</time>
      </trkpt>
      <trkpt lat="43.2986" lon="2.39351">
        <ele>222.9</ele>
        <time>2019-06-02T06:41:41.000Z</time>
      </trkpt>
      <trkpt lat="43.2986" lon="2.39353">
        <ele>222.7</ele>
        <time>2019-06-02T06:41:42.000Z</time>
      </trkpt>
      <trkpt lat="43.2986" lon="2.39353">
        <ele>222.7</ele>
        <time>2019-06-02T06:41:43.000Z</time>
      </trkpt>
      <trkpt lat="43.2986" lon="2.39354">
        <ele>222.6</ele>
        <time>2019-06-02T06:41:44.000Z</time>
      </trkpt>
      <trkpt lat="43.2986" lon="2.39354">
        <ele>222.5</ele>
        <time>2019-06-02T06:41:45.000Z</time>
      </trkpt>
      <trkpt lat="43.2986" lon="2.39355">
        <ele>222.5</ele>
        <time>2019-06-02T06:41:46.000Z</time>
      </trkpt>
      <trkpt lat="43.2986" lon="2.39355">
        <ele>222.5</ele>
        <time>2019-06-02T06:41:47.000Z</time>
      </trkpt>
      <trkpt lat="43.2986" lon="2.39355">
        <ele>222.5</ele>
        <time>2019-06-02T06:41:48.000Z</time>
      </trkpt>
      <trkpt lat="43.2986" lon="2.39355">
        <ele>222.5</ele>
        <time>2019-06-02T06:41:49.000Z</time>
      </trkpt>
      <trkpt lat="43.2986" lon="2.39355">
        <ele>222.5</ele>
        <time>2019-06-02T06:41:50.000Z</time>
      </trkpt>
      <trkpt lat="43.2986" lon="2.39355">
        <ele>222.5</ele>
        <time>2019-06-02T06:41:51.000Z</time>
      </trkpt>
      <trkpt lat="43.2986" lon="2.39355">
        <ele>222.5</ele>
        <time>2019-06-02T06:41:52.000Z</time>
      </trkpt>
      <trkpt lat="43.2986" lon="2.39355">
        <ele>222.5</ele>
        <time>2019-06-02T06:41:53.000Z</time>
      </trkpt>
      <trkpt lat="43.2986" lon="2.39355">
        <ele>222.5</ele>
        <time>2019-06-02T06:41:54.000Z</time>
      </trkpt>
      <trkpt lat="43.2986" lon="2.39355">
        <ele>222.5</ele>
        <time>2019-06-02T06:41:55.000Z</time>
      </trkpt>
      <trkpt lat="43.2986" lon="2.39355">
        <ele>222.5</ele>
        <time>2019-06-02T06:41:56.000Z</time>
      </trkpt>
      <trkpt lat="43.2986" lon="2.39355">
        <ele>222.5</ele>
        <time>2019-06-02T06:41:57.000Z</time>
      </trkpt>
      <trkpt lat="43.2986" lon="2.39355">
        <ele>222.5</ele>
        <time>2019-06-02T06:41:58.000Z</time>
      </trkpt>
      <trkpt lat="43.2986" lon="2.39355">
        <ele>222.5</ele>
        <time>2019-06-02T06:41:59.000Z</time>
      </trkpt>
      <trkpt lat="43.2986" lon="2.39355">
        <ele>222.5</ele>
        <time>2019-06-02T06:42:00.000Z</time>
      </trkpt>
      <trkpt lat="43.2986" lon="2.39355">
        <ele>222.5</ele>
        <time>2019-06-02T06:42:01.000Z</time>
      </trkpt>
      <trkpt lat="43.2986" lon="2.39355">
        <ele>222.5</ele>
        <time>2019-06-02T06:42:02.000Z</time>
      </trkpt>
      <trkpt lat="43.2986" lon="2.39355">
        <ele>222.5</ele>
        <time>2019-06-02T06:42:03.000Z</time>
      </trkpt>
      <trkpt lat="43.29861" lon="2.39357">
        <ele>222.2</ele>
        <time>2019-06-02T06:42:04.000Z</time>
      </trkpt>
      <trkpt lat="43.29862" lon="2.39356">
        <ele>222.2</ele>
        <time>2019-06-02T06:42:05.000Z</time>
      </trkpt>
      <trkpt lat="43.29863" lon="2.39354">
        <ele>222.4</ele>
        <time>2019-06-02T06:42:06.000Z</time>
      </trkpt>
      <trkpt lat="43.29864" lon="2.39352">
        <ele>222.7</ele>
        <time>2019-06-02T06:42:07.000Z</time>
      </trkpt>
      <trkpt lat="43.29864" lon="2.39349">
        <ele>223</ele>
        <time>2019-06-02T06:42:08.000Z</time>
      </trkpt>
      <trkpt lat="43.29864" lon="2.39346">
        <ele>223.4</ele>
        <time>2019-06-02T06:42:09.000Z</time>
      </trkpt>
      <trkpt lat="43.29865" lon="2.39342">
        <ele>223.9</ele>
        <time>2019-06-02T06:42:10.000Z</time>
      </trkpt>
      <trkpt lat="43.29865" lon="2.39339">
        <ele>224.3</ele>
        <time>2019-06-02T06:42:11.000Z</time>
      </trkpt>
      <trkpt lat="43.29866" lon="2.39336">
        <ele>224.7</ele>
        <time>2019-06-02T06:42:12.000Z</time>
      </trkpt>
      <trkpt lat="43.29866" lon="2.39332">
        <ele>225.1</ele>
        <time>2019-06-02T06:42:13.000Z</time>
      </trkpt>
      <trkpt lat="43.29867" lon="2.3933">
        <ele>225.3</ele>
        <time>2019-06-02T06:42:14.000Z</time>
      </trkpt>
      <trkpt lat="43.29868" lon="2.39327">
        <ele>225.5</ele>
        <time>2019-06-02T06:42:15.000Z</time>
      </trkpt>
      <trkpt lat="43.29868" lon="2.39324">
        <ele>225.7</ele>
        <time>2019-06-02T06:42:16.000Z</time>
      </trkpt>
      <trkpt lat="43.29869" lon="2.39322">
        <ele>225.9</ele>
        <time>2019-06-02T06:42:17.000Z</time>
      </trkpt>
      <trkpt lat="43.2987" lon="2.39319">
        <ele>226</ele>
        <time>2019-06-02T06:42:18.000Z</time>
      </trkpt>
      <trkpt lat="43.29871" lon="2.39317">
        <ele>226.2</ele>
        <time>2019-06-02T06:42:19.000Z</time>
      </trkpt>
      <trkpt lat="43.29871" lon="2.39314">
        <ele>226.5</ele>
        <time>2019-06-02T06:42:20.000Z</time>
      </trkpt>
      <trkpt lat="43.29872" lon="2.39311">
        <ele>226.7</ele>
        <time>2019-06-02T06:42:21.000Z</time>
      </trkpt>
      <trkpt lat="43.29872" lon="2.39309">
        <ele>226.9</ele>
        <time>2019-06-02T06:42:22.000Z</time>
      </trkpt>
      <trkpt lat="43.29873" lon="2.39306">
        <ele>227.1</ele>
        <time>2019-06-02T06:42:23.000Z</time>
      </trkpt>
      <trkpt lat="43.29873" lon="2.39303">
        <ele>227.3</ele>
        <time>2019-06-02T06:42:24.000Z</time>
      </trkpt>
      <trkpt lat="43.29874" lon="2.393">
        <ele>227.6</ele>
        <time>2019-06-02T06:42:25.000Z</time>
      </trkpt>
      <trkpt lat="43.29874" lon="2.39297">
        <ele>227.8</ele>
        <time>2019-06-02T06:42:26.000Z</time>
      </trkpt>
      <trkpt lat="43.29875" lon="2.39294">
        <ele>228</ele>
        <time>2019-06-02T06:42:27.000Z</time>
      </trkpt>
      <trkpt lat="43.29875" lon="2.39292">
        <ele>228.3</ele>
        <time>2019-06-02T06:42:28.000Z</time>
      </trkpt>
      <trkpt lat="43.29876" lon="2.39289">
        <ele>228.5</ele>
        <time>2019-06-02T06:42:29.000Z</time>
      </trkpt>
      <trkpt lat="43.29876" lon="2.39286">
        <ele>228.8</ele>
        <time>2019-06-02T06:42:30.000Z</time>
      </trkpt>
      <trkpt lat="43.29877" lon="2.39283">
        <ele>229</ele>
        <time>2019-06-02T06:42:31.000Z</time>
      </trkpt>
      <trkpt lat="43.29877" lon="2.3928">
        <ele>229.3</ele>
        <time>2019-06-02T06:42:32.000Z</time>
      </trkpt>
      <trkpt lat="43.29878" lon="2.39277">
        <ele>229.5</ele>
        <time>2019-06-02T06:42:33.000Z</time>
      </trkpt>
      <trkpt lat="43.29878" lon="2.39274">
        <ele>229.8</ele>
        <time>2019-06-02T06:42:34.000Z</time>
      </trkpt>
      <trkpt lat="43.29879" lon="2.39271">
        <ele>230</ele>
        <time>2019-06-02T06:42:35.000Z</time>
      </trkpt>
      <trkpt lat="43.29879" lon="2.39268">
        <ele>230.3</ele>
        <time>2019-06-02T06:42:36.000Z</time>
      </trkpt>
      <trkpt lat="43.29879" lon="2.39265">
        <ele>230.5</ele>
        <time>2019-06-02T06:42:37.000Z</time>
      </trkpt>
      <trkpt lat="43.2988" lon="2.39262">
        <ele>230.8</ele>
        <time>2019-06-02T06:42:38.000Z</time>
      </trkpt>
      <trkpt lat="43.2988" lon="2.39259">
        <ele>231</ele>
        <time>2019-06-02T06:42:39.000Z</time>
      </trkpt>
      <trkpt lat="43.29879" lon="2.39256">
        <ele>231.3</ele>
        <time>2019-06-02T06:42:40.000Z</time>
      </trkpt>
      <trkpt lat="43.29879" lon="2.39253">
        <ele>231.5</ele>
        <time>2019-06-02T06:42:41.000Z</time>
      </trkpt>
      <trkpt lat="43.29879" lon="2.3925">
        <ele>231.7</ele>
        <time>2019-06-02T06:42:42.000Z</time>
      </trkpt>
      <trkpt lat="43.29878" lon="2.39247">
        <ele>231.8</ele>
        <time>2019-06-02T06:42:43.000Z</time>
      </trkpt>
      <trkpt lat="43.29877" lon="2.39244">
        <ele>231.9</ele>
        <time>2019-06-02T06:42:44.000Z</time>
      </trkpt>
      <trkpt lat="43.29876" lon="2.39241">
        <ele>232</ele>
        <time>2019-06-02T06:42:45.000Z</time>
      </trkpt>
      <trkpt lat="43.29875" lon="2.39238">
        <ele>232</ele>
        <time>2019-06-02T06:42:46.000Z</time>
      </trkpt>
      <trkpt lat="43.29874" lon="2.39235">
        <ele>232.1</ele>
        <time>2019-06-02T06:42:47.000Z</time>
      </trkpt>
      <trkpt lat="43.29873" lon="2.39232">
        <ele>232.1</ele>
        <time>2019-06-02T06:42:48.000Z</time>
      </trkpt>
      <trkpt lat="43.29872" lon="2.39229">
        <ele>232.2</ele>
        <time>2019-06-02T06:42:49.000Z</time>
      </trkpt>
      <trkpt lat="43.2987" lon="2.39226">
        <ele>232.2</ele>
        <time>2019-06-02T06:42:50.000Z</time>
      </trkpt>
      <trkpt lat="43.29869" lon="2.39223">
        <ele>232.3</ele>
        <time>2019-06-02T06:42:51.000Z</time>
      </trkpt>
      <trkpt lat="43.29867" lon="2.39221">
        <ele>232.3</ele>
        <time>2019-06-02T06:42:52.000Z</time>
      </trkpt>
      <trkpt lat="43.29865" lon="2.39218">
        <ele>232.3</ele>
        <time>2019-06-02T06:42:53.000Z</time>
      </trkpt>
      <trkpt lat="43.29864" lon="2.39216">
        <ele>232.3</ele>
        <time>2019-06-02T06:42:54.000Z</time>
      </trkpt>
      <trkpt lat="43.29862" lon="2.39213">
        <ele>232.3</ele>
        <time>2019-06-02T06:42:55.000Z</time>
      </trkpt>
      <trkpt lat="43.2986" lon="2.39211">
        <ele>232.3</ele>
        <time>2019-06-02T06:42:56.000Z</time>
      </trkpt>
      <trkpt lat="43.29858" lon="2.39209">
        <ele>232.3</ele>
        <time>2019-06-02T06:42:57.000Z</time>
      </trkpt>
      <trkpt lat="43.29857" lon="2.39207">
        <ele>232.3</ele>
        <time>2019-06-02T06:42:58.000Z</time>
      </trkpt>
      <trkpt lat="43.29855" lon="2.39205">
        <ele>232.3</ele>
        <time>2019-06-02T06:42:59.000Z</time>
      </trkpt>
      <trkpt lat="43.29853" lon="2.39203">
        <ele>232.3</ele>
        <time>2019-06-02T06:43:00.000Z</time>
      </trkpt>
      <trkpt lat="43.29851" lon="2.39201">
        <ele>232.3</ele>
        <time>2019-06-02T06:43:01.000Z</time>
      </trkpt>
      <trkpt lat="43.29849" lon="2.392">
        <ele>232.2</ele>
        <time>2019-06-02T06:43:02.000Z</time>
      </trkpt>
      <trkpt lat="43.29847" lon="2.39199">
        <ele>232.2</ele>
        <time>2019-06-02T06:43:03.000Z</time>
      </trkpt>
      <trkpt lat="43.29846" lon="2.39198">
        <ele>232.2</ele>
        <time>2019-06-02T06:43:04.000Z</time>
      </trkpt>
      <trkpt lat="43.29844" lon="2.39197">
        <ele>232.1</ele>
        <time>2019-06-02T06:43:05.000Z</time>
      </trkpt>
      <trkpt lat="43.29842" lon="2.39196">
        <ele>232</ele>
        <time>2019-06-02T06:43:06.000Z</time>
      </trkpt>
      <trkpt lat="43.2984" lon="2.39195">
        <ele>232</ele>
        <time>2019-06-02T06:43:07.000Z</time>
      </trkpt>
      <trkpt lat="43.29838" lon="2.39195">
        <ele>231.9</ele>
        <time>2019-06-02T06:43:08.000Z</time>
      </trkpt>
      <trkpt lat="43.29836" lon="2.39195">
        <ele>231.8</ele>
        <time>2019-06-02T06:43:09.000Z</time>
      </trkpt>
      <trkpt lat="43.29834" lon="2.39195">
        <ele>231.7</ele>
        <time>2019-06-02T06:43:10.000Z</time>
      </trkpt>
      <trkpt lat="43.29832" lon="2.39195">
        <ele>231.7</ele>
        <time>2019-06-02T06:43:11.000Z</time>
      </trkpt>
      <trkpt lat="43.2983" lon="2.39196">
        <ele>231.7</ele>
        <time>2019-06-02T06:43:12.000Z</time>
      </trkpt>
      <trkpt lat="43.29828" lon="2.39197">
        <ele>231.8</ele>
        <time>2019-06-02T06:43:13.000Z</time>
      </trkpt>
      <trkpt lat="43.29826" lon="2.39197">
        <ele>231.9</ele>
        <time>2019-06-02T06:43:14.000Z</time>
      </trkpt>
      <trkpt lat="43.29824" lon="2.39198">
        <ele>231.9</ele>
        <time>2019-06-02T06:43:15.000Z</time>
      </trkpt>
      <trkpt lat="43.29822" lon="2.39198">
        <ele>232</ele>
        <time>2019-06-02T06:43:16.000Z</time>
      </trkpt>
      <trkpt lat="43.2982" lon="2.39199">
        <ele>232</ele>
        <time>2019-06-02T06:43:17.000Z</time>
      </trkpt>
      <trkpt lat="43.29819" lon="2.39199">
        <ele>232.1</ele>
        <time>2019-06-02T06:43:18.000Z</time>
      </trkpt>
      <trkpt lat="43.29817" lon="2.39199">
        <ele>232.1</ele>
        <time>2019-06-02T06:43:19.000Z</time>
      </trkpt>
      <trkpt lat="43.29816" lon="2.39199">
        <ele>232.2</ele>
        <time>2019-06-02T06:43:20.000Z</time>
      </trkpt>
      <trkpt lat="43.29815" lon="2.39199">
        <ele>232.2</ele>
        <time>2019-06-02T06:43:21.000Z</time>
      </trkpt>
      <trkpt lat="43.29814" lon="2.39199">
        <ele>232.3</ele>
        <time>2019-06-02T06:43:22.000Z</time>
      </trkpt>
      <trkpt lat="43.29813" lon="2.39199">
        <ele>232.3</ele>
        <time>2019-06-02T06:43:23.000Z</time>
      </trkpt>
      <trkpt lat="43.29813" lon="2.39199">
        <ele>232.3</ele>
        <time>2019-06-02T06:43:24.000Z</time>
      </trkpt>
      <trkpt lat="43.29812" lon="2.39199">
        <ele>232.3</ele>
        <time>2019-06-02T06:43:25.000Z</time>
      </trkpt>
      <trkpt lat="43.29812" lon="2.392">
        <ele>232.3</ele>
        <time>2019-06-02T06:43:26.000Z</time>
      </trkpt>
      <trkpt lat="43.29812" lon="2.392">
        <ele>232.3</ele>
        <time>2019-06-02T06:43:27.000Z</time>
      </trkpt>
      <trkpt lat="43.29811" lon="2.39201">
        <ele>232.4</ele>
        <time>2019-06-02T06:43:28.000Z</time>
      </trkpt>
      <trkpt lat="43.29809" lon="2.39202">
        <ele>232.4</ele>
        <time>2019-06-02T06:43:29.000Z</time>
      </trkpt>
      <trkpt lat="43.29807" lon="2.39203">
        <ele>232.4</ele>
        <time>2019-06-02T06:43:30.000Z</time>
      </trkpt>
      <trkpt lat="43.29806" lon="2.39204">
        <ele>232.4</ele>
        <time>2019-06-02T06:43:31.000Z</time>
      </trkpt>
      <trkpt lat="43.29805" lon="2.39205">
        <ele>232.5</ele>
        <time>2019-06-02T06:43:32.000Z</time>
      </trkpt>
      <trkpt lat="43.29805" lon="2.39205">
        <ele>232.5</ele>
        <time>2019-06-02T06:43:33.000Z</time>
      </trkpt>
      <trkpt lat="43.29805" lon="2.39205">
        <ele>232.5</ele>
        <time>2019-06-02T06:43:34.000Z</time>
      </trkpt>
      <trkpt lat="43.29805" lon="2.39205">
        <ele>232.5</ele>
        <time>2019-06-02T06:43:35.000Z</time>
      </trkpt>
      <trkpt lat="43.29805" lon="2.39205">
        <ele>232.5</ele>
        <time>2019-06-02T06:43:36.000Z</time>
      </trkpt>
      <trkpt lat="43.29805" lon="2.39205">
        <ele>232.5</ele>
        <time>2019-06-02T06:43:37.000Z</time>
      </trkpt>
      <trkpt lat="43.29805" lon="2.39205">
        <ele>232.5</ele>
        <time>2019-06-02T06:43:38.000Z</time>
      </trkpt>
      <trkpt lat="43.29805" lon="2.39205">
        <ele>232.5</ele>
        <time>2019-06-02T06:43:39.000Z</time>
      </trkpt>
      <trkpt lat="43.29805" lon="2.39205">
        <ele>232.5</ele>
        <time>2019-06-02T06:43:40.000Z</time>
      </trkpt>
      <trkpt lat="43.29805" lon="2.39205">
        <ele>232.5</ele>
        <time>2019-06-02T06:43:41.000Z</time>
      </trkpt>
      <trkpt lat="43.29805" lon="2.39205">
        <ele>232.5</ele>
        <time>2019-06-02T06:43:42.000Z</time>
      </trkpt>
      <trkpt lat="43.29805" lon="2.39205">
        <ele>232.5</ele>
        <time>2019-06-02T06:43:43.000Z</time>
      </trkpt>
      <trkpt lat="43.29805" lon="2.39205">
        <ele>232.5</ele>
        <time>2019-06-02T06:43:44.000Z</time>
      </trkpt>
      <trkpt lat="43.29805" lon="2.39205">
        <ele>232.5</ele>
        <time>2019-06-02T06:43:45.000Z</time>
      </trkpt>
      <trkpt lat="43.29805" lon="2.39205">
        <ele>232.5</ele>
        <time>2019-06-02T06:43:46.000Z</time>
      </trkpt>
      <trkpt lat="43.29805" lon="2.39205">
        <ele>232.5</ele>
        <time>2019-06-02T06:43:47.000Z</time>
      </trkpt>
      <trkpt lat="43.29805" lon="2.39205">
        <ele>232.5</ele>
        <time>2019-06-02T06:43:48.000Z</time>
      </trkpt>
      <trkpt lat="43.29805" lon="2.39205">
        <ele>232.5</ele>
        <time>2019-06-02T06:43:49.000Z</time>
      </trkpt>
      <trkpt lat="43.29805" lon="2.39205">
        <ele>232.5</ele>
        <time>2019-06-02T06:43:50.000Z</time>
      </trkpt>
      <trkpt lat="43.29805" lon="2.39205">
        <ele>232.5</ele>
        <time>2019-06-02T06:43:51.000Z</time>
      </trkpt>
      <trkpt lat="43.29805" lon="2.39205">
        <ele>232.5</ele>
        <time>2019-06-02T06:43:52.000Z</time>
      </trkpt>
      <trkpt lat="43.29805" lon="2.39205">
        <ele>232.5</ele>
        <time>2019-06-02T06:43:53.000Z</time>
      </trkpt>
      <trkpt lat="43.29805" lon="2.39205">
        <ele>232.5</ele>
        <time>2019-06-02T06:43:54.000Z</time>
      </trkpt>
      <trkpt lat="43.29805" lon="2.39205">
        <ele>232.5</ele>
        <time>2019-06-02T06:43:55.000Z</time>
      </trkpt>
      <trkpt lat="43.29805" lon="2.39205">
        <ele>232.5</ele>
        <time>2019-06-02T06:43:56.000Z</time>
      </trkpt>
      <trkpt lat="43.29805" lon="2.39205">
        <ele>232.5</ele>
        <time>2019-06-02T06:43:57.000Z</time>
      </trkpt>
      <trkpt lat="43.29805" lon="2.39205">
        <ele>232.5</ele>
        <time>2019-06-02T06:43:58.000Z</time>
      </trkpt>
      <trkpt lat="43.29805" lon="2.39205">
        <ele>232.5</ele>
        <time>2019-06-02T06:43:59.000Z</time>
      </trkpt>
      <trkpt lat="43.29805" lon="2.39205">
        <ele>232.5</ele>
        <time>2019-06-02T06:44:00.000Z</time>
      </trkpt>
      <trkpt lat="43.29805" lon="2.39205">
        <ele>232.5</ele>
        <time>2019-06-02T06:44:01.000Z</time>
      </trkpt>
      <trkpt lat="43.29805" lon="2.39205">
        <ele>232.5</ele>
        <time>2019-06-02T06:44:02.000Z</time>
      </trkpt>
      <trkpt lat="43.29805" lon="2.39205">
        <ele>232.5</ele>
        <time>2019-06-02T06:44:03.000Z</time>
      </trkpt>
      <trkpt lat="43.29805" lon="2.39205">
        <ele>232.5</ele>
        <time>2019-06-02T06:44:04.000Z</time>
      </trkpt>
      <trkpt lat="43.29805" lon="2.39205">
        <ele>232.5</ele>
        <time>2019-06-02T06:44:05.000Z</time>
      </trkpt>
      <trkpt lat="43.29805" lon="2.39205">
        <ele>232.5</ele>
        <time>2019-06-02T06:44:06.000Z</time>
      </trkpt>
      <trkpt lat="43.29805" lon="2.39205">
        <ele>232.5</ele>
        <time>2019-06-02T06:44:07.000Z</time>
      </trkpt>
      <trkpt lat="43.29805" lon="2.39205">
        <ele>232.5</ele>
        <time>2019-06-02T06:44:08.000Z</time>
      </trkpt>
      <trkpt lat="43.29805" lon="2.39205">
        <ele>232.5</ele>
        <time>2019-06-02T06:44:09.000Z</time>
      </trkpt>
      <trkpt lat="43.29805" lon="2.39205">
        <ele>232.5</ele>
        <time>2019-06-02T06:44:10.000Z</time>
      </trkpt>
      <trkpt lat="43.29805" lon="2.39205">
        <ele>232.5</ele>
        <time>2019-06-02T06:44:11.000Z</time>
      </trkpt>
      <trkpt lat="43.29805" lon="2.39205">
        <ele>232.5</ele>
        <time>2019-06-02T06:44:12.000Z</time>
      </trkpt>
      <trkpt lat="43.29804" lon="2.39206">
        <ele>232.5</ele>
        <time>2019-06-02T06:44:13.000Z</time>
      </trkpt>
      <trkpt lat="43.29804" lon="2.39206">
        <ele>232.5</ele>
        <time>2019-06-02T06:44:14.000Z</time>
      </trkpt>
      <trkpt lat="43.29804" lon="2.39206">
        <ele>232.5</ele>
        <time>2019-06-02T06:44:15.000Z</time>
      </trkpt>
      <trkpt lat="43.29804" lon="2.39206">
        <ele>232.5</ele>
        <time>2019-06-02T06:44:16.000Z</time>
      </trkpt>
      <trkpt lat="43.29803" lon="2.39207">
        <ele>232.5</ele>
        <time>2019-06-02T06:44:17.000Z</time>
      </trkpt>
      <trkpt lat="43.29796" lon="2.39212">
        <ele>232.7</ele>
        <time>2019-06-02T06:44:18.000Z</time>
      </trkpt>
      <trkpt lat="43.29794" lon="2.39213">
        <ele>232.8</ele>
        <time>2019-06-02T06:44:19.000Z</time>
      </trkpt>
      <trkpt lat="43.29794" lon="2.39213">
        <ele>232.8</ele>
        <time>2019-06-02T06:44:20.000Z</time>
      </trkpt>
      <trkpt lat="43.29794" lon="2.39213">
        <ele>232.8</ele>
        <time>2019-06-02T06:44:21.000Z</time>
      </trkpt>
      <trkpt lat="43.29794" lon="2.39213">
        <ele>232.8</ele>
        <time>2019-06-02T06:44:22.000Z</time>
      </trkpt>
      <trkpt lat="43.29794" lon="2.39213">
        <ele>232.8</ele>
        <time>2019-06-02T06:44:23.000Z</time>
      </trkpt>
      <trkpt lat="43.29794" lon="2.39213">
        <ele>232.8</ele>
        <time>2019-06-02T06:44:24.000Z</time>
      </trkpt>
      <trkpt lat="43.29794" lon="2.39213">
        <ele>232.8</ele>
        <time>2019-06-02T06:44:25.000Z</time>
      </trkpt>
      <trkpt lat="43.29794" lon="2.39213">
        <ele>232.8</ele>
        <time>2019-06-02T06:44:26.000Z</time>
      </trkpt>
      <trkpt lat="43.29794" lon="2.39213">
        <ele>232.8</ele>
        <time>2019-06-02T06:44:27.000Z</time>
      </trkpt>
      <trkpt lat="43.29794" lon="2.39213">
        <ele>232.8</ele>
        <time>2019-06-02T06:44:28.000Z</time>
      </trkpt>
      <trkpt lat="43.29794" lon="2.39213">
        <ele>232.8</ele>
        <time>2019-06-02T06:44:29.000Z</time>
      </trkpt>
      <trkpt lat="43.29794" lon="2.39213">
        <ele>232.8</ele>
        <time>2019-06-02T06:44:30.000Z</time>
      </trkpt>
      <trkpt lat="43.29794" lon="2.39213">
        <ele>232.8</ele>
        <time>2019-06-02T06:44:31.000Z</time>
      </trkpt>
      <trkpt lat="43.29794" lon="2.39213">
        <ele>232.8</ele>
        <time>2019-06-02T06:44:32.000Z</time>
      </trkpt>
      <trkpt lat="43.29794" lon="2.39213">
        <ele>232.8</ele>
        <time>2019-06-02T06:44:33.000Z</time>
      </trkpt>
      <trkpt lat="43.29794" lon="2.39213">
        <ele>232.8</ele>
        <time>2019-06-02T06:44:34.000Z</time>
      </trkpt>
      <trkpt lat="43.29794" lon="2.39213">
        <ele>232.8</ele>
        <time>2019-06-02T06:44:35.000Z</time>
      </trkpt>
      <trkpt lat="43.29794" lon="2.39213">
        <ele>232.8</ele>
        <time>2019-06-02T06:44:36.000Z</time>
      </trkpt>
      <trkpt lat="43.29794" lon="2.39213">
        <ele>232.8</ele>
        <time>2019-06-02T06:44:37.000Z</time>
      </trkpt>
      <trkpt lat="43.29794" lon="2.39213">
        <ele>232.8</ele>
        <time>2019-06-02T06:44:38.000Z</time>
      </trkpt>
      <trkpt lat="43.29794" lon="2.39213">
        <ele>232.8</ele>
        <time>2019-06-02T06:44:39.000Z</time>
      </trkpt>
      <trkpt lat="43.29794" lon="2.39213">
        <ele>232.8</ele>
        <time>2019-06-02T06:44:40.000Z</time>
      </trkpt>
      <trkpt lat="43.29794" lon="2.39213">
        <ele>232.8</ele>
        <time>2019-06-02T06:44:41.000Z</time>
      </trkpt>
      <trkpt lat="43.29794" lon="2.39213">
        <ele>232.8</ele>
        <time>2019-06-02T06:44:42.000Z</time>
      </trkpt>
      <trkpt lat="43.29794" lon="2.39213">
        <ele>232.8</ele>
        <time>2019-06-02T06:44:43.000Z</time>
      </trkpt>
      <trkpt lat="43.29794" lon="2.39213">
        <ele>232.8</ele>
        <time>2019-06-02T06:44:44.000Z</time>
      </trkpt>
      <trkpt lat="43.29794" lon="2.39214">
        <ele>232.8</ele>
        <time>2019-06-02T06:44:45.000Z</time>
      </trkpt>
      <trkpt lat="43.29793" lon="2.39216">
        <ele>232.8</ele>
        <time>2019-06-02T06:44:46.000Z</time>
      </trkpt>
      <trkpt lat="43.29791" lon="2.39218">
        <ele>232.8</ele>
        <time>2019-06-02T06:44:47.000Z</time>
      </trkpt>
      <trkpt lat="43.2979" lon="2.3922">
        <ele>232.8</ele>
        <time>2019-06-02T06:44:48.000Z</time>
      </trkpt>
      <trkpt lat="43.29788" lon="2.39223">
        <ele>232.9</ele>
        <time>2019-06-02T06:44:49.000Z</time>
      </trkpt>
      <trkpt lat="43.29787" lon="2.39225">
        <ele>232.9</ele>
        <time>2019-06-02T06:44:50.000Z</time>
      </trkpt>
      <trkpt lat="43.29785" lon="2.39227">
        <ele>232.9</ele>
        <time>2019-06-02T06:44:51.000Z</time>
      </trkpt>
      <trkpt lat="43.29783" lon="2.39229">
        <ele>233</ele>
        <time>2019-06-02T06:44:52.000Z</time>
      </trkpt>
      <trkpt lat="43.29781" lon="2.39232">
        <ele>233.1</ele>
        <time>2019-06-02T06:44:53.000Z</time>
      </trkpt>
      <trkpt lat="43.29779" lon="2.39235">
        <ele>233.2</ele>
        <time>2019-06-02T06:44:54.000Z</time>
      </trkpt>
      <trkpt lat="43.29776" lon="2.39237">
        <ele>233.3</ele>
        <time>2019-06-02T06:44:55.000Z</time>
      </trkpt>
      <trkpt lat="43.29774" lon="2.3924">
        <ele>233.4</ele>
        <time>2019-06-02T06:44:56.000Z</time>
      </trkpt>
      <trkpt lat="43.29772" lon="2.39244">
        <ele>233.5</ele>
        <time>2019-06-02T06:44:57.000Z</time>
      </trkpt>
      <trkpt lat="43.29769" lon="2.39247">
        <ele>233.6</ele>
        <time>2019-06-02T06:44:58.000Z</time>
      </trkpt>
      <trkpt lat="43.29767" lon="2.3925">
        <ele>233.7</ele>
        <time>2019-06-02T06:44:59.000Z</time>
      </trkpt>
      <trkpt lat="43.29766" lon="2.39253">
        <ele>233.6</ele>
        <time>2019-06-02T06:45:00.000Z</time>
      </trkpt>
      <trkpt lat="43.29764" lon="2.39256">
        <ele>233.5</ele>
        <time>2019-06-02T06:45:01.000Z</time>
      </trkpt>
      <trkpt lat="43.29762" lon="2.3926">
        <ele>233.3</ele>
        <time>2019-06-02T06:45:02.000Z</time>
      </trkpt>
      <trkpt lat="43.29761" lon="2.39263">
        <ele>233.2</ele>
        <time>2019-06-02T06:45:03.000Z</time>
      </trkpt>
      <trkpt lat="43.2976" lon="2.39266">
        <ele>233</ele>
        <time>2019-06-02T06:45:04.000Z</time>
      </trkpt>
      <trkpt lat="43.29758" lon="2.3927">
        <ele>232.8</ele>
        <time>2019-06-02T06:45:05.000Z</time>
      </trkpt>
      <trkpt lat="43.29757" lon="2.39273">
        <ele>232.7</ele>
        <time>2019-06-02T06:45:06.000Z</time>
      </trkpt>
      <trkpt lat="43.29755" lon="2.39277">
        <ele>232.5</ele>
        <time>2019-06-02T06:45:07.000Z</time>
      </trkpt>
      <trkpt lat="43.29754" lon="2.3928">
        <ele>232.3</ele>
        <time>2019-06-02T06:45:08.000Z</time>
      </trkpt>
      <trkpt lat="43.29752" lon="2.39284">
        <ele>232.1</ele>
        <time>2019-06-02T06:45:09.000Z</time>
      </trkpt>
      <trkpt lat="43.2975" lon="2.39287">
        <ele>231.9</ele>
        <time>2019-06-02T06:45:10.000Z</time>
      </trkpt>
      <trkpt lat="43.29749" lon="2.39291">
        <ele>231.6</ele>
        <time>2019-06-02T06:45:11.000Z</time>
      </trkpt>
      <trkpt lat="43.29747" lon="2.39295">
        <ele>231.4</ele>
        <time>2019-06-02T06:45:12.000Z</time>
      </trkpt>
      <trkpt lat="43.29746" lon="2.39298">
        <ele>231.2</ele>
        <time>2019-06-02T06:45:13.000Z</time>
      </trkpt>
      <trkpt lat="43.29744" lon="2.39302">
        <ele>230.9</ele>
        <time>2019-06-02T06:45:14.000Z</time>
      </trkpt>
      <trkpt lat="43.29743" lon="2.39306">
        <ele>230.7</ele>
        <time>2019-06-02T06:45:15.000Z</time>
      </trkpt>
      <trkpt lat="43.29741" lon="2.39309">
        <ele>230.5</ele>
        <time>2019-06-02T06:45:16.000Z</time>
      </trkpt>
      <trkpt lat="43.2974" lon="2.39313">
        <ele>230.3</ele>
        <time>2019-06-02T06:45:17.000Z</time>
      </trkpt>
      <trkpt lat="43.29739" lon="2.39317">
        <ele>230.1</ele>
        <time>2019-06-02T06:45:18.000Z</time>
      </trkpt>
      <trkpt lat="43.29737" lon="2.3932">
        <ele>229.9</ele>
        <time>2019-06-02T06:45:19.000Z</time>
      </trkpt>
      <trkpt lat="43.29736" lon="2.39324">
        <ele>229.7</ele>
        <time>2019-06-02T06:45:20.000Z</time>
      </trkpt>
      <trkpt lat="43.29735" lon="2.39328">
        <ele>229.5</ele>
        <time>2019-06-02T06:45:21.000Z</time>
      </trkpt>
      <trkpt lat="43.29733" lon="2.39332">
        <ele>229.3</ele>
        <time>2019-06-02T06:45:22.000Z</time>
      </trkpt>
      <trkpt lat="43.29732" lon="2.39335">
        <ele>229.1</ele>
        <time>2019-06-02T06:45:23.000Z</time>
      </trkpt>
      <trkpt lat="43.29731" lon="2.39339">
        <ele>229</ele>
        <time>2019-06-02T06:45:24.000Z</time>
      </trkpt>
      <trkpt lat="43.29729" lon="2.39343">
        <ele>228.8</ele>
        <time>2019-06-02T06:45:25.000Z</time>
      </trkpt>
      <trkpt lat="43.29728" lon="2.39346">
        <ele>228.6</ele>
        <time>2019-06-02T06:45:26.000Z</time>
      </trkpt>
      <trkpt lat="43.29726" lon="2.3935">
        <ele>228.5</ele>
        <time>2019-06-02T06:45:27.000Z</time>
      </trkpt>
      <trkpt lat="43.29724" lon="2.39353">
        <ele>228.4</ele>
        <time>2019-06-02T06:45:28.000Z</time>
      </trkpt>
      <trkpt lat="43.29722" lon="2.39357">
        <ele>228.4</ele>
        <time>2019-06-02T06:45:29.000Z</time>
      </trkpt>
      <trkpt lat="43.29719" lon="2.3936">
        <ele>228.4</ele>
        <time>2019-06-02T06:45:30.000Z</time>
      </trkpt>
      <trkpt lat="43.29717" lon="2.39363">
        <ele>228.4</ele>
        <time>2019-06-02T06:45:31.000Z</time>
      </trkpt>
      <trkpt lat="43.29714" lon="2.39365">
        <ele>228.4</ele>
        <time>2019-06-02T06:45:32.000Z</time>
      </trkpt>
      <trkpt lat="43.29711" lon="2.39368">
        <ele>228.5</ele>
        <time>2019-06-02T06:45:33.000Z</time>
      </trkpt>
      <trkpt lat="43.29708" lon="2.3937">
        <ele>228.6</ele>
        <time>2019-06-02T06:45:34.000Z</time>
      </trkpt>
      <trkpt lat="43.29706" lon="2.39371">
        <ele>228.8</ele>
        <time>2019-06-02T06:45:35.000Z</time>
      </trkpt>
      <trkpt lat="43.29703" lon="2.39372">
        <ele>228.9</ele>
        <time>2019-06-02T06:45:36.000Z</time>
      </trkpt>
      <trkpt lat="43.297" lon="2.39373">
        <ele>229.1</ele>
        <time>2019-06-02T06:45:37.000Z</time>
      </trkpt>
      <trkpt lat="43.29697" lon="2.39374">
        <ele>229.3</ele>
        <time>2019-06-02T06:45:38.000Z</time>
      </trkpt>
      <trkpt lat="43.29694" lon="2.39375">
        <ele>229.5</ele>
        <time>2019-06-02T06:45:39.000Z</time>
      </trkpt>
      <trkpt lat="43.29691" lon="2.39375">
        <ele>229.8</ele>
        <time>2019-06-02T06:45:40.000Z</time>
      </trkpt>
      <trkpt lat="43.29688" lon="2.39376">
        <ele>230</ele>
        <time>2019-06-02T06:45:41.000Z</time>
      </trkpt>
      <trkpt lat="43.29686" lon="2.39377">
        <ele>230.2</ele>
        <time>2019-06-02T06:45:42.000Z</time>
      </trkpt>
      <trkpt lat="43.29683" lon="2.39378">
        <ele>230.4</ele>
        <time>2019-06-02T06:45:43.000Z</time>
      </trkpt>
      <trkpt lat="43.2968" lon="2.39379">
        <ele>230.6</ele>
        <time>2019-06-02T06:45:44.000Z</time>
      </trkpt>
      <trkpt lat="43.29677" lon="2.3938">
        <ele>230.8</ele>
        <time>2019-06-02T06:45:45.000Z</time>
      </trkpt>
      <trkpt lat="43.29674" lon="2.39382">
        <ele>231</ele>
        <time>2019-06-02T06:45:46.000Z</time>
      </trkpt>
      <trkpt lat="43.29671" lon="2.39383">
        <ele>231.2</ele>
        <time>2019-06-02T06:45:47.000Z</time>
      </trkpt>
      <trkpt lat="43.29669" lon="2.39385">
        <ele>231.3</ele>
        <time>2019-06-02T06:45:48.000Z</time>
      </trkpt>
      <trkpt lat="43.29666" lon="2.39387">
        <ele>231.4</ele>
        <time>2019-06-02T06:45:49.000Z</time>
      </trkpt>
      <trkpt lat="43.29663" lon="2.39389">
        <ele>231.2</ele>
        <time>2019-06-02T06:45:50.000Z</time>
      </trkpt>
      <trkpt lat="43.2966" lon="2.39391">
        <ele>231.1</ele>
        <time>2019-06-02T06:45:51.000Z</time>
      </trkpt>
      <trkpt lat="43.29658" lon="2.39393">
        <ele>230.9</ele>
        <time>2019-06-02T06:45:52.000Z</time>
      </trkpt>
      <trkpt lat="43.29655" lon="2.39395">
        <ele>230.7</ele>
        <time>2019-06-02T06:45:53.000Z</time>
      </trkpt>
      <trkpt lat="43.29653" lon="2.39396">
        <ele>230.6</ele>
        <time>2019-06-02T06:45:54.000Z</time>
      </trkpt>
      <trkpt lat="43.2965" lon="2.39398">
        <ele>230.5</ele>
        <time>2019-06-02T06:45:55.000Z</time>
      </trkpt>
      <trkpt lat="43.29648" lon="2.394">
        <ele>230.4</ele>
        <time>2019-06-02T06:45:56.000Z</time>
      </trkpt>
      <trkpt lat="43.29646" lon="2.39401">
        <ele>230.3</ele>
        <time>2019-06-02T06:45:57.000Z</time>
      </trkpt>
      <trkpt lat="43.29644" lon="2.39403">
        <ele>230.2</ele>
        <time>2019-06-02T06:45:58.000Z</time>
      </trkpt>
      <trkpt lat="43.29642" lon="2.39404">
        <ele>230.1</ele>
        <time>2019-06-02T06:45:59.000Z</time>
      </trkpt>
      <trkpt lat="43.2964" lon="2.39405">
        <ele>230</ele>
        <time>2019-06-02T06:46:00.000Z</time>
      </trkpt>
      <trkpt lat="43.29638" lon="2.39407">
        <ele>229.9</ele>
        <time>2019-06-02T06:46:01.000Z</time>
      </trkpt>
      <trkpt lat="43.29635" lon="2.39409">
        <ele>229.8</ele>
        <time>2019-06-02T06:46:02.000Z</time>
      </trkpt>
      <trkpt lat="43.29633" lon="2.3941">
        <ele>229.7</ele>
        <time>2019-06-02T06:46:03.000Z</time>
      </trkpt>
      <trkpt lat="43.29631" lon="2.39412">
        <ele>229.7</ele>
        <time>2019-06-02T06:46:04.000Z</time>
      </trkpt>
      <trkpt lat="43.29628" lon="2.39414">
        <ele>229.6</ele>
        <time>2019-06-02T06:46:05.000Z</time>
      </trkpt>
      <trkpt lat="43.29626" lon="2.39415">
        <ele>229.5</ele>
        <time>2019-06-02T06:46:06.000Z</time>
      </trkpt>
      <trkpt lat="43.29624" lon="2.39417">
        <ele>229.5</ele>
        <time>2019-06-02T06:46:07.000Z</time>
      </trkpt>
      <trkpt lat="43.29622" lon="2.39419">
        <ele>229.4</ele>
        <time>2019-06-02T06:46:08.000Z</time>
      </trkpt>
      <trkpt lat="43.29619" lon="2.3942">
        <ele>229.3</ele>
        <time>2019-06-02T06:46:09.000Z</time>
      </trkpt>
      <trkpt lat="43.29617" lon="2.39422">
        <ele>229.3</ele>
        <time>2019-06-02T06:46:10.000Z</time>
      </trkpt>
      <trkpt lat="43.29615" lon="2.39424">
        <ele>229.2</ele>
        <time>2019-06-02T06:46:11.000Z</time>
      </trkpt>
      <trkpt lat="43.29612" lon="2.39425">
        <ele>229.2</ele>
        <time>2019-06-02T06:46:12.000Z</time>
      </trkpt>
      <trkpt lat="43.2961" lon="2.39427">
        <ele>229.1</ele>
        <time>2019-06-02T06:46:13.000Z</time>
      </trkpt>
      <trkpt lat="43.29608" lon="2.39429">
        <ele>229.1</ele>
        <time>2019-06-02T06:46:14.000Z</time>
      </trkpt>
      <trkpt lat="43.29606" lon="2.3943">
        <ele>229</ele>
        <time>2019-06-02T06:46:15.000Z</time>
      </trkpt>
      <trkpt lat="43.29603" lon="2.39432">
        <ele>229</ele>
        <time>2019-06-02T06:46:16.000Z</time>
      </trkpt>
      <trkpt lat="43.29601" lon="2.39434">
        <ele>229</ele>
        <time>2019-06-02T06:46:17.000Z</time>
      </trkpt>
      <trkpt lat="43.29599" lon="2.39435">
        <ele>229</ele>
        <time>2019-06-02T06:46:18.000Z</time>
      </trkpt>
      <trkpt lat="43.29596" lon="2.39437">
        <ele>229</ele>
        <time>2019-06-02T06:46:19.000Z</time>
      </trkpt>
      <trkpt lat="43.29594" lon="2.39439">
        <ele>229</ele>
        <time>2019-06-02T06:46:20.000Z</time>
      </trkpt>
      <trkpt lat="43.29591" lon="2.39441">
        <ele>229</ele>
        <time>2019-06-02T06:46:21.000Z</time>
      </trkpt>
      <trkpt lat="43.29589" lon="2.39442">
        <ele>229</ele>
        <time>2019-06-02T06:46:22.000Z</time>
      </trkpt>
      <trkpt lat="43.29587" lon="2.39444">
        <ele>229</ele>
        <time>2019-06-02T06:46:23.000Z</time>
      </trkpt>
      <trkpt lat="43.29584" lon="2.39446">
        <ele>229</ele>
        <time>2019-06-02T06:46:24.000Z</time>
      </trkpt>
      <trkpt lat="43.29582" lon="2.39447">
        <ele>228.9</ele>
        <time>2019-06-02T06:46:25.000Z</time>
      </trkpt>
      <trkpt lat="43.2958" lon="2.39449">
        <ele>228.8</ele>
        <time>2019-06-02T06:46:26.000Z</time>
      </trkpt>
      <trkpt lat="43.29578" lon="2.3945">
        <ele>228.7</ele>
        <time>2019-06-02T06:46:27.000Z</time>
      </trkpt>
      <trkpt lat="43.29575" lon="2.39452">
        <ele>228.7</ele>
        <time>2019-06-02T06:46:28.000Z</time>
      </trkpt>
      <trkpt lat="43.29573" lon="2.39454">
        <ele>228.6</ele>
        <time>2019-06-02T06:46:29.000Z</time>
      </trkpt>
      <trkpt lat="43.29571" lon="2.39455">
        <ele>228.5</ele>
        <time>2019-06-02T06:46:30.000Z</time>
      </trkpt>
      <trkpt lat="43.29568" lon="2.39457">
        <ele>228.4</ele>
        <time>2019-06-02T06:46:31.000Z</time>
      </trkpt>
      <trkpt lat="43.29566" lon="2.39458">
        <ele>228.3</ele>
        <time>2019-06-02T06:46:32.000Z</time>
      </trkpt>
      <trkpt lat="43.29564" lon="2.3946">
        <ele>228.2</ele>
        <time>2019-06-02T06:46:33.000Z</time>
      </trkpt>
      <trkpt lat="43.29562" lon="2.39462">
        <ele>228.1</ele>
        <time>2019-06-02T06:46:34.000Z</time>
      </trkpt>
      <trkpt lat="43.29559" lon="2.39464">
        <ele>228</ele>
        <time>2019-06-02T06:46:35.000Z</time>
      </trkpt>
      <trkpt lat="43.29557" lon="2.39466">
        <ele>227.9</ele>
        <time>2019-06-02T06:46:36.000Z</time>
      </trkpt>
      <trkpt lat="43.29555" lon="2.39468">
        <ele>227.8</ele>
        <time>2019-06-02T06:46:37.000Z</time>
      </trkpt>
      <trkpt lat="43.29552" lon="2.3947">
        <ele>227.8</ele>
        <time>2019-06-02T06:46:38.000Z</time>
      </trkpt>
      <trkpt lat="43.2955" lon="2.39472">
        <ele>227.7</ele>
        <time>2019-06-02T06:46:39.000Z</time>
      </trkpt>
      <trkpt lat="43.29548" lon="2.39474">
        <ele>227.6</ele>
        <time>2019-06-02T06:46:40.000Z</time>
      </trkpt>
      <trkpt lat="43.29546" lon="2.39476">
        <ele>227.5</ele>
        <time>2019-06-02T06:46:41.000Z</time>
      </trkpt>
      <trkpt lat="43.29544" lon="2.39478">
        <ele>227.4</ele>
        <time>2019-06-02T06:46:42.000Z</time>
      </trkpt>
      <trkpt lat="43.29541" lon="2.39481">
        <ele>227.4</ele>
        <time>2019-06-02T06:46:43.000Z</time>
      </trkpt>
      <trkpt lat="43.29539" lon="2.39483">
        <ele>227.3</ele>
        <time>2019-06-02T06:46:44.000Z</time>
      </trkpt>
      <trkpt lat="43.29537" lon="2.39485">
        <ele>227.2</ele>
        <time>2019-06-02T06:46:45.000Z</time>
      </trkpt>
      <trkpt lat="43.29535" lon="2.39488">
        <ele>227.2</ele>
        <time>2019-06-02T06:46:46.000Z</time>
      </trkpt>
      <trkpt lat="43.29533" lon="2.3949">
        <ele>227.1</ele>
        <time>2019-06-02T06:46:47.000Z</time>
      </trkpt>
      <trkpt lat="43.29531" lon="2.39492">
        <ele>227.1</ele>
        <time>2019-06-02T06:46:48.000Z</time>
      </trkpt>
      <trkpt lat="43.29529" lon="2.39495">
        <ele>227</ele>
        <time>2019-06-02T06:46:49.000Z</time>
      </trkpt>
      <trkpt lat="43.29527" lon="2.39497">
        <ele>227</ele>
        <time>2019-06-02T06:46:50.000Z</time>
      </trkpt>
      <trkpt lat="43.29526" lon="2.395">
        <ele>226.9</ele>
        <time>2019-06-02T06:46:51.000Z</time>
      </trkpt>
      <trkpt lat="43.29524" lon="2.39502">
        <ele>226.8</ele>
        <time>2019-06-02T06:46:52.000Z</time>
      </trkpt>
      <trkpt lat="43.29522" lon="2.39505">
        <ele>226.7</ele>
        <time>2019-06-02T06:46:53.000Z</time>
      </trkpt>
      <trkpt lat="43.29521" lon="2.39507">
        <ele>226.6</ele>
        <time>2019-06-02T06:46:54.000Z</time>
      </trkpt>
      <trkpt lat="43.2952" lon="2.3951">
        <ele>226.6</ele>
        <time>2019-06-02T06:46:55.000Z</time>
      </trkpt>
      <trkpt lat="43.29518" lon="2.39512">
        <ele>226.5</ele>
        <time>2019-06-02T06:46:56.000Z</time>
      </trkpt>
      <trkpt lat="43.29517" lon="2.39515">
        <ele>226.4</ele>
        <time>2019-06-02T06:46:57.000Z</time>
      </trkpt>
      <trkpt lat="43.29516" lon="2.39517">
        <ele>226.3</ele>
        <time>2019-06-02T06:46:58.000Z</time>
      </trkpt>
      <trkpt lat="43.29514" lon="2.3952">
        <ele>226.2</ele>
        <time>2019-06-02T06:46:59.000Z</time>
      </trkpt>
      <trkpt lat="43.29513" lon="2.39522">
        <ele>226.1</ele>
        <time>2019-06-02T06:47:00.000Z</time>
      </trkpt>
      <trkpt lat="43.29511" lon="2.39525">
        <ele>226</ele>
        <time>2019-06-02T06:47:01.000Z</time>
      </trkpt>
      <trkpt lat="43.29509" lon="2.39528">
        <ele>225.9</ele>
        <time>2019-06-02T06:47:02.000Z</time>
      </trkpt>
      <trkpt lat="43.29507" lon="2.39531">
        <ele>225.8</ele>
        <time>2019-06-02T06:47:03.000Z</time>
      </trkpt>
      <trkpt lat="43.29505" lon="2.39534">
        <ele>225.7</ele>
        <time>2019-06-02T06:47:04.000Z</time>
      </trkpt>
      <trkpt lat="43.29503" lon="2.39536">
        <ele>225.7</ele>
        <time>2019-06-02T06:47:05.000Z</time>
      </trkpt>
      <trkpt lat="43.29501" lon="2.39538">
        <ele>225.6</ele>
        <time>2019-06-02T06:47:06.000Z</time>
      </trkpt>
      <trkpt lat="43.295" lon="2.3954">
        <ele>225.5</ele>
        <time>2019-06-02T06:47:07.000Z</time>
      </trkpt>
      <trkpt lat="43.29498" lon="2.39542">
        <ele>225.4</ele>
        <time>2019-06-02T06:47:08.000Z</time>
      </trkpt>
      <trkpt lat="43.29497" lon="2.39544">
        <ele>225.2</ele>
        <time>2019-06-02T06:47:09.000Z</time>
      </trkpt>
      <trkpt lat="43.29495" lon="2.39548">
        <ele>225</ele>
        <time>2019-06-02T06:47:10.000Z</time>
      </trkpt>
      <trkpt lat="43.29493" lon="2.39551">
        <ele>224.8</ele>
        <time>2019-06-02T06:47:11.000Z</time>
      </trkpt>
      <trkpt lat="43.29491" lon="2.39554">
        <ele>224.6</ele>
        <time>2019-06-02T06:47:12.000Z</time>
      </trkpt>
      <trkpt lat="43.29489" lon="2.39557">
        <ele>224.3</ele>
        <time>2019-06-02T06:47:13.000Z</time>
      </trkpt>
      <trkpt lat="43.29488" lon="2.39559">
        <ele>224.1</ele>
        <time>2019-06-02T06:47:14.000Z</time>
      </trkpt>
      <trkpt lat="43.29486" lon="2.39562">
        <ele>223.9</ele>
        <time>2019-06-02T06:47:15.000Z</time>
      </trkpt>
      <trkpt lat="43.29484" lon="2.39564">
        <ele>223.7</ele>
        <time>2019-06-02T06:47:16.000Z</time>
      </trkpt>
      <trkpt lat="43.29482" lon="2.39567">
        <ele>223.5</ele>
        <time>2019-06-02T06:47:17.000Z</time>
      </trkpt>
      <trkpt lat="43.29481" lon="2.3957">
        <ele>223.3</ele>
        <time>2019-06-02T06:47:18.000Z</time>
      </trkpt>
      <trkpt lat="43.29479" lon="2.39572">
        <ele>223.1</ele>
        <time>2019-06-02T06:47:19.000Z</time>
      </trkpt>
      <trkpt lat="43.29477" lon="2.39575">
        <ele>222.9</ele>
        <time>2019-06-02T06:47:20.000Z</time>
      </trkpt>
      <trkpt lat="43.29476" lon="2.39578">
        <ele>222.7</ele>
        <time>2019-06-02T06:47:21.000Z</time>
      </trkpt>
      <trkpt lat="43.29474" lon="2.39581">
        <ele>222.5</ele>
        <time>2019-06-02T06:47:22.000Z</time>
      </trkpt>
      <trkpt lat="43.29472" lon="2.39583">
        <ele>222.3</ele>
        <time>2019-06-02T06:47:23.000Z</time>
      </trkpt>
      <trkpt lat="43.29471" lon="2.39586">
        <ele>222.1</ele>
        <time>2019-06-02T06:47:24.000Z</time>
      </trkpt>
      <trkpt lat="43.29469" lon="2.39589">
        <ele>221.8</ele>
        <time>2019-06-02T06:47:25.000Z</time>
      </trkpt>
      <trkpt lat="43.29468" lon="2.39592">
        <ele>221.5</ele>
        <time>2019-06-02T06:47:26.000Z</time>
      </trkpt>
      <trkpt lat="43.29466" lon="2.39595">
        <ele>221.2</ele>
        <time>2019-06-02T06:47:27.000Z</time>
      </trkpt>
      <trkpt lat="43.29464" lon="2.39597">
        <ele>221</ele>
        <time>2019-06-02T06:47:28.000Z</time>
      </trkpt>
      <trkpt lat="43.29462" lon="2.396">
        <ele>220.7</ele>
        <time>2019-06-02T06:47:29.000Z</time>
      </trkpt>
      <trkpt lat="43.2946" lon="2.39603">
        <ele>220.4</ele>
        <time>2019-06-02T06:47:30.000Z</time>
      </trkpt>
      <trkpt lat="43.29458" lon="2.39606">
        <ele>220</ele>
        <time>2019-06-02T06:47:31.000Z</time>
      </trkpt>
      <trkpt lat="43.29456" lon="2.39609">
        <ele>219.7</ele>
        <time>2019-06-02T06:47:32.000Z</time>
      </trkpt>
      <trkpt lat="43.29454" lon="2.39612">
        <ele>219.4</ele>
        <time>2019-06-02T06:47:33.000Z</time>
      </trkpt>
      <trkpt lat="43.29452" lon="2.39615">
        <ele>219</ele>
        <time>2019-06-02T06:47:34.000Z</time>
      </trkpt>
      <trkpt lat="43.29449" lon="2.39619">
        <ele>218.7</ele>
        <time>2019-06-02T06:47:35.000Z</time>
      </trkpt>
      <trkpt lat="43.29447" lon="2.39622">
        <ele>218.3</ele>
        <time>2019-06-02T06:47:36.000Z</time>
      </trkpt>
      <trkpt lat="43.29444" lon="2.39625">
        <ele>218</ele>
        <time>2019-06-02T06:47:37.000Z</time>
      </trkpt>
      <trkpt lat="43.29442" lon="2.39628">
        <ele>217.6</ele>
        <time>2019-06-02T06:47:38.000Z</time>
      </trkpt>
      <trkpt lat="43.29439" lon="2.39632">
        <ele>217.2</ele>
        <time>2019-06-02T06:47:39.000Z</time>
      </trkpt>
      <trkpt lat="43.29436" lon="2.39636">
        <ele>216.9</ele>
        <time>2019-06-02T06:47:40.000Z</time>
      </trkpt>
      <trkpt lat="43.29434" lon="2.39639">
        <ele>216.5</ele>
        <time>2019-06-02T06:47:41.000Z</time>
      </trkpt>
      <trkpt lat="43.29432" lon="2.39643">
        <ele>216.2</ele>
        <time>2019-06-02T06:47:42.000Z</time>
      </trkpt>
      <trkpt lat="43.29429" lon="2.39647">
        <ele>215.8</ele>
        <time>2019-06-02T06:47:43.000Z</time>
      </trkpt>
      <trkpt lat="43.29427" lon="2.39651">
        <ele>215.5</ele>
        <time>2019-06-02T06:47:44.000Z</time>
      </trkpt>
      <trkpt lat="43.29425" lon="2.39655">
        <ele>215.2</ele>
        <time>2019-06-02T06:47:45.000Z</time>
      </trkpt>
      <trkpt lat="43.29423" lon="2.39659">
        <ele>214.8</ele>
        <time>2019-06-02T06:47:46.000Z</time>
      </trkpt>
      <trkpt lat="43.29421" lon="2.39663">
        <ele>214.5</ele>
        <time>2019-06-02T06:47:47.000Z</time>
      </trkpt>
      <trkpt lat="43.29419" lon="2.39666">
        <ele>214.2</ele>
        <time>2019-06-02T06:47:48.000Z</time>
      </trkpt>
      <trkpt lat="43.29417" lon="2.3967">
        <ele>213.9</ele>
        <time>2019-06-02T06:47:49.000Z</time>
      </trkpt>
      <trkpt lat="43.29415" lon="2.39673">
        <ele>213.6</ele>
        <time>2019-06-02T06:47:50.000Z</time>
      </trkpt>
      <trkpt lat="43.29413" lon="2.39675">
        <ele>213.4</ele>
        <time>2019-06-02T06:47:51.000Z</time>
      </trkpt>
      <trkpt lat="43.2941" lon="2.39677">
        <ele>213.1</ele>
        <time>2019-06-02T06:47:52.000Z</time>
      </trkpt>
      <trkpt lat="43.29408" lon="2.39678">
        <ele>212.9</ele>
        <time>2019-06-02T06:47:53.000Z</time>
      </trkpt>
      <trkpt lat="43.29405" lon="2.39679">
        <ele>212.7</ele>
        <time>2019-06-02T06:47:54.000Z</time>
      </trkpt>
      <trkpt lat="43.29402" lon="2.39679">
        <ele>212.6</ele>
        <time>2019-06-02T06:47:55.000Z</time>
      </trkpt>
      <trkpt lat="43.29399" lon="2.39679">
        <ele>212.4</ele>
        <time>2019-06-02T06:47:56.000Z</time>
      </trkpt>
      <trkpt lat="43.29395" lon="2.39679">
        <ele>212.3</ele>
        <time>2019-06-02T06:47:57.000Z</time>
      </trkpt>
      <trkpt lat="43.29392" lon="2.39678">
        <ele>212.1</ele>
        <time>2019-06-02T06:47:58.000Z</time>
      </trkpt>
      <trkpt lat="43.29389" lon="2.39678">
        <ele>212</ele>
        <time>2019-06-02T06:47:59.000Z</time>
      </trkpt>
      <trkpt lat="43.29387" lon="2.39677">
        <ele>211.8</ele>
        <time>2019-06-02T06:48:00.000Z</time>
      </trkpt>
      <trkpt lat="43.29384" lon="2.39677">
        <ele>211.7</ele>
        <time>2019-06-02T06:48:01.000Z</time>
      </trkpt>
      <trkpt lat="43.29382" lon="2.39677">
        <ele>211.6</ele>
        <time>2019-06-02T06:48:02.000Z</time>
      </trkpt>
      <trkpt lat="43.29379" lon="2.39676">
        <ele>211.4</ele>
        <time>2019-06-02T06:48:03.000Z</time>
      </trkpt>
      <trkpt lat="43.29377" lon="2.39676">
        <ele>211.3</ele>
        <time>2019-06-02T06:48:04.000Z</time>
      </trkpt>
      <trkpt lat="43.29374" lon="2.39676">
        <ele>211.2</ele>
        <time>2019-06-02T06:48:05.000Z</time>
      </trkpt>
      <trkpt lat="43.29372" lon="2.39675">
        <ele>211.1</ele>
        <time>2019-06-02T06:48:06.000Z</time>
      </trkpt>
      <trkpt lat="43.29369" lon="2.39675">
        <ele>210.9</ele>
        <time>2019-06-02T06:48:07.000Z</time>
      </trkpt>
      <trkpt lat="43.29367" lon="2.39674">
        <ele>210.8</ele>
        <time>2019-06-02T06:48:08.000Z</time>
      </trkpt>
      <trkpt lat="43.29364" lon="2.39674">
        <ele>210.7</ele>
        <time>2019-06-02T06:48:09.000Z</time>
      </trkpt>
      <trkpt lat="43.29362" lon="2.39673">
        <ele>210.5</ele>
        <time>2019-06-02T06:48:10.000Z</time>
      </trkpt>
      <trkpt lat="43.29359" lon="2.39672">
        <ele>210.4</ele>
        <time>2019-06-02T06:48:11.000Z</time>
      </trkpt>
      <trkpt lat="43.29356" lon="2.39672">
        <ele>210.3</ele>
        <time>2019-06-02T06:48:12.000Z</time>
      </trkpt>
      <trkpt lat="43.29354" lon="2.39672">
        <ele>210.1</ele>
        <time>2019-06-02T06:48:13.000Z</time>
      </trkpt>
      <trkpt lat="43.29352" lon="2.39672">
        <ele>210</ele>
        <time>2019-06-02T06:48:14.000Z</time>
      </trkpt>
      <trkpt lat="43.29349" lon="2.39672">
        <ele>209.9</ele>
        <time>2019-06-02T06:48:15.000Z</time>
      </trkpt>
      <trkpt lat="43.29347" lon="2.39672">
        <ele>209.7</ele>
        <time>2019-06-02T06:48:16.000Z</time>
      </trkpt>
      <trkpt lat="43.29345" lon="2.39671">
        <ele>209.6</ele>
        <time>2019-06-02T06:48:17.000Z</time>
      </trkpt>
      <trkpt lat="43.29344" lon="2.39669">
        <ele>209.6</ele>
        <time>2019-06-02T06:48:18.000Z</time>
      </trkpt>
      <trkpt lat="43.29342" lon="2.39667">
        <ele>209.5</ele>
        <time>2019-06-02T06:48:19.000Z</time>
      </trkpt>
      <trkpt lat="43.29341" lon="2.39664">
        <ele>209.4</ele>
        <time>2019-06-02T06:48:20.000Z</time>
      </trkpt>
      <trkpt lat="43.29339" lon="2.39662">
        <ele>209.2</ele>
        <time>2019-06-02T06:48:21.000Z</time>
      </trkpt>
      <trkpt lat="43.29337" lon="2.39661">
        <ele>209</ele>
        <time>2019-06-02T06:48:22.000Z</time>
      </trkpt>
      <trkpt lat="43.29335" lon="2.39659">
        <ele>208.8</ele>
        <time>2019-06-02T06:48:23.000Z</time>
      </trkpt>
      <trkpt lat="43.29332" lon="2.39658">
        <ele>208.6</ele>
        <time>2019-06-02T06:48:24.000Z</time>
      </trkpt>
      <trkpt lat="43.29329" lon="2.39657">
        <ele>208.4</ele>
        <time>2019-06-02T06:48:25.000Z</time>
      </trkpt>
      <trkpt lat="43.29326" lon="2.39656">
        <ele>208.2</ele>
        <time>2019-06-02T06:48:26.000Z</time>
      </trkpt>
      <trkpt lat="43.29323" lon="2.39655">
        <ele>207.9</ele>
        <time>2019-06-02T06:48:27.000Z</time>
      </trkpt>
      <trkpt lat="43.2932" lon="2.39654">
        <ele>207.7</ele>
        <time>2019-06-02T06:48:28.000Z</time>
      </trkpt>
      <trkpt lat="43.29317" lon="2.39653">
        <ele>207.5</ele>
        <time>2019-06-02T06:48:29.000Z</time>
      </trkpt>
      <trkpt lat="43.29314" lon="2.39652">
        <ele>207.3</ele>
        <time>2019-06-02T06:48:30.000Z</time>
      </trkpt>
      <trkpt lat="43.29311" lon="2.39651">
        <ele>207</ele>
        <time>2019-06-02T06:48:31.000Z</time>
      </trkpt>
      <trkpt lat="43.29309" lon="2.3965">
        <ele>206.8</ele>
        <time>2019-06-02T06:48:32.000Z</time>
      </trkpt>
      <trkpt lat="43.29306" lon="2.39649">
        <ele>206.6</ele>
        <time>2019-06-02T06:48:33.000Z</time>
      </trkpt>
      <trkpt lat="43.29303" lon="2.39648">
        <ele>206.3</ele>
        <time>2019-06-02T06:48:34.000Z</time>
      </trkpt>
      <trkpt lat="43.293" lon="2.39647">
        <ele>206.1</ele>
        <time>2019-06-02T06:48:35.000Z</time>
      </trkpt>
      <trkpt lat="43.29297" lon="2.39645">
        <ele>205.8</ele>
        <time>2019-06-02T06:48:36.000Z</time>
      </trkpt>
      <trkpt lat="43.29294" lon="2.39644">
        <ele>205.6</ele>
        <time>2019-06-02T06:48:37.000Z</time>
      </trkpt>
      <trkpt lat="43.29291" lon="2.39642">
        <ele>205.3</ele>
        <time>2019-06-02T06:48:38.000Z</time>
      </trkpt>
      <trkpt lat="43.29289" lon="2.3964">
        <ele>205</ele>
        <time>2019-06-02T06:48:39.000Z</time>
      </trkpt>
      <trkpt lat="43.29286" lon="2.39637">
        <ele>204.7</ele>
        <time>2019-06-02T06:48:40.000Z</time>
      </trkpt>
      <trkpt lat="43.29283" lon="2.39635">
        <ele>204.4</ele>
        <time>2019-06-02T06:48:41.000Z</time>
      </trkpt>
      <trkpt lat="43.2928" lon="2.39634">
        <ele>204.1</ele>
        <time>2019-06-02T06:48:42.000Z</time>
      </trkpt>
      <trkpt lat="43.29277" lon="2.39633">
        <ele>203.8</ele>
        <time>2019-06-02T06:48:43.000Z</time>
      </trkpt>
      <trkpt lat="43.29274" lon="2.39632">
        <ele>203.6</ele>
        <time>2019-06-02T06:48:44.000Z</time>
      </trkpt>
      <trkpt lat="43.29271" lon="2.39631">
        <ele>203.4</ele>
        <time>2019-06-02T06:48:45.000Z</time>
      </trkpt>
      <trkpt lat="43.29268" lon="2.3963">
        <ele>203.1</ele>
        <time>2019-06-02T06:48:46.000Z</time>
      </trkpt>
      <trkpt lat="43.29266" lon="2.39629">
        <ele>202.9</ele>
        <time>2019-06-02T06:48:47.000Z</time>
      </trkpt>
      <trkpt lat="43.29263" lon="2.39628">
        <ele>202.6</ele>
        <time>2019-06-02T06:48:48.000Z</time>
      </trkpt>
      <trkpt lat="43.29261" lon="2.39626">
        <ele>202.4</ele>
        <time>2019-06-02T06:48:49.000Z</time>
      </trkpt>
      <trkpt lat="43.29259" lon="2.39624">
        <ele>202.1</ele>
        <time>2019-06-02T06:48:50.000Z</time>
      </trkpt>
      <trkpt lat="43.29257" lon="2.39621">
        <ele>201.8</ele>
        <time>2019-06-02T06:48:51.000Z</time>
      </trkpt>
      <trkpt lat="43.29255" lon="2.39618">
        <ele>201.5</ele>
        <time>2019-06-02T06:48:52.000Z</time>
      </trkpt>
      <trkpt lat="43.29253" lon="2.39616">
        <ele>201.2</ele>
        <time>2019-06-02T06:48:53.000Z</time>
      </trkpt>
      <trkpt lat="43.2925" lon="2.39615">
        <ele>200.9</ele>
        <time>2019-06-02T06:48:54.000Z</time>
      </trkpt>
      <trkpt lat="43.29247" lon="2.39615">
        <ele>200.7</ele>
        <time>2019-06-02T06:48:55.000Z</time>
      </trkpt>
      <trkpt lat="43.29245" lon="2.39615">
        <ele>200.5</ele>
        <time>2019-06-02T06:48:56.000Z</time>
      </trkpt>
      <trkpt lat="43.29243" lon="2.39616">
        <ele>200.4</ele>
        <time>2019-06-02T06:48:57.000Z</time>
      </trkpt>
      <trkpt lat="43.29241" lon="2.39617">
        <ele>200.3</ele>
        <time>2019-06-02T06:48:58.000Z</time>
      </trkpt>
      <trkpt lat="43.29239" lon="2.39618">
        <ele>200.1</ele>
        <time>2019-06-02T06:48:59.000Z</time>
      </trkpt>
      <trkpt lat="43.29237" lon="2.39617">
        <ele>199.9</ele>
        <time>2019-06-02T06:49:00.000Z</time>
      </trkpt>
      <trkpt lat="43.29234" lon="2.39615">
        <ele>199.6</ele>
        <time>2019-06-02T06:49:01.000Z</time>
      </trkpt>
      <trkpt lat="43.29232" lon="2.39613">
        <ele>199.3</ele>
        <time>2019-06-02T06:49:02.000Z</time>
      </trkpt>
      <trkpt lat="43.2923" lon="2.3961">
        <ele>199</ele>
        <time>2019-06-02T06:49:03.000Z</time>
      </trkpt>
      <trkpt lat="43.29228" lon="2.39608">
        <ele>198.7</ele>
        <time>2019-06-02T06:49:04.000Z</time>
      </trkpt>
      <trkpt lat="43.29225" lon="2.39606">
        <ele>198.4</ele>
        <time>2019-06-02T06:49:05.000Z</time>
      </trkpt>
      <trkpt lat="43.29223" lon="2.39605">
        <ele>198.2</ele>
        <time>2019-06-02T06:49:06.000Z</time>
      </trkpt>
      <trkpt lat="43.29221" lon="2.39604">
        <ele>198</ele>
        <time>2019-06-02T06:49:07.000Z</time>
      </trkpt>
      <trkpt lat="43.29218" lon="2.39604">
        <ele>197.7</ele>
        <time>2019-06-02T06:49:08.000Z</time>
      </trkpt>
      <trkpt lat="43.29215" lon="2.39604">
        <ele>197.5</ele>
        <time>2019-06-02T06:49:09.000Z</time>
      </trkpt>
      <trkpt lat="43.29213" lon="2.39603">
        <ele>197.3</ele>
        <time>2019-06-02T06:49:10.000Z</time>
      </trkpt>
      <trkpt lat="43.2921" lon="2.39602">
        <ele>197</ele>
        <time>2019-06-02T06:49:11.000Z</time>
      </trkpt>
      <trkpt lat="43.29207" lon="2.39601">
        <ele>196.7</ele>
        <time>2019-06-02T06:49:12.000Z</time>
      </trkpt>
      <trkpt lat="43.29205" lon="2.39599">
        <ele>196.5</ele>
        <time>2019-06-02T06:49:13.000Z</time>
      </trkpt>
      <trkpt lat="43.29202" lon="2.39597">
        <ele>196.2</ele>
        <time>2019-06-02T06:49:14.000Z</time>
      </trkpt>
      <trkpt lat="43.292" lon="2.39594">
        <ele>195.9</ele>
        <time>2019-06-02T06:49:15.000Z</time>
      </trkpt>
      <trkpt lat="43.29197" lon="2.39592">
        <ele>195.6</ele>
        <time>2019-06-02T06:49:16.000Z</time>
      </trkpt>
      <trkpt lat="43.29195" lon="2.3959">
        <ele>195.3</ele>
        <time>2019-06-02T06:49:17.000Z</time>
      </trkpt>
      <trkpt lat="43.29192" lon="2.39588">
        <ele>195</ele>
        <time>2019-06-02T06:49:18.000Z</time>
      </trkpt>
      <trkpt lat="43.2919" lon="2.39586">
        <ele>194.8</ele>
        <time>2019-06-02T06:49:19.000Z</time>
      </trkpt>
      <trkpt lat="43.29187" lon="2.39584">
        <ele>194.5</ele>
        <time>2019-06-02T06:49:20.000Z</time>
      </trkpt>
      <trkpt lat="43.29184" lon="2.39583">
        <ele>194.2</ele>
        <time>2019-06-02T06:49:21.000Z</time>
      </trkpt>
      <trkpt lat="43.29181" lon="2.39582">
        <ele>193.9</ele>
        <time>2019-06-02T06:49:22.000Z</time>
      </trkpt>
      <trkpt lat="43.29178" lon="2.39581">
        <ele>193.6</ele>
        <time>2019-06-02T06:49:23.000Z</time>
      </trkpt>
      <trkpt lat="43.29175" lon="2.3958">
        <ele>193.3</ele>
        <time>2019-06-02T06:49:24.000Z</time>
      </trkpt>
      <trkpt lat="43.29173" lon="2.39579">
        <ele>192.9</ele>
        <time>2019-06-02T06:49:25.000Z</time>
      </trkpt>
      <trkpt lat="43.2917" lon="2.39577">
        <ele>192.6</ele>
        <time>2019-06-02T06:49:26.000Z</time>
      </trkpt>
      <trkpt lat="43.29167" lon="2.39576">
        <ele>192.2</ele>
        <time>2019-06-02T06:49:27.000Z</time>
      </trkpt>
      <trkpt lat="43.29164" lon="2.39575">
        <ele>192</ele>
        <time>2019-06-02T06:49:28.000Z</time>
      </trkpt>
      <trkpt lat="43.29161" lon="2.39574">
        <ele>191.7</ele>
        <time>2019-06-02T06:49:29.000Z</time>
      </trkpt>
      <trkpt lat="43.29158" lon="2.39572">
        <ele>191.4</ele>
        <time>2019-06-02T06:49:30.000Z</time>
      </trkpt>
      <trkpt lat="43.29156" lon="2.39571">
        <ele>191.1</ele>
        <time>2019-06-02T06:49:31.000Z</time>
      </trkpt>
      <trkpt lat="43.29153" lon="2.39569">
        <ele>190.8</ele>
        <time>2019-06-02T06:49:32.000Z</time>
      </trkpt>
      <trkpt lat="43.2915" lon="2.39567">
        <ele>190.5</ele>
        <time>2019-06-02T06:49:33.000Z</time>
      </trkpt>
      <trkpt lat="43.29148" lon="2.39566">
        <ele>190.2</ele>
        <time>2019-06-02T06:49:34.000Z</time>
      </trkpt>
      <trkpt lat="43.29145" lon="2.39564">
        <ele>190</ele>
        <time>2019-06-02T06:49:35.000Z</time>
      </trkpt>
      <trkpt lat="43.29143" lon="2.39562">
        <ele>189.7</ele>
        <time>2019-06-02T06:49:36.000Z</time>
      </trkpt>
      <trkpt lat="43.2914" lon="2.39559">
        <ele>189.4</ele>
        <time>2019-06-02T06:49:37.000Z</time>
      </trkpt>
      <trkpt lat="43.29138" lon="2.39557">
        <ele>189.1</ele>
        <time>2019-06-02T06:49:38.000Z</time>
      </trkpt>
      <trkpt lat="43.29136" lon="2.39555">
        <ele>188.8</ele>
        <time>2019-06-02T06:49:39.000Z</time>
      </trkpt>
      <trkpt lat="43.29134" lon="2.39552">
        <ele>188.5</ele>
        <time>2019-06-02T06:49:40.000Z</time>
      </trkpt>
      <trkpt lat="43.29132" lon="2.39549">
        <ele>188.2</ele>
        <time>2019-06-02T06:49:41.000Z</time>
      </trkpt>
      <trkpt lat="43.2913" lon="2.39546">
        <ele>187.9</ele>
        <time>2019-06-02T06:49:42.000Z</time>
      </trkpt>
      <trkpt lat="43.29128" lon="2.39543">
        <ele>187.7</ele>
        <time>2019-06-02T06:49:43.000Z</time>
      </trkpt>
      <trkpt lat="43.29126" lon="2.3954">
        <ele>187.4</ele>
        <time>2019-06-02T06:49:44.000Z</time>
      </trkpt>
      <trkpt lat="43.29124" lon="2.39537">
        <ele>187.1</ele>
        <time>2019-06-02T06:49:45.000Z</time>
      </trkpt>
      <trkpt lat="43.29122" lon="2.39533">
        <ele>186.8</ele>
        <time>2019-06-02T06:49:46.000Z</time>
      </trkpt>
      <trkpt lat="43.2912" lon="2.3953">
        <ele>186.6</ele>
        <time>2019-06-02T06:49:47.000Z</time>
      </trkpt>
      <trkpt lat="43.29118" lon="2.39526">
        <ele>186.3</ele>
        <time>2019-06-02T06:49:48.000Z</time>
      </trkpt>
      <trkpt lat="43.29117" lon="2.39523">
        <ele>186.1</ele>
        <time>2019-06-02T06:49:49.000Z</time>
      </trkpt>
      <trkpt lat="43.29115" lon="2.3952">
        <ele>185.9</ele>
        <time>2019-06-02T06:49:50.000Z</time>
      </trkpt>
      <trkpt lat="43.29113" lon="2.39516">
        <ele>185.6</ele>
        <time>2019-06-02T06:49:51.000Z</time>
      </trkpt>
      <trkpt lat="43.29111" lon="2.39513">
        <ele>185.4</ele>
        <time>2019-06-02T06:49:52.000Z</time>
      </trkpt>
      <trkpt lat="43.2911" lon="2.39509">
        <ele>185.2</ele>
        <time>2019-06-02T06:49:53.000Z</time>
      </trkpt>
      <trkpt lat="43.29109" lon="2.39506">
        <ele>185</ele>
        <time>2019-06-02T06:49:54.000Z</time>
      </trkpt>
      <trkpt lat="43.29108" lon="2.39503">
        <ele>184.9</ele>
        <time>2019-06-02T06:49:55.000Z</time>
      </trkpt>
      <trkpt lat="43.29107" lon="2.395">
        <ele>184.7</ele>
        <time>2019-06-02T06:49:56.000Z</time>
      </trkpt>
      <trkpt lat="43.29106" lon="2.39496">
        <ele>184.3</ele>
        <time>2019-06-02T06:49:57.000Z</time>
      </trkpt>
      <trkpt lat="43.29106" lon="2.39493">
        <ele>183.9</ele>
        <time>2019-06-02T06:49:58.000Z</time>
      </trkpt>
      <trkpt lat="43.29106" lon="2.39489">
        <ele>183.5</ele>
        <time>2019-06-02T06:49:59.000Z</time>
      </trkpt>
      <trkpt lat="43.29106" lon="2.39484">
        <ele>183</ele>
        <time>2019-06-02T06:50:00.000Z</time>
      </trkpt>
      <trkpt lat="43.29106" lon="2.3948">
        <ele>182.5</ele>
        <time>2019-06-02T06:50:01.000Z</time>
      </trkpt>
      <trkpt lat="43.29105" lon="2.39476">
        <ele>182.1</ele>
        <time>2019-06-02T06:50:02.000Z</time>
      </trkpt>
      <trkpt lat="43.29103" lon="2.39472">
        <ele>181.7</ele>
        <time>2019-06-02T06:50:03.000Z</time>
      </trkpt>
      <trkpt lat="43.29101" lon="2.39469">
        <ele>181.3</ele>
        <time>2019-06-02T06:50:04.000Z</time>
      </trkpt>
      <trkpt lat="43.29099" lon="2.39466">
        <ele>181</ele>
        <time>2019-06-02T06:50:05.000Z</time>
      </trkpt>
      <trkpt lat="43.29096" lon="2.39464">
        <ele>180.7</ele>
        <time>2019-06-02T06:50:06.000Z</time>
      </trkpt>
      <trkpt lat="43.29094" lon="2.39461">
        <ele>180.4</ele>
        <time>2019-06-02T06:50:07.000Z</time>
      </trkpt>
      <trkpt lat="43.29091" lon="2.3946">
        <ele>180.2</ele>
        <time>2019-06-02T06:50:08.000Z</time>
      </trkpt>
      <trkpt lat="43.29088" lon="2.39458">
        <ele>180</ele>
        <time>2019-06-02T06:50:09.000Z</time>
      </trkpt>
      <trkpt lat="43.29085" lon="2.39457">
        <ele>179.9</ele>
        <time>2019-06-02T06:50:10.000Z</time>
      </trkpt>
      <trkpt lat="43.29082" lon="2.39457">
        <ele>179.7</ele>
        <time>2019-06-02T06:50:11.000Z</time>
      </trkpt>
      <trkpt lat="43.29079" lon="2.39455">
        <ele>179.5</ele>
        <time>2019-06-02T06:50:12.000Z</time>
      </trkpt>
      <trkpt lat="43.29076" lon="2.39454">
        <ele>179.2</ele>
        <time>2019-06-02T06:50:13.000Z</time>
      </trkpt>
      <trkpt lat="43.29072" lon="2.39452">
        <ele>179</ele>
        <time>2019-06-02T06:50:14.000Z</time>
      </trkpt>
      <trkpt lat="43.29069" lon="2.3945">
        <ele>178.7</ele>
        <time>2019-06-02T06:50:15.000Z</time>
      </trkpt>
      <trkpt lat="43.29065" lon="2.39448">
        <ele>178.3</ele>
        <time>2019-06-02T06:50:16.000Z</time>
      </trkpt>
      <trkpt lat="43.29062" lon="2.39447">
        <ele>178</ele>
        <time>2019-06-02T06:50:17.000Z</time>
      </trkpt>
      <trkpt lat="43.29058" lon="2.39445">
        <ele>177.7</ele>
        <time>2019-06-02T06:50:18.000Z</time>
      </trkpt>
      <trkpt lat="43.29055" lon="2.39443">
        <ele>177.4</ele>
        <time>2019-06-02T06:50:19.000Z</time>
      </trkpt>
      <trkpt lat="43.29051" lon="2.39441">
        <ele>177.2</ele>
        <time>2019-06-02T06:50:20.000Z</time>
      </trkpt>
      <trkpt lat="43.29048" lon="2.39439">
        <ele>176.9</ele>
        <time>2019-06-02T06:50:21.000Z</time>
      </trkpt>
      <trkpt lat="43.29045" lon="2.39437">
        <ele>176.6</ele>
        <time>2019-06-02T06:50:22.000Z</time>
      </trkpt>
      <trkpt lat="43.29042" lon="2.39434">
        <ele>176.3</ele>
        <time>2019-06-02T06:50:23.000Z</time>
      </trkpt>
      <trkpt lat="43.2904" lon="2.39432">
        <ele>176</ele>
        <time>2019-06-02T06:50:24.000Z</time>
      </trkpt>
      <trkpt lat="43.29037" lon="2.3943">
        <ele>175.8</ele>
        <time>2019-06-02T06:50:25.000Z</time>
      </trkpt>
      <trkpt lat="43.29035" lon="2.39428">
        <ele>175.5</ele>
        <time>2019-06-02T06:50:26.000Z</time>
      </trkpt>
      <trkpt lat="43.29033" lon="2.39425">
        <ele>175.3</ele>
        <time>2019-06-02T06:50:27.000Z</time>
      </trkpt>
      <trkpt lat="43.29031" lon="2.39423">
        <ele>175</ele>
        <time>2019-06-02T06:50:28.000Z</time>
      </trkpt>
      <trkpt lat="43.29029" lon="2.39421">
        <ele>174.7</ele>
        <time>2019-06-02T06:50:29.000Z</time>
      </trkpt>
      <trkpt lat="43.29028" lon="2.39418">
        <ele>174.5</ele>
        <time>2019-06-02T06:50:30.000Z</time>
      </trkpt>
      <trkpt lat="43.29026" lon="2.39416">
        <ele>174.1</ele>
        <time>2019-06-02T06:50:31.000Z</time>
      </trkpt>
      <trkpt lat="43.29024" lon="2.39414">
        <ele>173.5</ele>
        <time>2019-06-02T06:50:32.000Z</time>
      </trkpt>
      <trkpt lat="43.29023" lon="2.39411">
        <ele>172.9</ele>
        <time>2019-06-02T06:50:33.000Z</time>
      </trkpt>
      <trkpt lat="43.29021" lon="2.39409">
        <ele>172.3</ele>
        <time>2019-06-02T06:50:34.000Z</time>
      </trkpt>
      <trkpt lat="43.29019" lon="2.39407">
        <ele>171.7</ele>
        <time>2019-06-02T06:50:35.000Z</time>
      </trkpt>
      <trkpt lat="43.29018" lon="2.39405">
        <ele>171.1</ele>
        <time>2019-06-02T06:50:36.000Z</time>
      </trkpt>
      <trkpt lat="43.29016" lon="2.39402">
        <ele>170.5</ele>
        <time>2019-06-02T06:50:37.000Z</time>
      </trkpt>
      <trkpt lat="43.29014" lon="2.394">
        <ele>169.9</ele>
        <time>2019-06-02T06:50:38.000Z</time>
      </trkpt>
      <trkpt lat="43.29012" lon="2.39398">
        <ele>169.4</ele>
        <time>2019-06-02T06:50:39.000Z</time>
      </trkpt>
      <trkpt lat="43.2901" lon="2.39396">
        <ele>168.8</ele>
        <time>2019-06-02T06:50:40.000Z</time>
      </trkpt>
      <trkpt lat="43.29007" lon="2.39394">
        <ele>168.2</ele>
        <time>2019-06-02T06:50:41.000Z</time>
      </trkpt>
      <trkpt lat="43.29005" lon="2.39392">
        <ele>167.7</ele>
        <time>2019-06-02T06:50:42.000Z</time>
      </trkpt>
      <trkpt lat="43.29003" lon="2.3939">
        <ele>167.1</ele>
        <time>2019-06-02T06:50:43.000Z</time>
      </trkpt>
      <trkpt lat="43.29" lon="2.39389">
        <ele>166.6</ele>
        <time>2019-06-02T06:50:44.000Z</time>
      </trkpt>
      <trkpt lat="43.28998" lon="2.39387">
        <ele>166.2</ele>
        <time>2019-06-02T06:50:45.000Z</time>
      </trkpt>
      <trkpt lat="43.28995" lon="2.39385">
        <ele>165.8</ele>
        <time>2019-06-02T06:50:46.000Z</time>
      </trkpt>
      <trkpt lat="43.28993" lon="2.39384">
        <ele>165.5</ele>
        <time>2019-06-02T06:50:47.000Z</time>
      </trkpt>
      <trkpt lat="43.2899" lon="2.39382">
        <ele>165.2</ele>
        <time>2019-06-02T06:50:48.000Z</time>
      </trkpt>
      <trkpt lat="43.28988" lon="2.3938">
        <ele>164.8</ele>
        <time>2019-06-02T06:50:49.000Z</time>
      </trkpt>
      <trkpt lat="43.28985" lon="2.39378">
        <ele>164.5</ele>
        <time>2019-06-02T06:50:50.000Z</time>
      </trkpt>
      <trkpt lat="43.28983" lon="2.39377">
        <ele>164.2</ele>
        <time>2019-06-02T06:50:51.000Z</time>
      </trkpt>
      <trkpt lat="43.28981" lon="2.39375">
        <ele>163.8</ele>
        <time>2019-06-02T06:50:52.000Z</time>
      </trkpt>
      <trkpt lat="43.2898" lon="2.39373">
        <ele>163.4</ele>
        <time>2019-06-02T06:50:53.000Z</time>
      </trkpt>
      <trkpt lat="43.28978" lon="2.39371">
        <ele>163</ele>
        <time>2019-06-02T06:50:54.000Z</time>
      </trkpt>
      <trkpt lat="43.28977" lon="2.39369">
        <ele>162.7</ele>
        <time>2019-06-02T06:50:55.000Z</time>
      </trkpt>
      <trkpt lat="43.28977" lon="2.39368">
        <ele>162.5</ele>
        <time>2019-06-02T06:50:56.000Z</time>
      </trkpt>
      <trkpt lat="43.28976" lon="2.39367">
        <ele>162.4</ele>
        <time>2019-06-02T06:50:57.000Z</time>
      </trkpt>
      <trkpt lat="43.28976" lon="2.39367">
        <ele>162.4</ele>
        <time>2019-06-02T06:50:58.000Z</time>
      </trkpt>
      <trkpt lat="43.28977" lon="2.39367">
        <ele>162.4</ele>
        <time>2019-06-02T06:50:59.000Z</time>
      </trkpt>
      <trkpt lat="43.28977" lon="2.39368">
        <ele>162.4</ele>
        <time>2019-06-02T06:51:00.000Z</time>
      </trkpt>
      <trkpt lat="43.28977" lon="2.39368">
        <ele>162.4</ele>
        <time>2019-06-02T06:51:01.000Z</time>
      </trkpt>
      <trkpt lat="43.28977" lon="2.39367">
        <ele>162.4</ele>
        <time>2019-06-02T06:51:02.000Z</time>
      </trkpt>
      <trkpt lat="43.28977" lon="2.39367">
        <ele>162.4</ele>
        <time>2019-06-02T06:51:03.000Z</time>
      </trkpt>
      <trkpt lat="43.28977" lon="2.39367">
        <ele>162.4</ele>
        <time>2019-06-02T06:51:04.000Z</time>
      </trkpt>
      <trkpt lat="43.28977" lon="2.39367">
        <ele>162.4</ele>
        <time>2019-06-02T06:51:05.000Z</time>
      </trkpt>
      <trkpt lat="43.28977" lon="2.39367">
        <ele>162.4</ele>
        <time>2019-06-02T06:51:06.000Z</time>
      </trkpt>
      <trkpt lat="43.28976" lon="2.39367">
        <ele>162.4</ele>
        <time>2019-06-02T06:51:07.000Z</time>
      </trkpt>
      <trkpt lat="43.28976" lon="2.39366">
        <ele>162.1</ele>
        <time>2019-06-02T06:51:08.000Z</time>
      </trkpt>
      <trkpt lat="43.28975" lon="2.39365">
        <ele>162</ele>
        <time>2019-06-02T06:51:09.000Z</time>
      </trkpt>
      <trkpt lat="43.28974" lon="2.39364">
        <ele>161.8</ele>
        <time>2019-06-02T06:51:10.000Z</time>
      </trkpt>
      <trkpt lat="43.28974" lon="2.39364">
        <ele>161.8</ele>
        <time>2019-06-02T06:51:11.000Z</time>
      </trkpt>
      <trkpt lat="43.28973" lon="2.39364">
        <ele>161.9</ele>
        <time>2019-06-02T06:51:12.000Z</time>
      </trkpt>
      <trkpt lat="43.28972" lon="2.39364">
        <ele>161.9</ele>
        <time>2019-06-02T06:51:13.000Z</time>
      </trkpt>
      <trkpt lat="43.28971" lon="2.39363">
        <ele>161.9</ele>
        <time>2019-06-02T06:51:14.000Z</time>
      </trkpt>
      <trkpt lat="43.2897" lon="2.39363">
        <ele>161.8</ele>
        <time>2019-06-02T06:51:15.000Z</time>
      </trkpt>
      <trkpt lat="43.28969" lon="2.39362">
        <ele>161.7</ele>
        <time>2019-06-02T06:51:16.000Z</time>
      </trkpt>
      <trkpt lat="43.28968" lon="2.3936">
        <ele>161.5</ele>
        <time>2019-06-02T06:51:17.000Z</time>
      </trkpt>
      <trkpt lat="43.28967" lon="2.39359">
        <ele>161.3</ele>
        <time>2019-06-02T06:51:18.000Z</time>
      </trkpt>
      <trkpt lat="43.28967" lon="2.39358">
        <ele>161</ele>
        <time>2019-06-02T06:51:19.000Z</time>
      </trkpt>
      <trkpt lat="43.28966" lon="2.39356">
        <ele>160.8</ele>
        <time>2019-06-02T06:51:20.000Z</time>
      </trkpt>
      <trkpt lat="43.28966" lon="2.39355">
        <ele>160.6</ele>
        <time>2019-06-02T06:51:21.000Z</time>
      </trkpt>
      <trkpt lat="43.28965" lon="2.39355">
        <ele>160.5</ele>
        <time>2019-06-02T06:51:22.000Z</time>
      </trkpt>
      <trkpt lat="43.28965" lon="2.39354">
        <ele>160.4</ele>
        <time>2019-06-02T06:51:23.000Z</time>
      </trkpt>
      <trkpt lat="43.28965" lon="2.39354">
        <ele>160.4</ele>
        <time>2019-06-02T06:51:24.000Z</time>
      </trkpt>
      <trkpt lat="43.28965" lon="2.39353">
        <ele>160.3</ele>
        <time>2019-06-02T06:51:25.000Z</time>
      </trkpt>
      <trkpt lat="43.28965" lon="2.39353">
        <ele>160.3</ele>
        <time>2019-06-02T06:51:26.000Z</time>
      </trkpt>
      <trkpt lat="43.28965" lon="2.39353">
        <ele>160.3</ele>
        <time>2019-06-02T06:51:27.000Z</time>
      </trkpt>
      <trkpt lat="43.28965" lon="2.39353">
        <ele>160.3</ele>
        <time>2019-06-02T06:51:28.000Z</time>
      </trkpt>
      <trkpt lat="43.28965" lon="2.39353">
        <ele>160.3</ele>
        <time>2019-06-02T06:51:29.000Z</time>
      </trkpt>
      <trkpt lat="43.28965" lon="2.39353">
        <ele>160.3</ele>
        <time>2019-06-02T06:51:30.000Z</time>
      </trkpt>
      <trkpt lat="43.28965" lon="2.39353">
        <ele>160.3</ele>
        <time>2019-06-02T06:51:31.000Z</time>
      </trkpt>
      <trkpt lat="43.28965" lon="2.39353">
        <ele>160.3</ele>
        <time>2019-06-02T06:51:32.000Z</time>
      </trkpt>
      <trkpt lat="43.28965" lon="2.39353">
        <ele>160.3</ele>
        <time>2019-06-02T06:51:33.000Z</time>
      </trkpt>
      <trkpt lat="43.28965" lon="2.39353">
        <ele>160.3</ele>
        <time>2019-06-02T06:51:34.000Z</time>
      </trkpt>
      <trkpt lat="43.28965" lon="2.39353">
        <ele>160.3</ele>
        <time>2019-06-02T06:51:35.000Z</time>
      </trkpt>
      <trkpt lat="43.28965" lon="2.39353">
        <ele>160.3</ele>
        <time>2019-06-02T06:51:36.000Z</time>
      </trkpt>
      <trkpt lat="43.28965" lon="2.39353">
        <ele>160.3</ele>
        <time>2019-06-02T06:51:37.000Z</time>
      </trkpt>
      <trkpt lat="43.28965" lon="2.39353">
        <ele>160.3</ele>
        <time>2019-06-02T06:51:38.000Z</time>
      </trkpt>
      <trkpt lat="43.28965" lon="2.39353">
        <ele>160.3</ele>
        <time>2019-06-02T06:51:39.000Z</time>
      </trkpt>
      <trkpt lat="43.28965" lon="2.39353">
        <ele>160.3</ele>
        <time>2019-06-02T06:51:40.000Z</time>
      </trkpt>
      <trkpt lat="43.28965" lon="2.39353">
        <ele>160.3</ele>
        <time>2019-06-02T06:51:41.000Z</time>
      </trkpt>
      <trkpt lat="43.28965" lon="2.39353">
        <ele>160.3</ele>
        <time>2019-06-02T06:51:42.000Z</time>
      </trkpt>
      <trkpt lat="43.28965" lon="2.39353">
        <ele>160.3</ele>
        <time>2019-06-02T06:51:43.000Z</time>
      </trkpt>
      <trkpt lat="43.28965" lon="2.39353">
        <ele>160.3</ele>
        <time>2019-06-02T06:51:44.000Z</time>
      </trkpt>
      <trkpt lat="43.28965" lon="2.39353">
        <ele>160.3</ele>
        <time>2019-06-02T06:51:45.000Z</time>
      </trkpt>
      <trkpt lat="43.28965" lon="2.39353">
        <ele>160.3</ele>
        <time>2019-06-02T06:51:46.000Z</time>
      </trkpt>
      <trkpt lat="43.28965" lon="2.39353">
        <ele>160.3</ele>
        <time>2019-06-02T06:51:47.000Z</time>
      </trkpt>
      <trkpt lat="43.28965" lon="2.39353">
        <ele>160.3</ele>
        <time>2019-06-02T06:51:48.000Z</time>
      </trkpt>
      <trkpt lat="43.28965" lon="2.39353">
        <ele>160.3</ele>
        <time>2019-06-02T06:51:49.000Z</time>
      </trkpt>
      <trkpt lat="43.28965" lon="2.39353">
        <ele>160.3</ele>
        <time>2019-06-02T06:51:50.000Z</time>
      </trkpt>
      <trkpt lat="43.28965" lon="2.39353">
        <ele>160.3</ele>
        <time>2019-06-02T06:51:51.000Z</time>
      </trkpt>
      <trkpt lat="43.28965" lon="2.39353">
        <ele>160.3</ele>
        <time>2019-06-02T06:51:52.000Z</time>
      </trkpt>
      <trkpt lat="43.28965" lon="2.39353">
        <ele>160.3</ele>
        <time>2019-06-02T06:51:53.000Z</time>
      </trkpt>
      <trkpt lat="43.28965" lon="2.39353">
        <ele>160.3</ele>
        <time>2019-06-02T06:51:54.000Z</time>
      </trkpt>
      <trkpt lat="43.28965" lon="2.39353">
        <ele>160.3</ele>
        <time>2019-06-02T06:51:55.000Z</time>
      </trkpt>
      <trkpt lat="43.28965" lon="2.39353">
        <ele>160.3</ele>
        <time>2019-06-02T06:51:56.000Z</time>
      </trkpt>
      <trkpt lat="43.28965" lon="2.39353">
        <ele>160.3</ele>
        <time>2019-06-02T06:51:57.000Z</time>
      </trkpt>
      <trkpt lat="43.28965" lon="2.39353">
        <ele>160.3</ele>
        <time>2019-06-02T06:51:58.000Z</time>
      </trkpt>
      <trkpt lat="43.28965" lon="2.39353">
        <ele>160.3</ele>
        <time>2019-06-02T06:51:59.000Z</time>
      </trkpt>
      <trkpt lat="43.28965" lon="2.39353">
        <ele>160.3</ele>
        <time>2019-06-02T06:52:00.000Z</time>
      </trkpt>
      <trkpt lat="43.28965" lon="2.39353">
        <ele>160.3</ele>
        <time>2019-06-02T06:52:01.000Z</time>
      </trkpt>
      <trkpt lat="43.28965" lon="2.39353">
        <ele>160.3</ele>
        <time>2019-06-02T06:52:02.000Z</time>
      </trkpt>
      <trkpt lat="43.28965" lon="2.39353">
        <ele>160.3</ele>
        <time>2019-06-02T06:52:03.000Z</time>
      </trkpt>
      <trkpt lat="43.28965" lon="2.39353">
        <ele>160.3</ele>
        <time>2019-06-02T06:52:04.000Z</time>
      </trkpt>
      <trkpt lat="43.28965" lon="2.39353">
        <ele>160.3</ele>
        <time>2019-06-02T06:52:05.000Z</time>
      </trkpt>
      <trkpt lat="43.28965" lon="2.39353">
        <ele>160.3</ele>
        <time>2019-06-02T06:52:06.000Z</time>
      </trkpt>
      <trkpt lat="43.28965" lon="2.39353">
        <ele>160.3</ele>
        <time>2019-06-02T06:52:07.000Z</time>
      </trkpt>
      <trkpt lat="43.28965" lon="2.39353">
        <ele>160.3</ele>
        <time>2019-06-02T06:52:08.000Z</time>
      </trkpt>
      <trkpt lat="43.28965" lon="2.39353">
        <ele>160.3</ele>
        <time>2019-06-02T06:52:09.000Z</time>
      </trkpt>
      <trkpt lat="43.28964" lon="2.39354">
        <ele>160.4</ele>
        <time>2019-06-02T06:52:10.000Z</time>
      </trkpt>
      <trkpt lat="43.28964" lon="2.39354">
        <ele>160.4</ele>
        <time>2019-06-02T06:52:11.000Z</time>
      </trkpt>
      <trkpt lat="43.28963" lon="2.39354">
        <ele>160.5</ele>
        <time>2019-06-02T06:52:12.000Z</time>
      </trkpt>
      <trkpt lat="43.28961" lon="2.39353">
        <ele>160.5</ele>
        <time>2019-06-02T06:52:13.000Z</time>
      </trkpt>
      <trkpt lat="43.28959" lon="2.39351">
        <ele>160.3</ele>
        <time>2019-06-02T06:52:14.000Z</time>
      </trkpt>
      <trkpt lat="43.28957" lon="2.39349">
        <ele>160.1</ele>
        <time>2019-06-02T06:52:15.000Z</time>
      </trkpt>
      <trkpt lat="43.28955" lon="2.39347">
        <ele>160</ele>
        <time>2019-06-02T06:52:16.000Z</time>
      </trkpt>
      <trkpt lat="43.28954" lon="2.39346">
        <ele>159.9</ele>
        <time>2019-06-02T06:52:17.000Z</time>
      </trkpt>
      <trkpt lat="43.28952" lon="2.39345">
        <ele>159.9</ele>
        <time>2019-06-02T06:52:18.000Z</time>
      </trkpt>
      <trkpt lat="43.2895" lon="2.39344">
        <ele>159.8</ele>
        <time>2019-06-02T06:52:19.000Z</time>
      </trkpt>
      <trkpt lat="43.28947" lon="2.39342">
        <ele>159.9</ele>
        <time>2019-06-02T06:52:20.000Z</time>
      </trkpt>
      <trkpt lat="43.28945" lon="2.39341">
        <ele>159.9</ele>
        <time>2019-06-02T06:52:21.000Z</time>
      </trkpt>
      <trkpt lat="43.28943" lon="2.3934">
        <ele>160</ele>
        <time>2019-06-02T06:52:22.000Z</time>
      </trkpt>
      <trkpt lat="43.2894" lon="2.39339">
        <ele>160.1</ele>
        <time>2019-06-02T06:52:23.000Z</time>
      </trkpt>
      <trkpt lat="43.28937" lon="2.39338">
        <ele>160.2</ele>
        <time>2019-06-02T06:52:24.000Z</time>
      </trkpt>
      <trkpt lat="43.28935" lon="2.39337">
        <ele>160.4</ele>
        <time>2019-06-02T06:52:25.000Z</time>
      </trkpt>
      <trkpt lat="43.28931" lon="2.39336">
        <ele>160.6</ele>
        <time>2019-06-02T06:52:26.000Z</time>
      </trkpt>
      <trkpt lat="43.28928" lon="2.39335">
        <ele>160.8</ele>
        <time>2019-06-02T06:52:27.000Z</time>
      </trkpt>
      <trkpt lat="43.28925" lon="2.39334">
        <ele>161.1</ele>
        <time>2019-06-02T06:52:28.000Z</time>
      </trkpt>
      <trkpt lat="43.28922" lon="2.39333">
        <ele>161.4</ele>
        <time>2019-06-02T06:52:29.000Z</time>
      </trkpt>
      <trkpt lat="43.28918" lon="2.39332">
        <ele>161.7</ele>
        <time>2019-06-02T06:52:30.000Z</time>
      </trkpt>
      <trkpt lat="43.28915" lon="2.3933">
        <ele>161.7</ele>
        <time>2019-06-02T06:52:31.000Z</time>
      </trkpt>
      <trkpt lat="43.28912" lon="2.39329">
        <ele>161.6</ele>
        <time>2019-06-02T06:52:32.000Z</time>
      </trkpt>
      <trkpt lat="43.28909" lon="2.39326">
        <ele>161.5</ele>
        <time>2019-06-02T06:52:33.000Z</time>
      </trkpt>
      <trkpt lat="43.28907" lon="2.39324">
        <ele>161.3</ele>
        <time>2019-06-02T06:52:34.000Z</time>
      </trkpt>
      <trkpt lat="43.28904" lon="2.39321">
        <ele>161.1</ele>
        <time>2019-06-02T06:52:35.000Z</time>
      </trkpt>
      <trkpt lat="43.28902" lon="2.39318">
        <ele>161</ele>
        <time>2019-06-02T06:52:36.000Z</time>
      </trkpt>
      <trkpt lat="43.289" lon="2.39315">
        <ele>160.8</ele>
        <time>2019-06-02T06:52:37.000Z</time>
      </trkpt>
      <trkpt lat="43.28898" lon="2.39312">
        <ele>160.6</ele>
        <time>2019-06-02T06:52:38.000Z</time>
      </trkpt>
      <trkpt lat="43.28896" lon="2.3931">
        <ele>160.5</ele>
        <time>2019-06-02T06:52:39.000Z</time>
      </trkpt>
      <trkpt lat="43.28894" lon="2.39307">
        <ele>160.4</ele>
        <time>2019-06-02T06:52:40.000Z</time>
      </trkpt>
      <trkpt lat="43.28892" lon="2.39305">
        <ele>160.3</ele>
        <time>2019-06-02T06:52:41.000Z</time>
      </trkpt>
      <trkpt lat="43.28889" lon="2.39303">
        <ele>160.3</ele>
        <time>2019-06-02T06:52:42.000Z</time>
      </trkpt>
      <trkpt lat="43.28886" lon="2.39301">
        <ele>160.3</ele>
        <time>2019-06-02T06:52:43.000Z</time>
      </trkpt>
      <trkpt lat="43.28883" lon="2.393">
        <ele>160.4</ele>
        <time>2019-06-02T06:52:44.000Z</time>
      </trkpt>
      <trkpt lat="43.2888" lon="2.39299">
        <ele>160.4</ele>
        <time>2019-06-02T06:52:45.000Z</time>
      </trkpt>
      <trkpt lat="43.28876" lon="2.39298">
        <ele>160.5</ele>
        <time>2019-06-02T06:52:46.000Z</time>
      </trkpt>
      <trkpt lat="43.28873" lon="2.39297">
        <ele>160.6</ele>
        <time>2019-06-02T06:52:47.000Z</time>
      </trkpt>
      <trkpt lat="43.28869" lon="2.39296">
        <ele>160.6</ele>
        <time>2019-06-02T06:52:48.000Z</time>
      </trkpt>
      <trkpt lat="43.28866" lon="2.39295">
        <ele>160.7</ele>
        <time>2019-06-02T06:52:49.000Z</time>
      </trkpt>
      <trkpt lat="43.28863" lon="2.39293">
        <ele>160.8</ele>
        <time>2019-06-02T06:52:50.000Z</time>
      </trkpt>
      <trkpt lat="43.2886" lon="2.39291">
        <ele>160.9</ele>
        <time>2019-06-02T06:52:51.000Z</time>
      </trkpt>
      <trkpt lat="43.28856" lon="2.39289">
        <ele>161</ele>
        <time>2019-06-02T06:52:52.000Z</time>
      </trkpt>
      <trkpt lat="43.28853" lon="2.39288">
        <ele>161.1</ele>
        <time>2019-06-02T06:52:53.000Z</time>
      </trkpt>
      <trkpt lat="43.2885" lon="2.39286">
        <ele>161.2</ele>
        <time>2019-06-02T06:52:54.000Z</time>
      </trkpt>
      <trkpt lat="43.28846" lon="2.39284">
        <ele>161.4</ele>
        <time>2019-06-02T06:52:55.000Z</time>
      </trkpt>
      <trkpt lat="43.28842" lon="2.39282">
        <ele>161.5</ele>
        <time>2019-06-02T06:52:56.000Z</time>
      </trkpt>
      <trkpt lat="43.28839" lon="2.3928">
        <ele>161.7</ele>
        <time>2019-06-02T06:52:57.000Z</time>
      </trkpt>
      <trkpt lat="43.28835" lon="2.39279">
        <ele>161.9</ele>
        <time>2019-06-02T06:52:58.000Z</time>
      </trkpt>
      <trkpt lat="43.28832" lon="2.39277">
        <ele>161.9</ele>
        <time>2019-06-02T06:52:59.000Z</time>
      </trkpt>
      <trkpt lat="43.28828" lon="2.39275">
        <ele>161.7</ele>
        <time>2019-06-02T06:53:00.000Z</time>
      </trkpt>
      <trkpt lat="43.28825" lon="2.39272">
        <ele>161.5</ele>
        <time>2019-06-02T06:53:01.000Z</time>
      </trkpt>
      <trkpt lat="43.28821" lon="2.3927">
        <ele>161.3</ele>
        <time>2019-06-02T06:53:02.000Z</time>
      </trkpt>
      <trkpt lat="43.28818" lon="2.39267">
        <ele>161.1</ele>
        <time>2019-06-02T06:53:03.000Z</time>
      </trkpt>
      <trkpt lat="43.28816" lon="2.39264">
        <ele>161</ele>
        <time>2019-06-02T06:53:04.000Z</time>
      </trkpt>
      <trkpt lat="43.28813" lon="2.3926">
        <ele>160.8</ele>
        <time>2019-06-02T06:53:05.000Z</time>
      </trkpt>
      <trkpt lat="43.28811" lon="2.39257">
        <ele>160.7</ele>
        <time>2019-06-02T06:53:06.000Z</time>
      </trkpt>
      <trkpt lat="43.28808" lon="2.39253">
        <ele>160.5</ele>
        <time>2019-06-02T06:53:07.000Z</time>
      </trkpt>
      <trkpt lat="43.28806" lon="2.39249">
        <ele>160.3</ele>
        <time>2019-06-02T06:53:08.000Z</time>
      </trkpt>
      <trkpt lat="43.28804" lon="2.39245">
        <ele>159.9</ele>
        <time>2019-06-02T06:53:09.000Z</time>
      </trkpt>
      <trkpt lat="43.28802" lon="2.39242">
        <ele>159.4</ele>
        <time>2019-06-02T06:53:10.000Z</time>
      </trkpt>
      <trkpt lat="43.28799" lon="2.39238">
        <ele>159</ele>
        <time>2019-06-02T06:53:11.000Z</time>
      </trkpt>
      <trkpt lat="43.28797" lon="2.39235">
        <ele>158.7</ele>
        <time>2019-06-02T06:53:12.000Z</time>
      </trkpt>
      <trkpt lat="43.28795" lon="2.39232">
        <ele>158.3</ele>
        <time>2019-06-02T06:53:13.000Z</time>
      </trkpt>
      <trkpt lat="43.28793" lon="2.39229">
        <ele>157.9</ele>
        <time>2019-06-02T06:53:14.000Z</time>
      </trkpt>
      <trkpt lat="43.28791" lon="2.39226">
        <ele>157.6</ele>
        <time>2019-06-02T06:53:15.000Z</time>
      </trkpt>
      <trkpt lat="43.28789" lon="2.39223">
        <ele>157.2</ele>
        <time>2019-06-02T06:53:16.000Z</time>
      </trkpt>
      <trkpt lat="43.28787" lon="2.39221">
        <ele>156.9</ele>
        <time>2019-06-02T06:53:17.000Z</time>
      </trkpt>
      <trkpt lat="43.28785" lon="2.39218">
        <ele>156.6</ele>
        <time>2019-06-02T06:53:18.000Z</time>
      </trkpt>
      <trkpt lat="43.28783" lon="2.39215">
        <ele>156.3</ele>
        <time>2019-06-02T06:53:19.000Z</time>
      </trkpt>
      <trkpt lat="43.28781" lon="2.39213">
        <ele>156</ele>
        <time>2019-06-02T06:53:20.000Z</time>
      </trkpt>
      <trkpt lat="43.28779" lon="2.39211">
        <ele>155.7</ele>
        <time>2019-06-02T06:53:21.000Z</time>
      </trkpt>
      <trkpt lat="43.28778" lon="2.39208">
        <ele>155.5</ele>
        <time>2019-06-02T06:53:22.000Z</time>
      </trkpt>
      <trkpt lat="43.28776" lon="2.39207">
        <ele>155.3</ele>
        <time>2019-06-02T06:53:23.000Z</time>
      </trkpt>
      <trkpt lat="43.28775" lon="2.39205">
        <ele>155.1</ele>
        <time>2019-06-02T06:53:24.000Z</time>
      </trkpt>
      <trkpt lat="43.28774" lon="2.39204">
        <ele>154.9</ele>
        <time>2019-06-02T06:53:25.000Z</time>
      </trkpt>
      <trkpt lat="43.28773" lon="2.39203">
        <ele>154.8</ele>
        <time>2019-06-02T06:53:26.000Z</time>
      </trkpt>
      <trkpt lat="43.28772" lon="2.39202">
        <ele>154.7</ele>
        <time>2019-06-02T06:53:27.000Z</time>
      </trkpt>
      <trkpt lat="43.28771" lon="2.39201">
        <ele>154.6</ele>
        <time>2019-06-02T06:53:28.000Z</time>
      </trkpt>
      <trkpt lat="43.28771" lon="2.39201">
        <ele>154.6</ele>
        <time>2019-06-02T06:53:29.000Z</time>
      </trkpt>
      <trkpt lat="43.2877" lon="2.39201">
        <ele>154.5</ele>
        <time>2019-06-02T06:53:30.000Z</time>
      </trkpt>
      <trkpt lat="43.2877" lon="2.39201">
        <ele>154.5</ele>
        <time>2019-06-02T06:53:31.000Z</time>
      </trkpt>
      <trkpt lat="43.2877" lon="2.39201">
        <ele>154.5</ele>
        <time>2019-06-02T06:53:32.000Z</time>
      </trkpt>
      <trkpt lat="43.2877" lon="2.39201">
        <ele>154.5</ele>
        <time>2019-06-02T06:53:33.000Z</time>
      </trkpt>
      <trkpt lat="43.2877" lon="2.39201">
        <ele>154.5</ele>
        <time>2019-06-02T06:53:34.000Z</time>
      </trkpt>
      <trkpt lat="43.2877" lon="2.39201">
        <ele>154.5</ele>
        <time>2019-06-02T06:53:35.000Z</time>
      </trkpt>
      <trkpt lat="43.28769" lon="2.392">
        <ele>154.4</ele>
        <time>2019-06-02T06:53:36.000Z</time>
      </trkpt>
      <trkpt lat="43.28769" lon="2.392">
        <ele>154.4</ele>
        <time>2019-06-02T06:53:37.000Z</time>
      </trkpt>
      <trkpt lat="43.28768" lon="2.39198">
        <ele>154.2</ele>
        <time>2019-06-02T06:53:38.000Z</time>
      </trkpt>
      <trkpt lat="43.28767" lon="2.39197">
        <ele>154</ele>
        <time>2019-06-02T06:53:39.000Z</time>
      </trkpt>
      <trkpt lat="43.28766" lon="2.39196">
        <ele>153.9</ele>
        <time>2019-06-02T06:53:40.000Z</time>
      </trkpt>
      <trkpt lat="43.28766" lon="2.39196">
        <ele>153.9</ele>
        <time>2019-06-02T06:53:41.000Z</time>
      </trkpt>
      <trkpt lat="43.28765" lon="2.39196">
        <ele>153.9</ele>
        <time>2019-06-02T06:53:42.000Z</time>
      </trkpt>
      <trkpt lat="43.28765" lon="2.39195">
        <ele>153.8</ele>
        <time>2019-06-02T06:53:43.000Z</time>
      </trkpt>
      <trkpt lat="43.28764" lon="2.39194">
        <ele>153.7</ele>
        <time>2019-06-02T06:53:44.000Z</time>
      </trkpt>
      <trkpt lat="43.28762" lon="2.39193">
        <ele>153.5</ele>
        <time>2019-06-02T06:53:45.000Z</time>
      </trkpt>
      <trkpt lat="43.2876" lon="2.3919">
        <ele>153.2</ele>
        <time>2019-06-02T06:53:46.000Z</time>
      </trkpt>
      <trkpt lat="43.28758" lon="2.39188">
        <ele>152.9</ele>
        <time>2019-06-02T06:53:47.000Z</time>
      </trkpt>
      <trkpt lat="43.28756" lon="2.39186">
        <ele>152.6</ele>
        <time>2019-06-02T06:53:48.000Z</time>
      </trkpt>
      <trkpt lat="43.28754" lon="2.39183">
        <ele>152.4</ele>
        <time>2019-06-02T06:53:49.000Z</time>
      </trkpt>
      <trkpt lat="43.28752" lon="2.3918">
        <ele>152.1</ele>
        <time>2019-06-02T06:53:50.000Z</time>
      </trkpt>
      <trkpt lat="43.2875" lon="2.39178">
        <ele>151.8</ele>
        <time>2019-06-02T06:53:51.000Z</time>
      </trkpt>
      <trkpt lat="43.28748" lon="2.39175">
        <ele>151.5</ele>
        <time>2019-06-02T06:53:52.000Z</time>
      </trkpt>
      <trkpt lat="43.28747" lon="2.39172">
        <ele>151.2</ele>
        <time>2019-06-02T06:53:53.000Z</time>
      </trkpt>
      <trkpt lat="43.28745" lon="2.39169">
        <ele>151</ele>
        <time>2019-06-02T06:53:54.000Z</time>
      </trkpt>
      <trkpt lat="43.28743" lon="2.39166">
        <ele>150.7</ele>
        <time>2019-06-02T06:53:55.000Z</time>
      </trkpt>
      <trkpt lat="43.28741" lon="2.39164">
        <ele>150.5</ele>
        <time>2019-06-02T06:53:56.000Z</time>
      </trkpt>
      <trkpt lat="43.2874" lon="2.39161">
        <ele>150.2</ele>
        <time>2019-06-02T06:53:57.000Z</time>
      </trkpt>
      <trkpt lat="43.28738" lon="2.39158">
        <ele>150</ele>
        <time>2019-06-02T06:53:58.000Z</time>
      </trkpt>
      <trkpt lat="43.28736" lon="2.39156">
        <ele>149.8</ele>
        <time>2019-06-02T06:53:59.000Z</time>
      </trkpt>
      <trkpt lat="43.28734" lon="2.39154">
        <ele>149.5</ele>
        <time>2019-06-02T06:54:00.000Z</time>
      </trkpt>
      <trkpt lat="43.28732" lon="2.39152">
        <ele>149.3</ele>
        <time>2019-06-02T06:54:01.000Z</time>
      </trkpt>
      <trkpt lat="43.28729" lon="2.3915">
        <ele>149.1</ele>
        <time>2019-06-02T06:54:02.000Z</time>
      </trkpt>
      <trkpt lat="43.28727" lon="2.39148">
        <ele>149</ele>
        <time>2019-06-02T06:54:03.000Z</time>
      </trkpt>
      <trkpt lat="43.28725" lon="2.39147">
        <ele>148.8</ele>
        <time>2019-06-02T06:54:04.000Z</time>
      </trkpt>
      <trkpt lat="43.28722" lon="2.39146">
        <ele>148.6</ele>
        <time>2019-06-02T06:54:05.000Z</time>
      </trkpt>
      <trkpt lat="43.2872" lon="2.39145">
        <ele>148.5</ele>
        <time>2019-06-02T06:54:06.000Z</time>
      </trkpt>
      <trkpt lat="43.28717" lon="2.39144">
        <ele>148.4</ele>
        <time>2019-06-02T06:54:07.000Z</time>
      </trkpt>
      <trkpt lat="43.28715" lon="2.39143">
        <ele>148.3</ele>
        <time>2019-06-02T06:54:08.000Z</time>
      </trkpt>
      <trkpt lat="43.28713" lon="2.39142">
        <ele>148.2</ele>
        <time>2019-06-02T06:54:09.000Z</time>
      </trkpt>
      <trkpt lat="43.2871" lon="2.39142">
        <ele>148.1</ele>
        <time>2019-06-02T06:54:10.000Z</time>
      </trkpt>
      <trkpt lat="43.28708" lon="2.39142">
        <ele>148</ele>
        <time>2019-06-02T06:54:11.000Z</time>
      </trkpt>
      <trkpt lat="43.28706" lon="2.39141">
        <ele>147.9</ele>
        <time>2019-06-02T06:54:12.000Z</time>
      </trkpt>
      <trkpt lat="43.28704" lon="2.39141">
        <ele>147.8</ele>
        <time>2019-06-02T06:54:13.000Z</time>
      </trkpt>
      <trkpt lat="43.28701" lon="2.3914">
        <ele>147.7</ele>
        <time>2019-06-02T06:54:14.000Z</time>
      </trkpt>
      <trkpt lat="43.28699" lon="2.3914">
        <ele>147.6</ele>
        <time>2019-06-02T06:54:15.000Z</time>
      </trkpt>
      <trkpt lat="43.28697" lon="2.39139">
        <ele>147.5</ele>
        <time>2019-06-02T06:54:16.000Z</time>
      </trkpt>
      <trkpt lat="43.28694" lon="2.39138">
        <ele>147.4</ele>
        <time>2019-06-02T06:54:17.000Z</time>
      </trkpt>
      <trkpt lat="43.28692" lon="2.39137">
        <ele>147.3</ele>
        <time>2019-06-02T06:54:18.000Z</time>
      </trkpt>
      <trkpt lat="43.2869" lon="2.39136">
        <ele>147.2</ele>
        <time>2019-06-02T06:54:19.000Z</time>
      </trkpt>
      <trkpt lat="43.28687" lon="2.39135">
        <ele>147</ele>
        <time>2019-06-02T06:54:20.000Z</time>
      </trkpt>
      <trkpt lat="43.28685" lon="2.39134">
        <ele>146.9</ele>
        <time>2019-06-02T06:54:21.000Z</time>
      </trkpt>
      <trkpt lat="43.28682" lon="2.39133">
        <ele>146.8</ele>
        <time>2019-06-02T06:54:22.000Z</time>
      </trkpt>
      <trkpt lat="43.28679" lon="2.39132">
        <ele>146.7</ele>
        <time>2019-06-02T06:54:23.000Z</time>
      </trkpt>
      <trkpt lat="43.28677" lon="2.39131">
        <ele>146.5</ele>
        <time>2019-06-02T06:54:24.000Z</time>
      </trkpt>
      <trkpt lat="43.28674" lon="2.39129">
        <ele>146.4</ele>
        <time>2019-06-02T06:54:25.000Z</time>
      </trkpt>
      <trkpt lat="43.28672" lon="2.39128">
        <ele>146.3</ele>
        <time>2019-06-02T06:54:26.000Z</time>
      </trkpt>
      <trkpt lat="43.28669" lon="2.39127">
        <ele>146.1</ele>
        <time>2019-06-02T06:54:27.000Z</time>
      </trkpt>
      <trkpt lat="43.28666" lon="2.39126">
        <ele>146</ele>
        <time>2019-06-02T06:54:28.000Z</time>
      </trkpt>
      <trkpt lat="43.28664" lon="2.39125">
        <ele>145.8</ele>
        <time>2019-06-02T06:54:29.000Z</time>
      </trkpt>
      <trkpt lat="43.28661" lon="2.39124">
        <ele>145.7</ele>
        <time>2019-06-02T06:54:30.000Z</time>
      </trkpt>
      <trkpt lat="43.28659" lon="2.39123">
        <ele>145.5</ele>
        <time>2019-06-02T06:54:31.000Z</time>
      </trkpt>
      <trkpt lat="43.28656" lon="2.39122">
        <ele>145.3</ele>
        <time>2019-06-02T06:54:32.000Z</time>
      </trkpt>
      <trkpt lat="43.28653" lon="2.39122">
        <ele>145.1</ele>
        <time>2019-06-02T06:54:33.000Z</time>
      </trkpt>
      <trkpt lat="43.28651" lon="2.39121">
        <ele>144.9</ele>
        <time>2019-06-02T06:54:34.000Z</time>
      </trkpt>
      <trkpt lat="43.28648" lon="2.3912">
        <ele>144.7</ele>
        <time>2019-06-02T06:54:35.000Z</time>
      </trkpt>
      <trkpt lat="43.28646" lon="2.39119">
        <ele>144.6</ele>
        <time>2019-06-02T06:54:36.000Z</time>
      </trkpt>
      <trkpt lat="43.28644" lon="2.39119">
        <ele>144.5</ele>
        <time>2019-06-02T06:54:37.000Z</time>
      </trkpt>
      <trkpt lat="43.28643" lon="2.39118">
        <ele>144.4</ele>
        <time>2019-06-02T06:54:38.000Z</time>
      </trkpt>
      <trkpt lat="43.28643" lon="2.39117">
        <ele>144.3</ele>
        <time>2019-06-02T06:54:39.000Z</time>
      </trkpt>
      <trkpt lat="43.28643" lon="2.39117">
        <ele>144.3</ele>
        <time>2019-06-02T06:54:40.000Z</time>
      </trkpt>
      <trkpt lat="43.28643" lon="2.39117">
        <ele>144.3</ele>
        <time>2019-06-02T06:54:41.000Z</time>
      </trkpt>
      <trkpt lat="43.28643" lon="2.39117">
        <ele>144.3</ele>
        <time>2019-06-02T06:54:42.000Z</time>
      </trkpt>
      <trkpt lat="43.28643" lon="2.39117">
        <ele>144.3</ele>
        <time>2019-06-02T06:54:43.000Z</time>
      </trkpt>
      <trkpt lat="43.28643" lon="2.39117">
        <ele>144.3</ele>
        <time>2019-06-02T06:54:44.000Z</time>
      </trkpt>
      <trkpt lat="43.28643" lon="2.39117">
        <ele>144.3</ele>
        <time>2019-06-02T06:54:45.000Z</time>
      </trkpt>
      <trkpt lat="43.28643" lon="2.39117">
        <ele>144.3</ele>
        <time>2019-06-02T06:54:46.000Z</time>
      </trkpt>
      <trkpt lat="43.28643" lon="2.39117">
        <ele>144.3</ele>
        <time>2019-06-02T06:54:47.000Z</time>
      </trkpt>
      <trkpt lat="43.28643" lon="2.39117">
        <ele>144.3</ele>
        <time>2019-06-02T06:54:48.000Z</time>
      </trkpt>
      <trkpt lat="43.28642" lon="2.39116">
        <ele>144.2</ele>
        <time>2019-06-02T06:54:49.000Z</time>
      </trkpt>
      <trkpt lat="43.28643" lon="2.39114">
        <ele>144.2</ele>
        <time>2019-06-02T06:54:50.000Z</time>
      </trkpt>
      <trkpt lat="43.28643" lon="2.39112">
        <ele>144.1</ele>
        <time>2019-06-02T06:54:51.000Z</time>
      </trkpt>
      <trkpt lat="43.28643" lon="2.39111">
        <ele>144</ele>
        <time>2019-06-02T06:54:52.000Z</time>
      </trkpt>
      <trkpt lat="43.28643" lon="2.3911">
        <ele>144</ele>
        <time>2019-06-02T06:54:53.000Z</time>
      </trkpt>
      <trkpt lat="43.28643" lon="2.3911">
        <ele>144</ele>
        <time>2019-06-02T06:54:54.000Z</time>
      </trkpt>
      <trkpt lat="43.28643" lon="2.3911">
        <ele>144</ele>
        <time>2019-06-02T06:54:55.000Z</time>
      </trkpt>
      <trkpt lat="43.28643" lon="2.3911">
        <ele>144</ele>
        <time>2019-06-02T06:54:56.000Z</time>
      </trkpt>
      <trkpt lat="43.28643" lon="2.3911">
        <ele>144</ele>
        <time>2019-06-02T06:54:57.000Z</time>
      </trkpt>
      <trkpt lat="43.28643" lon="2.3911">
        <ele>144</ele>
        <time>2019-06-02T06:54:58.000Z</time>
      </trkpt>
      <trkpt lat="43.28643" lon="2.3911">
        <ele>144</ele>
        <time>2019-06-02T06:54:59.000Z</time>
      </trkpt>
      <trkpt lat="43.28643" lon="2.3911">
        <ele>144</ele>
        <time>2019-06-02T06:55:00.000Z</time>
      </trkpt>
      <trkpt lat="43.28643" lon="2.3911">
        <ele>144</ele>
        <time>2019-06-02T06:55:01.000Z</time>
      </trkpt>
      <trkpt lat="43.28643" lon="2.3911">
        <ele>144</ele>
        <time>2019-06-02T06:55:02.000Z</time>
      </trkpt>
      <trkpt lat="43.28643" lon="2.3911">
        <ele>144</ele>
        <time>2019-06-02T06:55:03.000Z</time>
      </trkpt>
      <trkpt lat="43.28643" lon="2.3911">
        <ele>144</ele>
        <time>2019-06-02T06:55:04.000Z</time>
      </trkpt>
      <trkpt lat="43.28643" lon="2.3911">
        <ele>144</ele>
        <time>2019-06-02T06:55:05.000Z</time>
      </trkpt>
      <trkpt lat="43.28643" lon="2.3911">
        <ele>144</ele>
        <time>2019-06-02T06:55:06.000Z</time>
      </trkpt>
      <trkpt lat="43.28643" lon="2.3911">
        <ele>144</ele>
        <time>2019-06-02T06:55:07.000Z</time>
      </trkpt>
      <trkpt lat="43.28643" lon="2.3911">
        <ele>144</ele>
        <time>2019-06-02T06:55:08.000Z</time>
      </trkpt>
      <trkpt lat="43.28643" lon="2.3911">
        <ele>144</ele>
        <time>2019-06-02T06:55:09.000Z</time>
      </trkpt>
      <trkpt lat="43.28643" lon="2.3911">
        <ele>144</ele>
        <time>2019-06-02T06:55:10.000Z</time>
      </trkpt>
      <trkpt lat="43.28643" lon="2.3911">
        <ele>144</ele>
        <time>2019-06-02T06:55:11.000Z</time>
      </trkpt>
      <trkpt lat="43.28643" lon="2.3911">
        <ele>144</ele>
        <time>2019-06-02T06:55:12.000Z</time>
      </trkpt>
      <trkpt lat="43.28643" lon="2.3911">
        <ele>144</ele>
        <time>2019-06-02T06:55:13.000Z</time>
      </trkpt>
      <trkpt lat="43.28643" lon="2.3911">
        <ele>144</ele>
        <time>2019-06-02T06:55:14.000Z</time>
      </trkpt>
      <trkpt lat="43.28644" lon="2.39109">
        <ele>143.9</ele>
        <time>2019-06-02T06:55:15.000Z</time>
      </trkpt>
      <trkpt lat="43.28645" lon="2.39107">
        <ele>143.9</ele>
        <time>2019-06-02T06:55:16.000Z</time>
      </trkpt>
      <trkpt lat="43.28646" lon="2.39106">
        <ele>143.9</ele>
        <time>2019-06-02T06:55:17.000Z</time>
      </trkpt>
      <trkpt lat="43.28647" lon="2.39105">
        <ele>143.9</ele>
        <time>2019-06-02T06:55:18.000Z</time>
      </trkpt>
      <trkpt lat="43.28648" lon="2.39104">
        <ele>144</ele>
        <time>2019-06-02T06:55:19.000Z</time>
      </trkpt>
      <trkpt lat="43.28649" lon="2.39104">
        <ele>144</ele>
        <time>2019-06-02T06:55:20.000Z</time>
      </trkpt>
      <trkpt lat="43.2865" lon="2.39105">
        <ele>144</ele>
        <time>2019-06-02T06:55:21.000Z</time>
      </trkpt>
      <trkpt lat="43.2865" lon="2.39105">
        <ele>144</ele>
        <time>2019-06-02T06:55:22.000Z</time>
      </trkpt>
      <trkpt lat="43.2865" lon="2.39105">
        <ele>144.1</ele>
        <time>2019-06-02T06:55:23.000Z</time>
      </trkpt>
      <trkpt lat="43.2865" lon="2.39105">
        <ele>144.1</ele>
        <time>2019-06-02T06:55:24.000Z</time>
      </trkpt>
      <trkpt lat="43.2865" lon="2.39104">
        <ele>144</ele>
        <time>2019-06-02T06:55:25.000Z</time>
      </trkpt>
      <trkpt lat="43.2865" lon="2.39104">
        <ele>144</ele>
        <time>2019-06-02T06:55:26.000Z</time>
      </trkpt>
      <trkpt lat="43.2865" lon="2.39104">
        <ele>144</ele>
        <time>2019-06-02T06:55:27.000Z</time>
      </trkpt>
      <trkpt lat="43.2865" lon="2.39104">
        <ele>144.1</ele>
        <time>2019-06-02T06:55:28.000Z</time>
      </trkpt>
      <trkpt lat="43.2865" lon="2.39104">
        <ele>144.1</ele>
        <time>2019-06-02T06:55:29.000Z</time>
      </trkpt>
      <trkpt lat="43.2865" lon="2.39104">
        <ele>144.1</ele>
        <time>2019-06-02T06:55:30.000Z</time>
      </trkpt>
      <trkpt lat="43.2865" lon="2.39104">
        <ele>144.1</ele>
        <time>2019-06-02T06:55:31.000Z</time>
      </trkpt>
      <trkpt lat="43.2865" lon="2.39104">
        <ele>144.1</ele>
        <time>2019-06-02T06:55:32.000Z</time>
      </trkpt>
      <trkpt lat="43.2865" lon="2.39104">
        <ele>144.1</ele>
        <time>2019-06-02T06:55:33.000Z</time>
      </trkpt>
      <trkpt lat="43.2865" lon="2.39104">
        <ele>144.1</ele>
        <time>2019-06-02T06:55:34.000Z</time>
      </trkpt>
      <trkpt lat="43.2865" lon="2.39104">
        <ele>144.1</ele>
        <time>2019-06-02T06:55:35.000Z</time>
      </trkpt>
      <trkpt lat="43.2865" lon="2.39104">
        <ele>144.1</ele>
        <time>2019-06-02T06:55:36.000Z</time>
      </trkpt>
      <trkpt lat="43.2865" lon="2.39104">
        <ele>144.1</ele>
        <time>2019-06-02T06:55:37.000Z</time>
      </trkpt>
      <trkpt lat="43.2865" lon="2.39104">
        <ele>144.1</ele>
        <time>2019-06-02T06:55:38.000Z</time>
      </trkpt>
      <trkpt lat="43.2865" lon="2.39104">
        <ele>144.1</ele>
        <time>2019-06-02T06:55:39.000Z</time>
      </trkpt>
      <trkpt lat="43.2865" lon="2.39104">
        <ele>144.1</ele>
        <time>2019-06-02T06:55:40.000Z</time>
      </trkpt>
      <trkpt lat="43.2865" lon="2.39104">
        <ele>144.1</ele>
        <time>2019-06-02T06:55:41.000Z</time>
      </trkpt>
      <trkpt lat="43.2865" lon="2.39104">
        <ele>144.1</ele>
        <time>2019-06-02T06:55:42.000Z</time>
      </trkpt>
      <trkpt lat="43.2865" lon="2.39104">
        <ele>144.1</ele>
        <time>2019-06-02T06:55:43.000Z</time>
      </trkpt>
      <trkpt lat="43.2865" lon="2.39104">
        <ele>144.1</ele>
        <time>2019-06-02T06:55:44.000Z</time>
      </trkpt>
      <trkpt lat="43.2865" lon="2.39104">
        <ele>144.1</ele>
        <time>2019-06-02T06:55:45.000Z</time>
      </trkpt>
      <trkpt lat="43.2865" lon="2.39104">
        <ele>144.1</ele>
        <time>2019-06-02T06:55:46.000Z</time>
      </trkpt>
      <trkpt lat="43.2865" lon="2.39104">
        <ele>144.1</ele>
        <time>2019-06-02T06:55:47.000Z</time>
      </trkpt>
      <trkpt lat="43.2865" lon="2.39104">
        <ele>144.1</ele>
        <time>2019-06-02T06:55:48.000Z</time>
      </trkpt>
      <trkpt lat="43.2865" lon="2.39104">
        <ele>144.1</ele>
        <time>2019-06-02T06:55:49.000Z</time>
      </trkpt>
      <trkpt lat="43.2865" lon="2.39104">
        <ele>144.1</ele>
        <time>2019-06-02T06:55:50.000Z</time>
      </trkpt>
      <trkpt lat="43.2865" lon="2.39104">
        <ele>144.1</ele>
        <time>2019-06-02T06:55:51.000Z</time>
      </trkpt>
      <trkpt lat="43.2865" lon="2.39104">
        <ele>144.1</ele>
        <time>2019-06-02T06:55:52.000Z</time>
      </trkpt>
      <trkpt lat="43.2865" lon="2.39104">
        <ele>144.1</ele>
        <time>2019-06-02T06:55:53.000Z</time>
      </trkpt>
      <trkpt lat="43.2865" lon="2.39104">
        <ele>144.1</ele>
        <time>2019-06-02T06:55:54.000Z</time>
      </trkpt>
      <trkpt lat="43.2865" lon="2.39104">
        <ele>144.1</ele>
        <time>2019-06-02T06:55:55.000Z</time>
      </trkpt>
      <trkpt lat="43.2865" lon="2.39104">
        <ele>144.1</ele>
        <time>2019-06-02T06:55:56.000Z</time>
      </trkpt>
      <trkpt lat="43.2865" lon="2.39104">
        <ele>144.1</ele>
        <time>2019-06-02T06:55:57.000Z</time>
      </trkpt>
      <trkpt lat="43.2865" lon="2.39104">
        <ele>144.1</ele>
        <time>2019-06-02T06:55:58.000Z</time>
      </trkpt>
      <trkpt lat="43.2865" lon="2.39104">
        <ele>144.1</ele>
        <time>2019-06-02T06:55:59.000Z</time>
      </trkpt>
      <trkpt lat="43.2865" lon="2.39104">
        <ele>144.1</ele>
        <time>2019-06-02T06:56:00.000Z</time>
      </trkpt>
      <trkpt lat="43.2865" lon="2.39104">
        <ele>144.1</ele>
        <time>2019-06-02T06:56:01.000Z</time>
      </trkpt>
      <trkpt lat="43.2865" lon="2.39104">
        <ele>144.1</ele>
        <time>2019-06-02T06:56:02.000Z</time>
      </trkpt>
      <trkpt lat="43.2865" lon="2.39104">
        <ele>144.1</ele>
        <time>2019-06-02T06:56:03.000Z</time>
      </trkpt>
      <trkpt lat="43.2865" lon="2.39104">
        <ele>144.1</ele>
        <time>2019-06-02T06:56:04.000Z</time>
      </trkpt>
      <trkpt lat="43.2865" lon="2.39104">
        <ele>144.1</ele>
        <time>2019-06-02T06:56:05.000Z</time>
      </trkpt>
      <trkpt lat="43.2865" lon="2.39104">
        <ele>144.1</ele>
        <time>2019-06-02T06:56:06.000Z</time>
      </trkpt>
      <trkpt lat="43.2865" lon="2.39104">
        <ele>144.1</ele>
        <time>2019-06-02T06:56:07.000Z</time>
      </trkpt>
      <trkpt lat="43.2865" lon="2.39104">
        <ele>144.1</ele>
        <time>2019-06-02T06:56:08.000Z</time>
      </trkpt>
      <trkpt lat="43.2865" lon="2.39104">
        <ele>144.1</ele>
        <time>2019-06-02T06:56:09.000Z</time>
      </trkpt>
      <trkpt lat="43.2865" lon="2.39104">
        <ele>144.1</ele>
        <time>2019-06-02T06:56:10.000Z</time>
      </trkpt>
      <trkpt lat="43.2865" lon="2.39104">
        <ele>144.1</ele>
        <time>2019-06-02T06:56:11.000Z</time>
      </trkpt>
      <trkpt lat="43.2865" lon="2.39104">
        <ele>144.1</ele>
        <time>2019-06-02T06:56:12.000Z</time>
      </trkpt>
      <trkpt lat="43.2865" lon="2.39104">
        <ele>144.1</ele>
        <time>2019-06-02T06:56:13.000Z</time>
      </trkpt>
      <trkpt lat="43.2865" lon="2.39104">
        <ele>144.1</ele>
        <time>2019-06-02T06:56:14.000Z</time>
      </trkpt>
      <trkpt lat="43.2865" lon="2.39104">
        <ele>144.1</ele>
        <time>2019-06-02T06:56:15.000Z</time>
      </trkpt>
      <trkpt lat="43.2865" lon="2.39104">
        <ele>144.1</ele>
        <time>2019-06-02T06:56:16.000Z</time>
      </trkpt>
      <trkpt lat="43.2865" lon="2.39104">
        <ele>144.1</ele>
        <time>2019-06-02T06:56:17.000Z</time>
      </trkpt>
      <trkpt lat="43.2865" lon="2.39104">
        <ele>144.1</ele>
        <time>2019-06-02T06:56:18.000Z</time>
      </trkpt>
      <trkpt lat="43.2865" lon="2.39104">
        <ele>144.1</ele>
        <time>2019-06-02T06:56:19.000Z</time>
      </trkpt>
      <trkpt lat="43.2865" lon="2.39104">
        <ele>144.1</ele>
        <time>2019-06-02T06:56:20.000Z</time>
      </trkpt>
      <trkpt lat="43.2865" lon="2.39104">
        <ele>144.1</ele>
        <time>2019-06-02T06:56:21.000Z</time>
      </trkpt>
      <trkpt lat="43.2865" lon="2.39104">
        <ele>144.1</ele>
        <time>2019-06-02T06:56:22.000Z</time>
      </trkpt>
      <trkpt lat="43.2865" lon="2.39104">
        <ele>144.1</ele>
        <time>2019-06-02T06:56:23.000Z</time>
      </trkpt>
      <trkpt lat="43.2865" lon="2.39104">
        <ele>144.1</ele>
        <time>2019-06-02T06:56:24.000Z</time>
      </trkpt>
      <trkpt lat="43.2865" lon="2.39104">
        <ele>144.1</ele>
        <time>2019-06-02T06:56:25.000Z</time>
      </trkpt>
      <trkpt lat="43.2865" lon="2.39104">
        <ele>144.1</ele>
        <time>2019-06-02T06:56:26.000Z</time>
      </trkpt>
      <trkpt lat="43.2865" lon="2.39104">
        <ele>144.1</ele>
        <time>2019-06-02T06:56:27.000Z</time>
      </trkpt>
      <trkpt lat="43.2865" lon="2.39104">
        <ele>144.1</ele>
        <time>2019-06-02T06:56:28.000Z</time>
      </trkpt>
      <trkpt lat="43.2865" lon="2.39104">
        <ele>144.1</ele>
        <time>2019-06-02T06:56:29.000Z</time>
      </trkpt>
      <trkpt lat="43.2865" lon="2.39104">
        <ele>144.1</ele>
        <time>2019-06-02T06:56:30.000Z</time>
      </trkpt>
      <trkpt lat="43.2865" lon="2.39104">
        <ele>144.1</ele>
        <time>2019-06-02T06:56:31.000Z</time>
      </trkpt>
      <trkpt lat="43.2865" lon="2.39104">
        <ele>144.1</ele>
        <time>2019-06-02T06:56:32.000Z</time>
      </trkpt>
      <trkpt lat="43.2865" lon="2.39104">
        <ele>144.1</ele>
        <time>2019-06-02T06:56:33.000Z</time>
      </trkpt>
      <trkpt lat="43.2865" lon="2.39104">
        <ele>144.1</ele>
        <time>2019-06-02T06:56:34.000Z</time>
      </trkpt>
      <trkpt lat="43.2865" lon="2.39104">
        <ele>144.1</ele>
        <time>2019-06-02T06:56:35.000Z</time>
      </trkpt>
      <trkpt lat="43.2865" lon="2.39104">
        <ele>144.1</ele>
        <time>2019-06-02T06:56:36.000Z</time>
      </trkpt>
      <trkpt lat="43.2865" lon="2.39104">
        <ele>144.1</ele>
        <time>2019-06-02T06:56:37.000Z</time>
      </trkpt>
      <trkpt lat="43.2865" lon="2.39104">
        <ele>144.1</ele>
        <time>2019-06-02T06:56:38.000Z</time>
      </trkpt>
      <trkpt lat="43.2865" lon="2.39104">
        <ele>144.1</ele>
        <time>2019-06-02T06:56:39.000Z</time>
      </trkpt>
      <trkpt lat="43.2865" lon="2.39104">
        <ele>144.1</ele>
        <time>2019-06-02T06:56:40.000Z</time>
      </trkpt>
      <trkpt lat="43.2865" lon="2.39104">
        <ele>144.1</ele>
        <time>2019-06-02T06:56:41.000Z</time>
      </trkpt>
      <trkpt lat="43.2865" lon="2.39104">
        <ele>144.1</ele>
        <time>2019-06-02T06:56:42.000Z</time>
      </trkpt>
      <trkpt lat="43.2865" lon="2.39104">
        <ele>144.1</ele>
        <time>2019-06-02T06:56:43.000Z</time>
      </trkpt>
      <trkpt lat="43.28651" lon="2.39104">
        <ele>144.1</ele>
        <time>2019-06-02T06:56:44.000Z</time>
      </trkpt>
      <trkpt lat="43.28651" lon="2.39104">
        <ele>144.1</ele>
        <time>2019-06-02T06:56:45.000Z</time>
      </trkpt>
      <trkpt lat="43.28652" lon="2.39103">
        <ele>144.1</ele>
        <time>2019-06-02T06:56:46.000Z</time>
      </trkpt>
      <trkpt lat="43.28653" lon="2.39103">
        <ele>144.2</ele>
        <time>2019-06-02T06:56:47.000Z</time>
      </trkpt>
      <trkpt lat="43.28655" lon="2.39102">
        <ele>144.2</ele>
        <time>2019-06-02T06:56:48.000Z</time>
      </trkpt>
      <trkpt lat="43.28657" lon="2.39101">
        <ele>144.3</ele>
        <time>2019-06-02T06:56:49.000Z</time>
      </trkpt>
      <trkpt lat="43.28659" lon="2.391">
        <ele>144.3</ele>
        <time>2019-06-02T06:56:50.000Z</time>
      </trkpt>
      <trkpt lat="43.2866" lon="2.39099">
        <ele>144.4</ele>
        <time>2019-06-02T06:56:51.000Z</time>
      </trkpt>
      <trkpt lat="43.28661" lon="2.39098">
        <ele>144.4</ele>
        <time>2019-06-02T06:56:52.000Z</time>
      </trkpt>
      <trkpt lat="43.28662" lon="2.39097">
        <ele>144.4</ele>
        <time>2019-06-02T06:56:53.000Z</time>
      </trkpt>
      <trkpt lat="43.28664" lon="2.39096">
        <ele>144.4</ele>
        <time>2019-06-02T06:56:54.000Z</time>
      </trkpt>
      <trkpt lat="43.28665" lon="2.39096">
        <ele>144.5</ele>
        <time>2019-06-02T06:56:55.000Z</time>
      </trkpt>
      <trkpt lat="43.28667" lon="2.39096">
        <ele>144.6</ele>
        <time>2019-06-02T06:56:56.000Z</time>
      </trkpt>
      <trkpt lat="43.28669" lon="2.39096">
        <ele>144.6</ele>
        <time>2019-06-02T06:56:57.000Z</time>
      </trkpt>
      <trkpt lat="43.28672" lon="2.39096">
        <ele>144.7</ele>
        <time>2019-06-02T06:56:58.000Z</time>
      </trkpt>
      <trkpt lat="43.28674" lon="2.39097">
        <ele>144.8</ele>
        <time>2019-06-02T06:56:59.000Z</time>
      </trkpt>
      <trkpt lat="43.28676" lon="2.39098">
        <ele>144.8</ele>
        <time>2019-06-02T06:57:00.000Z</time>
      </trkpt>
      <trkpt lat="43.28678" lon="2.39099">
        <ele>144.9</ele>
        <time>2019-06-02T06:57:01.000Z</time>
      </trkpt>
      <trkpt lat="43.2868" lon="2.391">
        <ele>145</ele>
        <time>2019-06-02T06:57:02.000Z</time>
      </trkpt>
      <trkpt lat="43.28682" lon="2.39101">
        <ele>145.1</ele>
        <time>2019-06-02T06:57:03.000Z</time>
      </trkpt>
      <trkpt lat="43.28684" lon="2.39102">
        <ele>145.2</ele>
        <time>2019-06-02T06:57:04.000Z</time>
      </trkpt>
      <trkpt lat="43.28686" lon="2.39103">
        <ele>145.3</ele>
        <time>2019-06-02T06:57:05.000Z</time>
      </trkpt>
      <trkpt lat="43.28688" lon="2.39104">
        <ele>145.4</ele>
        <time>2019-06-02T06:57:06.000Z</time>
      </trkpt>
      <trkpt lat="43.2869" lon="2.39105">
        <ele>145.5</ele>
        <time>2019-06-02T06:57:07.000Z</time>
      </trkpt>
      <trkpt lat="43.28692" lon="2.39105">
        <ele>145.5</ele>
        <time>2019-06-02T06:57:08.000Z</time>
      </trkpt>
      <trkpt lat="43.28695" lon="2.39106">
        <ele>145.6</ele>
        <time>2019-06-02T06:57:09.000Z</time>
      </trkpt>
      <trkpt lat="43.28697" lon="2.39106">
        <ele>145.6</ele>
        <time>2019-06-02T06:57:10.000Z</time>
      </trkpt>
      <trkpt lat="43.287" lon="2.39105">
        <ele>145.7</ele>
        <time>2019-06-02T06:57:11.000Z</time>
      </trkpt>
      <trkpt lat="43.28702" lon="2.39105">
        <ele>145.7</ele>
        <time>2019-06-02T06:57:12.000Z</time>
      </trkpt>
      <trkpt lat="43.28705" lon="2.39104">
        <ele>145.7</ele>
        <time>2019-06-02T06:57:13.000Z</time>
      </trkpt>
      <trkpt lat="43.28707" lon="2.39104">
        <ele>145.7</ele>
        <time>2019-06-02T06:57:14.000Z</time>
      </trkpt>
      <trkpt lat="43.2871" lon="2.39103">
        <ele>145.7</ele>
        <time>2019-06-02T06:57:15.000Z</time>
      </trkpt>
      <trkpt lat="43.28712" lon="2.39102">
        <ele>145.7</ele>
        <time>2019-06-02T06:57:16.000Z</time>
      </trkpt>
      <trkpt lat="43.28714" lon="2.391">
        <ele>145.6</ele>
        <time>2019-06-02T06:57:17.000Z</time>
      </trkpt>
      <trkpt lat="43.28717" lon="2.39099">
        <ele>145.6</ele>
        <time>2019-06-02T06:57:18.000Z</time>
      </trkpt>
      <trkpt lat="43.28719" lon="2.39098">
        <ele>145.5</ele>
        <time>2019-06-02T06:57:19.000Z</time>
      </trkpt>
      <trkpt lat="43.28721" lon="2.39096">
        <ele>145.5</ele>
        <time>2019-06-02T06:57:20.000Z</time>
      </trkpt>
      <trkpt lat="43.28723" lon="2.39095">
        <ele>145.4</ele>
        <time>2019-06-02T06:57:21.000Z</time>
      </trkpt>
      <trkpt lat="43.28726" lon="2.39093">
        <ele>145.4</ele>
        <time>2019-06-02T06:57:22.000Z</time>
      </trkpt>
      <trkpt lat="43.28728" lon="2.39092">
        <ele>145.3</ele>
        <time>2019-06-02T06:57:23.000Z</time>
      </trkpt>
      <trkpt lat="43.2873" lon="2.39091">
        <ele>145.2</ele>
        <time>2019-06-02T06:57:24.000Z</time>
      </trkpt>
      <trkpt lat="43.28733" lon="2.39089">
        <ele>145.2</ele>
        <time>2019-06-02T06:57:25.000Z</time>
      </trkpt>
      <trkpt lat="43.28735" lon="2.39088">
        <ele>145.1</ele>
        <time>2019-06-02T06:57:26.000Z</time>
      </trkpt>
      <trkpt lat="43.28737" lon="2.39087">
        <ele>145.1</ele>
        <time>2019-06-02T06:57:27.000Z</time>
      </trkpt>
      <trkpt lat="43.2874" lon="2.39086">
        <ele>145</ele>
        <time>2019-06-02T06:57:28.000Z</time>
      </trkpt>
      <trkpt lat="43.28742" lon="2.39085">
        <ele>145</ele>
        <time>2019-06-02T06:57:29.000Z</time>
      </trkpt>
      <trkpt lat="43.28744" lon="2.39084">
        <ele>144.9</ele>
        <time>2019-06-02T06:57:30.000Z</time>
      </trkpt>
      <trkpt lat="43.28746" lon="2.39082">
        <ele>145</ele>
        <time>2019-06-02T06:57:31.000Z</time>
      </trkpt>
      <trkpt lat="43.28748" lon="2.39081">
        <ele>145.1</ele>
        <time>2019-06-02T06:57:32.000Z</time>
      </trkpt>
      <trkpt lat="43.2875" lon="2.3908">
        <ele>145.2</ele>
        <time>2019-06-02T06:57:33.000Z</time>
      </trkpt>
      <trkpt lat="43.28752" lon="2.39079">
        <ele>145.2</ele>
        <time>2019-06-02T06:57:34.000Z</time>
      </trkpt>
      <trkpt lat="43.28754" lon="2.39078">
        <ele>145.3</ele>
        <time>2019-06-02T06:57:35.000Z</time>
      </trkpt>
      <trkpt lat="43.28756" lon="2.39076">
        <ele>145.4</ele>
        <time>2019-06-02T06:57:36.000Z</time>
      </trkpt>
      <trkpt lat="43.28758" lon="2.39075">
        <ele>145.5</ele>
        <time>2019-06-02T06:57:37.000Z</time>
      </trkpt>
      <trkpt lat="43.2876" lon="2.39074">
        <ele>145.6</ele>
        <time>2019-06-02T06:57:38.000Z</time>
      </trkpt>
      <trkpt lat="43.28762" lon="2.39072">
        <ele>145.7</ele>
        <time>2019-06-02T06:57:39.000Z</time>
      </trkpt>
      <trkpt lat="43.28765" lon="2.39071">
        <ele>145.9</ele>
        <time>2019-06-02T06:57:40.000Z</time>
      </trkpt>
      <trkpt lat="43.28767" lon="2.3907">
        <ele>146</ele>
        <time>2019-06-02T06:57:41.000Z</time>
      </trkpt>
      <trkpt lat="43.28769" lon="2.39068">
        <ele>146.1</ele>
        <time>2019-06-02T06:57:42.000Z</time>
      </trkpt>
      <trkpt lat="43.28772" lon="2.39067">
        <ele>146.2</ele>
        <time>2019-06-02T06:57:43.000Z</time>
      </trkpt>
      <trkpt lat="43.28774" lon="2.39066">
        <ele>146.4</ele>
        <time>2019-06-02T06:57:44.000Z</time>
      </trkpt>
      <trkpt lat="43.28777" lon="2.39065">
        <ele>146.5</ele>
        <time>2019-06-02T06:57:45.000Z</time>
      </trkpt>
      <trkpt lat="43.28779" lon="2.39063">
        <ele>146.7</ele>
        <time>2019-06-02T06:57:46.000Z</time>
      </trkpt>
      <trkpt lat="43.28782" lon="2.39062">
        <ele>146.8</ele>
        <time>2019-06-02T06:57:47.000Z</time>
      </trkpt>
      <trkpt lat="43.28785" lon="2.39061">
        <ele>146.9</ele>
        <time>2019-06-02T06:57:48.000Z</time>
      </trkpt>
      <trkpt lat="43.28787" lon="2.3906">
        <ele>147.1</ele>
        <time>2019-06-02T06:57:49.000Z</time>
      </trkpt>
      <trkpt lat="43.2879" lon="2.39059">
        <ele>147.2</ele>
        <time>2019-06-02T06:57:50.000Z</time>
      </trkpt>
      <trkpt lat="43.28793" lon="2.39059">
        <ele>147.3</ele>
        <time>2019-06-02T06:57:51.000Z</time>
      </trkpt>
      <trkpt lat="43.28795" lon="2.39058">
        <ele>147.4</ele>
        <time>2019-06-02T06:57:52.000Z</time>
      </trkpt>
      <trkpt lat="43.28798" lon="2.39057">
        <ele>147.5</ele>
        <time>2019-06-02T06:57:53.000Z</time>
      </trkpt>
      <trkpt lat="43.28801" lon="2.39057">
        <ele>147.6</ele>
        <time>2019-06-02T06:57:54.000Z</time>
      </trkpt>
      <trkpt lat="43.28804" lon="2.39057">
        <ele>147.7</ele>
        <time>2019-06-02T06:57:55.000Z</time>
      </trkpt>
      <trkpt lat="43.28806" lon="2.39057">
        <ele>147.8</ele>
        <time>2019-06-02T06:57:56.000Z</time>
      </trkpt>
      <trkpt lat="43.28809" lon="2.39056">
        <ele>147.9</ele>
        <time>2019-06-02T06:57:57.000Z</time>
      </trkpt>
      <trkpt lat="43.28812" lon="2.39056">
        <ele>148</ele>
        <time>2019-06-02T06:57:58.000Z</time>
      </trkpt>
      <trkpt lat="43.28814" lon="2.39057">
        <ele>148.1</ele>
        <time>2019-06-02T06:57:59.000Z</time>
      </trkpt>
      <trkpt lat="43.28817" lon="2.39057">
        <ele>148.1</ele>
        <time>2019-06-02T06:58:00.000Z</time>
      </trkpt>
      <trkpt lat="43.2882" lon="2.39057">
        <ele>148.2</ele>
        <time>2019-06-02T06:58:01.000Z</time>
      </trkpt>
      <trkpt lat="43.28822" lon="2.39057">
        <ele>148.2</ele>
        <time>2019-06-02T06:58:02.000Z</time>
      </trkpt>
      <trkpt lat="43.28825" lon="2.39058">
        <ele>148.3</ele>
        <time>2019-06-02T06:58:03.000Z</time>
      </trkpt>
      <trkpt lat="43.28828" lon="2.39058">
        <ele>148.3</ele>
        <time>2019-06-02T06:58:04.000Z</time>
      </trkpt>
      <trkpt lat="43.2883" lon="2.39058">
        <ele>148.3</ele>
        <time>2019-06-02T06:58:05.000Z</time>
      </trkpt>
      <trkpt lat="43.28833" lon="2.39059">
        <ele>148.3</ele>
        <time>2019-06-02T06:58:06.000Z</time>
      </trkpt>
      <trkpt lat="43.28835" lon="2.39059">
        <ele>148.4</ele>
        <time>2019-06-02T06:58:07.000Z</time>
      </trkpt>
      <trkpt lat="43.28838" lon="2.3906">
        <ele>148.5</ele>
        <time>2019-06-02T06:58:08.000Z</time>
      </trkpt>
      <trkpt lat="43.2884" lon="2.3906">
        <ele>148.6</ele>
        <time>2019-06-02T06:58:09.000Z</time>
      </trkpt>
      <trkpt lat="43.28843" lon="2.39061">
        <ele>148.7</ele>
        <time>2019-06-02T06:58:10.000Z</time>
      </trkpt>
      <trkpt lat="43.28845" lon="2.39062">
        <ele>148.8</ele>
        <time>2019-06-02T06:58:11.000Z</time>
      </trkpt>
      <trkpt lat="43.28848" lon="2.39062">
        <ele>148.9</ele>
        <time>2019-06-02T06:58:12.000Z</time>
      </trkpt>
      <trkpt lat="43.2885" lon="2.39063">
        <ele>149</ele>
        <time>2019-06-02T06:58:13.000Z</time>
      </trkpt>
      <trkpt lat="43.28852" lon="2.39063">
        <ele>149.1</ele>
        <time>2019-06-02T06:58:14.000Z</time>
      </trkpt>
      <trkpt lat="43.28855" lon="2.39064">
        <ele>149.2</ele>
        <time>2019-06-02T06:58:15.000Z</time>
      </trkpt>
      <trkpt lat="43.28857" lon="2.39064">
        <ele>149.2</ele>
        <time>2019-06-02T06:58:16.000Z</time>
      </trkpt>
      <trkpt lat="43.28859" lon="2.39065">
        <ele>149.3</ele>
        <time>2019-06-02T06:58:17.000Z</time>
      </trkpt>
      <trkpt lat="43.28861" lon="2.39065">
        <ele>149.4</ele>
        <time>2019-06-02T06:58:18.000Z</time>
      </trkpt>
      <trkpt lat="43.28863" lon="2.39066">
        <ele>149.5</ele>
        <time>2019-06-02T06:58:19.000Z</time>
      </trkpt>
      <trkpt lat="43.28865" lon="2.39066">
        <ele>149.6</ele>
        <time>2019-06-02T06:58:20.000Z</time>
      </trkpt>
      <trkpt lat="43.28867" lon="2.39066">
        <ele>149.7</ele>
        <time>2019-06-02T06:58:21.000Z</time>
      </trkpt>
      <trkpt lat="43.28869" lon="2.39066">
        <ele>149.8</ele>
        <time>2019-06-02T06:58:22.000Z</time>
      </trkpt>
      <trkpt lat="43.28871" lon="2.39066">
        <ele>149.9</ele>
        <time>2019-06-02T06:58:23.000Z</time>
      </trkpt>
      <trkpt lat="43.28873" lon="2.39065">
        <ele>150.1</ele>
        <time>2019-06-02T06:58:24.000Z</time>
      </trkpt>
      <trkpt lat="43.28875" lon="2.39064">
        <ele>150.4</ele>
        <time>2019-06-02T06:58:25.000Z</time>
      </trkpt>
      <trkpt lat="43.28877" lon="2.39062">
        <ele>150.6</ele>
        <time>2019-06-02T06:58:26.000Z</time>
      </trkpt>
      <trkpt lat="43.28879" lon="2.39061">
        <ele>150.9</ele>
        <time>2019-06-02T06:58:27.000Z</time>
      </trkpt>
      <trkpt lat="43.2888" lon="2.39059">
        <ele>151.2</ele>
        <time>2019-06-02T06:58:28.000Z</time>
      </trkpt>
      <trkpt lat="43.28881" lon="2.39057">
        <ele>151.4</ele>
        <time>2019-06-02T06:58:29.000Z</time>
      </trkpt>
      <trkpt lat="43.28882" lon="2.39055">
        <ele>151.6</ele>
        <time>2019-06-02T06:58:30.000Z</time>
      </trkpt>
      <trkpt lat="43.28883" lon="2.39054">
        <ele>151.8</ele>
        <time>2019-06-02T06:58:31.000Z</time>
      </trkpt>
      <trkpt lat="43.28883" lon="2.39052">
        <ele>152</ele>
        <time>2019-06-02T06:58:32.000Z</time>
      </trkpt>
      <trkpt lat="43.28883" lon="2.39051">
        <ele>152.1</ele>
        <time>2019-06-02T06:58:33.000Z</time>
      </trkpt>
      <trkpt lat="43.28884" lon="2.39051">
        <ele>152.2</ele>
        <time>2019-06-02T06:58:34.000Z</time>
      </trkpt>
      <trkpt lat="43.28884" lon="2.3905">
        <ele>152.2</ele>
        <time>2019-06-02T06:58:35.000Z</time>
      </trkpt>
      <trkpt lat="43.28884" lon="2.3905">
        <ele>152.3</ele>
        <time>2019-06-02T06:58:36.000Z</time>
      </trkpt>
      <trkpt lat="43.28884" lon="2.3905">
        <ele>152.3</ele>
        <time>2019-06-02T06:58:37.000Z</time>
      </trkpt>
      <trkpt lat="43.28884" lon="2.3905">
        <ele>152.3</ele>
        <time>2019-06-02T06:58:38.000Z</time>
      </trkpt>
      <trkpt lat="43.28884" lon="2.3905">
        <ele>152.3</ele>
        <time>2019-06-02T06:58:39.000Z</time>
      </trkpt>
      <trkpt lat="43.28884" lon="2.39049">
        <ele>152.3</ele>
        <time>2019-06-02T06:58:40.000Z</time>
      </trkpt>
      <trkpt lat="43.28884" lon="2.39049">
        <ele>152.3</ele>
        <time>2019-06-02T06:58:41.000Z</time>
      </trkpt>
      <trkpt lat="43.28884" lon="2.39048">
        <ele>152.4</ele>
        <time>2019-06-02T06:58:42.000Z</time>
      </trkpt>
      <trkpt lat="43.28883" lon="2.39047">
        <ele>152.5</ele>
        <time>2019-06-02T06:58:43.000Z</time>
      </trkpt>
      <trkpt lat="43.28883" lon="2.39043">
        <ele>152.9</ele>
        <time>2019-06-02T06:58:44.000Z</time>
      </trkpt>
      <trkpt lat="43.28883" lon="2.3904">
        <ele>153.2</ele>
        <time>2019-06-02T06:58:45.000Z</time>
      </trkpt>
      <trkpt lat="43.28884" lon="2.39037">
        <ele>153.4</ele>
        <time>2019-06-02T06:58:46.000Z</time>
      </trkpt>
      <trkpt lat="43.28884" lon="2.39035">
        <ele>153.6</ele>
        <time>2019-06-02T06:58:47.000Z</time>
      </trkpt>
      <trkpt lat="43.28884" lon="2.39033">
        <ele>153.8</ele>
        <time>2019-06-02T06:58:48.000Z</time>
      </trkpt>
      <trkpt lat="43.28884" lon="2.39032">
        <ele>154</ele>
        <time>2019-06-02T06:58:49.000Z</time>
      </trkpt>
      <trkpt lat="43.28885" lon="2.3903">
        <ele>154.2</ele>
        <time>2019-06-02T06:58:50.000Z</time>
      </trkpt>
      <trkpt lat="43.28885" lon="2.39027">
        <ele>154.5</ele>
        <time>2019-06-02T06:58:51.000Z</time>
      </trkpt>
      <trkpt lat="43.28886" lon="2.39025">
        <ele>154.7</ele>
        <time>2019-06-02T06:58:52.000Z</time>
      </trkpt>
      <trkpt lat="43.28887" lon="2.39023">
        <ele>155</ele>
        <time>2019-06-02T06:58:53.000Z</time>
      </trkpt>
      <trkpt lat="43.28888" lon="2.3902">
        <ele>155.3</ele>
        <time>2019-06-02T06:58:54.000Z</time>
      </trkpt>
      <trkpt lat="43.28889" lon="2.39018">
        <ele>155.6</ele>
        <time>2019-06-02T06:58:55.000Z</time>
      </trkpt>
      <trkpt lat="43.2889" lon="2.39015">
        <ele>155.9</ele>
        <time>2019-06-02T06:58:56.000Z</time>
      </trkpt>
      <trkpt lat="43.28891" lon="2.39013">
        <ele>156.2</ele>
        <time>2019-06-02T06:58:57.000Z</time>
      </trkpt>
      <trkpt lat="43.28892" lon="2.39011">
        <ele>156.4</ele>
        <time>2019-06-02T06:58:58.000Z</time>
      </trkpt>
      <trkpt lat="43.28893" lon="2.39009">
        <ele>156.7</ele>
        <time>2019-06-02T06:58:59.000Z</time>
      </trkpt>
      <trkpt lat="43.28894" lon="2.39007">
        <ele>157</ele>
        <time>2019-06-02T06:59:00.000Z</time>
      </trkpt>
      <trkpt lat="43.28895" lon="2.39005">
        <ele>157.2</ele>
        <time>2019-06-02T06:59:01.000Z</time>
      </trkpt>
      <trkpt lat="43.28896" lon="2.39004">
        <ele>157.4</ele>
        <time>2019-06-02T06:59:02.000Z</time>
      </trkpt>
      <trkpt lat="43.28897" lon="2.39002">
        <ele>157.7</ele>
        <time>2019-06-02T06:59:03.000Z</time>
      </trkpt>
      <trkpt lat="43.28899" lon="2.39">
        <ele>157.9</ele>
        <time>2019-06-02T06:59:04.000Z</time>
      </trkpt>
      <trkpt lat="43.289" lon="2.38999">
        <ele>158</ele>
        <time>2019-06-02T06:59:05.000Z</time>
      </trkpt>
      <trkpt lat="43.28901" lon="2.38997">
        <ele>158.2</ele>
        <time>2019-06-02T06:59:06.000Z</time>
      </trkpt>
      <trkpt lat="43.28902" lon="2.38996">
        <ele>158.3</ele>
        <time>2019-06-02T06:59:07.000Z</time>
      </trkpt>
      <trkpt lat="43.28903" lon="2.38994">
        <ele>158.4</ele>
        <time>2019-06-02T06:59:08.000Z</time>
      </trkpt>
      <trkpt lat="43.28904" lon="2.38993">
        <ele>158.5</ele>
        <time>2019-06-02T06:59:09.000Z</time>
      </trkpt>
      <trkpt lat="43.28905" lon="2.38991">
        <ele>158.6</ele>
        <time>2019-06-02T06:59:10.000Z</time>
      </trkpt>
      <trkpt lat="43.28906" lon="2.3899">
        <ele>158.8</ele>
        <time>2019-06-02T06:59:11.000Z</time>
      </trkpt>
      <trkpt lat="43.28907" lon="2.38988">
        <ele>158.9</ele>
        <time>2019-06-02T06:59:12.000Z</time>
      </trkpt>
      <trkpt lat="43.28908" lon="2.38987">
        <ele>158.9</ele>
        <time>2019-06-02T06:59:13.000Z</time>
      </trkpt>
      <trkpt lat="43.28908" lon="2.38985">
        <ele>159</ele>
        <time>2019-06-02T06:59:14.000Z</time>
      </trkpt>
      <trkpt lat="43.28908" lon="2.38984">
        <ele>159.1</ele>
        <time>2019-06-02T06:59:15.000Z</time>
      </trkpt>
      <trkpt lat="43.28908" lon="2.38983">
        <ele>159.1</ele>
        <time>2019-06-02T06:59:16.000Z</time>
      </trkpt>
      <trkpt lat="43.28908" lon="2.38982">
        <ele>159.2</ele>
        <time>2019-06-02T06:59:17.000Z</time>
      </trkpt>
      <trkpt lat="43.28908" lon="2.3898">
        <ele>159.2</ele>
        <time>2019-06-02T06:59:18.000Z</time>
      </trkpt>
      <trkpt lat="43.28908" lon="2.38979">
        <ele>159.3</ele>
        <time>2019-06-02T06:59:19.000Z</time>
      </trkpt>
      <trkpt lat="43.28908" lon="2.38977">
        <ele>159.3</ele>
        <time>2019-06-02T06:59:20.000Z</time>
      </trkpt>
      <trkpt lat="43.28909" lon="2.38975">
        <ele>159.4</ele>
        <time>2019-06-02T06:59:21.000Z</time>
      </trkpt>
      <trkpt lat="43.28909" lon="2.38973">
        <ele>159.5</ele>
        <time>2019-06-02T06:59:22.000Z</time>
      </trkpt>
      <trkpt lat="43.28909" lon="2.38971">
        <ele>159.6</ele>
        <time>2019-06-02T06:59:23.000Z</time>
      </trkpt>
      <trkpt lat="43.2891" lon="2.38969">
        <ele>159.8</ele>
        <time>2019-06-02T06:59:24.000Z</time>
      </trkpt>
      <trkpt lat="43.2891" lon="2.38966">
        <ele>159.9</ele>
        <time>2019-06-02T06:59:25.000Z</time>
      </trkpt>
      <trkpt lat="43.28911" lon="2.38964">
        <ele>160</ele>
        <time>2019-06-02T06:59:26.000Z</time>
      </trkpt>
      <trkpt lat="43.28911" lon="2.38961">
        <ele>160.1</ele>
        <time>2019-06-02T06:59:27.000Z</time>
      </trkpt>
      <trkpt lat="43.28912" lon="2.38958">
        <ele>160.2</ele>
        <time>2019-06-02T06:59:28.000Z</time>
      </trkpt>
      <trkpt lat="43.28912" lon="2.38955">
        <ele>160.4</ele>
        <time>2019-06-02T06:59:29.000Z</time>
      </trkpt>
      <trkpt lat="43.28913" lon="2.38952">
        <ele>160.5</ele>
        <time>2019-06-02T06:59:30.000Z</time>
      </trkpt>
      <trkpt lat="43.28913" lon="2.38949">
        <ele>160.6</ele>
        <time>2019-06-02T06:59:31.000Z</time>
      </trkpt>
      <trkpt lat="43.28913" lon="2.38946">
        <ele>160.7</ele>
        <time>2019-06-02T06:59:32.000Z</time>
      </trkpt>
      <trkpt lat="43.28914" lon="2.38943">
        <ele>160.9</ele>
        <time>2019-06-02T06:59:33.000Z</time>
      </trkpt>
      <trkpt lat="43.28914" lon="2.3894">
        <ele>161</ele>
        <time>2019-06-02T06:59:34.000Z</time>
      </trkpt>
      <trkpt lat="43.28915" lon="2.38938">
        <ele>161.2</ele>
        <time>2019-06-02T06:59:35.000Z</time>
      </trkpt>
      <trkpt lat="43.28916" lon="2.38935">
        <ele>161.3</ele>
        <time>2019-06-02T06:59:36.000Z</time>
      </trkpt>
      <trkpt lat="43.28916" lon="2.38932">
        <ele>161.4</ele>
        <time>2019-06-02T06:59:37.000Z</time>
      </trkpt>
      <trkpt lat="43.28917" lon="2.38929">
        <ele>161.6</ele>
        <time>2019-06-02T06:59:38.000Z</time>
      </trkpt>
      <trkpt lat="43.28918" lon="2.38926">
        <ele>161.8</ele>
        <time>2019-06-02T06:59:39.000Z</time>
      </trkpt>
      <trkpt lat="43.28919" lon="2.38924">
        <ele>162</ele>
        <time>2019-06-02T06:59:40.000Z</time>
      </trkpt>
      <trkpt lat="43.2892" lon="2.38921">
        <ele>162.2</ele>
        <time>2019-06-02T06:59:41.000Z</time>
      </trkpt>
      <trkpt lat="43.28921" lon="2.38919">
        <ele>162.5</ele>
        <time>2019-06-02T06:59:42.000Z</time>
      </trkpt>
      <trkpt lat="43.28922" lon="2.38916">
        <ele>162.7</ele>
        <time>2019-06-02T06:59:43.000Z</time>
      </trkpt>
      <trkpt lat="43.28923" lon="2.38914">
        <ele>162.9</ele>
        <time>2019-06-02T06:59:44.000Z</time>
      </trkpt>
      <trkpt lat="43.28924" lon="2.38912">
        <ele>163.1</ele>
        <time>2019-06-02T06:59:45.000Z</time>
      </trkpt>
      <trkpt lat="43.28924" lon="2.3891">
        <ele>163.2</ele>
        <time>2019-06-02T06:59:46.000Z</time>
      </trkpt>
      <trkpt lat="43.28925" lon="2.38908">
        <ele>163.4</ele>
        <time>2019-06-02T06:59:47.000Z</time>
      </trkpt>
      <trkpt lat="43.28926" lon="2.38906">
        <ele>163.6</ele>
        <time>2019-06-02T06:59:48.000Z</time>
      </trkpt>
      <trkpt lat="43.28927" lon="2.38904">
        <ele>163.8</ele>
        <time>2019-06-02T06:59:49.000Z</time>
      </trkpt>
      <trkpt lat="43.28928" lon="2.38902">
        <ele>163.9</ele>
        <time>2019-06-02T06:59:50.000Z</time>
      </trkpt>
      <trkpt lat="43.28929" lon="2.38901">
        <ele>164.1</ele>
        <time>2019-06-02T06:59:51.000Z</time>
      </trkpt>
      <trkpt lat="43.2893" lon="2.38899">
        <ele>164.3</ele>
        <time>2019-06-02T06:59:52.000Z</time>
      </trkpt>
      <trkpt lat="43.28931" lon="2.38897">
        <ele>164.5</ele>
        <time>2019-06-02T06:59:53.000Z</time>
      </trkpt>
      <trkpt lat="43.28933" lon="2.38895">
        <ele>164.7</ele>
        <time>2019-06-02T06:59:54.000Z</time>
      </trkpt>
      <trkpt lat="43.28934" lon="2.38892">
        <ele>164.9</ele>
        <time>2019-06-02T06:59:55.000Z</time>
      </trkpt>
      <trkpt lat="43.28935" lon="2.3889">
        <ele>165.1</ele>
        <time>2019-06-02T06:59:56.000Z</time>
      </trkpt>
      <trkpt lat="43.28937" lon="2.38888">
        <ele>165.3</ele>
        <time>2019-06-02T06:59:57.000Z</time>
      </trkpt>
      <trkpt lat="43.28938" lon="2.38885">
        <ele>165.5</ele>
        <time>2019-06-02T06:59:58.000Z</time>
      </trkpt>
      <trkpt lat="43.28938" lon="2.38884">
        <ele>165.6</ele>
        <time>2019-06-02T06:59:59.000Z</time>
      </trkpt>
      <trkpt lat="43.28939" lon="2.38882">
        <ele>165.7</ele>
        <time>2019-06-02T07:00:00.000Z</time>
      </trkpt>
      <trkpt lat="43.28939" lon="2.3888">
        <ele>165.8</ele>
        <time>2019-06-02T07:00:01.000Z</time>
      </trkpt>
      <trkpt lat="43.28939" lon="2.38878">
        <ele>165.9</ele>
        <time>2019-06-02T07:00:02.000Z</time>
      </trkpt>
      <trkpt lat="43.2894" lon="2.38876">
        <ele>166</ele>
        <time>2019-06-02T07:00:03.000Z</time>
      </trkpt>
      <trkpt lat="43.2894" lon="2.38874">
        <ele>166.1</ele>
        <time>2019-06-02T07:00:04.000Z</time>
      </trkpt>
      <trkpt lat="43.28941" lon="2.38872">
        <ele>166.2</ele>
        <time>2019-06-02T07:00:05.000Z</time>
      </trkpt>
      <trkpt lat="43.28942" lon="2.38869">
        <ele>166.3</ele>
        <time>2019-06-02T07:00:06.000Z</time>
      </trkpt>
      <trkpt lat="43.28943" lon="2.38867">
        <ele>166.5</ele>
        <time>2019-06-02T07:00:07.000Z</time>
      </trkpt>
      <trkpt lat="43.28944" lon="2.38864">
        <ele>166.7</ele>
        <time>2019-06-02T07:00:08.000Z</time>
      </trkpt>
      <trkpt lat="43.28945" lon="2.38862">
        <ele>166.8</ele>
        <time>2019-06-02T07:00:09.000Z</time>
      </trkpt>
      <trkpt lat="43.28947" lon="2.3886">
        <ele>167</ele>
        <time>2019-06-02T07:00:10.000Z</time>
      </trkpt>
      <trkpt lat="43.28948" lon="2.38858">
        <ele>167.2</ele>
        <time>2019-06-02T07:00:11.000Z</time>
      </trkpt>
      <trkpt lat="43.2895" lon="2.38856">
        <ele>167.4</ele>
        <time>2019-06-02T07:00:12.000Z</time>
      </trkpt>
      <trkpt lat="43.28951" lon="2.38854">
        <ele>167.6</ele>
        <time>2019-06-02T07:00:13.000Z</time>
      </trkpt>
      <trkpt lat="43.28953" lon="2.38852">
        <ele>167.8</ele>
        <time>2019-06-02T07:00:14.000Z</time>
      </trkpt>
      <trkpt lat="43.28955" lon="2.3885">
        <ele>168</ele>
        <time>2019-06-02T07:00:15.000Z</time>
      </trkpt>
      <trkpt lat="43.28956" lon="2.38847">
        <ele>168.1</ele>
        <time>2019-06-02T07:00:16.000Z</time>
      </trkpt>
      <trkpt lat="43.28957" lon="2.38845">
        <ele>168.3</ele>
        <time>2019-06-02T07:00:17.000Z</time>
      </trkpt>
      <trkpt lat="43.28958" lon="2.38842">
        <ele>168.4</ele>
        <time>2019-06-02T07:00:18.000Z</time>
      </trkpt>
      <trkpt lat="43.2896" lon="2.38839">
        <ele>168.5</ele>
        <time>2019-06-02T07:00:19.000Z</time>
      </trkpt>
      <trkpt lat="43.28961" lon="2.38836">
        <ele>168.7</ele>
        <time>2019-06-02T07:00:20.000Z</time>
      </trkpt>
      <trkpt lat="43.28961" lon="2.38833">
        <ele>168.8</ele>
        <time>2019-06-02T07:00:21.000Z</time>
      </trkpt>
      <trkpt lat="43.28962" lon="2.3883">
        <ele>168.8</ele>
        <time>2019-06-02T07:00:22.000Z</time>
      </trkpt>
      <trkpt lat="43.28963" lon="2.38827">
        <ele>168.9</ele>
        <time>2019-06-02T07:00:23.000Z</time>
      </trkpt>
      <trkpt lat="43.28964" lon="2.38824">
        <ele>169</ele>
        <time>2019-06-02T07:00:24.000Z</time>
      </trkpt>
      <trkpt lat="43.28964" lon="2.38821">
        <ele>169</ele>
        <time>2019-06-02T07:00:25.000Z</time>
      </trkpt>
      <trkpt lat="43.28965" lon="2.38818">
        <ele>169.1</ele>
        <time>2019-06-02T07:00:26.000Z</time>
      </trkpt>
      <trkpt lat="43.28965" lon="2.38815">
        <ele>169.2</ele>
        <time>2019-06-02T07:00:27.000Z</time>
      </trkpt>
      <trkpt lat="43.28965" lon="2.38812">
        <ele>169.2</ele>
        <time>2019-06-02T07:00:28.000Z</time>
      </trkpt>
      <trkpt lat="43.28966" lon="2.38809">
        <ele>169.2</ele>
        <time>2019-06-02T07:00:29.000Z</time>
      </trkpt>
      <trkpt lat="43.28966" lon="2.38806">
        <ele>169.3</ele>
        <time>2019-06-02T07:00:30.000Z</time>
      </trkpt>
      <trkpt lat="43.28966" lon="2.38803">
        <ele>169.3</ele>
        <time>2019-06-02T07:00:31.000Z</time>
      </trkpt>
      <trkpt lat="43.28966" lon="2.388">
        <ele>169.3</ele>
        <time>2019-06-02T07:00:32.000Z</time>
      </trkpt>
      <trkpt lat="43.28967" lon="2.38797">
        <ele>169.4</ele>
        <time>2019-06-02T07:00:33.000Z</time>
      </trkpt>
      <trkpt lat="43.28967" lon="2.38795">
        <ele>169.4</ele>
        <time>2019-06-02T07:00:34.000Z</time>
      </trkpt>
      <trkpt lat="43.28967" lon="2.38792">
        <ele>169.4</ele>
        <time>2019-06-02T07:00:35.000Z</time>
      </trkpt>
      <trkpt lat="43.28968" lon="2.3879">
        <ele>169.5</ele>
        <time>2019-06-02T07:00:36.000Z</time>
      </trkpt>
      <trkpt lat="43.28968" lon="2.38788">
        <ele>169.5</ele>
        <time>2019-06-02T07:00:37.000Z</time>
      </trkpt>
      <trkpt lat="43.28969" lon="2.38786">
        <ele>169.6</ele>
        <time>2019-06-02T07:00:38.000Z</time>
      </trkpt>
      <trkpt lat="43.28969" lon="2.38784">
        <ele>169.6</ele>
        <time>2019-06-02T07:00:39.000Z</time>
      </trkpt>
      <trkpt lat="43.2897" lon="2.38782">
        <ele>169.7</ele>
        <time>2019-06-02T07:00:40.000Z</time>
      </trkpt>
      <trkpt lat="43.28971" lon="2.3878">
        <ele>169.8</ele>
        <time>2019-06-02T07:00:41.000Z</time>
      </trkpt>
      <trkpt lat="43.28972" lon="2.38779">
        <ele>169.9</ele>
        <time>2019-06-02T07:00:42.000Z</time>
      </trkpt>
      <trkpt lat="43.28973" lon="2.38777">
        <ele>169.9</ele>
        <time>2019-06-02T07:00:43.000Z</time>
      </trkpt>
      <trkpt lat="43.28973" lon="2.38776">
        <ele>170</ele>
        <time>2019-06-02T07:00:44.000Z</time>
      </trkpt>
      <trkpt lat="43.28974" lon="2.38775">
        <ele>170</ele>
        <time>2019-06-02T07:00:45.000Z</time>
      </trkpt>
      <trkpt lat="43.28974" lon="2.38774">
        <ele>170.1</ele>
        <time>2019-06-02T07:00:46.000Z</time>
      </trkpt>
      <trkpt lat="43.28975" lon="2.38772">
        <ele>170.1</ele>
        <time>2019-06-02T07:00:47.000Z</time>
      </trkpt>
      <trkpt lat="43.28975" lon="2.38771">
        <ele>170.1</ele>
        <time>2019-06-02T07:00:48.000Z</time>
      </trkpt>
      <trkpt lat="43.28975" lon="2.38771">
        <ele>170.1</ele>
        <time>2019-06-02T07:00:49.000Z</time>
      </trkpt>
      <trkpt lat="43.28975" lon="2.3877">
        <ele>170.1</ele>
        <time>2019-06-02T07:00:50.000Z</time>
      </trkpt>
      <trkpt lat="43.28975" lon="2.38769">
        <ele>170.1</ele>
        <time>2019-06-02T07:00:51.000Z</time>
      </trkpt>
      <trkpt lat="43.28975" lon="2.38769">
        <ele>170.1</ele>
        <time>2019-06-02T07:00:52.000Z</time>
      </trkpt>
      <trkpt lat="43.28975" lon="2.38768">
        <ele>170.1</ele>
        <time>2019-06-02T07:00:53.000Z</time>
      </trkpt>
      <trkpt lat="43.28975" lon="2.38768">
        <ele>170.2</ele>
        <time>2019-06-02T07:00:54.000Z</time>
      </trkpt>
      <trkpt lat="43.28975" lon="2.38768">
        <ele>170.2</ele>
        <time>2019-06-02T07:00:55.000Z</time>
      </trkpt>
      <trkpt lat="43.28975" lon="2.38768">
        <ele>170.2</ele>
        <time>2019-06-02T07:00:56.000Z</time>
      </trkpt>
      <trkpt lat="43.28975" lon="2.38767">
        <ele>170.2</ele>
        <time>2019-06-02T07:00:57.000Z</time>
      </trkpt>
      <trkpt lat="43.28975" lon="2.38767">
        <ele>170.2</ele>
        <time>2019-06-02T07:00:58.000Z</time>
      </trkpt>
      <trkpt lat="43.28975" lon="2.38767">
        <ele>170.2</ele>
        <time>2019-06-02T07:00:59.000Z</time>
      </trkpt>
      <trkpt lat="43.28975" lon="2.38767">
        <ele>170.2</ele>
        <time>2019-06-02T07:01:00.000Z</time>
      </trkpt>
      <trkpt lat="43.28975" lon="2.38767">
        <ele>170.2</ele>
        <time>2019-06-02T07:01:01.000Z</time>
      </trkpt>
      <trkpt lat="43.28975" lon="2.38767">
        <ele>170.2</ele>
        <time>2019-06-02T07:01:02.000Z</time>
      </trkpt>
      <trkpt lat="43.28975" lon="2.38767">
        <ele>170.2</ele>
        <time>2019-06-02T07:01:03.000Z</time>
      </trkpt>
      <trkpt lat="43.28975" lon="2.38767">
        <ele>170.2</ele>
        <time>2019-06-02T07:01:04.000Z</time>
      </trkpt>
      <trkpt lat="43.28975" lon="2.38767">
        <ele>170.2</ele>
        <time>2019-06-02T07:01:05.000Z</time>
      </trkpt>
      <trkpt lat="43.28975" lon="2.38767">
        <ele>170.2</ele>
        <time>2019-06-02T07:01:06.000Z</time>
      </trkpt>
      <trkpt lat="43.28975" lon="2.38767">
        <ele>170.2</ele>
        <time>2019-06-02T07:01:07.000Z</time>
      </trkpt>
      <trkpt lat="43.28975" lon="2.38767">
        <ele>170.2</ele>
        <time>2019-06-02T07:01:08.000Z</time>
      </trkpt>
      <trkpt lat="43.28975" lon="2.38767">
        <ele>170.2</ele>
        <time>2019-06-02T07:01:09.000Z</time>
      </trkpt>
      <trkpt lat="43.28975" lon="2.38767">
        <ele>170.2</ele>
        <time>2019-06-02T07:01:10.000Z</time>
      </trkpt>
      <trkpt lat="43.28975" lon="2.38767">
        <ele>170.2</ele>
        <time>2019-06-02T07:01:11.000Z</time>
      </trkpt>
      <trkpt lat="43.28975" lon="2.38767">
        <ele>170.2</ele>
        <time>2019-06-02T07:01:12.000Z</time>
      </trkpt>
      <trkpt lat="43.28975" lon="2.38767">
        <ele>170.2</ele>
        <time>2019-06-02T07:01:13.000Z</time>
      </trkpt>
      <trkpt lat="43.28975" lon="2.38767">
        <ele>170.2</ele>
        <time>2019-06-02T07:01:14.000Z</time>
      </trkpt>
      <trkpt lat="43.28975" lon="2.38767">
        <ele>170.2</ele>
        <time>2019-06-02T07:01:15.000Z</time>
      </trkpt>
      <trkpt lat="43.28975" lon="2.38767">
        <ele>170.2</ele>
        <time>2019-06-02T07:01:16.000Z</time>
      </trkpt>
      <trkpt lat="43.28975" lon="2.38767">
        <ele>170.2</ele>
        <time>2019-06-02T07:01:17.000Z</time>
      </trkpt>
      <trkpt lat="43.28975" lon="2.38767">
        <ele>170.2</ele>
        <time>2019-06-02T07:01:18.000Z</time>
      </trkpt>
      <trkpt lat="43.28975" lon="2.38767">
        <ele>170.2</ele>
        <time>2019-06-02T07:01:19.000Z</time>
      </trkpt>
      <trkpt lat="43.28975" lon="2.38767">
        <ele>170.2</ele>
        <time>2019-06-02T07:01:20.000Z</time>
      </trkpt>
      <trkpt lat="43.28975" lon="2.38767">
        <ele>170.2</ele>
        <time>2019-06-02T07:01:21.000Z</time>
      </trkpt>
      <trkpt lat="43.28975" lon="2.38767">
        <ele>170.2</ele>
        <time>2019-06-02T07:01:22.000Z</time>
      </trkpt>
      <trkpt lat="43.28975" lon="2.38767">
        <ele>170.2</ele>
        <time>2019-06-02T07:01:23.000Z</time>
      </trkpt>
      <trkpt lat="43.28975" lon="2.38767">
        <ele>170.2</ele>
        <time>2019-06-02T07:01:24.000Z</time>
      </trkpt>
      <trkpt lat="43.28975" lon="2.38767">
        <ele>170.2</ele>
        <time>2019-06-02T07:01:25.000Z</time>
      </trkpt>
      <trkpt lat="43.28975" lon="2.38767">
        <ele>170.2</ele>
        <time>2019-06-02T07:01:26.000Z</time>
      </trkpt>
      <trkpt lat="43.28975" lon="2.38767">
        <ele>170.2</ele>
        <time>2019-06-02T07:01:27.000Z</time>
      </trkpt>
      <trkpt lat="43.28975" lon="2.38767">
        <ele>170.2</ele>
        <time>2019-06-02T07:01:28.000Z</time>
      </trkpt>
      <trkpt lat="43.28975" lon="2.38767">
        <ele>170.2</ele>
        <time>2019-06-02T07:01:29.000Z</time>
      </trkpt>
      <trkpt lat="43.28975" lon="2.38767">
        <ele>170.2</ele>
        <time>2019-06-02T07:01:30.000Z</time>
      </trkpt>
      <trkpt lat="43.28975" lon="2.38767">
        <ele>170.2</ele>
        <time>2019-06-02T07:01:31.000Z</time>
      </trkpt>
      <trkpt lat="43.28975" lon="2.38767">
        <ele>170.2</ele>
        <time>2019-06-02T07:01:32.000Z</time>
      </trkpt>
      <trkpt lat="43.28975" lon="2.38767">
        <ele>170.2</ele>
        <time>2019-06-02T07:01:33.000Z</time>
      </trkpt>
      <trkpt lat="43.28975" lon="2.38767">
        <ele>170.2</ele>
        <time>2019-06-02T07:01:34.000Z</time>
      </trkpt>
      <trkpt lat="43.28975" lon="2.38767">
        <ele>170.2</ele>
        <time>2019-06-02T07:01:35.000Z</time>
      </trkpt>
      <trkpt lat="43.28975" lon="2.38767">
        <ele>170.2</ele>
        <time>2019-06-02T07:01:36.000Z</time>
      </trkpt>
      <trkpt lat="43.28975" lon="2.38767">
        <ele>170.2</ele>
        <time>2019-06-02T07:01:37.000Z</time>
      </trkpt>
      <trkpt lat="43.28975" lon="2.38767">
        <ele>170.2</ele>
        <time>2019-06-02T07:01:38.000Z</time>
      </trkpt>
      <trkpt lat="43.28975" lon="2.38767">
        <ele>170.2</ele>
        <time>2019-06-02T07:01:39.000Z</time>
      </trkpt>
      <trkpt lat="43.28975" lon="2.38767">
        <ele>170.1</ele>
        <time>2019-06-02T07:01:40.000Z</time>
      </trkpt>
      <trkpt lat="43.28975" lon="2.38767">
        <ele>170.1</ele>
        <time>2019-06-02T07:01:41.000Z</time>
      </trkpt>
      <trkpt lat="43.28975" lon="2.38767">
        <ele>170.1</ele>
        <time>2019-06-02T07:01:42.000Z</time>
      </trkpt>
      <trkpt lat="43.28975" lon="2.38766">
        <ele>170.1</ele>
        <time>2019-06-02T07:01:43.000Z</time>
      </trkpt>
      <trkpt lat="43.28974" lon="2.38763">
        <ele>170.1</ele>
        <time>2019-06-02T07:01:44.000Z</time>
      </trkpt>
      <trkpt lat="43.28974" lon="2.38762">
        <ele>170.1</ele>
        <time>2019-06-02T07:01:45.000Z</time>
      </trkpt>
      <trkpt lat="43.28973" lon="2.38759">
        <ele>170</ele>
        <time>2019-06-02T07:01:46.000Z</time>
      </trkpt>
      <trkpt lat="43.28972" lon="2.38757">
        <ele>169.9</ele>
        <time>2019-06-02T07:01:47.000Z</time>
      </trkpt>
      <trkpt lat="43.28971" lon="2.38756">
        <ele>169.9</ele>
        <time>2019-06-02T07:01:48.000Z</time>
      </trkpt>
      <trkpt lat="43.28971" lon="2.38755">
        <ele>169.9</ele>
        <time>2019-06-02T07:01:49.000Z</time>
      </trkpt>
      <trkpt lat="43.2897" lon="2.38754">
        <ele>169.8</ele>
        <time>2019-06-02T07:01:50.000Z</time>
      </trkpt>
      <trkpt lat="43.2897" lon="2.38754">
        <ele>169.8</ele>
        <time>2019-06-02T07:01:51.000Z</time>
      </trkpt>
      <trkpt lat="43.2897" lon="2.38754">
        <ele>169.8</ele>
        <time>2019-06-02T07:01:52.000Z</time>
      </trkpt>
      <trkpt lat="43.2897" lon="2.38752">
        <ele>169.8</ele>
        <time>2019-06-02T07:01:53.000Z</time>
      </trkpt>
      <trkpt lat="43.28969" lon="2.38751">
        <ele>169.8</ele>
        <time>2019-06-02T07:01:54.000Z</time>
      </trkpt>
      <trkpt lat="43.28968" lon="2.38748">
        <ele>169.8</ele>
        <time>2019-06-02T07:01:55.000Z</time>
      </trkpt>
      <trkpt lat="43.28967" lon="2.38744">
        <ele>169.9</ele>
        <time>2019-06-02T07:01:56.000Z</time>
      </trkpt>
      <trkpt lat="43.28967" lon="2.38742">
        <ele>169.9</ele>
        <time>2019-06-02T07:01:57.000Z</time>
      </trkpt>
      <trkpt lat="43.28967" lon="2.38741">
        <ele>169.9</ele>
        <time>2019-06-02T07:01:58.000Z</time>
      </trkpt>
      <trkpt lat="43.28966" lon="2.38741">
        <ele>169.9</ele>
        <time>2019-06-02T07:01:59.000Z</time>
      </trkpt>
      <trkpt lat="43.28966" lon="2.38741">
        <ele>169.9</ele>
        <time>2019-06-02T07:02:00.000Z</time>
      </trkpt>
      <trkpt lat="43.28966" lon="2.3874">
        <ele>170</ele>
        <time>2019-06-02T07:02:01.000Z</time>
      </trkpt>
      <trkpt lat="43.28967" lon="2.38738">
        <ele>170.1</ele>
        <time>2019-06-02T07:02:02.000Z</time>
      </trkpt>
      <trkpt lat="43.28967" lon="2.38735">
        <ele>170.2</ele>
        <time>2019-06-02T07:02:03.000Z</time>
      </trkpt>
      <trkpt lat="43.28967" lon="2.38733">
        <ele>170.3</ele>
        <time>2019-06-02T07:02:04.000Z</time>
      </trkpt>
      <trkpt lat="43.28967" lon="2.38731">
        <ele>170.4</ele>
        <time>2019-06-02T07:02:05.000Z</time>
      </trkpt>
      <trkpt lat="43.28968" lon="2.38729">
        <ele>170.5</ele>
        <time>2019-06-02T07:02:06.000Z</time>
      </trkpt>
      <trkpt lat="43.28969" lon="2.38726">
        <ele>170.7</ele>
        <time>2019-06-02T07:02:07.000Z</time>
      </trkpt>
      <trkpt lat="43.2897" lon="2.38724">
        <ele>170.9</ele>
        <time>2019-06-02T07:02:08.000Z</time>
      </trkpt>
      <trkpt lat="43.28971" lon="2.38722">
        <ele>171.1</ele>
        <time>2019-06-02T07:02:09.000Z</time>
      </trkpt>
      <trkpt lat="43.28972" lon="2.3872">
        <ele>171.2</ele>
        <time>2019-06-02T07:02:10.000Z</time>
      </trkpt>
      <trkpt lat="43.28973" lon="2.38717">
        <ele>171.4</ele>
        <time>2019-06-02T07:02:11.000Z</time>
      </trkpt>
      <trkpt lat="43.28973" lon="2.38715">
        <ele>171.5</ele>
        <time>2019-06-02T07:02:12.000Z</time>
      </trkpt>
      <trkpt lat="43.28973" lon="2.38712">
        <ele>171.6</ele>
        <time>2019-06-02T07:02:13.000Z</time>
      </trkpt>
      <trkpt lat="43.28973" lon="2.3871">
        <ele>171.7</ele>
        <time>2019-06-02T07:02:14.000Z</time>
      </trkpt>
      <trkpt lat="43.28973" lon="2.38707">
        <ele>171.8</ele>
        <time>2019-06-02T07:02:15.000Z</time>
      </trkpt>
      <trkpt lat="43.28972" lon="2.38704">
        <ele>171.8</ele>
        <time>2019-06-02T07:02:16.000Z</time>
      </trkpt>
      <trkpt lat="43.28972" lon="2.38701">
        <ele>171.9</ele>
        <time>2019-06-02T07:02:17.000Z</time>
      </trkpt>
      <trkpt lat="43.28972" lon="2.38698">
        <ele>172</ele>
        <time>2019-06-02T07:02:18.000Z</time>
      </trkpt>
      <trkpt lat="43.28972" lon="2.38695">
        <ele>172.1</ele>
        <time>2019-06-02T07:02:19.000Z</time>
      </trkpt>
      <trkpt lat="43.28972" lon="2.38693">
        <ele>172.3</ele>
        <time>2019-06-02T07:02:20.000Z</time>
      </trkpt>
      <trkpt lat="43.28972" lon="2.3869">
        <ele>172.4</ele>
        <time>2019-06-02T07:02:21.000Z</time>
      </trkpt>
      <trkpt lat="43.28972" lon="2.38687">
        <ele>172.6</ele>
        <time>2019-06-02T07:02:22.000Z</time>
      </trkpt>
      <trkpt lat="43.28973" lon="2.38684">
        <ele>172.7</ele>
        <time>2019-06-02T07:02:23.000Z</time>
      </trkpt>
      <trkpt lat="43.28972" lon="2.38681">
        <ele>172.8</ele>
        <time>2019-06-02T07:02:24.000Z</time>
      </trkpt>
      <trkpt lat="43.28972" lon="2.38678">
        <ele>172.9</ele>
        <time>2019-06-02T07:02:25.000Z</time>
      </trkpt>
      <trkpt lat="43.28972" lon="2.38675">
        <ele>173</ele>
        <time>2019-06-02T07:02:26.000Z</time>
      </trkpt>
      <trkpt lat="43.28972" lon="2.38672">
        <ele>173.1</ele>
        <time>2019-06-02T07:02:27.000Z</time>
      </trkpt>
      <trkpt lat="43.28972" lon="2.3867">
        <ele>173.2</ele>
        <time>2019-06-02T07:02:28.000Z</time>
      </trkpt>
      <trkpt lat="43.28972" lon="2.38668">
        <ele>173.3</ele>
        <time>2019-06-02T07:02:29.000Z</time>
      </trkpt>
      <trkpt lat="43.28972" lon="2.38666">
        <ele>173.4</ele>
        <time>2019-06-02T07:02:30.000Z</time>
      </trkpt>
      <trkpt lat="43.28973" lon="2.38664">
        <ele>173.5</ele>
        <time>2019-06-02T07:02:31.000Z</time>
      </trkpt>
      <trkpt lat="43.28973" lon="2.38663">
        <ele>173.6</ele>
        <time>2019-06-02T07:02:32.000Z</time>
      </trkpt>
      <trkpt lat="43.28973" lon="2.38661">
        <ele>173.7</ele>
        <time>2019-06-02T07:02:33.000Z</time>
      </trkpt>
      <trkpt lat="43.28973" lon="2.38659">
        <ele>173.8</ele>
        <time>2019-06-02T07:02:34.000Z</time>
      </trkpt>
      <trkpt lat="43.28973" lon="2.38658">
        <ele>173.8</ele>
        <time>2019-06-02T07:02:35.000Z</time>
      </trkpt>
      <trkpt lat="43.28972" lon="2.38656">
        <ele>173.9</ele>
        <time>2019-06-02T07:02:36.000Z</time>
      </trkpt>
      <trkpt lat="43.28972" lon="2.38654">
        <ele>174</ele>
        <time>2019-06-02T07:02:37.000Z</time>
      </trkpt>
      <trkpt lat="43.28972" lon="2.38653">
        <ele>174</ele>
        <time>2019-06-02T07:02:38.000Z</time>
      </trkpt>
      <trkpt lat="43.28972" lon="2.38651">
        <ele>174.1</ele>
        <time>2019-06-02T07:02:39.000Z</time>
      </trkpt>
      <trkpt lat="43.28972" lon="2.38649">
        <ele>174.2</ele>
        <time>2019-06-02T07:02:40.000Z</time>
      </trkpt>
      <trkpt lat="43.28972" lon="2.38647">
        <ele>174.3</ele>
        <time>2019-06-02T07:02:41.000Z</time>
      </trkpt>
      <trkpt lat="43.28972" lon="2.38645">
        <ele>174.5</ele>
        <time>2019-06-02T07:02:42.000Z</time>
      </trkpt>
      <trkpt lat="43.28972" lon="2.38642">
        <ele>174.6</ele>
        <time>2019-06-02T07:02:43.000Z</time>
      </trkpt>
      <trkpt lat="43.28973" lon="2.3864">
        <ele>174.8</ele>
        <time>2019-06-02T07:02:44.000Z</time>
      </trkpt>
      <trkpt lat="43.28973" lon="2.38637">
        <ele>175</ele>
        <time>2019-06-02T07:02:45.000Z</time>
      </trkpt>
      <trkpt lat="43.28974" lon="2.38635">
        <ele>175.1</ele>
        <time>2019-06-02T07:02:46.000Z</time>
      </trkpt>
      <trkpt lat="43.28975" lon="2.38632">
        <ele>175.3</ele>
        <time>2019-06-02T07:02:47.000Z</time>
      </trkpt>
      <trkpt lat="43.28976" lon="2.3863">
        <ele>175.6</ele>
        <time>2019-06-02T07:02:48.000Z</time>
      </trkpt>
      <trkpt lat="43.28976" lon="2.38627">
        <ele>175.8</ele>
        <time>2019-06-02T07:02:49.000Z</time>
      </trkpt>
      <trkpt lat="43.28977" lon="2.38625">
        <ele>176</ele>
        <time>2019-06-02T07:02:50.000Z</time>
      </trkpt>
      <trkpt lat="43.28978" lon="2.38622">
        <ele>176.2</ele>
        <time>2019-06-02T07:02:51.000Z</time>
      </trkpt>
      <trkpt lat="43.28979" lon="2.38619">
        <ele>176.4</ele>
        <time>2019-06-02T07:02:52.000Z</time>
      </trkpt>
      <trkpt lat="43.2898" lon="2.38617">
        <ele>176.6</ele>
        <time>2019-06-02T07:02:53.000Z</time>
      </trkpt>
      <trkpt lat="43.28981" lon="2.38615">
        <ele>176.8</ele>
        <time>2019-06-02T07:02:54.000Z</time>
      </trkpt>
      <trkpt lat="43.28981" lon="2.38612">
        <ele>177</ele>
        <time>2019-06-02T07:02:55.000Z</time>
      </trkpt>
      <trkpt lat="43.28982" lon="2.3861">
        <ele>177.2</ele>
        <time>2019-06-02T07:02:56.000Z</time>
      </trkpt>
      <trkpt lat="43.28983" lon="2.38608">
        <ele>177.3</ele>
        <time>2019-06-02T07:02:57.000Z</time>
      </trkpt>
      <trkpt lat="43.28983" lon="2.38606">
        <ele>177.5</ele>
        <time>2019-06-02T07:02:58.000Z</time>
      </trkpt>
      <trkpt lat="43.28984" lon="2.38604">
        <ele>177.6</ele>
        <time>2019-06-02T07:02:59.000Z</time>
      </trkpt>
      <trkpt lat="43.28984" lon="2.38602">
        <ele>177.7</ele>
        <time>2019-06-02T07:03:00.000Z</time>
      </trkpt>
      <trkpt lat="43.28985" lon="2.38601">
        <ele>177.9</ele>
        <time>2019-06-02T07:03:01.000Z</time>
      </trkpt>
      <trkpt lat="43.28985" lon="2.38599">
        <ele>178</ele>
        <time>2019-06-02T07:03:02.000Z</time>
      </trkpt>
      <trkpt lat="43.28986" lon="2.38598">
        <ele>178.1</ele>
        <time>2019-06-02T07:03:03.000Z</time>
      </trkpt>
      <trkpt lat="43.28986" lon="2.38597">
        <ele>178.1</ele>
        <time>2019-06-02T07:03:04.000Z</time>
      </trkpt>
      <trkpt lat="43.28986" lon="2.38596">
        <ele>178.2</ele>
        <time>2019-06-02T07:03:05.000Z</time>
      </trkpt>
      <trkpt lat="43.28986" lon="2.38595">
        <ele>178.2</ele>
        <time>2019-06-02T07:03:06.000Z</time>
      </trkpt>
      <trkpt lat="43.28986" lon="2.38594">
        <ele>178.3</ele>
        <time>2019-06-02T07:03:07.000Z</time>
      </trkpt>
      <trkpt lat="43.28986" lon="2.38594">
        <ele>178.3</ele>
        <time>2019-06-02T07:03:08.000Z</time>
      </trkpt>
      <trkpt lat="43.28986" lon="2.38594">
        <ele>178.3</ele>
        <time>2019-06-02T07:03:09.000Z</time>
      </trkpt>
      <trkpt lat="43.28986" lon="2.38594">
        <ele>178.3</ele>
        <time>2019-06-02T07:03:10.000Z</time>
      </trkpt>
      <trkpt lat="43.28986" lon="2.38594">
        <ele>178.3</ele>
        <time>2019-06-02T07:03:11.000Z</time>
      </trkpt>
      <trkpt lat="43.28986" lon="2.38594">
        <ele>178.3</ele>
        <time>2019-06-02T07:03:12.000Z</time>
      </trkpt>
      <trkpt lat="43.28986" lon="2.38594">
        <ele>178.3</ele>
        <time>2019-06-02T07:03:13.000Z</time>
      </trkpt>
      <trkpt lat="43.28985" lon="2.38593">
        <ele>178.3</ele>
        <time>2019-06-02T07:03:14.000Z</time>
      </trkpt>
      <trkpt lat="43.28985" lon="2.38592">
        <ele>178.3</ele>
        <time>2019-06-02T07:03:15.000Z</time>
      </trkpt>
      <trkpt lat="43.28983" lon="2.3859">
        <ele>178.3</ele>
        <time>2019-06-02T07:03:16.000Z</time>
      </trkpt>
      <trkpt lat="43.28982" lon="2.38587">
        <ele>178.3</ele>
        <time>2019-06-02T07:03:17.000Z</time>
      </trkpt>
      <trkpt lat="43.28981" lon="2.38585">
        <ele>178.3</ele>
        <time>2019-06-02T07:03:18.000Z</time>
      </trkpt>
      <trkpt lat="43.28981" lon="2.38584">
        <ele>178.4</ele>
        <time>2019-06-02T07:03:19.000Z</time>
      </trkpt>
      <trkpt lat="43.28981" lon="2.38584">
        <ele>178.3</ele>
        <time>2019-06-02T07:03:20.000Z</time>
      </trkpt>
      <trkpt lat="43.28981" lon="2.38584">
        <ele>178.3</ele>
        <time>2019-06-02T07:03:21.000Z</time>
      </trkpt>
      <trkpt lat="43.2898" lon="2.38584">
        <ele>178.3</ele>
        <time>2019-06-02T07:03:22.000Z</time>
      </trkpt>
      <trkpt lat="43.2898" lon="2.38583">
        <ele>178.3</ele>
        <time>2019-06-02T07:03:23.000Z</time>
      </trkpt>
      <trkpt lat="43.2898" lon="2.38583">
        <ele>178.3</ele>
        <time>2019-06-02T07:03:24.000Z</time>
      </trkpt>
      <trkpt lat="43.2898" lon="2.38583">
        <ele>178.3</ele>
        <time>2019-06-02T07:03:25.000Z</time>
      </trkpt>
      <trkpt lat="43.2898" lon="2.38583">
        <ele>178.3</ele>
        <time>2019-06-02T07:03:26.000Z</time>
      </trkpt>
      <trkpt lat="43.2898" lon="2.38583">
        <ele>178.3</ele>
        <time>2019-06-02T07:03:27.000Z</time>
      </trkpt>
      <trkpt lat="43.2898" lon="2.38583">
        <ele>178.3</ele>
        <time>2019-06-02T07:03:28.000Z</time>
      </trkpt>
      <trkpt lat="43.2898" lon="2.38583">
        <ele>178.3</ele>
        <time>2019-06-02T07:03:29.000Z</time>
      </trkpt>
      <trkpt lat="43.2898" lon="2.38583">
        <ele>178.3</ele>
        <time>2019-06-02T07:03:30.000Z</time>
      </trkpt>
      <trkpt lat="43.2898" lon="2.38583">
        <ele>178.3</ele>
        <time>2019-06-02T07:03:31.000Z</time>
      </trkpt>
      <trkpt lat="43.2898" lon="2.38583">
        <ele>178.3</ele>
        <time>2019-06-02T07:03:32.000Z</time>
      </trkpt>
      <trkpt lat="43.2898" lon="2.38583">
        <ele>178.3</ele>
        <time>2019-06-02T07:03:33.000Z</time>
      </trkpt>
      <trkpt lat="43.2898" lon="2.38583">
        <ele>178.3</ele>
        <time>2019-06-02T07:03:34.000Z</time>
      </trkpt>
      <trkpt lat="43.2898" lon="2.38583">
        <ele>178.3</ele>
        <time>2019-06-02T07:03:35.000Z</time>
      </trkpt>
      <trkpt lat="43.2898" lon="2.38583">
        <ele>178.3</ele>
        <time>2019-06-02T07:03:36.000Z</time>
      </trkpt>
      <trkpt lat="43.28979" lon="2.38583">
        <ele>178.2</ele>
        <time>2019-06-02T07:03:37.000Z</time>
      </trkpt>
      <trkpt lat="43.28977" lon="2.38583">
        <ele>178.1</ele>
        <time>2019-06-02T07:03:38.000Z</time>
      </trkpt>
      <trkpt lat="43.28976" lon="2.38583">
        <ele>178</ele>
        <time>2019-06-02T07:03:39.000Z</time>
      </trkpt>
      <trkpt lat="43.28975" lon="2.38583">
        <ele>177.9</ele>
        <time>2019-06-02T07:03:40.000Z</time>
      </trkpt>
      <trkpt lat="43.28973" lon="2.38583">
        <ele>177.8</ele>
        <time>2019-06-02T07:03:41.000Z</time>
      </trkpt>
      <trkpt lat="43.28972" lon="2.38583">
        <ele>177.7</ele>
        <time>2019-06-02T07:03:42.000Z</time>
      </trkpt>
      <trkpt lat="43.28972" lon="2.38581">
        <ele>177.7</ele>
        <time>2019-06-02T07:03:43.000Z</time>
      </trkpt>
      <trkpt lat="43.28971" lon="2.3858">
        <ele>177.7</ele>
        <time>2019-06-02T07:03:44.000Z</time>
      </trkpt>
      <trkpt lat="43.28971" lon="2.38577">
        <ele>177.8</ele>
        <time>2019-06-02T07:03:45.000Z</time>
      </trkpt>
      <trkpt lat="43.28971" lon="2.38576">
        <ele>177.9</ele>
        <time>2019-06-02T07:03:46.000Z</time>
      </trkpt>
      <trkpt lat="43.28971" lon="2.38574">
        <ele>178</ele>
        <time>2019-06-02T07:03:47.000Z</time>
      </trkpt>
      <trkpt lat="43.28972" lon="2.38573">
        <ele>178.1</ele>
        <time>2019-06-02T07:03:48.000Z</time>
      </trkpt>
      <trkpt lat="43.28972" lon="2.38572">
        <ele>178.2</ele>
        <time>2019-06-02T07:03:49.000Z</time>
      </trkpt>
      <trkpt lat="43.28973" lon="2.3857">
        <ele>178.4</ele>
        <time>2019-06-02T07:03:50.000Z</time>
      </trkpt>
      <trkpt lat="43.28974" lon="2.38569">
        <ele>178.5</ele>
        <time>2019-06-02T07:03:51.000Z</time>
      </trkpt>
      <trkpt lat="43.28975" lon="2.38567">
        <ele>178.6</ele>
        <time>2019-06-02T07:03:52.000Z</time>
      </trkpt>
      <trkpt lat="43.28975" lon="2.38566">
        <ele>178.8</ele>
        <time>2019-06-02T07:03:53.000Z</time>
      </trkpt>
      <trkpt lat="43.28976" lon="2.38564">
        <ele>178.9</ele>
        <time>2019-06-02T07:03:54.000Z</time>
      </trkpt>
      <trkpt lat="43.28977" lon="2.38562">
        <ele>179.1</ele>
        <time>2019-06-02T07:03:55.000Z</time>
      </trkpt>
      <trkpt lat="43.28977" lon="2.38559">
        <ele>179.2</ele>
        <time>2019-06-02T07:03:56.000Z</time>
      </trkpt>
      <trkpt lat="43.28978" lon="2.38557">
        <ele>179.4</ele>
        <time>2019-06-02T07:03:57.000Z</time>
      </trkpt>
      <trkpt lat="43.28978" lon="2.38555">
        <ele>179.5</ele>
        <time>2019-06-02T07:03:58.000Z</time>
      </trkpt>
      <trkpt lat="43.28979" lon="2.38552">
        <ele>179.7</ele>
        <time>2019-06-02T07:03:59.000Z</time>
      </trkpt>
      <trkpt lat="43.28979" lon="2.3855">
        <ele>179.8</ele>
        <time>2019-06-02T07:04:00.000Z</time>
      </trkpt>
      <trkpt lat="43.28979" lon="2.38547">
        <ele>180</ele>
        <time>2019-06-02T07:04:01.000Z</time>
      </trkpt>
      <trkpt lat="43.2898" lon="2.38545">
        <ele>180.2</ele>
        <time>2019-06-02T07:04:02.000Z</time>
      </trkpt>
      <trkpt lat="43.2898" lon="2.38542">
        <ele>180.3</ele>
        <time>2019-06-02T07:04:03.000Z</time>
      </trkpt>
      <trkpt lat="43.28981" lon="2.38539">
        <ele>180.5</ele>
        <time>2019-06-02T07:04:04.000Z</time>
      </trkpt>
      <trkpt lat="43.28981" lon="2.38536">
        <ele>180.7</ele>
        <time>2019-06-02T07:04:05.000Z</time>
      </trkpt>
      <trkpt lat="43.28982" lon="2.38534">
        <ele>180.8</ele>
        <time>2019-06-02T07:04:06.000Z</time>
      </trkpt>
      <trkpt lat="43.28982" lon="2.38531">
        <ele>181</ele>
        <time>2019-06-02T07:04:07.000Z</time>
      </trkpt>
      <trkpt lat="43.28983" lon="2.38528">
        <ele>181.2</ele>
        <time>2019-06-02T07:04:08.000Z</time>
      </trkpt>
      <trkpt lat="43.28983" lon="2.38526">
        <ele>181.3</ele>
        <time>2019-06-02T07:04:09.000Z</time>
      </trkpt>
      <trkpt lat="43.28984" lon="2.38523">
        <ele>181.5</ele>
        <time>2019-06-02T07:04:10.000Z</time>
      </trkpt>
      <trkpt lat="43.28984" lon="2.38521">
        <ele>181.7</ele>
        <time>2019-06-02T07:04:11.000Z</time>
      </trkpt>
      <trkpt lat="43.28985" lon="2.38518">
        <ele>181.9</ele>
        <time>2019-06-02T07:04:12.000Z</time>
      </trkpt>
      <trkpt lat="43.28985" lon="2.38516">
        <ele>182</ele>
        <time>2019-06-02T07:04:13.000Z</time>
      </trkpt>
      <trkpt lat="43.28986" lon="2.38513">
        <ele>182.2</ele>
        <time>2019-06-02T07:04:14.000Z</time>
      </trkpt>
      <trkpt lat="43.28987" lon="2.38511">
        <ele>182.4</ele>
        <time>2019-06-02T07:04:15.000Z</time>
      </trkpt>
      <trkpt lat="43.28987" lon="2.38508">
        <ele>182.5</ele>
        <time>2019-06-02T07:04:16.000Z</time>
      </trkpt>
      <trkpt lat="43.28988" lon="2.38506">
        <ele>182.7</ele>
        <time>2019-06-02T07:04:17.000Z</time>
      </trkpt>
      <trkpt lat="43.28989" lon="2.38504">
        <ele>182.9</ele>
        <time>2019-06-02T07:04:18.000Z</time>
      </trkpt>
      <trkpt lat="43.2899" lon="2.38501">
        <ele>183.1</ele>
        <time>2019-06-02T07:04:19.000Z</time>
      </trkpt>
      <trkpt lat="43.28991" lon="2.38499">
        <ele>183.2</ele>
        <time>2019-06-02T07:04:20.000Z</time>
      </trkpt>
      <trkpt lat="43.28991" lon="2.38497">
        <ele>183.4</ele>
        <time>2019-06-02T07:04:21.000Z</time>
      </trkpt>
      <trkpt lat="43.28992" lon="2.38494">
        <ele>183.6</ele>
        <time>2019-06-02T07:04:22.000Z</time>
      </trkpt>
      <trkpt lat="43.28993" lon="2.38492">
        <ele>183.7</ele>
        <time>2019-06-02T07:04:23.000Z</time>
      </trkpt>
      <trkpt lat="43.28994" lon="2.3849">
        <ele>183.9</ele>
        <time>2019-06-02T07:04:24.000Z</time>
      </trkpt>
      <trkpt lat="43.28995" lon="2.38487">
        <ele>184</ele>
        <time>2019-06-02T07:04:25.000Z</time>
      </trkpt>
      <trkpt lat="43.28996" lon="2.38485">
        <ele>184.2</ele>
        <time>2019-06-02T07:04:26.000Z</time>
      </trkpt>
      <trkpt lat="43.28996" lon="2.38482">
        <ele>184.3</ele>
        <time>2019-06-02T07:04:27.000Z</time>
      </trkpt>
      <trkpt lat="43.28997" lon="2.3848">
        <ele>184.5</ele>
        <time>2019-06-02T07:04:28.000Z</time>
      </trkpt>
      <trkpt lat="43.28997" lon="2.38477">
        <ele>184.6</ele>
        <time>2019-06-02T07:04:29.000Z</time>
      </trkpt>
      <trkpt lat="43.28997" lon="2.38474">
        <ele>184.7</ele>
        <time>2019-06-02T07:04:30.000Z</time>
      </trkpt>
      <trkpt lat="43.28998" lon="2.38471">
        <ele>184.8</ele>
        <time>2019-06-02T07:04:31.000Z</time>
      </trkpt>
      <trkpt lat="43.28998" lon="2.38469">
        <ele>184.9</ele>
        <time>2019-06-02T07:04:32.000Z</time>
      </trkpt>
      <trkpt lat="43.28998" lon="2.38466">
        <ele>185.1</ele>
        <time>2019-06-02T07:04:33.000Z</time>
      </trkpt>
      <trkpt lat="43.28998" lon="2.38463">
        <ele>185.2</ele>
        <time>2019-06-02T07:04:34.000Z</time>
      </trkpt>
      <trkpt lat="43.28999" lon="2.3846">
        <ele>185.3</ele>
        <time>2019-06-02T07:04:35.000Z</time>
      </trkpt>
      <trkpt lat="43.28999" lon="2.38457">
        <ele>185.5</ele>
        <time>2019-06-02T07:04:36.000Z</time>
      </trkpt>
      <trkpt lat="43.29" lon="2.38454">
        <ele>185.7</ele>
        <time>2019-06-02T07:04:37.000Z</time>
      </trkpt>
      <trkpt lat="43.29001" lon="2.38452">
        <ele>185.9</ele>
        <time>2019-06-02T07:04:38.000Z</time>
      </trkpt>
      <trkpt lat="43.29002" lon="2.38449">
        <ele>186.1</ele>
        <time>2019-06-02T07:04:39.000Z</time>
      </trkpt>
      <trkpt lat="43.29003" lon="2.38446">
        <ele>186.3</ele>
        <time>2019-06-02T07:04:40.000Z</time>
      </trkpt>
      <trkpt lat="43.29004" lon="2.38443">
        <ele>186.4</ele>
        <time>2019-06-02T07:04:41.000Z</time>
      </trkpt>
      <trkpt lat="43.29004" lon="2.3844">
        <ele>186.6</ele>
        <time>2019-06-02T07:04:42.000Z</time>
      </trkpt>
      <trkpt lat="43.29005" lon="2.38437">
        <ele>186.7</ele>
        <time>2019-06-02T07:04:43.000Z</time>
      </trkpt>
      <trkpt lat="43.29005" lon="2.38435">
        <ele>186.8</ele>
        <time>2019-06-02T07:04:44.000Z</time>
      </trkpt>
      <trkpt lat="43.29005" lon="2.38432">
        <ele>186.9</ele>
        <time>2019-06-02T07:04:45.000Z</time>
      </trkpt>
      <trkpt lat="43.29005" lon="2.38429">
        <ele>187</ele>
        <time>2019-06-02T07:04:46.000Z</time>
      </trkpt>
      <trkpt lat="43.29005" lon="2.38426">
        <ele>187.1</ele>
        <time>2019-06-02T07:04:47.000Z</time>
      </trkpt>
      <trkpt lat="43.29005" lon="2.38423">
        <ele>187.2</ele>
        <time>2019-06-02T07:04:48.000Z</time>
      </trkpt>
      <trkpt lat="43.29005" lon="2.3842">
        <ele>187.3</ele>
        <time>2019-06-02T07:04:49.000Z</time>
      </trkpt>
      <trkpt lat="43.29005" lon="2.38417">
        <ele>187.4</ele>
        <time>2019-06-02T07:04:50.000Z</time>
      </trkpt>
      <trkpt lat="43.29005" lon="2.38414">
        <ele>187.5</ele>
        <time>2019-06-02T07:04:51.000Z</time>
      </trkpt>
      <trkpt lat="43.29006" lon="2.38412">
        <ele>187.6</ele>
        <time>2019-06-02T07:04:52.000Z</time>
      </trkpt>
      <trkpt lat="43.29007" lon="2.38409">
        <ele>187.7</ele>
        <time>2019-06-02T07:04:53.000Z</time>
      </trkpt>
      <trkpt lat="43.29008" lon="2.38407">
        <ele>187.9</ele>
        <time>2019-06-02T07:04:54.000Z</time>
      </trkpt>
      <trkpt lat="43.29008" lon="2.38404">
        <ele>188</ele>
        <time>2019-06-02T07:04:55.000Z</time>
      </trkpt>
      <trkpt lat="43.2901" lon="2.38402">
        <ele>188.1</ele>
        <time>2019-06-02T07:04:56.000Z</time>
      </trkpt>
      <trkpt lat="43.29011" lon="2.38399">
        <ele>188.3</ele>
        <time>2019-06-02T07:04:57.000Z</time>
      </trkpt>
      <trkpt lat="43.29012" lon="2.38397">
        <ele>188.4</ele>
        <time>2019-06-02T07:04:58.000Z</time>
      </trkpt>
      <trkpt lat="43.29013" lon="2.38395">
        <ele>188.6</ele>
        <time>2019-06-02T07:04:59.000Z</time>
      </trkpt>
      <trkpt lat="43.29014" lon="2.38393">
        <ele>188.7</ele>
        <time>2019-06-02T07:05:00.000Z</time>
      </trkpt>
      <trkpt lat="43.29016" lon="2.38391">
        <ele>188.9</ele>
        <time>2019-06-02T07:05:01.000Z</time>
      </trkpt>
      <trkpt lat="43.29017" lon="2.38389">
        <ele>189</ele>
        <time>2019-06-02T07:05:02.000Z</time>
      </trkpt>
      <trkpt lat="43.29017" lon="2.38388">
        <ele>189.1</ele>
        <time>2019-06-02T07:05:03.000Z</time>
      </trkpt>
      <trkpt lat="43.29018" lon="2.38387">
        <ele>189.1</ele>
        <time>2019-06-02T07:05:04.000Z</time>
      </trkpt>
      <trkpt lat="43.29018" lon="2.38386">
        <ele>189.1</ele>
        <time>2019-06-02T07:05:05.000Z</time>
      </trkpt>
      <trkpt lat="43.29018" lon="2.38386">
        <ele>189.2</ele>
        <time>2019-06-02T07:05:06.000Z</time>
      </trkpt>
      <trkpt lat="43.29018" lon="2.38385">
        <ele>189.2</ele>
        <time>2019-06-02T07:05:07.000Z</time>
      </trkpt>
      <trkpt lat="43.29018" lon="2.38385">
        <ele>189.2</ele>
        <time>2019-06-02T07:05:08.000Z</time>
      </trkpt>
      <trkpt lat="43.29018" lon="2.38383">
        <ele>189.2</ele>
        <time>2019-06-02T07:05:09.000Z</time>
      </trkpt>
      <trkpt lat="43.29019" lon="2.38382">
        <ele>189.3</ele>
        <time>2019-06-02T07:05:10.000Z</time>
      </trkpt>
      <trkpt lat="43.29019" lon="2.38379">
        <ele>189.4</ele>
        <time>2019-06-02T07:05:11.000Z</time>
      </trkpt>
      <trkpt lat="43.2902" lon="2.38376">
        <ele>189.5</ele>
        <time>2019-06-02T07:05:12.000Z</time>
      </trkpt>
      <trkpt lat="43.2902" lon="2.38373">
        <ele>189.6</ele>
        <time>2019-06-02T07:05:13.000Z</time>
      </trkpt>
      <trkpt lat="43.2902" lon="2.38372">
        <ele>189.7</ele>
        <time>2019-06-02T07:05:14.000Z</time>
      </trkpt>
      <trkpt lat="43.29021" lon="2.38372">
        <ele>189.7</ele>
        <time>2019-06-02T07:05:15.000Z</time>
      </trkpt>
      <trkpt lat="43.29021" lon="2.38372">
        <ele>189.7</ele>
        <time>2019-06-02T07:05:16.000Z</time>
      </trkpt>
      <trkpt lat="43.29021" lon="2.38372">
        <ele>189.7</ele>
        <time>2019-06-02T07:05:17.000Z</time>
      </trkpt>
      <trkpt lat="43.29021" lon="2.38372">
        <ele>189.7</ele>
        <time>2019-06-02T07:05:18.000Z</time>
      </trkpt>
      <trkpt lat="43.29021" lon="2.38372">
        <ele>189.7</ele>
        <time>2019-06-02T07:05:19.000Z</time>
      </trkpt>
      <trkpt lat="43.29021" lon="2.38372">
        <ele>189.7</ele>
        <time>2019-06-02T07:05:20.000Z</time>
      </trkpt>
      <trkpt lat="43.29021" lon="2.38372">
        <ele>189.7</ele>
        <time>2019-06-02T07:05:21.000Z</time>
      </trkpt>
      <trkpt lat="43.29021" lon="2.38372">
        <ele>189.7</ele>
        <time>2019-06-02T07:05:22.000Z</time>
      </trkpt>
      <trkpt lat="43.29021" lon="2.38372">
        <ele>189.7</ele>
        <time>2019-06-02T07:05:23.000Z</time>
      </trkpt>
      <trkpt lat="43.29021" lon="2.38372">
        <ele>189.7</ele>
        <time>2019-06-02T07:05:24.000Z</time>
      </trkpt>
      <trkpt lat="43.29021" lon="2.38371">
        <ele>189.7</ele>
        <time>2019-06-02T07:05:25.000Z</time>
      </trkpt>
      <trkpt lat="43.29021" lon="2.38371">
        <ele>189.7</ele>
        <time>2019-06-02T07:05:26.000Z</time>
      </trkpt>
      <trkpt lat="43.29022" lon="2.3837">
        <ele>189.8</ele>
        <time>2019-06-02T07:05:27.000Z</time>
      </trkpt>
      <trkpt lat="43.29025" lon="2.38367">
        <ele>190.1</ele>
        <time>2019-06-02T07:05:28.000Z</time>
      </trkpt>
      <trkpt lat="43.29027" lon="2.38365">
        <ele>190.3</ele>
        <time>2019-06-02T07:05:29.000Z</time>
      </trkpt>
      <trkpt lat="43.29027" lon="2.38364">
        <ele>190.3</ele>
        <time>2019-06-02T07:05:30.000Z</time>
      </trkpt>
      <trkpt lat="43.29027" lon="2.38364">
        <ele>190.3</ele>
        <time>2019-06-02T07:05:31.000Z</time>
      </trkpt>
      <trkpt lat="43.29027" lon="2.38364">
        <ele>190.3</ele>
        <time>2019-06-02T07:05:32.000Z</time>
      </trkpt>
      <trkpt lat="43.29027" lon="2.38364">
        <ele>190.3</ele>
        <time>2019-06-02T07:05:33.000Z</time>
      </trkpt>
      <trkpt lat="43.29027" lon="2.38364">
        <ele>190.3</ele>
        <time>2019-06-02T07:05:34.000Z</time>
      </trkpt>
      <trkpt lat="43.29027" lon="2.38364">
        <ele>190.3</ele>
        <time>2019-06-02T07:05:35.000Z</time>
      </trkpt>
      <trkpt lat="43.29027" lon="2.38364">
        <ele>190.3</ele>
        <time>2019-06-02T07:05:36.000Z</time>
      </trkpt>
      <trkpt lat="43.29027" lon="2.38364">
        <ele>190.3</ele>
        <time>2019-06-02T07:05:37.000Z</time>
      </trkpt>
      <trkpt lat="43.29027" lon="2.38364">
        <ele>190.3</ele>
        <time>2019-06-02T07:05:38.000Z</time>
      </trkpt>
      <trkpt lat="43.29027" lon="2.38364">
        <ele>190.3</ele>
        <time>2019-06-02T07:05:39.000Z</time>
      </trkpt>
      <trkpt lat="43.29027" lon="2.38364">
        <ele>190.3</ele>
        <time>2019-06-02T07:05:40.000Z</time>
      </trkpt>
      <trkpt lat="43.29027" lon="2.38364">
        <ele>190.3</ele>
        <time>2019-06-02T07:05:41.000Z</time>
      </trkpt>
      <trkpt lat="43.29027" lon="2.38364">
        <ele>190.3</ele>
        <time>2019-06-02T07:05:42.000Z</time>
      </trkpt>
      <trkpt lat="43.29027" lon="2.38364">
        <ele>190.3</ele>
        <time>2019-06-02T07:05:43.000Z</time>
      </trkpt>
      <trkpt lat="43.29027" lon="2.38364">
        <ele>190.3</ele>
        <time>2019-06-02T07:05:44.000Z</time>
      </trkpt>
      <trkpt lat="43.29027" lon="2.38364">
        <ele>190.3</ele>
        <time>2019-06-02T07:05:45.000Z</time>
      </trkpt>
      <trkpt lat="43.29027" lon="2.38364">
        <ele>190.3</ele>
        <time>2019-06-02T07:05:46.000Z</time>
      </trkpt>
      <trkpt lat="43.29027" lon="2.38364">
        <ele>190.3</ele>
        <time>2019-06-02T07:05:47.000Z</time>
      </trkpt>
      <trkpt lat="43.29027" lon="2.38364">
        <ele>190.3</ele>
        <time>2019-06-02T07:05:48.000Z</time>
      </trkpt>
      <trkpt lat="43.29027" lon="2.38364">
        <ele>190.3</ele>
        <time>2019-06-02T07:05:49.000Z</time>
      </trkpt>
      <trkpt lat="43.29027" lon="2.38364">
        <ele>190.3</ele>
        <time>2019-06-02T07:05:50.000Z</time>
      </trkpt>
      <trkpt lat="43.29027" lon="2.38364">
        <ele>190.3</ele>
        <time>2019-06-02T07:05:51.000Z</time>
      </trkpt>
      <trkpt lat="43.29027" lon="2.38364">
        <ele>190.3</ele>
        <time>2019-06-02T07:05:52.000Z</time>
      </trkpt>
      <trkpt lat="43.29027" lon="2.38364">
        <ele>190.3</ele>
        <time>2019-06-02T07:05:53.000Z</time>
      </trkpt>
      <trkpt lat="43.29027" lon="2.38364">
        <ele>190.3</ele>
        <time>2019-06-02T07:05:54.000Z</time>
      </trkpt>
      <trkpt lat="43.29027" lon="2.38364">
        <ele>190.3</ele>
        <time>2019-06-02T07:05:55.000Z</time>
      </trkpt>
      <trkpt lat="43.29027" lon="2.38364">
        <ele>190.3</ele>
        <time>2019-06-02T07:05:56.000Z</time>
      </trkpt>
      <trkpt lat="43.29027" lon="2.38364">
        <ele>190.3</ele>
        <time>2019-06-02T07:05:57.000Z</time>
      </trkpt>
      <trkpt lat="43.29027" lon="2.38364">
        <ele>190.3</ele>
        <time>2019-06-02T07:05:58.000Z</time>
      </trkpt>
      <trkpt lat="43.29027" lon="2.38364">
        <ele>190.3</ele>
        <time>2019-06-02T07:05:59.000Z</time>
      </trkpt>
      <trkpt lat="43.29027" lon="2.38364">
        <ele>190.3</ele>
        <time>2019-06-02T07:06:00.000Z</time>
      </trkpt>
      <trkpt lat="43.29027" lon="2.38364">
        <ele>190.3</ele>
        <time>2019-06-02T07:06:01.000Z</time>
      </trkpt>
      <trkpt lat="43.29027" lon="2.38364">
        <ele>190.3</ele>
        <time>2019-06-02T07:06:02.000Z</time>
      </trkpt>
      <trkpt lat="43.29027" lon="2.38364">
        <ele>190.3</ele>
        <time>2019-06-02T07:06:03.000Z</time>
      </trkpt>
      <trkpt lat="43.29027" lon="2.38364">
        <ele>190.3</ele>
        <time>2019-06-02T07:06:04.000Z</time>
      </trkpt>
      <trkpt lat="43.29028" lon="2.38364">
        <ele>190.4</ele>
        <time>2019-06-02T07:06:05.000Z</time>
      </trkpt>
      <trkpt lat="43.29028" lon="2.38364">
        <ele>190.4</ele>
        <time>2019-06-02T07:06:06.000Z</time>
      </trkpt>
      <trkpt lat="43.2903" lon="2.38364">
        <ele>190.5</ele>
        <time>2019-06-02T07:06:07.000Z</time>
      </trkpt>
      <trkpt lat="43.29031" lon="2.38365">
        <ele>190.6</ele>
        <time>2019-06-02T07:06:08.000Z</time>
      </trkpt>
      <trkpt lat="43.29033" lon="2.38365">
        <ele>190.8</ele>
        <time>2019-06-02T07:06:09.000Z</time>
      </trkpt>
      <trkpt lat="43.29035" lon="2.38364">
        <ele>190.9</ele>
        <time>2019-06-02T07:06:10.000Z</time>
      </trkpt>
      <trkpt lat="43.29036" lon="2.38362">
        <ele>191.1</ele>
        <time>2019-06-02T07:06:11.000Z</time>
      </trkpt>
      <trkpt lat="43.29038" lon="2.38362">
        <ele>191.2</ele>
        <time>2019-06-02T07:06:12.000Z</time>
      </trkpt>
      <trkpt lat="43.2904" lon="2.38362">
        <ele>191.3</ele>
        <time>2019-06-02T07:06:13.000Z</time>
      </trkpt>
      <trkpt lat="43.29042" lon="2.38362">
        <ele>191.5</ele>
        <time>2019-06-02T07:06:14.000Z</time>
      </trkpt>
      <trkpt lat="43.29043" lon="2.38363">
        <ele>191.6</ele>
        <time>2019-06-02T07:06:15.000Z</time>
      </trkpt>
      <trkpt lat="43.29044" lon="2.38364">
        <ele>191.7</ele>
        <time>2019-06-02T07:06:16.000Z</time>
      </trkpt>
      <trkpt lat="43.29046" lon="2.38365">
        <ele>191.7</ele>
        <time>2019-06-02T07:06:17.000Z</time>
      </trkpt>
      <trkpt lat="43.29047" lon="2.38366">
        <ele>191.8</ele>
        <time>2019-06-02T07:06:18.000Z</time>
      </trkpt>
      <trkpt lat="43.29048" lon="2.38368">
        <ele>191.9</ele>
        <time>2019-06-02T07:06:19.000Z</time>
      </trkpt>
      <trkpt lat="43.2905" lon="2.3837">
        <ele>192</ele>
        <time>2019-06-02T07:06:20.000Z</time>
      </trkpt>
      <trkpt lat="43.29052" lon="2.38372">
        <ele>192.1</ele>
        <time>2019-06-02T07:06:21.000Z</time>
      </trkpt>
      <trkpt lat="43.29053" lon="2.38373">
        <ele>192.2</ele>
        <time>2019-06-02T07:06:22.000Z</time>
      </trkpt>
      <trkpt lat="43.29055" lon="2.38374">
        <ele>192.3</ele>
        <time>2019-06-02T07:06:23.000Z</time>
      </trkpt>
      <trkpt lat="43.29057" lon="2.38375">
        <ele>192.4</ele>
        <time>2019-06-02T07:06:24.000Z</time>
      </trkpt>
      <trkpt lat="43.29058" lon="2.38376">
        <ele>192.5</ele>
        <time>2019-06-02T07:06:25.000Z</time>
      </trkpt>
      <trkpt lat="43.2906" lon="2.38376">
        <ele>192.7</ele>
        <time>2019-06-02T07:06:26.000Z</time>
      </trkpt>
      <trkpt lat="43.29062" lon="2.38375">
        <ele>192.8</ele>
        <time>2019-06-02T07:06:27.000Z</time>
      </trkpt>
      <trkpt lat="43.29063" lon="2.38375">
        <ele>193</ele>
        <time>2019-06-02T07:06:28.000Z</time>
      </trkpt>
      <trkpt lat="43.29065" lon="2.38374">
        <ele>193.1</ele>
        <time>2019-06-02T07:06:29.000Z</time>
      </trkpt>
      <trkpt lat="43.29067" lon="2.38373">
        <ele>193.2</ele>
        <time>2019-06-02T07:06:30.000Z</time>
      </trkpt>
      <trkpt lat="43.29068" lon="2.38373">
        <ele>193.4</ele>
        <time>2019-06-02T07:06:31.000Z</time>
      </trkpt>
      <trkpt lat="43.2907" lon="2.38372">
        <ele>193.5</ele>
        <time>2019-06-02T07:06:32.000Z</time>
      </trkpt>
      <trkpt lat="43.29072" lon="2.38372">
        <ele>193.7</ele>
        <time>2019-06-02T07:06:33.000Z</time>
      </trkpt>
      <trkpt lat="43.29074" lon="2.38371">
        <ele>193.8</ele>
        <time>2019-06-02T07:06:34.000Z</time>
      </trkpt>
      <trkpt lat="43.29076" lon="2.38371">
        <ele>193.9</ele>
        <time>2019-06-02T07:06:35.000Z</time>
      </trkpt>
      <trkpt lat="43.29077" lon="2.38371">
        <ele>194.1</ele>
        <time>2019-06-02T07:06:36.000Z</time>
      </trkpt>
      <trkpt lat="43.29079" lon="2.38371">
        <ele>194.2</ele>
        <time>2019-06-02T07:06:37.000Z</time>
      </trkpt>
      <trkpt lat="43.29081" lon="2.3837">
        <ele>194.4</ele>
        <time>2019-06-02T07:06:38.000Z</time>
      </trkpt>
      <trkpt lat="43.29083" lon="2.3837">
        <ele>194.6</ele>
        <time>2019-06-02T07:06:39.000Z</time>
      </trkpt>
      <trkpt lat="43.29086" lon="2.38369">
        <ele>194.8</ele>
        <time>2019-06-02T07:06:40.000Z</time>
      </trkpt>
      <trkpt lat="43.29088" lon="2.38369">
        <ele>195.1</ele>
        <time>2019-06-02T07:06:41.000Z</time>
      </trkpt>
      <trkpt lat="43.2909" lon="2.38368">
        <ele>195.4</ele>
        <time>2019-06-02T07:06:42.000Z</time>
      </trkpt>
      <trkpt lat="43.29092" lon="2.38367">
        <ele>195.7</ele>
        <time>2019-06-02T07:06:43.000Z</time>
      </trkpt>
      <trkpt lat="43.29094" lon="2.38366">
        <ele>196</ele>
        <time>2019-06-02T07:06:44.000Z</time>
      </trkpt>
      <trkpt lat="43.29097" lon="2.38365">
        <ele>196.3</ele>
        <time>2019-06-02T07:06:45.000Z</time>
      </trkpt>
      <trkpt lat="43.29099" lon="2.38364">
        <ele>196.5</ele>
        <time>2019-06-02T07:06:46.000Z</time>
      </trkpt>
      <trkpt lat="43.29101" lon="2.38363">
        <ele>196.8</ele>
        <time>2019-06-02T07:06:47.000Z</time>
      </trkpt>
      <trkpt lat="43.29103" lon="2.38362">
        <ele>197.1</ele>
        <time>2019-06-02T07:06:48.000Z</time>
      </trkpt>
      <trkpt lat="43.29105" lon="2.38361">
        <ele>197.3</ele>
        <time>2019-06-02T07:06:49.000Z</time>
      </trkpt>
      <trkpt lat="43.29107" lon="2.3836">
        <ele>197.6</ele>
        <time>2019-06-02T07:06:50.000Z</time>
      </trkpt>
      <trkpt lat="43.29109" lon="2.38359">
        <ele>197.8</ele>
        <time>2019-06-02T07:06:51.000Z</time>
      </trkpt>
      <trkpt lat="43.29111" lon="2.38357">
        <ele>198.1</ele>
        <time>2019-06-02T07:06:52.000Z</time>
      </trkpt>
      <trkpt lat="43.29112" lon="2.38356">
        <ele>198.3</ele>
        <time>2019-06-02T07:06:53.000Z</time>
      </trkpt>
      <trkpt lat="43.29114" lon="2.38355">
        <ele>198.5</ele>
        <time>2019-06-02T07:06:54.000Z</time>
      </trkpt>
      <trkpt lat="43.29116" lon="2.38354">
        <ele>198.8</ele>
        <time>2019-06-02T07:06:55.000Z</time>
      </trkpt>
      <trkpt lat="43.29118" lon="2.38352">
        <ele>199</ele>
        <time>2019-06-02T07:06:56.000Z</time>
      </trkpt>
      <trkpt lat="43.29119" lon="2.38351">
        <ele>199.2</ele>
        <time>2019-06-02T07:06:57.000Z</time>
      </trkpt>
      <trkpt lat="43.29121" lon="2.3835">
        <ele>199.4</ele>
        <time>2019-06-02T07:06:58.000Z</time>
      </trkpt>
      <trkpt lat="43.29122" lon="2.38349">
        <ele>199.6</ele>
        <time>2019-06-02T07:06:59.000Z</time>
      </trkpt>
      <trkpt lat="43.29124" lon="2.38348">
        <ele>199.7</ele>
        <time>2019-06-02T07:07:00.000Z</time>
      </trkpt>
      <trkpt lat="43.29125" lon="2.38347">
        <ele>199.9</ele>
        <time>2019-06-02T07:07:01.000Z</time>
      </trkpt>
      <trkpt lat="43.29126" lon="2.38345">
        <ele>200.1</ele>
        <time>2019-06-02T07:07:02.000Z</time>
      </trkpt>
      <trkpt lat="43.29128" lon="2.38344">
        <ele>200.2</ele>
        <time>2019-06-02T07:07:03.000Z</time>
      </trkpt>
      <trkpt lat="43.29129" lon="2.38343">
        <ele>200.4</ele>
        <time>2019-06-02T07:07:04.000Z</time>
      </trkpt>
      <trkpt lat="43.2913" lon="2.38342">
        <ele>200.6</ele>
        <time>2019-06-02T07:07:05.000Z</time>
      </trkpt>
      <trkpt lat="43.29132" lon="2.38341">
        <ele>200.7</ele>
        <time>2019-06-02T07:07:06.000Z</time>
      </trkpt>
      <trkpt lat="43.29133" lon="2.3834">
        <ele>200.9</ele>
        <time>2019-06-02T07:07:07.000Z</time>
      </trkpt>
      <trkpt lat="43.29135" lon="2.38339">
        <ele>201.1</ele>
        <time>2019-06-02T07:07:08.000Z</time>
      </trkpt>
      <trkpt lat="43.29136" lon="2.38337">
        <ele>201.3</ele>
        <time>2019-06-02T07:07:09.000Z</time>
      </trkpt>
      <trkpt lat="43.29138" lon="2.38336">
        <ele>201.6</ele>
        <time>2019-06-02T07:07:10.000Z</time>
      </trkpt>
      <trkpt lat="43.2914" lon="2.38334">
        <ele>201.8</ele>
        <time>2019-06-02T07:07:11.000Z</time>
      </trkpt>
      <trkpt lat="43.29142" lon="2.38332">
        <ele>202.1</ele>
        <time>2019-06-02T07:07:12.000Z</time>
      </trkpt>
      <trkpt lat="43.29144" lon="2.38331">
        <ele>202.4</ele>
        <time>2019-06-02T07:07:13.000Z</time>
      </trkpt>
      <trkpt lat="43.29146" lon="2.38329">
        <ele>202.7</ele>
        <time>2019-06-02T07:07:14.000Z</time>
      </trkpt>
      <trkpt lat="43.29148" lon="2.38328">
        <ele>203</ele>
        <time>2019-06-02T07:07:15.000Z</time>
      </trkpt>
      <trkpt lat="43.29151" lon="2.38326">
        <ele>203.2</ele>
        <time>2019-06-02T07:07:16.000Z</time>
      </trkpt>
      <trkpt lat="43.29153" lon="2.38325">
        <ele>203.5</ele>
        <time>2019-06-02T07:07:17.000Z</time>
      </trkpt>
      <trkpt lat="43.29155" lon="2.38324">
        <ele>203.8</ele>
        <time>2019-06-02T07:07:18.000Z</time>
      </trkpt>
      <trkpt lat="43.29157" lon="2.38323">
        <ele>204.1</ele>
        <time>2019-06-02T07:07:19.000Z</time>
      </trkpt>
      <trkpt lat="43.29159" lon="2.38322">
        <ele>204.3</ele>
        <time>2019-06-02T07:07:20.000Z</time>
      </trkpt>
      <trkpt lat="43.29161" lon="2.38321">
        <ele>204.6</ele>
        <time>2019-06-02T07:07:21.000Z</time>
      </trkpt>
      <trkpt lat="43.29163" lon="2.3832">
        <ele>204.9</ele>
        <time>2019-06-02T07:07:22.000Z</time>
      </trkpt>
      <trkpt lat="43.29165" lon="2.38319">
        <ele>205.2</ele>
        <time>2019-06-02T07:07:23.000Z</time>
      </trkpt>
      <trkpt lat="43.29167" lon="2.38317">
        <ele>205.4</ele>
        <time>2019-06-02T07:07:24.000Z</time>
      </trkpt>
      <trkpt lat="43.29169" lon="2.38316">
        <ele>205.7</ele>
        <time>2019-06-02T07:07:25.000Z</time>
      </trkpt>
      <trkpt lat="43.29171" lon="2.38315">
        <ele>205.9</ele>
        <time>2019-06-02T07:07:26.000Z</time>
      </trkpt>
      <trkpt lat="43.29173" lon="2.38314">
        <ele>206.1</ele>
        <time>2019-06-02T07:07:27.000Z</time>
      </trkpt>
      <trkpt lat="43.29175" lon="2.38313">
        <ele>206.3</ele>
        <time>2019-06-02T07:07:28.000Z</time>
      </trkpt>
      <trkpt lat="43.29177" lon="2.38312">
        <ele>206.5</ele>
        <time>2019-06-02T07:07:29.000Z</time>
      </trkpt>
      <trkpt lat="43.29178" lon="2.38312">
        <ele>206.6</ele>
        <time>2019-06-02T07:07:30.000Z</time>
      </trkpt>
      <trkpt lat="43.29179" lon="2.38312">
        <ele>206.7</ele>
        <time>2019-06-02T07:07:31.000Z</time>
      </trkpt>
      <trkpt lat="43.29181" lon="2.38311">
        <ele>206.9</ele>
        <time>2019-06-02T07:07:32.000Z</time>
      </trkpt>
      <trkpt lat="43.29182" lon="2.38311">
        <ele>207</ele>
        <time>2019-06-02T07:07:33.000Z</time>
      </trkpt>
      <trkpt lat="43.29184" lon="2.3831">
        <ele>207.2</ele>
        <time>2019-06-02T07:07:34.000Z</time>
      </trkpt>
      <trkpt lat="43.29186" lon="2.38309">
        <ele>207.4</ele>
        <time>2019-06-02T07:07:35.000Z</time>
      </trkpt>
      <trkpt lat="43.29188" lon="2.38309">
        <ele>207.6</ele>
        <time>2019-06-02T07:07:36.000Z</time>
      </trkpt>
      <trkpt lat="43.2919" lon="2.38308">
        <ele>207.8</ele>
        <time>2019-06-02T07:07:37.000Z</time>
      </trkpt>
      <trkpt lat="43.29192" lon="2.38307">
        <ele>208.1</ele>
        <time>2019-06-02T07:07:38.000Z</time>
      </trkpt>
      <trkpt lat="43.29194" lon="2.38306">
        <ele>208.3</ele>
        <time>2019-06-02T07:07:39.000Z</time>
      </trkpt>
      <trkpt lat="43.29196" lon="2.38306">
        <ele>208.5</ele>
        <time>2019-06-02T07:07:40.000Z</time>
      </trkpt>
      <trkpt lat="43.29198" lon="2.38305">
        <ele>208.6</ele>
        <time>2019-06-02T07:07:41.000Z</time>
      </trkpt>
      <trkpt lat="43.29199" lon="2.38305">
        <ele>208.8</ele>
        <time>2019-06-02T07:07:42.000Z</time>
      </trkpt>
      <trkpt lat="43.29201" lon="2.38305">
        <ele>209</ele>
        <time>2019-06-02T07:07:43.000Z</time>
      </trkpt>
      <trkpt lat="43.29202" lon="2.38304">
        <ele>209.1</ele>
        <time>2019-06-02T07:07:44.000Z</time>
      </trkpt>
      <trkpt lat="43.29204" lon="2.38303">
        <ele>209.3</ele>
        <time>2019-06-02T07:07:45.000Z</time>
      </trkpt>
      <trkpt lat="43.29206" lon="2.38302">
        <ele>209.5</ele>
        <time>2019-06-02T07:07:46.000Z</time>
      </trkpt>
      <trkpt lat="43.29208" lon="2.38301">
        <ele>209.7</ele>
        <time>2019-06-02T07:07:47.000Z</time>
      </trkpt>
      <trkpt lat="43.2921" lon="2.38299">
        <ele>210</ele>
        <time>2019-06-02T07:07:48.000Z</time>
      </trkpt>
      <trkpt lat="43.29212" lon="2.38298">
        <ele>210.2</ele>
        <time>2019-06-02T07:07:49.000Z</time>
      </trkpt>
      <trkpt lat="43.29214" lon="2.38296">
        <ele>210.4</ele>
        <time>2019-06-02T07:07:50.000Z</time>
      </trkpt>
      <trkpt lat="43.29216" lon="2.38295">
        <ele>210.7</ele>
        <time>2019-06-02T07:07:51.000Z</time>
      </trkpt>
      <trkpt lat="43.29218" lon="2.38294">
        <ele>210.9</ele>
        <time>2019-06-02T07:07:52.000Z</time>
      </trkpt>
      <trkpt lat="43.2922" lon="2.38293">
        <ele>211.1</ele>
        <time>2019-06-02T07:07:53.000Z</time>
      </trkpt>
      <trkpt lat="43.29222" lon="2.38292">
        <ele>211.3</ele>
        <time>2019-06-02T07:07:54.000Z</time>
      </trkpt>
      <trkpt lat="43.29224" lon="2.38291">
        <ele>211.6</ele>
        <time>2019-06-02T07:07:55.000Z</time>
      </trkpt>
      <trkpt lat="43.29227" lon="2.3829">
        <ele>211.8</ele>
        <time>2019-06-02T07:07:56.000Z</time>
      </trkpt>
      <trkpt lat="43.29229" lon="2.38289">
        <ele>212</ele>
        <time>2019-06-02T07:07:57.000Z</time>
      </trkpt>
      <trkpt lat="43.29231" lon="2.38288">
        <ele>212.3</ele>
        <time>2019-06-02T07:07:58.000Z</time>
      </trkpt>
      <trkpt lat="43.29233" lon="2.38287">
        <ele>212.5</ele>
        <time>2019-06-02T07:07:59.000Z</time>
      </trkpt>
      <trkpt lat="43.29236" lon="2.38285">
        <ele>212.8</ele>
        <time>2019-06-02T07:08:00.000Z</time>
      </trkpt>
      <trkpt lat="43.29238" lon="2.38284">
        <ele>213</ele>
        <time>2019-06-02T07:08:01.000Z</time>
      </trkpt>
      <trkpt lat="43.2924" lon="2.38282">
        <ele>213.3</ele>
        <time>2019-06-02T07:08:02.000Z</time>
      </trkpt>
      <trkpt lat="43.29243" lon="2.38281">
        <ele>213.6</ele>
        <time>2019-06-02T07:08:03.000Z</time>
      </trkpt>
      <trkpt lat="43.29245" lon="2.38279">
        <ele>213.8</ele>
        <time>2019-06-02T07:08:04.000Z</time>
      </trkpt>
      <trkpt lat="43.29247" lon="2.38277">
        <ele>214.1</ele>
        <time>2019-06-02T07:08:05.000Z</time>
      </trkpt>
      <trkpt lat="43.29249" lon="2.38275">
        <ele>214.3</ele>
        <time>2019-06-02T07:08:06.000Z</time>
      </trkpt>
      <trkpt lat="43.29251" lon="2.38273">
        <ele>214.3</ele>
        <time>2019-06-02T07:08:07.000Z</time>
      </trkpt>
      <trkpt lat="43.29253" lon="2.38272">
        <ele>214.2</ele>
        <time>2019-06-02T07:08:08.000Z</time>
      </trkpt>
      <trkpt lat="43.29255" lon="2.3827">
        <ele>214.1</ele>
        <time>2019-06-02T07:08:09.000Z</time>
      </trkpt>
      <trkpt lat="43.29257" lon="2.38268">
        <ele>214</ele>
        <time>2019-06-02T07:08:10.000Z</time>
      </trkpt>
      <trkpt lat="43.29258" lon="2.38267">
        <ele>214</ele>
        <time>2019-06-02T07:08:11.000Z</time>
      </trkpt>
      <trkpt lat="43.2926" lon="2.38265">
        <ele>213.9</ele>
        <time>2019-06-02T07:08:12.000Z</time>
      </trkpt>
      <trkpt lat="43.29262" lon="2.38263">
        <ele>213.8</ele>
        <time>2019-06-02T07:08:13.000Z</time>
      </trkpt>
      <trkpt lat="43.29263" lon="2.38262">
        <ele>213.8</ele>
        <time>2019-06-02T07:08:14.000Z</time>
      </trkpt>
      <trkpt lat="43.29265" lon="2.3826">
        <ele>213.7</ele>
        <time>2019-06-02T07:08:15.000Z</time>
      </trkpt>
      <trkpt lat="43.29267" lon="2.38259">
        <ele>213.7</ele>
        <time>2019-06-02T07:08:16.000Z</time>
      </trkpt>
      <trkpt lat="43.29268" lon="2.38257">
        <ele>213.6</ele>
        <time>2019-06-02T07:08:17.000Z</time>
      </trkpt>
      <trkpt lat="43.2927" lon="2.38256">
        <ele>213.6</ele>
        <time>2019-06-02T07:08:18.000Z</time>
      </trkpt>
      <trkpt lat="43.29271" lon="2.38254">
        <ele>213.5</ele>
        <time>2019-06-02T07:08:19.000Z</time>
      </trkpt>
      <trkpt lat="43.29273" lon="2.38252">
        <ele>213.5</ele>
        <time>2019-06-02T07:08:20.000Z</time>
      </trkpt>
      <trkpt lat="43.29275" lon="2.38251">
        <ele>213.5</ele>
        <time>2019-06-02T07:08:21.000Z</time>
      </trkpt>
      <trkpt lat="43.29276" lon="2.38249">
        <ele>213.5</ele>
        <time>2019-06-02T07:08:22.000Z</time>
      </trkpt>
      <trkpt lat="43.29278" lon="2.38247">
        <ele>213.5</ele>
        <time>2019-06-02T07:08:23.000Z</time>
      </trkpt>
      <trkpt lat="43.2928" lon="2.38244">
        <ele>213.4</ele>
        <time>2019-06-02T07:08:24.000Z</time>
      </trkpt>
      <trkpt lat="43.29281" lon="2.38242">
        <ele>213.4</ele>
        <time>2019-06-02T07:08:25.000Z</time>
      </trkpt>
      <trkpt lat="43.29283" lon="2.3824">
        <ele>213.4</ele>
        <time>2019-06-02T07:08:26.000Z</time>
      </trkpt>
      <trkpt lat="43.29285" lon="2.38238">
        <ele>213.5</ele>
        <time>2019-06-02T07:08:27.000Z</time>
      </trkpt>
      <trkpt lat="43.29286" lon="2.38236">
        <ele>213.5</ele>
        <time>2019-06-02T07:08:28.000Z</time>
      </trkpt>
      <trkpt lat="43.29288" lon="2.38233">
        <ele>213.5</ele>
        <time>2019-06-02T07:08:29.000Z</time>
      </trkpt>
      <trkpt lat="43.2929" lon="2.38231">
        <ele>213.6</ele>
        <time>2019-06-02T07:08:30.000Z</time>
      </trkpt>
      <trkpt lat="43.29291" lon="2.38229">
        <ele>213.6</ele>
        <time>2019-06-02T07:08:31.000Z</time>
      </trkpt>
      <trkpt lat="43.29293" lon="2.38227">
        <ele>213.7</ele>
        <time>2019-06-02T07:08:32.000Z</time>
      </trkpt>
      <trkpt lat="43.29295" lon="2.38225">
        <ele>213.8</ele>
        <time>2019-06-02T07:08:33.000Z</time>
      </trkpt>
      <trkpt lat="43.29297" lon="2.38223">
        <ele>213.9</ele>
        <time>2019-06-02T07:08:34.000Z</time>
      </trkpt>
      <trkpt lat="43.29298" lon="2.38221">
        <ele>214</ele>
        <time>2019-06-02T07:08:35.000Z</time>
      </trkpt>
      <trkpt lat="43.293" lon="2.38218">
        <ele>214.1</ele>
        <time>2019-06-02T07:08:36.000Z</time>
      </trkpt>
      <trkpt lat="43.29302" lon="2.38216">
        <ele>214.2</ele>
        <time>2019-06-02T07:08:37.000Z</time>
      </trkpt>
      <trkpt lat="43.29303" lon="2.38214">
        <ele>214.3</ele>
        <time>2019-06-02T07:08:38.000Z</time>
      </trkpt>
      <trkpt lat="43.29305" lon="2.38212">
        <ele>214.4</ele>
        <time>2019-06-02T07:08:39.000Z</time>
      </trkpt>
      <trkpt lat="43.29307" lon="2.3821">
        <ele>214.5</ele>
        <time>2019-06-02T07:08:40.000Z</time>
      </trkpt>
      <trkpt lat="43.29309" lon="2.38208">
        <ele>214.7</ele>
        <time>2019-06-02T07:08:41.000Z</time>
      </trkpt>
      <trkpt lat="43.2931" lon="2.38206">
        <ele>214.8</ele>
        <time>2019-06-02T07:08:42.000Z</time>
      </trkpt>
      <trkpt lat="43.29312" lon="2.38204">
        <ele>215</ele>
        <time>2019-06-02T07:08:43.000Z</time>
      </trkpt>
      <trkpt lat="43.29314" lon="2.38202">
        <ele>215.1</ele>
        <time>2019-06-02T07:08:44.000Z</time>
      </trkpt>
      <trkpt lat="43.29316" lon="2.382">
        <ele>215.3</ele>
        <time>2019-06-02T07:08:45.000Z</time>
      </trkpt>
      <trkpt lat="43.29318" lon="2.38198">
        <ele>215.5</ele>
        <time>2019-06-02T07:08:46.000Z</time>
      </trkpt>
      <trkpt lat="43.2932" lon="2.38196">
        <ele>215.7</ele>
        <time>2019-06-02T07:08:47.000Z</time>
      </trkpt>
      <trkpt lat="43.29321" lon="2.38194">
        <ele>215.9</ele>
        <time>2019-06-02T07:08:48.000Z</time>
      </trkpt>
      <trkpt lat="43.29323" lon="2.38192">
        <ele>216.1</ele>
        <time>2019-06-02T07:08:49.000Z</time>
      </trkpt>
      <trkpt lat="43.29325" lon="2.38191">
        <ele>216.3</ele>
        <time>2019-06-02T07:08:50.000Z</time>
      </trkpt>
      <trkpt lat="43.29327" lon="2.38189">
        <ele>216.5</ele>
        <time>2019-06-02T07:08:51.000Z</time>
      </trkpt>
      <trkpt lat="43.29329" lon="2.38187">
        <ele>216.7</ele>
        <time>2019-06-02T07:08:52.000Z</time>
      </trkpt>
      <trkpt lat="43.29331" lon="2.38185">
        <ele>216.9</ele>
        <time>2019-06-02T07:08:53.000Z</time>
      </trkpt>
      <trkpt lat="43.29333" lon="2.38184">
        <ele>217.1</ele>
        <time>2019-06-02T07:08:54.000Z</time>
      </trkpt>
      <trkpt lat="43.29335" lon="2.38182">
        <ele>217.3</ele>
        <time>2019-06-02T07:08:55.000Z</time>
      </trkpt>
      <trkpt lat="43.29337" lon="2.38181">
        <ele>217.4</ele>
        <time>2019-06-02T07:08:56.000Z</time>
      </trkpt>
      <trkpt lat="43.2934" lon="2.38179">
        <ele>217.5</ele>
        <time>2019-06-02T07:08:57.000Z</time>
      </trkpt>
      <trkpt lat="43.29342" lon="2.38178">
        <ele>217.6</ele>
        <time>2019-06-02T07:08:58.000Z</time>
      </trkpt>
      <trkpt lat="43.29344" lon="2.38177">
        <ele>217.7</ele>
        <time>2019-06-02T07:08:59.000Z</time>
      </trkpt>
      <trkpt lat="43.29346" lon="2.38176">
        <ele>217.8</ele>
        <time>2019-06-02T07:09:00.000Z</time>
      </trkpt>
      <trkpt lat="43.29348" lon="2.38174">
        <ele>217.9</ele>
        <time>2019-06-02T07:09:01.000Z</time>
      </trkpt>
      <trkpt lat="43.2935" lon="2.38173">
        <ele>218</ele>
        <time>2019-06-02T07:09:02.000Z</time>
      </trkpt>
      <trkpt lat="43.29353" lon="2.38172">
        <ele>218.1</ele>
        <time>2019-06-02T07:09:03.000Z</time>
      </trkpt>
      <trkpt lat="43.29355" lon="2.38171">
        <ele>218.3</ele>
        <time>2019-06-02T07:09:04.000Z</time>
      </trkpt>
      <trkpt lat="43.29357" lon="2.38171">
        <ele>218.4</ele>
        <time>2019-06-02T07:09:05.000Z</time>
      </trkpt>
      <trkpt lat="43.29359" lon="2.3817">
        <ele>218.5</ele>
        <time>2019-06-02T07:09:06.000Z</time>
      </trkpt>
      <trkpt lat="43.29361" lon="2.38169">
        <ele>218.6</ele>
        <time>2019-06-02T07:09:07.000Z</time>
      </trkpt>
      <trkpt lat="43.29364" lon="2.38168">
        <ele>218.7</ele>
        <time>2019-06-02T07:09:08.000Z</time>
      </trkpt>
      <trkpt lat="43.29366" lon="2.38168">
        <ele>218.8</ele>
        <time>2019-06-02T07:09:09.000Z</time>
      </trkpt>
      <trkpt lat="43.29368" lon="2.38167">
        <ele>218.9</ele>
        <time>2019-06-02T07:09:10.000Z</time>
      </trkpt>
      <trkpt lat="43.2937" lon="2.38167">
        <ele>219</ele>
        <time>2019-06-02T07:09:11.000Z</time>
      </trkpt>
      <trkpt lat="43.29373" lon="2.38166">
        <ele>219</ele>
        <time>2019-06-02T07:09:12.000Z</time>
      </trkpt>
      <trkpt lat="43.29375" lon="2.38166">
        <ele>219</ele>
        <time>2019-06-02T07:09:13.000Z</time>
      </trkpt>
      <trkpt lat="43.29377" lon="2.38166">
        <ele>219.1</ele>
        <time>2019-06-02T07:09:14.000Z</time>
      </trkpt>
      <trkpt lat="43.29379" lon="2.38165">
        <ele>219.1</ele>
        <time>2019-06-02T07:09:15.000Z</time>
      </trkpt>
      <trkpt lat="43.2938" lon="2.38165">
        <ele>219.1</ele>
        <time>2019-06-02T07:09:16.000Z</time>
      </trkpt>
      <trkpt lat="43.29382" lon="2.38164">
        <ele>219.1</ele>
        <time>2019-06-02T07:09:17.000Z</time>
      </trkpt>
      <trkpt lat="43.29383" lon="2.38164">
        <ele>219.2</ele>
        <time>2019-06-02T07:09:18.000Z</time>
      </trkpt>
      <trkpt lat="43.29384" lon="2.38163">
        <ele>219.2</ele>
        <time>2019-06-02T07:09:19.000Z</time>
      </trkpt>
      <trkpt lat="43.29384" lon="2.38163">
        <ele>219.2</ele>
        <time>2019-06-02T07:09:20.000Z</time>
      </trkpt>
      <trkpt lat="43.29384" lon="2.38163">
        <ele>219.2</ele>
        <time>2019-06-02T07:09:21.000Z</time>
      </trkpt>
      <trkpt lat="43.29385" lon="2.38163">
        <ele>219.3</ele>
        <time>2019-06-02T07:09:22.000Z</time>
      </trkpt>
      <trkpt lat="43.29386" lon="2.38162">
        <ele>219.3</ele>
        <time>2019-06-02T07:09:23.000Z</time>
      </trkpt>
      <trkpt lat="43.29388" lon="2.38162">
        <ele>219.3</ele>
        <time>2019-06-02T07:09:24.000Z</time>
      </trkpt>
      <trkpt lat="43.29389" lon="2.38161">
        <ele>219.4</ele>
        <time>2019-06-02T07:09:25.000Z</time>
      </trkpt>
      <trkpt lat="43.2939" lon="2.3816">
        <ele>219.5</ele>
        <time>2019-06-02T07:09:26.000Z</time>
      </trkpt>
      <trkpt lat="43.29391" lon="2.38159">
        <ele>219.5</ele>
        <time>2019-06-02T07:09:27.000Z</time>
      </trkpt>
      <trkpt lat="43.29392" lon="2.38159">
        <ele>219.6</ele>
        <time>2019-06-02T07:09:28.000Z</time>
      </trkpt>
      <trkpt lat="43.29393" lon="2.38158">
        <ele>219.6</ele>
        <time>2019-06-02T07:09:29.000Z</time>
      </trkpt>
      <trkpt lat="43.29394" lon="2.38157">
        <ele>219.7</ele>
        <time>2019-06-02T07:09:30.000Z</time>
      </trkpt>
      <trkpt lat="43.29395" lon="2.38157">
        <ele>219.7</ele>
        <time>2019-06-02T07:09:31.000Z</time>
      </trkpt>
      <trkpt lat="43.29397" lon="2.38156">
        <ele>219.8</ele>
        <time>2019-06-02T07:09:32.000Z</time>
      </trkpt>
      <trkpt lat="43.29398" lon="2.38155">
        <ele>219.9</ele>
        <time>2019-06-02T07:09:33.000Z</time>
      </trkpt>
      <trkpt lat="43.294" lon="2.38154">
        <ele>220</ele>
        <time>2019-06-02T07:09:34.000Z</time>
      </trkpt>
      <trkpt lat="43.29401" lon="2.38153">
        <ele>220.1</ele>
        <time>2019-06-02T07:09:35.000Z</time>
      </trkpt>
      <trkpt lat="43.29403" lon="2.38152">
        <ele>220.2</ele>
        <time>2019-06-02T07:09:36.000Z</time>
      </trkpt>
      <trkpt lat="43.29404" lon="2.38151">
        <ele>220.3</ele>
        <time>2019-06-02T07:09:37.000Z</time>
      </trkpt>
      <trkpt lat="43.29406" lon="2.3815">
        <ele>220.4</ele>
        <time>2019-06-02T07:09:38.000Z</time>
      </trkpt>
      <trkpt lat="43.29408" lon="2.38149">
        <ele>220.6</ele>
        <time>2019-06-02T07:09:39.000Z</time>
      </trkpt>
      <trkpt lat="43.29409" lon="2.38147">
        <ele>220.7</ele>
        <time>2019-06-02T07:09:40.000Z</time>
      </trkpt>
      <trkpt lat="43.29411" lon="2.38146">
        <ele>220.8</ele>
        <time>2019-06-02T07:09:41.000Z</time>
      </trkpt>
      <trkpt lat="43.29413" lon="2.38145">
        <ele>221</ele>
        <time>2019-06-02T07:09:42.000Z</time>
      </trkpt>
      <trkpt lat="43.29415" lon="2.38144">
        <ele>221.1</ele>
        <time>2019-06-02T07:09:43.000Z</time>
      </trkpt>
      <trkpt lat="43.29417" lon="2.38143">
        <ele>221.3</ele>
        <time>2019-06-02T07:09:44.000Z</time>
      </trkpt>
      <trkpt lat="43.29419" lon="2.38142">
        <ele>221.3</ele>
        <time>2019-06-02T07:09:45.000Z</time>
      </trkpt>
      <trkpt lat="43.29421" lon="2.38141">
        <ele>221.3</ele>
        <time>2019-06-02T07:09:46.000Z</time>
      </trkpt>
      <trkpt lat="43.29423" lon="2.38139">
        <ele>221.3</ele>
        <time>2019-06-02T07:09:47.000Z</time>
      </trkpt>
      <trkpt lat="43.29425" lon="2.38138">
        <ele>221.3</ele>
        <time>2019-06-02T07:09:48.000Z</time>
      </trkpt>
      <trkpt lat="43.29427" lon="2.38137">
        <ele>221.3</ele>
        <time>2019-06-02T07:09:49.000Z</time>
      </trkpt>
      <trkpt lat="43.29429" lon="2.38136">
        <ele>221.3</ele>
        <time>2019-06-02T07:09:50.000Z</time>
      </trkpt>
      <trkpt lat="43.29431" lon="2.38135">
        <ele>221.4</ele>
        <time>2019-06-02T07:09:51.000Z</time>
      </trkpt>
      <trkpt lat="43.29433" lon="2.38134">
        <ele>221.4</ele>
        <time>2019-06-02T07:09:52.000Z</time>
      </trkpt>
      <trkpt lat="43.29435" lon="2.38132">
        <ele>221.4</ele>
        <time>2019-06-02T07:09:53.000Z</time>
      </trkpt>
      <trkpt lat="43.29437" lon="2.38131">
        <ele>221.5</ele>
        <time>2019-06-02T07:09:54.000Z</time>
      </trkpt>
      <trkpt lat="43.29439" lon="2.3813">
        <ele>221.5</ele>
        <time>2019-06-02T07:09:55.000Z</time>
      </trkpt>
      <trkpt lat="43.29441" lon="2.38129">
        <ele>221.6</ele>
        <time>2019-06-02T07:09:56.000Z</time>
      </trkpt>
      <trkpt lat="43.29443" lon="2.38127">
        <ele>221.6</ele>
        <time>2019-06-02T07:09:57.000Z</time>
      </trkpt>
      <trkpt lat="43.29445" lon="2.38126">
        <ele>221.7</ele>
        <time>2019-06-02T07:09:58.000Z</time>
      </trkpt>
      <trkpt lat="43.29447" lon="2.38125">
        <ele>221.8</ele>
        <time>2019-06-02T07:09:59.000Z</time>
      </trkpt>
      <trkpt lat="43.29449" lon="2.38124">
        <ele>221.8</ele>
        <time>2019-06-02T07:10:00.000Z</time>
      </trkpt>
      <trkpt lat="43.2945" lon="2.38122">
        <ele>221.9</ele>
        <time>2019-06-02T07:10:01.000Z</time>
      </trkpt>
      <trkpt lat="43.29452" lon="2.38121">
        <ele>222</ele>
        <time>2019-06-02T07:10:02.000Z</time>
      </trkpt>
      <trkpt lat="43.29454" lon="2.3812">
        <ele>222.1</ele>
        <time>2019-06-02T07:10:03.000Z</time>
      </trkpt>
      <trkpt lat="43.29456" lon="2.38118">
        <ele>222.2</ele>
        <time>2019-06-02T07:10:04.000Z</time>
      </trkpt>
      <trkpt lat="43.29457" lon="2.38117">
        <ele>222.3</ele>
        <time>2019-06-02T07:10:05.000Z</time>
      </trkpt>
      <trkpt lat="43.29459" lon="2.38116">
        <ele>222.4</ele>
        <time>2019-06-02T07:10:06.000Z</time>
      </trkpt>
      <trkpt lat="43.29461" lon="2.38114">
        <ele>222.5</ele>
        <time>2019-06-02T07:10:07.000Z</time>
      </trkpt>
      <trkpt lat="43.29462" lon="2.38113">
        <ele>222.6</ele>
        <time>2019-06-02T07:10:08.000Z</time>
      </trkpt>
      <trkpt lat="43.29463" lon="2.38112">
        <ele>222.8</ele>
        <time>2019-06-02T07:10:09.000Z</time>
      </trkpt>
      <trkpt lat="43.29464" lon="2.38111">
        <ele>222.9</ele>
        <time>2019-06-02T07:10:10.000Z</time>
      </trkpt>
      <trkpt lat="43.29465" lon="2.3811">
        <ele>223</ele>
        <time>2019-06-02T07:10:11.000Z</time>
      </trkpt>
      <trkpt lat="43.29466" lon="2.38108">
        <ele>223.1</ele>
        <time>2019-06-02T07:10:12.000Z</time>
      </trkpt>
      <trkpt lat="43.29467" lon="2.38107">
        <ele>223.2</ele>
        <time>2019-06-02T07:10:13.000Z</time>
      </trkpt>
      <trkpt lat="43.29468" lon="2.38106">
        <ele>223.4</ele>
        <time>2019-06-02T07:10:14.000Z</time>
      </trkpt>
      <trkpt lat="43.29468" lon="2.38105">
        <ele>223.5</ele>
        <time>2019-06-02T07:10:15.000Z</time>
      </trkpt>
      <trkpt lat="43.29469" lon="2.38104">
        <ele>223.6</ele>
        <time>2019-06-02T07:10:16.000Z</time>
      </trkpt>
      <trkpt lat="43.29469" lon="2.38103">
        <ele>223.8</ele>
        <time>2019-06-02T07:10:17.000Z</time>
      </trkpt>
      <trkpt lat="43.2947" lon="2.38101">
        <ele>223.9</ele>
        <time>2019-06-02T07:10:18.000Z</time>
      </trkpt>
      <trkpt lat="43.29471" lon="2.381">
        <ele>224.1</ele>
        <time>2019-06-02T07:10:19.000Z</time>
      </trkpt>
      <trkpt lat="43.29471" lon="2.38099">
        <ele>224.3</ele>
        <time>2019-06-02T07:10:20.000Z</time>
      </trkpt>
      <trkpt lat="43.29472" lon="2.38098">
        <ele>224.4</ele>
        <time>2019-06-02T07:10:21.000Z</time>
      </trkpt>
      <trkpt lat="43.29472" lon="2.38096">
        <ele>224.6</ele>
        <time>2019-06-02T07:10:22.000Z</time>
      </trkpt>
      <trkpt lat="43.29473" lon="2.38095">
        <ele>224.7</ele>
        <time>2019-06-02T07:10:23.000Z</time>
      </trkpt>
      <trkpt lat="43.29473" lon="2.38095">
        <ele>224.8</ele>
        <time>2019-06-02T07:10:24.000Z</time>
      </trkpt>
      <trkpt lat="43.29473" lon="2.38094">
        <ele>224.9</ele>
        <time>2019-06-02T07:10:25.000Z</time>
      </trkpt>
      <trkpt lat="43.29474" lon="2.38093">
        <ele>225</ele>
        <time>2019-06-02T07:10:26.000Z</time>
      </trkpt>
      <trkpt lat="43.29474" lon="2.38093">
        <ele>225</ele>
        <time>2019-06-02T07:10:27.000Z</time>
      </trkpt>
      <trkpt lat="43.29474" lon="2.38092">
        <ele>225.1</ele>
        <time>2019-06-02T07:10:28.000Z</time>
      </trkpt>
      <trkpt lat="43.29474" lon="2.38092">
        <ele>225.1</ele>
        <time>2019-06-02T07:10:29.000Z</time>
      </trkpt>
      <trkpt lat="43.29474" lon="2.38092">
        <ele>225.1</ele>
        <time>2019-06-02T07:10:30.000Z</time>
      </trkpt>
      <trkpt lat="43.29474" lon="2.38092">
        <ele>225.1</ele>
        <time>2019-06-02T07:10:31.000Z</time>
      </trkpt>
      <trkpt lat="43.29474" lon="2.38092">
        <ele>225.1</ele>
        <time>2019-06-02T07:10:32.000Z</time>
      </trkpt>
      <trkpt lat="43.29474" lon="2.38092">
        <ele>225.1</ele>
        <time>2019-06-02T07:10:33.000Z</time>
      </trkpt>
      <trkpt lat="43.29474" lon="2.38092">
        <ele>225.1</ele>
        <time>2019-06-02T07:10:34.000Z</time>
      </trkpt>
      <trkpt lat="43.29474" lon="2.38092">
        <ele>225.1</ele>
        <time>2019-06-02T07:10:35.000Z</time>
      </trkpt>
      <trkpt lat="43.29474" lon="2.38092">
        <ele>225.1</ele>
        <time>2019-06-02T07:10:36.000Z</time>
      </trkpt>
      <trkpt lat="43.29474" lon="2.38092">
        <ele>225.1</ele>
        <time>2019-06-02T07:10:37.000Z</time>
      </trkpt>
      <trkpt lat="43.29474" lon="2.38092">
        <ele>225.1</ele>
        <time>2019-06-02T07:10:38.000Z</time>
      </trkpt>
      <trkpt lat="43.29474" lon="2.38092">
        <ele>225.1</ele>
        <time>2019-06-02T07:10:39.000Z</time>
      </trkpt>
      <trkpt lat="43.29474" lon="2.38092">
        <ele>225.1</ele>
        <time>2019-06-02T07:10:40.000Z</time>
      </trkpt>
      <trkpt lat="43.29474" lon="2.38092">
        <ele>225.1</ele>
        <time>2019-06-02T07:10:41.000Z</time>
      </trkpt>
      <trkpt lat="43.29474" lon="2.38092">
        <ele>225.1</ele>
        <time>2019-06-02T07:10:42.000Z</time>
      </trkpt>
      <trkpt lat="43.29474" lon="2.38092">
        <ele>225.1</ele>
        <time>2019-06-02T07:10:43.000Z</time>
      </trkpt>
      <trkpt lat="43.29474" lon="2.38092">
        <ele>225.1</ele>
        <time>2019-06-02T07:10:44.000Z</time>
      </trkpt>
      <trkpt lat="43.29474" lon="2.38092">
        <ele>225.1</ele>
        <time>2019-06-02T07:10:45.000Z</time>
      </trkpt>
      <trkpt lat="43.29474" lon="2.38092">
        <ele>225.1</ele>
        <time>2019-06-02T07:10:46.000Z</time>
      </trkpt>
      <trkpt lat="43.29474" lon="2.38092">
        <ele>225.1</ele>
        <time>2019-06-02T07:10:47.000Z</time>
      </trkpt>
      <trkpt lat="43.29474" lon="2.38092">
        <ele>225.1</ele>
        <time>2019-06-02T07:10:48.000Z</time>
      </trkpt>
      <trkpt lat="43.29474" lon="2.38092">
        <ele>225.1</ele>
        <time>2019-06-02T07:10:49.000Z</time>
      </trkpt>
      <trkpt lat="43.29474" lon="2.38092">
        <ele>225.1</ele>
        <time>2019-06-02T07:10:50.000Z</time>
      </trkpt>
      <trkpt lat="43.29474" lon="2.38092">
        <ele>225.1</ele>
        <time>2019-06-02T07:10:51.000Z</time>
      </trkpt>
      <trkpt lat="43.29474" lon="2.38092">
        <ele>225.1</ele>
        <time>2019-06-02T07:10:52.000Z</time>
      </trkpt>
      <trkpt lat="43.29474" lon="2.38092">
        <ele>225.1</ele>
        <time>2019-06-02T07:10:53.000Z</time>
      </trkpt>
      <trkpt lat="43.29474" lon="2.38092">
        <ele>225.1</ele>
        <time>2019-06-02T07:10:54.000Z</time>
      </trkpt>
      <trkpt lat="43.29474" lon="2.38092">
        <ele>225.1</ele>
        <time>2019-06-02T07:10:55.000Z</time>
      </trkpt>
      <trkpt lat="43.29474" lon="2.38092">
        <ele>225.1</ele>
        <time>2019-06-02T07:10:56.000Z</time>
      </trkpt>
      <trkpt lat="43.29474" lon="2.38092">
        <ele>225.1</ele>
        <time>2019-06-02T07:10:57.000Z</time>
      </trkpt>
      <trkpt lat="43.29474" lon="2.38092">
        <ele>225.1</ele>
        <time>2019-06-02T07:10:58.000Z</time>
      </trkpt>
      <trkpt lat="43.29474" lon="2.38092">
        <ele>225.1</ele>
        <time>2019-06-02T07:10:59.000Z</time>
      </trkpt>
      <trkpt lat="43.29474" lon="2.38092">
        <ele>225.1</ele>
        <time>2019-06-02T07:11:00.000Z</time>
      </trkpt>
      <trkpt lat="43.29474" lon="2.38092">
        <ele>225.1</ele>
        <time>2019-06-02T07:11:01.000Z</time>
      </trkpt>
      <trkpt lat="43.29474" lon="2.38092">
        <ele>225.1</ele>
        <time>2019-06-02T07:11:02.000Z</time>
      </trkpt>
      <trkpt lat="43.29474" lon="2.38093">
        <ele>225</ele>
        <time>2019-06-02T07:11:03.000Z</time>
      </trkpt>
      <trkpt lat="43.29474" lon="2.38093">
        <ele>225</ele>
        <time>2019-06-02T07:11:04.000Z</time>
      </trkpt>
      <trkpt lat="43.29475" lon="2.38093">
        <ele>225</ele>
        <time>2019-06-02T07:11:05.000Z</time>
      </trkpt>
      <trkpt lat="43.29476" lon="2.38092">
        <ele>225.1</ele>
        <time>2019-06-02T07:11:06.000Z</time>
      </trkpt>
      <trkpt lat="43.29476" lon="2.38092">
        <ele>225.1</ele>
        <time>2019-06-02T07:11:07.000Z</time>
      </trkpt>
      <trkpt lat="43.29477" lon="2.38092">
        <ele>225</ele>
        <time>2019-06-02T07:11:08.000Z</time>
      </trkpt>
      <trkpt lat="43.29477" lon="2.38092">
        <ele>225</ele>
        <time>2019-06-02T07:11:09.000Z</time>
      </trkpt>
      <trkpt lat="43.29477" lon="2.38093">
        <ele>225</ele>
        <time>2019-06-02T07:11:10.000Z</time>
      </trkpt>
      <trkpt lat="43.29477" lon="2.38093">
        <ele>225</ele>
        <time>2019-06-02T07:11:11.000Z</time>
      </trkpt>
      <trkpt lat="43.29477" lon="2.38093">
        <ele>225</ele>
        <time>2019-06-02T07:11:12.000Z</time>
      </trkpt>
      <trkpt lat="43.29477" lon="2.38093">
        <ele>224.9</ele>
        <time>2019-06-02T07:11:13.000Z</time>
      </trkpt>
      <trkpt lat="43.29477" lon="2.38093">
        <ele>224.9</ele>
        <time>2019-06-02T07:11:14.000Z</time>
      </trkpt>
      <trkpt lat="43.29477" lon="2.38093">
        <ele>224.9</ele>
        <time>2019-06-02T07:11:15.000Z</time>
      </trkpt>
      <trkpt lat="43.29478" lon="2.38093">
        <ele>224.9</ele>
        <time>2019-06-02T07:11:16.000Z</time>
      </trkpt>
      <trkpt lat="43.29478" lon="2.38093">
        <ele>224.9</ele>
        <time>2019-06-02T07:11:17.000Z</time>
      </trkpt>
      <trkpt lat="43.29478" lon="2.38093">
        <ele>224.9</ele>
        <time>2019-06-02T07:11:18.000Z</time>
      </trkpt>
      <trkpt lat="43.29478" lon="2.38093">
        <ele>224.9</ele>
        <time>2019-06-02T07:11:19.000Z</time>
      </trkpt>
      <trkpt lat="43.29477" lon="2.38093">
        <ele>224.9</ele>
        <time>2019-06-02T07:11:20.000Z</time>
      </trkpt>
      <trkpt lat="43.29477" lon="2.38093">
        <ele>224.9</ele>
        <time>2019-06-02T07:11:21.000Z</time>
      </trkpt>
      <trkpt lat="43.29477" lon="2.38093">
        <ele>224.9</ele>
        <time>2019-06-02T07:11:22.000Z</time>
      </trkpt>
      <trkpt lat="43.29477" lon="2.38093">
        <ele>224.9</ele>
        <time>2019-06-02T07:11:23.000Z</time>
      </trkpt>
      <trkpt lat="43.29477" lon="2.38093">
        <ele>224.9</ele>
        <time>2019-06-02T07:11:24.000Z</time>
      </trkpt>
      <trkpt lat="43.29477" lon="2.38093">
        <ele>224.9</ele>
        <time>2019-06-02T07:11:25.000Z</time>
      </trkpt>
      <trkpt lat="43.29478" lon="2.38093">
        <ele>224.9</ele>
        <time>2019-06-02T07:11:26.000Z</time>
      </trkpt>
      <trkpt lat="43.29478" lon="2.38093">
        <ele>224.9</ele>
        <time>2019-06-02T07:11:27.000Z</time>
      </trkpt>
      <trkpt lat="43.29477" lon="2.38093">
        <ele>224.9</ele>
        <time>2019-06-02T07:11:28.000Z</time>
      </trkpt>
      <trkpt lat="43.29477" lon="2.38093">
        <ele>224.9</ele>
        <time>2019-06-02T07:11:29.000Z</time>
      </trkpt>
      <trkpt lat="43.29477" lon="2.38094">
        <ele>224.8</ele>
        <time>2019-06-02T07:11:30.000Z</time>
      </trkpt>
      <trkpt lat="43.29477" lon="2.38096">
        <ele>224.6</ele>
        <time>2019-06-02T07:11:31.000Z</time>
      </trkpt>
      <trkpt lat="43.29476" lon="2.38097">
        <ele>224.4</ele>
        <time>2019-06-02T07:11:32.000Z</time>
      </trkpt>
      <trkpt lat="43.29475" lon="2.38098">
        <ele>224.2</ele>
        <time>2019-06-02T07:11:33.000Z</time>
      </trkpt>
      <trkpt lat="43.29475" lon="2.38099">
        <ele>224.2</ele>
        <time>2019-06-02T07:11:34.000Z</time>
      </trkpt>
      <trkpt lat="43.29476" lon="2.38097">
        <ele>224.4</ele>
        <time>2019-06-02T07:11:35.000Z</time>
      </trkpt>
      <trkpt lat="43.29476" lon="2.38095">
        <ele>224.7</ele>
        <time>2019-06-02T07:11:36.000Z</time>
      </trkpt>
      <trkpt lat="43.29475" lon="2.38093">
        <ele>225</ele>
        <time>2019-06-02T07:11:37.000Z</time>
      </trkpt>
      <trkpt lat="43.29473" lon="2.38091">
        <ele>225.2</ele>
        <time>2019-06-02T07:11:38.000Z</time>
      </trkpt>
      <trkpt lat="43.29471" lon="2.38091">
        <ele>225.4</ele>
        <time>2019-06-02T07:11:39.000Z</time>
      </trkpt>
      <trkpt lat="43.29468" lon="2.3809">
        <ele>225.5</ele>
        <time>2019-06-02T07:11:40.000Z</time>
      </trkpt>
      <trkpt lat="43.29466" lon="2.3809">
        <ele>225.5</ele>
        <time>2019-06-02T07:11:41.000Z</time>
      </trkpt>
      <trkpt lat="43.29464" lon="2.3809">
        <ele>225.6</ele>
        <time>2019-06-02T07:11:42.000Z</time>
      </trkpt>
      <trkpt lat="43.29462" lon="2.3809">
        <ele>225.6</ele>
        <time>2019-06-02T07:11:43.000Z</time>
      </trkpt>
      <trkpt lat="43.2946" lon="2.3809">
        <ele>225.6</ele>
        <time>2019-06-02T07:11:44.000Z</time>
      </trkpt>
      <trkpt lat="43.29458" lon="2.3809">
        <ele>225.7</ele>
        <time>2019-06-02T07:11:45.000Z</time>
      </trkpt>
      <trkpt lat="43.29456" lon="2.3809">
        <ele>225.7</ele>
        <time>2019-06-02T07:11:46.000Z</time>
      </trkpt>
      <trkpt lat="43.29454" lon="2.3809">
        <ele>225.7</ele>
        <time>2019-06-02T07:11:47.000Z</time>
      </trkpt>
      <trkpt lat="43.29452" lon="2.3809">
        <ele>225.7</ele>
        <time>2019-06-02T07:11:48.000Z</time>
      </trkpt>
      <trkpt lat="43.29451" lon="2.3809">
        <ele>225.7</ele>
        <time>2019-06-02T07:11:49.000Z</time>
      </trkpt>
      <trkpt lat="43.29449" lon="2.38091">
        <ele>225.8</ele>
        <time>2019-06-02T07:11:50.000Z</time>
      </trkpt>
      <trkpt lat="43.29448" lon="2.38091">
        <ele>225.8</ele>
        <time>2019-06-02T07:11:51.000Z</time>
      </trkpt>
      <trkpt lat="43.29447" lon="2.38091">
        <ele>225.8</ele>
        <time>2019-06-02T07:11:52.000Z</time>
      </trkpt>
      <trkpt lat="43.29447" lon="2.38091">
        <ele>225.8</ele>
        <time>2019-06-02T07:11:53.000Z</time>
      </trkpt>
      <trkpt lat="43.29446" lon="2.38091">
        <ele>225.8</ele>
        <time>2019-06-02T07:11:54.000Z</time>
      </trkpt>
      <trkpt lat="43.29446" lon="2.38091">
        <ele>225.8</ele>
        <time>2019-06-02T07:11:55.000Z</time>
      </trkpt>
      <trkpt lat="43.29446" lon="2.38091">
        <ele>225.8</ele>
        <time>2019-06-02T07:11:56.000Z</time>
      </trkpt>
      <trkpt lat="43.29446" lon="2.38091">
        <ele>225.8</ele>
        <time>2019-06-02T07:11:57.000Z</time>
      </trkpt>
      <trkpt lat="43.29446" lon="2.38091">
        <ele>225.8</ele>
        <time>2019-06-02T07:11:58.000Z</time>
      </trkpt>
      <trkpt lat="43.29446" lon="2.38091">
        <ele>225.8</ele>
        <time>2019-06-02T07:11:59.000Z</time>
      </trkpt>
      <trkpt lat="43.29446" lon="2.38091">
        <ele>225.8</ele>
        <time>2019-06-02T07:12:00.000Z</time>
      </trkpt>
      <trkpt lat="43.29447" lon="2.38091">
        <ele>225.8</ele>
        <time>2019-06-02T07:12:01.000Z</time>
      </trkpt>
      <trkpt lat="43.29447" lon="2.38091">
        <ele>225.8</ele>
        <time>2019-06-02T07:12:02.000Z</time>
      </trkpt>
      <trkpt lat="43.29447" lon="2.38091">
        <ele>225.8</ele>
        <time>2019-06-02T07:12:03.000Z</time>
      </trkpt>
      <trkpt lat="43.29447" lon="2.38091">
        <ele>225.8</ele>
        <time>2019-06-02T07:12:04.000Z</time>
      </trkpt>
      <trkpt lat="43.29447" lon="2.38091">
        <ele>225.8</ele>
        <time>2019-06-02T07:12:05.000Z</time>
      </trkpt>
      <trkpt lat="43.29447" lon="2.38091">
        <ele>225.8</ele>
        <time>2019-06-02T07:12:06.000Z</time>
      </trkpt>
      <trkpt lat="43.29447" lon="2.38091">
        <ele>225.8</ele>
        <time>2019-06-02T07:12:07.000Z</time>
      </trkpt>
      <trkpt lat="43.29447" lon="2.38091">
        <ele>225.8</ele>
        <time>2019-06-02T07:12:08.000Z</time>
      </trkpt>
      <trkpt lat="43.29447" lon="2.38091">
        <ele>225.7</ele>
        <time>2019-06-02T07:12:09.000Z</time>
      </trkpt>
      <trkpt lat="43.29447" lon="2.38091">
        <ele>225.7</ele>
        <time>2019-06-02T07:12:10.000Z</time>
      </trkpt>
      <trkpt lat="43.29448" lon="2.38091">
        <ele>225.8</ele>
        <time>2019-06-02T07:12:11.000Z</time>
      </trkpt>
      <trkpt lat="43.29448" lon="2.38091">
        <ele>225.8</ele>
        <time>2019-06-02T07:12:12.000Z</time>
      </trkpt>
      <trkpt lat="43.29449" lon="2.38091">
        <ele>225.7</ele>
        <time>2019-06-02T07:12:13.000Z</time>
      </trkpt>
      <trkpt lat="43.29449" lon="2.38091">
        <ele>225.7</ele>
        <time>2019-06-02T07:12:14.000Z</time>
      </trkpt>
      <trkpt lat="43.2945" lon="2.38091">
        <ele>225.7</ele>
        <time>2019-06-02T07:12:15.000Z</time>
      </trkpt>
      <trkpt lat="43.2945" lon="2.38091">
        <ele>225.7</ele>
        <time>2019-06-02T07:12:16.000Z</time>
      </trkpt>
      <trkpt lat="43.29451" lon="2.38091">
        <ele>225.6</ele>
        <time>2019-06-02T07:12:17.000Z</time>
      </trkpt>
      <trkpt lat="43.29452" lon="2.38092">
        <ele>225.5</ele>
        <time>2019-06-02T07:12:18.000Z</time>
      </trkpt>
      <trkpt lat="43.29454" lon="2.38093">
        <ele>225.4</ele>
        <time>2019-06-02T07:12:19.000Z</time>
      </trkpt>
      <trkpt lat="43.29456" lon="2.38093">
        <ele>225.3</ele>
        <time>2019-06-02T07:12:20.000Z</time>
      </trkpt>
      <trkpt lat="43.29458" lon="2.38093">
        <ele>225.3</ele>
        <time>2019-06-02T07:12:21.000Z</time>
      </trkpt>
      <trkpt lat="43.2946" lon="2.38093">
        <ele>225.3</ele>
        <time>2019-06-02T07:12:22.000Z</time>
      </trkpt>
      <trkpt lat="43.29462" lon="2.38092">
        <ele>225.3</ele>
        <time>2019-06-02T07:12:23.000Z</time>
      </trkpt>
      <trkpt lat="43.29464" lon="2.38092">
        <ele>225.3</ele>
        <time>2019-06-02T07:12:24.000Z</time>
      </trkpt>
      <trkpt lat="43.29465" lon="2.38092">
        <ele>225.3</ele>
        <time>2019-06-02T07:12:25.000Z</time>
      </trkpt>
      <trkpt lat="43.29466" lon="2.38092">
        <ele>225.3</ele>
        <time>2019-06-02T07:12:26.000Z</time>
      </trkpt>
      <trkpt lat="43.29466" lon="2.38092">
        <ele>225.3</ele>
        <time>2019-06-02T07:12:27.000Z</time>
      </trkpt>
      <trkpt lat="43.29466" lon="2.38092">
        <ele>225.3</ele>
        <time>2019-06-02T07:12:28.000Z</time>
      </trkpt>
      <trkpt lat="43.29469" lon="2.38092">
        <ele>225.2</ele>
        <time>2019-06-02T07:12:29.000Z</time>
      </trkpt>
      <trkpt lat="43.29471" lon="2.38092">
        <ele>225.2</ele>
        <time>2019-06-02T07:12:30.000Z</time>
      </trkpt>
      <trkpt lat="43.29472" lon="2.38091">
        <ele>225.3</ele>
        <time>2019-06-02T07:12:31.000Z</time>
      </trkpt>
      <trkpt lat="43.29473" lon="2.38091">
        <ele>225.3</ele>
        <time>2019-06-02T07:12:32.000Z</time>
      </trkpt>
      <trkpt lat="43.29473" lon="2.38091">
        <ele>225.3</ele>
        <time>2019-06-02T07:12:33.000Z</time>
      </trkpt>
      <trkpt lat="43.29473" lon="2.38091">
        <ele>225.3</ele>
        <time>2019-06-02T07:12:34.000Z</time>
      </trkpt>
      <trkpt lat="43.29473" lon="2.38091">
        <ele>225.3</ele>
        <time>2019-06-02T07:12:35.000Z</time>
      </trkpt>
      <trkpt lat="43.29473" lon="2.38091">
        <ele>225.3</ele>
        <time>2019-06-02T07:12:36.000Z</time>
      </trkpt>
      <trkpt lat="43.29473" lon="2.38091">
        <ele>225.3</ele>
        <time>2019-06-02T07:12:37.000Z</time>
      </trkpt>
      <trkpt lat="43.29473" lon="2.38091">
        <ele>225.3</ele>
        <time>2019-06-02T07:12:38.000Z</time>
      </trkpt>
      <trkpt lat="43.29473" lon="2.38091">
        <ele>225.3</ele>
        <time>2019-06-02T07:12:39.000Z</time>
      </trkpt>
      <trkpt lat="43.29473" lon="2.38091">
        <ele>225.3</ele>
        <time>2019-06-02T07:12:40.000Z</time>
      </trkpt>
      <trkpt lat="43.29473" lon="2.38091">
        <ele>225.3</ele>
        <time>2019-06-02T07:12:41.000Z</time>
      </trkpt>
      <trkpt lat="43.29473" lon="2.38091">
        <ele>225.3</ele>
        <time>2019-06-02T07:12:42.000Z</time>
      </trkpt>
      <trkpt lat="43.29473" lon="2.38091">
        <ele>225.3</ele>
        <time>2019-06-02T07:12:43.000Z</time>
      </trkpt>
      <trkpt lat="43.29473" lon="2.38091">
        <ele>225.3</ele>
        <time>2019-06-02T07:12:44.000Z</time>
      </trkpt>
      <trkpt lat="43.29473" lon="2.38091">
        <ele>225.3</ele>
        <time>2019-06-02T07:12:45.000Z</time>
      </trkpt>
      <trkpt lat="43.29473" lon="2.38091">
        <ele>225.3</ele>
        <time>2019-06-02T07:12:46.000Z</time>
      </trkpt>
      <trkpt lat="43.29473" lon="2.38091">
        <ele>225.3</ele>
        <time>2019-06-02T07:12:47.000Z</time>
      </trkpt>
      <trkpt lat="43.29473" lon="2.38091">
        <ele>225.3</ele>
        <time>2019-06-02T07:12:48.000Z</time>
      </trkpt>
      <trkpt lat="43.29473" lon="2.38091">
        <ele>225.3</ele>
        <time>2019-06-02T07:12:49.000Z</time>
      </trkpt>
      <trkpt lat="43.29473" lon="2.38091">
        <ele>225.3</ele>
        <time>2019-06-02T07:12:50.000Z</time>
      </trkpt>
      <trkpt lat="43.29473" lon="2.38091">
        <ele>225.3</ele>
        <time>2019-06-02T07:12:51.000Z</time>
      </trkpt>
      <trkpt lat="43.29473" lon="2.38091">
        <ele>225.3</ele>
        <time>2019-06-02T07:12:52.000Z</time>
      </trkpt>
      <trkpt lat="43.29473" lon="2.38091">
        <ele>225.3</ele>
        <time>2019-06-02T07:12:53.000Z</time>
      </trkpt>
      <trkpt lat="43.29473" lon="2.38091">
        <ele>225.3</ele>
        <time>2019-06-02T07:12:54.000Z</time>
      </trkpt>
      <trkpt lat="43.29473" lon="2.38091">
        <ele>225.3</ele>
        <time>2019-06-02T07:12:55.000Z</time>
      </trkpt>
      <trkpt lat="43.29473" lon="2.38091">
        <ele>225.3</ele>
        <time>2019-06-02T07:12:56.000Z</time>
      </trkpt>
      <trkpt lat="43.29473" lon="2.38091">
        <ele>225.3</ele>
        <time>2019-06-02T07:12:57.000Z</time>
      </trkpt>
      <trkpt lat="43.29473" lon="2.38091">
        <ele>225.3</ele>
        <time>2019-06-02T07:12:58.000Z</time>
      </trkpt>
      <trkpt lat="43.29473" lon="2.38091">
        <ele>225.3</ele>
        <time>2019-06-02T07:12:59.000Z</time>
      </trkpt>
      <trkpt lat="43.29473" lon="2.38091">
        <ele>225.3</ele>
        <time>2019-06-02T07:13:00.000Z</time>
      </trkpt>
      <trkpt lat="43.29473" lon="2.38091">
        <ele>225.3</ele>
        <time>2019-06-02T07:13:01.000Z</time>
      </trkpt>
      <trkpt lat="43.29473" lon="2.38091">
        <ele>225.3</ele>
        <time>2019-06-02T07:13:02.000Z</time>
      </trkpt>
      <trkpt lat="43.29473" lon="2.38091">
        <ele>225.3</ele>
        <time>2019-06-02T07:13:03.000Z</time>
      </trkpt>
      <trkpt lat="43.29473" lon="2.38091">
        <ele>225.3</ele>
        <time>2019-06-02T07:13:04.000Z</time>
      </trkpt>
      <trkpt lat="43.29473" lon="2.38091">
        <ele>225.3</ele>
        <time>2019-06-02T07:13:05.000Z</time>
      </trkpt>
      <trkpt lat="43.29473" lon="2.38091">
        <ele>225.3</ele>
        <time>2019-06-02T07:13:06.000Z</time>
      </trkpt>
      <trkpt lat="43.29473" lon="2.38091">
        <ele>225.3</ele>
        <time>2019-06-02T07:13:07.000Z</time>
      </trkpt>
      <trkpt lat="43.29473" lon="2.38091">
        <ele>225.3</ele>
        <time>2019-06-02T07:13:08.000Z</time>
      </trkpt>
      <trkpt lat="43.29473" lon="2.38091">
        <ele>225.3</ele>
        <time>2019-06-02T07:13:09.000Z</time>
      </trkpt>
      <trkpt lat="43.29473" lon="2.38091">
        <ele>225.3</ele>
        <time>2019-06-02T07:13:10.000Z</time>
      </trkpt>
      <trkpt lat="43.29473" lon="2.38091">
        <ele>225.3</ele>
        <time>2019-06-02T07:13:11.000Z</time>
      </trkpt>
      <trkpt lat="43.29473" lon="2.38091">
        <ele>225.3</ele>
        <time>2019-06-02T07:13:12.000Z</time>
      </trkpt>
      <trkpt lat="43.29473" lon="2.38091">
        <ele>225.3</ele>
        <time>2019-06-02T07:13:13.000Z</time>
      </trkpt>
      <trkpt lat="43.29473" lon="2.38091">
        <ele>225.3</ele>
        <time>2019-06-02T07:13:14.000Z</time>
      </trkpt>
      <trkpt lat="43.29473" lon="2.38091">
        <ele>225.3</ele>
        <time>2019-06-02T07:13:15.000Z</time>
      </trkpt>
      <trkpt lat="43.29473" lon="2.38091">
        <ele>225.3</ele>
        <time>2019-06-02T07:13:16.000Z</time>
      </trkpt>
      <trkpt lat="43.29473" lon="2.38091">
        <ele>225.3</ele>
        <time>2019-06-02T07:13:17.000Z</time>
      </trkpt>
      <trkpt lat="43.29473" lon="2.38091">
        <ele>225.3</ele>
        <time>2019-06-02T07:13:18.000Z</time>
      </trkpt>
      <trkpt lat="43.29473" lon="2.38091">
        <ele>225.3</ele>
        <time>2019-06-02T07:13:19.000Z</time>
      </trkpt>
      <trkpt lat="43.29473" lon="2.38091">
        <ele>225.3</ele>
        <time>2019-06-02T07:13:20.000Z</time>
      </trkpt>
      <trkpt lat="43.29473" lon="2.38091">
        <ele>225.3</ele>
        <time>2019-06-02T07:13:21.000Z</time>
      </trkpt>
      <trkpt lat="43.29473" lon="2.38091">
        <ele>225.3</ele>
        <time>2019-06-02T07:13:22.000Z</time>
      </trkpt>
      <trkpt lat="43.29473" lon="2.38091">
        <ele>225.3</ele>
        <time>2019-06-02T07:13:23.000Z</time>
      </trkpt>
      <trkpt lat="43.29473" lon="2.38091">
        <ele>225.3</ele>
        <time>2019-06-02T07:13:24.000Z</time>
      </trkpt>
      <trkpt lat="43.29473" lon="2.38091">
        <ele>225.3</ele>
        <time>2019-06-02T07:13:25.000Z</time>
      </trkpt>
      <trkpt lat="43.29473" lon="2.38091">
        <ele>225.3</ele>
        <time>2019-06-02T07:13:26.000Z</time>
      </trkpt>
      <trkpt lat="43.29473" lon="2.38091">
        <ele>225.3</ele>
        <time>2019-06-02T07:13:27.000Z</time>
      </trkpt>
      <trkpt lat="43.29473" lon="2.38091">
        <ele>225.3</ele>
        <time>2019-06-02T07:13:28.000Z</time>
      </trkpt>
      <trkpt lat="43.29473" lon="2.38091">
        <ele>225.3</ele>
        <time>2019-06-02T07:13:29.000Z</time>
      </trkpt>
      <trkpt lat="43.29473" lon="2.38091">
        <ele>225.3</ele>
        <time>2019-06-02T07:13:30.000Z</time>
      </trkpt>
      <trkpt lat="43.29473" lon="2.38091">
        <ele>225.3</ele>
        <time>2019-06-02T07:13:31.000Z</time>
      </trkpt>
      <trkpt lat="43.29473" lon="2.38091">
        <ele>225.3</ele>
        <time>2019-06-02T07:13:32.000Z</time>
      </trkpt>
      <trkpt lat="43.29473" lon="2.3809">
        <ele>225.4</ele>
        <time>2019-06-02T07:13:33.000Z</time>
      </trkpt>
      <trkpt lat="43.29473" lon="2.38088">
        <ele>225.7</ele>
        <time>2019-06-02T07:13:34.000Z</time>
      </trkpt>
      <trkpt lat="43.29473" lon="2.38084">
        <ele>226.2</ele>
        <time>2019-06-02T07:13:35.000Z</time>
      </trkpt>
      <trkpt lat="43.29474" lon="2.38083">
        <ele>226.3</ele>
        <time>2019-06-02T07:13:36.000Z</time>
      </trkpt>
      <trkpt lat="43.29475" lon="2.38081">
        <ele>226.3</ele>
        <time>2019-06-02T07:13:37.000Z</time>
      </trkpt>
      <trkpt lat="43.29475" lon="2.38077">
        <ele>226.4</ele>
        <time>2019-06-02T07:13:38.000Z</time>
      </trkpt>
      <trkpt lat="43.29474" lon="2.38074">
        <ele>226.5</ele>
        <time>2019-06-02T07:13:39.000Z</time>
      </trkpt>
      <trkpt lat="43.29474" lon="2.38073">
        <ele>226.5</ele>
        <time>2019-06-02T07:13:40.000Z</time>
      </trkpt>
      <trkpt lat="43.29474" lon="2.38073">
        <ele>226.5</ele>
        <time>2019-06-02T07:13:41.000Z</time>
      </trkpt>
      <trkpt lat="43.29474" lon="2.38073">
        <ele>226.5</ele>
        <time>2019-06-02T07:13:42.000Z</time>
      </trkpt>
      <trkpt lat="43.29474" lon="2.38072">
        <ele>226.5</ele>
        <time>2019-06-02T07:13:43.000Z</time>
      </trkpt>
      <trkpt lat="43.29475" lon="2.3807">
        <ele>226.5</ele>
        <time>2019-06-02T07:13:44.000Z</time>
      </trkpt>
      <trkpt lat="43.29474" lon="2.38067">
        <ele>226.6</ele>
        <time>2019-06-02T07:13:45.000Z</time>
      </trkpt>
      <trkpt lat="43.29474" lon="2.38063">
        <ele>226.7</ele>
        <time>2019-06-02T07:13:46.000Z</time>
      </trkpt>
      <trkpt lat="43.29473" lon="2.3806">
        <ele>226.7</ele>
        <time>2019-06-02T07:13:47.000Z</time>
      </trkpt>
      <trkpt lat="43.29473" lon="2.38057">
        <ele>226.8</ele>
        <time>2019-06-02T07:13:48.000Z</time>
      </trkpt>
      <trkpt lat="43.29473" lon="2.38053">
        <ele>226.8</ele>
        <time>2019-06-02T07:13:49.000Z</time>
      </trkpt>
      <trkpt lat="43.29473" lon="2.38049">
        <ele>226.9</ele>
        <time>2019-06-02T07:13:50.000Z</time>
      </trkpt>
      <trkpt lat="43.29473" lon="2.38046">
        <ele>226.9</ele>
        <time>2019-06-02T07:13:51.000Z</time>
      </trkpt>
      <trkpt lat="43.29473" lon="2.38043">
        <ele>227</ele>
        <time>2019-06-02T07:13:52.000Z</time>
      </trkpt>
      <trkpt lat="43.29472" lon="2.38039">
        <ele>227</ele>
        <time>2019-06-02T07:13:53.000Z</time>
      </trkpt>
      <trkpt lat="43.29472" lon="2.38036">
        <ele>227.1</ele>
        <time>2019-06-02T07:13:54.000Z</time>
      </trkpt>
      <trkpt lat="43.29471" lon="2.38033">
        <ele>227.1</ele>
        <time>2019-06-02T07:13:55.000Z</time>
      </trkpt>
      <trkpt lat="43.2947" lon="2.3803">
        <ele>227.1</ele>
        <time>2019-06-02T07:13:56.000Z</time>
      </trkpt>
      <trkpt lat="43.29469" lon="2.38028">
        <ele>227.1</ele>
        <time>2019-06-02T07:13:57.000Z</time>
      </trkpt>
      <trkpt lat="43.29467" lon="2.38025">
        <ele>227.1</ele>
        <time>2019-06-02T07:13:58.000Z</time>
      </trkpt>
      <trkpt lat="43.29466" lon="2.38022">
        <ele>227.1</ele>
        <time>2019-06-02T07:13:59.000Z</time>
      </trkpt>
      <trkpt lat="43.29464" lon="2.3802">
        <ele>227.1</ele>
        <time>2019-06-02T07:14:00.000Z</time>
      </trkpt>
      <trkpt lat="43.29463" lon="2.38017">
        <ele>227.1</ele>
        <time>2019-06-02T07:14:01.000Z</time>
      </trkpt>
      <trkpt lat="43.29462" lon="2.38014">
        <ele>227</ele>
        <time>2019-06-02T07:14:02.000Z</time>
      </trkpt>
      <trkpt lat="43.29461" lon="2.38012">
        <ele>227</ele>
        <time>2019-06-02T07:14:03.000Z</time>
      </trkpt>
      <trkpt lat="43.29461" lon="2.38009">
        <ele>227</ele>
        <time>2019-06-02T07:14:04.000Z</time>
      </trkpt>
      <trkpt lat="43.29461" lon="2.38006">
        <ele>227.1</ele>
        <time>2019-06-02T07:14:05.000Z</time>
      </trkpt>
      <trkpt lat="43.29462" lon="2.38003">
        <ele>227.2</ele>
        <time>2019-06-02T07:14:06.000Z</time>
      </trkpt>
      <trkpt lat="43.29463" lon="2.38">
        <ele>227.2</ele>
        <time>2019-06-02T07:14:07.000Z</time>
      </trkpt>
      <trkpt lat="43.29464" lon="2.37996">
        <ele>227.3</ele>
        <time>2019-06-02T07:14:08.000Z</time>
      </trkpt>
      <trkpt lat="43.29464" lon="2.37993">
        <ele>227.3</ele>
        <time>2019-06-02T07:14:09.000Z</time>
      </trkpt>
      <trkpt lat="43.29465" lon="2.37989">
        <ele>227.4</ele>
        <time>2019-06-02T07:14:10.000Z</time>
      </trkpt>
      <trkpt lat="43.29465" lon="2.37986">
        <ele>227.4</ele>
        <time>2019-06-02T07:14:11.000Z</time>
      </trkpt>
      <trkpt lat="43.29465" lon="2.37982">
        <ele>227.4</ele>
        <time>2019-06-02T07:14:12.000Z</time>
      </trkpt>
      <trkpt lat="43.29465" lon="2.37979">
        <ele>227.4</ele>
        <time>2019-06-02T07:14:13.000Z</time>
      </trkpt>
      <trkpt lat="43.29466" lon="2.37975">
        <ele>227.5</ele>
        <time>2019-06-02T07:14:14.000Z</time>
      </trkpt>
      <trkpt lat="43.29466" lon="2.37972">
        <ele>227.5</ele>
        <time>2019-06-02T07:14:15.000Z</time>
      </trkpt>
      <trkpt lat="43.29466" lon="2.37968">
        <ele>227.5</ele>
        <time>2019-06-02T07:14:16.000Z</time>
      </trkpt>
      <trkpt lat="43.29466" lon="2.37965">
        <ele>227.5</ele>
        <time>2019-06-02T07:14:17.000Z</time>
      </trkpt>
      <trkpt lat="43.29466" lon="2.37961">
        <ele>227.6</ele>
        <time>2019-06-02T07:14:18.000Z</time>
      </trkpt>
      <trkpt lat="43.29466" lon="2.37957">
        <ele>227.6</ele>
        <time>2019-06-02T07:14:19.000Z</time>
      </trkpt>
      <trkpt lat="43.29467" lon="2.37953">
        <ele>227.6</ele>
        <time>2019-06-02T07:14:20.000Z</time>
      </trkpt>
      <trkpt lat="43.29467" lon="2.3795">
        <ele>227.6</ele>
        <time>2019-06-02T07:14:21.000Z</time>
      </trkpt>
      <trkpt lat="43.29467" lon="2.37946">
        <ele>227.7</ele>
        <time>2019-06-02T07:14:22.000Z</time>
      </trkpt>
      <trkpt lat="43.29467" lon="2.37942">
        <ele>227.7</ele>
        <time>2019-06-02T07:14:23.000Z</time>
      </trkpt>
      <trkpt lat="43.29467" lon="2.37938">
        <ele>227.7</ele>
        <time>2019-06-02T07:14:24.000Z</time>
      </trkpt>
      <trkpt lat="43.29467" lon="2.37935">
        <ele>227.7</ele>
        <time>2019-06-02T07:14:25.000Z</time>
      </trkpt>
      <trkpt lat="43.29468" lon="2.37931">
        <ele>227.8</ele>
        <time>2019-06-02T07:14:26.000Z</time>
      </trkpt>
      <trkpt lat="43.29468" lon="2.37927">
        <ele>227.8</ele>
        <time>2019-06-02T07:14:27.000Z</time>
      </trkpt>
      <trkpt lat="43.29469" lon="2.37924">
        <ele>227.8</ele>
        <time>2019-06-02T07:14:28.000Z</time>
      </trkpt>
      <trkpt lat="43.29469" lon="2.3792">
        <ele>227.9</ele>
        <time>2019-06-02T07:14:29.000Z</time>
      </trkpt>
      <trkpt lat="43.2947" lon="2.37917">
        <ele>227.9</ele>
        <time>2019-06-02T07:14:30.000Z</time>
      </trkpt>
      <trkpt lat="43.29471" lon="2.37914">
        <ele>228</ele>
        <time>2019-06-02T07:14:31.000Z</time>
      </trkpt>
      <trkpt lat="43.29472" lon="2.3791">
        <ele>228.1</ele>
        <time>2019-06-02T07:14:32.000Z</time>
      </trkpt>
      <trkpt lat="43.29473" lon="2.37907">
        <ele>228.2</ele>
        <time>2019-06-02T07:14:33.000Z</time>
      </trkpt>
      <trkpt lat="43.29474" lon="2.37904">
        <ele>228.3</ele>
        <time>2019-06-02T07:14:34.000Z</time>
      </trkpt>
      <trkpt lat="43.29475" lon="2.37901">
        <ele>228.4</ele>
        <time>2019-06-02T07:14:35.000Z</time>
      </trkpt>
      <trkpt lat="43.29476" lon="2.37899">
        <ele>228.5</ele>
        <time>2019-06-02T07:14:36.000Z</time>
      </trkpt>
      <trkpt lat="43.29478" lon="2.37896">
        <ele>228.6</ele>
        <time>2019-06-02T07:14:37.000Z</time>
      </trkpt>
      <trkpt lat="43.29479" lon="2.37893">
        <ele>228.7</ele>
        <time>2019-06-02T07:14:38.000Z</time>
      </trkpt>
      <trkpt lat="43.29481" lon="2.37891">
        <ele>228.8</ele>
        <time>2019-06-02T07:14:39.000Z</time>
      </trkpt>
      <trkpt lat="43.29482" lon="2.37888">
        <ele>228.9</ele>
        <time>2019-06-02T07:14:40.000Z</time>
      </trkpt>
      <trkpt lat="43.29484" lon="2.37886">
        <ele>229</ele>
        <time>2019-06-02T07:14:41.000Z</time>
      </trkpt>
      <trkpt lat="43.29486" lon="2.37884">
        <ele>229.1</ele>
        <time>2019-06-02T07:14:42.000Z</time>
      </trkpt>
      <trkpt lat="43.29487" lon="2.37882">
        <ele>229.3</ele>
        <time>2019-06-02T07:14:43.000Z</time>
      </trkpt>
      <trkpt lat="43.29489" lon="2.3788">
        <ele>229.4</ele>
        <time>2019-06-02T07:14:44.000Z</time>
      </trkpt>
      <trkpt lat="43.29491" lon="2.37878">
        <ele>229.5</ele>
        <time>2019-06-02T07:14:45.000Z</time>
      </trkpt>
      <trkpt lat="43.29493" lon="2.37876">
        <ele>229.6</ele>
        <time>2019-06-02T07:14:46.000Z</time>
      </trkpt>
      <trkpt lat="43.29495" lon="2.37874">
        <ele>229.8</ele>
        <time>2019-06-02T07:14:47.000Z</time>
      </trkpt>
      <trkpt lat="43.29497" lon="2.37873">
        <ele>229.9</ele>
        <time>2019-06-02T07:14:48.000Z</time>
      </trkpt>
      <trkpt lat="43.29499" lon="2.37871">
        <ele>230</ele>
        <time>2019-06-02T07:14:49.000Z</time>
      </trkpt>
      <trkpt lat="43.29501" lon="2.37869">
        <ele>230.2</ele>
        <time>2019-06-02T07:14:50.000Z</time>
      </trkpt>
      <trkpt lat="43.29503" lon="2.37867">
        <ele>230.2</ele>
        <time>2019-06-02T07:14:51.000Z</time>
      </trkpt>
      <trkpt lat="43.29504" lon="2.37864">
        <ele>230.3</ele>
        <time>2019-06-02T07:14:52.000Z</time>
      </trkpt>
      <trkpt lat="43.29505" lon="2.37861">
        <ele>230.4</ele>
        <time>2019-06-02T07:14:53.000Z</time>
      </trkpt>
      <trkpt lat="43.29506" lon="2.37858">
        <ele>230.4</ele>
        <time>2019-06-02T07:14:54.000Z</time>
      </trkpt>
      <trkpt lat="43.29507" lon="2.37855">
        <ele>230.5</ele>
        <time>2019-06-02T07:14:55.000Z</time>
      </trkpt>
      <trkpt lat="43.29508" lon="2.37852">
        <ele>230.6</ele>
        <time>2019-06-02T07:14:56.000Z</time>
      </trkpt>
      <trkpt lat="43.29508" lon="2.37848">
        <ele>230.7</ele>
        <time>2019-06-02T07:14:57.000Z</time>
      </trkpt>
      <trkpt lat="43.29509" lon="2.37845">
        <ele>230.8</ele>
        <time>2019-06-02T07:14:58.000Z</time>
      </trkpt>
      <trkpt lat="43.29509" lon="2.37841">
        <ele>230.9</ele>
        <time>2019-06-02T07:14:59.000Z</time>
      </trkpt>
      <trkpt lat="43.2951" lon="2.37838">
        <ele>231</ele>
        <time>2019-06-02T07:15:00.000Z</time>
      </trkpt>
      <trkpt lat="43.2951" lon="2.37834">
        <ele>231.1</ele>
        <time>2019-06-02T07:15:01.000Z</time>
      </trkpt>
      <trkpt lat="43.29511" lon="2.3783">
        <ele>231.1</ele>
        <time>2019-06-02T07:15:02.000Z</time>
      </trkpt>
      <trkpt lat="43.29512" lon="2.37827">
        <ele>231</ele>
        <time>2019-06-02T07:15:03.000Z</time>
      </trkpt>
      <trkpt lat="43.29512" lon="2.37823">
        <ele>231</ele>
        <time>2019-06-02T07:15:04.000Z</time>
      </trkpt>
      <trkpt lat="43.29513" lon="2.3782">
        <ele>230.9</ele>
        <time>2019-06-02T07:15:05.000Z</time>
      </trkpt>
      <trkpt lat="43.29513" lon="2.37816">
        <ele>230.8</ele>
        <time>2019-06-02T07:15:06.000Z</time>
      </trkpt>
      <trkpt lat="43.29514" lon="2.37812">
        <ele>230.8</ele>
        <time>2019-06-02T07:15:07.000Z</time>
      </trkpt>
      <trkpt lat="43.29514" lon="2.37809">
        <ele>230.7</ele>
        <time>2019-06-02T07:15:08.000Z</time>
      </trkpt>
      <trkpt lat="43.29515" lon="2.37805">
        <ele>230.7</ele>
        <time>2019-06-02T07:15:09.000Z</time>
      </trkpt>
      <trkpt lat="43.29515" lon="2.37802">
        <ele>230.6</ele>
        <time>2019-06-02T07:15:10.000Z</time>
      </trkpt>
      <trkpt lat="43.29515" lon="2.37798">
        <ele>230.6</ele>
        <time>2019-06-02T07:15:11.000Z</time>
      </trkpt>
      <trkpt lat="43.29516" lon="2.37795">
        <ele>230.5</ele>
        <time>2019-06-02T07:15:12.000Z</time>
      </trkpt>
      <trkpt lat="43.29516" lon="2.37791">
        <ele>230.5</ele>
        <time>2019-06-02T07:15:13.000Z</time>
      </trkpt>
      <trkpt lat="43.29517" lon="2.37788">
        <ele>230.4</ele>
        <time>2019-06-02T07:15:14.000Z</time>
      </trkpt>
      <trkpt lat="43.29517" lon="2.37785">
        <ele>230.4</ele>
        <time>2019-06-02T07:15:15.000Z</time>
      </trkpt>
      <trkpt lat="43.29518" lon="2.37781">
        <ele>230.4</ele>
        <time>2019-06-02T07:15:16.000Z</time>
      </trkpt>
      <trkpt lat="43.29518" lon="2.37778">
        <ele>230.3</ele>
        <time>2019-06-02T07:15:17.000Z</time>
      </trkpt>
      <trkpt lat="43.29519" lon="2.37775">
        <ele>230.3</ele>
        <time>2019-06-02T07:15:18.000Z</time>
      </trkpt>
      <trkpt lat="43.29519" lon="2.37771">
        <ele>230.3</ele>
        <time>2019-06-02T07:15:19.000Z</time>
      </trkpt>
      <trkpt lat="43.2952" lon="2.37768">
        <ele>230.2</ele>
        <time>2019-06-02T07:15:20.000Z</time>
      </trkpt>
      <trkpt lat="43.2952" lon="2.37764">
        <ele>230.2</ele>
        <time>2019-06-02T07:15:21.000Z</time>
      </trkpt>
      <trkpt lat="43.29521" lon="2.37761">
        <ele>230.2</ele>
        <time>2019-06-02T07:15:22.000Z</time>
      </trkpt>
      <trkpt lat="43.29521" lon="2.37757">
        <ele>230.1</ele>
        <time>2019-06-02T07:15:23.000Z</time>
      </trkpt>
      <trkpt lat="43.29521" lon="2.37754">
        <ele>230.1</ele>
        <time>2019-06-02T07:15:24.000Z</time>
      </trkpt>
      <trkpt lat="43.2952" lon="2.3775">
        <ele>230</ele>
        <time>2019-06-02T07:15:25.000Z</time>
      </trkpt>
      <trkpt lat="43.2952" lon="2.37747">
        <ele>229.9</ele>
        <time>2019-06-02T07:15:26.000Z</time>
      </trkpt>
      <trkpt lat="43.29519" lon="2.37744">
        <ele>229.9</ele>
        <time>2019-06-02T07:15:27.000Z</time>
      </trkpt>
      <trkpt lat="43.29519" lon="2.37741">
        <ele>229.8</ele>
        <time>2019-06-02T07:15:28.000Z</time>
      </trkpt>
      <trkpt lat="43.29519" lon="2.37739">
        <ele>229.8</ele>
        <time>2019-06-02T07:15:29.000Z</time>
      </trkpt>
      <trkpt lat="43.2952" lon="2.37737">
        <ele>229.8</ele>
        <time>2019-06-02T07:15:30.000Z</time>
      </trkpt>
      <trkpt lat="43.29521" lon="2.37735">
        <ele>229.9</ele>
        <time>2019-06-02T07:15:31.000Z</time>
      </trkpt>
      <trkpt lat="43.29523" lon="2.37733">
        <ele>230</ele>
        <time>2019-06-02T07:15:32.000Z</time>
      </trkpt>
      <trkpt lat="43.29525" lon="2.37731">
        <ele>230.1</ele>
        <time>2019-06-02T07:15:33.000Z</time>
      </trkpt>
      <trkpt lat="43.29528" lon="2.3773">
        <ele>230.2</ele>
        <time>2019-06-02T07:15:34.000Z</time>
      </trkpt>
      <trkpt lat="43.2953" lon="2.37728">
        <ele>230.3</ele>
        <time>2019-06-02T07:15:35.000Z</time>
      </trkpt>
      <trkpt lat="43.29532" lon="2.37727">
        <ele>230.4</ele>
        <time>2019-06-02T07:15:36.000Z</time>
      </trkpt>
      <trkpt lat="43.29534" lon="2.37726">
        <ele>230.5</ele>
        <time>2019-06-02T07:15:37.000Z</time>
      </trkpt>
      <trkpt lat="43.29536" lon="2.37724">
        <ele>230.5</ele>
        <time>2019-06-02T07:15:38.000Z</time>
      </trkpt>
      <trkpt lat="43.29538" lon="2.37723">
        <ele>230.6</ele>
        <time>2019-06-02T07:15:39.000Z</time>
      </trkpt>
      <trkpt lat="43.2954" lon="2.37721">
        <ele>230.7</ele>
        <time>2019-06-02T07:15:40.000Z</time>
      </trkpt>
      <trkpt lat="43.29541" lon="2.3772">
        <ele>230.8</ele>
        <time>2019-06-02T07:15:41.000Z</time>
      </trkpt>
      <trkpt lat="43.29543" lon="2.37718">
        <ele>230.9</ele>
        <time>2019-06-02T07:15:42.000Z</time>
      </trkpt>
      <trkpt lat="43.29545" lon="2.37716">
        <ele>231</ele>
        <time>2019-06-02T07:15:43.000Z</time>
      </trkpt>
      <trkpt lat="43.29547" lon="2.37714">
        <ele>231</ele>
        <time>2019-06-02T07:15:44.000Z</time>
      </trkpt>
      <trkpt lat="43.29548" lon="2.37712">
        <ele>231.1</ele>
        <time>2019-06-02T07:15:45.000Z</time>
      </trkpt>
      <trkpt lat="43.2955" lon="2.3771">
        <ele>231.2</ele>
        <time>2019-06-02T07:15:46.000Z</time>
      </trkpt>
      <trkpt lat="43.29552" lon="2.37708">
        <ele>231.3</ele>
        <time>2019-06-02T07:15:47.000Z</time>
      </trkpt>
      <trkpt lat="43.29554" lon="2.37706">
        <ele>231.4</ele>
        <time>2019-06-02T07:15:48.000Z</time>
      </trkpt>
      <trkpt lat="43.29555" lon="2.37703">
        <ele>231.5</ele>
        <time>2019-06-02T07:15:49.000Z</time>
      </trkpt>
      <trkpt lat="43.29557" lon="2.37701">
        <ele>231.6</ele>
        <time>2019-06-02T07:15:50.000Z</time>
      </trkpt>
      <trkpt lat="43.29559" lon="2.37698">
        <ele>231.6</ele>
        <time>2019-06-02T07:15:51.000Z</time>
      </trkpt>
      <trkpt lat="43.29561" lon="2.37695">
        <ele>231.7</ele>
        <time>2019-06-02T07:15:52.000Z</time>
      </trkpt>
      <trkpt lat="43.29563" lon="2.37692">
        <ele>231.8</ele>
        <time>2019-06-02T07:15:53.000Z</time>
      </trkpt>
      <trkpt lat="43.29565" lon="2.37689">
        <ele>231.9</ele>
        <time>2019-06-02T07:15:54.000Z</time>
      </trkpt>
      <trkpt lat="43.29566" lon="2.37686">
        <ele>232</ele>
        <time>2019-06-02T07:15:55.000Z</time>
      </trkpt>
      <trkpt lat="43.29568" lon="2.37683">
        <ele>232.1</ele>
        <time>2019-06-02T07:15:56.000Z</time>
      </trkpt>
      <trkpt lat="43.29569" lon="2.3768">
        <ele>232.2</ele>
        <time>2019-06-02T07:15:57.000Z</time>
      </trkpt>
      <trkpt lat="43.29571" lon="2.37676">
        <ele>232.3</ele>
        <time>2019-06-02T07:15:58.000Z</time>
      </trkpt>
      <trkpt lat="43.29572" lon="2.37673">
        <ele>232.3</ele>
        <time>2019-06-02T07:15:59.000Z</time>
      </trkpt>
      <trkpt lat="43.29573" lon="2.3767">
        <ele>232.4</ele>
        <time>2019-06-02T07:16:00.000Z</time>
      </trkpt>
      <trkpt lat="43.29574" lon="2.37667">
        <ele>232.5</ele>
        <time>2019-06-02T07:16:01.000Z</time>
      </trkpt>
      <trkpt lat="43.29576" lon="2.37664">
        <ele>232.6</ele>
        <time>2019-06-02T07:16:02.000Z</time>
      </trkpt>
      <trkpt lat="43.29577" lon="2.37661">
        <ele>232.7</ele>
        <time>2019-06-02T07:16:03.000Z</time>
      </trkpt>
      <trkpt lat="43.29578" lon="2.37658">
        <ele>232.8</ele>
        <time>2019-06-02T07:16:04.000Z</time>
      </trkpt>
      <trkpt lat="43.2958" lon="2.37656">
        <ele>232.9</ele>
        <time>2019-06-02T07:16:05.000Z</time>
      </trkpt>
      <trkpt lat="43.29582" lon="2.37653">
        <ele>233.1</ele>
        <time>2019-06-02T07:16:06.000Z</time>
      </trkpt>
      <trkpt lat="43.29583" lon="2.37651">
        <ele>233.2</ele>
        <time>2019-06-02T07:16:07.000Z</time>
      </trkpt>
      <trkpt lat="43.29585" lon="2.37648">
        <ele>233.3</ele>
        <time>2019-06-02T07:16:08.000Z</time>
      </trkpt>
      <trkpt lat="43.29587" lon="2.37646">
        <ele>233.4</ele>
        <time>2019-06-02T07:16:09.000Z</time>
      </trkpt>
      <trkpt lat="43.29589" lon="2.37644">
        <ele>233.5</ele>
        <time>2019-06-02T07:16:10.000Z</time>
      </trkpt>
      <trkpt lat="43.29591" lon="2.37642">
        <ele>233.7</ele>
        <time>2019-06-02T07:16:11.000Z</time>
      </trkpt>
      <trkpt lat="43.29593" lon="2.3764">
        <ele>233.8</ele>
        <time>2019-06-02T07:16:12.000Z</time>
      </trkpt>
      <trkpt lat="43.29595" lon="2.37638">
        <ele>233.9</ele>
        <time>2019-06-02T07:16:13.000Z</time>
      </trkpt>
      <trkpt lat="43.29597" lon="2.37636">
        <ele>234</ele>
        <time>2019-06-02T07:16:14.000Z</time>
      </trkpt>
      <trkpt lat="43.29599" lon="2.37634">
        <ele>234.1</ele>
        <time>2019-06-02T07:16:15.000Z</time>
      </trkpt>
      <trkpt lat="43.29601" lon="2.37632">
        <ele>234.2</ele>
        <time>2019-06-02T07:16:16.000Z</time>
      </trkpt>
      <trkpt lat="43.29603" lon="2.3763">
        <ele>234.4</ele>
        <time>2019-06-02T07:16:17.000Z</time>
      </trkpt>
      <trkpt lat="43.29605" lon="2.37628">
        <ele>234.5</ele>
        <time>2019-06-02T07:16:18.000Z</time>
      </trkpt>
      <trkpt lat="43.29607" lon="2.37626">
        <ele>234.6</ele>
        <time>2019-06-02T07:16:19.000Z</time>
      </trkpt>
      <trkpt lat="43.29609" lon="2.37625">
        <ele>234.7</ele>
        <time>2019-06-02T07:16:20.000Z</time>
      </trkpt>
      <trkpt lat="43.29611" lon="2.37623">
        <ele>234.8</ele>
        <time>2019-06-02T07:16:21.000Z</time>
      </trkpt>
      <trkpt lat="43.29612" lon="2.37621">
        <ele>234.9</ele>
        <time>2019-06-02T07:16:22.000Z</time>
      </trkpt>
      <trkpt lat="43.29614" lon="2.37619">
        <ele>235.1</ele>
        <time>2019-06-02T07:16:23.000Z</time>
      </trkpt>
      <trkpt lat="43.29616" lon="2.37617">
        <ele>235.2</ele>
        <time>2019-06-02T07:16:24.000Z</time>
      </trkpt>
      <trkpt lat="43.29618" lon="2.37615">
        <ele>235.3</ele>
        <time>2019-06-02T07:16:25.000Z</time>
      </trkpt>
      <trkpt lat="43.2962" lon="2.37613">
        <ele>235.4</ele>
        <time>2019-06-02T07:16:26.000Z</time>
      </trkpt>
      <trkpt lat="43.29622" lon="2.37611">
        <ele>235.5</ele>
        <time>2019-06-02T07:16:27.000Z</time>
      </trkpt>
      <trkpt lat="43.29624" lon="2.37608">
        <ele>235.6</ele>
        <time>2019-06-02T07:16:28.000Z</time>
      </trkpt>
      <trkpt lat="43.29626" lon="2.37606">
        <ele>235.8</ele>
        <time>2019-06-02T07:16:29.000Z</time>
      </trkpt>
      <trkpt lat="43.29628" lon="2.37604">
        <ele>235.9</ele>
        <time>2019-06-02T07:16:30.000Z</time>
      </trkpt>
      <trkpt lat="43.2963" lon="2.37602">
        <ele>236</ele>
        <time>2019-06-02T07:16:31.000Z</time>
      </trkpt>
      <trkpt lat="43.29632" lon="2.376">
        <ele>236.1</ele>
        <time>2019-06-02T07:16:32.000Z</time>
      </trkpt>
      <trkpt lat="43.29634" lon="2.37598">
        <ele>236.3</ele>
        <time>2019-06-02T07:16:33.000Z</time>
      </trkpt>
      <trkpt lat="43.29636" lon="2.37596">
        <ele>236.4</ele>
        <time>2019-06-02T07:16:34.000Z</time>
      </trkpt>
      <trkpt lat="43.29639" lon="2.37594">
        <ele>236.5</ele>
        <time>2019-06-02T07:16:35.000Z</time>
      </trkpt>
      <trkpt lat="43.29641" lon="2.37592">
        <ele>236.7</ele>
        <time>2019-06-02T07:16:36.000Z</time>
      </trkpt>
      <trkpt lat="43.29643" lon="2.3759">
        <ele>236.8</ele>
        <time>2019-06-02T07:16:37.000Z</time>
      </trkpt>
      <trkpt lat="43.29645" lon="2.37589">
        <ele>236.9</ele>
        <time>2019-06-02T07:16:38.000Z</time>
      </trkpt>
      <trkpt lat="43.29647" lon="2.37587">
        <ele>237</ele>
        <time>2019-06-02T07:16:39.000Z</time>
      </trkpt>
      <trkpt lat="43.29648" lon="2.37586">
        <ele>237.1</ele>
        <time>2019-06-02T07:16:40.000Z</time>
      </trkpt>
      <trkpt lat="43.2965" lon="2.37584">
        <ele>237.2</ele>
        <time>2019-06-02T07:16:41.000Z</time>
      </trkpt>
      <trkpt lat="43.29651" lon="2.37583">
        <ele>237.3</ele>
        <time>2019-06-02T07:16:42.000Z</time>
      </trkpt>
      <trkpt lat="43.29653" lon="2.37582">
        <ele>237.4</ele>
        <time>2019-06-02T07:16:43.000Z</time>
      </trkpt>
      <trkpt lat="43.29655" lon="2.37581">
        <ele>237.5</ele>
        <time>2019-06-02T07:16:44.000Z</time>
      </trkpt>
      <trkpt lat="43.29657" lon="2.37581">
        <ele>237.6</ele>
        <time>2019-06-02T07:16:45.000Z</time>
      </trkpt>
      <trkpt lat="43.29659" lon="2.3758">
        <ele>237.7</ele>
        <time>2019-06-02T07:16:46.000Z</time>
      </trkpt>
      <trkpt lat="43.29661" lon="2.37579">
        <ele>237.8</ele>
        <time>2019-06-02T07:16:47.000Z</time>
      </trkpt>
      <trkpt lat="43.29663" lon="2.37578">
        <ele>238</ele>
        <time>2019-06-02T07:16:48.000Z</time>
      </trkpt>
      <trkpt lat="43.29665" lon="2.37577">
        <ele>238.1</ele>
        <time>2019-06-02T07:16:49.000Z</time>
      </trkpt>
      <trkpt lat="43.29667" lon="2.37576">
        <ele>238.2</ele>
        <time>2019-06-02T07:16:50.000Z</time>
      </trkpt>
      <trkpt lat="43.29668" lon="2.37575">
        <ele>238.3</ele>
        <time>2019-06-02T07:16:51.000Z</time>
      </trkpt>
      <trkpt lat="43.2967" lon="2.37575">
        <ele>238.4</ele>
        <time>2019-06-02T07:16:52.000Z</time>
      </trkpt>
      <trkpt lat="43.2967" lon="2.37574">
        <ele>238.5</ele>
        <time>2019-06-02T07:16:53.000Z</time>
      </trkpt>
      <trkpt lat="43.29671" lon="2.37573">
        <ele>238.5</ele>
        <time>2019-06-02T07:16:54.000Z</time>
      </trkpt>
      <trkpt lat="43.29672" lon="2.37572">
        <ele>238.6</ele>
        <time>2019-06-02T07:16:55.000Z</time>
      </trkpt>
      <trkpt lat="43.29673" lon="2.37571">
        <ele>238.7</ele>
        <time>2019-06-02T07:16:56.000Z</time>
      </trkpt>
      <trkpt lat="43.29674" lon="2.37569">
        <ele>238.8</ele>
        <time>2019-06-02T07:16:57.000Z</time>
      </trkpt>
      <trkpt lat="43.29675" lon="2.37567">
        <ele>238.9</ele>
        <time>2019-06-02T07:16:58.000Z</time>
      </trkpt>
      <trkpt lat="43.29676" lon="2.37566">
        <ele>239</ele>
        <time>2019-06-02T07:16:59.000Z</time>
      </trkpt>
      <trkpt lat="43.29677" lon="2.37564">
        <ele>239.1</ele>
        <time>2019-06-02T07:17:00.000Z</time>
      </trkpt>
      <trkpt lat="43.29677" lon="2.37563">
        <ele>239.1</ele>
        <time>2019-06-02T07:17:01.000Z</time>
      </trkpt>
      <trkpt lat="43.29678" lon="2.37562">
        <ele>239.2</ele>
        <time>2019-06-02T07:17:02.000Z</time>
      </trkpt>
      <trkpt lat="43.29678" lon="2.37562">
        <ele>239.2</ele>
        <time>2019-06-02T07:17:03.000Z</time>
      </trkpt>
      <trkpt lat="43.29678" lon="2.37561">
        <ele>239.2</ele>
        <time>2019-06-02T07:17:04.000Z</time>
      </trkpt>
      <trkpt lat="43.29679" lon="2.37561">
        <ele>239.3</ele>
        <time>2019-06-02T07:17:05.000Z</time>
      </trkpt>
      <trkpt lat="43.29679" lon="2.37561">
        <ele>239.3</ele>
        <time>2019-06-02T07:17:06.000Z</time>
      </trkpt>
      <trkpt lat="43.29679" lon="2.37561">
        <ele>239.3</ele>
        <time>2019-06-02T07:17:07.000Z</time>
      </trkpt>
      <trkpt lat="43.29679" lon="2.37561">
        <ele>239.3</ele>
        <time>2019-06-02T07:17:08.000Z</time>
      </trkpt>
      <trkpt lat="43.29679" lon="2.37561">
        <ele>239.3</ele>
        <time>2019-06-02T07:17:09.000Z</time>
      </trkpt>
      <trkpt lat="43.29679" lon="2.37561">
        <ele>239.3</ele>
        <time>2019-06-02T07:17:10.000Z</time>
      </trkpt>
      <trkpt lat="43.29679" lon="2.37561">
        <ele>239.3</ele>
        <time>2019-06-02T07:17:11.000Z</time>
      </trkpt>
      <trkpt lat="43.29679" lon="2.37561">
        <ele>239.3</ele>
        <time>2019-06-02T07:17:12.000Z</time>
      </trkpt>
      <trkpt lat="43.29679" lon="2.37561">
        <ele>239.3</ele>
        <time>2019-06-02T07:17:13.000Z</time>
      </trkpt>
      <trkpt lat="43.29679" lon="2.37561">
        <ele>239.3</ele>
        <time>2019-06-02T07:17:14.000Z</time>
      </trkpt>
      <trkpt lat="43.29679" lon="2.37561">
        <ele>239.3</ele>
        <time>2019-06-02T07:17:15.000Z</time>
      </trkpt>
      <trkpt lat="43.2968" lon="2.37562">
        <ele>239.3</ele>
        <time>2019-06-02T07:17:16.000Z</time>
      </trkpt>
      <trkpt lat="43.2968" lon="2.37564">
        <ele>239.3</ele>
        <time>2019-06-02T07:17:17.000Z</time>
      </trkpt>
      <trkpt lat="43.2968" lon="2.37565">
        <ele>239.2</ele>
        <time>2019-06-02T07:17:18.000Z</time>
      </trkpt>
      <trkpt lat="43.29679" lon="2.37567">
        <ele>239.1</ele>
        <time>2019-06-02T07:17:19.000Z</time>
      </trkpt>
      <trkpt lat="43.29678" lon="2.37568">
        <ele>239.1</ele>
        <time>2019-06-02T07:17:20.000Z</time>
      </trkpt>
      <trkpt lat="43.29678" lon="2.37569">
        <ele>239</ele>
        <time>2019-06-02T07:17:21.000Z</time>
      </trkpt>
      <trkpt lat="43.29678" lon="2.37571">
        <ele>238.9</ele>
        <time>2019-06-02T07:17:22.000Z</time>
      </trkpt>
      <trkpt lat="43.29678" lon="2.37572">
        <ele>238.9</ele>
        <time>2019-06-02T07:17:23.000Z</time>
      </trkpt>
      <trkpt lat="43.29678" lon="2.37573">
        <ele>238.9</ele>
        <time>2019-06-02T07:17:24.000Z</time>
      </trkpt>
      <trkpt lat="43.29679" lon="2.37574">
        <ele>239</ele>
        <time>2019-06-02T07:17:25.000Z</time>
      </trkpt>
      <trkpt lat="43.2968" lon="2.37575">
        <ele>239</ele>
        <time>2019-06-02T07:17:26.000Z</time>
      </trkpt>
      <trkpt lat="43.29681" lon="2.37575">
        <ele>239.1</ele>
        <time>2019-06-02T07:17:27.000Z</time>
      </trkpt>
      <trkpt lat="43.29682" lon="2.37576">
        <ele>239.1</ele>
        <time>2019-06-02T07:17:28.000Z</time>
      </trkpt>
      <trkpt lat="43.29684" lon="2.37576">
        <ele>239.2</ele>
        <time>2019-06-02T07:17:29.000Z</time>
      </trkpt>
      <trkpt lat="43.29685" lon="2.37577">
        <ele>239.3</ele>
        <time>2019-06-02T07:17:30.000Z</time>
      </trkpt>
      <trkpt lat="43.29686" lon="2.37578">
        <ele>239.3</ele>
        <time>2019-06-02T07:17:31.000Z</time>
      </trkpt>
      <trkpt lat="43.29687" lon="2.37578">
        <ele>239.4</ele>
        <time>2019-06-02T07:17:32.000Z</time>
      </trkpt>
      <trkpt lat="43.29688" lon="2.37579">
        <ele>239.4</ele>
        <time>2019-06-02T07:17:33.000Z</time>
      </trkpt>
      <trkpt lat="43.29689" lon="2.3758">
        <ele>239.4</ele>
        <time>2019-06-02T07:17:34.000Z</time>
      </trkpt>
      <trkpt lat="43.29689" lon="2.3758">
        <ele>239.4</ele>
        <time>2019-06-02T07:17:35.000Z</time>
      </trkpt>
      <trkpt lat="43.2969" lon="2.3758">
        <ele>239.5</ele>
        <time>2019-06-02T07:17:36.000Z</time>
      </trkpt>
      <trkpt lat="43.29691" lon="2.3758">
        <ele>239.5</ele>
        <time>2019-06-02T07:17:37.000Z</time>
      </trkpt>
      <trkpt lat="43.29692" lon="2.37581">
        <ele>239.6</ele>
        <time>2019-06-02T07:17:38.000Z</time>
      </trkpt>
      <trkpt lat="43.29693" lon="2.37583">
        <ele>239.6</ele>
        <time>2019-06-02T07:17:39.000Z</time>
      </trkpt>
      <trkpt lat="43.29695" lon="2.37584">
        <ele>239.7</ele>
        <time>2019-06-02T07:17:40.000Z</time>
      </trkpt>
      <trkpt lat="43.29696" lon="2.37586">
        <ele>239.7</ele>
        <time>2019-06-02T07:17:41.000Z</time>
      </trkpt>
      <trkpt lat="43.29697" lon="2.37587">
        <ele>239.8</ele>
        <time>2019-06-02T07:17:42.000Z</time>
      </trkpt>
      <trkpt lat="43.29698" lon="2.37589">
        <ele>239.8</ele>
        <time>2019-06-02T07:17:43.000Z</time>
      </trkpt>
      <trkpt lat="43.29698" lon="2.3759">
        <ele>239.8</ele>
        <time>2019-06-02T07:17:44.000Z</time>
      </trkpt>
      <trkpt lat="43.29699" lon="2.37592">
        <ele>239.8</ele>
        <time>2019-06-02T07:17:45.000Z</time>
      </trkpt>
      <trkpt lat="43.297" lon="2.37593">
        <ele>239.8</ele>
        <time>2019-06-02T07:17:46.000Z</time>
      </trkpt>
      <trkpt lat="43.29701" lon="2.37594">
        <ele>239.9</ele>
        <time>2019-06-02T07:17:47.000Z</time>
      </trkpt>
      <trkpt lat="43.29703" lon="2.37596">
        <ele>239.9</ele>
        <time>2019-06-02T07:17:48.000Z</time>
      </trkpt>
      <trkpt lat="43.29704" lon="2.37597">
        <ele>240</ele>
        <time>2019-06-02T07:17:49.000Z</time>
      </trkpt>
      <trkpt lat="43.29706" lon="2.37598">
        <ele>240.1</ele>
        <time>2019-06-02T07:17:50.000Z</time>
      </trkpt>
      <trkpt lat="43.29707" lon="2.376">
        <ele>240.1</ele>
        <time>2019-06-02T07:17:51.000Z</time>
      </trkpt>
      <trkpt lat="43.29709" lon="2.37601">
        <ele>240.2</ele>
        <time>2019-06-02T07:17:52.000Z</time>
      </trkpt>
      <trkpt lat="43.2971" lon="2.37603">
        <ele>240.3</ele>
        <time>2019-06-02T07:17:53.000Z</time>
      </trkpt>
      <trkpt lat="43.29712" lon="2.37604">
        <ele>240.3</ele>
        <time>2019-06-02T07:17:54.000Z</time>
      </trkpt>
      <trkpt lat="43.29713" lon="2.37606">
        <ele>240.4</ele>
        <time>2019-06-02T07:17:55.000Z</time>
      </trkpt>
      <trkpt lat="43.29714" lon="2.37608">
        <ele>240.4</ele>
        <time>2019-06-02T07:17:56.000Z</time>
      </trkpt>
      <trkpt lat="43.29716" lon="2.37609">
        <ele>240.5</ele>
        <time>2019-06-02T07:17:57.000Z</time>
      </trkpt>
      <trkpt lat="43.29717" lon="2.3761">
        <ele>240.5</ele>
        <time>2019-06-02T07:17:58.000Z</time>
      </trkpt>
      <trkpt lat="43.29718" lon="2.37612">
        <ele>240.5</ele>
        <time>2019-06-02T07:17:59.000Z</time>
      </trkpt>
      <trkpt lat="43.2972" lon="2.37613">
        <ele>240.6</ele>
        <time>2019-06-02T07:18:00.000Z</time>
      </trkpt>
      <trkpt lat="43.29721" lon="2.37614">
        <ele>240.6</ele>
        <time>2019-06-02T07:18:01.000Z</time>
      </trkpt>
      <trkpt lat="43.29722" lon="2.37615">
        <ele>240.7</ele>
        <time>2019-06-02T07:18:02.000Z</time>
      </trkpt>
      <trkpt lat="43.29723" lon="2.37617">
        <ele>240.7</ele>
        <time>2019-06-02T07:18:03.000Z</time>
      </trkpt>
      <trkpt lat="43.29724" lon="2.37619">
        <ele>240.7</ele>
        <time>2019-06-02T07:18:04.000Z</time>
      </trkpt>
      <trkpt lat="43.29725" lon="2.37621">
        <ele>240.7</ele>
        <time>2019-06-02T07:18:05.000Z</time>
      </trkpt>
      <trkpt lat="43.29726" lon="2.37624">
        <ele>240.7</ele>
        <time>2019-06-02T07:18:06.000Z</time>
      </trkpt>
      <trkpt lat="43.29728" lon="2.37625">
        <ele>240.8</ele>
        <time>2019-06-02T07:18:07.000Z</time>
      </trkpt>
      <trkpt lat="43.2973" lon="2.37626">
        <ele>240.9</ele>
        <time>2019-06-02T07:18:08.000Z</time>
      </trkpt>
      <trkpt lat="43.29732" lon="2.37627">
        <ele>241</ele>
        <time>2019-06-02T07:18:09.000Z</time>
      </trkpt>
      <trkpt lat="43.29733" lon="2.37627">
        <ele>241</ele>
        <time>2019-06-02T07:18:10.000Z</time>
      </trkpt>
      <trkpt lat="43.29735" lon="2.37627">
        <ele>241.1</ele>
        <time>2019-06-02T07:18:11.000Z</time>
      </trkpt>
      <trkpt lat="43.29736" lon="2.37627">
        <ele>241.2</ele>
        <time>2019-06-02T07:18:12.000Z</time>
      </trkpt>
      <trkpt lat="43.29737" lon="2.37627">
        <ele>241.2</ele>
        <time>2019-06-02T07:18:13.000Z</time>
      </trkpt>
      <trkpt lat="43.29737" lon="2.37627">
        <ele>241.3</ele>
        <time>2019-06-02T07:18:14.000Z</time>
      </trkpt>
      <trkpt lat="43.29738" lon="2.37627">
        <ele>241.3</ele>
        <time>2019-06-02T07:18:15.000Z</time>
      </trkpt>
      <trkpt lat="43.29738" lon="2.37627">
        <ele>241.3</ele>
        <time>2019-06-02T07:18:16.000Z</time>
      </trkpt>
      <trkpt lat="43.29738" lon="2.37627">
        <ele>241.3</ele>
        <time>2019-06-02T07:18:17.000Z</time>
      </trkpt>
      <trkpt lat="43.29738" lon="2.37626">
        <ele>241.3</ele>
        <time>2019-06-02T07:18:18.000Z</time>
      </trkpt>
      <trkpt lat="43.29738" lon="2.37626">
        <ele>241.3</ele>
        <time>2019-06-02T07:18:19.000Z</time>
      </trkpt>
      <trkpt lat="43.29738" lon="2.37626">
        <ele>241.3</ele>
        <time>2019-06-02T07:18:20.000Z</time>
      </trkpt>
      <trkpt lat="43.29738" lon="2.37626">
        <ele>241.3</ele>
        <time>2019-06-02T07:18:21.000Z</time>
      </trkpt>
      <trkpt lat="43.29738" lon="2.37626">
        <ele>241.3</ele>
        <time>2019-06-02T07:18:22.000Z</time>
      </trkpt>
      <trkpt lat="43.29738" lon="2.37626">
        <ele>241.3</ele>
        <time>2019-06-02T07:18:23.000Z</time>
      </trkpt>
      <trkpt lat="43.29738" lon="2.37626">
        <ele>241.3</ele>
        <time>2019-06-02T07:18:24.000Z</time>
      </trkpt>
      <trkpt lat="43.29738" lon="2.37626">
        <ele>241.3</ele>
        <time>2019-06-02T07:18:25.000Z</time>
      </trkpt>
      <trkpt lat="43.29738" lon="2.37626">
        <ele>241.3</ele>
        <time>2019-06-02T07:18:26.000Z</time>
      </trkpt>
      <trkpt lat="43.29738" lon="2.37626">
        <ele>241.3</ele>
        <time>2019-06-02T07:18:27.000Z</time>
      </trkpt>
      <trkpt lat="43.29738" lon="2.37626">
        <ele>241.3</ele>
        <time>2019-06-02T07:18:28.000Z</time>
      </trkpt>
      <trkpt lat="43.29738" lon="2.37626">
        <ele>241.3</ele>
        <time>2019-06-02T07:18:29.000Z</time>
      </trkpt>
      <trkpt lat="43.29739" lon="2.37627">
        <ele>241.4</ele>
        <time>2019-06-02T07:18:30.000Z</time>
      </trkpt>
      <trkpt lat="43.29739" lon="2.37627">
        <ele>241.4</ele>
        <time>2019-06-02T07:18:31.000Z</time>
      </trkpt>
      <trkpt lat="43.2974" lon="2.37627">
        <ele>241.4</ele>
        <time>2019-06-02T07:18:32.000Z</time>
      </trkpt>
      <trkpt lat="43.29741" lon="2.37627">
        <ele>241.5</ele>
        <time>2019-06-02T07:18:33.000Z</time>
      </trkpt>
      <trkpt lat="43.29742" lon="2.37628">
        <ele>241.5</ele>
        <time>2019-06-02T07:18:34.000Z</time>
      </trkpt>
      <trkpt lat="43.29744" lon="2.37628">
        <ele>241.6</ele>
        <time>2019-06-02T07:18:35.000Z</time>
      </trkpt>
      <trkpt lat="43.29747" lon="2.37627">
        <ele>241.8</ele>
        <time>2019-06-02T07:18:36.000Z</time>
      </trkpt>
      <trkpt lat="43.29748" lon="2.37627">
        <ele>241.9</ele>
        <time>2019-06-02T07:18:37.000Z</time>
      </trkpt>
      <trkpt lat="43.2975" lon="2.37627">
        <ele>242</ele>
        <time>2019-06-02T07:18:38.000Z</time>
      </trkpt>
      <trkpt lat="43.29751" lon="2.37626">
        <ele>242</ele>
        <time>2019-06-02T07:18:39.000Z</time>
      </trkpt>
      <trkpt lat="43.29752" lon="2.37626">
        <ele>242.1</ele>
        <time>2019-06-02T07:18:40.000Z</time>
      </trkpt>
      <trkpt lat="43.29753" lon="2.37625">
        <ele>242.1</ele>
        <time>2019-06-02T07:18:41.000Z</time>
      </trkpt>
      <trkpt lat="43.29753" lon="2.37625">
        <ele>242.1</ele>
        <time>2019-06-02T07:18:42.000Z</time>
      </trkpt>
      <trkpt lat="43.29754" lon="2.37624">
        <ele>242.1</ele>
        <time>2019-06-02T07:18:43.000Z</time>
      </trkpt>
      <trkpt lat="43.29754" lon="2.37624">
        <ele>242.2</ele>
        <time>2019-06-02T07:18:44.000Z</time>
      </trkpt>
      <trkpt lat="43.29754" lon="2.37624">
        <ele>242.2</ele>
        <time>2019-06-02T07:18:45.000Z</time>
      </trkpt>
      <trkpt lat="43.29754" lon="2.37624">
        <ele>242.2</ele>
        <time>2019-06-02T07:18:46.000Z</time>
      </trkpt>
      <trkpt lat="43.29754" lon="2.37624">
        <ele>242.2</ele>
        <time>2019-06-02T07:18:47.000Z</time>
      </trkpt>
      <trkpt lat="43.29754" lon="2.37624">
        <ele>242.2</ele>
        <time>2019-06-02T07:18:48.000Z</time>
      </trkpt>
      <trkpt lat="43.29754" lon="2.37624">
        <ele>242.2</ele>
        <time>2019-06-02T07:18:49.000Z</time>
      </trkpt>
      <trkpt lat="43.29754" lon="2.37624">
        <ele>242.2</ele>
        <time>2019-06-02T07:18:50.000Z</time>
      </trkpt>
      <trkpt lat="43.29755" lon="2.37624">
        <ele>242.2</ele>
        <time>2019-06-02T07:18:51.000Z</time>
      </trkpt>
      <trkpt lat="43.29755" lon="2.37624">
        <ele>242.2</ele>
        <time>2019-06-02T07:18:52.000Z</time>
      </trkpt>
      <trkpt lat="43.29755" lon="2.37624">
        <ele>242.2</ele>
        <time>2019-06-02T07:18:53.000Z</time>
      </trkpt>
      <trkpt lat="43.29756" lon="2.37624">
        <ele>242.2</ele>
        <time>2019-06-02T07:18:54.000Z</time>
      </trkpt>
      <trkpt lat="43.29757" lon="2.37623">
        <ele>242.3</ele>
        <time>2019-06-02T07:18:55.000Z</time>
      </trkpt>
      <trkpt lat="43.29759" lon="2.37621">
        <ele>242.4</ele>
        <time>2019-06-02T07:18:56.000Z</time>
      </trkpt>
      <trkpt lat="43.29761" lon="2.3762">
        <ele>242.5</ele>
        <time>2019-06-02T07:18:57.000Z</time>
      </trkpt>
      <trkpt lat="43.29763" lon="2.37619">
        <ele>242.6</ele>
        <time>2019-06-02T07:18:58.000Z</time>
      </trkpt>
      <trkpt lat="43.29765" lon="2.37619">
        <ele>242.7</ele>
        <time>2019-06-02T07:18:59.000Z</time>
      </trkpt>
      <trkpt lat="43.29767" lon="2.3762">
        <ele>242.7</ele>
        <time>2019-06-02T07:19:00.000Z</time>
      </trkpt>
      <trkpt lat="43.29769" lon="2.37621">
        <ele>242.8</ele>
        <time>2019-06-02T07:19:01.000Z</time>
      </trkpt>
      <trkpt lat="43.29771" lon="2.37622">
        <ele>242.8</ele>
        <time>2019-06-02T07:19:02.000Z</time>
      </trkpt>
      <trkpt lat="43.29773" lon="2.37623">
        <ele>242.9</ele>
        <time>2019-06-02T07:19:03.000Z</time>
      </trkpt>
      <trkpt lat="43.29774" lon="2.37625">
        <ele>242.9</ele>
        <time>2019-06-02T07:19:04.000Z</time>
      </trkpt>
      <trkpt lat="43.29776" lon="2.37626">
        <ele>242.9</ele>
        <time>2019-06-02T07:19:05.000Z</time>
      </trkpt>
      <trkpt lat="43.29778" lon="2.37627">
        <ele>242.9</ele>
        <time>2019-06-02T07:19:06.000Z</time>
      </trkpt>
      <trkpt lat="43.29779" lon="2.37628">
        <ele>243</ele>
        <time>2019-06-02T07:19:07.000Z</time>
      </trkpt>
      <trkpt lat="43.29781" lon="2.37629">
        <ele>243</ele>
        <time>2019-06-02T07:19:08.000Z</time>
      </trkpt>
      <trkpt lat="43.29782" lon="2.3763">
        <ele>243</ele>
        <time>2019-06-02T07:19:09.000Z</time>
      </trkpt>
      <trkpt lat="43.29784" lon="2.3763">
        <ele>243.1</ele>
        <time>2019-06-02T07:19:10.000Z</time>
      </trkpt>
      <trkpt lat="43.29785" lon="2.37631">
        <ele>243.1</ele>
        <time>2019-06-02T07:19:11.000Z</time>
      </trkpt>
      <trkpt lat="43.29787" lon="2.37631">
        <ele>243.2</ele>
        <time>2019-06-02T07:19:12.000Z</time>
      </trkpt>
      <trkpt lat="43.29789" lon="2.37632">
        <ele>243.3</ele>
        <time>2019-06-02T07:19:13.000Z</time>
      </trkpt>
      <trkpt lat="43.29791" lon="2.37633">
        <ele>243.3</ele>
        <time>2019-06-02T07:19:14.000Z</time>
      </trkpt>
      <trkpt lat="43.29793" lon="2.37635">
        <ele>243.3</ele>
        <time>2019-06-02T07:19:15.000Z</time>
      </trkpt>
      <trkpt lat="43.29794" lon="2.37635">
        <ele>243.3</ele>
        <time>2019-06-02T07:19:16.000Z</time>
      </trkpt>
      <trkpt lat="43.29795" lon="2.37635">
        <ele>243.4</ele>
        <time>2019-06-02T07:19:17.000Z</time>
      </trkpt>
      <trkpt lat="43.29796" lon="2.37633">
        <ele>243.4</ele>
        <time>2019-06-02T07:19:18.000Z</time>
      </trkpt>
      <trkpt lat="43.29797" lon="2.37631">
        <ele>243.5</ele>
        <time>2019-06-02T07:19:19.000Z</time>
      </trkpt>
      <trkpt lat="43.29799" lon="2.37629">
        <ele>243.6</ele>
        <time>2019-06-02T07:19:20.000Z</time>
      </trkpt>
      <trkpt lat="43.298" lon="2.37627">
        <ele>243.8</ele>
        <time>2019-06-02T07:19:21.000Z</time>
      </trkpt>
      <trkpt lat="43.29802" lon="2.37625">
        <ele>243.9</ele>
        <time>2019-06-02T07:19:22.000Z</time>
      </trkpt>
      <trkpt lat="43.29804" lon="2.37623">
        <ele>244</ele>
        <time>2019-06-02T07:19:23.000Z</time>
      </trkpt>
      <trkpt lat="43.29806" lon="2.37622">
        <ele>244.1</ele>
        <time>2019-06-02T07:19:24.000Z</time>
      </trkpt>
      <trkpt lat="43.29808" lon="2.37621">
        <ele>244.2</ele>
        <time>2019-06-02T07:19:25.000Z</time>
      </trkpt>
      <trkpt lat="43.2981" lon="2.37619">
        <ele>244.3</ele>
        <time>2019-06-02T07:19:26.000Z</time>
      </trkpt>
      <trkpt lat="43.29811" lon="2.37617">
        <ele>244.4</ele>
        <time>2019-06-02T07:19:27.000Z</time>
      </trkpt>
      <trkpt lat="43.29813" lon="2.37615">
        <ele>244.5</ele>
        <time>2019-06-02T07:19:28.000Z</time>
      </trkpt>
      <trkpt lat="43.29815" lon="2.37614">
        <ele>244.6</ele>
        <time>2019-06-02T07:19:29.000Z</time>
      </trkpt>
      <trkpt lat="43.29816" lon="2.37612">
        <ele>244.7</ele>
        <time>2019-06-02T07:19:30.000Z</time>
      </trkpt>
      <trkpt lat="43.29818" lon="2.3761">
        <ele>244.8</ele>
        <time>2019-06-02T07:19:31.000Z</time>
      </trkpt>
      <trkpt lat="43.2982" lon="2.37609">
        <ele>244.9</ele>
        <time>2019-06-02T07:19:32.000Z</time>
      </trkpt>
      <trkpt lat="43.29822" lon="2.37607">
        <ele>245</ele>
        <time>2019-06-02T07:19:33.000Z</time>
      </trkpt>
      <trkpt lat="43.29823" lon="2.37606">
        <ele>245.1</ele>
        <time>2019-06-02T07:19:34.000Z</time>
      </trkpt>
      <trkpt lat="43.29826" lon="2.37606">
        <ele>245.2</ele>
        <time>2019-06-02T07:19:35.000Z</time>
      </trkpt>
      <trkpt lat="43.29828" lon="2.37605">
        <ele>245.3</ele>
        <time>2019-06-02T07:19:36.000Z</time>
      </trkpt>
      <trkpt lat="43.2983" lon="2.37605">
        <ele>245.4</ele>
        <time>2019-06-02T07:19:37.000Z</time>
      </trkpt>
      <trkpt lat="43.29832" lon="2.37605">
        <ele>245.4</ele>
        <time>2019-06-02T07:19:38.000Z</time>
      </trkpt>
      <trkpt lat="43.29834" lon="2.37604">
        <ele>245.4</ele>
        <time>2019-06-02T07:19:39.000Z</time>
      </trkpt>
      <trkpt lat="43.29836" lon="2.37604">
        <ele>245.2</ele>
        <time>2019-06-02T07:19:40.000Z</time>
      </trkpt>
      <trkpt lat="43.29838" lon="2.37605">
        <ele>245</ele>
        <time>2019-06-02T07:19:41.000Z</time>
      </trkpt>
      <trkpt lat="43.2984" lon="2.37605">
        <ele>244.8</ele>
        <time>2019-06-02T07:19:42.000Z</time>
      </trkpt>
      <trkpt lat="43.29842" lon="2.37605">
        <ele>244.6</ele>
        <time>2019-06-02T07:19:43.000Z</time>
      </trkpt>
      <trkpt lat="43.29844" lon="2.37605">
        <ele>244.4</ele>
        <time>2019-06-02T07:19:44.000Z</time>
      </trkpt>
      <trkpt lat="43.29845" lon="2.37604">
        <ele>244.2</ele>
        <time>2019-06-02T07:19:45.000Z</time>
      </trkpt>
      <trkpt lat="43.29847" lon="2.37604">
        <ele>244.1</ele>
        <time>2019-06-02T07:19:46.000Z</time>
      </trkpt>
      <trkpt lat="43.29848" lon="2.37604">
        <ele>244</ele>
        <time>2019-06-02T07:19:47.000Z</time>
      </trkpt>
      <trkpt lat="43.29849" lon="2.37603">
        <ele>243.9</ele>
        <time>2019-06-02T07:19:48.000Z</time>
      </trkpt>
      <trkpt lat="43.29851" lon="2.37603">
        <ele>243.8</ele>
        <time>2019-06-02T07:19:49.000Z</time>
      </trkpt>
      <trkpt lat="43.29852" lon="2.37602">
        <ele>243.7</ele>
        <time>2019-06-02T07:19:50.000Z</time>
      </trkpt>
      <trkpt lat="43.29853" lon="2.37602">
        <ele>243.6</ele>
        <time>2019-06-02T07:19:51.000Z</time>
      </trkpt>
      <trkpt lat="43.29854" lon="2.37603">
        <ele>243.4</ele>
        <time>2019-06-02T07:19:52.000Z</time>
      </trkpt>
      <trkpt lat="43.29856" lon="2.37604">
        <ele>243.2</ele>
        <time>2019-06-02T07:19:53.000Z</time>
      </trkpt>
      <trkpt lat="43.29857" lon="2.37604">
        <ele>243</ele>
        <time>2019-06-02T07:19:54.000Z</time>
      </trkpt>
      <trkpt lat="43.29858" lon="2.37604">
        <ele>242.9</ele>
        <time>2019-06-02T07:19:55.000Z</time>
      </trkpt>
      <trkpt lat="43.29858" lon="2.37604">
        <ele>242.9</ele>
        <time>2019-06-02T07:19:56.000Z</time>
      </trkpt>
      <trkpt lat="43.29858" lon="2.37604">
        <ele>242.9</ele>
        <time>2019-06-02T07:19:57.000Z</time>
      </trkpt>
      <trkpt lat="43.29859" lon="2.37603">
        <ele>242.8</ele>
        <time>2019-06-02T07:19:58.000Z</time>
      </trkpt>
      <trkpt lat="43.29861" lon="2.37603">
        <ele>242.7</ele>
        <time>2019-06-02T07:19:59.000Z</time>
      </trkpt>
      <trkpt lat="43.29864" lon="2.37602">
        <ele>242.5</ele>
        <time>2019-06-02T07:20:00.000Z</time>
      </trkpt>
      <trkpt lat="43.29865" lon="2.37602">
        <ele>242.3</ele>
        <time>2019-06-02T07:20:01.000Z</time>
      </trkpt>
      <trkpt lat="43.29866" lon="2.37602">
        <ele>242.2</ele>
        <time>2019-06-02T07:20:02.000Z</time>
      </trkpt>
      <trkpt lat="43.29867" lon="2.37602">
        <ele>242.1</ele>
        <time>2019-06-02T07:20:03.000Z</time>
      </trkpt>
      <trkpt lat="43.29869" lon="2.37603">
        <ele>241.9</ele>
        <time>2019-06-02T07:20:04.000Z</time>
      </trkpt>
      <trkpt lat="43.2987" lon="2.37603">
        <ele>241.8</ele>
        <time>2019-06-02T07:20:05.000Z</time>
      </trkpt>
      <trkpt lat="43.29871" lon="2.37604">
        <ele>241.6</ele>
        <time>2019-06-02T07:20:06.000Z</time>
      </trkpt>
      <trkpt lat="43.29872" lon="2.37604">
        <ele>241.4</ele>
        <time>2019-06-02T07:20:07.000Z</time>
      </trkpt>
      <trkpt lat="43.29874" lon="2.37605">
        <ele>241.2</ele>
        <time>2019-06-02T07:20:08.000Z</time>
      </trkpt>
      <trkpt lat="43.29875" lon="2.37605">
        <ele>241</ele>
        <time>2019-06-02T07:20:09.000Z</time>
      </trkpt>
      <trkpt lat="43.29877" lon="2.37606">
        <ele>240.8</ele>
        <time>2019-06-02T07:20:10.000Z</time>
      </trkpt>
      <trkpt lat="43.29878" lon="2.37607">
        <ele>240.6</ele>
        <time>2019-06-02T07:20:11.000Z</time>
      </trkpt>
      <trkpt lat="43.29879" lon="2.37607">
        <ele>240.4</ele>
        <time>2019-06-02T07:20:12.000Z</time>
      </trkpt>
      <trkpt lat="43.29881" lon="2.37607">
        <ele>240.2</ele>
        <time>2019-06-02T07:20:13.000Z</time>
      </trkpt>
      <trkpt lat="43.29882" lon="2.37607">
        <ele>240.1</ele>
        <time>2019-06-02T07:20:14.000Z</time>
      </trkpt>
      <trkpt lat="43.29883" lon="2.37607">
        <ele>240</ele>
        <time>2019-06-02T07:20:15.000Z</time>
      </trkpt>
      <trkpt lat="43.29885" lon="2.37606">
        <ele>239.9</ele>
        <time>2019-06-02T07:20:16.000Z</time>
      </trkpt>
      <trkpt lat="43.29886" lon="2.37605">
        <ele>239.9</ele>
        <time>2019-06-02T07:20:17.000Z</time>
      </trkpt>
      <trkpt lat="43.29887" lon="2.37604">
        <ele>239.9</ele>
        <time>2019-06-02T07:20:18.000Z</time>
      </trkpt>
      <trkpt lat="43.29888" lon="2.37602">
        <ele>240</ele>
        <time>2019-06-02T07:20:19.000Z</time>
      </trkpt>
      <trkpt lat="43.29889" lon="2.376">
        <ele>240.1</ele>
        <time>2019-06-02T07:20:20.000Z</time>
      </trkpt>
      <trkpt lat="43.2989" lon="2.37598">
        <ele>240.3</ele>
        <time>2019-06-02T07:20:21.000Z</time>
      </trkpt>
      <trkpt lat="43.2989" lon="2.37596">
        <ele>240.5</ele>
        <time>2019-06-02T07:20:22.000Z</time>
      </trkpt>
      <trkpt lat="43.29891" lon="2.37594">
        <ele>240.7</ele>
        <time>2019-06-02T07:20:23.000Z</time>
      </trkpt>
      <trkpt lat="43.29891" lon="2.37592">
        <ele>240.9</ele>
        <time>2019-06-02T07:20:24.000Z</time>
      </trkpt>
      <trkpt lat="43.29892" lon="2.37589">
        <ele>241.1</ele>
        <time>2019-06-02T07:20:25.000Z</time>
      </trkpt>
      <trkpt lat="43.29892" lon="2.37587">
        <ele>241.3</ele>
        <time>2019-06-02T07:20:26.000Z</time>
      </trkpt>
      <trkpt lat="43.29892" lon="2.37585">
        <ele>241.6</ele>
        <time>2019-06-02T07:20:27.000Z</time>
      </trkpt>
      <trkpt lat="43.29893" lon="2.37583">
        <ele>241.8</ele>
        <time>2019-06-02T07:20:28.000Z</time>
      </trkpt>
      <trkpt lat="43.29893" lon="2.37581">
        <ele>241.9</ele>
        <time>2019-06-02T07:20:29.000Z</time>
      </trkpt>
      <trkpt lat="43.29894" lon="2.37579">
        <ele>242</ele>
        <time>2019-06-02T07:20:30.000Z</time>
      </trkpt>
      <trkpt lat="43.29894" lon="2.37577">
        <ele>242.1</ele>
        <time>2019-06-02T07:20:31.000Z</time>
      </trkpt>
      <trkpt lat="43.29895" lon="2.37575">
        <ele>242.2</ele>
        <time>2019-06-02T07:20:32.000Z</time>
      </trkpt>
      <trkpt lat="43.29896" lon="2.37573">
        <ele>242.3</ele>
        <time>2019-06-02T07:20:33.000Z</time>
      </trkpt>
      <trkpt lat="43.29896" lon="2.37571">
        <ele>242.4</ele>
        <time>2019-06-02T07:20:34.000Z</time>
      </trkpt>
      <trkpt lat="43.29897" lon="2.3757">
        <ele>242.5</ele>
        <time>2019-06-02T07:20:35.000Z</time>
      </trkpt>
      <trkpt lat="43.29898" lon="2.37568">
        <ele>242.6</ele>
        <time>2019-06-02T07:20:36.000Z</time>
      </trkpt>
      <trkpt lat="43.29899" lon="2.37566">
        <ele>242.6</ele>
        <time>2019-06-02T07:20:37.000Z</time>
      </trkpt>
      <trkpt lat="43.299" lon="2.37565">
        <ele>242.7</ele>
        <time>2019-06-02T07:20:38.000Z</time>
      </trkpt>
      <trkpt lat="43.29901" lon="2.37563">
        <ele>242.8</ele>
        <time>2019-06-02T07:20:39.000Z</time>
      </trkpt>
      <trkpt lat="43.29902" lon="2.37562">
        <ele>242.9</ele>
        <time>2019-06-02T07:20:40.000Z</time>
      </trkpt>
      <trkpt lat="43.29903" lon="2.3756">
        <ele>242.9</ele>
        <time>2019-06-02T07:20:41.000Z</time>
      </trkpt>
      <trkpt lat="43.29904" lon="2.37559">
        <ele>243</ele>
        <time>2019-06-02T07:20:42.000Z</time>
      </trkpt>
      <trkpt lat="43.29905" lon="2.37558">
        <ele>243</ele>
        <time>2019-06-02T07:20:43.000Z</time>
      </trkpt>
      <trkpt lat="43.29906" lon="2.37557">
        <ele>243.1</ele>
        <time>2019-06-02T07:20:44.000Z</time>
      </trkpt>
      <trkpt lat="43.29906" lon="2.37555">
        <ele>243.2</ele>
        <time>2019-06-02T07:20:45.000Z</time>
      </trkpt>
      <trkpt lat="43.29907" lon="2.37554">
        <ele>243.3</ele>
        <time>2019-06-02T07:20:46.000Z</time>
      </trkpt>
      <trkpt lat="43.29907" lon="2.37553">
        <ele>243.4</ele>
        <time>2019-06-02T07:20:47.000Z</time>
      </trkpt>
      <trkpt lat="43.29908" lon="2.37552">
        <ele>243.4</ele>
        <time>2019-06-02T07:20:48.000Z</time>
      </trkpt>
      <trkpt lat="43.29909" lon="2.3755">
        <ele>243.5</ele>
        <time>2019-06-02T07:20:49.000Z</time>
      </trkpt>
      <trkpt lat="43.29909" lon="2.37549">
        <ele>243.6</ele>
        <time>2019-06-02T07:20:50.000Z</time>
      </trkpt>
      <trkpt lat="43.2991" lon="2.37548">
        <ele>243.7</ele>
        <time>2019-06-02T07:20:51.000Z</time>
      </trkpt>
      <trkpt lat="43.29912" lon="2.37546">
        <ele>243.8</ele>
        <time>2019-06-02T07:20:52.000Z</time>
      </trkpt>
      <trkpt lat="43.29913" lon="2.37544">
        <ele>243.9</ele>
        <time>2019-06-02T07:20:53.000Z</time>
      </trkpt>
      <trkpt lat="43.29914" lon="2.37543">
        <ele>244</ele>
        <time>2019-06-02T07:20:54.000Z</time>
      </trkpt>
      <trkpt lat="43.29915" lon="2.37541">
        <ele>244.1</ele>
        <time>2019-06-02T07:20:55.000Z</time>
      </trkpt>
      <trkpt lat="43.29916" lon="2.37539">
        <ele>244.3</ele>
        <time>2019-06-02T07:20:56.000Z</time>
      </trkpt>
      <trkpt lat="43.29917" lon="2.37537">
        <ele>244.3</ele>
        <time>2019-06-02T07:20:57.000Z</time>
      </trkpt>
      <trkpt lat="43.29917" lon="2.37536">
        <ele>244.3</ele>
        <time>2019-06-02T07:20:58.000Z</time>
      </trkpt>
      <trkpt lat="43.29918" lon="2.37534">
        <ele>244.4</ele>
        <time>2019-06-02T07:20:59.000Z</time>
      </trkpt>
      <trkpt lat="43.29918" lon="2.37533">
        <ele>244.3</ele>
        <time>2019-06-02T07:21:00.000Z</time>
      </trkpt>
      <trkpt lat="43.29919" lon="2.37531">
        <ele>244.3</ele>
        <time>2019-06-02T07:21:01.000Z</time>
      </trkpt>
      <trkpt lat="43.29919" lon="2.37529">
        <ele>244.3</ele>
        <time>2019-06-02T07:21:02.000Z</time>
      </trkpt>
      <trkpt lat="43.2992" lon="2.37527">
        <ele>244.2</ele>
        <time>2019-06-02T07:21:03.000Z</time>
      </trkpt>
      <trkpt lat="43.29921" lon="2.37525">
        <ele>244.2</ele>
        <time>2019-06-02T07:21:04.000Z</time>
      </trkpt>
      <trkpt lat="43.29921" lon="2.37524">
        <ele>244.1</ele>
        <time>2019-06-02T07:21:05.000Z</time>
      </trkpt>
      <trkpt lat="43.29922" lon="2.37522">
        <ele>244</ele>
        <time>2019-06-02T07:21:06.000Z</time>
      </trkpt>
      <trkpt lat="43.29922" lon="2.37521">
        <ele>243.9</ele>
        <time>2019-06-02T07:21:07.000Z</time>
      </trkpt>
      <trkpt lat="43.29923" lon="2.3752">
        <ele>243.9</ele>
        <time>2019-06-02T07:21:08.000Z</time>
      </trkpt>
      <trkpt lat="43.29923" lon="2.37519">
        <ele>243.9</ele>
        <time>2019-06-02T07:21:09.000Z</time>
      </trkpt>
      <trkpt lat="43.29923" lon="2.37519">
        <ele>243.9</ele>
        <time>2019-06-02T07:21:10.000Z</time>
      </trkpt>
      <trkpt lat="43.29923" lon="2.37517">
        <ele>243.9</ele>
        <time>2019-06-02T07:21:11.000Z</time>
      </trkpt>
      <trkpt lat="43.29924" lon="2.37515">
        <ele>243.9</ele>
        <time>2019-06-02T07:21:12.000Z</time>
      </trkpt>
      <trkpt lat="43.29925" lon="2.37512">
        <ele>243.8</ele>
        <time>2019-06-02T07:21:13.000Z</time>
      </trkpt>
      <trkpt lat="43.29926" lon="2.3751">
        <ele>243.8</ele>
        <time>2019-06-02T07:21:14.000Z</time>
      </trkpt>
      <trkpt lat="43.29927" lon="2.37508">
        <ele>243.7</ele>
        <time>2019-06-02T07:21:15.000Z</time>
      </trkpt>
      <trkpt lat="43.29928" lon="2.37506">
        <ele>243.7</ele>
        <time>2019-06-02T07:21:16.000Z</time>
      </trkpt>
      <trkpt lat="43.29929" lon="2.37504">
        <ele>243.6</ele>
        <time>2019-06-02T07:21:17.000Z</time>
      </trkpt>
      <trkpt lat="43.2993" lon="2.37501">
        <ele>243.5</ele>
        <time>2019-06-02T07:21:18.000Z</time>
      </trkpt>
      <trkpt lat="43.29931" lon="2.37499">
        <ele>243.3</ele>
        <time>2019-06-02T07:21:19.000Z</time>
      </trkpt>
      <trkpt lat="43.29932" lon="2.37496">
        <ele>243.1</ele>
        <time>2019-06-02T07:21:20.000Z</time>
      </trkpt>
      <trkpt lat="43.29933" lon="2.37493">
        <ele>242.9</ele>
        <time>2019-06-02T07:21:21.000Z</time>
      </trkpt>
      <trkpt lat="43.29934" lon="2.3749">
        <ele>242.7</ele>
        <time>2019-06-02T07:21:22.000Z</time>
      </trkpt>
      <trkpt lat="43.29935" lon="2.37487">
        <ele>242.6</ele>
        <time>2019-06-02T07:21:23.000Z</time>
      </trkpt>
      <trkpt lat="43.29935" lon="2.37485">
        <ele>242.5</ele>
        <time>2019-06-02T07:21:24.000Z</time>
      </trkpt>
      <trkpt lat="43.29936" lon="2.37482">
        <ele>242.4</ele>
        <time>2019-06-02T07:21:25.000Z</time>
      </trkpt>
      <trkpt lat="43.29937" lon="2.37479">
        <ele>242.4</ele>
        <time>2019-06-02T07:21:26.000Z</time>
      </trkpt>
      <trkpt lat="43.29937" lon="2.37476">
        <ele>242.3</ele>
        <time>2019-06-02T07:21:27.000Z</time>
      </trkpt>
      <trkpt lat="43.29938" lon="2.37473">
        <ele>242.3</ele>
        <time>2019-06-02T07:21:28.000Z</time>
      </trkpt>
      <trkpt lat="43.29938" lon="2.3747">
        <ele>242.2</ele>
        <time>2019-06-02T07:21:29.000Z</time>
      </trkpt>
      <trkpt lat="43.29939" lon="2.37468">
        <ele>242.2</ele>
        <time>2019-06-02T07:21:30.000Z</time>
      </trkpt>
      <trkpt lat="43.29939" lon="2.37465">
        <ele>242.2</ele>
        <time>2019-06-02T07:21:31.000Z</time>
      </trkpt>
      <trkpt lat="43.2994" lon="2.37462">
        <ele>242.1</ele>
        <time>2019-06-02T07:21:32.000Z</time>
      </trkpt>
      <trkpt lat="43.2994" lon="2.37459">
        <ele>242.1</ele>
        <time>2019-06-02T07:21:33.000Z</time>
      </trkpt>
      <trkpt lat="43.29941" lon="2.37457">
        <ele>242.1</ele>
        <time>2019-06-02T07:21:34.000Z</time>
      </trkpt>
      <trkpt lat="43.29941" lon="2.37454">
        <ele>242.2</ele>
        <time>2019-06-02T07:21:35.000Z</time>
      </trkpt>
      <trkpt lat="43.29941" lon="2.37451">
        <ele>242.2</ele>
        <time>2019-06-02T07:21:36.000Z</time>
      </trkpt>
      <trkpt lat="43.29941" lon="2.37448">
        <ele>242.3</ele>
        <time>2019-06-02T07:21:37.000Z</time>
      </trkpt>
      <trkpt lat="43.29942" lon="2.37445">
        <ele>242.4</ele>
        <time>2019-06-02T07:21:38.000Z</time>
      </trkpt>
      <trkpt lat="43.29942" lon="2.37441">
        <ele>242.6</ele>
        <time>2019-06-02T07:21:39.000Z</time>
      </trkpt>
      <trkpt lat="43.29942" lon="2.37438">
        <ele>242.7</ele>
        <time>2019-06-02T07:21:40.000Z</time>
      </trkpt>
      <trkpt lat="43.29942" lon="2.37435">
        <ele>242.8</ele>
        <time>2019-06-02T07:21:41.000Z</time>
      </trkpt>
      <trkpt lat="43.29942" lon="2.37431">
        <ele>242.9</ele>
        <time>2019-06-02T07:21:42.000Z</time>
      </trkpt>
      <trkpt lat="43.29943" lon="2.37428">
        <ele>243</ele>
        <time>2019-06-02T07:21:43.000Z</time>
      </trkpt>
      <trkpt lat="43.29943" lon="2.37425">
        <ele>243</ele>
        <time>2019-06-02T07:21:44.000Z</time>
      </trkpt>
      <trkpt lat="43.29944" lon="2.37422">
        <ele>243</ele>
        <time>2019-06-02T07:21:45.000Z</time>
      </trkpt>
      <trkpt lat="43.29944" lon="2.37419">
        <ele>242.9</ele>
        <time>2019-06-02T07:21:46.000Z</time>
      </trkpt>
      <trkpt lat="43.29945" lon="2.37416">
        <ele>242.8</ele>
        <time>2019-06-02T07:21:47.000Z</time>
      </trkpt>
      <trkpt lat="43.29946" lon="2.37412">
        <ele>242.6</ele>
        <time>2019-06-02T07:21:48.000Z</time>
      </trkpt>
      <trkpt lat="43.29946" lon="2.37409">
        <ele>242.4</ele>
        <time>2019-06-02T07:21:49.000Z</time>
      </trkpt>
      <trkpt lat="43.29947" lon="2.37406">
        <ele>242.2</ele>
        <time>2019-06-02T07:21:50.000Z</time>
      </trkpt>
      <trkpt lat="43.29947" lon="2.37403">
        <ele>242.1</ele>
        <time>2019-06-02T07:21:51.000Z</time>
      </trkpt>
      <trkpt lat="43.29947" lon="2.374">
        <ele>242</ele>
        <time>2019-06-02T07:21:52.000Z</time>
      </trkpt>
      <trkpt lat="43.29947" lon="2.37396">
        <ele>242</ele>
        <time>2019-06-02T07:21:53.000Z</time>
      </trkpt>
      <trkpt lat="43.29947" lon="2.37393">
        <ele>241.9</ele>
        <time>2019-06-02T07:21:54.000Z</time>
      </trkpt>
      <trkpt lat="43.29947" lon="2.37389">
        <ele>242</ele>
        <time>2019-06-02T07:21:55.000Z</time>
      </trkpt>
      <trkpt lat="43.29946" lon="2.37386">
        <ele>242.1</ele>
        <time>2019-06-02T07:21:56.000Z</time>
      </trkpt>
      <trkpt lat="43.29946" lon="2.37382">
        <ele>242.2</ele>
        <time>2019-06-02T07:21:57.000Z</time>
      </trkpt>
      <trkpt lat="43.29945" lon="2.37379">
        <ele>242.5</ele>
        <time>2019-06-02T07:21:58.000Z</time>
      </trkpt>
      <trkpt lat="43.29944" lon="2.37376">
        <ele>242.7</ele>
        <time>2019-06-02T07:21:59.000Z</time>
      </trkpt>
      <trkpt lat="43.29942" lon="2.37372">
        <ele>243</ele>
        <time>2019-06-02T07:22:00.000Z</time>
      </trkpt>
      <trkpt lat="43.29941" lon="2.37369">
        <ele>243.4</ele>
        <time>2019-06-02T07:22:01.000Z</time>
      </trkpt>
      <trkpt lat="43.29939" lon="2.37366">
        <ele>243.8</ele>
        <time>2019-06-02T07:22:02.000Z</time>
      </trkpt>
      <trkpt lat="43.29938" lon="2.37363">
        <ele>244.1</ele>
        <time>2019-06-02T07:22:03.000Z</time>
      </trkpt>
      <trkpt lat="43.29936" lon="2.3736">
        <ele>244.5</ele>
        <time>2019-06-02T07:22:04.000Z</time>
      </trkpt>
      <trkpt lat="43.29934" lon="2.37357">
        <ele>244.9</ele>
        <time>2019-06-02T07:22:05.000Z</time>
      </trkpt>
      <trkpt lat="43.29933" lon="2.37354">
        <ele>245.3</ele>
        <time>2019-06-02T07:22:06.000Z</time>
      </trkpt>
      <trkpt lat="43.29931" lon="2.37352">
        <ele>245.7</ele>
        <time>2019-06-02T07:22:07.000Z</time>
      </trkpt>
      <trkpt lat="43.29929" lon="2.37349">
        <ele>246.1</ele>
        <time>2019-06-02T07:22:08.000Z</time>
      </trkpt>
      <trkpt lat="43.29928" lon="2.37346">
        <ele>246.4</ele>
        <time>2019-06-02T07:22:09.000Z</time>
      </trkpt>
      <trkpt lat="43.29926" lon="2.37344">
        <ele>246.8</ele>
        <time>2019-06-02T07:22:10.000Z</time>
      </trkpt>
      <trkpt lat="43.29925" lon="2.37341">
        <ele>247.2</ele>
        <time>2019-06-02T07:22:11.000Z</time>
      </trkpt>
      <trkpt lat="43.29923" lon="2.37339">
        <ele>247.5</ele>
        <time>2019-06-02T07:22:12.000Z</time>
      </trkpt>
      <trkpt lat="43.29922" lon="2.37336">
        <ele>247.8</ele>
        <time>2019-06-02T07:22:13.000Z</time>
      </trkpt>
      <trkpt lat="43.2992" lon="2.37334">
        <ele>248.2</ele>
        <time>2019-06-02T07:22:14.000Z</time>
      </trkpt>
      <trkpt lat="43.29919" lon="2.37331">
        <ele>248.4</ele>
        <time>2019-06-02T07:22:15.000Z</time>
      </trkpt>
      <trkpt lat="43.29917" lon="2.37328">
        <ele>248.6</ele>
        <time>2019-06-02T07:22:16.000Z</time>
      </trkpt>
      <trkpt lat="43.29916" lon="2.37325">
        <ele>248.5</ele>
        <time>2019-06-02T07:22:17.000Z</time>
      </trkpt>
      <trkpt lat="43.29914" lon="2.37322">
        <ele>248.4</ele>
        <time>2019-06-02T07:22:18.000Z</time>
      </trkpt>
      <trkpt lat="43.29913" lon="2.3732">
        <ele>248.3</ele>
        <time>2019-06-02T07:22:19.000Z</time>
      </trkpt>
      <trkpt lat="43.29911" lon="2.37317">
        <ele>248.1</ele>
        <time>2019-06-02T07:22:20.000Z</time>
      </trkpt>
      <trkpt lat="43.2991" lon="2.37314">
        <ele>248</ele>
        <time>2019-06-02T07:22:21.000Z</time>
      </trkpt>
      <trkpt lat="43.29909" lon="2.37311">
        <ele>247.9</ele>
        <time>2019-06-02T07:22:22.000Z</time>
      </trkpt>
      <trkpt lat="43.29907" lon="2.37308">
        <ele>247.7</ele>
        <time>2019-06-02T07:22:23.000Z</time>
      </trkpt>
      <trkpt lat="43.29906" lon="2.37305">
        <ele>247.6</ele>
        <time>2019-06-02T07:22:24.000Z</time>
      </trkpt>
      <trkpt lat="43.29905" lon="2.37302">
        <ele>247.5</ele>
        <time>2019-06-02T07:22:25.000Z</time>
      </trkpt>
      <trkpt lat="43.29904" lon="2.37299">
        <ele>247.4</ele>
        <time>2019-06-02T07:22:26.000Z</time>
      </trkpt>
      <trkpt lat="43.29903" lon="2.37295">
        <ele>247.3</ele>
        <time>2019-06-02T07:22:27.000Z</time>
      </trkpt>
      <trkpt lat="43.29901" lon="2.37292">
        <ele>247.2</ele>
        <time>2019-06-02T07:22:28.000Z</time>
      </trkpt>
      <trkpt lat="43.299" lon="2.37289">
        <ele>247.1</ele>
        <time>2019-06-02T07:22:29.000Z</time>
      </trkpt>
      <trkpt lat="43.29899" lon="2.37286">
        <ele>247</ele>
        <time>2019-06-02T07:22:30.000Z</time>
      </trkpt>
      <trkpt lat="43.29898" lon="2.37283">
        <ele>246.9</ele>
        <time>2019-06-02T07:22:31.000Z</time>
      </trkpt>
      <trkpt lat="43.29897" lon="2.3728">
        <ele>246.8</ele>
        <time>2019-06-02T07:22:32.000Z</time>
      </trkpt>
      <trkpt lat="43.29896" lon="2.37277">
        <ele>246.7</ele>
        <time>2019-06-02T07:22:33.000Z</time>
      </trkpt>
      <trkpt lat="43.29894" lon="2.37274">
        <ele>246.7</ele>
        <time>2019-06-02T07:22:34.000Z</time>
      </trkpt>
      <trkpt lat="43.29893" lon="2.37272">
        <ele>246.6</ele>
        <time>2019-06-02T07:22:35.000Z</time>
      </trkpt>
      <trkpt lat="43.29892" lon="2.37269">
        <ele>246.6</ele>
        <time>2019-06-02T07:22:36.000Z</time>
      </trkpt>
      <trkpt lat="43.2989" lon="2.37266">
        <ele>246.6</ele>
        <time>2019-06-02T07:22:37.000Z</time>
      </trkpt>
      <trkpt lat="43.29888" lon="2.37264">
        <ele>246.6</ele>
        <time>2019-06-02T07:22:38.000Z</time>
      </trkpt>
      <trkpt lat="43.29887" lon="2.37262">
        <ele>246.6</ele>
        <time>2019-06-02T07:22:39.000Z</time>
      </trkpt>
      <trkpt lat="43.29885" lon="2.3726">
        <ele>246.7</ele>
        <time>2019-06-02T07:22:40.000Z</time>
      </trkpt>
      <trkpt lat="43.29883" lon="2.37258">
        <ele>246.7</ele>
        <time>2019-06-02T07:22:41.000Z</time>
      </trkpt>
      <trkpt lat="43.2988" lon="2.37257">
        <ele>246.8</ele>
        <time>2019-06-02T07:22:42.000Z</time>
      </trkpt>
      <trkpt lat="43.29878" lon="2.37255">
        <ele>246.9</ele>
        <time>2019-06-02T07:22:43.000Z</time>
      </trkpt>
      <trkpt lat="43.29876" lon="2.37254">
        <ele>247.1</ele>
        <time>2019-06-02T07:22:44.000Z</time>
      </trkpt>
      <trkpt lat="43.29873" lon="2.37253">
        <ele>247.2</ele>
        <time>2019-06-02T07:22:45.000Z</time>
      </trkpt>
      <trkpt lat="43.29871" lon="2.37252">
        <ele>247.4</ele>
        <time>2019-06-02T07:22:46.000Z</time>
      </trkpt>
      <trkpt lat="43.29868" lon="2.3725">
        <ele>247.5</ele>
        <time>2019-06-02T07:22:47.000Z</time>
      </trkpt>
      <trkpt lat="43.29866" lon="2.37249">
        <ele>247.7</ele>
        <time>2019-06-02T07:22:48.000Z</time>
      </trkpt>
      <trkpt lat="43.29864" lon="2.37248">
        <ele>247.9</ele>
        <time>2019-06-02T07:22:49.000Z</time>
      </trkpt>
      <trkpt lat="43.29862" lon="2.37247">
        <ele>248</ele>
        <time>2019-06-02T07:22:50.000Z</time>
      </trkpt>
      <trkpt lat="43.29859" lon="2.37245">
        <ele>248.2</ele>
        <time>2019-06-02T07:22:51.000Z</time>
      </trkpt>
      <trkpt lat="43.29857" lon="2.37244">
        <ele>248.4</ele>
        <time>2019-06-02T07:22:52.000Z</time>
      </trkpt>
      <trkpt lat="43.29855" lon="2.37243">
        <ele>248.6</ele>
        <time>2019-06-02T07:22:53.000Z</time>
      </trkpt>
      <trkpt lat="43.29853" lon="2.37241">
        <ele>248.7</ele>
        <time>2019-06-02T07:22:54.000Z</time>
      </trkpt>
      <trkpt lat="43.29851" lon="2.3724">
        <ele>248.9</ele>
        <time>2019-06-02T07:22:55.000Z</time>
      </trkpt>
      <trkpt lat="43.29849" lon="2.37239">
        <ele>249.1</ele>
        <time>2019-06-02T07:22:56.000Z</time>
      </trkpt>
      <trkpt lat="43.29846" lon="2.37237">
        <ele>249.3</ele>
        <time>2019-06-02T07:22:57.000Z</time>
      </trkpt>
      <trkpt lat="43.29844" lon="2.37236">
        <ele>249.6</ele>
        <time>2019-06-02T07:22:58.000Z</time>
      </trkpt>
      <trkpt lat="43.29842" lon="2.37234">
        <ele>249.8</ele>
        <time>2019-06-02T07:22:59.000Z</time>
      </trkpt>
      <trkpt lat="43.29839" lon="2.37233">
        <ele>250</ele>
        <time>2019-06-02T07:23:00.000Z</time>
      </trkpt>
      <trkpt lat="43.29837" lon="2.37232">
        <ele>250.2</ele>
        <time>2019-06-02T07:23:01.000Z</time>
      </trkpt>
      <trkpt lat="43.29834" lon="2.37231">
        <ele>250.4</ele>
        <time>2019-06-02T07:23:02.000Z</time>
      </trkpt>
      <trkpt lat="43.29832" lon="2.37229">
        <ele>250.4</ele>
        <time>2019-06-02T07:23:03.000Z</time>
      </trkpt>
      <trkpt lat="43.2983" lon="2.37228">
        <ele>250.4</ele>
        <time>2019-06-02T07:23:04.000Z</time>
      </trkpt>
      <trkpt lat="43.29828" lon="2.37227">
        <ele>250.3</ele>
        <time>2019-06-02T07:23:05.000Z</time>
      </trkpt>
      <trkpt lat="43.29826" lon="2.37226">
        <ele>250.3</ele>
        <time>2019-06-02T07:23:06.000Z</time>
      </trkpt>
      <trkpt lat="43.29824" lon="2.37225">
        <ele>250.2</ele>
        <time>2019-06-02T07:23:07.000Z</time>
      </trkpt>
      <trkpt lat="43.29822" lon="2.37223">
        <ele>250.2</ele>
        <time>2019-06-02T07:23:08.000Z</time>
      </trkpt>
      <trkpt lat="43.2982" lon="2.37222">
        <ele>250.1</ele>
        <time>2019-06-02T07:23:09.000Z</time>
      </trkpt>
      <trkpt lat="43.29818" lon="2.37219">
        <ele>250.1</ele>
        <time>2019-06-02T07:23:10.000Z</time>
      </trkpt>
      <trkpt lat="43.29816" lon="2.37217">
        <ele>250</ele>
        <time>2019-06-02T07:23:11.000Z</time>
      </trkpt>
      <trkpt lat="43.29814" lon="2.37214">
        <ele>250</ele>
        <time>2019-06-02T07:23:12.000Z</time>
      </trkpt>
      <trkpt lat="43.29813" lon="2.37211">
        <ele>250</ele>
        <time>2019-06-02T07:23:13.000Z</time>
      </trkpt>
      <trkpt lat="43.29812" lon="2.37208">
        <ele>250</ele>
        <time>2019-06-02T07:23:14.000Z</time>
      </trkpt>
      <trkpt lat="43.29812" lon="2.37204">
        <ele>250</ele>
        <time>2019-06-02T07:23:15.000Z</time>
      </trkpt>
      <trkpt lat="43.29813" lon="2.37201">
        <ele>250.1</ele>
        <time>2019-06-02T07:23:16.000Z</time>
      </trkpt>
      <trkpt lat="43.29814" lon="2.37199">
        <ele>250.2</ele>
        <time>2019-06-02T07:23:17.000Z</time>
      </trkpt>
      <trkpt lat="43.29815" lon="2.37197">
        <ele>250.3</ele>
        <time>2019-06-02T07:23:18.000Z</time>
      </trkpt>
      <trkpt lat="43.29816" lon="2.37196">
        <ele>250.4</ele>
        <time>2019-06-02T07:23:19.000Z</time>
      </trkpt>
      <trkpt lat="43.29816" lon="2.37195">
        <ele>250.4</ele>
        <time>2019-06-02T07:23:20.000Z</time>
      </trkpt>
      <trkpt lat="43.29817" lon="2.37194">
        <ele>250.5</ele>
        <time>2019-06-02T07:23:21.000Z</time>
      </trkpt>
      <trkpt lat="43.29817" lon="2.37193">
        <ele>250.5</ele>
        <time>2019-06-02T07:23:22.000Z</time>
      </trkpt>
      <trkpt lat="43.29818" lon="2.37191">
        <ele>250.6</ele>
        <time>2019-06-02T07:23:23.000Z</time>
      </trkpt>
      <trkpt lat="43.29818" lon="2.3719">
        <ele>250.6</ele>
        <time>2019-06-02T07:23:24.000Z</time>
      </trkpt>
      <trkpt lat="43.29818" lon="2.37189">
        <ele>250.6</ele>
        <time>2019-06-02T07:23:25.000Z</time>
      </trkpt>
      <trkpt lat="43.29818" lon="2.37189">
        <ele>250.6</ele>
        <time>2019-06-02T07:23:26.000Z</time>
      </trkpt>
      <trkpt lat="43.29818" lon="2.37189">
        <ele>250.6</ele>
        <time>2019-06-02T07:23:27.000Z</time>
      </trkpt>
      <trkpt lat="43.29818" lon="2.37189">
        <ele>250.6</ele>
        <time>2019-06-02T07:23:28.000Z</time>
      </trkpt>
      <trkpt lat="43.29818" lon="2.37188">
        <ele>250.6</ele>
        <time>2019-06-02T07:23:29.000Z</time>
      </trkpt>
      <trkpt lat="43.29819" lon="2.37186">
        <ele>250.7</ele>
        <time>2019-06-02T07:23:30.000Z</time>
      </trkpt>
      <trkpt lat="43.2982" lon="2.37184">
        <ele>250.8</ele>
        <time>2019-06-02T07:23:31.000Z</time>
      </trkpt>
      <trkpt lat="43.2982" lon="2.37183">
        <ele>250.9</ele>
        <time>2019-06-02T07:23:32.000Z</time>
      </trkpt>
      <trkpt lat="43.29821" lon="2.3718">
        <ele>251</ele>
        <time>2019-06-02T07:23:33.000Z</time>
      </trkpt>
      <trkpt lat="43.29821" lon="2.37178">
        <ele>251</ele>
        <time>2019-06-02T07:23:34.000Z</time>
      </trkpt>
      <trkpt lat="43.29821" lon="2.37175">
        <ele>251.1</ele>
        <time>2019-06-02T07:23:35.000Z</time>
      </trkpt>
      <trkpt lat="43.29821" lon="2.37172">
        <ele>251.1</ele>
        <time>2019-06-02T07:23:36.000Z</time>
      </trkpt>
      <trkpt lat="43.2982" lon="2.37169">
        <ele>251.2</ele>
        <time>2019-06-02T07:23:37.000Z</time>
      </trkpt>
      <trkpt lat="43.2982" lon="2.37166">
        <ele>251.2</ele>
        <time>2019-06-02T07:23:38.000Z</time>
      </trkpt>
      <trkpt lat="43.2982" lon="2.37162">
        <ele>251.2</ele>
        <time>2019-06-02T07:23:39.000Z</time>
      </trkpt>
      <trkpt lat="43.2982" lon="2.37159">
        <ele>251.2</ele>
        <time>2019-06-02T07:23:40.000Z</time>
      </trkpt>
      <trkpt lat="43.2982" lon="2.37157">
        <ele>251.2</ele>
        <time>2019-06-02T07:23:41.000Z</time>
      </trkpt>
      <trkpt lat="43.2982" lon="2.37154">
        <ele>251.2</ele>
        <time>2019-06-02T07:23:42.000Z</time>
      </trkpt>
      <trkpt lat="43.2982" lon="2.37151">
        <ele>251.3</ele>
        <time>2019-06-02T07:23:43.000Z</time>
      </trkpt>
      <trkpt lat="43.2982" lon="2.37148">
        <ele>251.3</ele>
        <time>2019-06-02T07:23:44.000Z</time>
      </trkpt>
      <trkpt lat="43.2982" lon="2.37146">
        <ele>251.3</ele>
        <time>2019-06-02T07:23:45.000Z</time>
      </trkpt>
      <trkpt lat="43.29821" lon="2.37143">
        <ele>251.3</ele>
        <time>2019-06-02T07:23:46.000Z</time>
      </trkpt>
      <trkpt lat="43.29821" lon="2.37141">
        <ele>251.3</ele>
        <time>2019-06-02T07:23:47.000Z</time>
      </trkpt>
      <trkpt lat="43.29821" lon="2.37138">
        <ele>251.4</ele>
        <time>2019-06-02T07:23:48.000Z</time>
      </trkpt>
      <trkpt lat="43.29821" lon="2.37136">
        <ele>251.4</ele>
        <time>2019-06-02T07:23:49.000Z</time>
      </trkpt>
      <trkpt lat="43.29822" lon="2.37133">
        <ele>251.4</ele>
        <time>2019-06-02T07:23:50.000Z</time>
      </trkpt>
      <trkpt lat="43.29822" lon="2.37131">
        <ele>251.4</ele>
        <time>2019-06-02T07:23:51.000Z</time>
      </trkpt>
      <trkpt lat="43.29822" lon="2.37129">
        <ele>251.4</ele>
        <time>2019-06-02T07:23:52.000Z</time>
      </trkpt>
      <trkpt lat="43.29823" lon="2.37126">
        <ele>251.5</ele>
        <time>2019-06-02T07:23:53.000Z</time>
      </trkpt>
      <trkpt lat="43.29823" lon="2.37124">
        <ele>251.5</ele>
        <time>2019-06-02T07:23:54.000Z</time>
      </trkpt>
      <trkpt lat="43.29824" lon="2.37121">
        <ele>251.5</ele>
        <time>2019-06-02T07:23:55.000Z</time>
      </trkpt>
      <trkpt lat="43.29824" lon="2.37119">
        <ele>251.6</ele>
        <time>2019-06-02T07:23:56.000Z</time>
      </trkpt>
      <trkpt lat="43.29825" lon="2.37116">
        <ele>251.6</ele>
        <time>2019-06-02T07:23:57.000Z</time>
      </trkpt>
      <trkpt lat="43.29826" lon="2.37114">
        <ele>251.7</ele>
        <time>2019-06-02T07:23:58.000Z</time>
      </trkpt>
      <trkpt lat="43.29827" lon="2.37111">
        <ele>251.7</ele>
        <time>2019-06-02T07:23:59.000Z</time>
      </trkpt>
      <trkpt lat="43.29828" lon="2.37109">
        <ele>251.8</ele>
        <time>2019-06-02T07:24:00.000Z</time>
      </trkpt>
      <trkpt lat="43.29829" lon="2.37106">
        <ele>251.8</ele>
        <time>2019-06-02T07:24:01.000Z</time>
      </trkpt>
      <trkpt lat="43.2983" lon="2.37104">
        <ele>251.9</ele>
        <time>2019-06-02T07:24:02.000Z</time>
      </trkpt>
      <trkpt lat="43.29831" lon="2.37101">
        <ele>251.9</ele>
        <time>2019-06-02T07:24:03.000Z</time>
      </trkpt>
      <trkpt lat="43.29832" lon="2.37099">
        <ele>252</ele>
        <time>2019-06-02T07:24:04.000Z</time>
      </trkpt>
      <trkpt lat="43.29833" lon="2.37096">
        <ele>252</ele>
        <time>2019-06-02T07:24:05.000Z</time>
      </trkpt>
      <trkpt lat="43.29835" lon="2.37093">
        <ele>252</ele>
        <time>2019-06-02T07:24:06.000Z</time>
      </trkpt>
      <trkpt lat="43.29836" lon="2.37091">
        <ele>251.9</ele>
        <time>2019-06-02T07:24:07.000Z</time>
      </trkpt>
      <trkpt lat="43.29837" lon="2.37088">
        <ele>251.9</ele>
        <time>2019-06-02T07:24:08.000Z</time>
      </trkpt>
      <trkpt lat="43.29839" lon="2.37086">
        <ele>251.9</ele>
        <time>2019-06-02T07:24:09.000Z</time>
      </trkpt>
      <trkpt lat="43.2984" lon="2.37083">
        <ele>251.8</ele>
        <time>2019-06-02T07:24:10.000Z</time>
      </trkpt>
      <trkpt lat="43.29841" lon="2.37081">
        <ele>251.9</ele>
        <time>2019-06-02T07:24:11.000Z</time>
      </trkpt>
      <trkpt lat="43.29843" lon="2.37078">
        <ele>251.9</ele>
        <time>2019-06-02T07:24:12.000Z</time>
      </trkpt>
      <trkpt lat="43.29844" lon="2.37076">
        <ele>251.9</ele>
        <time>2019-06-02T07:24:13.000Z</time>
      </trkpt>
      <trkpt lat="43.29845" lon="2.37073">
        <ele>251.9</ele>
        <time>2019-06-02T07:24:14.000Z</time>
      </trkpt>
      <trkpt lat="43.29847" lon="2.37071">
        <ele>251.9</ele>
        <time>2019-06-02T07:24:15.000Z</time>
      </trkpt>
      <trkpt lat="43.29848" lon="2.37069">
        <ele>251.9</ele>
        <time>2019-06-02T07:24:16.000Z</time>
      </trkpt>
      <trkpt lat="43.2985" lon="2.37066">
        <ele>252</ele>
        <time>2019-06-02T07:24:17.000Z</time>
      </trkpt>
      <trkpt lat="43.29851" lon="2.37064">
        <ele>252</ele>
        <time>2019-06-02T07:24:18.000Z</time>
      </trkpt>
      <trkpt lat="43.29852" lon="2.37061">
        <ele>252</ele>
        <time>2019-06-02T07:24:19.000Z</time>
      </trkpt>
      <trkpt lat="43.29854" lon="2.37059">
        <ele>252.1</ele>
        <time>2019-06-02T07:24:20.000Z</time>
      </trkpt>
      <trkpt lat="43.29855" lon="2.37057">
        <ele>252.1</ele>
        <time>2019-06-02T07:24:21.000Z</time>
      </trkpt>
      <trkpt lat="43.29856" lon="2.37054">
        <ele>252.2</ele>
        <time>2019-06-02T07:24:22.000Z</time>
      </trkpt>
      <trkpt lat="43.29858" lon="2.37052">
        <ele>252.2</ele>
        <time>2019-06-02T07:24:23.000Z</time>
      </trkpt>
      <trkpt lat="43.29859" lon="2.3705">
        <ele>252.3</ele>
        <time>2019-06-02T07:24:24.000Z</time>
      </trkpt>
      <trkpt lat="43.29861" lon="2.37047">
        <ele>252.3</ele>
        <time>2019-06-02T07:24:25.000Z</time>
      </trkpt>
      <trkpt lat="43.29862" lon="2.37045">
        <ele>252.4</ele>
        <time>2019-06-02T07:24:26.000Z</time>
      </trkpt>
      <trkpt lat="43.29863" lon="2.37043">
        <ele>252.5</ele>
        <time>2019-06-02T07:24:27.000Z</time>
      </trkpt>
      <trkpt lat="43.29865" lon="2.3704">
        <ele>252.5</ele>
        <time>2019-06-02T07:24:28.000Z</time>
      </trkpt>
      <trkpt lat="43.29866" lon="2.37038">
        <ele>252.6</ele>
        <time>2019-06-02T07:24:29.000Z</time>
      </trkpt>
      <trkpt lat="43.29867" lon="2.37036">
        <ele>252.7</ele>
        <time>2019-06-02T07:24:30.000Z</time>
      </trkpt>
      <trkpt lat="43.29869" lon="2.37033">
        <ele>252.8</ele>
        <time>2019-06-02T07:24:31.000Z</time>
      </trkpt>
      <trkpt lat="43.2987" lon="2.37031">
        <ele>252.9</ele>
        <time>2019-06-02T07:24:32.000Z</time>
      </trkpt>
      <trkpt lat="43.29872" lon="2.37028">
        <ele>253</ele>
        <time>2019-06-02T07:24:33.000Z</time>
      </trkpt>
      <trkpt lat="43.29873" lon="2.37026">
        <ele>253.1</ele>
        <time>2019-06-02T07:24:34.000Z</time>
      </trkpt>
      <trkpt lat="43.29874" lon="2.37023">
        <ele>253.2</ele>
        <time>2019-06-02T07:24:35.000Z</time>
      </trkpt>
      <trkpt lat="43.29876" lon="2.37021">
        <ele>253.3</ele>
        <time>2019-06-02T07:24:36.000Z</time>
      </trkpt>
      <trkpt lat="43.29877" lon="2.37018">
        <ele>253.4</ele>
        <time>2019-06-02T07:24:37.000Z</time>
      </trkpt>
      <trkpt lat="43.29878" lon="2.37016">
        <ele>253.5</ele>
        <time>2019-06-02T07:24:38.000Z</time>
      </trkpt>
      <trkpt lat="43.2988" lon="2.37013">
        <ele>253.6</ele>
        <time>2019-06-02T07:24:39.000Z</time>
      </trkpt>
      <trkpt lat="43.29881" lon="2.3701">
        <ele>253.7</ele>
        <time>2019-06-02T07:24:40.000Z</time>
      </trkpt>
      <trkpt lat="43.29882" lon="2.37008">
        <ele>253.9</ele>
        <time>2019-06-02T07:24:41.000Z</time>
      </trkpt>
      <trkpt lat="43.29883" lon="2.37005">
        <ele>254</ele>
        <time>2019-06-02T07:24:42.000Z</time>
      </trkpt>
      <trkpt lat="43.29884" lon="2.37002">
        <ele>254.1</ele>
        <time>2019-06-02T07:24:43.000Z</time>
      </trkpt>
      <trkpt lat="43.29885" lon="2.36999">
        <ele>254.3</ele>
        <time>2019-06-02T07:24:44.000Z</time>
      </trkpt>
      <trkpt lat="43.29886" lon="2.36996">
        <ele>254.4</ele>
        <time>2019-06-02T07:24:45.000Z</time>
      </trkpt>
      <trkpt lat="43.29886" lon="2.36992">
        <ele>254.4</ele>
        <time>2019-06-02T07:24:46.000Z</time>
      </trkpt>
      <trkpt lat="43.29887" lon="2.36989">
        <ele>254.5</ele>
        <time>2019-06-02T07:24:47.000Z</time>
      </trkpt>
      <trkpt lat="43.29888" lon="2.36986">
        <ele>254.6</ele>
        <time>2019-06-02T07:24:48.000Z</time>
      </trkpt>
      <trkpt lat="43.29888" lon="2.36983">
        <ele>254.7</ele>
        <time>2019-06-02T07:24:49.000Z</time>
      </trkpt>
      <trkpt lat="43.29889" lon="2.36981">
        <ele>254.8</ele>
        <time>2019-06-02T07:24:50.000Z</time>
      </trkpt>
      <trkpt lat="43.29891" lon="2.36979">
        <ele>254.9</ele>
        <time>2019-06-02T07:24:51.000Z</time>
      </trkpt>
      <trkpt lat="43.29892" lon="2.36978">
        <ele>255</ele>
        <time>2019-06-02T07:24:52.000Z</time>
      </trkpt>
      <trkpt lat="43.29895" lon="2.36977">
        <ele>255.1</ele>
        <time>2019-06-02T07:24:53.000Z</time>
      </trkpt>
      <trkpt lat="43.29897" lon="2.36976">
        <ele>255.2</ele>
        <time>2019-06-02T07:24:54.000Z</time>
      </trkpt>
      <trkpt lat="43.29899" lon="2.36976">
        <ele>255.3</ele>
        <time>2019-06-02T07:24:55.000Z</time>
      </trkpt>
      <trkpt lat="43.29901" lon="2.36975">
        <ele>255.4</ele>
        <time>2019-06-02T07:24:56.000Z</time>
      </trkpt>
      <trkpt lat="43.29903" lon="2.36975">
        <ele>255.4</ele>
        <time>2019-06-02T07:24:57.000Z</time>
      </trkpt>
      <trkpt lat="43.29905" lon="2.36974">
        <ele>255.5</ele>
        <time>2019-06-02T07:24:58.000Z</time>
      </trkpt>
      <trkpt lat="43.29907" lon="2.36974">
        <ele>255.6</ele>
        <time>2019-06-02T07:24:59.000Z</time>
      </trkpt>
      <trkpt lat="43.29909" lon="2.36973">
        <ele>255.7</ele>
        <time>2019-06-02T07:25:00.000Z</time>
      </trkpt>
      <trkpt lat="43.29912" lon="2.36973">
        <ele>255.8</ele>
        <time>2019-06-02T07:25:01.000Z</time>
      </trkpt>
      <trkpt lat="43.29914" lon="2.36972">
        <ele>255.9</ele>
        <time>2019-06-02T07:25:02.000Z</time>
      </trkpt>
      <trkpt lat="43.29916" lon="2.36972">
        <ele>256</ele>
        <time>2019-06-02T07:25:03.000Z</time>
      </trkpt>
      <trkpt lat="43.29919" lon="2.36972">
        <ele>256</ele>
        <time>2019-06-02T07:25:04.000Z</time>
      </trkpt>
      <trkpt lat="43.29921" lon="2.36972">
        <ele>255.9</ele>
        <time>2019-06-02T07:25:05.000Z</time>
      </trkpt>
      <trkpt lat="43.29923" lon="2.36972">
        <ele>255.8</ele>
        <time>2019-06-02T07:25:06.000Z</time>
      </trkpt>
      <trkpt lat="43.29926" lon="2.36972">
        <ele>255.8</ele>
        <time>2019-06-02T07:25:07.000Z</time>
      </trkpt>
      <trkpt lat="43.29928" lon="2.36972">
        <ele>255.7</ele>
        <time>2019-06-02T07:25:08.000Z</time>
      </trkpt>
      <trkpt lat="43.2993" lon="2.36973">
        <ele>255.7</ele>
        <time>2019-06-02T07:25:09.000Z</time>
      </trkpt>
      <trkpt lat="43.29932" lon="2.36973">
        <ele>255.6</ele>
        <time>2019-06-02T07:25:10.000Z</time>
      </trkpt>
      <trkpt lat="43.29934" lon="2.36973">
        <ele>255.5</ele>
        <time>2019-06-02T07:25:11.000Z</time>
      </trkpt>
      <trkpt lat="43.29936" lon="2.36974">
        <ele>255.5</ele>
        <time>2019-06-02T07:25:12.000Z</time>
      </trkpt>
      <trkpt lat="43.29938" lon="2.36974">
        <ele>255.4</ele>
        <time>2019-06-02T07:25:13.000Z</time>
      </trkpt>
      <trkpt lat="43.2994" lon="2.36975">
        <ele>255.3</ele>
        <time>2019-06-02T07:25:14.000Z</time>
      </trkpt>
      <trkpt lat="43.29942" lon="2.36975">
        <ele>255.3</ele>
        <time>2019-06-02T07:25:15.000Z</time>
      </trkpt>
      <trkpt lat="43.29944" lon="2.36976">
        <ele>255.2</ele>
        <time>2019-06-02T07:25:16.000Z</time>
      </trkpt>
      <trkpt lat="43.29946" lon="2.36976">
        <ele>255.1</ele>
        <time>2019-06-02T07:25:17.000Z</time>
      </trkpt>
      <trkpt lat="43.29949" lon="2.36977">
        <ele>255.1</ele>
        <time>2019-06-02T07:25:18.000Z</time>
      </trkpt>
      <trkpt lat="43.29951" lon="2.36977">
        <ele>255</ele>
        <time>2019-06-02T07:25:19.000Z</time>
      </trkpt>
      <trkpt lat="43.29953" lon="2.36977">
        <ele>254.9</ele>
        <time>2019-06-02T07:25:20.000Z</time>
      </trkpt>
      <trkpt lat="43.29956" lon="2.36977">
        <ele>254.9</ele>
        <time>2019-06-02T07:25:21.000Z</time>
      </trkpt>
      <trkpt lat="43.29958" lon="2.36977">
        <ele>254.8</ele>
        <time>2019-06-02T07:25:22.000Z</time>
      </trkpt>
      <trkpt lat="43.29961" lon="2.36977">
        <ele>254.8</ele>
        <time>2019-06-02T07:25:23.000Z</time>
      </trkpt>
      <trkpt lat="43.29964" lon="2.36977">
        <ele>254.7</ele>
        <time>2019-06-02T07:25:24.000Z</time>
      </trkpt>
      <trkpt lat="43.29966" lon="2.36976">
        <ele>254.7</ele>
        <time>2019-06-02T07:25:25.000Z</time>
      </trkpt>
      <trkpt lat="43.29969" lon="2.36976">
        <ele>254.6</ele>
        <time>2019-06-02T07:25:26.000Z</time>
      </trkpt>
      <trkpt lat="43.29971" lon="2.36975">
        <ele>254.6</ele>
        <time>2019-06-02T07:25:27.000Z</time>
      </trkpt>
      <trkpt lat="43.29974" lon="2.36974">
        <ele>254.6</ele>
        <time>2019-06-02T07:25:28.000Z</time>
      </trkpt>
      <trkpt lat="43.29976" lon="2.36972">
        <ele>254.6</ele>
        <time>2019-06-02T07:25:29.000Z</time>
      </trkpt>
      <trkpt lat="43.29979" lon="2.36971">
        <ele>254.6</ele>
        <time>2019-06-02T07:25:30.000Z</time>
      </trkpt>
      <trkpt lat="43.29981" lon="2.36969">
        <ele>254.6</ele>
        <time>2019-06-02T07:25:31.000Z</time>
      </trkpt>
      <trkpt lat="43.29984" lon="2.36967">
        <ele>254.6</ele>
        <time>2019-06-02T07:25:32.000Z</time>
      </trkpt>
      <trkpt lat="43.29986" lon="2.36965">
        <ele>254.6</ele>
        <time>2019-06-02T07:25:33.000Z</time>
      </trkpt>
      <trkpt lat="43.29989" lon="2.36963">
        <ele>254.6</ele>
        <time>2019-06-02T07:25:34.000Z</time>
      </trkpt>
      <trkpt lat="43.29991" lon="2.36962">
        <ele>254.6</ele>
        <time>2019-06-02T07:25:35.000Z</time>
      </trkpt>
      <trkpt lat="43.29994" lon="2.3696">
        <ele>254.6</ele>
        <time>2019-06-02T07:25:36.000Z</time>
      </trkpt>
      <trkpt lat="43.29997" lon="2.36959">
        <ele>254.6</ele>
        <time>2019-06-02T07:25:37.000Z</time>
      </trkpt>
      <trkpt lat="43.3" lon="2.36958">
        <ele>254.5</ele>
        <time>2019-06-02T07:25:38.000Z</time>
      </trkpt>
      <trkpt lat="43.30003" lon="2.36957">
        <ele>254.8</ele>
        <time>2019-06-02T07:25:39.000Z</time>
      </trkpt>
      <trkpt lat="43.30006" lon="2.36957">
        <ele>255.1</ele>
        <time>2019-06-02T07:25:40.000Z</time>
      </trkpt>
      <trkpt lat="43.30008" lon="2.36957">
        <ele>255.3</ele>
        <time>2019-06-02T07:25:41.000Z</time>
      </trkpt>
      <trkpt lat="43.30011" lon="2.36958">
        <ele>255.5</ele>
        <time>2019-06-02T07:25:42.000Z</time>
      </trkpt>
      <trkpt lat="43.30013" lon="2.36959">
        <ele>255.7</ele>
        <time>2019-06-02T07:25:43.000Z</time>
      </trkpt>
      <trkpt lat="43.30015" lon="2.36961">
        <ele>255.8</ele>
        <time>2019-06-02T07:25:44.000Z</time>
      </trkpt>
      <trkpt lat="43.30017" lon="2.36963">
        <ele>255.8</ele>
        <time>2019-06-02T07:25:45.000Z</time>
      </trkpt>
      <trkpt lat="43.30018" lon="2.36966">
        <ele>255.9</ele>
        <time>2019-06-02T07:25:46.000Z</time>
      </trkpt>
      <trkpt lat="43.3002" lon="2.36969">
        <ele>255.9</ele>
        <time>2019-06-02T07:25:47.000Z</time>
      </trkpt>
      <trkpt lat="43.3002" lon="2.36973">
        <ele>255.9</ele>
        <time>2019-06-02T07:25:48.000Z</time>
      </trkpt>
      <trkpt lat="43.30021" lon="2.36976">
        <ele>255.8</ele>
        <time>2019-06-02T07:25:49.000Z</time>
      </trkpt>
      <trkpt lat="43.30021" lon="2.3698">
        <ele>255.7</ele>
        <time>2019-06-02T07:25:50.000Z</time>
      </trkpt>
      <trkpt lat="43.30022" lon="2.36983">
        <ele>255.6</ele>
        <time>2019-06-02T07:25:51.000Z</time>
      </trkpt>
      <trkpt lat="43.30021" lon="2.36987">
        <ele>255.5</ele>
        <time>2019-06-02T07:25:52.000Z</time>
      </trkpt>
      <trkpt lat="43.30021" lon="2.36991">
        <ele>255.3</ele>
        <time>2019-06-02T07:25:53.000Z</time>
      </trkpt>
      <trkpt lat="43.30021" lon="2.36995">
        <ele>255.2</ele>
        <time>2019-06-02T07:25:54.000Z</time>
      </trkpt>
      <trkpt lat="43.3002" lon="2.36998">
        <ele>255</ele>
        <time>2019-06-02T07:25:55.000Z</time>
      </trkpt>
      <trkpt lat="43.3002" lon="2.37002">
        <ele>254.8</ele>
        <time>2019-06-02T07:25:56.000Z</time>
      </trkpt>
      <trkpt lat="43.30019" lon="2.37006">
        <ele>254.7</ele>
        <time>2019-06-02T07:25:57.000Z</time>
      </trkpt>
      <trkpt lat="43.30019" lon="2.37009">
        <ele>254.6</ele>
        <time>2019-06-02T07:25:58.000Z</time>
      </trkpt>
      <trkpt lat="43.30018" lon="2.37012">
        <ele>254.4</ele>
        <time>2019-06-02T07:25:59.000Z</time>
      </trkpt>
      <trkpt lat="43.30018" lon="2.37015">
        <ele>254.3</ele>
        <time>2019-06-02T07:26:00.000Z</time>
      </trkpt>
      <trkpt lat="43.30017" lon="2.37018">
        <ele>254.2</ele>
        <time>2019-06-02T07:26:01.000Z</time>
      </trkpt>
      <trkpt lat="43.30017" lon="2.37022">
        <ele>254.1</ele>
        <time>2019-06-02T07:26:02.000Z</time>
      </trkpt>
      <trkpt lat="43.30017" lon="2.37025">
        <ele>254</ele>
        <time>2019-06-02T07:26:03.000Z</time>
      </trkpt>
      <trkpt lat="43.30017" lon="2.37028">
        <ele>253.9</ele>
        <time>2019-06-02T07:26:04.000Z</time>
      </trkpt>
      <trkpt lat="43.30017" lon="2.37031">
        <ele>253.9</ele>
        <time>2019-06-02T07:26:05.000Z</time>
      </trkpt>
      <trkpt lat="43.30017" lon="2.37034">
        <ele>253.8</ele>
        <time>2019-06-02T07:26:06.000Z</time>
      </trkpt>
      <trkpt lat="43.30017" lon="2.37037">
        <ele>253.8</ele>
        <time>2019-06-02T07:26:07.000Z</time>
      </trkpt>
      <trkpt lat="43.30018" lon="2.3704">
        <ele>253.8</ele>
        <time>2019-06-02T07:26:08.000Z</time>
      </trkpt>
      <trkpt lat="43.30018" lon="2.37043">
        <ele>253.7</ele>
        <time>2019-06-02T07:26:09.000Z</time>
      </trkpt>
      <trkpt lat="43.30019" lon="2.37046">
        <ele>253.7</ele>
        <time>2019-06-02T07:26:10.000Z</time>
      </trkpt>
      <trkpt lat="43.3002" lon="2.37049">
        <ele>253.7</ele>
        <time>2019-06-02T07:26:11.000Z</time>
      </trkpt>
      <trkpt lat="43.3002" lon="2.37053">
        <ele>253.7</ele>
        <time>2019-06-02T07:26:12.000Z</time>
      </trkpt>
      <trkpt lat="43.30021" lon="2.37056">
        <ele>253.7</ele>
        <time>2019-06-02T07:26:13.000Z</time>
      </trkpt>
      <trkpt lat="43.30022" lon="2.37059">
        <ele>253.7</ele>
        <time>2019-06-02T07:26:14.000Z</time>
      </trkpt>
      <trkpt lat="43.30023" lon="2.37062">
        <ele>253.7</ele>
        <time>2019-06-02T07:26:15.000Z</time>
      </trkpt>
      <trkpt lat="43.30024" lon="2.37065">
        <ele>253.7</ele>
        <time>2019-06-02T07:26:16.000Z</time>
      </trkpt>
      <trkpt lat="43.30025" lon="2.37069">
        <ele>253.7</ele>
        <time>2019-06-02T07:26:17.000Z</time>
      </trkpt>
      <trkpt lat="43.30026" lon="2.37072">
        <ele>253.8</ele>
        <time>2019-06-02T07:26:18.000Z</time>
      </trkpt>
      <trkpt lat="43.30027" lon="2.37075">
        <ele>253.8</ele>
        <time>2019-06-02T07:26:19.000Z</time>
      </trkpt>
      <trkpt lat="43.30028" lon="2.37078">
        <ele>253.8</ele>
        <time>2019-06-02T07:26:20.000Z</time>
      </trkpt>
      <trkpt lat="43.3003" lon="2.37081">
        <ele>253.9</ele>
        <time>2019-06-02T07:26:21.000Z</time>
      </trkpt>
      <trkpt lat="43.30031" lon="2.37083">
        <ele>254</ele>
        <time>2019-06-02T07:26:22.000Z</time>
      </trkpt>
      <trkpt lat="43.30033" lon="2.37086">
        <ele>253.9</ele>
        <time>2019-06-02T07:26:23.000Z</time>
      </trkpt>
      <trkpt lat="43.30035" lon="2.37089">
        <ele>253.9</ele>
        <time>2019-06-02T07:26:24.000Z</time>
      </trkpt>
      <trkpt lat="43.30036" lon="2.37091">
        <ele>253.8</ele>
        <time>2019-06-02T07:26:25.000Z</time>
      </trkpt>
      <trkpt lat="43.30038" lon="2.37094">
        <ele>253.8</ele>
        <time>2019-06-02T07:26:26.000Z</time>
      </trkpt>
      <trkpt lat="43.3004" lon="2.37096">
        <ele>253.8</ele>
        <time>2019-06-02T07:26:27.000Z</time>
      </trkpt>
      <trkpt lat="43.30042" lon="2.37098">
        <ele>253.8</ele>
        <time>2019-06-02T07:26:28.000Z</time>
      </trkpt>
      <trkpt lat="43.30045" lon="2.371">
        <ele>253.9</ele>
        <time>2019-06-02T07:26:29.000Z</time>
      </trkpt>
      <trkpt lat="43.30047" lon="2.37102">
        <ele>253.9</ele>
        <time>2019-06-02T07:26:30.000Z</time>
      </trkpt>
      <trkpt lat="43.30049" lon="2.37104">
        <ele>253.9</ele>
        <time>2019-06-02T07:26:31.000Z</time>
      </trkpt>
      <trkpt lat="43.30051" lon="2.37107">
        <ele>253.9</ele>
        <time>2019-06-02T07:26:32.000Z</time>
      </trkpt>
      <trkpt lat="43.30052" lon="2.37109">
        <ele>253.9</ele>
        <time>2019-06-02T07:26:33.000Z</time>
      </trkpt>
      <trkpt lat="43.30054" lon="2.37111">
        <ele>253.9</ele>
        <time>2019-06-02T07:26:34.000Z</time>
      </trkpt>
      <trkpt lat="43.30056" lon="2.37114">
        <ele>253.9</ele>
        <time>2019-06-02T07:26:35.000Z</time>
      </trkpt>
      <trkpt lat="43.30057" lon="2.37117">
        <ele>253.8</ele>
        <time>2019-06-02T07:26:36.000Z</time>
      </trkpt>
      <trkpt lat="43.30058" lon="2.37119">
        <ele>253.7</ele>
        <time>2019-06-02T07:26:37.000Z</time>
      </trkpt>
      <trkpt lat="43.30059" lon="2.37122">
        <ele>253.6</ele>
        <time>2019-06-02T07:26:38.000Z</time>
      </trkpt>
      <trkpt lat="43.30061" lon="2.37125">
        <ele>253.5</ele>
        <time>2019-06-02T07:26:39.000Z</time>
      </trkpt>
      <trkpt lat="43.30062" lon="2.37128">
        <ele>253.4</ele>
        <time>2019-06-02T07:26:40.000Z</time>
      </trkpt>
      <trkpt lat="43.30063" lon="2.37131">
        <ele>253.4</ele>
        <time>2019-06-02T07:26:41.000Z</time>
      </trkpt>
      <trkpt lat="43.30064" lon="2.37133">
        <ele>253.3</ele>
        <time>2019-06-02T07:26:42.000Z</time>
      </trkpt>
      <trkpt lat="43.30065" lon="2.37136">
        <ele>253.2</ele>
        <time>2019-06-02T07:26:43.000Z</time>
      </trkpt>
      <trkpt lat="43.30067" lon="2.37139">
        <ele>253.1</ele>
        <time>2019-06-02T07:26:44.000Z</time>
      </trkpt>
      <trkpt lat="43.30068" lon="2.37142">
        <ele>253.1</ele>
        <time>2019-06-02T07:26:45.000Z</time>
      </trkpt>
      <trkpt lat="43.3007" lon="2.37144">
        <ele>253.1</ele>
        <time>2019-06-02T07:26:46.000Z</time>
      </trkpt>
      <trkpt lat="43.30072" lon="2.37147">
        <ele>253.1</ele>
        <time>2019-06-02T07:26:47.000Z</time>
      </trkpt>
      <trkpt lat="43.30074" lon="2.37149">
        <ele>253.2</ele>
        <time>2019-06-02T07:26:48.000Z</time>
      </trkpt>
      <trkpt lat="43.30076" lon="2.37151">
        <ele>253.2</ele>
        <time>2019-06-02T07:26:49.000Z</time>
      </trkpt>
      <trkpt lat="43.30078" lon="2.37153">
        <ele>253.3</ele>
        <time>2019-06-02T07:26:50.000Z</time>
      </trkpt>
      <trkpt lat="43.3008" lon="2.37155">
        <ele>253.5</ele>
        <time>2019-06-02T07:26:51.000Z</time>
      </trkpt>
      <trkpt lat="43.30083" lon="2.37158">
        <ele>253.6</ele>
        <time>2019-06-02T07:26:52.000Z</time>
      </trkpt>
      <trkpt lat="43.30085" lon="2.37159">
        <ele>253.5</ele>
        <time>2019-06-02T07:26:53.000Z</time>
      </trkpt>
      <trkpt lat="43.30087" lon="2.37161">
        <ele>253.3</ele>
        <time>2019-06-02T07:26:54.000Z</time>
      </trkpt>
      <trkpt lat="43.30089" lon="2.37163">
        <ele>253.2</ele>
        <time>2019-06-02T07:26:55.000Z</time>
      </trkpt>
      <trkpt lat="43.30091" lon="2.37165">
        <ele>253</ele>
        <time>2019-06-02T07:26:56.000Z</time>
      </trkpt>
      <trkpt lat="43.30093" lon="2.37167">
        <ele>252.8</ele>
        <time>2019-06-02T07:26:57.000Z</time>
      </trkpt>
      <trkpt lat="43.30095" lon="2.37169">
        <ele>252.4</ele>
        <time>2019-06-02T07:26:58.000Z</time>
      </trkpt>
      <trkpt lat="43.30097" lon="2.37171">
        <ele>252</ele>
        <time>2019-06-02T07:26:59.000Z</time>
      </trkpt>
      <trkpt lat="43.301" lon="2.37173">
        <ele>251.7</ele>
        <time>2019-06-02T07:27:00.000Z</time>
      </trkpt>
      <trkpt lat="43.30102" lon="2.37175">
        <ele>251.3</ele>
        <time>2019-06-02T07:27:01.000Z</time>
      </trkpt>
      <trkpt lat="43.30105" lon="2.37177">
        <ele>250.9</ele>
        <time>2019-06-02T07:27:02.000Z</time>
      </trkpt>
      <trkpt lat="43.30107" lon="2.37178">
        <ele>250.6</ele>
        <time>2019-06-02T07:27:03.000Z</time>
      </trkpt>
      <trkpt lat="43.3011" lon="2.37181">
        <ele>250.2</ele>
        <time>2019-06-02T07:27:04.000Z</time>
      </trkpt>
      <trkpt lat="43.30112" lon="2.37183">
        <ele>249.7</ele>
        <time>2019-06-02T07:27:05.000Z</time>
      </trkpt>
      <trkpt lat="43.30114" lon="2.37186">
        <ele>249.2</ele>
        <time>2019-06-02T07:27:06.000Z</time>
      </trkpt>
      <trkpt lat="43.30116" lon="2.37189">
        <ele>248.6</ele>
        <time>2019-06-02T07:27:07.000Z</time>
      </trkpt>
      <trkpt lat="43.30118" lon="2.37193">
        <ele>248</ele>
        <time>2019-06-02T07:27:08.000Z</time>
      </trkpt>
      <trkpt lat="43.30119" lon="2.37196">
        <ele>247.4</ele>
        <time>2019-06-02T07:27:09.000Z</time>
      </trkpt>
      <trkpt lat="43.3012" lon="2.37199">
        <ele>246.9</ele>
        <time>2019-06-02T07:27:10.000Z</time>
      </trkpt>
      <trkpt lat="43.30122" lon="2.37202">
        <ele>246.4</ele>
        <time>2019-06-02T07:27:11.000Z</time>
      </trkpt>
      <trkpt lat="43.30124" lon="2.37205">
        <ele>245.9</ele>
        <time>2019-06-02T07:27:12.000Z</time>
      </trkpt>
      <trkpt lat="43.30126" lon="2.37208">
        <ele>245.4</ele>
        <time>2019-06-02T07:27:13.000Z</time>
      </trkpt>
      <trkpt lat="43.30128" lon="2.37211">
        <ele>244.9</ele>
        <time>2019-06-02T07:27:14.000Z</time>
      </trkpt>
      <trkpt lat="43.3013" lon="2.37214">
        <ele>244.4</ele>
        <time>2019-06-02T07:27:15.000Z</time>
      </trkpt>
      <trkpt lat="43.30133" lon="2.37217">
        <ele>243.9</ele>
        <time>2019-06-02T07:27:16.000Z</time>
      </trkpt>
      <trkpt lat="43.30135" lon="2.37219">
        <ele>243.5</ele>
        <time>2019-06-02T07:27:17.000Z</time>
      </trkpt>
      <trkpt lat="43.30138" lon="2.37222">
        <ele>243</ele>
        <time>2019-06-02T07:27:18.000Z</time>
      </trkpt>
      <trkpt lat="43.3014" lon="2.37225">
        <ele>242.6</ele>
        <time>2019-06-02T07:27:19.000Z</time>
      </trkpt>
      <trkpt lat="43.30142" lon="2.37228">
        <ele>242.1</ele>
        <time>2019-06-02T07:27:20.000Z</time>
      </trkpt>
      <trkpt lat="43.30144" lon="2.37231">
        <ele>241.5</ele>
        <time>2019-06-02T07:27:21.000Z</time>
      </trkpt>
      <trkpt lat="43.30145" lon="2.37235">
        <ele>241</ele>
        <time>2019-06-02T07:27:22.000Z</time>
      </trkpt>
      <trkpt lat="43.30146" lon="2.37239">
        <ele>240.4</ele>
        <time>2019-06-02T07:27:23.000Z</time>
      </trkpt>
      <trkpt lat="43.30147" lon="2.37243">
        <ele>239.8</ele>
        <time>2019-06-02T07:27:24.000Z</time>
      </trkpt>
      <trkpt lat="43.30147" lon="2.37246">
        <ele>239.1</ele>
        <time>2019-06-02T07:27:25.000Z</time>
      </trkpt>
      <trkpt lat="43.30147" lon="2.3725">
        <ele>238.5</ele>
        <time>2019-06-02T07:27:26.000Z</time>
      </trkpt>
      <trkpt lat="43.30147" lon="2.37254">
        <ele>237.6</ele>
        <time>2019-06-02T07:27:27.000Z</time>
      </trkpt>
      <trkpt lat="43.30147" lon="2.37257">
        <ele>236.9</ele>
        <time>2019-06-02T07:27:28.000Z</time>
      </trkpt>
      <trkpt lat="43.30147" lon="2.3726">
        <ele>236.2</ele>
        <time>2019-06-02T07:27:29.000Z</time>
      </trkpt>
      <trkpt lat="43.30147" lon="2.37262">
        <ele>235.7</ele>
        <time>2019-06-02T07:27:30.000Z</time>
      </trkpt>
      <trkpt lat="43.30148" lon="2.37264">
        <ele>235.3</ele>
        <time>2019-06-02T07:27:31.000Z</time>
      </trkpt>
      <trkpt lat="43.30149" lon="2.37265">
        <ele>235.1</ele>
        <time>2019-06-02T07:27:32.000Z</time>
      </trkpt>
      <trkpt lat="43.3015" lon="2.37265">
        <ele>234.9</ele>
        <time>2019-06-02T07:27:33.000Z</time>
      </trkpt>
      <trkpt lat="43.30152" lon="2.37266">
        <ele>234.9</ele>
        <time>2019-06-02T07:27:34.000Z</time>
      </trkpt>
      <trkpt lat="43.30153" lon="2.37265">
        <ele>235</ele>
        <time>2019-06-02T07:27:35.000Z</time>
      </trkpt>
      <trkpt lat="43.30155" lon="2.37265">
        <ele>235.2</ele>
        <time>2019-06-02T07:27:36.000Z</time>
      </trkpt>
      <trkpt lat="43.30156" lon="2.37264">
        <ele>235.4</ele>
        <time>2019-06-02T07:27:37.000Z</time>
      </trkpt>
      <trkpt lat="43.30158" lon="2.37263">
        <ele>235.6</ele>
        <time>2019-06-02T07:27:38.000Z</time>
      </trkpt>
      <trkpt lat="43.30159" lon="2.37262">
        <ele>235.9</ele>
        <time>2019-06-02T07:27:39.000Z</time>
      </trkpt>
      <trkpt lat="43.3016" lon="2.37261">
        <ele>236.2</ele>
        <time>2019-06-02T07:27:40.000Z</time>
      </trkpt>
      <trkpt lat="43.30161" lon="2.3726">
        <ele>236.5</ele>
        <time>2019-06-02T07:27:41.000Z</time>
      </trkpt>
      <trkpt lat="43.30163" lon="2.37259">
        <ele>236.9</ele>
        <time>2019-06-02T07:27:42.000Z</time>
      </trkpt>
      <trkpt lat="43.30164" lon="2.37257">
        <ele>237.2</ele>
        <time>2019-06-02T07:27:43.000Z</time>
      </trkpt>
      <trkpt lat="43.30165" lon="2.37256">
        <ele>237.5</ele>
        <time>2019-06-02T07:27:44.000Z</time>
      </trkpt>
      <trkpt lat="43.30166" lon="2.37255">
        <ele>237.8</ele>
        <time>2019-06-02T07:27:45.000Z</time>
      </trkpt>
      <trkpt lat="43.30166" lon="2.37254">
        <ele>238.1</ele>
        <time>2019-06-02T07:27:46.000Z</time>
      </trkpt>
      <trkpt lat="43.30167" lon="2.37253">
        <ele>238.2</ele>
        <time>2019-06-02T07:27:47.000Z</time>
      </trkpt>
      <trkpt lat="43.30168" lon="2.37252">
        <ele>238.2</ele>
        <time>2019-06-02T07:27:48.000Z</time>
      </trkpt>
      <trkpt lat="43.30169" lon="2.37251">
        <ele>238.2</ele>
        <time>2019-06-02T07:27:49.000Z</time>
      </trkpt>
      <trkpt lat="43.30169" lon="2.37251">
        <ele>238.2</ele>
        <time>2019-06-02T07:27:50.000Z</time>
      </trkpt>
      <trkpt lat="43.30169" lon="2.37251">
        <ele>238.2</ele>
        <time>2019-06-02T07:27:51.000Z</time>
      </trkpt>
      <trkpt lat="43.3017" lon="2.3725">
        <ele>238.1</ele>
        <time>2019-06-02T07:27:52.000Z</time>
      </trkpt>
      <trkpt lat="43.3017" lon="2.3725">
        <ele>238.1</ele>
        <time>2019-06-02T07:27:53.000Z</time>
      </trkpt>
      <trkpt lat="43.3017" lon="2.3725">
        <ele>238.1</ele>
        <time>2019-06-02T07:27:54.000Z</time>
      </trkpt>
      <trkpt lat="43.3017" lon="2.3725">
        <ele>238.2</ele>
        <time>2019-06-02T07:27:55.000Z</time>
      </trkpt>
      <trkpt lat="43.30171" lon="2.37249">
        <ele>238.1</ele>
        <time>2019-06-02T07:27:56.000Z</time>
      </trkpt>
      <trkpt lat="43.30172" lon="2.37247">
        <ele>237.9</ele>
        <time>2019-06-02T07:27:57.000Z</time>
      </trkpt>
      <trkpt lat="43.30174" lon="2.37245">
        <ele>237.7</ele>
        <time>2019-06-02T07:27:58.000Z</time>
      </trkpt>
      <trkpt lat="43.30176" lon="2.37244">
        <ele>237.4</ele>
        <time>2019-06-02T07:27:59.000Z</time>
      </trkpt>
      <trkpt lat="43.30177" lon="2.37243">
        <ele>237.2</ele>
        <time>2019-06-02T07:28:00.000Z</time>
      </trkpt>
      <trkpt lat="43.30179" lon="2.37241">
        <ele>236.9</ele>
        <time>2019-06-02T07:28:01.000Z</time>
      </trkpt>
      <trkpt lat="43.30181" lon="2.3724">
        <ele>236.6</ele>
        <time>2019-06-02T07:28:02.000Z</time>
      </trkpt>
      <trkpt lat="43.30182" lon="2.37238">
        <ele>236.4</ele>
        <time>2019-06-02T07:28:03.000Z</time>
      </trkpt>
      <trkpt lat="43.30184" lon="2.37237">
        <ele>236</ele>
        <time>2019-06-02T07:28:04.000Z</time>
      </trkpt>
      <trkpt lat="43.30186" lon="2.37235">
        <ele>235.8</ele>
        <time>2019-06-02T07:28:05.000Z</time>
      </trkpt>
      <trkpt lat="43.30188" lon="2.37233">
        <ele>235.5</ele>
        <time>2019-06-02T07:28:06.000Z</time>
      </trkpt>
      <trkpt lat="43.30189" lon="2.37231">
        <ele>235.2</ele>
        <time>2019-06-02T07:28:07.000Z</time>
      </trkpt>
      <trkpt lat="43.30191" lon="2.3723">
        <ele>235</ele>
        <time>2019-06-02T07:28:08.000Z</time>
      </trkpt>
      <trkpt lat="43.30192" lon="2.37228">
        <ele>234.8</ele>
        <time>2019-06-02T07:28:09.000Z</time>
      </trkpt>
      <trkpt lat="43.30194" lon="2.37226">
        <ele>234.7</ele>
        <time>2019-06-02T07:28:10.000Z</time>
      </trkpt>
      <trkpt lat="43.30195" lon="2.37223">
        <ele>234.6</ele>
        <time>2019-06-02T07:28:11.000Z</time>
      </trkpt>
      <trkpt lat="43.30196" lon="2.37221">
        <ele>234.5</ele>
        <time>2019-06-02T07:28:12.000Z</time>
      </trkpt>
      <trkpt lat="43.30197" lon="2.37218">
        <ele>234.5</ele>
        <time>2019-06-02T07:28:13.000Z</time>
      </trkpt>
      <trkpt lat="43.30198" lon="2.37216">
        <ele>234.6</ele>
        <time>2019-06-02T07:28:14.000Z</time>
      </trkpt>
      <trkpt lat="43.30199" lon="2.37213">
        <ele>234.6</ele>
        <time>2019-06-02T07:28:15.000Z</time>
      </trkpt>
      <trkpt lat="43.302" lon="2.3721">
        <ele>234.7</ele>
        <time>2019-06-02T07:28:16.000Z</time>
      </trkpt>
      <trkpt lat="43.30201" lon="2.37208">
        <ele>234.6</ele>
        <time>2019-06-02T07:28:17.000Z</time>
      </trkpt>
      <trkpt lat="43.30202" lon="2.37206">
        <ele>234.4</ele>
        <time>2019-06-02T07:28:18.000Z</time>
      </trkpt>
      <trkpt lat="43.30204" lon="2.37205">
        <ele>234.2</ele>
        <time>2019-06-02T07:28:19.000Z</time>
      </trkpt>
      <trkpt lat="43.30205" lon="2.37204">
        <ele>233.9</ele>
        <time>2019-06-02T07:28:20.000Z</time>
      </trkpt>
      <trkpt lat="43.30206" lon="2.37204">
        <ele>233.7</ele>
        <time>2019-06-02T07:28:21.000Z</time>
      </trkpt>
      <trkpt lat="43.30206" lon="2.37203">
        <ele>233.7</ele>
        <time>2019-06-02T07:28:22.000Z</time>
      </trkpt>
      <trkpt lat="43.30206" lon="2.37203">
        <ele>233.7</ele>
        <time>2019-06-02T07:28:23.000Z</time>
      </trkpt>
      <trkpt lat="43.30206" lon="2.37203">
        <ele>233.7</ele>
        <time>2019-06-02T07:28:24.000Z</time>
      </trkpt>
      <trkpt lat="43.30206" lon="2.37203">
        <ele>233.6</ele>
        <time>2019-06-02T07:28:25.000Z</time>
      </trkpt>
      <trkpt lat="43.30207" lon="2.37203">
        <ele>233.3</ele>
        <time>2019-06-02T07:28:26.000Z</time>
      </trkpt>
      <trkpt lat="43.30208" lon="2.37202">
        <ele>233.1</ele>
        <time>2019-06-02T07:28:27.000Z</time>
      </trkpt>
      <trkpt lat="43.30209" lon="2.37201">
        <ele>232.8</ele>
        <time>2019-06-02T07:28:28.000Z</time>
      </trkpt>
      <trkpt lat="43.3021" lon="2.372">
        <ele>232.7</ele>
        <time>2019-06-02T07:28:29.000Z</time>
      </trkpt>
      <trkpt lat="43.30211" lon="2.37199">
        <ele>232.6</ele>
        <time>2019-06-02T07:28:30.000Z</time>
      </trkpt>
      <trkpt lat="43.30211" lon="2.37198">
        <ele>232.6</ele>
        <time>2019-06-02T07:28:31.000Z</time>
      </trkpt>
      <trkpt lat="43.30211" lon="2.37197">
        <ele>232.6</ele>
        <time>2019-06-02T07:28:32.000Z</time>
      </trkpt>
      <trkpt lat="43.30211" lon="2.37197">
        <ele>232.7</ele>
        <time>2019-06-02T07:28:33.000Z</time>
      </trkpt>
      <trkpt lat="43.30211" lon="2.37197">
        <ele>232.7</ele>
        <time>2019-06-02T07:28:34.000Z</time>
      </trkpt>
      <trkpt lat="43.30211" lon="2.37197">
        <ele>232.7</ele>
        <time>2019-06-02T07:28:35.000Z</time>
      </trkpt>
      <trkpt lat="43.30211" lon="2.37197">
        <ele>232.7</ele>
        <time>2019-06-02T07:28:36.000Z</time>
      </trkpt>
      <trkpt lat="43.30211" lon="2.37197">
        <ele>232.8</ele>
        <time>2019-06-02T07:28:37.000Z</time>
      </trkpt>
      <trkpt lat="43.30211" lon="2.37197">
        <ele>232.8</ele>
        <time>2019-06-02T07:28:38.000Z</time>
      </trkpt>
      <trkpt lat="43.30211" lon="2.37197">
        <ele>232.8</ele>
        <time>2019-06-02T07:28:39.000Z</time>
      </trkpt>
      <trkpt lat="43.30211" lon="2.37197">
        <ele>232.8</ele>
        <time>2019-06-02T07:28:40.000Z</time>
      </trkpt>
      <trkpt lat="43.30211" lon="2.37197">
        <ele>232.8</ele>
        <time>2019-06-02T07:28:41.000Z</time>
      </trkpt>
      <trkpt lat="43.30211" lon="2.37197">
        <ele>232.8</ele>
        <time>2019-06-02T07:28:42.000Z</time>
      </trkpt>
      <trkpt lat="43.30211" lon="2.37197">
        <ele>232.8</ele>
        <time>2019-06-02T07:28:43.000Z</time>
      </trkpt>
      <trkpt lat="43.30211" lon="2.37197">
        <ele>232.8</ele>
        <time>2019-06-02T07:28:44.000Z</time>
      </trkpt>
      <trkpt lat="43.30211" lon="2.37197">
        <ele>232.8</ele>
        <time>2019-06-02T07:28:45.000Z</time>
      </trkpt>
      <trkpt lat="43.30211" lon="2.37197">
        <ele>232.8</ele>
        <time>2019-06-02T07:28:46.000Z</time>
      </trkpt>
      <trkpt lat="43.30211" lon="2.37197">
        <ele>232.8</ele>
        <time>2019-06-02T07:28:47.000Z</time>
      </trkpt>
      <trkpt lat="43.30211" lon="2.37197">
        <ele>232.8</ele>
        <time>2019-06-02T07:28:48.000Z</time>
      </trkpt>
      <trkpt lat="43.30211" lon="2.37197">
        <ele>232.8</ele>
        <time>2019-06-02T07:28:49.000Z</time>
      </trkpt>
      <trkpt lat="43.30211" lon="2.37197">
        <ele>232.8</ele>
        <time>2019-06-02T07:28:50.000Z</time>
      </trkpt>
      <trkpt lat="43.30211" lon="2.37197">
        <ele>232.8</ele>
        <time>2019-06-02T07:28:51.000Z</time>
      </trkpt>
      <trkpt lat="43.30211" lon="2.37197">
        <ele>232.8</ele>
        <time>2019-06-02T07:28:52.000Z</time>
      </trkpt>
      <trkpt lat="43.30211" lon="2.37197">
        <ele>232.8</ele>
        <time>2019-06-02T07:28:53.000Z</time>
      </trkpt>
      <trkpt lat="43.30211" lon="2.37197">
        <ele>232.8</ele>
        <time>2019-06-02T07:28:54.000Z</time>
      </trkpt>
      <trkpt lat="43.30211" lon="2.37197">
        <ele>232.8</ele>
        <time>2019-06-02T07:28:55.000Z</time>
      </trkpt>
      <trkpt lat="43.30211" lon="2.37197">
        <ele>232.8</ele>
        <time>2019-06-02T07:28:56.000Z</time>
      </trkpt>
      <trkpt lat="43.30211" lon="2.37197">
        <ele>232.8</ele>
        <time>2019-06-02T07:28:57.000Z</time>
      </trkpt>
      <trkpt lat="43.30211" lon="2.37197">
        <ele>232.8</ele>
        <time>2019-06-02T07:28:58.000Z</time>
      </trkpt>
      <trkpt lat="43.30211" lon="2.37197">
        <ele>232.8</ele>
        <time>2019-06-02T07:28:59.000Z</time>
      </trkpt>
      <trkpt lat="43.30211" lon="2.37197">
        <ele>232.8</ele>
        <time>2019-06-02T07:29:00.000Z</time>
      </trkpt>
      <trkpt lat="43.30211" lon="2.37197">
        <ele>232.8</ele>
        <time>2019-06-02T07:29:01.000Z</time>
      </trkpt>
      <trkpt lat="43.30211" lon="2.37197">
        <ele>232.8</ele>
        <time>2019-06-02T07:29:02.000Z</time>
      </trkpt>
      <trkpt lat="43.30211" lon="2.37197">
        <ele>232.8</ele>
        <time>2019-06-02T07:29:03.000Z</time>
      </trkpt>
      <trkpt lat="43.30211" lon="2.37197">
        <ele>232.8</ele>
        <time>2019-06-02T07:29:04.000Z</time>
      </trkpt>
      <trkpt lat="43.30211" lon="2.37197">
        <ele>232.8</ele>
        <time>2019-06-02T07:29:05.000Z</time>
      </trkpt>
      <trkpt lat="43.30211" lon="2.37197">
        <ele>232.8</ele>
        <time>2019-06-02T07:29:06.000Z</time>
      </trkpt>
      <trkpt lat="43.30211" lon="2.37197">
        <ele>232.8</ele>
        <time>2019-06-02T07:29:07.000Z</time>
      </trkpt>
      <trkpt lat="43.30211" lon="2.37197">
        <ele>232.8</ele>
        <time>2019-06-02T07:29:08.000Z</time>
      </trkpt>
      <trkpt lat="43.30211" lon="2.37197">
        <ele>232.8</ele>
        <time>2019-06-02T07:29:09.000Z</time>
      </trkpt>
      <trkpt lat="43.30211" lon="2.37197">
        <ele>232.8</ele>
        <time>2019-06-02T07:29:10.000Z</time>
      </trkpt>
      <trkpt lat="43.30211" lon="2.37197">
        <ele>232.8</ele>
        <time>2019-06-02T07:29:11.000Z</time>
      </trkpt>
      <trkpt lat="43.30211" lon="2.37197">
        <ele>232.8</ele>
        <time>2019-06-02T07:29:12.000Z</time>
      </trkpt>
      <trkpt lat="43.30211" lon="2.37197">
        <ele>232.8</ele>
        <time>2019-06-02T07:29:13.000Z</time>
      </trkpt>
      <trkpt lat="43.30211" lon="2.37197">
        <ele>232.8</ele>
        <time>2019-06-02T07:29:14.000Z</time>
      </trkpt>
      <trkpt lat="43.30211" lon="2.37197">
        <ele>232.8</ele>
        <time>2019-06-02T07:29:15.000Z</time>
      </trkpt>
      <trkpt lat="43.30211" lon="2.37197">
        <ele>232.8</ele>
        <time>2019-06-02T07:29:16.000Z</time>
      </trkpt>
      <trkpt lat="43.30211" lon="2.37197">
        <ele>232.8</ele>
        <time>2019-06-02T07:29:17.000Z</time>
      </trkpt>
      <trkpt lat="43.30211" lon="2.37197">
        <ele>232.8</ele>
        <time>2019-06-02T07:29:18.000Z</time>
      </trkpt>
      <trkpt lat="43.30211" lon="2.37197">
        <ele>232.8</ele>
        <time>2019-06-02T07:29:19.000Z</time>
      </trkpt>
      <trkpt lat="43.30211" lon="2.37197">
        <ele>232.8</ele>
        <time>2019-06-02T07:29:20.000Z</time>
      </trkpt>
      <trkpt lat="43.30211" lon="2.37197">
        <ele>232.8</ele>
        <time>2019-06-02T07:29:21.000Z</time>
      </trkpt>
      <trkpt lat="43.30211" lon="2.37197">
        <ele>232.8</ele>
        <time>2019-06-02T07:29:22.000Z</time>
      </trkpt>
      <trkpt lat="43.30211" lon="2.37197">
        <ele>232.8</ele>
        <time>2019-06-02T07:29:23.000Z</time>
      </trkpt>
      <trkpt lat="43.30211" lon="2.37197">
        <ele>232.8</ele>
        <time>2019-06-02T07:29:24.000Z</time>
      </trkpt>
      <trkpt lat="43.30211" lon="2.37197">
        <ele>232.8</ele>
        <time>2019-06-02T07:29:25.000Z</time>
      </trkpt>
      <trkpt lat="43.30211" lon="2.37197">
        <ele>232.8</ele>
        <time>2019-06-02T07:29:26.000Z</time>
      </trkpt>
      <trkpt lat="43.30211" lon="2.37197">
        <ele>232.8</ele>
        <time>2019-06-02T07:29:27.000Z</time>
      </trkpt>
      <trkpt lat="43.30211" lon="2.37197">
        <ele>232.8</ele>
        <time>2019-06-02T07:29:28.000Z</time>
      </trkpt>
      <trkpt lat="43.30211" lon="2.37197">
        <ele>232.8</ele>
        <time>2019-06-02T07:29:29.000Z</time>
      </trkpt>
      <trkpt lat="43.30211" lon="2.37197">
        <ele>232.8</ele>
        <time>2019-06-02T07:29:30.000Z</time>
      </trkpt>
      <trkpt lat="43.30211" lon="2.37197">
        <ele>232.8</ele>
        <time>2019-06-02T07:29:31.000Z</time>
      </trkpt>
      <trkpt lat="43.30211" lon="2.37197">
        <ele>232.8</ele>
        <time>2019-06-02T07:29:32.000Z</time>
      </trkpt>
      <trkpt lat="43.30211" lon="2.37197">
        <ele>232.8</ele>
        <time>2019-06-02T07:29:33.000Z</time>
      </trkpt>
      <trkpt lat="43.30211" lon="2.37197">
        <ele>232.8</ele>
        <time>2019-06-02T07:29:34.000Z</time>
      </trkpt>
      <trkpt lat="43.30211" lon="2.37197">
        <ele>232.8</ele>
        <time>2019-06-02T07:29:35.000Z</time>
      </trkpt>
      <trkpt lat="43.30211" lon="2.37197">
        <ele>232.8</ele>
        <time>2019-06-02T07:29:36.000Z</time>
      </trkpt>
      <trkpt lat="43.30211" lon="2.37197">
        <ele>232.8</ele>
        <time>2019-06-02T07:29:37.000Z</time>
      </trkpt>
      <trkpt lat="43.30211" lon="2.37197">
        <ele>232.8</ele>
        <time>2019-06-02T07:29:38.000Z</time>
      </trkpt>
      <trkpt lat="43.30211" lon="2.37197">
        <ele>232.8</ele>
        <time>2019-06-02T07:29:39.000Z</time>
      </trkpt>
      <trkpt lat="43.30211" lon="2.37197">
        <ele>232.8</ele>
        <time>2019-06-02T07:29:40.000Z</time>
      </trkpt>
      <trkpt lat="43.30211" lon="2.37197">
        <ele>232.8</ele>
        <time>2019-06-02T07:29:41.000Z</time>
      </trkpt>
      <trkpt lat="43.30211" lon="2.37197">
        <ele>232.8</ele>
        <time>2019-06-02T07:29:42.000Z</time>
      </trkpt>
      <trkpt lat="43.30211" lon="2.37197">
        <ele>232.8</ele>
        <time>2019-06-02T07:29:43.000Z</time>
      </trkpt>
      <trkpt lat="43.30211" lon="2.37197">
        <ele>232.8</ele>
        <time>2019-06-02T07:29:44.000Z</time>
      </trkpt>
      <trkpt lat="43.30211" lon="2.37197">
        <ele>232.8</ele>
        <time>2019-06-02T07:29:45.000Z</time>
      </trkpt>
      <trkpt lat="43.30211" lon="2.37197">
        <ele>232.8</ele>
        <time>2019-06-02T07:29:46.000Z</time>
      </trkpt>
      <trkpt lat="43.30211" lon="2.37197">
        <ele>232.8</ele>
        <time>2019-06-02T07:29:47.000Z</time>
      </trkpt>
      <trkpt lat="43.30211" lon="2.37197">
        <ele>232.8</ele>
        <time>2019-06-02T07:29:48.000Z</time>
      </trkpt>
      <trkpt lat="43.30211" lon="2.37197">
        <ele>232.8</ele>
        <time>2019-06-02T07:29:49.000Z</time>
      </trkpt>
      <trkpt lat="43.30211" lon="2.37197">
        <ele>232.8</ele>
        <time>2019-06-02T07:29:50.000Z</time>
      </trkpt>
      <trkpt lat="43.30211" lon="2.37197">
        <ele>232.8</ele>
        <time>2019-06-02T07:29:51.000Z</time>
      </trkpt>
      <trkpt lat="43.30211" lon="2.37197">
        <ele>232.8</ele>
        <time>2019-06-02T07:29:52.000Z</time>
      </trkpt>
      <trkpt lat="43.30211" lon="2.37197">
        <ele>232.8</ele>
        <time>2019-06-02T07:29:53.000Z</time>
      </trkpt>
      <trkpt lat="43.30211" lon="2.37197">
        <ele>232.8</ele>
        <time>2019-06-02T07:29:54.000Z</time>
      </trkpt>
      <trkpt lat="43.30211" lon="2.37197">
        <ele>232.8</ele>
        <time>2019-06-02T07:29:55.000Z</time>
      </trkpt>
      <trkpt lat="43.30211" lon="2.37197">
        <ele>232.8</ele>
        <time>2019-06-02T07:29:56.000Z</time>
      </trkpt>
      <trkpt lat="43.30211" lon="2.37197">
        <ele>232.8</ele>
        <time>2019-06-02T07:29:57.000Z</time>
      </trkpt>
      <trkpt lat="43.30211" lon="2.37197">
        <ele>232.8</ele>
        <time>2019-06-02T07:29:58.000Z</time>
      </trkpt>
      <trkpt lat="43.3021" lon="2.37197">
        <ele>232.9</ele>
        <time>2019-06-02T07:29:59.000Z</time>
      </trkpt>
      <trkpt lat="43.3021" lon="2.37197">
        <ele>232.9</ele>
        <time>2019-06-02T07:30:00.000Z</time>
      </trkpt>
      <trkpt lat="43.3021" lon="2.37197">
        <ele>232.9</ele>
        <time>2019-06-02T07:30:01.000Z</time>
      </trkpt>
      <trkpt lat="43.3021" lon="2.37198">
        <ele>233.1</ele>
        <time>2019-06-02T07:30:02.000Z</time>
      </trkpt>
      <trkpt lat="43.30206" lon="2.37202">
        <ele>233.8</ele>
        <time>2019-06-02T07:30:03.000Z</time>
      </trkpt>
      <trkpt lat="43.30205" lon="2.37202">
        <ele>234</ele>
        <time>2019-06-02T07:30:04.000Z</time>
      </trkpt>
      <trkpt lat="43.30205" lon="2.37202">
        <ele>234</ele>
        <time>2019-06-02T07:30:05.000Z</time>
      </trkpt>
      <trkpt lat="43.30205" lon="2.37202">
        <ele>234</ele>
        <time>2019-06-02T07:30:06.000Z</time>
      </trkpt>
      <trkpt lat="43.30205" lon="2.37203">
        <ele>234</ele>
        <time>2019-06-02T07:30:07.000Z</time>
      </trkpt>
      <trkpt lat="43.30205" lon="2.37203">
        <ele>234</ele>
        <time>2019-06-02T07:30:08.000Z</time>
      </trkpt>
      <trkpt lat="43.30205" lon="2.37203">
        <ele>234</ele>
        <time>2019-06-02T07:30:09.000Z</time>
      </trkpt>
      <trkpt lat="43.30205" lon="2.37203">
        <ele>234</ele>
        <time>2019-06-02T07:30:10.000Z</time>
      </trkpt>
      <trkpt lat="43.30205" lon="2.37203">
        <ele>234</ele>
        <time>2019-06-02T07:30:11.000Z</time>
      </trkpt>
      <trkpt lat="43.30205" lon="2.37203">
        <ele>234</ele>
        <time>2019-06-02T07:30:12.000Z</time>
      </trkpt>
      <trkpt lat="43.30205" lon="2.37203">
        <ele>234</ele>
        <time>2019-06-02T07:30:13.000Z</time>
      </trkpt>
      <trkpt lat="43.30205" lon="2.37203">
        <ele>234</ele>
        <time>2019-06-02T07:30:14.000Z</time>
      </trkpt>
      <trkpt lat="43.30205" lon="2.37203">
        <ele>234</ele>
        <time>2019-06-02T07:30:15.000Z</time>
      </trkpt>
      <trkpt lat="43.30205" lon="2.37203">
        <ele>234</ele>
        <time>2019-06-02T07:30:16.000Z</time>
      </trkpt>
      <trkpt lat="43.30205" lon="2.37203">
        <ele>234</ele>
        <time>2019-06-02T07:30:17.000Z</time>
      </trkpt>
      <trkpt lat="43.30205" lon="2.37203">
        <ele>234</ele>
        <time>2019-06-02T07:30:18.000Z</time>
      </trkpt>
      <trkpt lat="43.30205" lon="2.37202">
        <ele>234</ele>
        <time>2019-06-02T07:30:19.000Z</time>
      </trkpt>
      <trkpt lat="43.30205" lon="2.37202">
        <ele>234</ele>
        <time>2019-06-02T07:30:20.000Z</time>
      </trkpt>
      <trkpt lat="43.30205" lon="2.37201">
        <ele>234.1</ele>
        <time>2019-06-02T07:30:21.000Z</time>
      </trkpt>
      <trkpt lat="43.30206" lon="2.372">
        <ele>234.1</ele>
        <time>2019-06-02T07:30:22.000Z</time>
      </trkpt>
      <trkpt lat="43.30206" lon="2.37199">
        <ele>234.1</ele>
        <time>2019-06-02T07:30:23.000Z</time>
      </trkpt>
      <trkpt lat="43.30206" lon="2.37198">
        <ele>234.2</ele>
        <time>2019-06-02T07:30:24.000Z</time>
      </trkpt>
      <trkpt lat="43.30206" lon="2.37195">
        <ele>234.5</ele>
        <time>2019-06-02T07:30:25.000Z</time>
      </trkpt>
      <trkpt lat="43.30206" lon="2.37192">
        <ele>234.9</ele>
        <time>2019-06-02T07:30:26.000Z</time>
      </trkpt>
      <trkpt lat="43.30206" lon="2.37189">
        <ele>235.1</ele>
        <time>2019-06-02T07:30:27.000Z</time>
      </trkpt>
      <trkpt lat="43.30207" lon="2.37186">
        <ele>235.2</ele>
        <time>2019-06-02T07:30:28.000Z</time>
      </trkpt>
      <trkpt lat="43.30208" lon="2.37183">
        <ele>235.2</ele>
        <time>2019-06-02T07:30:29.000Z</time>
      </trkpt>
      <trkpt lat="43.30209" lon="2.37181">
        <ele>235.2</ele>
        <time>2019-06-02T07:30:30.000Z</time>
      </trkpt>
      <trkpt lat="43.3021" lon="2.37178">
        <ele>235.2</ele>
        <time>2019-06-02T07:30:31.000Z</time>
      </trkpt>
      <trkpt lat="43.30211" lon="2.37176">
        <ele>235.2</ele>
        <time>2019-06-02T07:30:32.000Z</time>
      </trkpt>
      <trkpt lat="43.30211" lon="2.37173">
        <ele>235.2</ele>
        <time>2019-06-02T07:30:33.000Z</time>
      </trkpt>
      <trkpt lat="43.30212" lon="2.3717">
        <ele>235.2</ele>
        <time>2019-06-02T07:30:34.000Z</time>
      </trkpt>
      <trkpt lat="43.30213" lon="2.37168">
        <ele>235.1</ele>
        <time>2019-06-02T07:30:35.000Z</time>
      </trkpt>
      <trkpt lat="43.30214" lon="2.37165">
        <ele>235.2</ele>
        <time>2019-06-02T07:30:36.000Z</time>
      </trkpt>
      <trkpt lat="43.30215" lon="2.37162">
        <ele>235.1</ele>
        <time>2019-06-02T07:30:37.000Z</time>
      </trkpt>
      <trkpt lat="43.30216" lon="2.37159">
        <ele>235.1</ele>
        <time>2019-06-02T07:30:38.000Z</time>
      </trkpt>
      <trkpt lat="43.30217" lon="2.37157">
        <ele>235</ele>
        <time>2019-06-02T07:30:39.000Z</time>
      </trkpt>
      <trkpt lat="43.30218" lon="2.37154">
        <ele>235</ele>
        <time>2019-06-02T07:30:40.000Z</time>
      </trkpt>
      <trkpt lat="43.3022" lon="2.37151">
        <ele>234.9</ele>
        <time>2019-06-02T07:30:41.000Z</time>
      </trkpt>
      <trkpt lat="43.30221" lon="2.37149">
        <ele>234.8</ele>
        <time>2019-06-02T07:30:42.000Z</time>
      </trkpt>
      <trkpt lat="43.30222" lon="2.37146">
        <ele>234.7</ele>
        <time>2019-06-02T07:30:43.000Z</time>
      </trkpt>
      <trkpt lat="43.30223" lon="2.37144">
        <ele>234.6</ele>
        <time>2019-06-02T07:30:44.000Z</time>
      </trkpt>
      <trkpt lat="43.30225" lon="2.37141">
        <ele>234.4</ele>
        <time>2019-06-02T07:30:45.000Z</time>
      </trkpt>
      <trkpt lat="43.30226" lon="2.37139">
        <ele>234.2</ele>
        <time>2019-06-02T07:30:46.000Z</time>
      </trkpt>
      <trkpt lat="43.30228" lon="2.37136">
        <ele>234.1</ele>
        <time>2019-06-02T07:30:47.000Z</time>
      </trkpt>
      <trkpt lat="43.30229" lon="2.37134">
        <ele>233.9</ele>
        <time>2019-06-02T07:30:48.000Z</time>
      </trkpt>
      <trkpt lat="43.30231" lon="2.37131">
        <ele>233.7</ele>
        <time>2019-06-02T07:30:49.000Z</time>
      </trkpt>
      <trkpt lat="43.30232" lon="2.37129">
        <ele>233.5</ele>
        <time>2019-06-02T07:30:50.000Z</time>
      </trkpt>
      <trkpt lat="43.30234" lon="2.37126">
        <ele>233.3</ele>
        <time>2019-06-02T07:30:51.000Z</time>
      </trkpt>
      <trkpt lat="43.30235" lon="2.37124">
        <ele>233</ele>
        <time>2019-06-02T07:30:52.000Z</time>
      </trkpt>
      <trkpt lat="43.30237" lon="2.37122">
        <ele>232.8</ele>
        <time>2019-06-02T07:30:53.000Z</time>
      </trkpt>
      <trkpt lat="43.30239" lon="2.3712">
        <ele>232.5</ele>
        <time>2019-06-02T07:30:54.000Z</time>
      </trkpt>
      <trkpt lat="43.30241" lon="2.37117">
        <ele>232.3</ele>
        <time>2019-06-02T07:30:55.000Z</time>
      </trkpt>
      <trkpt lat="43.30242" lon="2.37115">
        <ele>232</ele>
        <time>2019-06-02T07:30:56.000Z</time>
      </trkpt>
      <trkpt lat="43.30244" lon="2.37113">
        <ele>231.7</ele>
        <time>2019-06-02T07:30:57.000Z</time>
      </trkpt>
      <trkpt lat="43.30246" lon="2.3711">
        <ele>231.5</ele>
        <time>2019-06-02T07:30:58.000Z</time>
      </trkpt>
      <trkpt lat="43.30248" lon="2.37108">
        <ele>231.2</ele>
        <time>2019-06-02T07:30:59.000Z</time>
      </trkpt>
      <trkpt lat="43.30249" lon="2.37106">
        <ele>231</ele>
        <time>2019-06-02T07:31:00.000Z</time>
      </trkpt>
      <trkpt lat="43.30251" lon="2.37104">
        <ele>230.8</ele>
        <time>2019-06-02T07:31:01.000Z</time>
      </trkpt>
      <trkpt lat="43.30253" lon="2.37102">
        <ele>230.6</ele>
        <time>2019-06-02T07:31:02.000Z</time>
      </trkpt>
      <trkpt lat="43.30254" lon="2.37099">
        <ele>230.4</ele>
        <time>2019-06-02T07:31:03.000Z</time>
      </trkpt>
      <trkpt lat="43.30256" lon="2.37097">
        <ele>230.2</ele>
        <time>2019-06-02T07:31:04.000Z</time>
      </trkpt>
      <trkpt lat="43.30258" lon="2.37095">
        <ele>230</ele>
        <time>2019-06-02T07:31:05.000Z</time>
      </trkpt>
      <trkpt lat="43.30259" lon="2.37092">
        <ele>229.9</ele>
        <time>2019-06-02T07:31:06.000Z</time>
      </trkpt>
      <trkpt lat="43.30261" lon="2.3709">
        <ele>229.7</ele>
        <time>2019-06-02T07:31:07.000Z</time>
      </trkpt>
      <trkpt lat="43.30262" lon="2.37088">
        <ele>229.6</ele>
        <time>2019-06-02T07:31:08.000Z</time>
      </trkpt>
      <trkpt lat="43.30264" lon="2.37085">
        <ele>229.5</ele>
        <time>2019-06-02T07:31:09.000Z</time>
      </trkpt>
      <trkpt lat="43.30265" lon="2.37083">
        <ele>229.3</ele>
        <time>2019-06-02T07:31:10.000Z</time>
      </trkpt>
      <trkpt lat="43.30267" lon="2.37081">
        <ele>229.1</ele>
        <time>2019-06-02T07:31:11.000Z</time>
      </trkpt>
      <trkpt lat="43.30268" lon="2.37078">
        <ele>228.9</ele>
        <time>2019-06-02T07:31:12.000Z</time>
      </trkpt>
      <trkpt lat="43.30269" lon="2.37076">
        <ele>228.8</ele>
        <time>2019-06-02T07:31:13.000Z</time>
      </trkpt>
      <trkpt lat="43.30271" lon="2.37073">
        <ele>228.6</ele>
        <time>2019-06-02T07:31:14.000Z</time>
      </trkpt>
      <trkpt lat="43.30272" lon="2.37071">
        <ele>228.4</ele>
        <time>2019-06-02T07:31:15.000Z</time>
      </trkpt>
      <trkpt lat="43.30273" lon="2.37069">
        <ele>228.2</ele>
        <time>2019-06-02T07:31:16.000Z</time>
      </trkpt>
      <trkpt lat="43.30275" lon="2.37066">
        <ele>228</ele>
        <time>2019-06-02T07:31:17.000Z</time>
      </trkpt>
      <trkpt lat="43.30276" lon="2.37064">
        <ele>227.8</ele>
        <time>2019-06-02T07:31:18.000Z</time>
      </trkpt>
      <trkpt lat="43.30278" lon="2.37061">
        <ele>227.5</ele>
        <time>2019-06-02T07:31:19.000Z</time>
      </trkpt>
      <trkpt lat="43.30279" lon="2.37059">
        <ele>227.3</ele>
        <time>2019-06-02T07:31:20.000Z</time>
      </trkpt>
      <trkpt lat="43.30281" lon="2.37056">
        <ele>227</ele>
        <time>2019-06-02T07:31:21.000Z</time>
      </trkpt>
      <trkpt lat="43.30283" lon="2.37054">
        <ele>226.7</ele>
        <time>2019-06-02T07:31:22.000Z</time>
      </trkpt>
      <trkpt lat="43.30285" lon="2.37051">
        <ele>226.4</ele>
        <time>2019-06-02T07:31:23.000Z</time>
      </trkpt>
      <trkpt lat="43.30286" lon="2.37049">
        <ele>226</ele>
        <time>2019-06-02T07:31:24.000Z</time>
      </trkpt>
      <trkpt lat="43.30288" lon="2.37047">
        <ele>225.7</ele>
        <time>2019-06-02T07:31:25.000Z</time>
      </trkpt>
      <trkpt lat="43.3029" lon="2.37044">
        <ele>225.4</ele>
        <time>2019-06-02T07:31:26.000Z</time>
      </trkpt>
      <trkpt lat="43.30292" lon="2.37042">
        <ele>225</ele>
        <time>2019-06-02T07:31:27.000Z</time>
      </trkpt>
      <trkpt lat="43.30293" lon="2.3704">
        <ele>224.7</ele>
        <time>2019-06-02T07:31:28.000Z</time>
      </trkpt>
      <trkpt lat="43.30295" lon="2.37038">
        <ele>224.4</ele>
        <time>2019-06-02T07:31:29.000Z</time>
      </trkpt>
      <trkpt lat="43.30296" lon="2.37036">
        <ele>224.1</ele>
        <time>2019-06-02T07:31:30.000Z</time>
      </trkpt>
      <trkpt lat="43.30298" lon="2.37034">
        <ele>223.8</ele>
        <time>2019-06-02T07:31:31.000Z</time>
      </trkpt>
      <trkpt lat="43.30299" lon="2.37032">
        <ele>223.5</ele>
        <time>2019-06-02T07:31:32.000Z</time>
      </trkpt>
      <trkpt lat="43.303" lon="2.3703">
        <ele>223.3</ele>
        <time>2019-06-02T07:31:33.000Z</time>
      </trkpt>
      <trkpt lat="43.30302" lon="2.37028">
        <ele>223</ele>
        <time>2019-06-02T07:31:34.000Z</time>
      </trkpt>
      <trkpt lat="43.30303" lon="2.37026">
        <ele>222.7</ele>
        <time>2019-06-02T07:31:35.000Z</time>
      </trkpt>
      <trkpt lat="43.30305" lon="2.37024">
        <ele>222.4</ele>
        <time>2019-06-02T07:31:36.000Z</time>
      </trkpt>
      <trkpt lat="43.30306" lon="2.37022">
        <ele>222.1</ele>
        <time>2019-06-02T07:31:37.000Z</time>
      </trkpt>
      <trkpt lat="43.30308" lon="2.3702">
        <ele>221.7</ele>
        <time>2019-06-02T07:31:38.000Z</time>
      </trkpt>
      <trkpt lat="43.3031" lon="2.37018">
        <ele>221.4</ele>
        <time>2019-06-02T07:31:39.000Z</time>
      </trkpt>
      <trkpt lat="43.30311" lon="2.37016">
        <ele>221</ele>
        <time>2019-06-02T07:31:40.000Z</time>
      </trkpt>
      <trkpt lat="43.30313" lon="2.37014">
        <ele>220.6</ele>
        <time>2019-06-02T07:31:41.000Z</time>
      </trkpt>
      <trkpt lat="43.30315" lon="2.37012">
        <ele>220.1</ele>
        <time>2019-06-02T07:31:42.000Z</time>
      </trkpt>
      <trkpt lat="43.30317" lon="2.3701">
        <ele>219.7</ele>
        <time>2019-06-02T07:31:43.000Z</time>
      </trkpt>
      <trkpt lat="43.30319" lon="2.37009">
        <ele>219.2</ele>
        <time>2019-06-02T07:31:44.000Z</time>
      </trkpt>
      <trkpt lat="43.3032" lon="2.37007">
        <ele>218.7</ele>
        <time>2019-06-02T07:31:45.000Z</time>
      </trkpt>
      <trkpt lat="43.30322" lon="2.37005">
        <ele>218.3</ele>
        <time>2019-06-02T07:31:46.000Z</time>
      </trkpt>
      <trkpt lat="43.30324" lon="2.37004">
        <ele>217.7</ele>
        <time>2019-06-02T07:31:47.000Z</time>
      </trkpt>
      <trkpt lat="43.30326" lon="2.37002">
        <ele>217.2</ele>
        <time>2019-06-02T07:31:48.000Z</time>
      </trkpt>
      <trkpt lat="43.30328" lon="2.37001">
        <ele>216.6</ele>
        <time>2019-06-02T07:31:49.000Z</time>
      </trkpt>
      <trkpt lat="43.3033" lon="2.37">
        <ele>216</ele>
        <time>2019-06-02T07:31:50.000Z</time>
      </trkpt>
      <trkpt lat="43.30332" lon="2.36999">
        <ele>215.4</ele>
        <time>2019-06-02T07:31:51.000Z</time>
      </trkpt>
      <trkpt lat="43.30335" lon="2.36998">
        <ele>214.8</ele>
        <time>2019-06-02T07:31:52.000Z</time>
      </trkpt>
      <trkpt lat="43.30337" lon="2.36998">
        <ele>214.3</ele>
        <time>2019-06-02T07:31:53.000Z</time>
      </trkpt>
      <trkpt lat="43.30339" lon="2.36997">
        <ele>213.8</ele>
        <time>2019-06-02T07:31:54.000Z</time>
      </trkpt>
      <trkpt lat="43.30341" lon="2.36997">
        <ele>213.3</ele>
        <time>2019-06-02T07:31:55.000Z</time>
      </trkpt>
      <trkpt lat="43.30343" lon="2.36997">
        <ele>212.7</ele>
        <time>2019-06-02T07:31:56.000Z</time>
      </trkpt>
      <trkpt lat="43.30345" lon="2.36996">
        <ele>212.2</ele>
        <time>2019-06-02T07:31:57.000Z</time>
      </trkpt>
      <trkpt lat="43.30347" lon="2.36996">
        <ele>211.7</ele>
        <time>2019-06-02T07:31:58.000Z</time>
      </trkpt>
      <trkpt lat="43.30349" lon="2.36996">
        <ele>211.1</ele>
        <time>2019-06-02T07:31:59.000Z</time>
      </trkpt>
      <trkpt lat="43.30351" lon="2.36996">
        <ele>210.6</ele>
        <time>2019-06-02T07:32:00.000Z</time>
      </trkpt>
      <trkpt lat="43.30353" lon="2.36996">
        <ele>210</ele>
        <time>2019-06-02T07:32:01.000Z</time>
      </trkpt>
      <trkpt lat="43.30355" lon="2.36995">
        <ele>209.5</ele>
        <time>2019-06-02T07:32:02.000Z</time>
      </trkpt>
      <trkpt lat="43.30358" lon="2.36995">
        <ele>209</ele>
        <time>2019-06-02T07:32:03.000Z</time>
      </trkpt>
      <trkpt lat="43.3036" lon="2.36995">
        <ele>208.5</ele>
        <time>2019-06-02T07:32:04.000Z</time>
      </trkpt>
      <trkpt lat="43.30362" lon="2.36994">
        <ele>208</ele>
        <time>2019-06-02T07:32:05.000Z</time>
      </trkpt>
      <trkpt lat="43.30364" lon="2.36993">
        <ele>207.6</ele>
        <time>2019-06-02T07:32:06.000Z</time>
      </trkpt>
      <trkpt lat="43.30366" lon="2.36993">
        <ele>207.1</ele>
        <time>2019-06-02T07:32:07.000Z</time>
      </trkpt>
      <trkpt lat="43.30367" lon="2.36992">
        <ele>206.7</ele>
        <time>2019-06-02T07:32:08.000Z</time>
      </trkpt>
      <trkpt lat="43.30369" lon="2.36991">
        <ele>206.3</ele>
        <time>2019-06-02T07:32:09.000Z</time>
      </trkpt>
      <trkpt lat="43.30371" lon="2.3699">
        <ele>205.9</ele>
        <time>2019-06-02T07:32:10.000Z</time>
      </trkpt>
      <trkpt lat="43.30373" lon="2.36989">
        <ele>205.5</ele>
        <time>2019-06-02T07:32:11.000Z</time>
      </trkpt>
      <trkpt lat="43.30375" lon="2.36988">
        <ele>205.1</ele>
        <time>2019-06-02T07:32:12.000Z</time>
      </trkpt>
      <trkpt lat="43.30376" lon="2.36986">
        <ele>204.8</ele>
        <time>2019-06-02T07:32:13.000Z</time>
      </trkpt>
      <trkpt lat="43.30378" lon="2.36985">
        <ele>204.5</ele>
        <time>2019-06-02T07:32:14.000Z</time>
      </trkpt>
      <trkpt lat="43.3038" lon="2.36984">
        <ele>204.2</ele>
        <time>2019-06-02T07:32:15.000Z</time>
      </trkpt>
      <trkpt lat="43.30381" lon="2.36982">
        <ele>203.9</ele>
        <time>2019-06-02T07:32:16.000Z</time>
      </trkpt>
      <trkpt lat="43.30383" lon="2.36981">
        <ele>203.6</ele>
        <time>2019-06-02T07:32:17.000Z</time>
      </trkpt>
      <trkpt lat="43.30384" lon="2.36979">
        <ele>203.4</ele>
        <time>2019-06-02T07:32:18.000Z</time>
      </trkpt>
      <trkpt lat="43.30386" lon="2.36978">
        <ele>203.2</ele>
        <time>2019-06-02T07:32:19.000Z</time>
      </trkpt>
      <trkpt lat="43.30387" lon="2.36976">
        <ele>203</ele>
        <time>2019-06-02T07:32:20.000Z</time>
      </trkpt>
      <trkpt lat="43.30388" lon="2.36974">
        <ele>202.8</ele>
        <time>2019-06-02T07:32:21.000Z</time>
      </trkpt>
      <trkpt lat="43.30389" lon="2.36973">
        <ele>202.7</ele>
        <time>2019-06-02T07:32:22.000Z</time>
      </trkpt>
      <trkpt lat="43.30391" lon="2.36971">
        <ele>202.5</ele>
        <time>2019-06-02T07:32:23.000Z</time>
      </trkpt>
      <trkpt lat="43.30392" lon="2.36969">
        <ele>202.3</ele>
        <time>2019-06-02T07:32:24.000Z</time>
      </trkpt>
      <trkpt lat="43.30393" lon="2.36967">
        <ele>202.2</ele>
        <time>2019-06-02T07:32:25.000Z</time>
      </trkpt>
      <trkpt lat="43.30394" lon="2.36965">
        <ele>202</ele>
        <time>2019-06-02T07:32:26.000Z</time>
      </trkpt>
      <trkpt lat="43.30396" lon="2.36963">
        <ele>201.8</ele>
        <time>2019-06-02T07:32:27.000Z</time>
      </trkpt>
      <trkpt lat="43.30398" lon="2.36961">
        <ele>201.6</ele>
        <time>2019-06-02T07:32:28.000Z</time>
      </trkpt>
      <trkpt lat="43.30399" lon="2.36958">
        <ele>201.5</ele>
        <time>2019-06-02T07:32:29.000Z</time>
      </trkpt>
      <trkpt lat="43.30401" lon="2.36956">
        <ele>201.3</ele>
        <time>2019-06-02T07:32:30.000Z</time>
      </trkpt>
      <trkpt lat="43.30402" lon="2.36954">
        <ele>201.1</ele>
        <time>2019-06-02T07:32:31.000Z</time>
      </trkpt>
      <trkpt lat="43.30403" lon="2.36952">
        <ele>201</ele>
        <time>2019-06-02T07:32:32.000Z</time>
      </trkpt>
      <trkpt lat="43.30405" lon="2.3695">
        <ele>200.9</ele>
        <time>2019-06-02T07:32:33.000Z</time>
      </trkpt>
      <trkpt lat="43.30406" lon="2.36948">
        <ele>200.8</ele>
        <time>2019-06-02T07:32:34.000Z</time>
      </trkpt>
      <trkpt lat="43.30406" lon="2.36946">
        <ele>200.7</ele>
        <time>2019-06-02T07:32:35.000Z</time>
      </trkpt>
      <trkpt lat="43.30407" lon="2.36944">
        <ele>200.7</ele>
        <time>2019-06-02T07:32:36.000Z</time>
      </trkpt>
      <trkpt lat="43.30408" lon="2.36942">
        <ele>200.6</ele>
        <time>2019-06-02T07:32:37.000Z</time>
      </trkpt>
      <trkpt lat="43.3041" lon="2.3694">
        <ele>200.5</ele>
        <time>2019-06-02T07:32:38.000Z</time>
      </trkpt>
      <trkpt lat="43.30411" lon="2.36938">
        <ele>200.4</ele>
        <time>2019-06-02T07:32:39.000Z</time>
      </trkpt>
      <trkpt lat="43.30413" lon="2.36935">
        <ele>200.3</ele>
        <time>2019-06-02T07:32:40.000Z</time>
      </trkpt>
      <trkpt lat="43.30414" lon="2.36933">
        <ele>200.1</ele>
        <time>2019-06-02T07:32:41.000Z</time>
      </trkpt>
      <trkpt lat="43.30415" lon="2.3693">
        <ele>200</ele>
        <time>2019-06-02T07:32:42.000Z</time>
      </trkpt>
      <trkpt lat="43.30417" lon="2.36928">
        <ele>199.9</ele>
        <time>2019-06-02T07:32:43.000Z</time>
      </trkpt>
      <trkpt lat="43.30418" lon="2.36926">
        <ele>199.9</ele>
        <time>2019-06-02T07:32:44.000Z</time>
      </trkpt>
      <trkpt lat="43.3042" lon="2.36923">
        <ele>199.8</ele>
        <time>2019-06-02T07:32:45.000Z</time>
      </trkpt>
      <trkpt lat="43.30421" lon="2.36921">
        <ele>199.8</ele>
        <time>2019-06-02T07:32:46.000Z</time>
      </trkpt>
      <trkpt lat="43.30422" lon="2.36919">
        <ele>199.8</ele>
        <time>2019-06-02T07:32:47.000Z</time>
      </trkpt>
      <trkpt lat="43.30423" lon="2.36916">
        <ele>199.8</ele>
        <time>2019-06-02T07:32:48.000Z</time>
      </trkpt>
      <trkpt lat="43.30425" lon="2.36914">
        <ele>199.9</ele>
        <time>2019-06-02T07:32:49.000Z</time>
      </trkpt>
      <trkpt lat="43.30426" lon="2.36911">
        <ele>200</ele>
        <time>2019-06-02T07:32:50.000Z</time>
      </trkpt>
      <trkpt lat="43.30427" lon="2.36908">
        <ele>200</ele>
        <time>2019-06-02T07:32:51.000Z</time>
      </trkpt>
      <trkpt lat="43.30428" lon="2.36905">
        <ele>200.1</ele>
        <time>2019-06-02T07:32:52.000Z</time>
      </trkpt>
      <trkpt lat="43.3043" lon="2.36902">
        <ele>200.2</ele>
        <time>2019-06-02T07:32:53.000Z</time>
      </trkpt>
      <trkpt lat="43.30431" lon="2.36899">
        <ele>200.3</ele>
        <time>2019-06-02T07:32:54.000Z</time>
      </trkpt>
      <trkpt lat="43.30432" lon="2.36895">
        <ele>200.4</ele>
        <time>2019-06-02T07:32:55.000Z</time>
      </trkpt>
      <trkpt lat="43.30434" lon="2.36892">
        <ele>200.5</ele>
        <time>2019-06-02T07:32:56.000Z</time>
      </trkpt>
      <trkpt lat="43.30435" lon="2.36889">
        <ele>200.5</ele>
        <time>2019-06-02T07:32:57.000Z</time>
      </trkpt>
      <trkpt lat="43.30437" lon="2.36885">
        <ele>200.6</ele>
        <time>2019-06-02T07:32:58.000Z</time>
      </trkpt>
      <trkpt lat="43.30438" lon="2.36882">
        <ele>200.6</ele>
        <time>2019-06-02T07:32:59.000Z</time>
      </trkpt>
      <trkpt lat="43.3044" lon="2.36879">
        <ele>200.6</ele>
        <time>2019-06-02T07:33:00.000Z</time>
      </trkpt>
      <trkpt lat="43.30441" lon="2.36876">
        <ele>200.6</ele>
        <time>2019-06-02T07:33:01.000Z</time>
      </trkpt>
      <trkpt lat="43.30443" lon="2.36872">
        <ele>200.6</ele>
        <time>2019-06-02T07:33:02.000Z</time>
      </trkpt>
      <trkpt lat="43.30444" lon="2.36869">
        <ele>200.5</ele>
        <time>2019-06-02T07:33:03.000Z</time>
      </trkpt>
      <trkpt lat="43.30446" lon="2.36866">
        <ele>200.4</ele>
        <time>2019-06-02T07:33:04.000Z</time>
      </trkpt>
      <trkpt lat="43.30447" lon="2.36863">
        <ele>200.3</ele>
        <time>2019-06-02T07:33:05.000Z</time>
      </trkpt>
      <trkpt lat="43.30449" lon="2.3686">
        <ele>200.1</ele>
        <time>2019-06-02T07:33:06.000Z</time>
      </trkpt>
      <trkpt lat="43.30451" lon="2.36857">
        <ele>200</ele>
        <time>2019-06-02T07:33:07.000Z</time>
      </trkpt>
      <trkpt lat="43.30453" lon="2.36854">
        <ele>199.8</ele>
        <time>2019-06-02T07:33:08.000Z</time>
      </trkpt>
      <trkpt lat="43.30455" lon="2.36851">
        <ele>199.5</ele>
        <time>2019-06-02T07:33:09.000Z</time>
      </trkpt>
      <trkpt lat="43.30456" lon="2.36848">
        <ele>199.3</ele>
        <time>2019-06-02T07:33:10.000Z</time>
      </trkpt>
      <trkpt lat="43.30458" lon="2.36845">
        <ele>199</ele>
        <time>2019-06-02T07:33:11.000Z</time>
      </trkpt>
      <trkpt lat="43.3046" lon="2.36843">
        <ele>198.7</ele>
        <time>2019-06-02T07:33:12.000Z</time>
      </trkpt>
      <trkpt lat="43.30463" lon="2.3684">
        <ele>198.3</ele>
        <time>2019-06-02T07:33:13.000Z</time>
      </trkpt>
      <trkpt lat="43.30465" lon="2.36837">
        <ele>197.9</ele>
        <time>2019-06-02T07:33:14.000Z</time>
      </trkpt>
      <trkpt lat="43.30467" lon="2.36833">
        <ele>197.5</ele>
        <time>2019-06-02T07:33:15.000Z</time>
      </trkpt>
      <trkpt lat="43.3047" lon="2.3683">
        <ele>197</ele>
        <time>2019-06-02T07:33:16.000Z</time>
      </trkpt>
      <trkpt lat="43.30472" lon="2.36827">
        <ele>196.5</ele>
        <time>2019-06-02T07:33:17.000Z</time>
      </trkpt>
      <trkpt lat="43.30475" lon="2.36824">
        <ele>195.9</ele>
        <time>2019-06-02T07:33:18.000Z</time>
      </trkpt>
      <trkpt lat="43.30478" lon="2.3682">
        <ele>195.3</ele>
        <time>2019-06-02T07:33:19.000Z</time>
      </trkpt>
      <trkpt lat="43.30481" lon="2.36817">
        <ele>194.7</ele>
        <time>2019-06-02T07:33:20.000Z</time>
      </trkpt>
      <trkpt lat="43.30483" lon="2.36814">
        <ele>194.1</ele>
        <time>2019-06-02T07:33:21.000Z</time>
      </trkpt>
      <trkpt lat="43.30486" lon="2.36811">
        <ele>193.5</ele>
        <time>2019-06-02T07:33:22.000Z</time>
      </trkpt>
      <trkpt lat="43.30488" lon="2.36808">
        <ele>193</ele>
        <time>2019-06-02T07:33:23.000Z</time>
      </trkpt>
      <trkpt lat="43.3049" lon="2.36805">
        <ele>192.5</ele>
        <time>2019-06-02T07:33:24.000Z</time>
      </trkpt>
      <trkpt lat="43.30492" lon="2.36803">
        <ele>192.1</ele>
        <time>2019-06-02T07:33:25.000Z</time>
      </trkpt>
      <trkpt lat="43.30494" lon="2.36801">
        <ele>191.8</ele>
        <time>2019-06-02T07:33:26.000Z</time>
      </trkpt>
      <trkpt lat="43.30495" lon="2.36799">
        <ele>191.5</ele>
        <time>2019-06-02T07:33:27.000Z</time>
      </trkpt>
      <trkpt lat="43.30497" lon="2.36798">
        <ele>191.1</ele>
        <time>2019-06-02T07:33:28.000Z</time>
      </trkpt>
      <trkpt lat="43.30498" lon="2.36797">
        <ele>190.7</ele>
        <time>2019-06-02T07:33:29.000Z</time>
      </trkpt>
      <trkpt lat="43.305" lon="2.36796">
        <ele>190.2</ele>
        <time>2019-06-02T07:33:30.000Z</time>
      </trkpt>
      <trkpt lat="43.30502" lon="2.36796">
        <ele>190.2</ele>
        <time>2019-06-02T07:33:31.000Z</time>
      </trkpt>
      <trkpt lat="43.30504" lon="2.36796">
        <ele>190.1</ele>
        <time>2019-06-02T07:33:32.000Z</time>
      </trkpt>
      <trkpt lat="43.30505" lon="2.36796">
        <ele>190.1</ele>
        <time>2019-06-02T07:33:33.000Z</time>
      </trkpt>
      <trkpt lat="43.30506" lon="2.36796">
        <ele>190</ele>
        <time>2019-06-02T07:33:34.000Z</time>
      </trkpt>
      <trkpt lat="43.30508" lon="2.36797">
        <ele>189.9</ele>
        <time>2019-06-02T07:33:35.000Z</time>
      </trkpt>
      <trkpt lat="43.30509" lon="2.36797">
        <ele>189.9</ele>
        <time>2019-06-02T07:33:36.000Z</time>
      </trkpt>
      <trkpt lat="43.3051" lon="2.36798">
        <ele>189.8</ele>
        <time>2019-06-02T07:33:37.000Z</time>
      </trkpt>
      <trkpt lat="43.30511" lon="2.36798">
        <ele>189.7</ele>
        <time>2019-06-02T07:33:38.000Z</time>
      </trkpt>
      <trkpt lat="43.30512" lon="2.36799">
        <ele>189.7</ele>
        <time>2019-06-02T07:33:39.000Z</time>
      </trkpt>
      <trkpt lat="43.30512" lon="2.368">
        <ele>189.6</ele>
        <time>2019-06-02T07:33:40.000Z</time>
      </trkpt>
      <trkpt lat="43.30513" lon="2.36801">
        <ele>189.5</ele>
        <time>2019-06-02T07:33:41.000Z</time>
      </trkpt>
      <trkpt lat="43.30513" lon="2.36801">
        <ele>189.5</ele>
        <time>2019-06-02T07:33:42.000Z</time>
      </trkpt>
      <trkpt lat="43.30514" lon="2.36802">
        <ele>189.4</ele>
        <time>2019-06-02T07:33:43.000Z</time>
      </trkpt>
      <trkpt lat="43.30514" lon="2.36802">
        <ele>189.4</ele>
        <time>2019-06-02T07:33:44.000Z</time>
      </trkpt>
      <trkpt lat="43.30514" lon="2.36803">
        <ele>189.4</ele>
        <time>2019-06-02T07:33:45.000Z</time>
      </trkpt>
      <trkpt lat="43.30514" lon="2.36803">
        <ele>189.4</ele>
        <time>2019-06-02T07:33:46.000Z</time>
      </trkpt>
      <trkpt lat="43.30514" lon="2.36803">
        <ele>189.4</ele>
        <time>2019-06-02T07:33:47.000Z</time>
      </trkpt>
      <trkpt lat="43.30514" lon="2.36803">
        <ele>189.4</ele>
        <time>2019-06-02T07:33:48.000Z</time>
      </trkpt>
      <trkpt lat="43.30514" lon="2.36803">
        <ele>189.4</ele>
        <time>2019-06-02T07:33:49.000Z</time>
      </trkpt>
      <trkpt lat="43.30514" lon="2.36803">
        <ele>189.4</ele>
        <time>2019-06-02T07:33:50.000Z</time>
      </trkpt>
      <trkpt lat="43.30513" lon="2.36803">
        <ele>189.4</ele>
        <time>2019-06-02T07:33:51.000Z</time>
      </trkpt>
      <trkpt lat="43.30513" lon="2.36803">
        <ele>189.4</ele>
        <time>2019-06-02T07:33:52.000Z</time>
      </trkpt>
      <trkpt lat="43.30514" lon="2.36802">
        <ele>189.4</ele>
        <time>2019-06-02T07:33:53.000Z</time>
      </trkpt>
      <trkpt lat="43.30514" lon="2.36802">
        <ele>189.4</ele>
        <time>2019-06-02T07:33:54.000Z</time>
      </trkpt>
      <trkpt lat="43.30515" lon="2.36801">
        <ele>189.5</ele>
        <time>2019-06-02T07:33:55.000Z</time>
      </trkpt>
      <trkpt lat="43.30515" lon="2.368">
        <ele>189.5</ele>
        <time>2019-06-02T07:33:56.000Z</time>
      </trkpt>
      <trkpt lat="43.30515" lon="2.36798">
        <ele>189.6</ele>
        <time>2019-06-02T07:33:57.000Z</time>
      </trkpt>
      <trkpt lat="43.30515" lon="2.36797">
        <ele>189.7</ele>
        <time>2019-06-02T07:33:58.000Z</time>
      </trkpt>
      <trkpt lat="43.30514" lon="2.36796">
        <ele>189.7</ele>
        <time>2019-06-02T07:33:59.000Z</time>
      </trkpt>
      <trkpt lat="43.30513" lon="2.36795">
        <ele>189.8</ele>
        <time>2019-06-02T07:34:00.000Z</time>
      </trkpt>
      <trkpt lat="43.30513" lon="2.36795">
        <ele>189.8</ele>
        <time>2019-06-02T07:34:01.000Z</time>
      </trkpt>
      <trkpt lat="43.30513" lon="2.36794">
        <ele>189.9</ele>
        <time>2019-06-02T07:34:02.000Z</time>
      </trkpt>
      <trkpt lat="43.30512" lon="2.36794">
        <ele>189.9</ele>
        <time>2019-06-02T07:34:03.000Z</time>
      </trkpt>
      <trkpt lat="43.30512" lon="2.36794">
        <ele>189.9</ele>
        <time>2019-06-02T07:34:04.000Z</time>
      </trkpt>
      <trkpt lat="43.30512" lon="2.36794">
        <ele>189.9</ele>
        <time>2019-06-02T07:34:05.000Z</time>
      </trkpt>
      <trkpt lat="43.30512" lon="2.36794">
        <ele>189.9</ele>
        <time>2019-06-02T07:34:06.000Z</time>
      </trkpt>
      <trkpt lat="43.30512" lon="2.36794">
        <ele>189.9</ele>
        <time>2019-06-02T07:34:07.000Z</time>
      </trkpt>
      <trkpt lat="43.30512" lon="2.36794">
        <ele>189.9</ele>
        <time>2019-06-02T07:34:08.000Z</time>
      </trkpt>
      <trkpt lat="43.30512" lon="2.36794">
        <ele>189.9</ele>
        <time>2019-06-02T07:34:09.000Z</time>
      </trkpt>
      <trkpt lat="43.30512" lon="2.36794">
        <ele>189.9</ele>
        <time>2019-06-02T07:34:10.000Z</time>
      </trkpt>
      <trkpt lat="43.30512" lon="2.36794">
        <ele>189.9</ele>
        <time>2019-06-02T07:34:11.000Z</time>
      </trkpt>
      <trkpt lat="43.30512" lon="2.36794">
        <ele>189.9</ele>
        <time>2019-06-02T07:34:12.000Z</time>
      </trkpt>
      <trkpt lat="43.30512" lon="2.36794">
        <ele>189.9</ele>
        <time>2019-06-02T07:34:13.000Z</time>
      </trkpt>
      <trkpt lat="43.30512" lon="2.36794">
        <ele>189.9</ele>
        <time>2019-06-02T07:34:14.000Z</time>
      </trkpt>
      <trkpt lat="43.30512" lon="2.36794">
        <ele>189.9</ele>
        <time>2019-06-02T07:34:15.000Z</time>
      </trkpt>
      <trkpt lat="43.30512" lon="2.36794">
        <ele>189.9</ele>
        <time>2019-06-02T07:34:16.000Z</time>
      </trkpt>
      <trkpt lat="43.30512" lon="2.36794">
        <ele>189.9</ele>
        <time>2019-06-02T07:34:17.000Z</time>
      </trkpt>
      <trkpt lat="43.30512" lon="2.36794">
        <ele>189.9</ele>
        <time>2019-06-02T07:34:18.000Z</time>
      </trkpt>
      <trkpt lat="43.30512" lon="2.36794">
        <ele>189.9</ele>
        <time>2019-06-02T07:34:19.000Z</time>
      </trkpt>
      <trkpt lat="43.30512" lon="2.36794">
        <ele>189.9</ele>
        <time>2019-06-02T07:34:20.000Z</time>
      </trkpt>
      <trkpt lat="43.30512" lon="2.36794">
        <ele>189.9</ele>
        <time>2019-06-02T07:34:21.000Z</time>
      </trkpt>
      <trkpt lat="43.30512" lon="2.36794">
        <ele>189.9</ele>
        <time>2019-06-02T07:34:22.000Z</time>
      </trkpt>
      <trkpt lat="43.30512" lon="2.36794">
        <ele>189.9</ele>
        <time>2019-06-02T07:34:23.000Z</time>
      </trkpt>
      <trkpt lat="43.30512" lon="2.36794">
        <ele>189.9</ele>
        <time>2019-06-02T07:34:24.000Z</time>
      </trkpt>
      <trkpt lat="43.30512" lon="2.36794">
        <ele>189.9</ele>
        <time>2019-06-02T07:34:25.000Z</time>
      </trkpt>
      <trkpt lat="43.30512" lon="2.36794">
        <ele>189.9</ele>
        <time>2019-06-02T07:34:26.000Z</time>
      </trkpt>
      <trkpt lat="43.30512" lon="2.36794">
        <ele>189.9</ele>
        <time>2019-06-02T07:34:27.000Z</time>
      </trkpt>
      <trkpt lat="43.30512" lon="2.36794">
        <ele>189.9</ele>
        <time>2019-06-02T07:34:28.000Z</time>
      </trkpt>
      <trkpt lat="43.30512" lon="2.36794">
        <ele>189.9</ele>
        <time>2019-06-02T07:34:29.000Z</time>
      </trkpt>
      <trkpt lat="43.30512" lon="2.36794">
        <ele>189.9</ele>
        <time>2019-06-02T07:34:30.000Z</time>
      </trkpt>
      <trkpt lat="43.30512" lon="2.36794">
        <ele>189.9</ele>
        <time>2019-06-02T07:34:31.000Z</time>
      </trkpt>
      <trkpt lat="43.30512" lon="2.36794">
        <ele>189.9</ele>
        <time>2019-06-02T07:34:32.000Z</time>
      </trkpt>
      <trkpt lat="43.30512" lon="2.36794">
        <ele>189.9</ele>
        <time>2019-06-02T07:34:33.000Z</time>
      </trkpt>
      <trkpt lat="43.30512" lon="2.36794">
        <ele>189.9</ele>
        <time>2019-06-02T07:34:34.000Z</time>
      </trkpt>
      <trkpt lat="43.30512" lon="2.36794">
        <ele>189.9</ele>
        <time>2019-06-02T07:34:35.000Z</time>
      </trkpt>
      <trkpt lat="43.30512" lon="2.36794">
        <ele>189.9</ele>
        <time>2019-06-02T07:34:36.000Z</time>
      </trkpt>
      <trkpt lat="43.30512" lon="2.36794">
        <ele>189.9</ele>
        <time>2019-06-02T07:34:37.000Z</time>
      </trkpt>
      <trkpt lat="43.30512" lon="2.36794">
        <ele>189.9</ele>
        <time>2019-06-02T07:34:38.000Z</time>
      </trkpt>
      <trkpt lat="43.30512" lon="2.36794">
        <ele>189.9</ele>
        <time>2019-06-02T07:34:39.000Z</time>
      </trkpt>
      <trkpt lat="43.30512" lon="2.36794">
        <ele>189.9</ele>
        <time>2019-06-02T07:34:40.000Z</time>
      </trkpt>
      <trkpt lat="43.30512" lon="2.36794">
        <ele>189.9</ele>
        <time>2019-06-02T07:34:41.000Z</time>
      </trkpt>
      <trkpt lat="43.30512" lon="2.36794">
        <ele>189.9</ele>
        <time>2019-06-02T07:34:42.000Z</time>
      </trkpt>
      <trkpt lat="43.30512" lon="2.36794">
        <ele>189.9</ele>
        <time>2019-06-02T07:34:43.000Z</time>
      </trkpt>
      <trkpt lat="43.30512" lon="2.36793">
        <ele>189.9</ele>
        <time>2019-06-02T07:34:44.000Z</time>
      </trkpt>
      <trkpt lat="43.30512" lon="2.36789">
        <ele>190.1</ele>
        <time>2019-06-02T07:34:45.000Z</time>
      </trkpt>
      <trkpt lat="43.30511" lon="2.36787">
        <ele>190.2</ele>
        <time>2019-06-02T07:34:46.000Z</time>
      </trkpt>
      <trkpt lat="43.30511" lon="2.36786">
        <ele>190.3</ele>
        <time>2019-06-02T07:34:47.000Z</time>
      </trkpt>
      <trkpt lat="43.30511" lon="2.36785">
        <ele>190.4</ele>
        <time>2019-06-02T07:34:48.000Z</time>
      </trkpt>
      <trkpt lat="43.30511" lon="2.36785">
        <ele>190.4</ele>
        <time>2019-06-02T07:34:49.000Z</time>
      </trkpt>
      <trkpt lat="43.30511" lon="2.36785">
        <ele>190.4</ele>
        <time>2019-06-02T07:34:50.000Z</time>
      </trkpt>
      <trkpt lat="43.30511" lon="2.36785">
        <ele>190.4</ele>
        <time>2019-06-02T07:34:51.000Z</time>
      </trkpt>
      <trkpt lat="43.30511" lon="2.36785">
        <ele>190.4</ele>
        <time>2019-06-02T07:34:52.000Z</time>
      </trkpt>
      <trkpt lat="43.30511" lon="2.36785">
        <ele>190.4</ele>
        <time>2019-06-02T07:34:53.000Z</time>
      </trkpt>
      <trkpt lat="43.30511" lon="2.36785">
        <ele>190.4</ele>
        <time>2019-06-02T07:34:54.000Z</time>
      </trkpt>
      <trkpt lat="43.30511" lon="2.36785">
        <ele>190.4</ele>
        <time>2019-06-02T07:34:55.000Z</time>
      </trkpt>
      <trkpt lat="43.30511" lon="2.36785">
        <ele>190.4</ele>
        <time>2019-06-02T07:34:56.000Z</time>
      </trkpt>
      <trkpt lat="43.30511" lon="2.36785">
        <ele>190.4</ele>
        <time>2019-06-02T07:34:57.000Z</time>
      </trkpt>
      <trkpt lat="43.30511" lon="2.36785">
        <ele>190.4</ele>
        <time>2019-06-02T07:34:58.000Z</time>
      </trkpt>
      <trkpt lat="43.30511" lon="2.36785">
        <ele>190.4</ele>
        <time>2019-06-02T07:34:59.000Z</time>
      </trkpt>
      <trkpt lat="43.30511" lon="2.36785">
        <ele>190.4</ele>
        <time>2019-06-02T07:35:00.000Z</time>
      </trkpt>
      <trkpt lat="43.30511" lon="2.36785">
        <ele>190.4</ele>
        <time>2019-06-02T07:35:01.000Z</time>
      </trkpt>
      <trkpt lat="43.30511" lon="2.36785">
        <ele>190.4</ele>
        <time>2019-06-02T07:35:02.000Z</time>
      </trkpt>
      <trkpt lat="43.30511" lon="2.36785">
        <ele>190.4</ele>
        <time>2019-06-02T07:35:03.000Z</time>
      </trkpt>
      <trkpt lat="43.30511" lon="2.36785">
        <ele>190.4</ele>
        <time>2019-06-02T07:35:04.000Z</time>
      </trkpt>
      <trkpt lat="43.30511" lon="2.36785">
        <ele>190.4</ele>
        <time>2019-06-02T07:35:05.000Z</time>
      </trkpt>
      <trkpt lat="43.30511" lon="2.36785">
        <ele>190.4</ele>
        <time>2019-06-02T07:35:06.000Z</time>
      </trkpt>
      <trkpt lat="43.30511" lon="2.36785">
        <ele>190.4</ele>
        <time>2019-06-02T07:35:07.000Z</time>
      </trkpt>
      <trkpt lat="43.30511" lon="2.36785">
        <ele>190.4</ele>
        <time>2019-06-02T07:35:08.000Z</time>
      </trkpt>
      <trkpt lat="43.30511" lon="2.36785">
        <ele>190.4</ele>
        <time>2019-06-02T07:35:09.000Z</time>
      </trkpt>
      <trkpt lat="43.30511" lon="2.36785">
        <ele>190.4</ele>
        <time>2019-06-02T07:35:10.000Z</time>
      </trkpt>
      <trkpt lat="43.30511" lon="2.36785">
        <ele>190.3</ele>
        <time>2019-06-02T07:35:11.000Z</time>
      </trkpt>
      <trkpt lat="43.30512" lon="2.36785">
        <ele>190.3</ele>
        <time>2019-06-02T07:35:12.000Z</time>
      </trkpt>
      <trkpt lat="43.30512" lon="2.36786">
        <ele>190.3</ele>
        <time>2019-06-02T07:35:13.000Z</time>
      </trkpt>
      <trkpt lat="43.30514" lon="2.36785">
        <ele>190.2</ele>
        <time>2019-06-02T07:35:14.000Z</time>
      </trkpt>
      <trkpt lat="43.30515" lon="2.36785">
        <ele>190.2</ele>
        <time>2019-06-02T07:35:15.000Z</time>
      </trkpt>
      <trkpt lat="43.30517" lon="2.36786">
        <ele>190.1</ele>
        <time>2019-06-02T07:35:16.000Z</time>
      </trkpt>
      <trkpt lat="43.30518" lon="2.36786">
        <ele>190</ele>
        <time>2019-06-02T07:35:17.000Z</time>
      </trkpt>
      <trkpt lat="43.30518" lon="2.36786">
        <ele>190</ele>
        <time>2019-06-02T07:35:18.000Z</time>
      </trkpt>
      <trkpt lat="43.30518" lon="2.36786">
        <ele>190</ele>
        <time>2019-06-02T07:35:19.000Z</time>
      </trkpt>
      <trkpt lat="43.30518" lon="2.36786">
        <ele>190</ele>
        <time>2019-06-02T07:35:20.000Z</time>
      </trkpt>
      <trkpt lat="43.30518" lon="2.36786">
        <ele>190</ele>
        <time>2019-06-02T07:35:21.000Z</time>
      </trkpt>
      <trkpt lat="43.30518" lon="2.36786">
        <ele>190</ele>
        <time>2019-06-02T07:35:22.000Z</time>
      </trkpt>
      <trkpt lat="43.30518" lon="2.36786">
        <ele>190</ele>
        <time>2019-06-02T07:35:23.000Z</time>
      </trkpt>
      <trkpt lat="43.30518" lon="2.36786">
        <ele>190</ele>
        <time>2019-06-02T07:35:24.000Z</time>
      </trkpt>
      <trkpt lat="43.30518" lon="2.36786">
        <ele>190</ele>
        <time>2019-06-02T07:35:25.000Z</time>
      </trkpt>
      <trkpt lat="43.30518" lon="2.36786">
        <ele>190</ele>
        <time>2019-06-02T07:35:26.000Z</time>
      </trkpt>
      <trkpt lat="43.30518" lon="2.36786">
        <ele>190</ele>
        <time>2019-06-02T07:35:27.000Z</time>
      </trkpt>
      <trkpt lat="43.30518" lon="2.36787">
        <ele>190</ele>
        <time>2019-06-02T07:35:28.000Z</time>
      </trkpt>
      <trkpt lat="43.30519" lon="2.36787">
        <ele>189.9</ele>
        <time>2019-06-02T07:35:29.000Z</time>
      </trkpt>
      <trkpt lat="43.3052" lon="2.36789">
        <ele>189.8</ele>
        <time>2019-06-02T07:35:30.000Z</time>
      </trkpt>
      <trkpt lat="43.30521" lon="2.36793">
        <ele>189.5</ele>
        <time>2019-06-02T07:35:31.000Z</time>
      </trkpt>
      <trkpt lat="43.30522" lon="2.36797">
        <ele>189.4</ele>
        <time>2019-06-02T07:35:32.000Z</time>
      </trkpt>
      <trkpt lat="43.30523" lon="2.36798">
        <ele>189.3</ele>
        <time>2019-06-02T07:35:33.000Z</time>
      </trkpt>
      <trkpt lat="43.30523" lon="2.36798">
        <ele>189.3</ele>
        <time>2019-06-02T07:35:34.000Z</time>
      </trkpt>
      <trkpt lat="43.30523" lon="2.36799">
        <ele>189.3</ele>
        <time>2019-06-02T07:35:35.000Z</time>
      </trkpt>
      <trkpt lat="43.30523" lon="2.368">
        <ele>189.2</ele>
        <time>2019-06-02T07:35:36.000Z</time>
      </trkpt>
      <trkpt lat="43.30523" lon="2.36801">
        <ele>189.2</ele>
        <time>2019-06-02T07:35:37.000Z</time>
      </trkpt>
      <trkpt lat="43.30523" lon="2.36802">
        <ele>189.2</ele>
        <time>2019-06-02T07:35:38.000Z</time>
      </trkpt>
      <trkpt lat="43.30523" lon="2.36802">
        <ele>189.2</ele>
        <time>2019-06-02T07:35:39.000Z</time>
      </trkpt>
      <trkpt lat="43.30523" lon="2.36803">
        <ele>189.1</ele>
        <time>2019-06-02T07:35:40.000Z</time>
      </trkpt>
      <trkpt lat="43.30523" lon="2.36805">
        <ele>189</ele>
        <time>2019-06-02T07:35:41.000Z</time>
      </trkpt>
      <trkpt lat="43.30522" lon="2.36808">
        <ele>188.9</ele>
        <time>2019-06-02T07:35:42.000Z</time>
      </trkpt>
      <trkpt lat="43.30522" lon="2.36811">
        <ele>188.8</ele>
        <time>2019-06-02T07:35:43.000Z</time>
      </trkpt>
      <trkpt lat="43.30522" lon="2.36813">
        <ele>188.8</ele>
        <time>2019-06-02T07:35:44.000Z</time>
      </trkpt>
      <trkpt lat="43.30522" lon="2.36813">
        <ele>188.8</ele>
        <time>2019-06-02T07:35:45.000Z</time>
      </trkpt>
      <trkpt lat="43.30522" lon="2.36813">
        <ele>188.8</ele>
        <time>2019-06-02T07:35:46.000Z</time>
      </trkpt>
      <trkpt lat="43.30522" lon="2.36813">
        <ele>188.8</ele>
        <time>2019-06-02T07:35:47.000Z</time>
      </trkpt>
      <trkpt lat="43.30522" lon="2.36813">
        <ele>188.8</ele>
        <time>2019-06-02T07:35:48.000Z</time>
      </trkpt>
      <trkpt lat="43.30522" lon="2.36813">
        <ele>188.8</ele>
        <time>2019-06-02T07:35:49.000Z</time>
      </trkpt>
      <trkpt lat="43.30522" lon="2.36814">
        <ele>188.8</ele>
        <time>2019-06-02T07:35:50.000Z</time>
      </trkpt>
      <trkpt lat="43.30522" lon="2.36815">
        <ele>188.7</ele>
        <time>2019-06-02T07:35:51.000Z</time>
      </trkpt>
      <trkpt lat="43.30522" lon="2.36815">
        <ele>188.7</ele>
        <time>2019-06-02T07:35:52.000Z</time>
      </trkpt>
      <trkpt lat="43.30522" lon="2.36816">
        <ele>188.7</ele>
        <time>2019-06-02T07:35:53.000Z</time>
      </trkpt>
      <trkpt lat="43.30522" lon="2.36819">
        <ele>188.5</ele>
        <time>2019-06-02T07:35:54.000Z</time>
      </trkpt>
      <trkpt lat="43.30523" lon="2.36823">
        <ele>188.4</ele>
        <time>2019-06-02T07:35:55.000Z</time>
      </trkpt>
      <trkpt lat="43.30523" lon="2.36825">
        <ele>188.3</ele>
        <time>2019-06-02T07:35:56.000Z</time>
      </trkpt>
      <trkpt lat="43.30524" lon="2.36826">
        <ele>188.3</ele>
        <time>2019-06-02T07:35:57.000Z</time>
      </trkpt>
      <trkpt lat="43.30524" lon="2.36827">
        <ele>188.2</ele>
        <time>2019-06-02T07:35:58.000Z</time>
      </trkpt>
      <trkpt lat="43.30524" lon="2.36828">
        <ele>188.2</ele>
        <time>2019-06-02T07:35:59.000Z</time>
      </trkpt>
      <trkpt lat="43.30525" lon="2.36829">
        <ele>188.2</ele>
        <time>2019-06-02T07:36:00.000Z</time>
      </trkpt>
      <trkpt lat="43.30525" lon="2.3683">
        <ele>188.1</ele>
        <time>2019-06-02T07:36:01.000Z</time>
      </trkpt>
      <trkpt lat="43.30525" lon="2.3683">
        <ele>188.1</ele>
        <time>2019-06-02T07:36:02.000Z</time>
      </trkpt>
      <trkpt lat="43.30526" lon="2.36831">
        <ele>188.1</ele>
        <time>2019-06-02T07:36:03.000Z</time>
      </trkpt>
      <trkpt lat="43.30527" lon="2.36832">
        <ele>188.1</ele>
        <time>2019-06-02T07:36:04.000Z</time>
      </trkpt>
      <trkpt lat="43.30528" lon="2.36832">
        <ele>188</ele>
        <time>2019-06-02T07:36:05.000Z</time>
      </trkpt>
      <trkpt lat="43.30529" lon="2.36832">
        <ele>188</ele>
        <time>2019-06-02T07:36:06.000Z</time>
      </trkpt>
      <trkpt lat="43.3053" lon="2.36833">
        <ele>188</ele>
        <time>2019-06-02T07:36:07.000Z</time>
      </trkpt>
      <trkpt lat="43.30531" lon="2.36833">
        <ele>188</ele>
        <time>2019-06-02T07:36:08.000Z</time>
      </trkpt>
      <trkpt lat="43.30531" lon="2.36834">
        <ele>188</ele>
        <time>2019-06-02T07:36:09.000Z</time>
      </trkpt>
      <trkpt lat="43.30531" lon="2.36834">
        <ele>188</ele>
        <time>2019-06-02T07:36:10.000Z</time>
      </trkpt>
      <trkpt lat="43.30531" lon="2.36834">
        <ele>188</ele>
        <time>2019-06-02T07:36:11.000Z</time>
      </trkpt>
      <trkpt lat="43.30534" lon="2.36835">
        <ele>188</ele>
        <time>2019-06-02T07:36:12.000Z</time>
      </trkpt>
      <trkpt lat="43.30535" lon="2.36835">
        <ele>188</ele>
        <time>2019-06-02T07:36:13.000Z</time>
      </trkpt>
      <trkpt lat="43.30536" lon="2.36835">
        <ele>188</ele>
        <time>2019-06-02T07:36:14.000Z</time>
      </trkpt>
      <trkpt lat="43.30538" lon="2.36834">
        <ele>188</ele>
        <time>2019-06-02T07:36:15.000Z</time>
      </trkpt>
      <trkpt lat="43.30539" lon="2.36834">
        <ele>188</ele>
        <time>2019-06-02T07:36:16.000Z</time>
      </trkpt>
      <trkpt lat="43.30541" lon="2.36833">
        <ele>188</ele>
        <time>2019-06-02T07:36:17.000Z</time>
      </trkpt>
      <trkpt lat="43.30542" lon="2.36833">
        <ele>188</ele>
        <time>2019-06-02T07:36:18.000Z</time>
      </trkpt>
      <trkpt lat="43.30544" lon="2.36832">
        <ele>188</ele>
        <time>2019-06-02T07:36:19.000Z</time>
      </trkpt>
      <trkpt lat="43.30546" lon="2.36832">
        <ele>188</ele>
        <time>2019-06-02T07:36:20.000Z</time>
      </trkpt>
      <trkpt lat="43.30547" lon="2.36831">
        <ele>188</ele>
        <time>2019-06-02T07:36:21.000Z</time>
      </trkpt>
      <trkpt lat="43.30549" lon="2.36831">
        <ele>188</ele>
        <time>2019-06-02T07:36:22.000Z</time>
      </trkpt>
      <trkpt lat="43.30551" lon="2.3683">
        <ele>188</ele>
        <time>2019-06-02T07:36:23.000Z</time>
      </trkpt>
      <trkpt lat="43.30553" lon="2.3683">
        <ele>188</ele>
        <time>2019-06-02T07:36:24.000Z</time>
      </trkpt>
      <trkpt lat="43.30554" lon="2.3683">
        <ele>188</ele>
        <time>2019-06-02T07:36:25.000Z</time>
      </trkpt>
      <trkpt lat="43.30556" lon="2.3683">
        <ele>188</ele>
        <time>2019-06-02T07:36:26.000Z</time>
      </trkpt>
      <trkpt lat="43.30558" lon="2.3683">
        <ele>188</ele>
        <time>2019-06-02T07:36:27.000Z</time>
      </trkpt>
      <trkpt lat="43.30559" lon="2.36831">
        <ele>188</ele>
        <time>2019-06-02T07:36:28.000Z</time>
      </trkpt>
      <trkpt lat="43.30561" lon="2.36831">
        <ele>188</ele>
        <time>2019-06-02T07:36:29.000Z</time>
      </trkpt>
      <trkpt lat="43.30562" lon="2.36832">
        <ele>188</ele>
        <time>2019-06-02T07:36:30.000Z</time>
      </trkpt>
      <trkpt lat="43.30564" lon="2.36833">
        <ele>188</ele>
        <time>2019-06-02T07:36:31.000Z</time>
      </trkpt>
      <trkpt lat="43.30566" lon="2.36834">
        <ele>188</ele>
        <time>2019-06-02T07:36:32.000Z</time>
      </trkpt>
      <trkpt lat="43.30567" lon="2.36835">
        <ele>188</ele>
        <time>2019-06-02T07:36:33.000Z</time>
      </trkpt>
      <trkpt lat="43.30569" lon="2.36836">
        <ele>188</ele>
        <time>2019-06-02T07:36:34.000Z</time>
      </trkpt>
      <trkpt lat="43.3057" lon="2.36837">
        <ele>188</ele>
        <time>2019-06-02T07:36:35.000Z</time>
      </trkpt>
      <trkpt lat="43.30572" lon="2.36839">
        <ele>188</ele>
        <time>2019-06-02T07:36:36.000Z</time>
      </trkpt>
      <trkpt lat="43.30573" lon="2.36841">
        <ele>188</ele>
        <time>2019-06-02T07:36:37.000Z</time>
      </trkpt>
      <trkpt lat="43.30575" lon="2.36842">
        <ele>188.1</ele>
        <time>2019-06-02T07:36:38.000Z</time>
      </trkpt>
      <trkpt lat="43.30576" lon="2.36844">
        <ele>188.1</ele>
        <time>2019-06-02T07:36:39.000Z</time>
      </trkpt>
      <trkpt lat="43.30578" lon="2.36846">
        <ele>188.1</ele>
        <time>2019-06-02T07:36:40.000Z</time>
      </trkpt>
      <trkpt lat="43.30579" lon="2.36847">
        <ele>188.1</ele>
        <time>2019-06-02T07:36:41.000Z</time>
      </trkpt>
      <trkpt lat="43.30581" lon="2.36849">
        <ele>188.2</ele>
        <time>2019-06-02T07:36:42.000Z</time>
      </trkpt>
      <trkpt lat="43.30583" lon="2.3685">
        <ele>188.2</ele>
        <time>2019-06-02T07:36:43.000Z</time>
      </trkpt>
      <trkpt lat="43.30584" lon="2.36852">
        <ele>188.3</ele>
        <time>2019-06-02T07:36:44.000Z</time>
      </trkpt>
      <trkpt lat="43.30586" lon="2.36853">
        <ele>188.5</ele>
        <time>2019-06-02T07:36:45.000Z</time>
      </trkpt>
      <trkpt lat="43.30588" lon="2.36855">
        <ele>188.6</ele>
        <time>2019-06-02T07:36:46.000Z</time>
      </trkpt>
      <trkpt lat="43.30589" lon="2.36856">
        <ele>188.8</ele>
        <time>2019-06-02T07:36:47.000Z</time>
      </trkpt>
      <trkpt lat="43.30591" lon="2.36858">
        <ele>188.9</ele>
        <time>2019-06-02T07:36:48.000Z</time>
      </trkpt>
      <trkpt lat="43.30592" lon="2.3686">
        <ele>189.1</ele>
        <time>2019-06-02T07:36:49.000Z</time>
      </trkpt>
      <trkpt lat="43.30594" lon="2.36861">
        <ele>189.3</ele>
        <time>2019-06-02T07:36:50.000Z</time>
      </trkpt>
      <trkpt lat="43.30596" lon="2.36863">
        <ele>189.4</ele>
        <time>2019-06-02T07:36:51.000Z</time>
      </trkpt>
      <trkpt lat="43.30597" lon="2.36864">
        <ele>189.6</ele>
        <time>2019-06-02T07:36:52.000Z</time>
      </trkpt>
      <trkpt lat="43.30598" lon="2.36866">
        <ele>189.8</ele>
        <time>2019-06-02T07:36:53.000Z</time>
      </trkpt>
      <trkpt lat="43.306" lon="2.36868">
        <ele>189.9</ele>
        <time>2019-06-02T07:36:54.000Z</time>
      </trkpt>
      <trkpt lat="43.30601" lon="2.36869">
        <ele>190.1</ele>
        <time>2019-06-02T07:36:55.000Z</time>
      </trkpt>
      <trkpt lat="43.30603" lon="2.36871">
        <ele>190.3</ele>
        <time>2019-06-02T07:36:56.000Z</time>
      </trkpt>
      <trkpt lat="43.30604" lon="2.36873">
        <ele>190.4</ele>
        <time>2019-06-02T07:36:57.000Z</time>
      </trkpt>
      <trkpt lat="43.30605" lon="2.36875">
        <ele>190.6</ele>
        <time>2019-06-02T07:36:58.000Z</time>
      </trkpt>
      <trkpt lat="43.30606" lon="2.36876">
        <ele>190.7</ele>
        <time>2019-06-02T07:36:59.000Z</time>
      </trkpt>
      <trkpt lat="43.30608" lon="2.36878">
        <ele>190.9</ele>
        <time>2019-06-02T07:37:00.000Z</time>
      </trkpt>
      <trkpt lat="43.30609" lon="2.3688">
        <ele>191.1</ele>
        <time>2019-06-02T07:37:01.000Z</time>
      </trkpt>
      <trkpt lat="43.3061" lon="2.36881">
        <ele>191.2</ele>
        <time>2019-06-02T07:37:02.000Z</time>
      </trkpt>
      <trkpt lat="43.30612" lon="2.36883">
        <ele>191.4</ele>
        <time>2019-06-02T07:37:03.000Z</time>
      </trkpt>
      <trkpt lat="43.30613" lon="2.36884">
        <ele>191.6</ele>
        <time>2019-06-02T07:37:04.000Z</time>
      </trkpt>
      <trkpt lat="43.30614" lon="2.36885">
        <ele>191.8</ele>
        <time>2019-06-02T07:37:05.000Z</time>
      </trkpt>
      <trkpt lat="43.30616" lon="2.36887">
        <ele>192</ele>
        <time>2019-06-02T07:37:06.000Z</time>
      </trkpt>
      <trkpt lat="43.30617" lon="2.36888">
        <ele>192.2</ele>
        <time>2019-06-02T07:37:07.000Z</time>
      </trkpt>
      <trkpt lat="43.30619" lon="2.36889">
        <ele>192.4</ele>
        <time>2019-06-02T07:37:08.000Z</time>
      </trkpt>
      <trkpt lat="43.30621" lon="2.36889">
        <ele>192.6</ele>
        <time>2019-06-02T07:37:09.000Z</time>
      </trkpt>
      <trkpt lat="43.30623" lon="2.3689">
        <ele>192.8</ele>
        <time>2019-06-02T07:37:10.000Z</time>
      </trkpt>
      <trkpt lat="43.30624" lon="2.36891">
        <ele>193</ele>
        <time>2019-06-02T07:37:11.000Z</time>
      </trkpt>
      <trkpt lat="43.30626" lon="2.36891">
        <ele>193.2</ele>
        <time>2019-06-02T07:37:12.000Z</time>
      </trkpt>
      <trkpt lat="43.30628" lon="2.36892">
        <ele>193.4</ele>
        <time>2019-06-02T07:37:13.000Z</time>
      </trkpt>
      <trkpt lat="43.3063" lon="2.36892">
        <ele>193.6</ele>
        <time>2019-06-02T07:37:14.000Z</time>
      </trkpt>
      <trkpt lat="43.30632" lon="2.36892">
        <ele>193.8</ele>
        <time>2019-06-02T07:37:15.000Z</time>
      </trkpt>
      <trkpt lat="43.30634" lon="2.36892">
        <ele>194</ele>
        <time>2019-06-02T07:37:16.000Z</time>
      </trkpt>
      <trkpt lat="43.30636" lon="2.36892">
        <ele>194.2</ele>
        <time>2019-06-02T07:37:17.000Z</time>
      </trkpt>
      <trkpt lat="43.30638" lon="2.36892">
        <ele>194.4</ele>
        <time>2019-06-02T07:37:18.000Z</time>
      </trkpt>
      <trkpt lat="43.30639" lon="2.36892">
        <ele>194.6</ele>
        <time>2019-06-02T07:37:19.000Z</time>
      </trkpt>
      <trkpt lat="43.30641" lon="2.36892">
        <ele>194.8</ele>
        <time>2019-06-02T07:37:20.000Z</time>
      </trkpt>
      <trkpt lat="43.30643" lon="2.36891">
        <ele>195</ele>
        <time>2019-06-02T07:37:21.000Z</time>
      </trkpt>
      <trkpt lat="43.30645" lon="2.36891">
        <ele>195.2</ele>
        <time>2019-06-02T07:37:22.000Z</time>
      </trkpt>
      <trkpt lat="43.30647" lon="2.36891">
        <ele>195.4</ele>
        <time>2019-06-02T07:37:23.000Z</time>
      </trkpt>
      <trkpt lat="43.30648" lon="2.36891">
        <ele>195.5</ele>
        <time>2019-06-02T07:37:24.000Z</time>
      </trkpt>
      <trkpt lat="43.3065" lon="2.36891">
        <ele>195.7</ele>
        <time>2019-06-02T07:37:25.000Z</time>
      </trkpt>
      <trkpt lat="43.30652" lon="2.36892">
        <ele>195.9</ele>
        <time>2019-06-02T07:37:26.000Z</time>
      </trkpt>
      <trkpt lat="43.30653" lon="2.36892">
        <ele>196.1</ele>
        <time>2019-06-02T07:37:27.000Z</time>
      </trkpt>
      <trkpt lat="43.30655" lon="2.36892">
        <ele>196.3</ele>
        <time>2019-06-02T07:37:28.000Z</time>
      </trkpt>
      <trkpt lat="43.30656" lon="2.36893">
        <ele>196.5</ele>
        <time>2019-06-02T07:37:29.000Z</time>
      </trkpt>
      <trkpt lat="43.30657" lon="2.36894">
        <ele>196.6</ele>
        <time>2019-06-02T07:37:30.000Z</time>
      </trkpt>
      <trkpt lat="43.30659" lon="2.36895">
        <ele>196.8</ele>
        <time>2019-06-02T07:37:31.000Z</time>
      </trkpt>
      <trkpt lat="43.3066" lon="2.36896">
        <ele>197</ele>
        <time>2019-06-02T07:37:32.000Z</time>
      </trkpt>
      <trkpt lat="43.30661" lon="2.36898">
        <ele>197.2</ele>
        <time>2019-06-02T07:37:33.000Z</time>
      </trkpt>
      <trkpt lat="43.30661" lon="2.369">
        <ele>197.4</ele>
        <time>2019-06-02T07:37:34.000Z</time>
      </trkpt>
      <trkpt lat="43.30662" lon="2.36902">
        <ele>197.6</ele>
        <time>2019-06-02T07:37:35.000Z</time>
      </trkpt>
      <trkpt lat="43.30663" lon="2.36904">
        <ele>197.8</ele>
        <time>2019-06-02T07:37:36.000Z</time>
      </trkpt>
      <trkpt lat="43.30664" lon="2.36906">
        <ele>198</ele>
        <time>2019-06-02T07:37:37.000Z</time>
      </trkpt>
      <trkpt lat="43.30664" lon="2.36908">
        <ele>198.2</ele>
        <time>2019-06-02T07:37:38.000Z</time>
      </trkpt>
      <trkpt lat="43.30665" lon="2.36911">
        <ele>198.5</ele>
        <time>2019-06-02T07:37:39.000Z</time>
      </trkpt>
      <trkpt lat="43.30666" lon="2.36913">
        <ele>198.7</ele>
        <time>2019-06-02T07:37:40.000Z</time>
      </trkpt>
      <trkpt lat="43.30667" lon="2.36916">
        <ele>199</ele>
        <time>2019-06-02T07:37:41.000Z</time>
      </trkpt>
      <trkpt lat="43.30668" lon="2.36919">
        <ele>199.1</ele>
        <time>2019-06-02T07:37:42.000Z</time>
      </trkpt>
      <trkpt lat="43.30669" lon="2.36921">
        <ele>199.3</ele>
        <time>2019-06-02T07:37:43.000Z</time>
      </trkpt>
      <trkpt lat="43.3067" lon="2.36924">
        <ele>199.4</ele>
        <time>2019-06-02T07:37:44.000Z</time>
      </trkpt>
      <trkpt lat="43.3067" lon="2.36927">
        <ele>199.6</ele>
        <time>2019-06-02T07:37:45.000Z</time>
      </trkpt>
      <trkpt lat="43.30671" lon="2.36929">
        <ele>199.7</ele>
        <time>2019-06-02T07:37:46.000Z</time>
      </trkpt>
      <trkpt lat="43.30672" lon="2.36932">
        <ele>199.9</ele>
        <time>2019-06-02T07:37:47.000Z</time>
      </trkpt>
      <trkpt lat="43.30673" lon="2.36935">
        <ele>200</ele>
        <time>2019-06-02T07:37:48.000Z</time>
      </trkpt>
      <trkpt lat="43.30674" lon="2.36937">
        <ele>200.2</ele>
        <time>2019-06-02T07:37:49.000Z</time>
      </trkpt>
      <trkpt lat="43.30675" lon="2.3694">
        <ele>200.3</ele>
        <time>2019-06-02T07:37:50.000Z</time>
      </trkpt>
      <trkpt lat="43.30675" lon="2.36942">
        <ele>200.5</ele>
        <time>2019-06-02T07:37:51.000Z</time>
      </trkpt>
      <trkpt lat="43.30676" lon="2.36945">
        <ele>200.6</ele>
        <time>2019-06-02T07:37:52.000Z</time>
      </trkpt>
      <trkpt lat="43.30677" lon="2.36947">
        <ele>200.7</ele>
        <time>2019-06-02T07:37:53.000Z</time>
      </trkpt>
      <trkpt lat="43.30678" lon="2.36949">
        <ele>200.9</ele>
        <time>2019-06-02T07:37:54.000Z</time>
      </trkpt>
      <trkpt lat="43.30679" lon="2.36951">
        <ele>201</ele>
        <time>2019-06-02T07:37:55.000Z</time>
      </trkpt>
      <trkpt lat="43.30679" lon="2.36953">
        <ele>201.1</ele>
        <time>2019-06-02T07:37:56.000Z</time>
      </trkpt>
      <trkpt lat="43.3068" lon="2.36956">
        <ele>201.3</ele>
        <time>2019-06-02T07:37:57.000Z</time>
      </trkpt>
      <trkpt lat="43.30682" lon="2.36958">
        <ele>201.5</ele>
        <time>2019-06-02T07:37:58.000Z</time>
      </trkpt>
      <trkpt lat="43.30683" lon="2.36961">
        <ele>201.7</ele>
        <time>2019-06-02T07:37:59.000Z</time>
      </trkpt>
      <trkpt lat="43.30684" lon="2.36964">
        <ele>201.9</ele>
        <time>2019-06-02T07:38:00.000Z</time>
      </trkpt>
      <trkpt lat="43.30686" lon="2.36967">
        <ele>202.1</ele>
        <time>2019-06-02T07:38:01.000Z</time>
      </trkpt>
      <trkpt lat="43.30688" lon="2.36969">
        <ele>202.3</ele>
        <time>2019-06-02T07:38:02.000Z</time>
      </trkpt>
      <trkpt lat="43.30689" lon="2.36972">
        <ele>202.5</ele>
        <time>2019-06-02T07:38:03.000Z</time>
      </trkpt>
      <trkpt lat="43.3069" lon="2.36973">
        <ele>202.6</ele>
        <time>2019-06-02T07:38:04.000Z</time>
      </trkpt>
      <trkpt lat="43.30692" lon="2.36975">
        <ele>202.8</ele>
        <time>2019-06-02T07:38:05.000Z</time>
      </trkpt>
      <trkpt lat="43.30693" lon="2.36975">
        <ele>202.9</ele>
        <time>2019-06-02T07:38:06.000Z</time>
      </trkpt>
      <trkpt lat="43.30694" lon="2.36976">
        <ele>203</ele>
        <time>2019-06-02T07:38:07.000Z</time>
      </trkpt>
      <trkpt lat="43.30695" lon="2.36976">
        <ele>203.1</ele>
        <time>2019-06-02T07:38:08.000Z</time>
      </trkpt>
      <trkpt lat="43.30696" lon="2.36976">
        <ele>203.2</ele>
        <time>2019-06-02T07:38:09.000Z</time>
      </trkpt>
      <trkpt lat="43.30697" lon="2.36976">
        <ele>203.2</ele>
        <time>2019-06-02T07:38:10.000Z</time>
      </trkpt>
      <trkpt lat="43.30697" lon="2.36976">
        <ele>203.2</ele>
        <time>2019-06-02T07:38:11.000Z</time>
      </trkpt>
      <trkpt lat="43.30697" lon="2.36976">
        <ele>203.2</ele>
        <time>2019-06-02T07:38:12.000Z</time>
      </trkpt>
      <trkpt lat="43.30698" lon="2.36975">
        <ele>203.2</ele>
        <time>2019-06-02T07:38:13.000Z</time>
      </trkpt>
      <trkpt lat="43.30699" lon="2.36975">
        <ele>203.3</ele>
        <time>2019-06-02T07:38:14.000Z</time>
      </trkpt>
      <trkpt lat="43.307" lon="2.36974">
        <ele>203.4</ele>
        <time>2019-06-02T07:38:15.000Z</time>
      </trkpt>
      <trkpt lat="43.30703" lon="2.36974">
        <ele>203.5</ele>
        <time>2019-06-02T07:38:16.000Z</time>
      </trkpt>
      <trkpt lat="43.30706" lon="2.36973">
        <ele>203.7</ele>
        <time>2019-06-02T07:38:17.000Z</time>
      </trkpt>
      <trkpt lat="43.30708" lon="2.36972">
        <ele>203.8</ele>
        <time>2019-06-02T07:38:18.000Z</time>
      </trkpt>
      <trkpt lat="43.30709" lon="2.36972">
        <ele>203.9</ele>
        <time>2019-06-02T07:38:19.000Z</time>
      </trkpt>
      <trkpt lat="43.30709" lon="2.36972">
        <ele>203.9</ele>
        <time>2019-06-02T07:38:20.000Z</time>
      </trkpt>
      <trkpt lat="43.30709" lon="2.36972">
        <ele>203.9</ele>
        <time>2019-06-02T07:38:21.000Z</time>
      </trkpt>
      <trkpt lat="43.30709" lon="2.36972">
        <ele>203.9</ele>
        <time>2019-06-02T07:38:22.000Z</time>
      </trkpt>
      <trkpt lat="43.30709" lon="2.36972">
        <ele>203.9</ele>
        <time>2019-06-02T07:38:23.000Z</time>
      </trkpt>
      <trkpt lat="43.3071" lon="2.36972">
        <ele>203.9</ele>
        <time>2019-06-02T07:38:24.000Z</time>
      </trkpt>
      <trkpt lat="43.30711" lon="2.36971">
        <ele>203.9</ele>
        <time>2019-06-02T07:38:25.000Z</time>
      </trkpt>
      <trkpt lat="43.30712" lon="2.36971">
        <ele>204</ele>
        <time>2019-06-02T07:38:26.000Z</time>
      </trkpt>
      <trkpt lat="43.30715" lon="2.36969">
        <ele>204.1</ele>
        <time>2019-06-02T07:38:27.000Z</time>
      </trkpt>
      <trkpt lat="43.30717" lon="2.36968">
        <ele>204.3</ele>
        <time>2019-06-02T07:38:28.000Z</time>
      </trkpt>
      <trkpt lat="43.30719" lon="2.36968">
        <ele>204.4</ele>
        <time>2019-06-02T07:38:29.000Z</time>
      </trkpt>
      <trkpt lat="43.30721" lon="2.36968">
        <ele>204.5</ele>
        <time>2019-06-02T07:38:30.000Z</time>
      </trkpt>
      <trkpt lat="43.30722" lon="2.36968">
        <ele>204.6</ele>
        <time>2019-06-02T07:38:31.000Z</time>
      </trkpt>
      <trkpt lat="43.30724" lon="2.36967">
        <ele>204.7</ele>
        <time>2019-06-02T07:38:32.000Z</time>
      </trkpt>
      <trkpt lat="43.30725" lon="2.36967">
        <ele>204.7</ele>
        <time>2019-06-02T07:38:33.000Z</time>
      </trkpt>
      <trkpt lat="43.30726" lon="2.36967">
        <ele>204.8</ele>
        <time>2019-06-02T07:38:34.000Z</time>
      </trkpt>
      <trkpt lat="43.30728" lon="2.36967">
        <ele>204.9</ele>
        <time>2019-06-02T07:38:35.000Z</time>
      </trkpt>
      <trkpt lat="43.30729" lon="2.36967">
        <ele>205</ele>
        <time>2019-06-02T07:38:36.000Z</time>
      </trkpt>
      <trkpt lat="43.3073" lon="2.36967">
        <ele>205.1</ele>
        <time>2019-06-02T07:38:37.000Z</time>
      </trkpt>
      <trkpt lat="43.30732" lon="2.36967">
        <ele>205.2</ele>
        <time>2019-06-02T07:38:38.000Z</time>
      </trkpt>
      <trkpt lat="43.30733" lon="2.36967">
        <ele>205.3</ele>
        <time>2019-06-02T07:38:39.000Z</time>
      </trkpt>
      <trkpt lat="43.30734" lon="2.36967">
        <ele>205.4</ele>
        <time>2019-06-02T07:38:40.000Z</time>
      </trkpt>
      <trkpt lat="43.30736" lon="2.36967">
        <ele>205.4</ele>
        <time>2019-06-02T07:38:41.000Z</time>
      </trkpt>
      <trkpt lat="43.30737" lon="2.36967">
        <ele>205.5</ele>
        <time>2019-06-02T07:38:42.000Z</time>
      </trkpt>
      <trkpt lat="43.30738" lon="2.36967">
        <ele>205.6</ele>
        <time>2019-06-02T07:38:43.000Z</time>
      </trkpt>
      <trkpt lat="43.3074" lon="2.36967">
        <ele>205.7</ele>
        <time>2019-06-02T07:38:44.000Z</time>
      </trkpt>
      <trkpt lat="43.30741" lon="2.36967">
        <ele>205.8</ele>
        <time>2019-06-02T07:38:45.000Z</time>
      </trkpt>
      <trkpt lat="43.30742" lon="2.36967">
        <ele>205.9</ele>
        <time>2019-06-02T07:38:46.000Z</time>
      </trkpt>
      <trkpt lat="43.30744" lon="2.36967">
        <ele>206</ele>
        <time>2019-06-02T07:38:47.000Z</time>
      </trkpt>
      <trkpt lat="43.30745" lon="2.36967">
        <ele>206.1</ele>
        <time>2019-06-02T07:38:48.000Z</time>
      </trkpt>
      <trkpt lat="43.30746" lon="2.36966">
        <ele>206.1</ele>
        <time>2019-06-02T07:38:49.000Z</time>
      </trkpt>
      <trkpt lat="43.30748" lon="2.36966">
        <ele>206.2</ele>
        <time>2019-06-02T07:38:50.000Z</time>
      </trkpt>
      <trkpt lat="43.30749" lon="2.36966">
        <ele>206.3</ele>
        <time>2019-06-02T07:38:51.000Z</time>
      </trkpt>
      <trkpt lat="43.3075" lon="2.36966">
        <ele>206.4</ele>
        <time>2019-06-02T07:38:52.000Z</time>
      </trkpt>
      <trkpt lat="43.30752" lon="2.36966">
        <ele>206.5</ele>
        <time>2019-06-02T07:38:53.000Z</time>
      </trkpt>
      <trkpt lat="43.30753" lon="2.36966">
        <ele>206.6</ele>
        <time>2019-06-02T07:38:54.000Z</time>
      </trkpt>
      <trkpt lat="43.30755" lon="2.36966">
        <ele>206.8</ele>
        <time>2019-06-02T07:38:55.000Z</time>
      </trkpt>
      <trkpt lat="43.30756" lon="2.36966">
        <ele>206.9</ele>
        <time>2019-06-02T07:38:56.000Z</time>
      </trkpt>
      <trkpt lat="43.30757" lon="2.36966">
        <ele>207</ele>
        <time>2019-06-02T07:38:57.000Z</time>
      </trkpt>
      <trkpt lat="43.30759" lon="2.36966">
        <ele>207.1</ele>
        <time>2019-06-02T07:38:58.000Z</time>
      </trkpt>
      <trkpt lat="43.3076" lon="2.36966">
        <ele>207.2</ele>
        <time>2019-06-02T07:38:59.000Z</time>
      </trkpt>
      <trkpt lat="43.30761" lon="2.36965">
        <ele>207.3</ele>
        <time>2019-06-02T07:39:00.000Z</time>
      </trkpt>
      <trkpt lat="43.30762" lon="2.36965">
        <ele>207.4</ele>
        <time>2019-06-02T07:39:01.000Z</time>
      </trkpt>
      <trkpt lat="43.30764" lon="2.36965">
        <ele>207.5</ele>
        <time>2019-06-02T07:39:02.000Z</time>
      </trkpt>
      <trkpt lat="43.30765" lon="2.36965">
        <ele>207.6</ele>
        <time>2019-06-02T07:39:03.000Z</time>
      </trkpt>
      <trkpt lat="43.30766" lon="2.36965">
        <ele>207.7</ele>
        <time>2019-06-02T07:39:04.000Z</time>
      </trkpt>
      <trkpt lat="43.30767" lon="2.36964">
        <ele>207.8</ele>
        <time>2019-06-02T07:39:05.000Z</time>
      </trkpt>
      <trkpt lat="43.30768" lon="2.36964">
        <ele>207.9</ele>
        <time>2019-06-02T07:39:06.000Z</time>
      </trkpt>
      <trkpt lat="43.3077" lon="2.36964">
        <ele>208</ele>
        <time>2019-06-02T07:39:07.000Z</time>
      </trkpt>
      <trkpt lat="43.3077" lon="2.36963">
        <ele>208</ele>
        <time>2019-06-02T07:39:08.000Z</time>
      </trkpt>
      <trkpt lat="43.30771" lon="2.36963">
        <ele>208.1</ele>
        <time>2019-06-02T07:39:09.000Z</time>
      </trkpt>
      <trkpt lat="43.30772" lon="2.36963">
        <ele>208.2</ele>
        <time>2019-06-02T07:39:10.000Z</time>
      </trkpt>
      <trkpt lat="43.30773" lon="2.36962">
        <ele>208.2</ele>
        <time>2019-06-02T07:39:11.000Z</time>
      </trkpt>
      <trkpt lat="43.30775" lon="2.36962">
        <ele>208.4</ele>
        <time>2019-06-02T07:39:12.000Z</time>
      </trkpt>
      <trkpt lat="43.30776" lon="2.36963">
        <ele>208.5</ele>
        <time>2019-06-02T07:39:13.000Z</time>
      </trkpt>
      <trkpt lat="43.30778" lon="2.36963">
        <ele>208.7</ele>
        <time>2019-06-02T07:39:14.000Z</time>
      </trkpt>
      <trkpt lat="43.3078" lon="2.36963">
        <ele>208.9</ele>
        <time>2019-06-02T07:39:15.000Z</time>
      </trkpt>
      <trkpt lat="43.30782" lon="2.36963">
        <ele>209.1</ele>
        <time>2019-06-02T07:39:16.000Z</time>
      </trkpt>
      <trkpt lat="43.30784" lon="2.36963">
        <ele>209.3</ele>
        <time>2019-06-02T07:39:17.000Z</time>
      </trkpt>
      <trkpt lat="43.30787" lon="2.36963">
        <ele>209.5</ele>
        <time>2019-06-02T07:39:18.000Z</time>
      </trkpt>
      <trkpt lat="43.30789" lon="2.36963">
        <ele>209.7</ele>
        <time>2019-06-02T07:39:19.000Z</time>
      </trkpt>
      <trkpt lat="43.30792" lon="2.36963">
        <ele>209.9</ele>
        <time>2019-06-02T07:39:20.000Z</time>
      </trkpt>
      <trkpt lat="43.30794" lon="2.36963">
        <ele>210.1</ele>
        <time>2019-06-02T07:39:21.000Z</time>
      </trkpt>
      <trkpt lat="43.30796" lon="2.36962">
        <ele>210.3</ele>
        <time>2019-06-02T07:39:22.000Z</time>
      </trkpt>
      <trkpt lat="43.30799" lon="2.36962">
        <ele>210.5</ele>
        <time>2019-06-02T07:39:23.000Z</time>
      </trkpt>
      <trkpt lat="43.30801" lon="2.36962">
        <ele>210.7</ele>
        <time>2019-06-02T07:39:24.000Z</time>
      </trkpt>
      <trkpt lat="43.30803" lon="2.36962">
        <ele>210.8</ele>
        <time>2019-06-02T07:39:25.000Z</time>
      </trkpt>
      <trkpt lat="43.30805" lon="2.36961">
        <ele>211</ele>
        <time>2019-06-02T07:39:26.000Z</time>
      </trkpt>
      <trkpt lat="43.30807" lon="2.36961">
        <ele>211.2</ele>
        <time>2019-06-02T07:39:27.000Z</time>
      </trkpt>
      <trkpt lat="43.30809" lon="2.36961">
        <ele>211.4</ele>
        <time>2019-06-02T07:39:28.000Z</time>
      </trkpt>
      <trkpt lat="43.30812" lon="2.36961">
        <ele>211.6</ele>
        <time>2019-06-02T07:39:29.000Z</time>
      </trkpt>
      <trkpt lat="43.30814" lon="2.36961">
        <ele>211.8</ele>
        <time>2019-06-02T07:39:30.000Z</time>
      </trkpt>
      <trkpt lat="43.30816" lon="2.36961">
        <ele>212</ele>
        <time>2019-06-02T07:39:31.000Z</time>
      </trkpt>
      <trkpt lat="43.30818" lon="2.36961">
        <ele>212.2</ele>
        <time>2019-06-02T07:39:32.000Z</time>
      </trkpt>
      <trkpt lat="43.3082" lon="2.36961">
        <ele>212.4</ele>
        <time>2019-06-02T07:39:33.000Z</time>
      </trkpt>
      <trkpt lat="43.30823" lon="2.3696">
        <ele>212.6</ele>
        <time>2019-06-02T07:39:34.000Z</time>
      </trkpt>
      <trkpt lat="43.30825" lon="2.3696">
        <ele>212.8</ele>
        <time>2019-06-02T07:39:35.000Z</time>
      </trkpt>
      <trkpt lat="43.30828" lon="2.3696">
        <ele>213</ele>
        <time>2019-06-02T07:39:36.000Z</time>
      </trkpt>
      <trkpt lat="43.3083" lon="2.36959">
        <ele>213.2</ele>
        <time>2019-06-02T07:39:37.000Z</time>
      </trkpt>
      <trkpt lat="43.30832" lon="2.36959">
        <ele>213.4</ele>
        <time>2019-06-02T07:39:38.000Z</time>
      </trkpt>
      <trkpt lat="43.30835" lon="2.36958">
        <ele>213.6</ele>
        <time>2019-06-02T07:39:39.000Z</time>
      </trkpt>
      <trkpt lat="43.30837" lon="2.36957">
        <ele>213.8</ele>
        <time>2019-06-02T07:39:40.000Z</time>
      </trkpt>
      <trkpt lat="43.3084" lon="2.36956">
        <ele>214</ele>
        <time>2019-06-02T07:39:41.000Z</time>
      </trkpt>
      <trkpt lat="43.30842" lon="2.36955">
        <ele>214.2</ele>
        <time>2019-06-02T07:39:42.000Z</time>
      </trkpt>
      <trkpt lat="43.30844" lon="2.36954">
        <ele>214.4</ele>
        <time>2019-06-02T07:39:43.000Z</time>
      </trkpt>
      <trkpt lat="43.30846" lon="2.36953">
        <ele>214.6</ele>
        <time>2019-06-02T07:39:44.000Z</time>
      </trkpt>
      <trkpt lat="43.30848" lon="2.36952">
        <ele>214.8</ele>
        <time>2019-06-02T07:39:45.000Z</time>
      </trkpt>
      <trkpt lat="43.3085" lon="2.36951">
        <ele>215</ele>
        <time>2019-06-02T07:39:46.000Z</time>
      </trkpt>
      <trkpt lat="43.30852" lon="2.3695">
        <ele>215.1</ele>
        <time>2019-06-02T07:39:47.000Z</time>
      </trkpt>
      <trkpt lat="43.30855" lon="2.36949">
        <ele>215.3</ele>
        <time>2019-06-02T07:39:48.000Z</time>
      </trkpt>
      <trkpt lat="43.30857" lon="2.36948">
        <ele>215.5</ele>
        <time>2019-06-02T07:39:49.000Z</time>
      </trkpt>
      <trkpt lat="43.30859" lon="2.36947">
        <ele>215.7</ele>
        <time>2019-06-02T07:39:50.000Z</time>
      </trkpt>
      <trkpt lat="43.30861" lon="2.36946">
        <ele>215.9</ele>
        <time>2019-06-02T07:39:51.000Z</time>
      </trkpt>
      <trkpt lat="43.30864" lon="2.36945">
        <ele>216.1</ele>
        <time>2019-06-02T07:39:52.000Z</time>
      </trkpt>
      <trkpt lat="43.30866" lon="2.36944">
        <ele>216.3</ele>
        <time>2019-06-02T07:39:53.000Z</time>
      </trkpt>
      <trkpt lat="43.30868" lon="2.36943">
        <ele>216.5</ele>
        <time>2019-06-02T07:39:54.000Z</time>
      </trkpt>
      <trkpt lat="43.3087" lon="2.36942">
        <ele>216.7</ele>
        <time>2019-06-02T07:39:55.000Z</time>
      </trkpt>
      <trkpt lat="43.30873" lon="2.36942">
        <ele>216.9</ele>
        <time>2019-06-02T07:39:56.000Z</time>
      </trkpt>
      <trkpt lat="43.30875" lon="2.36941">
        <ele>217.1</ele>
        <time>2019-06-02T07:39:57.000Z</time>
      </trkpt>
      <trkpt lat="43.30877" lon="2.3694">
        <ele>217.4</ele>
        <time>2019-06-02T07:39:58.000Z</time>
      </trkpt>
      <trkpt lat="43.3088" lon="2.3694">
        <ele>217.6</ele>
        <time>2019-06-02T07:39:59.000Z</time>
      </trkpt>
      <trkpt lat="43.30882" lon="2.36939">
        <ele>217.8</ele>
        <time>2019-06-02T07:40:00.000Z</time>
      </trkpt>
      <trkpt lat="43.30884" lon="2.36939">
        <ele>218</ele>
        <time>2019-06-02T07:40:01.000Z</time>
      </trkpt>
      <trkpt lat="43.30886" lon="2.36939">
        <ele>218.2</ele>
        <time>2019-06-02T07:40:02.000Z</time>
      </trkpt>
      <trkpt lat="43.30889" lon="2.36939">
        <ele>218.4</ele>
        <time>2019-06-02T07:40:03.000Z</time>
      </trkpt>
      <trkpt lat="43.30891" lon="2.36939">
        <ele>218.6</ele>
        <time>2019-06-02T07:40:04.000Z</time>
      </trkpt>
      <trkpt lat="43.30893" lon="2.36939">
        <ele>218.8</ele>
        <time>2019-06-02T07:40:05.000Z</time>
      </trkpt>
      <trkpt lat="43.30895" lon="2.3694">
        <ele>219</ele>
        <time>2019-06-02T07:40:06.000Z</time>
      </trkpt>
      <trkpt lat="43.30897" lon="2.3694">
        <ele>219.1</ele>
        <time>2019-06-02T07:40:07.000Z</time>
      </trkpt>
      <trkpt lat="43.30898" lon="2.36941">
        <ele>219.3</ele>
        <time>2019-06-02T07:40:08.000Z</time>
      </trkpt>
      <trkpt lat="43.30899" lon="2.36942">
        <ele>219.4</ele>
        <time>2019-06-02T07:40:09.000Z</time>
      </trkpt>
      <trkpt lat="43.309" lon="2.36942">
        <ele>219.5</ele>
        <time>2019-06-02T07:40:10.000Z</time>
      </trkpt>
      <trkpt lat="43.30901" lon="2.36941">
        <ele>219.5</ele>
        <time>2019-06-02T07:40:11.000Z</time>
      </trkpt>
      <trkpt lat="43.30902" lon="2.36941">
        <ele>219.6</ele>
        <time>2019-06-02T07:40:12.000Z</time>
      </trkpt>
      <trkpt lat="43.30903" lon="2.36941">
        <ele>219.8</ele>
        <time>2019-06-02T07:40:13.000Z</time>
      </trkpt>
      <trkpt lat="43.30905" lon="2.3694">
        <ele>219.9</ele>
        <time>2019-06-02T07:40:14.000Z</time>
      </trkpt>
      <trkpt lat="43.30907" lon="2.3694">
        <ele>220.1</ele>
        <time>2019-06-02T07:40:15.000Z</time>
      </trkpt>
      <trkpt lat="43.30908" lon="2.36939">
        <ele>220.2</ele>
        <time>2019-06-02T07:40:16.000Z</time>
      </trkpt>
      <trkpt lat="43.30909" lon="2.36939">
        <ele>220.2</ele>
        <time>2019-06-02T07:40:17.000Z</time>
      </trkpt>
      <trkpt lat="43.30909" lon="2.36938">
        <ele>220.3</ele>
        <time>2019-06-02T07:40:18.000Z</time>
      </trkpt>
      <trkpt lat="43.3091" lon="2.36938">
        <ele>220.3</ele>
        <time>2019-06-02T07:40:19.000Z</time>
      </trkpt>
      <trkpt lat="43.3091" lon="2.36938">
        <ele>220.4</ele>
        <time>2019-06-02T07:40:20.000Z</time>
      </trkpt>
      <trkpt lat="43.3091" lon="2.36937">
        <ele>220.4</ele>
        <time>2019-06-02T07:40:21.000Z</time>
      </trkpt>
      <trkpt lat="43.3091" lon="2.36937">
        <ele>220.4</ele>
        <time>2019-06-02T07:40:22.000Z</time>
      </trkpt>
      <trkpt lat="43.3091" lon="2.36937">
        <ele>220.4</ele>
        <time>2019-06-02T07:40:23.000Z</time>
      </trkpt>
      <trkpt lat="43.3091" lon="2.36937">
        <ele>220.4</ele>
        <time>2019-06-02T07:40:24.000Z</time>
      </trkpt>
      <trkpt lat="43.3091" lon="2.36937">
        <ele>220.4</ele>
        <time>2019-06-02T07:40:25.000Z</time>
      </trkpt>
      <trkpt lat="43.3091" lon="2.36937">
        <ele>220.4</ele>
        <time>2019-06-02T07:40:26.000Z</time>
      </trkpt>
      <trkpt lat="43.3091" lon="2.36937">
        <ele>220.4</ele>
        <time>2019-06-02T07:40:27.000Z</time>
      </trkpt>
      <trkpt lat="43.3091" lon="2.36937">
        <ele>220.4</ele>
        <time>2019-06-02T07:40:28.000Z</time>
      </trkpt>
      <trkpt lat="43.3091" lon="2.36937">
        <ele>220.4</ele>
        <time>2019-06-02T07:40:29.000Z</time>
      </trkpt>
      <trkpt lat="43.3091" lon="2.36937">
        <ele>220.4</ele>
        <time>2019-06-02T07:40:30.000Z</time>
      </trkpt>
      <trkpt lat="43.3091" lon="2.36937">
        <ele>220.4</ele>
        <time>2019-06-02T07:40:31.000Z</time>
      </trkpt>
      <trkpt lat="43.3091" lon="2.36937">
        <ele>220.4</ele>
        <time>2019-06-02T07:40:32.000Z</time>
      </trkpt>
      <trkpt lat="43.3091" lon="2.36937">
        <ele>220.4</ele>
        <time>2019-06-02T07:40:33.000Z</time>
      </trkpt>
      <trkpt lat="43.3091" lon="2.36937">
        <ele>220.4</ele>
        <time>2019-06-02T07:40:34.000Z</time>
      </trkpt>
      <trkpt lat="43.3091" lon="2.36937">
        <ele>220.4</ele>
        <time>2019-06-02T07:40:35.000Z</time>
      </trkpt>
      <trkpt lat="43.3091" lon="2.36937">
        <ele>220.4</ele>
        <time>2019-06-02T07:40:36.000Z</time>
      </trkpt>
      <trkpt lat="43.3091" lon="2.36937">
        <ele>220.4</ele>
        <time>2019-06-02T07:40:37.000Z</time>
      </trkpt>
      <trkpt lat="43.3091" lon="2.36937">
        <ele>220.4</ele>
        <time>2019-06-02T07:40:38.000Z</time>
      </trkpt>
      <trkpt lat="43.3091" lon="2.36937">
        <ele>220.4</ele>
        <time>2019-06-02T07:40:39.000Z</time>
      </trkpt>
      <trkpt lat="43.3091" lon="2.36937">
        <ele>220.4</ele>
        <time>2019-06-02T07:40:40.000Z</time>
      </trkpt>
      <trkpt lat="43.3091" lon="2.36937">
        <ele>220.4</ele>
        <time>2019-06-02T07:40:41.000Z</time>
      </trkpt>
      <trkpt lat="43.3091" lon="2.36937">
        <ele>220.4</ele>
        <time>2019-06-02T07:40:42.000Z</time>
      </trkpt>
      <trkpt lat="43.3091" lon="2.36937">
        <ele>220.4</ele>
        <time>2019-06-02T07:40:43.000Z</time>
      </trkpt>
      <trkpt lat="43.3091" lon="2.36937">
        <ele>220.4</ele>
        <time>2019-06-02T07:40:44.000Z</time>
      </trkpt>
      <trkpt lat="43.3091" lon="2.36937">
        <ele>220.4</ele>
        <time>2019-06-02T07:40:45.000Z</time>
      </trkpt>
      <trkpt lat="43.3091" lon="2.36937">
        <ele>220.4</ele>
        <time>2019-06-02T07:40:46.000Z</time>
      </trkpt>
      <trkpt lat="43.3091" lon="2.36937">
        <ele>220.4</ele>
        <time>2019-06-02T07:40:47.000Z</time>
      </trkpt>
      <trkpt lat="43.3091" lon="2.36937">
        <ele>220.4</ele>
        <time>2019-06-02T07:40:48.000Z</time>
      </trkpt>
      <trkpt lat="43.3091" lon="2.36937">
        <ele>220.4</ele>
        <time>2019-06-02T07:40:49.000Z</time>
      </trkpt>
      <trkpt lat="43.3091" lon="2.36937">
        <ele>220.4</ele>
        <time>2019-06-02T07:40:50.000Z</time>
      </trkpt>
      <trkpt lat="43.3091" lon="2.36937">
        <ele>220.4</ele>
        <time>2019-06-02T07:40:51.000Z</time>
      </trkpt>
      <trkpt lat="43.3091" lon="2.36937">
        <ele>220.4</ele>
        <time>2019-06-02T07:40:52.000Z</time>
      </trkpt>
      <trkpt lat="43.3091" lon="2.36937">
        <ele>220.4</ele>
        <time>2019-06-02T07:40:53.000Z</time>
      </trkpt>
      <trkpt lat="43.3091" lon="2.36937">
        <ele>220.4</ele>
        <time>2019-06-02T07:40:54.000Z</time>
      </trkpt>
      <trkpt lat="43.3091" lon="2.36937">
        <ele>220.4</ele>
        <time>2019-06-02T07:40:55.000Z</time>
      </trkpt>
      <trkpt lat="43.3091" lon="2.36937">
        <ele>220.4</ele>
        <time>2019-06-02T07:40:56.000Z</time>
      </trkpt>
      <trkpt lat="43.3091" lon="2.36937">
        <ele>220.4</ele>
        <time>2019-06-02T07:40:57.000Z</time>
      </trkpt>
      <trkpt lat="43.3091" lon="2.36937">
        <ele>220.4</ele>
        <time>2019-06-02T07:40:58.000Z</time>
      </trkpt>
      <trkpt lat="43.3091" lon="2.36937">
        <ele>220.4</ele>
        <time>2019-06-02T07:40:59.000Z</time>
      </trkpt>
      <trkpt lat="43.3091" lon="2.36937">
        <ele>220.4</ele>
        <time>2019-06-02T07:41:00.000Z</time>
      </trkpt>
      <trkpt lat="43.3091" lon="2.36937">
        <ele>220.4</ele>
        <time>2019-06-02T07:41:01.000Z</time>
      </trkpt>
      <trkpt lat="43.3091" lon="2.36937">
        <ele>220.4</ele>
        <time>2019-06-02T07:41:02.000Z</time>
      </trkpt>
      <trkpt lat="43.3091" lon="2.36937">
        <ele>220.4</ele>
        <time>2019-06-02T07:41:03.000Z</time>
      </trkpt>
      <trkpt lat="43.3091" lon="2.36937">
        <ele>220.4</ele>
        <time>2019-06-02T07:41:04.000Z</time>
      </trkpt>
      <trkpt lat="43.3091" lon="2.36937">
        <ele>220.4</ele>
        <time>2019-06-02T07:41:05.000Z</time>
      </trkpt>
      <trkpt lat="43.3091" lon="2.36937">
        <ele>220.4</ele>
        <time>2019-06-02T07:41:06.000Z</time>
      </trkpt>
      <trkpt lat="43.3091" lon="2.36937">
        <ele>220.4</ele>
        <time>2019-06-02T07:41:07.000Z</time>
      </trkpt>
      <trkpt lat="43.3091" lon="2.36937">
        <ele>220.4</ele>
        <time>2019-06-02T07:41:08.000Z</time>
      </trkpt>
      <trkpt lat="43.3091" lon="2.36937">
        <ele>220.4</ele>
        <time>2019-06-02T07:41:09.000Z</time>
      </trkpt>
      <trkpt lat="43.3091" lon="2.36937">
        <ele>220.4</ele>
        <time>2019-06-02T07:41:10.000Z</time>
      </trkpt>
      <trkpt lat="43.3091" lon="2.36937">
        <ele>220.4</ele>
        <time>2019-06-02T07:41:11.000Z</time>
      </trkpt>
      <trkpt lat="43.3091" lon="2.36937">
        <ele>220.4</ele>
        <time>2019-06-02T07:41:12.000Z</time>
      </trkpt>
      <trkpt lat="43.3091" lon="2.36937">
        <ele>220.4</ele>
        <time>2019-06-02T07:41:13.000Z</time>
      </trkpt>
      <trkpt lat="43.3091" lon="2.36937">
        <ele>220.4</ele>
        <time>2019-06-02T07:41:14.000Z</time>
      </trkpt>
      <trkpt lat="43.3091" lon="2.36937">
        <ele>220.4</ele>
        <time>2019-06-02T07:41:15.000Z</time>
      </trkpt>
      <trkpt lat="43.3091" lon="2.36937">
        <ele>220.4</ele>
        <time>2019-06-02T07:41:16.000Z</time>
      </trkpt>
      <trkpt lat="43.3091" lon="2.36937">
        <ele>220.4</ele>
        <time>2019-06-02T07:41:17.000Z</time>
      </trkpt>
      <trkpt lat="43.3091" lon="2.36937">
        <ele>220.4</ele>
        <time>2019-06-02T07:41:18.000Z</time>
      </trkpt>
      <trkpt lat="43.3091" lon="2.36937">
        <ele>220.4</ele>
        <time>2019-06-02T07:41:19.000Z</time>
      </trkpt>
      <trkpt lat="43.3091" lon="2.36937">
        <ele>220.4</ele>
        <time>2019-06-02T07:41:20.000Z</time>
      </trkpt>
      <trkpt lat="43.3091" lon="2.36937">
        <ele>220.4</ele>
        <time>2019-06-02T07:41:21.000Z</time>
      </trkpt>
      <trkpt lat="43.3091" lon="2.36937">
        <ele>220.4</ele>
        <time>2019-06-02T07:41:22.000Z</time>
      </trkpt>
      <trkpt lat="43.3091" lon="2.36937">
        <ele>220.4</ele>
        <time>2019-06-02T07:41:23.000Z</time>
      </trkpt>
      <trkpt lat="43.3091" lon="2.36937">
        <ele>220.4</ele>
        <time>2019-06-02T07:41:24.000Z</time>
      </trkpt>
      <trkpt lat="43.3091" lon="2.36937">
        <ele>220.4</ele>
        <time>2019-06-02T07:41:25.000Z</time>
      </trkpt>
      <trkpt lat="43.3091" lon="2.36937">
        <ele>220.4</ele>
        <time>2019-06-02T07:41:26.000Z</time>
      </trkpt>
      <trkpt lat="43.3091" lon="2.36937">
        <ele>220.4</ele>
        <time>2019-06-02T07:41:27.000Z</time>
      </trkpt>
      <trkpt lat="43.3091" lon="2.36937">
        <ele>220.4</ele>
        <time>2019-06-02T07:41:28.000Z</time>
      </trkpt>
      <trkpt lat="43.3091" lon="2.36937">
        <ele>220.4</ele>
        <time>2019-06-02T07:41:29.000Z</time>
      </trkpt>
      <trkpt lat="43.3091" lon="2.36937">
        <ele>220.4</ele>
        <time>2019-06-02T07:41:30.000Z</time>
      </trkpt>
      <trkpt lat="43.3091" lon="2.36937">
        <ele>220.4</ele>
        <time>2019-06-02T07:41:31.000Z</time>
      </trkpt>
      <trkpt lat="43.3091" lon="2.36937">
        <ele>220.4</ele>
        <time>2019-06-02T07:41:32.000Z</time>
      </trkpt>
      <trkpt lat="43.3091" lon="2.36937">
        <ele>220.4</ele>
        <time>2019-06-02T07:41:33.000Z</time>
      </trkpt>
      <trkpt lat="43.3091" lon="2.36937">
        <ele>220.4</ele>
        <time>2019-06-02T07:41:34.000Z</time>
      </trkpt>
      <trkpt lat="43.3091" lon="2.36937">
        <ele>220.4</ele>
        <time>2019-06-02T07:41:35.000Z</time>
      </trkpt>
      <trkpt lat="43.3091" lon="2.36937">
        <ele>220.4</ele>
        <time>2019-06-02T07:41:36.000Z</time>
      </trkpt>
      <trkpt lat="43.3091" lon="2.36937">
        <ele>220.4</ele>
        <time>2019-06-02T07:41:37.000Z</time>
      </trkpt>
      <trkpt lat="43.3091" lon="2.36937">
        <ele>220.4</ele>
        <time>2019-06-02T07:41:38.000Z</time>
      </trkpt>
      <trkpt lat="43.30911" lon="2.36936">
        <ele>220.5</ele>
        <time>2019-06-02T07:41:39.000Z</time>
      </trkpt>
      <trkpt lat="43.30913" lon="2.36934">
        <ele>220.6</ele>
        <time>2019-06-02T07:41:40.000Z</time>
      </trkpt>
      <trkpt lat="43.30914" lon="2.36932">
        <ele>220.7</ele>
        <time>2019-06-02T07:41:41.000Z</time>
      </trkpt>
      <trkpt lat="43.30915" lon="2.3693">
        <ele>220.8</ele>
        <time>2019-06-02T07:41:42.000Z</time>
      </trkpt>
      <trkpt lat="43.30916" lon="2.36929">
        <ele>220.9</ele>
        <time>2019-06-02T07:41:43.000Z</time>
      </trkpt>
      <trkpt lat="43.30917" lon="2.36927">
        <ele>221.1</ele>
        <time>2019-06-02T07:41:44.000Z</time>
      </trkpt>
      <trkpt lat="43.30919" lon="2.36925">
        <ele>221.2</ele>
        <time>2019-06-02T07:41:45.000Z</time>
      </trkpt>
      <trkpt lat="43.3092" lon="2.36923">
        <ele>221.4</ele>
        <time>2019-06-02T07:41:46.000Z</time>
      </trkpt>
      <trkpt lat="43.30922" lon="2.36921">
        <ele>221.5</ele>
        <time>2019-06-02T07:41:47.000Z</time>
      </trkpt>
      <trkpt lat="43.30923" lon="2.3692">
        <ele>221.7</ele>
        <time>2019-06-02T07:41:48.000Z</time>
      </trkpt>
      <trkpt lat="43.30925" lon="2.36918">
        <ele>221.9</ele>
        <time>2019-06-02T07:41:49.000Z</time>
      </trkpt>
      <trkpt lat="43.30926" lon="2.36916">
        <ele>222</ele>
        <time>2019-06-02T07:41:50.000Z</time>
      </trkpt>
      <trkpt lat="43.30928" lon="2.36914">
        <ele>222</ele>
        <time>2019-06-02T07:41:51.000Z</time>
      </trkpt>
      <trkpt lat="43.30929" lon="2.36913">
        <ele>222.1</ele>
        <time>2019-06-02T07:41:52.000Z</time>
      </trkpt>
      <trkpt lat="43.30931" lon="2.36911">
        <ele>222.2</ele>
        <time>2019-06-02T07:41:53.000Z</time>
      </trkpt>
      <trkpt lat="43.30933" lon="2.3691">
        <ele>222.3</ele>
        <time>2019-06-02T07:41:54.000Z</time>
      </trkpt>
      <trkpt lat="43.30934" lon="2.36908">
        <ele>222.3</ele>
        <time>2019-06-02T07:41:55.000Z</time>
      </trkpt>
      <trkpt lat="43.30936" lon="2.36907">
        <ele>222.4</ele>
        <time>2019-06-02T07:41:56.000Z</time>
      </trkpt>
      <trkpt lat="43.30938" lon="2.36905">
        <ele>222.5</ele>
        <time>2019-06-02T07:41:57.000Z</time>
      </trkpt>
      <trkpt lat="43.3094" lon="2.36904">
        <ele>222.6</ele>
        <time>2019-06-02T07:41:58.000Z</time>
      </trkpt>
      <trkpt lat="43.30942" lon="2.36902">
        <ele>222.8</ele>
        <time>2019-06-02T07:41:59.000Z</time>
      </trkpt>
      <trkpt lat="43.30944" lon="2.36901">
        <ele>222.9</ele>
        <time>2019-06-02T07:42:00.000Z</time>
      </trkpt>
      <trkpt lat="43.30945" lon="2.369">
        <ele>223</ele>
        <time>2019-06-02T07:42:01.000Z</time>
      </trkpt>
      <trkpt lat="43.30947" lon="2.36899">
        <ele>223.2</ele>
        <time>2019-06-02T07:42:02.000Z</time>
      </trkpt>
      <trkpt lat="43.30949" lon="2.36898">
        <ele>223.3</ele>
        <time>2019-06-02T07:42:03.000Z</time>
      </trkpt>
      <trkpt lat="43.30951" lon="2.36896">
        <ele>223.5</ele>
        <time>2019-06-02T07:42:04.000Z</time>
      </trkpt>
      <trkpt lat="43.30953" lon="2.36895">
        <ele>223.6</ele>
        <time>2019-06-02T07:42:05.000Z</time>
      </trkpt>
      <trkpt lat="43.30955" lon="2.36894">
        <ele>223.8</ele>
        <time>2019-06-02T07:42:06.000Z</time>
      </trkpt>
      <trkpt lat="43.30957" lon="2.36893">
        <ele>224</ele>
        <time>2019-06-02T07:42:07.000Z</time>
      </trkpt>
      <trkpt lat="43.3096" lon="2.36893">
        <ele>224.2</ele>
        <time>2019-06-02T07:42:08.000Z</time>
      </trkpt>
      <trkpt lat="43.30962" lon="2.36892">
        <ele>224.4</ele>
        <time>2019-06-02T07:42:09.000Z</time>
      </trkpt>
      <trkpt lat="43.30964" lon="2.36891">
        <ele>224.6</ele>
        <time>2019-06-02T07:42:10.000Z</time>
      </trkpt>
      <trkpt lat="43.30966" lon="2.3689">
        <ele>224.8</ele>
        <time>2019-06-02T07:42:11.000Z</time>
      </trkpt>
      <trkpt lat="43.30968" lon="2.3689">
        <ele>225</ele>
        <time>2019-06-02T07:42:12.000Z</time>
      </trkpt>
      <trkpt lat="43.3097" lon="2.36889">
        <ele>225.2</ele>
        <time>2019-06-02T07:42:13.000Z</time>
      </trkpt>
      <trkpt lat="43.30972" lon="2.36889">
        <ele>225.4</ele>
        <time>2019-06-02T07:42:14.000Z</time>
      </trkpt>
      <trkpt lat="43.30974" lon="2.36888">
        <ele>225.6</ele>
        <time>2019-06-02T07:42:15.000Z</time>
      </trkpt>
      <trkpt lat="43.30976" lon="2.36888">
        <ele>225.8</ele>
        <time>2019-06-02T07:42:16.000Z</time>
      </trkpt>
      <trkpt lat="43.30978" lon="2.36887">
        <ele>226</ele>
        <time>2019-06-02T07:42:17.000Z</time>
      </trkpt>
      <trkpt lat="43.3098" lon="2.36886">
        <ele>226.2</ele>
        <time>2019-06-02T07:42:18.000Z</time>
      </trkpt>
      <trkpt lat="43.30982" lon="2.36885">
        <ele>226.3</ele>
        <time>2019-06-02T07:42:19.000Z</time>
      </trkpt>
      <trkpt lat="43.30983" lon="2.36884">
        <ele>226.5</ele>
        <time>2019-06-02T07:42:20.000Z</time>
      </trkpt>
      <trkpt lat="43.30985" lon="2.36883">
        <ele>226.6</ele>
        <time>2019-06-02T07:42:21.000Z</time>
      </trkpt>
      <trkpt lat="43.30986" lon="2.36881">
        <ele>226.7</ele>
        <time>2019-06-02T07:42:22.000Z</time>
      </trkpt>
      <trkpt lat="43.30988" lon="2.3688">
        <ele>226.8</ele>
        <time>2019-06-02T07:42:23.000Z</time>
      </trkpt>
      <trkpt lat="43.30989" lon="2.36879">
        <ele>226.9</ele>
        <time>2019-06-02T07:42:24.000Z</time>
      </trkpt>
      <trkpt lat="43.30991" lon="2.36877">
        <ele>227</ele>
        <time>2019-06-02T07:42:25.000Z</time>
      </trkpt>
      <trkpt lat="43.30992" lon="2.36876">
        <ele>227.1</ele>
        <time>2019-06-02T07:42:26.000Z</time>
      </trkpt>
      <trkpt lat="43.30993" lon="2.36874">
        <ele>227.2</ele>
        <time>2019-06-02T07:42:27.000Z</time>
      </trkpt>
      <trkpt lat="43.30995" lon="2.36873">
        <ele>227.3</ele>
        <time>2019-06-02T07:42:28.000Z</time>
      </trkpt>
      <trkpt lat="43.30996" lon="2.36872">
        <ele>227.4</ele>
        <time>2019-06-02T07:42:29.000Z</time>
      </trkpt>
      <trkpt lat="43.30998" lon="2.36871">
        <ele>227.5</ele>
        <time>2019-06-02T07:42:30.000Z</time>
      </trkpt>
      <trkpt lat="43.31" lon="2.36869">
        <ele>227.7</ele>
        <time>2019-06-02T07:42:31.000Z</time>
      </trkpt>
      <trkpt lat="43.31001" lon="2.36868">
        <ele>227.8</ele>
        <time>2019-06-02T07:42:32.000Z</time>
      </trkpt>
      <trkpt lat="43.31003" lon="2.36867">
        <ele>227.9</ele>
        <time>2019-06-02T07:42:33.000Z</time>
      </trkpt>
      <trkpt lat="43.31004" lon="2.36866">
        <ele>228</ele>
        <time>2019-06-02T07:42:34.000Z</time>
      </trkpt>
      <trkpt lat="43.31006" lon="2.36865">
        <ele>228.2</ele>
        <time>2019-06-02T07:42:35.000Z</time>
      </trkpt>
      <trkpt lat="43.31007" lon="2.36864">
        <ele>228.3</ele>
        <time>2019-06-02T07:42:36.000Z</time>
      </trkpt>
      <trkpt lat="43.31008" lon="2.36863">
        <ele>228.5</ele>
        <time>2019-06-02T07:42:37.000Z</time>
      </trkpt>
      <trkpt lat="43.3101" lon="2.36862">
        <ele>228.6</ele>
        <time>2019-06-02T07:42:38.000Z</time>
      </trkpt>
      <trkpt lat="43.31011" lon="2.36861">
        <ele>228.8</ele>
        <time>2019-06-02T07:42:39.000Z</time>
      </trkpt>
      <trkpt lat="43.31013" lon="2.3686">
        <ele>228.9</ele>
        <time>2019-06-02T07:42:40.000Z</time>
      </trkpt>
      <trkpt lat="43.31014" lon="2.36859">
        <ele>229.1</ele>
        <time>2019-06-02T07:42:41.000Z</time>
      </trkpt>
      <trkpt lat="43.31015" lon="2.36858">
        <ele>229.2</ele>
        <time>2019-06-02T07:42:42.000Z</time>
      </trkpt>
      <trkpt lat="43.31016" lon="2.36857">
        <ele>229.4</ele>
        <time>2019-06-02T07:42:43.000Z</time>
      </trkpt>
      <trkpt lat="43.31018" lon="2.36856">
        <ele>229.5</ele>
        <time>2019-06-02T07:42:44.000Z</time>
      </trkpt>
      <trkpt lat="43.31019" lon="2.36855">
        <ele>229.7</ele>
        <time>2019-06-02T07:42:45.000Z</time>
      </trkpt>
      <trkpt lat="43.3102" lon="2.36854">
        <ele>229.9</ele>
        <time>2019-06-02T07:42:46.000Z</time>
      </trkpt>
      <trkpt lat="43.31021" lon="2.36852">
        <ele>230.1</ele>
        <time>2019-06-02T07:42:47.000Z</time>
      </trkpt>
      <trkpt lat="43.31023" lon="2.36851">
        <ele>230.3</ele>
        <time>2019-06-02T07:42:48.000Z</time>
      </trkpt>
      <trkpt lat="43.31024" lon="2.3685">
        <ele>230.5</ele>
        <time>2019-06-02T07:42:49.000Z</time>
      </trkpt>
      <trkpt lat="43.31026" lon="2.36849">
        <ele>230.8</ele>
        <time>2019-06-02T07:42:50.000Z</time>
      </trkpt>
      <trkpt lat="43.31027" lon="2.36848">
        <ele>231</ele>
        <time>2019-06-02T07:42:51.000Z</time>
      </trkpt>
      <trkpt lat="43.31029" lon="2.36847">
        <ele>231.3</ele>
        <time>2019-06-02T07:42:52.000Z</time>
      </trkpt>
      <trkpt lat="43.31031" lon="2.36846">
        <ele>231.6</ele>
        <time>2019-06-02T07:42:53.000Z</time>
      </trkpt>
      <trkpt lat="43.31032" lon="2.36845">
        <ele>231.9</ele>
        <time>2019-06-02T07:42:54.000Z</time>
      </trkpt>
      <trkpt lat="43.31034" lon="2.36843">
        <ele>232.2</ele>
        <time>2019-06-02T07:42:55.000Z</time>
      </trkpt>
      <trkpt lat="43.31035" lon="2.36842">
        <ele>232.5</ele>
        <time>2019-06-02T07:42:56.000Z</time>
      </trkpt>
      <trkpt lat="43.31037" lon="2.3684">
        <ele>232.8</ele>
        <time>2019-06-02T07:42:57.000Z</time>
      </trkpt>
      <trkpt lat="43.31038" lon="2.36838">
        <ele>233.1</ele>
        <time>2019-06-02T07:42:58.000Z</time>
      </trkpt>
      <trkpt lat="43.31039" lon="2.36836">
        <ele>233.4</ele>
        <time>2019-06-02T07:42:59.000Z</time>
      </trkpt>
      <trkpt lat="43.3104" lon="2.36834">
        <ele>233.7</ele>
        <time>2019-06-02T07:43:00.000Z</time>
      </trkpt>
      <trkpt lat="43.31041" lon="2.36832">
        <ele>233.9</ele>
        <time>2019-06-02T07:43:01.000Z</time>
      </trkpt>
      <trkpt lat="43.31042" lon="2.3683">
        <ele>234</ele>
        <time>2019-06-02T07:43:02.000Z</time>
      </trkpt>
      <trkpt lat="43.31043" lon="2.36827">
        <ele>234.1</ele>
        <time>2019-06-02T07:43:03.000Z</time>
      </trkpt>
      <trkpt lat="43.31043" lon="2.36825">
        <ele>234.2</ele>
        <time>2019-06-02T07:43:04.000Z</time>
      </trkpt>
      <trkpt lat="43.31044" lon="2.36822">
        <ele>234.3</ele>
        <time>2019-06-02T07:43:05.000Z</time>
      </trkpt>
      <trkpt lat="43.31045" lon="2.3682">
        <ele>234.4</ele>
        <time>2019-06-02T07:43:06.000Z</time>
      </trkpt>
      <trkpt lat="43.31046" lon="2.36818">
        <ele>234.5</ele>
        <time>2019-06-02T07:43:07.000Z</time>
      </trkpt>
      <trkpt lat="43.31046" lon="2.36815">
        <ele>234.7</ele>
        <time>2019-06-02T07:43:08.000Z</time>
      </trkpt>
      <trkpt lat="43.31047" lon="2.36813">
        <ele>234.8</ele>
        <time>2019-06-02T07:43:09.000Z</time>
      </trkpt>
      <trkpt lat="43.31048" lon="2.36811">
        <ele>235</ele>
        <time>2019-06-02T07:43:10.000Z</time>
      </trkpt>
      <trkpt lat="43.3105" lon="2.36809">
        <ele>235.2</ele>
        <time>2019-06-02T07:43:11.000Z</time>
      </trkpt>
      <trkpt lat="43.31051" lon="2.36807">
        <ele>235.5</ele>
        <time>2019-06-02T07:43:12.000Z</time>
      </trkpt>
      <trkpt lat="43.31052" lon="2.36806">
        <ele>235.7</ele>
        <time>2019-06-02T07:43:13.000Z</time>
      </trkpt>
      <trkpt lat="43.31054" lon="2.36804">
        <ele>236</ele>
        <time>2019-06-02T07:43:14.000Z</time>
      </trkpt>
      <trkpt lat="43.31055" lon="2.36802">
        <ele>236.2</ele>
        <time>2019-06-02T07:43:15.000Z</time>
      </trkpt>
      <trkpt lat="43.31057" lon="2.36801">
        <ele>236.5</ele>
        <time>2019-06-02T07:43:16.000Z</time>
      </trkpt>
      <trkpt lat="43.31058" lon="2.36799">
        <ele>236.7</ele>
        <time>2019-06-02T07:43:17.000Z</time>
      </trkpt>
      <trkpt lat="43.3106" lon="2.36798">
        <ele>237</ele>
        <time>2019-06-02T07:43:18.000Z</time>
      </trkpt>
      <trkpt lat="43.31061" lon="2.36796">
        <ele>237.2</ele>
        <time>2019-06-02T07:43:19.000Z</time>
      </trkpt>
      <trkpt lat="43.31062" lon="2.36795">
        <ele>237.5</ele>
        <time>2019-06-02T07:43:20.000Z</time>
      </trkpt>
      <trkpt lat="43.31064" lon="2.36793">
        <ele>237.7</ele>
        <time>2019-06-02T07:43:21.000Z</time>
      </trkpt>
      <trkpt lat="43.31065" lon="2.36792">
        <ele>238</ele>
        <time>2019-06-02T07:43:22.000Z</time>
      </trkpt>
      <trkpt lat="43.31067" lon="2.3679">
        <ele>238.3</ele>
        <time>2019-06-02T07:43:23.000Z</time>
      </trkpt>
      <trkpt lat="43.31068" lon="2.36788">
        <ele>238.6</ele>
        <time>2019-06-02T07:43:24.000Z</time>
      </trkpt>
      <trkpt lat="43.3107" lon="2.36786">
        <ele>238.8</ele>
        <time>2019-06-02T07:43:25.000Z</time>
      </trkpt>
      <trkpt lat="43.31072" lon="2.36784">
        <ele>239.1</ele>
        <time>2019-06-02T07:43:26.000Z</time>
      </trkpt>
      <trkpt lat="43.31073" lon="2.36782">
        <ele>239.5</ele>
        <time>2019-06-02T07:43:27.000Z</time>
      </trkpt>
      <trkpt lat="43.31075" lon="2.3678">
        <ele>239.8</ele>
        <time>2019-06-02T07:43:28.000Z</time>
      </trkpt>
      <trkpt lat="43.31077" lon="2.36778">
        <ele>240.1</ele>
        <time>2019-06-02T07:43:29.000Z</time>
      </trkpt>
      <trkpt lat="43.31079" lon="2.36776">
        <ele>240.4</ele>
        <time>2019-06-02T07:43:30.000Z</time>
      </trkpt>
      <trkpt lat="43.31081" lon="2.36774">
        <ele>240.8</ele>
        <time>2019-06-02T07:43:31.000Z</time>
      </trkpt>
      <trkpt lat="43.31082" lon="2.36772">
        <ele>241.1</ele>
        <time>2019-06-02T07:43:32.000Z</time>
      </trkpt>
      <trkpt lat="43.31084" lon="2.3677">
        <ele>241.3</ele>
        <time>2019-06-02T07:43:33.000Z</time>
      </trkpt>
      <trkpt lat="43.31086" lon="2.36768">
        <ele>241.5</ele>
        <time>2019-06-02T07:43:34.000Z</time>
      </trkpt>
      <trkpt lat="43.31088" lon="2.36765">
        <ele>241.6</ele>
        <time>2019-06-02T07:43:35.000Z</time>
      </trkpt>
      <trkpt lat="43.31089" lon="2.36763">
        <ele>241.8</ele>
        <time>2019-06-02T07:43:36.000Z</time>
      </trkpt>
      <trkpt lat="43.31091" lon="2.36761">
        <ele>242</ele>
        <time>2019-06-02T07:43:37.000Z</time>
      </trkpt>
      <trkpt lat="43.31093" lon="2.36759">
        <ele>242.1</ele>
        <time>2019-06-02T07:43:38.000Z</time>
      </trkpt>
      <trkpt lat="43.31095" lon="2.36757">
        <ele>242.3</ele>
        <time>2019-06-02T07:43:39.000Z</time>
      </trkpt>
      <trkpt lat="43.31097" lon="2.36755">
        <ele>242.6</ele>
        <time>2019-06-02T07:43:40.000Z</time>
      </trkpt>
      <trkpt lat="43.31098" lon="2.36753">
        <ele>242.8</ele>
        <time>2019-06-02T07:43:41.000Z</time>
      </trkpt>
      <trkpt lat="43.311" lon="2.3675">
        <ele>243</ele>
        <time>2019-06-02T07:43:42.000Z</time>
      </trkpt>
      <trkpt lat="43.31102" lon="2.36748">
        <ele>243.2</ele>
        <time>2019-06-02T07:43:43.000Z</time>
      </trkpt>
      <trkpt lat="43.31104" lon="2.36746">
        <ele>243.4</ele>
        <time>2019-06-02T07:43:44.000Z</time>
      </trkpt>
      <trkpt lat="43.31106" lon="2.36744">
        <ele>243.6</ele>
        <time>2019-06-02T07:43:45.000Z</time>
      </trkpt>
      <trkpt lat="43.31108" lon="2.36742">
        <ele>243.8</ele>
        <time>2019-06-02T07:43:46.000Z</time>
      </trkpt>
      <trkpt lat="43.3111" lon="2.3674">
        <ele>244</ele>
        <time>2019-06-02T07:43:47.000Z</time>
      </trkpt>
      <trkpt lat="43.31112" lon="2.36739">
        <ele>244.2</ele>
        <time>2019-06-02T07:43:48.000Z</time>
      </trkpt>
      <trkpt lat="43.31114" lon="2.36737">
        <ele>244.5</ele>
        <time>2019-06-02T07:43:49.000Z</time>
      </trkpt>
      <trkpt lat="43.31116" lon="2.36735">
        <ele>244.7</ele>
        <time>2019-06-02T07:43:50.000Z</time>
      </trkpt>
      <trkpt lat="43.31118" lon="2.36733">
        <ele>244.9</ele>
        <time>2019-06-02T07:43:51.000Z</time>
      </trkpt>
      <trkpt lat="43.3112" lon="2.36732">
        <ele>245.2</ele>
        <time>2019-06-02T07:43:52.000Z</time>
      </trkpt>
      <trkpt lat="43.31122" lon="2.3673">
        <ele>245.4</ele>
        <time>2019-06-02T07:43:53.000Z</time>
      </trkpt>
      <trkpt lat="43.31123" lon="2.36727">
        <ele>245.6</ele>
        <time>2019-06-02T07:43:54.000Z</time>
      </trkpt>
      <trkpt lat="43.31125" lon="2.36725">
        <ele>245.9</ele>
        <time>2019-06-02T07:43:55.000Z</time>
      </trkpt>
      <trkpt lat="43.31127" lon="2.36722">
        <ele>246.1</ele>
        <time>2019-06-02T07:43:56.000Z</time>
      </trkpt>
      <trkpt lat="43.31129" lon="2.3672">
        <ele>246.4</ele>
        <time>2019-06-02T07:43:57.000Z</time>
      </trkpt>
      <trkpt lat="43.31131" lon="2.36718">
        <ele>246.7</ele>
        <time>2019-06-02T07:43:58.000Z</time>
      </trkpt>
      <trkpt lat="43.31133" lon="2.36716">
        <ele>247</ele>
        <time>2019-06-02T07:43:59.000Z</time>
      </trkpt>
      <trkpt lat="43.31135" lon="2.36715">
        <ele>247.3</ele>
        <time>2019-06-02T07:44:00.000Z</time>
      </trkpt>
      <trkpt lat="43.31137" lon="2.36714">
        <ele>247.5</ele>
        <time>2019-06-02T07:44:01.000Z</time>
      </trkpt>
      <trkpt lat="43.31139" lon="2.36714">
        <ele>247.9</ele>
        <time>2019-06-02T07:44:02.000Z</time>
      </trkpt>
      <trkpt lat="43.31141" lon="2.36713">
        <ele>248.2</ele>
        <time>2019-06-02T07:44:03.000Z</time>
      </trkpt>
      <trkpt lat="43.31144" lon="2.36713">
        <ele>248.5</ele>
        <time>2019-06-02T07:44:04.000Z</time>
      </trkpt>
      <trkpt lat="43.31146" lon="2.36714">
        <ele>248.8</ele>
        <time>2019-06-02T07:44:05.000Z</time>
      </trkpt>
      <trkpt lat="43.31148" lon="2.36714">
        <ele>249.1</ele>
        <time>2019-06-02T07:44:06.000Z</time>
      </trkpt>
      <trkpt lat="43.3115" lon="2.36713">
        <ele>249.5</ele>
        <time>2019-06-02T07:44:07.000Z</time>
      </trkpt>
      <trkpt lat="43.31152" lon="2.36713">
        <ele>249.8</ele>
        <time>2019-06-02T07:44:08.000Z</time>
      </trkpt>
      <trkpt lat="43.31155" lon="2.36712">
        <ele>250.1</ele>
        <time>2019-06-02T07:44:09.000Z</time>
      </trkpt>
      <trkpt lat="43.31157" lon="2.36711">
        <ele>250.5</ele>
        <time>2019-06-02T07:44:10.000Z</time>
      </trkpt>
      <trkpt lat="43.31159" lon="2.3671">
        <ele>250.8</ele>
        <time>2019-06-02T07:44:11.000Z</time>
      </trkpt>
      <trkpt lat="43.31161" lon="2.36708">
        <ele>251.2</ele>
        <time>2019-06-02T07:44:12.000Z</time>
      </trkpt>
      <trkpt lat="43.31164" lon="2.36707">
        <ele>251.6</ele>
        <time>2019-06-02T07:44:13.000Z</time>
      </trkpt>
      <trkpt lat="43.31166" lon="2.36705">
        <ele>252</ele>
        <time>2019-06-02T07:44:14.000Z</time>
      </trkpt>
      <trkpt lat="43.31168" lon="2.36703">
        <ele>252</ele>
        <time>2019-06-02T07:44:15.000Z</time>
      </trkpt>
      <trkpt lat="43.31171" lon="2.36702">
        <ele>252</ele>
        <time>2019-06-02T07:44:16.000Z</time>
      </trkpt>
      <trkpt lat="43.31173" lon="2.367">
        <ele>251.9</ele>
        <time>2019-06-02T07:44:17.000Z</time>
      </trkpt>
      <trkpt lat="43.31176" lon="2.36699">
        <ele>251.9</ele>
        <time>2019-06-02T07:44:18.000Z</time>
      </trkpt>
      <trkpt lat="43.31178" lon="2.36697">
        <ele>251.8</ele>
        <time>2019-06-02T07:44:19.000Z</time>
      </trkpt>
      <trkpt lat="43.3118" lon="2.36696">
        <ele>251.8</ele>
        <time>2019-06-02T07:44:20.000Z</time>
      </trkpt>
      <trkpt lat="43.31183" lon="2.36695">
        <ele>251.7</ele>
        <time>2019-06-02T07:44:21.000Z</time>
      </trkpt>
      <trkpt lat="43.31185" lon="2.36694">
        <ele>251.7</ele>
        <time>2019-06-02T07:44:22.000Z</time>
      </trkpt>
      <trkpt lat="43.31187" lon="2.36693">
        <ele>251.7</ele>
        <time>2019-06-02T07:44:23.000Z</time>
      </trkpt>
      <trkpt lat="43.31189" lon="2.36692">
        <ele>251.7</ele>
        <time>2019-06-02T07:44:24.000Z</time>
      </trkpt>
      <trkpt lat="43.31191" lon="2.36691">
        <ele>251.6</ele>
        <time>2019-06-02T07:44:25.000Z</time>
      </trkpt>
      <trkpt lat="43.31193" lon="2.3669">
        <ele>251.6</ele>
        <time>2019-06-02T07:44:26.000Z</time>
      </trkpt>
      <trkpt lat="43.31194" lon="2.3669">
        <ele>251.6</ele>
        <time>2019-06-02T07:44:27.000Z</time>
      </trkpt>
      <trkpt lat="43.31195" lon="2.36689">
        <ele>251.6</ele>
        <time>2019-06-02T07:44:28.000Z</time>
      </trkpt>
      <trkpt lat="43.31196" lon="2.36689">
        <ele>251.6</ele>
        <time>2019-06-02T07:44:29.000Z</time>
      </trkpt>
      <trkpt lat="43.31197" lon="2.36689">
        <ele>251.6</ele>
        <time>2019-06-02T07:44:30.000Z</time>
      </trkpt>
      <trkpt lat="43.31199" lon="2.36688">
        <ele>251.6</ele>
        <time>2019-06-02T07:44:31.000Z</time>
      </trkpt>
      <trkpt lat="43.312" lon="2.36688">
        <ele>251.6</ele>
        <time>2019-06-02T07:44:32.000Z</time>
      </trkpt>
      <trkpt lat="43.31201" lon="2.36687">
        <ele>251.6</ele>
        <time>2019-06-02T07:44:33.000Z</time>
      </trkpt>
      <trkpt lat="43.31203" lon="2.36687">
        <ele>251.6</ele>
        <time>2019-06-02T07:44:34.000Z</time>
      </trkpt>
      <trkpt lat="43.31204" lon="2.36687">
        <ele>251.6</ele>
        <time>2019-06-02T07:44:35.000Z</time>
      </trkpt>
      <trkpt lat="43.31205" lon="2.36686">
        <ele>251.6</ele>
        <time>2019-06-02T07:44:36.000Z</time>
      </trkpt>
      <trkpt lat="43.31206" lon="2.36686">
        <ele>251.6</ele>
        <time>2019-06-02T07:44:37.000Z</time>
      </trkpt>
      <trkpt lat="43.31207" lon="2.36686">
        <ele>251.6</ele>
        <time>2019-06-02T07:44:38.000Z</time>
      </trkpt>
      <trkpt lat="43.31207" lon="2.36685">
        <ele>251.6</ele>
        <time>2019-06-02T07:44:39.000Z</time>
      </trkpt>
      <trkpt lat="43.31208" lon="2.36685">
        <ele>251.6</ele>
        <time>2019-06-02T07:44:40.000Z</time>
      </trkpt>
      <trkpt lat="43.31208" lon="2.36685">
        <ele>251.6</ele>
        <time>2019-06-02T07:44:41.000Z</time>
      </trkpt>
      <trkpt lat="43.31208" lon="2.36685">
        <ele>251.6</ele>
        <time>2019-06-02T07:44:42.000Z</time>
      </trkpt>
      <trkpt lat="43.31208" lon="2.36685">
        <ele>251.6</ele>
        <time>2019-06-02T07:44:43.000Z</time>
      </trkpt>
      <trkpt lat="43.31208" lon="2.36685">
        <ele>251.6</ele>
        <time>2019-06-02T07:44:44.000Z</time>
      </trkpt>
      <trkpt lat="43.31208" lon="2.36685">
        <ele>251.6</ele>
        <time>2019-06-02T07:44:45.000Z</time>
      </trkpt>
      <trkpt lat="43.31208" lon="2.36685">
        <ele>251.6</ele>
        <time>2019-06-02T07:44:46.000Z</time>
      </trkpt>
      <trkpt lat="43.3121" lon="2.36684">
        <ele>251.7</ele>
        <time>2019-06-02T07:44:47.000Z</time>
      </trkpt>
      <trkpt lat="43.31216" lon="2.3668">
        <ele>251.8</ele>
        <time>2019-06-02T07:44:48.000Z</time>
      </trkpt>
      <trkpt lat="43.31217" lon="2.36679">
        <ele>251.9</ele>
        <time>2019-06-02T07:44:49.000Z</time>
      </trkpt>
      <trkpt lat="43.31218" lon="2.36678">
        <ele>251.9</ele>
        <time>2019-06-02T07:44:50.000Z</time>
      </trkpt>
      <trkpt lat="43.31219" lon="2.36678">
        <ele>252</ele>
        <time>2019-06-02T07:44:51.000Z</time>
      </trkpt>
      <trkpt lat="43.3122" lon="2.36677">
        <ele>252.1</ele>
        <time>2019-06-02T07:44:52.000Z</time>
      </trkpt>
      <trkpt lat="43.31221" lon="2.36676">
        <ele>252.1</ele>
        <time>2019-06-02T07:44:53.000Z</time>
      </trkpt>
      <trkpt lat="43.31222" lon="2.36675">
        <ele>252.2</ele>
        <time>2019-06-02T07:44:54.000Z</time>
      </trkpt>
      <trkpt lat="43.31223" lon="2.36674">
        <ele>252.3</ele>
        <time>2019-06-02T07:44:55.000Z</time>
      </trkpt>
      <trkpt lat="43.31224" lon="2.36672">
        <ele>252.4</ele>
        <time>2019-06-02T07:44:56.000Z</time>
      </trkpt>
      <trkpt lat="43.31225" lon="2.36671">
        <ele>252.6</ele>
        <time>2019-06-02T07:44:57.000Z</time>
      </trkpt>
      <trkpt lat="43.31226" lon="2.3667">
        <ele>252.7</ele>
        <time>2019-06-02T07:44:58.000Z</time>
      </trkpt>
      <trkpt lat="43.31227" lon="2.36668">
        <ele>252.8</ele>
        <time>2019-06-02T07:44:59.000Z</time>
      </trkpt>
      <trkpt lat="43.31228" lon="2.36667">
        <ele>253</ele>
        <time>2019-06-02T07:45:00.000Z</time>
      </trkpt>
      <trkpt lat="43.31229" lon="2.36666">
        <ele>253.1</ele>
        <time>2019-06-02T07:45:01.000Z</time>
      </trkpt>
      <trkpt lat="43.3123" lon="2.36664">
        <ele>253.1</ele>
        <time>2019-06-02T07:45:02.000Z</time>
      </trkpt>
      <trkpt lat="43.31231" lon="2.36663">
        <ele>253.2</ele>
        <time>2019-06-02T07:45:03.000Z</time>
      </trkpt>
      <trkpt lat="43.31232" lon="2.36661">
        <ele>253.3</ele>
        <time>2019-06-02T07:45:04.000Z</time>
      </trkpt>
      <trkpt lat="43.31233" lon="2.3666">
        <ele>253.3</ele>
        <time>2019-06-02T07:45:05.000Z</time>
      </trkpt>
      <trkpt lat="43.31234" lon="2.36659">
        <ele>253.4</ele>
        <time>2019-06-02T07:45:06.000Z</time>
      </trkpt>
      <trkpt lat="43.31235" lon="2.36657">
        <ele>253.5</ele>
        <time>2019-06-02T07:45:07.000Z</time>
      </trkpt>
      <trkpt lat="43.31236" lon="2.36656">
        <ele>253.5</ele>
        <time>2019-06-02T07:45:08.000Z</time>
      </trkpt>
      <trkpt lat="43.31238" lon="2.36655">
        <ele>253.6</ele>
        <time>2019-06-02T07:45:09.000Z</time>
      </trkpt>
      <trkpt lat="43.31239" lon="2.36654">
        <ele>253.7</ele>
        <time>2019-06-02T07:45:10.000Z</time>
      </trkpt>
      <trkpt lat="43.3124" lon="2.36653">
        <ele>253.7</ele>
        <time>2019-06-02T07:45:11.000Z</time>
      </trkpt>
      <trkpt lat="43.31241" lon="2.36652">
        <ele>253.8</ele>
        <time>2019-06-02T07:45:12.000Z</time>
      </trkpt>
      <trkpt lat="43.31243" lon="2.36651">
        <ele>253.9</ele>
        <time>2019-06-02T07:45:13.000Z</time>
      </trkpt>
      <trkpt lat="43.31244" lon="2.3665">
        <ele>253.9</ele>
        <time>2019-06-02T07:45:14.000Z</time>
      </trkpt>
      <trkpt lat="43.31245" lon="2.36649">
        <ele>254</ele>
        <time>2019-06-02T07:45:15.000Z</time>
      </trkpt>
      <trkpt lat="43.31247" lon="2.36649">
        <ele>254</ele>
        <time>2019-06-02T07:45:16.000Z</time>
      </trkpt>
      <trkpt lat="43.31248" lon="2.36648">
        <ele>254.1</ele>
        <time>2019-06-02T07:45:17.000Z</time>
      </trkpt>
      <trkpt lat="43.31249" lon="2.36647">
        <ele>254.2</ele>
        <time>2019-06-02T07:45:18.000Z</time>
      </trkpt>
      <trkpt lat="43.3125" lon="2.36646">
        <ele>254.2</ele>
        <time>2019-06-02T07:45:19.000Z</time>
      </trkpt>
      <trkpt lat="43.31251" lon="2.36646">
        <ele>254.2</ele>
        <time>2019-06-02T07:45:20.000Z</time>
      </trkpt>
      <trkpt lat="43.31253" lon="2.36645">
        <ele>254.2</ele>
        <time>2019-06-02T07:45:21.000Z</time>
      </trkpt>
      <trkpt lat="43.31254" lon="2.36644">
        <ele>254.2</ele>
        <time>2019-06-02T07:45:22.000Z</time>
      </trkpt>
      <trkpt lat="43.31255" lon="2.36644">
        <ele>254.2</ele>
        <time>2019-06-02T07:45:23.000Z</time>
      </trkpt>
      <trkpt lat="43.31256" lon="2.36643">
        <ele>254.2</ele>
        <time>2019-06-02T07:45:24.000Z</time>
      </trkpt>
      <trkpt lat="43.31257" lon="2.36643">
        <ele>254.3</ele>
        <time>2019-06-02T07:45:25.000Z</time>
      </trkpt>
      <trkpt lat="43.31258" lon="2.36642">
        <ele>254.3</ele>
        <time>2019-06-02T07:45:26.000Z</time>
      </trkpt>
      <trkpt lat="43.31259" lon="2.36641">
        <ele>254.3</ele>
        <time>2019-06-02T07:45:27.000Z</time>
      </trkpt>
      <trkpt lat="43.3126" lon="2.36641">
        <ele>254.3</ele>
        <time>2019-06-02T07:45:28.000Z</time>
      </trkpt>
      <trkpt lat="43.31261" lon="2.3664">
        <ele>254.3</ele>
        <time>2019-06-02T07:45:29.000Z</time>
      </trkpt>
      <trkpt lat="43.31262" lon="2.3664">
        <ele>254.3</ele>
        <time>2019-06-02T07:45:30.000Z</time>
      </trkpt>
      <trkpt lat="43.31263" lon="2.36639">
        <ele>254.3</ele>
        <time>2019-06-02T07:45:31.000Z</time>
      </trkpt>
      <trkpt lat="43.31265" lon="2.36638">
        <ele>254.3</ele>
        <time>2019-06-02T07:45:32.000Z</time>
      </trkpt>
      <trkpt lat="43.31266" lon="2.36637">
        <ele>254.3</ele>
        <time>2019-06-02T07:45:33.000Z</time>
      </trkpt>
      <trkpt lat="43.31268" lon="2.36637">
        <ele>254.3</ele>
        <time>2019-06-02T07:45:34.000Z</time>
      </trkpt>
      <trkpt lat="43.3127" lon="2.36636">
        <ele>254.3</ele>
        <time>2019-06-02T07:45:35.000Z</time>
      </trkpt>
      <trkpt lat="43.31272" lon="2.36635">
        <ele>254.4</ele>
        <time>2019-06-02T07:45:36.000Z</time>
      </trkpt>
      <trkpt lat="43.31274" lon="2.36634">
        <ele>254.4</ele>
        <time>2019-06-02T07:45:37.000Z</time>
      </trkpt>
      <trkpt lat="43.31276" lon="2.36633">
        <ele>254.4</ele>
        <time>2019-06-02T07:45:38.000Z</time>
      </trkpt>
      <trkpt lat="43.31278" lon="2.36632">
        <ele>254.4</ele>
        <time>2019-06-02T07:45:39.000Z</time>
      </trkpt>
      <trkpt lat="43.3128" lon="2.36631">
        <ele>254.5</ele>
        <time>2019-06-02T07:45:40.000Z</time>
      </trkpt>
      <trkpt lat="43.31283" lon="2.3663">
        <ele>254.5</ele>
        <time>2019-06-02T07:45:41.000Z</time>
      </trkpt>
      <trkpt lat="43.31285" lon="2.36629">
        <ele>254.5</ele>
        <time>2019-06-02T07:45:42.000Z</time>
      </trkpt>
      <trkpt lat="43.31287" lon="2.36628">
        <ele>254.6</ele>
        <time>2019-06-02T07:45:43.000Z</time>
      </trkpt>
      <trkpt lat="43.3129" lon="2.36627">
        <ele>254.6</ele>
        <time>2019-06-02T07:45:44.000Z</time>
      </trkpt>
      <trkpt lat="43.31293" lon="2.36626">
        <ele>254.6</ele>
        <time>2019-06-02T07:45:45.000Z</time>
      </trkpt>
      <trkpt lat="43.31295" lon="2.36625">
        <ele>254.7</ele>
        <time>2019-06-02T07:45:46.000Z</time>
      </trkpt>
      <trkpt lat="43.31298" lon="2.36624">
        <ele>254.7</ele>
        <time>2019-06-02T07:45:47.000Z</time>
      </trkpt>
      <trkpt lat="43.313" lon="2.36623">
        <ele>254.8</ele>
        <time>2019-06-02T07:45:48.000Z</time>
      </trkpt>
      <trkpt lat="43.31303" lon="2.36622">
        <ele>254.8</ele>
        <time>2019-06-02T07:45:49.000Z</time>
      </trkpt>
      <trkpt lat="43.31305" lon="2.36622">
        <ele>254.8</ele>
        <time>2019-06-02T07:45:50.000Z</time>
      </trkpt>
      <trkpt lat="43.31308" lon="2.36621">
        <ele>254.9</ele>
        <time>2019-06-02T07:45:51.000Z</time>
      </trkpt>
      <trkpt lat="43.3131" lon="2.3662">
        <ele>254.9</ele>
        <time>2019-06-02T07:45:52.000Z</time>
      </trkpt>
      <trkpt lat="43.31313" lon="2.36619">
        <ele>255</ele>
        <time>2019-06-02T07:45:53.000Z</time>
      </trkpt>
      <trkpt lat="43.31315" lon="2.36619">
        <ele>255</ele>
        <time>2019-06-02T07:45:54.000Z</time>
      </trkpt>
      <trkpt lat="43.31318" lon="2.36618">
        <ele>255</ele>
        <time>2019-06-02T07:45:55.000Z</time>
      </trkpt>
      <trkpt lat="43.31321" lon="2.36617">
        <ele>255.1</ele>
        <time>2019-06-02T07:45:56.000Z</time>
      </trkpt>
      <trkpt lat="43.31324" lon="2.36617">
        <ele>255.1</ele>
        <time>2019-06-02T07:45:57.000Z</time>
      </trkpt>
      <trkpt lat="43.31327" lon="2.36616">
        <ele>255.2</ele>
        <time>2019-06-02T07:45:58.000Z</time>
      </trkpt>
      <trkpt lat="43.3133" lon="2.36615">
        <ele>255.2</ele>
        <time>2019-06-02T07:45:59.000Z</time>
      </trkpt>
      <trkpt lat="43.31333" lon="2.36614">
        <ele>255.3</ele>
        <time>2019-06-02T07:46:00.000Z</time>
      </trkpt>
      <trkpt lat="43.31337" lon="2.36614">
        <ele>255.3</ele>
        <time>2019-06-02T07:46:01.000Z</time>
      </trkpt>
      <trkpt lat="43.3134" lon="2.36613">
        <ele>255.3</ele>
        <time>2019-06-02T07:46:02.000Z</time>
      </trkpt>
      <trkpt lat="43.31343" lon="2.36612">
        <ele>255.4</ele>
        <time>2019-06-02T07:46:03.000Z</time>
      </trkpt>
      <trkpt lat="43.31346" lon="2.36611">
        <ele>255.4</ele>
        <time>2019-06-02T07:46:04.000Z</time>
      </trkpt>
      <trkpt lat="43.31349" lon="2.36611">
        <ele>255.4</ele>
        <time>2019-06-02T07:46:05.000Z</time>
      </trkpt>
      <trkpt lat="43.31352" lon="2.3661">
        <ele>255.5</ele>
        <time>2019-06-02T07:46:06.000Z</time>
      </trkpt>
      <trkpt lat="43.31354" lon="2.36609">
        <ele>255.5</ele>
        <time>2019-06-02T07:46:07.000Z</time>
      </trkpt>
      <trkpt lat="43.31357" lon="2.36608">
        <ele>255.6</ele>
        <time>2019-06-02T07:46:08.000Z</time>
      </trkpt>
      <trkpt lat="43.3136" lon="2.36607">
        <ele>255.6</ele>
        <time>2019-06-02T07:46:09.000Z</time>
      </trkpt>
      <trkpt lat="43.31362" lon="2.36606">
        <ele>255.7</ele>
        <time>2019-06-02T07:46:10.000Z</time>
      </trkpt>
      <trkpt lat="43.31365" lon="2.36605">
        <ele>255.8</ele>
        <time>2019-06-02T07:46:11.000Z</time>
      </trkpt>
      <trkpt lat="43.31367" lon="2.36605">
        <ele>255.8</ele>
        <time>2019-06-02T07:46:12.000Z</time>
      </trkpt>
      <trkpt lat="43.3137" lon="2.36604">
        <ele>255.9</ele>
        <time>2019-06-02T07:46:13.000Z</time>
      </trkpt>
      <trkpt lat="43.31372" lon="2.36603">
        <ele>256</ele>
        <time>2019-06-02T07:46:14.000Z</time>
      </trkpt>
      <trkpt lat="43.31374" lon="2.36601">
        <ele>256.1</ele>
        <time>2019-06-02T07:46:15.000Z</time>
      </trkpt>
      <trkpt lat="43.31377" lon="2.366">
        <ele>256.2</ele>
        <time>2019-06-02T07:46:16.000Z</time>
      </trkpt>
      <trkpt lat="43.31379" lon="2.36599">
        <ele>256.4</ele>
        <time>2019-06-02T07:46:17.000Z</time>
      </trkpt>
      <trkpt lat="43.31381" lon="2.36598">
        <ele>256.5</ele>
        <time>2019-06-02T07:46:18.000Z</time>
      </trkpt>
      <trkpt lat="43.31383" lon="2.36597">
        <ele>256.6</ele>
        <time>2019-06-02T07:46:19.000Z</time>
      </trkpt>
      <trkpt lat="43.31385" lon="2.36595">
        <ele>256.7</ele>
        <time>2019-06-02T07:46:20.000Z</time>
      </trkpt>
      <trkpt lat="43.31388" lon="2.36594">
        <ele>256.9</ele>
        <time>2019-06-02T07:46:21.000Z</time>
      </trkpt>
      <trkpt lat="43.3139" lon="2.36593">
        <ele>257</ele>
        <time>2019-06-02T07:46:22.000Z</time>
      </trkpt>
      <trkpt lat="43.31392" lon="2.36591">
        <ele>257.2</ele>
        <time>2019-06-02T07:46:23.000Z</time>
      </trkpt>
      <trkpt lat="43.31394" lon="2.3659">
        <ele>257.4</ele>
        <time>2019-06-02T07:46:24.000Z</time>
      </trkpt>
      <trkpt lat="43.31396" lon="2.36589">
        <ele>257.5</ele>
        <time>2019-06-02T07:46:25.000Z</time>
      </trkpt>
      <trkpt lat="43.31398" lon="2.36587">
        <ele>257.7</ele>
        <time>2019-06-02T07:46:26.000Z</time>
      </trkpt>
      <trkpt lat="43.31401" lon="2.36586">
        <ele>257.8</ele>
        <time>2019-06-02T07:46:27.000Z</time>
      </trkpt>
      <trkpt lat="43.31403" lon="2.36584">
        <ele>258</ele>
        <time>2019-06-02T07:46:28.000Z</time>
      </trkpt>
      <trkpt lat="43.31405" lon="2.36583">
        <ele>258.2</ele>
        <time>2019-06-02T07:46:29.000Z</time>
      </trkpt>
      <trkpt lat="43.31408" lon="2.36582">
        <ele>258.3</ele>
        <time>2019-06-02T07:46:30.000Z</time>
      </trkpt>
      <trkpt lat="43.3141" lon="2.3658">
        <ele>258.4</ele>
        <time>2019-06-02T07:46:31.000Z</time>
      </trkpt>
      <trkpt lat="43.31413" lon="2.36579">
        <ele>258.5</ele>
        <time>2019-06-02T07:46:32.000Z</time>
      </trkpt>
      <trkpt lat="43.31415" lon="2.36577">
        <ele>258.7</ele>
        <time>2019-06-02T07:46:33.000Z</time>
      </trkpt>
      <trkpt lat="43.31417" lon="2.36576">
        <ele>258.7</ele>
        <time>2019-06-02T07:46:34.000Z</time>
      </trkpt>
      <trkpt lat="43.3142" lon="2.36574">
        <ele>258.7</ele>
        <time>2019-06-02T07:46:35.000Z</time>
      </trkpt>
      <trkpt lat="43.31422" lon="2.36573">
        <ele>258.6</ele>
        <time>2019-06-02T07:46:36.000Z</time>
      </trkpt>
      <trkpt lat="43.31424" lon="2.36571">
        <ele>258.6</ele>
        <time>2019-06-02T07:46:37.000Z</time>
      </trkpt>
      <trkpt lat="43.31426" lon="2.36569">
        <ele>258.7</ele>
        <time>2019-06-02T07:46:38.000Z</time>
      </trkpt>
      <trkpt lat="43.31428" lon="2.36568">
        <ele>258.7</ele>
        <time>2019-06-02T07:46:39.000Z</time>
      </trkpt>
      <trkpt lat="43.31429" lon="2.36566">
        <ele>258.8</ele>
        <time>2019-06-02T07:46:40.000Z</time>
      </trkpt>
      <trkpt lat="43.3143" lon="2.36565">
        <ele>258.9</ele>
        <time>2019-06-02T07:46:41.000Z</time>
      </trkpt>
      <trkpt lat="43.3143" lon="2.36564">
        <ele>258.9</ele>
        <time>2019-06-02T07:46:42.000Z</time>
      </trkpt>
      <trkpt lat="43.3143" lon="2.36563">
        <ele>259</ele>
        <time>2019-06-02T07:46:43.000Z</time>
      </trkpt>
      <trkpt lat="43.31431" lon="2.36562">
        <ele>259</ele>
        <time>2019-06-02T07:46:44.000Z</time>
      </trkpt>
      <trkpt lat="43.31431" lon="2.36562">
        <ele>259</ele>
        <time>2019-06-02T07:46:45.000Z</time>
      </trkpt>
      <trkpt lat="43.31431" lon="2.36562">
        <ele>259</ele>
        <time>2019-06-02T07:46:46.000Z</time>
      </trkpt>
      <trkpt lat="43.31431" lon="2.36562">
        <ele>259</ele>
        <time>2019-06-02T07:46:47.000Z</time>
      </trkpt>
      <trkpt lat="43.31431" lon="2.36562">
        <ele>259</ele>
        <time>2019-06-02T07:46:48.000Z</time>
      </trkpt>
      <trkpt lat="43.31431" lon="2.36562">
        <ele>259</ele>
        <time>2019-06-02T07:46:49.000Z</time>
      </trkpt>
      <trkpt lat="43.31431" lon="2.36562">
        <ele>259</ele>
        <time>2019-06-02T07:46:50.000Z</time>
      </trkpt>
      <trkpt lat="43.31431" lon="2.36562">
        <ele>259</ele>
        <time>2019-06-02T07:46:51.000Z</time>
      </trkpt>
      <trkpt lat="43.31431" lon="2.36562">
        <ele>259</ele>
        <time>2019-06-02T07:46:52.000Z</time>
      </trkpt>
      <trkpt lat="43.31431" lon="2.36562">
        <ele>259</ele>
        <time>2019-06-02T07:46:53.000Z</time>
      </trkpt>
      <trkpt lat="43.31431" lon="2.36562">
        <ele>259</ele>
        <time>2019-06-02T07:46:54.000Z</time>
      </trkpt>
      <trkpt lat="43.31431" lon="2.36562">
        <ele>259</ele>
        <time>2019-06-02T07:46:55.000Z</time>
      </trkpt>
      <trkpt lat="43.31431" lon="2.36562">
        <ele>259</ele>
        <time>2019-06-02T07:46:56.000Z</time>
      </trkpt>
      <trkpt lat="43.31431" lon="2.36562">
        <ele>259</ele>
        <time>2019-06-02T07:46:57.000Z</time>
      </trkpt>
      <trkpt lat="43.31431" lon="2.36562">
        <ele>259</ele>
        <time>2019-06-02T07:46:58.000Z</time>
      </trkpt>
      <trkpt lat="43.31431" lon="2.36562">
        <ele>259</ele>
        <time>2019-06-02T07:46:59.000Z</time>
      </trkpt>
      <trkpt lat="43.31431" lon="2.36562">
        <ele>259</ele>
        <time>2019-06-02T07:47:00.000Z</time>
      </trkpt>
      <trkpt lat="43.31431" lon="2.36562">
        <ele>259</ele>
        <time>2019-06-02T07:47:01.000Z</time>
      </trkpt>
      <trkpt lat="43.31431" lon="2.36562">
        <ele>259</ele>
        <time>2019-06-02T07:47:02.000Z</time>
      </trkpt>
      <trkpt lat="43.31431" lon="2.36562">
        <ele>259</ele>
        <time>2019-06-02T07:47:03.000Z</time>
      </trkpt>
      <trkpt lat="43.31431" lon="2.36562">
        <ele>259</ele>
        <time>2019-06-02T07:47:04.000Z</time>
      </trkpt>
      <trkpt lat="43.31431" lon="2.36562">
        <ele>259</ele>
        <time>2019-06-02T07:47:05.000Z</time>
      </trkpt>
      <trkpt lat="43.31431" lon="2.36562">
        <ele>259</ele>
        <time>2019-06-02T07:47:06.000Z</time>
      </trkpt>
      <trkpt lat="43.31431" lon="2.36562">
        <ele>259</ele>
        <time>2019-06-02T07:47:07.000Z</time>
      </trkpt>
      <trkpt lat="43.31431" lon="2.36562">
        <ele>259</ele>
        <time>2019-06-02T07:47:08.000Z</time>
      </trkpt>
      <trkpt lat="43.31431" lon="2.36562">
        <ele>259</ele>
        <time>2019-06-02T07:47:09.000Z</time>
      </trkpt>
      <trkpt lat="43.31431" lon="2.36562">
        <ele>259</ele>
        <time>2019-06-02T07:47:10.000Z</time>
      </trkpt>
      <trkpt lat="43.31431" lon="2.36562">
        <ele>259</ele>
        <time>2019-06-02T07:47:11.000Z</time>
      </trkpt>
      <trkpt lat="43.31431" lon="2.36562">
        <ele>259</ele>
        <time>2019-06-02T07:47:12.000Z</time>
      </trkpt>
      <trkpt lat="43.31431" lon="2.36562">
        <ele>259</ele>
        <time>2019-06-02T07:47:13.000Z</time>
      </trkpt>
      <trkpt lat="43.31431" lon="2.36562">
        <ele>259</ele>
        <time>2019-06-02T07:47:14.000Z</time>
      </trkpt>
      <trkpt lat="43.31431" lon="2.36562">
        <ele>259</ele>
        <time>2019-06-02T07:47:15.000Z</time>
      </trkpt>
      <trkpt lat="43.31431" lon="2.36562">
        <ele>259</ele>
        <time>2019-06-02T07:47:16.000Z</time>
      </trkpt>
      <trkpt lat="43.31431" lon="2.36562">
        <ele>259</ele>
        <time>2019-06-02T07:47:17.000Z</time>
      </trkpt>
      <trkpt lat="43.31431" lon="2.36562">
        <ele>259</ele>
        <time>2019-06-02T07:47:18.000Z</time>
      </trkpt>
      <trkpt lat="43.31431" lon="2.36562">
        <ele>259</ele>
        <time>2019-06-02T07:47:19.000Z</time>
      </trkpt>
      <trkpt lat="43.31431" lon="2.36562">
        <ele>259</ele>
        <time>2019-06-02T07:47:20.000Z</time>
      </trkpt>
      <trkpt lat="43.31431" lon="2.36562">
        <ele>259</ele>
        <time>2019-06-02T07:47:21.000Z</time>
      </trkpt>
      <trkpt lat="43.31431" lon="2.36562">
        <ele>259</ele>
        <time>2019-06-02T07:47:22.000Z</time>
      </trkpt>
      <trkpt lat="43.31431" lon="2.36562">
        <ele>259</ele>
        <time>2019-06-02T07:47:23.000Z</time>
      </trkpt>
      <trkpt lat="43.31431" lon="2.36562">
        <ele>259</ele>
        <time>2019-06-02T07:47:24.000Z</time>
      </trkpt>
      <trkpt lat="43.31431" lon="2.36562">
        <ele>259</ele>
        <time>2019-06-02T07:47:25.000Z</time>
      </trkpt>
      <trkpt lat="43.31431" lon="2.36562">
        <ele>259</ele>
        <time>2019-06-02T07:47:26.000Z</time>
      </trkpt>
      <trkpt lat="43.31431" lon="2.36562">
        <ele>259</ele>
        <time>2019-06-02T07:47:27.000Z</time>
      </trkpt>
      <trkpt lat="43.31431" lon="2.36562">
        <ele>259</ele>
        <time>2019-06-02T07:47:28.000Z</time>
      </trkpt>
      <trkpt lat="43.31431" lon="2.36562">
        <ele>259</ele>
        <time>2019-06-02T07:47:29.000Z</time>
      </trkpt>
      <trkpt lat="43.31431" lon="2.36562">
        <ele>259</ele>
        <time>2019-06-02T07:47:30.000Z</time>
      </trkpt>
      <trkpt lat="43.31431" lon="2.36562">
        <ele>259</ele>
        <time>2019-06-02T07:47:31.000Z</time>
      </trkpt>
      <trkpt lat="43.31431" lon="2.36562">
        <ele>259</ele>
        <time>2019-06-02T07:47:32.000Z</time>
      </trkpt>
      <trkpt lat="43.31431" lon="2.36562">
        <ele>259</ele>
        <time>2019-06-02T07:47:33.000Z</time>
      </trkpt>
      <trkpt lat="43.31431" lon="2.36562">
        <ele>259</ele>
        <time>2019-06-02T07:47:34.000Z</time>
      </trkpt>
      <trkpt lat="43.31431" lon="2.36562">
        <ele>259</ele>
        <time>2019-06-02T07:47:35.000Z</time>
      </trkpt>
      <trkpt lat="43.31431" lon="2.36562">
        <ele>259</ele>
        <time>2019-06-02T07:47:36.000Z</time>
      </trkpt>
      <trkpt lat="43.31431" lon="2.36562">
        <ele>259</ele>
        <time>2019-06-02T07:47:37.000Z</time>
      </trkpt>
      <trkpt lat="43.31431" lon="2.36562">
        <ele>259</ele>
        <time>2019-06-02T07:47:38.000Z</time>
      </trkpt>
      <trkpt lat="43.31431" lon="2.36562">
        <ele>259</ele>
        <time>2019-06-02T07:47:39.000Z</time>
      </trkpt>
      <trkpt lat="43.31431" lon="2.36562">
        <ele>259</ele>
        <time>2019-06-02T07:47:40.000Z</time>
      </trkpt>
      <trkpt lat="43.31431" lon="2.36562">
        <ele>259</ele>
        <time>2019-06-02T07:47:41.000Z</time>
      </trkpt>
      <trkpt lat="43.31431" lon="2.36562">
        <ele>259</ele>
        <time>2019-06-02T07:47:42.000Z</time>
      </trkpt>
      <trkpt lat="43.31431" lon="2.36562">
        <ele>259</ele>
        <time>2019-06-02T07:47:43.000Z</time>
      </trkpt>
      <trkpt lat="43.31431" lon="2.36562">
        <ele>259</ele>
        <time>2019-06-02T07:47:44.000Z</time>
      </trkpt>
      <trkpt lat="43.31431" lon="2.36562">
        <ele>259</ele>
        <time>2019-06-02T07:47:45.000Z</time>
      </trkpt>
      <trkpt lat="43.31431" lon="2.36562">
        <ele>259</ele>
        <time>2019-06-02T07:47:46.000Z</time>
      </trkpt>
      <trkpt lat="43.31431" lon="2.36562">
        <ele>259</ele>
        <time>2019-06-02T07:47:47.000Z</time>
      </trkpt>
      <trkpt lat="43.31431" lon="2.36562">
        <ele>259</ele>
        <time>2019-06-02T07:47:48.000Z</time>
      </trkpt>
      <trkpt lat="43.31431" lon="2.36562">
        <ele>259</ele>
        <time>2019-06-02T07:47:49.000Z</time>
      </trkpt>
      <trkpt lat="43.31431" lon="2.36562">
        <ele>259</ele>
        <time>2019-06-02T07:47:50.000Z</time>
      </trkpt>
      <trkpt lat="43.31431" lon="2.36562">
        <ele>259</ele>
        <time>2019-06-02T07:47:51.000Z</time>
      </trkpt>
      <trkpt lat="43.31431" lon="2.36562">
        <ele>259</ele>
        <time>2019-06-02T07:47:52.000Z</time>
      </trkpt>
      <trkpt lat="43.31431" lon="2.36562">
        <ele>259</ele>
        <time>2019-06-02T07:47:53.000Z</time>
      </trkpt>
      <trkpt lat="43.31431" lon="2.36562">
        <ele>259</ele>
        <time>2019-06-02T07:47:54.000Z</time>
      </trkpt>
      <trkpt lat="43.31431" lon="2.36562">
        <ele>259</ele>
        <time>2019-06-02T07:47:55.000Z</time>
      </trkpt>
      <trkpt lat="43.31431" lon="2.36562">
        <ele>259</ele>
        <time>2019-06-02T07:47:56.000Z</time>
      </trkpt>
      <trkpt lat="43.31431" lon="2.36562">
        <ele>259</ele>
        <time>2019-06-02T07:47:57.000Z</time>
      </trkpt>
      <trkpt lat="43.31431" lon="2.36562">
        <ele>259</ele>
        <time>2019-06-02T07:47:58.000Z</time>
      </trkpt>
      <trkpt lat="43.31431" lon="2.36562">
        <ele>259</ele>
        <time>2019-06-02T07:47:59.000Z</time>
      </trkpt>
      <trkpt lat="43.31431" lon="2.36562">
        <ele>259</ele>
        <time>2019-06-02T07:48:00.000Z</time>
      </trkpt>
      <trkpt lat="43.31431" lon="2.36562">
        <ele>259</ele>
        <time>2019-06-02T07:48:01.000Z</time>
      </trkpt>
      <trkpt lat="43.31431" lon="2.36562">
        <ele>259</ele>
        <time>2019-06-02T07:48:02.000Z</time>
      </trkpt>
      <trkpt lat="43.31431" lon="2.36562">
        <ele>259</ele>
        <time>2019-06-02T07:48:03.000Z</time>
      </trkpt>
      <trkpt lat="43.31431" lon="2.36562">
        <ele>259</ele>
        <time>2019-06-02T07:48:04.000Z</time>
      </trkpt>
      <trkpt lat="43.31431" lon="2.36562">
        <ele>259</ele>
        <time>2019-06-02T07:48:05.000Z</time>
      </trkpt>
      <trkpt lat="43.31431" lon="2.36562">
        <ele>259</ele>
        <time>2019-06-02T07:48:06.000Z</time>
      </trkpt>
      <trkpt lat="43.31431" lon="2.36562">
        <ele>259</ele>
        <time>2019-06-02T07:48:07.000Z</time>
      </trkpt>
      <trkpt lat="43.31431" lon="2.36562">
        <ele>259</ele>
        <time>2019-06-02T07:48:08.000Z</time>
      </trkpt>
      <trkpt lat="43.31431" lon="2.36562">
        <ele>259</ele>
        <time>2019-06-02T07:48:09.000Z</time>
      </trkpt>
      <trkpt lat="43.31431" lon="2.36562">
        <ele>259</ele>
        <time>2019-06-02T07:48:10.000Z</time>
      </trkpt>
      <trkpt lat="43.31431" lon="2.36562">
        <ele>259</ele>
        <time>2019-06-02T07:48:11.000Z</time>
      </trkpt>
      <trkpt lat="43.31431" lon="2.36562">
        <ele>259</ele>
        <time>2019-06-02T07:48:12.000Z</time>
      </trkpt>
      <trkpt lat="43.31431" lon="2.36562">
        <ele>259</ele>
        <time>2019-06-02T07:48:13.000Z</time>
      </trkpt>
      <trkpt lat="43.31431" lon="2.36562">
        <ele>259</ele>
        <time>2019-06-02T07:48:14.000Z</time>
      </trkpt>
      <trkpt lat="43.31431" lon="2.36562">
        <ele>259</ele>
        <time>2019-06-02T07:48:15.000Z</time>
      </trkpt>
      <trkpt lat="43.31431" lon="2.36562">
        <ele>259</ele>
        <time>2019-06-02T07:48:16.000Z</time>
      </trkpt>
      <trkpt lat="43.31431" lon="2.36562">
        <ele>259</ele>
        <time>2019-06-02T07:48:17.000Z</time>
      </trkpt>
      <trkpt lat="43.31431" lon="2.36562">
        <ele>259</ele>
        <time>2019-06-02T07:48:18.000Z</time>
      </trkpt>
      <trkpt lat="43.31431" lon="2.36562">
        <ele>259</ele>
        <time>2019-06-02T07:48:19.000Z</time>
      </trkpt>
      <trkpt lat="43.31431" lon="2.36562">
        <ele>259</ele>
        <time>2019-06-02T07:48:20.000Z</time>
      </trkpt>
      <trkpt lat="43.31431" lon="2.36562">
        <ele>259</ele>
        <time>2019-06-02T07:48:21.000Z</time>
      </trkpt>
      <trkpt lat="43.31431" lon="2.36562">
        <ele>259</ele>
        <time>2019-06-02T07:48:22.000Z</time>
      </trkpt>
      <trkpt lat="43.31431" lon="2.36562">
        <ele>259</ele>
        <time>2019-06-02T07:48:23.000Z</time>
      </trkpt>
      <trkpt lat="43.31431" lon="2.36562">
        <ele>259</ele>
        <time>2019-06-02T07:48:24.000Z</time>
      </trkpt>
      <trkpt lat="43.31431" lon="2.36562">
        <ele>259</ele>
        <time>2019-06-02T07:48:25.000Z</time>
      </trkpt>
      <trkpt lat="43.31431" lon="2.36562">
        <ele>259</ele>
        <time>2019-06-02T07:48:26.000Z</time>
      </trkpt>
      <trkpt lat="43.31431" lon="2.36562">
        <ele>259</ele>
        <time>2019-06-02T07:48:27.000Z</time>
      </trkpt>
      <trkpt lat="43.31431" lon="2.36562">
        <ele>259</ele>
        <time>2019-06-02T07:48:28.000Z</time>
      </trkpt>
      <trkpt lat="43.31431" lon="2.36562">
        <ele>259</ele>
        <time>2019-06-02T07:48:29.000Z</time>
      </trkpt>
      <trkpt lat="43.31431" lon="2.36562">
        <ele>259</ele>
        <time>2019-06-02T07:48:30.000Z</time>
      </trkpt>
      <trkpt lat="43.31431" lon="2.36562">
        <ele>259</ele>
        <time>2019-06-02T07:48:31.000Z</time>
      </trkpt>
      <trkpt lat="43.31431" lon="2.36562">
        <ele>259</ele>
        <time>2019-06-02T07:48:32.000Z</time>
      </trkpt>
      <trkpt lat="43.31431" lon="2.36562">
        <ele>259</ele>
        <time>2019-06-02T07:48:33.000Z</time>
      </trkpt>
      <trkpt lat="43.31431" lon="2.36562">
        <ele>259</ele>
        <time>2019-06-02T07:48:34.000Z</time>
      </trkpt>
      <trkpt lat="43.31431" lon="2.36562">
        <ele>259</ele>
        <time>2019-06-02T07:48:35.000Z</time>
      </trkpt>
      <trkpt lat="43.31431" lon="2.36562">
        <ele>259</ele>
        <time>2019-06-02T07:48:36.000Z</time>
      </trkpt>
      <trkpt lat="43.31431" lon="2.36562">
        <ele>259</ele>
        <time>2019-06-02T07:48:37.000Z</time>
      </trkpt>
      <trkpt lat="43.31431" lon="2.36562">
        <ele>259</ele>
        <time>2019-06-02T07:48:38.000Z</time>
      </trkpt>
      <trkpt lat="43.31431" lon="2.36562">
        <ele>259</ele>
        <time>2019-06-02T07:48:39.000Z</time>
      </trkpt>
      <trkpt lat="43.31431" lon="2.36562">
        <ele>259</ele>
        <time>2019-06-02T07:48:40.000Z</time>
      </trkpt>
      <trkpt lat="43.31431" lon="2.36562">
        <ele>259</ele>
        <time>2019-06-02T07:48:41.000Z</time>
      </trkpt>
      <trkpt lat="43.31431" lon="2.36562">
        <ele>259</ele>
        <time>2019-06-02T07:48:42.000Z</time>
      </trkpt>
      <trkpt lat="43.31431" lon="2.36562">
        <ele>259</ele>
        <time>2019-06-02T07:48:43.000Z</time>
      </trkpt>
      <trkpt lat="43.31431" lon="2.36562">
        <ele>259</ele>
        <time>2019-06-02T07:48:44.000Z</time>
      </trkpt>
      <trkpt lat="43.31431" lon="2.36562">
        <ele>259</ele>
        <time>2019-06-02T07:48:45.000Z</time>
      </trkpt>
      <trkpt lat="43.31431" lon="2.36562">
        <ele>259</ele>
        <time>2019-06-02T07:48:46.000Z</time>
      </trkpt>
      <trkpt lat="43.31431" lon="2.36562">
        <ele>259</ele>
        <time>2019-06-02T07:48:47.000Z</time>
      </trkpt>
      <trkpt lat="43.31431" lon="2.36562">
        <ele>259</ele>
        <time>2019-06-02T07:48:48.000Z</time>
      </trkpt>
      <trkpt lat="43.31431" lon="2.36562">
        <ele>259</ele>
        <time>2019-06-02T07:48:49.000Z</time>
      </trkpt>
      <trkpt lat="43.31431" lon="2.36562">
        <ele>259</ele>
        <time>2019-06-02T07:48:50.000Z</time>
      </trkpt>
      <trkpt lat="43.31431" lon="2.36562">
        <ele>259</ele>
        <time>2019-06-02T07:48:51.000Z</time>
      </trkpt>
      <trkpt lat="43.31431" lon="2.36562">
        <ele>259</ele>
        <time>2019-06-02T07:48:52.000Z</time>
      </trkpt>
      <trkpt lat="43.31431" lon="2.36562">
        <ele>259</ele>
        <time>2019-06-02T07:48:53.000Z</time>
      </trkpt>
      <trkpt lat="43.31431" lon="2.36562">
        <ele>259</ele>
        <time>2019-06-02T07:48:54.000Z</time>
      </trkpt>
      <trkpt lat="43.31431" lon="2.36562">
        <ele>259</ele>
        <time>2019-06-02T07:48:55.000Z</time>
      </trkpt>
      <trkpt lat="43.31431" lon="2.36562">
        <ele>259</ele>
        <time>2019-06-02T07:48:56.000Z</time>
      </trkpt>
      <trkpt lat="43.31431" lon="2.36562">
        <ele>259</ele>
        <time>2019-06-02T07:48:57.000Z</time>
      </trkpt>
      <trkpt lat="43.31431" lon="2.36562">
        <ele>259</ele>
        <time>2019-06-02T07:48:58.000Z</time>
      </trkpt>
      <trkpt lat="43.31431" lon="2.36562">
        <ele>259</ele>
        <time>2019-06-02T07:48:59.000Z</time>
      </trkpt>
      <trkpt lat="43.31431" lon="2.36562">
        <ele>259</ele>
        <time>2019-06-02T07:49:00.000Z</time>
      </trkpt>
      <trkpt lat="43.31431" lon="2.36562">
        <ele>259</ele>
        <time>2019-06-02T07:49:01.000Z</time>
      </trkpt>
      <trkpt lat="43.31431" lon="2.36562">
        <ele>259</ele>
        <time>2019-06-02T07:49:02.000Z</time>
      </trkpt>
      <trkpt lat="43.31431" lon="2.36562">
        <ele>259</ele>
        <time>2019-06-02T07:49:03.000Z</time>
      </trkpt>
      <trkpt lat="43.31431" lon="2.36562">
        <ele>259</ele>
        <time>2019-06-02T07:49:04.000Z</time>
      </trkpt>
      <trkpt lat="43.31431" lon="2.36562">
        <ele>259</ele>
        <time>2019-06-02T07:49:05.000Z</time>
      </trkpt>
      <trkpt lat="43.31431" lon="2.36562">
        <ele>259</ele>
        <time>2019-06-02T07:49:06.000Z</time>
      </trkpt>
      <trkpt lat="43.31431" lon="2.36562">
        <ele>259</ele>
        <time>2019-06-02T07:49:07.000Z</time>
      </trkpt>
      <trkpt lat="43.31431" lon="2.36562">
        <ele>259</ele>
        <time>2019-06-02T07:49:08.000Z</time>
      </trkpt>
      <trkpt lat="43.31431" lon="2.36562">
        <ele>259</ele>
        <time>2019-06-02T07:49:09.000Z</time>
      </trkpt>
      <trkpt lat="43.31431" lon="2.36562">
        <ele>259</ele>
        <time>2019-06-02T07:49:10.000Z</time>
      </trkpt>
      <trkpt lat="43.31431" lon="2.36562">
        <ele>259</ele>
        <time>2019-06-02T07:49:11.000Z</time>
      </trkpt>
      <trkpt lat="43.31431" lon="2.36562">
        <ele>259</ele>
        <time>2019-06-02T07:49:12.000Z</time>
      </trkpt>
      <trkpt lat="43.31431" lon="2.36562">
        <ele>259</ele>
        <time>2019-06-02T07:49:13.000Z</time>
      </trkpt>
      <trkpt lat="43.31431" lon="2.36562">
        <ele>259</ele>
        <time>2019-06-02T07:49:14.000Z</time>
      </trkpt>
      <trkpt lat="43.31431" lon="2.36562">
        <ele>259</ele>
        <time>2019-06-02T07:49:15.000Z</time>
      </trkpt>
      <trkpt lat="43.31431" lon="2.36562">
        <ele>259</ele>
        <time>2019-06-02T07:49:16.000Z</time>
      </trkpt>
      <trkpt lat="43.31431" lon="2.36562">
        <ele>259</ele>
        <time>2019-06-02T07:49:17.000Z</time>
      </trkpt>
      <trkpt lat="43.31431" lon="2.36562">
        <ele>259</ele>
        <time>2019-06-02T07:49:18.000Z</time>
      </trkpt>
      <trkpt lat="43.31431" lon="2.36562">
        <ele>259</ele>
        <time>2019-06-02T07:49:19.000Z</time>
      </trkpt>
      <trkpt lat="43.31431" lon="2.36562">
        <ele>259</ele>
        <time>2019-06-02T07:49:20.000Z</time>
      </trkpt>
      <trkpt lat="43.31431" lon="2.36562">
        <ele>259</ele>
        <time>2019-06-02T07:49:21.000Z</time>
      </trkpt>
      <trkpt lat="43.31431" lon="2.36562">
        <ele>259</ele>
        <time>2019-06-02T07:49:22.000Z</time>
      </trkpt>
      <trkpt lat="43.31431" lon="2.36562">
        <ele>259</ele>
        <time>2019-06-02T07:49:23.000Z</time>
      </trkpt>
      <trkpt lat="43.31431" lon="2.36562">
        <ele>259</ele>
        <time>2019-06-02T07:49:24.000Z</time>
      </trkpt>
      <trkpt lat="43.31431" lon="2.36562">
        <ele>259</ele>
        <time>2019-06-02T07:49:25.000Z</time>
      </trkpt>
      <trkpt lat="43.31431" lon="2.36562">
        <ele>259</ele>
        <time>2019-06-02T07:49:26.000Z</time>
      </trkpt>
      <trkpt lat="43.31431" lon="2.36562">
        <ele>259</ele>
        <time>2019-06-02T07:49:27.000Z</time>
      </trkpt>
      <trkpt lat="43.31431" lon="2.36562">
        <ele>259</ele>
        <time>2019-06-02T07:49:28.000Z</time>
      </trkpt>
      <trkpt lat="43.31431" lon="2.36562">
        <ele>259</ele>
        <time>2019-06-02T07:49:29.000Z</time>
      </trkpt>
      <trkpt lat="43.31431" lon="2.36562">
        <ele>259</ele>
        <time>2019-06-02T07:49:30.000Z</time>
      </trkpt>
      <trkpt lat="43.31431" lon="2.36562">
        <ele>259</ele>
        <time>2019-06-02T07:49:31.000Z</time>
      </trkpt>
      <trkpt lat="43.31431" lon="2.36562">
        <ele>259</ele>
        <time>2019-06-02T07:49:32.000Z</time>
      </trkpt>
      <trkpt lat="43.31431" lon="2.36562">
        <ele>259</ele>
        <time>2019-06-02T07:49:33.000Z</time>
      </trkpt>
      <trkpt lat="43.31431" lon="2.36562">
        <ele>259</ele>
        <time>2019-06-02T07:49:34.000Z</time>
      </trkpt>
      <trkpt lat="43.31431" lon="2.36562">
        <ele>259</ele>
        <time>2019-06-02T07:49:35.000Z</time>
      </trkpt>
      <trkpt lat="43.31431" lon="2.36562">
        <ele>259</ele>
        <time>2019-06-02T07:49:36.000Z</time>
      </trkpt>
      <trkpt lat="43.31431" lon="2.36562">
        <ele>259.1</ele>
        <time>2019-06-02T07:49:37.000Z</time>
      </trkpt>
      <trkpt lat="43.31431" lon="2.36562">
        <ele>259.1</ele>
        <time>2019-06-02T07:49:38.000Z</time>
      </trkpt>
      <trkpt lat="43.31431" lon="2.36561">
        <ele>259.2</ele>
        <time>2019-06-02T07:49:39.000Z</time>
      </trkpt>
      <trkpt lat="43.3143" lon="2.3656">
        <ele>259.4</ele>
        <time>2019-06-02T07:49:40.000Z</time>
      </trkpt>
      <trkpt lat="43.3143" lon="2.36557">
        <ele>259.6</ele>
        <time>2019-06-02T07:49:41.000Z</time>
      </trkpt>
      <trkpt lat="43.31431" lon="2.36554">
        <ele>259.9</ele>
        <time>2019-06-02T07:49:42.000Z</time>
      </trkpt>
      <trkpt lat="43.31431" lon="2.36551">
        <ele>260.2</ele>
        <time>2019-06-02T07:49:43.000Z</time>
      </trkpt>
      <trkpt lat="43.31432" lon="2.36549">
        <ele>260.4</ele>
        <time>2019-06-02T07:49:44.000Z</time>
      </trkpt>
      <trkpt lat="43.31433" lon="2.36546">
        <ele>260.7</ele>
        <time>2019-06-02T07:49:45.000Z</time>
      </trkpt>
      <trkpt lat="43.31433" lon="2.36544">
        <ele>260.9</ele>
        <time>2019-06-02T07:49:46.000Z</time>
      </trkpt>
      <trkpt lat="43.31434" lon="2.36541">
        <ele>261.2</ele>
        <time>2019-06-02T07:49:47.000Z</time>
      </trkpt>
      <trkpt lat="43.31434" lon="2.36538">
        <ele>261.4</ele>
        <time>2019-06-02T07:49:48.000Z</time>
      </trkpt>
      <trkpt lat="43.31435" lon="2.36535">
        <ele>261.7</ele>
        <time>2019-06-02T07:49:49.000Z</time>
      </trkpt>
      <trkpt lat="43.31436" lon="2.36532">
        <ele>262</ele>
        <time>2019-06-02T07:49:50.000Z</time>
      </trkpt>
      <trkpt lat="43.31437" lon="2.36529">
        <ele>262.3</ele>
        <time>2019-06-02T07:49:51.000Z</time>
      </trkpt>
      <trkpt lat="43.31438" lon="2.36525">
        <ele>262.6</ele>
        <time>2019-06-02T07:49:52.000Z</time>
      </trkpt>
      <trkpt lat="43.31438" lon="2.36522">
        <ele>263</ele>
        <time>2019-06-02T07:49:53.000Z</time>
      </trkpt>
      <trkpt lat="43.31439" lon="2.36518">
        <ele>263.3</ele>
        <time>2019-06-02T07:49:54.000Z</time>
      </trkpt>
      <trkpt lat="43.3144" lon="2.36514">
        <ele>263.7</ele>
        <time>2019-06-02T07:49:55.000Z</time>
      </trkpt>
      <trkpt lat="43.31441" lon="2.3651">
        <ele>264.1</ele>
        <time>2019-06-02T07:49:56.000Z</time>
      </trkpt>
      <trkpt lat="43.31442" lon="2.36507">
        <ele>264.4</ele>
        <time>2019-06-02T07:49:57.000Z</time>
      </trkpt>
      <trkpt lat="43.31443" lon="2.36503">
        <ele>264.8</ele>
        <time>2019-06-02T07:49:58.000Z</time>
      </trkpt>
      <trkpt lat="43.31444" lon="2.36499">
        <ele>265.1</ele>
        <time>2019-06-02T07:49:59.000Z</time>
      </trkpt>
      <trkpt lat="43.31445" lon="2.36496">
        <ele>265.3</ele>
        <time>2019-06-02T07:50:00.000Z</time>
      </trkpt>
      <trkpt lat="43.31446" lon="2.36493">
        <ele>265.6</ele>
        <time>2019-06-02T07:50:01.000Z</time>
      </trkpt>
      <trkpt lat="43.31447" lon="2.36489">
        <ele>265.8</ele>
        <time>2019-06-02T07:50:02.000Z</time>
      </trkpt>
      <trkpt lat="43.31448" lon="2.36486">
        <ele>266.1</ele>
        <time>2019-06-02T07:50:03.000Z</time>
      </trkpt>
      <trkpt lat="43.31449" lon="2.36483">
        <ele>266.3</ele>
        <time>2019-06-02T07:50:04.000Z</time>
      </trkpt>
      <trkpt lat="43.31449" lon="2.3648">
        <ele>266.6</ele>
        <time>2019-06-02T07:50:05.000Z</time>
      </trkpt>
      <trkpt lat="43.3145" lon="2.36477">
        <ele>266.8</ele>
        <time>2019-06-02T07:50:06.000Z</time>
      </trkpt>
      <trkpt lat="43.31451" lon="2.36474">
        <ele>267.1</ele>
        <time>2019-06-02T07:50:07.000Z</time>
      </trkpt>
      <trkpt lat="43.31452" lon="2.36471">
        <ele>267.3</ele>
        <time>2019-06-02T07:50:08.000Z</time>
      </trkpt>
      <trkpt lat="43.31453" lon="2.36468">
        <ele>267.5</ele>
        <time>2019-06-02T07:50:09.000Z</time>
      </trkpt>
      <trkpt lat="43.31454" lon="2.36465">
        <ele>267.8</ele>
        <time>2019-06-02T07:50:10.000Z</time>
      </trkpt>
      <trkpt lat="43.31455" lon="2.36462">
        <ele>268</ele>
        <time>2019-06-02T07:50:11.000Z</time>
      </trkpt>
      <trkpt lat="43.31457" lon="2.36459">
        <ele>268.2</ele>
        <time>2019-06-02T07:50:12.000Z</time>
      </trkpt>
      <trkpt lat="43.31458" lon="2.36457">
        <ele>268.4</ele>
        <time>2019-06-02T07:50:13.000Z</time>
      </trkpt>
      <trkpt lat="43.31459" lon="2.36454">
        <ele>268.7</ele>
        <time>2019-06-02T07:50:14.000Z</time>
      </trkpt>
      <trkpt lat="43.3146" lon="2.36451">
        <ele>268.9</ele>
        <time>2019-06-02T07:50:15.000Z</time>
      </trkpt>
      <trkpt lat="43.31461" lon="2.36448">
        <ele>269.2</ele>
        <time>2019-06-02T07:50:16.000Z</time>
      </trkpt>
      <trkpt lat="43.31462" lon="2.36445">
        <ele>269.4</ele>
        <time>2019-06-02T07:50:17.000Z</time>
      </trkpt>
      <trkpt lat="43.31464" lon="2.36443">
        <ele>269.7</ele>
        <time>2019-06-02T07:50:18.000Z</time>
      </trkpt>
      <trkpt lat="43.31465" lon="2.3644">
        <ele>270</ele>
        <time>2019-06-02T07:50:19.000Z</time>
      </trkpt>
      <trkpt lat="43.31466" lon="2.36437">
        <ele>270.3</ele>
        <time>2019-06-02T07:50:20.000Z</time>
      </trkpt>
      <trkpt lat="43.31467" lon="2.36434">
        <ele>270.5</ele>
        <time>2019-06-02T07:50:21.000Z</time>
      </trkpt>
      <trkpt lat="43.31468" lon="2.36431">
        <ele>270.8</ele>
        <time>2019-06-02T07:50:22.000Z</time>
      </trkpt>
      <trkpt lat="43.31469" lon="2.36428">
        <ele>271.1</ele>
        <time>2019-06-02T07:50:23.000Z</time>
      </trkpt>
      <trkpt lat="43.3147" lon="2.36426">
        <ele>271.4</ele>
        <time>2019-06-02T07:50:24.000Z</time>
      </trkpt>
      <trkpt lat="43.31471" lon="2.36423">
        <ele>271.7</ele>
        <time>2019-06-02T07:50:25.000Z</time>
      </trkpt>
      <trkpt lat="43.31472" lon="2.3642">
        <ele>272</ele>
        <time>2019-06-02T07:50:26.000Z</time>
      </trkpt>
      <trkpt lat="43.31473" lon="2.36417">
        <ele>272.3</ele>
        <time>2019-06-02T07:50:27.000Z</time>
      </trkpt>
      <trkpt lat="43.31474" lon="2.36414">
        <ele>272.5</ele>
        <time>2019-06-02T07:50:28.000Z</time>
      </trkpt>
      <trkpt lat="43.31475" lon="2.36412">
        <ele>272.8</ele>
        <time>2019-06-02T07:50:29.000Z</time>
      </trkpt>
      <trkpt lat="43.31476" lon="2.36409">
        <ele>273</ele>
        <time>2019-06-02T07:50:30.000Z</time>
      </trkpt>
      <trkpt lat="43.31477" lon="2.36406">
        <ele>273.2</ele>
        <time>2019-06-02T07:50:31.000Z</time>
      </trkpt>
      <trkpt lat="43.31478" lon="2.36404">
        <ele>273.5</ele>
        <time>2019-06-02T07:50:32.000Z</time>
      </trkpt>
      <trkpt lat="43.31479" lon="2.36401">
        <ele>273.7</ele>
        <time>2019-06-02T07:50:33.000Z</time>
      </trkpt>
      <trkpt lat="43.3148" lon="2.36399">
        <ele>273.9</ele>
        <time>2019-06-02T07:50:34.000Z</time>
      </trkpt>
      <trkpt lat="43.31481" lon="2.36396">
        <ele>274.1</ele>
        <time>2019-06-02T07:50:35.000Z</time>
      </trkpt>
      <trkpt lat="43.31482" lon="2.36394">
        <ele>274.4</ele>
        <time>2019-06-02T07:50:36.000Z</time>
      </trkpt>
      <trkpt lat="43.31483" lon="2.36391">
        <ele>274.6</ele>
        <time>2019-06-02T07:50:37.000Z</time>
      </trkpt>
      <trkpt lat="43.31484" lon="2.36389">
        <ele>274.8</ele>
        <time>2019-06-02T07:50:38.000Z</time>
      </trkpt>
      <trkpt lat="43.31485" lon="2.36387">
        <ele>275</ele>
        <time>2019-06-02T07:50:39.000Z</time>
      </trkpt>
      <trkpt lat="43.31485" lon="2.36385">
        <ele>275.1</ele>
        <time>2019-06-02T07:50:40.000Z</time>
      </trkpt>
      <trkpt lat="43.31486" lon="2.36383">
        <ele>275.3</ele>
        <time>2019-06-02T07:50:41.000Z</time>
      </trkpt>
      <trkpt lat="43.31487" lon="2.36381">
        <ele>275.5</ele>
        <time>2019-06-02T07:50:42.000Z</time>
      </trkpt>
      <trkpt lat="43.31488" lon="2.3638">
        <ele>275.6</ele>
        <time>2019-06-02T07:50:43.000Z</time>
      </trkpt>
      <trkpt lat="43.31488" lon="2.36378">
        <ele>275.8</ele>
        <time>2019-06-02T07:50:44.000Z</time>
      </trkpt>
      <trkpt lat="43.31489" lon="2.36377">
        <ele>275.9</ele>
        <time>2019-06-02T07:50:45.000Z</time>
      </trkpt>
      <trkpt lat="43.31489" lon="2.36375">
        <ele>276</ele>
        <time>2019-06-02T07:50:46.000Z</time>
      </trkpt>
      <trkpt lat="43.3149" lon="2.36374">
        <ele>276.1</ele>
        <time>2019-06-02T07:50:47.000Z</time>
      </trkpt>
      <trkpt lat="43.3149" lon="2.36373">
        <ele>276.2</ele>
        <time>2019-06-02T07:50:48.000Z</time>
      </trkpt>
      <trkpt lat="43.3149" lon="2.36373">
        <ele>276.3</ele>
        <time>2019-06-02T07:50:49.000Z</time>
      </trkpt>
      <trkpt lat="43.31491" lon="2.36372">
        <ele>276.3</ele>
        <time>2019-06-02T07:50:50.000Z</time>
      </trkpt>
      <trkpt lat="43.31491" lon="2.36372">
        <ele>276.3</ele>
        <time>2019-06-02T07:50:51.000Z</time>
      </trkpt>
      <trkpt lat="43.31491" lon="2.36372">
        <ele>276.4</ele>
        <time>2019-06-02T07:50:52.000Z</time>
      </trkpt>
      <trkpt lat="43.31491" lon="2.36372">
        <ele>276.4</ele>
        <time>2019-06-02T07:50:53.000Z</time>
      </trkpt>
      <trkpt lat="43.31491" lon="2.36372">
        <ele>276.4</ele>
        <time>2019-06-02T07:50:54.000Z</time>
      </trkpt>
      <trkpt lat="43.31491" lon="2.36372">
        <ele>276.4</ele>
        <time>2019-06-02T07:50:55.000Z</time>
      </trkpt>
      <trkpt lat="43.31491" lon="2.36371">
        <ele>276.4</ele>
        <time>2019-06-02T07:50:56.000Z</time>
      </trkpt>
      <trkpt lat="43.31491" lon="2.36371">
        <ele>276.4</ele>
        <time>2019-06-02T07:50:57.000Z</time>
      </trkpt>
      <trkpt lat="43.31491" lon="2.36371">
        <ele>276.4</ele>
        <time>2019-06-02T07:50:58.000Z</time>
      </trkpt>
      <trkpt lat="43.31492" lon="2.36369">
        <ele>276.6</ele>
        <time>2019-06-02T07:50:59.000Z</time>
      </trkpt>
      <trkpt lat="43.31493" lon="2.36366">
        <ele>276.9</ele>
        <time>2019-06-02T07:51:00.000Z</time>
      </trkpt>
      <trkpt lat="43.31494" lon="2.36363">
        <ele>277.2</ele>
        <time>2019-06-02T07:51:01.000Z</time>
      </trkpt>
      <trkpt lat="43.31495" lon="2.3636">
        <ele>277.4</ele>
        <time>2019-06-02T07:51:02.000Z</time>
      </trkpt>
      <trkpt lat="43.31495" lon="2.36358">
        <ele>277.7</ele>
        <time>2019-06-02T07:51:03.000Z</time>
      </trkpt>
      <trkpt lat="43.31496" lon="2.36355">
        <ele>278</ele>
        <time>2019-06-02T07:51:04.000Z</time>
      </trkpt>
      <trkpt lat="43.31497" lon="2.36351">
        <ele>278.3</ele>
        <time>2019-06-02T07:51:05.000Z</time>
      </trkpt>
      <trkpt lat="43.31498" lon="2.36348">
        <ele>278.6</ele>
        <time>2019-06-02T07:51:06.000Z</time>
      </trkpt>
      <trkpt lat="43.31498" lon="2.36345">
        <ele>278.9</ele>
        <time>2019-06-02T07:51:07.000Z</time>
      </trkpt>
      <trkpt lat="43.31499" lon="2.36342">
        <ele>279.2</ele>
        <time>2019-06-02T07:51:08.000Z</time>
      </trkpt>
      <trkpt lat="43.315" lon="2.36339">
        <ele>279.4</ele>
        <time>2019-06-02T07:51:09.000Z</time>
      </trkpt>
      <trkpt lat="43.31501" lon="2.36336">
        <ele>279.6</ele>
        <time>2019-06-02T07:51:10.000Z</time>
      </trkpt>
      <trkpt lat="43.31502" lon="2.36334">
        <ele>279.8</ele>
        <time>2019-06-02T07:51:11.000Z</time>
      </trkpt>
      <trkpt lat="43.31503" lon="2.36331">
        <ele>279.8</ele>
        <time>2019-06-02T07:51:12.000Z</time>
      </trkpt>
      <trkpt lat="43.31504" lon="2.36329">
        <ele>279.7</ele>
        <time>2019-06-02T07:51:13.000Z</time>
      </trkpt>
      <trkpt lat="43.31505" lon="2.36326">
        <ele>279.7</ele>
        <time>2019-06-02T07:51:14.000Z</time>
      </trkpt>
      <trkpt lat="43.31506" lon="2.36324">
        <ele>279.6</ele>
        <time>2019-06-02T07:51:15.000Z</time>
      </trkpt>
      <trkpt lat="43.31507" lon="2.36321">
        <ele>279.5</ele>
        <time>2019-06-02T07:51:16.000Z</time>
      </trkpt>
      <trkpt lat="43.31509" lon="2.36319">
        <ele>279.5</ele>
        <time>2019-06-02T07:51:17.000Z</time>
      </trkpt>
      <trkpt lat="43.3151" lon="2.36316">
        <ele>279.4</ele>
        <time>2019-06-02T07:51:18.000Z</time>
      </trkpt>
      <trkpt lat="43.31512" lon="2.36314">
        <ele>279.3</ele>
        <time>2019-06-02T07:51:19.000Z</time>
      </trkpt>
      <trkpt lat="43.31514" lon="2.36312">
        <ele>279.2</ele>
        <time>2019-06-02T07:51:20.000Z</time>
      </trkpt>
      <trkpt lat="43.31516" lon="2.36309">
        <ele>279.1</ele>
        <time>2019-06-02T07:51:21.000Z</time>
      </trkpt>
      <trkpt lat="43.31518" lon="2.36307">
        <ele>279</ele>
        <time>2019-06-02T07:51:22.000Z</time>
      </trkpt>
      <trkpt lat="43.3152" lon="2.36305">
        <ele>278.9</ele>
        <time>2019-06-02T07:51:23.000Z</time>
      </trkpt>
      <trkpt lat="43.31522" lon="2.36303">
        <ele>278.9</ele>
        <time>2019-06-02T07:51:24.000Z</time>
      </trkpt>
      <trkpt lat="43.31524" lon="2.36301">
        <ele>278.8</ele>
        <time>2019-06-02T07:51:25.000Z</time>
      </trkpt>
      <trkpt lat="43.31526" lon="2.36299">
        <ele>278.7</ele>
        <time>2019-06-02T07:51:26.000Z</time>
      </trkpt>
      <trkpt lat="43.31528" lon="2.36297">
        <ele>278.6</ele>
        <time>2019-06-02T07:51:27.000Z</time>
      </trkpt>
      <trkpt lat="43.3153" lon="2.36295">
        <ele>278.6</ele>
        <time>2019-06-02T07:51:28.000Z</time>
      </trkpt>
      <trkpt lat="43.31533" lon="2.36293">
        <ele>278.5</ele>
        <time>2019-06-02T07:51:29.000Z</time>
      </trkpt>
      <trkpt lat="43.31535" lon="2.36292">
        <ele>278.4</ele>
        <time>2019-06-02T07:51:30.000Z</time>
      </trkpt>
      <trkpt lat="43.31536" lon="2.3629">
        <ele>278.4</ele>
        <time>2019-06-02T07:51:31.000Z</time>
      </trkpt>
      <trkpt lat="43.31538" lon="2.36289">
        <ele>278.3</ele>
        <time>2019-06-02T07:51:32.000Z</time>
      </trkpt>
      <trkpt lat="43.3154" lon="2.36287">
        <ele>278.3</ele>
        <time>2019-06-02T07:51:33.000Z</time>
      </trkpt>
      <trkpt lat="43.31542" lon="2.36286">
        <ele>278.3</ele>
        <time>2019-06-02T07:51:34.000Z</time>
      </trkpt>
      <trkpt lat="43.31544" lon="2.36284">
        <ele>278.2</ele>
        <time>2019-06-02T07:51:35.000Z</time>
      </trkpt>
      <trkpt lat="43.31546" lon="2.36283">
        <ele>278.2</ele>
        <time>2019-06-02T07:51:36.000Z</time>
      </trkpt>
      <trkpt lat="43.31548" lon="2.36281">
        <ele>278.2</ele>
        <time>2019-06-02T07:51:37.000Z</time>
      </trkpt>
      <trkpt lat="43.3155" lon="2.36279">
        <ele>278.2</ele>
        <time>2019-06-02T07:51:38.000Z</time>
      </trkpt>
      <trkpt lat="43.31552" lon="2.36277">
        <ele>278.2</ele>
        <time>2019-06-02T07:51:39.000Z</time>
      </trkpt>
      <trkpt lat="43.31554" lon="2.36275">
        <ele>278.2</ele>
        <time>2019-06-02T07:51:40.000Z</time>
      </trkpt>
      <trkpt lat="43.31556" lon="2.36273">
        <ele>278.2</ele>
        <time>2019-06-02T07:51:41.000Z</time>
      </trkpt>
      <trkpt lat="43.31558" lon="2.36272">
        <ele>278.3</ele>
        <time>2019-06-02T07:51:42.000Z</time>
      </trkpt>
      <trkpt lat="43.3156" lon="2.36269">
        <ele>278.3</ele>
        <time>2019-06-02T07:51:43.000Z</time>
      </trkpt>
      <trkpt lat="43.31562" lon="2.36267">
        <ele>278.4</ele>
        <time>2019-06-02T07:51:44.000Z</time>
      </trkpt>
      <trkpt lat="43.31564" lon="2.36265">
        <ele>278.4</ele>
        <time>2019-06-02T07:51:45.000Z</time>
      </trkpt>
      <trkpt lat="43.31566" lon="2.36263">
        <ele>278.5</ele>
        <time>2019-06-02T07:51:46.000Z</time>
      </trkpt>
      <trkpt lat="43.31568" lon="2.36261">
        <ele>278.6</ele>
        <time>2019-06-02T07:51:47.000Z</time>
      </trkpt>
      <trkpt lat="43.3157" lon="2.36259">
        <ele>278.7</ele>
        <time>2019-06-02T07:51:48.000Z</time>
      </trkpt>
      <trkpt lat="43.31572" lon="2.36257">
        <ele>278.7</ele>
        <time>2019-06-02T07:51:49.000Z</time>
      </trkpt>
      <trkpt lat="43.31574" lon="2.36255">
        <ele>278.8</ele>
        <time>2019-06-02T07:51:50.000Z</time>
      </trkpt>
      <trkpt lat="43.31576" lon="2.36253">
        <ele>278.9</ele>
        <time>2019-06-02T07:51:51.000Z</time>
      </trkpt>
      <trkpt lat="43.31578" lon="2.36251">
        <ele>279</ele>
        <time>2019-06-02T07:51:52.000Z</time>
      </trkpt>
      <trkpt lat="43.3158" lon="2.36249">
        <ele>279.1</ele>
        <time>2019-06-02T07:51:53.000Z</time>
      </trkpt>
      <trkpt lat="43.31581" lon="2.36247">
        <ele>279.1</ele>
        <time>2019-06-02T07:51:54.000Z</time>
      </trkpt>
      <trkpt lat="43.31583" lon="2.36245">
        <ele>279.1</ele>
        <time>2019-06-02T07:51:55.000Z</time>
      </trkpt>
      <trkpt lat="43.31585" lon="2.36242">
        <ele>278.9</ele>
        <time>2019-06-02T07:51:56.000Z</time>
      </trkpt>
      <trkpt lat="43.31587" lon="2.3624">
        <ele>278.7</ele>
        <time>2019-06-02T07:51:57.000Z</time>
      </trkpt>
      <trkpt lat="43.31589" lon="2.36237">
        <ele>278.6</ele>
        <time>2019-06-02T07:51:58.000Z</time>
      </trkpt>
      <trkpt lat="43.3159" lon="2.36234">
        <ele>278.5</ele>
        <time>2019-06-02T07:51:59.000Z</time>
      </trkpt>
      <trkpt lat="43.31592" lon="2.36231">
        <ele>278.3</ele>
        <time>2019-06-02T07:52:00.000Z</time>
      </trkpt>
      <trkpt lat="43.31594" lon="2.36228">
        <ele>278.2</ele>
        <time>2019-06-02T07:52:01.000Z</time>
      </trkpt>
      <trkpt lat="43.31596" lon="2.36225">
        <ele>278.2</ele>
        <time>2019-06-02T07:52:02.000Z</time>
      </trkpt>
      <trkpt lat="43.31597" lon="2.36222">
        <ele>278.1</ele>
        <time>2019-06-02T07:52:03.000Z</time>
      </trkpt>
      <trkpt lat="43.31599" lon="2.3622">
        <ele>278</ele>
        <time>2019-06-02T07:52:04.000Z</time>
      </trkpt>
      <trkpt lat="43.31601" lon="2.36217">
        <ele>278</ele>
        <time>2019-06-02T07:52:05.000Z</time>
      </trkpt>
      <trkpt lat="43.31603" lon="2.36214">
        <ele>278</ele>
        <time>2019-06-02T07:52:06.000Z</time>
      </trkpt>
      <trkpt lat="43.31605" lon="2.36212">
        <ele>277.9</ele>
        <time>2019-06-02T07:52:07.000Z</time>
      </trkpt>
      <trkpt lat="43.31607" lon="2.36209">
        <ele>277.9</ele>
        <time>2019-06-02T07:52:08.000Z</time>
      </trkpt>
      <trkpt lat="43.31609" lon="2.36207">
        <ele>277.9</ele>
        <time>2019-06-02T07:52:09.000Z</time>
      </trkpt>
      <trkpt lat="43.31611" lon="2.36204">
        <ele>277.9</ele>
        <time>2019-06-02T07:52:10.000Z</time>
      </trkpt>
      <trkpt lat="43.31613" lon="2.36202">
        <ele>277.9</ele>
        <time>2019-06-02T07:52:11.000Z</time>
      </trkpt>
      <trkpt lat="43.31615" lon="2.36199">
        <ele>278</ele>
        <time>2019-06-02T07:52:12.000Z</time>
      </trkpt>
      <trkpt lat="43.31617" lon="2.36197">
        <ele>278</ele>
        <time>2019-06-02T07:52:13.000Z</time>
      </trkpt>
      <trkpt lat="43.31619" lon="2.36194">
        <ele>278.1</ele>
        <time>2019-06-02T07:52:14.000Z</time>
      </trkpt>
      <trkpt lat="43.31621" lon="2.36192">
        <ele>278.2</ele>
        <time>2019-06-02T07:52:15.000Z</time>
      </trkpt>
      <trkpt lat="43.31623" lon="2.3619">
        <ele>278.3</ele>
        <time>2019-06-02T07:52:16.000Z</time>
      </trkpt>
      <trkpt lat="43.31624" lon="2.36187">
        <ele>278.4</ele>
        <time>2019-06-02T07:52:17.000Z</time>
      </trkpt>
      <trkpt lat="43.31626" lon="2.36185">
        <ele>278.5</ele>
        <time>2019-06-02T07:52:18.000Z</time>
      </trkpt>
      <trkpt lat="43.31628" lon="2.36183">
        <ele>278.6</ele>
        <time>2019-06-02T07:52:19.000Z</time>
      </trkpt>
      <trkpt lat="43.3163" lon="2.36181">
        <ele>278.8</ele>
        <time>2019-06-02T07:52:20.000Z</time>
      </trkpt>
      <trkpt lat="43.31632" lon="2.36179">
        <ele>278.9</ele>
        <time>2019-06-02T07:52:21.000Z</time>
      </trkpt>
      <trkpt lat="43.31634" lon="2.36177">
        <ele>279.1</ele>
        <time>2019-06-02T07:52:22.000Z</time>
      </trkpt>
      <trkpt lat="43.31635" lon="2.36175">
        <ele>279.2</ele>
        <time>2019-06-02T07:52:23.000Z</time>
      </trkpt>
      <trkpt lat="43.31636" lon="2.36173">
        <ele>279.4</ele>
        <time>2019-06-02T07:52:24.000Z</time>
      </trkpt>
      <trkpt lat="43.31637" lon="2.36171">
        <ele>279.6</ele>
        <time>2019-06-02T07:52:25.000Z</time>
      </trkpt>
      <trkpt lat="43.31639" lon="2.36168">
        <ele>279.8</ele>
        <time>2019-06-02T07:52:26.000Z</time>
      </trkpt>
      <trkpt lat="43.3164" lon="2.36166">
        <ele>280</ele>
        <time>2019-06-02T07:52:27.000Z</time>
      </trkpt>
      <trkpt lat="43.31642" lon="2.36164">
        <ele>280</ele>
        <time>2019-06-02T07:52:28.000Z</time>
      </trkpt>
      <trkpt lat="43.31643" lon="2.36161">
        <ele>280</ele>
        <time>2019-06-02T07:52:29.000Z</time>
      </trkpt>
      <trkpt lat="43.31645" lon="2.36159">
        <ele>279.9</ele>
        <time>2019-06-02T07:52:30.000Z</time>
      </trkpt>
      <trkpt lat="43.31647" lon="2.36157">
        <ele>279.9</ele>
        <time>2019-06-02T07:52:31.000Z</time>
      </trkpt>
      <trkpt lat="43.31649" lon="2.36154">
        <ele>280</ele>
        <time>2019-06-02T07:52:32.000Z</time>
      </trkpt>
      <trkpt lat="43.31651" lon="2.36152">
        <ele>280</ele>
        <time>2019-06-02T07:52:33.000Z</time>
      </trkpt>
      <trkpt lat="43.31653" lon="2.36149">
        <ele>280</ele>
        <time>2019-06-02T07:52:34.000Z</time>
      </trkpt>
      <trkpt lat="43.31655" lon="2.36147">
        <ele>280</ele>
        <time>2019-06-02T07:52:35.000Z</time>
      </trkpt>
      <trkpt lat="43.31657" lon="2.36145">
        <ele>280.1</ele>
        <time>2019-06-02T07:52:36.000Z</time>
      </trkpt>
      <trkpt lat="43.31659" lon="2.36143">
        <ele>280.1</ele>
        <time>2019-06-02T07:52:37.000Z</time>
      </trkpt>
      <trkpt lat="43.31661" lon="2.36141">
        <ele>280.2</ele>
        <time>2019-06-02T07:52:38.000Z</time>
      </trkpt>
      <trkpt lat="43.31663" lon="2.36139">
        <ele>280.2</ele>
        <time>2019-06-02T07:52:39.000Z</time>
      </trkpt>
      <trkpt lat="43.31665" lon="2.36138">
        <ele>280.3</ele>
        <time>2019-06-02T07:52:40.000Z</time>
      </trkpt>
      <trkpt lat="43.31668" lon="2.36136">
        <ele>280.4</ele>
        <time>2019-06-02T07:52:41.000Z</time>
      </trkpt>
      <trkpt lat="43.3167" lon="2.36135">
        <ele>280.5</ele>
        <time>2019-06-02T07:52:42.000Z</time>
      </trkpt>
      <trkpt lat="43.31673" lon="2.36134">
        <ele>280.6</ele>
        <time>2019-06-02T07:52:43.000Z</time>
      </trkpt>
      <trkpt lat="43.31676" lon="2.36134">
        <ele>280.7</ele>
        <time>2019-06-02T07:52:44.000Z</time>
      </trkpt>
      <trkpt lat="43.31678" lon="2.36133">
        <ele>280.8</ele>
        <time>2019-06-02T07:52:45.000Z</time>
      </trkpt>
      <trkpt lat="43.31681" lon="2.36132">
        <ele>280.9</ele>
        <time>2019-06-02T07:52:46.000Z</time>
      </trkpt>
      <trkpt lat="43.31683" lon="2.36132">
        <ele>281</ele>
        <time>2019-06-02T07:52:47.000Z</time>
      </trkpt>
      <trkpt lat="43.31686" lon="2.36131">
        <ele>281.1</ele>
        <time>2019-06-02T07:52:48.000Z</time>
      </trkpt>
      <trkpt lat="43.31688" lon="2.3613">
        <ele>281.2</ele>
        <time>2019-06-02T07:52:49.000Z</time>
      </trkpt>
      <trkpt lat="43.31691" lon="2.36129">
        <ele>281.3</ele>
        <time>2019-06-02T07:52:50.000Z</time>
      </trkpt>
      <trkpt lat="43.31693" lon="2.36129">
        <ele>281.4</ele>
        <time>2019-06-02T07:52:51.000Z</time>
      </trkpt>
      <trkpt lat="43.31696" lon="2.36128">
        <ele>281.5</ele>
        <time>2019-06-02T07:52:52.000Z</time>
      </trkpt>
      <trkpt lat="43.31698" lon="2.36128">
        <ele>281.6</ele>
        <time>2019-06-02T07:52:53.000Z</time>
      </trkpt>
      <trkpt lat="43.31701" lon="2.36127">
        <ele>281.7</ele>
        <time>2019-06-02T07:52:54.000Z</time>
      </trkpt>
      <trkpt lat="43.31703" lon="2.36127">
        <ele>281.8</ele>
        <time>2019-06-02T07:52:55.000Z</time>
      </trkpt>
      <trkpt lat="43.31706" lon="2.36128">
        <ele>281.9</ele>
        <time>2019-06-02T07:52:56.000Z</time>
      </trkpt>
      <trkpt lat="43.31709" lon="2.36128">
        <ele>282</ele>
        <time>2019-06-02T07:52:57.000Z</time>
      </trkpt>
      <trkpt lat="43.31712" lon="2.36129">
        <ele>282.1</ele>
        <time>2019-06-02T07:52:58.000Z</time>
      </trkpt>
      <trkpt lat="43.31715" lon="2.3613">
        <ele>282.2</ele>
        <time>2019-06-02T07:52:59.000Z</time>
      </trkpt>
      <trkpt lat="43.31718" lon="2.36131">
        <ele>282.3</ele>
        <time>2019-06-02T07:53:00.000Z</time>
      </trkpt>
      <trkpt lat="43.31721" lon="2.36133">
        <ele>282.4</ele>
        <time>2019-06-02T07:53:01.000Z</time>
      </trkpt>
      <trkpt lat="43.31724" lon="2.36136">
        <ele>282.4</ele>
        <time>2019-06-02T07:53:02.000Z</time>
      </trkpt>
      <trkpt lat="43.31727" lon="2.36138">
        <ele>282.5</ele>
        <time>2019-06-02T07:53:03.000Z</time>
      </trkpt>
      <trkpt lat="43.31729" lon="2.36141">
        <ele>282.6</ele>
        <time>2019-06-02T07:53:04.000Z</time>
      </trkpt>
      <trkpt lat="43.31732" lon="2.36144">
        <ele>282.6</ele>
        <time>2019-06-02T07:53:05.000Z</time>
      </trkpt>
      <trkpt lat="43.31734" lon="2.36147">
        <ele>282.7</ele>
        <time>2019-06-02T07:53:06.000Z</time>
      </trkpt>
      <trkpt lat="43.31735" lon="2.36149">
        <ele>282.7</ele>
        <time>2019-06-02T07:53:07.000Z</time>
      </trkpt>
      <trkpt lat="43.31737" lon="2.36152">
        <ele>282.7</ele>
        <time>2019-06-02T07:53:08.000Z</time>
      </trkpt>
      <trkpt lat="43.31738" lon="2.36154">
        <ele>282.7</ele>
        <time>2019-06-02T07:53:09.000Z</time>
      </trkpt>
      <trkpt lat="43.31739" lon="2.36156">
        <ele>282.7</ele>
        <time>2019-06-02T07:53:10.000Z</time>
      </trkpt>
      <trkpt lat="43.31741" lon="2.36158">
        <ele>282.8</ele>
        <time>2019-06-02T07:53:11.000Z</time>
      </trkpt>
      <trkpt lat="43.31742" lon="2.3616">
        <ele>282.8</ele>
        <time>2019-06-02T07:53:12.000Z</time>
      </trkpt>
      <trkpt lat="43.31744" lon="2.36162">
        <ele>282.8</ele>
        <time>2019-06-02T07:53:13.000Z</time>
      </trkpt>
      <trkpt lat="43.31746" lon="2.36164">
        <ele>282.9</ele>
        <time>2019-06-02T07:53:14.000Z</time>
      </trkpt>
      <trkpt lat="43.31748" lon="2.36165">
        <ele>282.9</ele>
        <time>2019-06-02T07:53:15.000Z</time>
      </trkpt>
      <trkpt lat="43.3175" lon="2.36167">
        <ele>282.9</ele>
        <time>2019-06-02T07:53:16.000Z</time>
      </trkpt>
      <trkpt lat="43.31752" lon="2.36169">
        <ele>282.8</ele>
        <time>2019-06-02T07:53:17.000Z</time>
      </trkpt>
      <trkpt lat="43.31754" lon="2.3617">
        <ele>282.7</ele>
        <time>2019-06-02T07:53:18.000Z</time>
      </trkpt>
      <trkpt lat="43.31757" lon="2.36171">
        <ele>282.6</ele>
        <time>2019-06-02T07:53:19.000Z</time>
      </trkpt>
      <trkpt lat="43.31759" lon="2.36173">
        <ele>282.5</ele>
        <time>2019-06-02T07:53:20.000Z</time>
      </trkpt>
      <trkpt lat="43.31762" lon="2.36174">
        <ele>282.4</ele>
        <time>2019-06-02T07:53:21.000Z</time>
      </trkpt>
      <trkpt lat="43.31764" lon="2.36175">
        <ele>282.3</ele>
        <time>2019-06-02T07:53:22.000Z</time>
      </trkpt>
      <trkpt lat="43.31767" lon="2.36176">
        <ele>282.2</ele>
        <time>2019-06-02T07:53:23.000Z</time>
      </trkpt>
      <trkpt lat="43.31769" lon="2.36177">
        <ele>282.2</ele>
        <time>2019-06-02T07:53:24.000Z</time>
      </trkpt>
      <trkpt lat="43.31771" lon="2.36177">
        <ele>282.2</ele>
        <time>2019-06-02T07:53:25.000Z</time>
      </trkpt>
      <trkpt lat="43.31774" lon="2.36178">
        <ele>282.1</ele>
        <time>2019-06-02T07:53:26.000Z</time>
      </trkpt>
      <trkpt lat="43.31776" lon="2.36179">
        <ele>282.1</ele>
        <time>2019-06-02T07:53:27.000Z</time>
      </trkpt>
      <trkpt lat="43.31778" lon="2.36179">
        <ele>282.1</ele>
        <time>2019-06-02T07:53:28.000Z</time>
      </trkpt>
      <trkpt lat="43.3178" lon="2.3618">
        <ele>282.1</ele>
        <time>2019-06-02T07:53:29.000Z</time>
      </trkpt>
      <trkpt lat="43.31783" lon="2.3618">
        <ele>282.1</ele>
        <time>2019-06-02T07:53:30.000Z</time>
      </trkpt>
      <trkpt lat="43.31785" lon="2.36181">
        <ele>282.1</ele>
        <time>2019-06-02T07:53:31.000Z</time>
      </trkpt>
      <trkpt lat="43.31787" lon="2.36181">
        <ele>282.2</ele>
        <time>2019-06-02T07:53:32.000Z</time>
      </trkpt>
      <trkpt lat="43.31789" lon="2.36181">
        <ele>282.2</ele>
        <time>2019-06-02T07:53:33.000Z</time>
      </trkpt>
      <trkpt lat="43.31792" lon="2.36181">
        <ele>282.2</ele>
        <time>2019-06-02T07:53:34.000Z</time>
      </trkpt>
      <trkpt lat="43.31794" lon="2.36182">
        <ele>282.3</ele>
        <time>2019-06-02T07:53:35.000Z</time>
      </trkpt>
      <trkpt lat="43.31797" lon="2.36182">
        <ele>282.3</ele>
        <time>2019-06-02T07:53:36.000Z</time>
      </trkpt>
      <trkpt lat="43.31799" lon="2.36182">
        <ele>282.4</ele>
        <time>2019-06-02T07:53:37.000Z</time>
      </trkpt>
      <trkpt lat="43.31801" lon="2.36182">
        <ele>282.5</ele>
        <time>2019-06-02T07:53:38.000Z</time>
      </trkpt>
      <trkpt lat="43.31804" lon="2.36182">
        <ele>282.5</ele>
        <time>2019-06-02T07:53:39.000Z</time>
      </trkpt>
      <trkpt lat="43.31806" lon="2.36182">
        <ele>282.6</ele>
        <time>2019-06-02T07:53:40.000Z</time>
      </trkpt>
      <trkpt lat="43.31809" lon="2.36182">
        <ele>282.7</ele>
        <time>2019-06-02T07:53:41.000Z</time>
      </trkpt>
      <trkpt lat="43.31811" lon="2.36182">
        <ele>282.8</ele>
        <time>2019-06-02T07:53:42.000Z</time>
      </trkpt>
      <trkpt lat="43.31814" lon="2.36181">
        <ele>282.9</ele>
        <time>2019-06-02T07:53:43.000Z</time>
      </trkpt>
      <trkpt lat="43.31816" lon="2.36181">
        <ele>282.9</ele>
        <time>2019-06-02T07:53:44.000Z</time>
      </trkpt>
      <trkpt lat="43.31819" lon="2.36181">
        <ele>283</ele>
        <time>2019-06-02T07:53:45.000Z</time>
      </trkpt>
      <trkpt lat="43.31821" lon="2.36181">
        <ele>283.1</ele>
        <time>2019-06-02T07:53:46.000Z</time>
      </trkpt>
      <trkpt lat="43.31823" lon="2.3618">
        <ele>283.2</ele>
        <time>2019-06-02T07:53:47.000Z</time>
      </trkpt>
      <trkpt lat="43.31826" lon="2.3618">
        <ele>283.3</ele>
        <time>2019-06-02T07:53:48.000Z</time>
      </trkpt>
      <trkpt lat="43.31828" lon="2.3618">
        <ele>283.5</ele>
        <time>2019-06-02T07:53:49.000Z</time>
      </trkpt>
      <trkpt lat="43.3183" lon="2.36179">
        <ele>283.6</ele>
        <time>2019-06-02T07:53:50.000Z</time>
      </trkpt>
      <trkpt lat="43.31833" lon="2.36179">
        <ele>283.7</ele>
        <time>2019-06-02T07:53:51.000Z</time>
      </trkpt>
      <trkpt lat="43.31835" lon="2.36178">
        <ele>283.8</ele>
        <time>2019-06-02T07:53:52.000Z</time>
      </trkpt>
      <trkpt lat="43.31837" lon="2.36177">
        <ele>283.8</ele>
        <time>2019-06-02T07:53:53.000Z</time>
      </trkpt>
      <trkpt lat="43.3184" lon="2.36176">
        <ele>283.8</ele>
        <time>2019-06-02T07:53:54.000Z</time>
      </trkpt>
      <trkpt lat="43.31842" lon="2.36175">
        <ele>283.9</ele>
        <time>2019-06-02T07:53:55.000Z</time>
      </trkpt>
      <trkpt lat="43.31844" lon="2.36174">
        <ele>283.9</ele>
        <time>2019-06-02T07:53:56.000Z</time>
      </trkpt>
      <trkpt lat="43.31846" lon="2.36173">
        <ele>284</ele>
        <time>2019-06-02T07:53:57.000Z</time>
      </trkpt>
      <trkpt lat="43.31849" lon="2.36171">
        <ele>284.1</ele>
        <time>2019-06-02T07:53:58.000Z</time>
      </trkpt>
      <trkpt lat="43.31851" lon="2.3617">
        <ele>284.2</ele>
        <time>2019-06-02T07:53:59.000Z</time>
      </trkpt>
      <trkpt lat="43.31853" lon="2.36168">
        <ele>284.3</ele>
        <time>2019-06-02T07:54:00.000Z</time>
      </trkpt>
      <trkpt lat="43.31856" lon="2.36167">
        <ele>284.4</ele>
        <time>2019-06-02T07:54:01.000Z</time>
      </trkpt>
      <trkpt lat="43.31858" lon="2.36165">
        <ele>284.5</ele>
        <time>2019-06-02T07:54:02.000Z</time>
      </trkpt>
      <trkpt lat="43.31861" lon="2.36164">
        <ele>284.5</ele>
        <time>2019-06-02T07:54:03.000Z</time>
      </trkpt>
      <trkpt lat="43.31863" lon="2.36162">
        <ele>284.5</ele>
        <time>2019-06-02T07:54:04.000Z</time>
      </trkpt>
      <trkpt lat="43.31866" lon="2.36161">
        <ele>284.5</ele>
        <time>2019-06-02T07:54:05.000Z</time>
      </trkpt>
      <trkpt lat="43.31868" lon="2.36159">
        <ele>284.5</ele>
        <time>2019-06-02T07:54:06.000Z</time>
      </trkpt>
      <trkpt lat="43.31871" lon="2.36158">
        <ele>284.6</ele>
        <time>2019-06-02T07:54:07.000Z</time>
      </trkpt>
      <trkpt lat="43.31873" lon="2.36156">
        <ele>284.6</ele>
        <time>2019-06-02T07:54:08.000Z</time>
      </trkpt>
      <trkpt lat="43.31876" lon="2.36154">
        <ele>284.6</ele>
        <time>2019-06-02T07:54:09.000Z</time>
      </trkpt>
      <trkpt lat="43.31878" lon="2.36153">
        <ele>284.7</ele>
        <time>2019-06-02T07:54:10.000Z</time>
      </trkpt>
      <trkpt lat="43.31881" lon="2.36151">
        <ele>284.7</ele>
        <time>2019-06-02T07:54:11.000Z</time>
      </trkpt>
      <trkpt lat="43.31884" lon="2.3615">
        <ele>284.8</ele>
        <time>2019-06-02T07:54:12.000Z</time>
      </trkpt>
      <trkpt lat="43.31886" lon="2.36148">
        <ele>284.8</ele>
        <time>2019-06-02T07:54:13.000Z</time>
      </trkpt>
      <trkpt lat="43.31889" lon="2.36146">
        <ele>284.9</ele>
        <time>2019-06-02T07:54:14.000Z</time>
      </trkpt>
      <trkpt lat="43.31891" lon="2.36145">
        <ele>285</ele>
        <time>2019-06-02T07:54:15.000Z</time>
      </trkpt>
      <trkpt lat="43.31894" lon="2.36143">
        <ele>285</ele>
        <time>2019-06-02T07:54:16.000Z</time>
      </trkpt>
      <trkpt lat="43.31897" lon="2.36141">
        <ele>285.1</ele>
        <time>2019-06-02T07:54:17.000Z</time>
      </trkpt>
      <trkpt lat="43.31899" lon="2.3614">
        <ele>285.2</ele>
        <time>2019-06-02T07:54:18.000Z</time>
      </trkpt>
      <trkpt lat="43.31902" lon="2.36138">
        <ele>285.2</ele>
        <time>2019-06-02T07:54:19.000Z</time>
      </trkpt>
      <trkpt lat="43.31904" lon="2.36136">
        <ele>285.3</ele>
        <time>2019-06-02T07:54:20.000Z</time>
      </trkpt>
      <trkpt lat="43.31907" lon="2.36135">
        <ele>285.4</ele>
        <time>2019-06-02T07:54:21.000Z</time>
      </trkpt>
      <trkpt lat="43.31909" lon="2.36133">
        <ele>285.5</ele>
        <time>2019-06-02T07:54:22.000Z</time>
      </trkpt>
      <trkpt lat="43.31912" lon="2.36131">
        <ele>285.6</ele>
        <time>2019-06-02T07:54:23.000Z</time>
      </trkpt>
      <trkpt lat="43.31914" lon="2.3613">
        <ele>285.7</ele>
        <time>2019-06-02T07:54:24.000Z</time>
      </trkpt>
      <trkpt lat="43.31917" lon="2.36128">
        <ele>285.8</ele>
        <time>2019-06-02T07:54:25.000Z</time>
      </trkpt>
      <trkpt lat="43.31919" lon="2.36126">
        <ele>285.9</ele>
        <time>2019-06-02T07:54:26.000Z</time>
      </trkpt>
      <trkpt lat="43.31922" lon="2.36125">
        <ele>286.1</ele>
        <time>2019-06-02T07:54:27.000Z</time>
      </trkpt>
      <trkpt lat="43.31924" lon="2.36123">
        <ele>286.2</ele>
        <time>2019-06-02T07:54:28.000Z</time>
      </trkpt>
      <trkpt lat="43.31927" lon="2.36122">
        <ele>286.4</ele>
        <time>2019-06-02T07:54:29.000Z</time>
      </trkpt>
      <trkpt lat="43.31929" lon="2.3612">
        <ele>286.5</ele>
        <time>2019-06-02T07:54:30.000Z</time>
      </trkpt>
      <trkpt lat="43.31932" lon="2.36119">
        <ele>286.6</ele>
        <time>2019-06-02T07:54:31.000Z</time>
      </trkpt>
      <trkpt lat="43.31934" lon="2.36117">
        <ele>286.8</ele>
        <time>2019-06-02T07:54:32.000Z</time>
      </trkpt>
      <trkpt lat="43.31937" lon="2.36115">
        <ele>286.9</ele>
        <time>2019-06-02T07:54:33.000Z</time>
      </trkpt>
      <trkpt lat="43.31939" lon="2.36114">
        <ele>287.1</ele>
        <time>2019-06-02T07:54:34.000Z</time>
      </trkpt>
      <trkpt lat="43.31942" lon="2.36112">
        <ele>287.2</ele>
        <time>2019-06-02T07:54:35.000Z</time>
      </trkpt>
      <trkpt lat="43.31944" lon="2.36111">
        <ele>287.3</ele>
        <time>2019-06-02T07:54:36.000Z</time>
      </trkpt>
      <trkpt lat="43.31947" lon="2.3611">
        <ele>287.5</ele>
        <time>2019-06-02T07:54:37.000Z</time>
      </trkpt>
      <trkpt lat="43.31949" lon="2.36108">
        <ele>287.6</ele>
        <time>2019-06-02T07:54:38.000Z</time>
      </trkpt>
      <trkpt lat="43.31951" lon="2.36107">
        <ele>287.7</ele>
        <time>2019-06-02T07:54:39.000Z</time>
      </trkpt>
      <trkpt lat="43.31954" lon="2.36105">
        <ele>287.9</ele>
        <time>2019-06-02T07:54:40.000Z</time>
      </trkpt>
      <trkpt lat="43.31956" lon="2.36104">
        <ele>288</ele>
        <time>2019-06-02T07:54:41.000Z</time>
      </trkpt>
      <trkpt lat="43.31959" lon="2.36103">
        <ele>288.1</ele>
        <time>2019-06-02T07:54:42.000Z</time>
      </trkpt>
      <trkpt lat="43.31961" lon="2.36101">
        <ele>288.2</ele>
        <time>2019-06-02T07:54:43.000Z</time>
      </trkpt>
      <trkpt lat="43.31963" lon="2.361">
        <ele>288.4</ele>
        <time>2019-06-02T07:54:44.000Z</time>
      </trkpt>
      <trkpt lat="43.31966" lon="2.36099">
        <ele>288.5</ele>
        <time>2019-06-02T07:54:45.000Z</time>
      </trkpt>
      <trkpt lat="43.31968" lon="2.36098">
        <ele>288.6</ele>
        <time>2019-06-02T07:54:46.000Z</time>
      </trkpt>
      <trkpt lat="43.31971" lon="2.36096">
        <ele>288.7</ele>
        <time>2019-06-02T07:54:47.000Z</time>
      </trkpt>
      <trkpt lat="43.31973" lon="2.36095">
        <ele>288.8</ele>
        <time>2019-06-02T07:54:48.000Z</time>
      </trkpt>
      <trkpt lat="43.31975" lon="2.36094">
        <ele>288.9</ele>
        <time>2019-06-02T07:54:49.000Z</time>
      </trkpt>
      <trkpt lat="43.31978" lon="2.36093">
        <ele>289</ele>
        <time>2019-06-02T07:54:50.000Z</time>
      </trkpt>
      <trkpt lat="43.3198" lon="2.36092">
        <ele>289.1</ele>
        <time>2019-06-02T07:54:51.000Z</time>
      </trkpt>
      <trkpt lat="43.31983" lon="2.36091">
        <ele>289.2</ele>
        <time>2019-06-02T07:54:52.000Z</time>
      </trkpt>
      <trkpt lat="43.31986" lon="2.3609">
        <ele>289.4</ele>
        <time>2019-06-02T07:54:53.000Z</time>
      </trkpt>
      <trkpt lat="43.31988" lon="2.36089">
        <ele>289.5</ele>
        <time>2019-06-02T07:54:54.000Z</time>
      </trkpt>
      <trkpt lat="43.31991" lon="2.36088">
        <ele>289.6</ele>
        <time>2019-06-02T07:54:55.000Z</time>
      </trkpt>
      <trkpt lat="43.31993" lon="2.36087">
        <ele>289.7</ele>
        <time>2019-06-02T07:54:56.000Z</time>
      </trkpt>
      <trkpt lat="43.31996" lon="2.36086">
        <ele>289.8</ele>
        <time>2019-06-02T07:54:57.000Z</time>
      </trkpt>
      <trkpt lat="43.31999" lon="2.36085">
        <ele>289.9</ele>
        <time>2019-06-02T07:54:58.000Z</time>
      </trkpt>
      <trkpt lat="43.32001" lon="2.36084">
        <ele>290</ele>
        <time>2019-06-02T07:54:59.000Z</time>
      </trkpt>
      <trkpt lat="43.32004" lon="2.36083">
        <ele>290.1</ele>
        <time>2019-06-02T07:55:00.000Z</time>
      </trkpt>
      <trkpt lat="43.32006" lon="2.36082">
        <ele>290.1</ele>
        <time>2019-06-02T07:55:01.000Z</time>
      </trkpt>
      <trkpt lat="43.32009" lon="2.36081">
        <ele>290.2</ele>
        <time>2019-06-02T07:55:02.000Z</time>
      </trkpt>
      <trkpt lat="43.32011" lon="2.3608">
        <ele>290.3</ele>
        <time>2019-06-02T07:55:03.000Z</time>
      </trkpt>
      <trkpt lat="43.32014" lon="2.36079">
        <ele>290.3</ele>
        <time>2019-06-02T07:55:04.000Z</time>
      </trkpt>
      <trkpt lat="43.32016" lon="2.36078">
        <ele>290.4</ele>
        <time>2019-06-02T07:55:05.000Z</time>
      </trkpt>
      <trkpt lat="43.32019" lon="2.36077">
        <ele>290.5</ele>
        <time>2019-06-02T07:55:06.000Z</time>
      </trkpt>
      <trkpt lat="43.32021" lon="2.36076">
        <ele>290.5</ele>
        <time>2019-06-02T07:55:07.000Z</time>
      </trkpt>
      <trkpt lat="43.32024" lon="2.36075">
        <ele>290.6</ele>
        <time>2019-06-02T07:55:08.000Z</time>
      </trkpt>
      <trkpt lat="43.32026" lon="2.36075">
        <ele>290.7</ele>
        <time>2019-06-02T07:55:09.000Z</time>
      </trkpt>
      <trkpt lat="43.32029" lon="2.36074">
        <ele>290.7</ele>
        <time>2019-06-02T07:55:10.000Z</time>
      </trkpt>
      <trkpt lat="43.32031" lon="2.36073">
        <ele>290.8</ele>
        <time>2019-06-02T07:55:11.000Z</time>
      </trkpt>
      <trkpt lat="43.32034" lon="2.36073">
        <ele>290.9</ele>
        <time>2019-06-02T07:55:12.000Z</time>
      </trkpt>
      <trkpt lat="43.32036" lon="2.36073">
        <ele>290.9</ele>
        <time>2019-06-02T07:55:13.000Z</time>
      </trkpt>
      <trkpt lat="43.32039" lon="2.36072">
        <ele>291</ele>
        <time>2019-06-02T07:55:14.000Z</time>
      </trkpt>
      <trkpt lat="43.32042" lon="2.36072">
        <ele>291.1</ele>
        <time>2019-06-02T07:55:15.000Z</time>
      </trkpt>
      <trkpt lat="43.32045" lon="2.36072">
        <ele>291.1</ele>
        <time>2019-06-02T07:55:16.000Z</time>
      </trkpt>
      <trkpt lat="43.32047" lon="2.36071">
        <ele>291.2</ele>
        <time>2019-06-02T07:55:17.000Z</time>
      </trkpt>
      <trkpt lat="43.3205" lon="2.36071">
        <ele>291.3</ele>
        <time>2019-06-02T07:55:18.000Z</time>
      </trkpt>
      <trkpt lat="43.32053" lon="2.3607">
        <ele>291.4</ele>
        <time>2019-06-02T07:55:19.000Z</time>
      </trkpt>
      <trkpt lat="43.32055" lon="2.36069">
        <ele>291.4</ele>
        <time>2019-06-02T07:55:20.000Z</time>
      </trkpt>
      <trkpt lat="43.32058" lon="2.36068">
        <ele>291.5</ele>
        <time>2019-06-02T07:55:21.000Z</time>
      </trkpt>
      <trkpt lat="43.3206" lon="2.36067">
        <ele>291.6</ele>
        <time>2019-06-02T07:55:22.000Z</time>
      </trkpt>
      <trkpt lat="43.32063" lon="2.36066">
        <ele>291.7</ele>
        <time>2019-06-02T07:55:23.000Z</time>
      </trkpt>
      <trkpt lat="43.32065" lon="2.36064">
        <ele>291.7</ele>
        <time>2019-06-02T07:55:24.000Z</time>
      </trkpt>
      <trkpt lat="43.32068" lon="2.36063">
        <ele>291.8</ele>
        <time>2019-06-02T07:55:25.000Z</time>
      </trkpt>
      <trkpt lat="43.3207" lon="2.36061">
        <ele>291.9</ele>
        <time>2019-06-02T07:55:26.000Z</time>
      </trkpt>
      <trkpt lat="43.32073" lon="2.3606">
        <ele>292</ele>
        <time>2019-06-02T07:55:27.000Z</time>
      </trkpt>
      <trkpt lat="43.32075" lon="2.36058">
        <ele>292.1</ele>
        <time>2019-06-02T07:55:28.000Z</time>
      </trkpt>
      <trkpt lat="43.32077" lon="2.36057">
        <ele>292.2</ele>
        <time>2019-06-02T07:55:29.000Z</time>
      </trkpt>
      <trkpt lat="43.3208" lon="2.36055">
        <ele>292.2</ele>
        <time>2019-06-02T07:55:30.000Z</time>
      </trkpt>
      <trkpt lat="43.32082" lon="2.36054">
        <ele>292.3</ele>
        <time>2019-06-02T07:55:31.000Z</time>
      </trkpt>
      <trkpt lat="43.32084" lon="2.36052">
        <ele>292.4</ele>
        <time>2019-06-02T07:55:32.000Z</time>
      </trkpt>
      <trkpt lat="43.32087" lon="2.3605">
        <ele>292.4</ele>
        <time>2019-06-02T07:55:33.000Z</time>
      </trkpt>
      <trkpt lat="43.32089" lon="2.36049">
        <ele>292.4</ele>
        <time>2019-06-02T07:55:34.000Z</time>
      </trkpt>
      <trkpt lat="43.32091" lon="2.36047">
        <ele>292.5</ele>
        <time>2019-06-02T07:55:35.000Z</time>
      </trkpt>
      <trkpt lat="43.32093" lon="2.36045">
        <ele>292.5</ele>
        <time>2019-06-02T07:55:36.000Z</time>
      </trkpt>
      <trkpt lat="43.32095" lon="2.36043">
        <ele>292.6</ele>
        <time>2019-06-02T07:55:37.000Z</time>
      </trkpt>
      <trkpt lat="43.32097" lon="2.36041">
        <ele>292.6</ele>
        <time>2019-06-02T07:55:38.000Z</time>
      </trkpt>
      <trkpt lat="43.321" lon="2.36039">
        <ele>292.7</ele>
        <time>2019-06-02T07:55:39.000Z</time>
      </trkpt>
      <trkpt lat="43.32102" lon="2.36037">
        <ele>292.7</ele>
        <time>2019-06-02T07:55:40.000Z</time>
      </trkpt>
      <trkpt lat="43.32104" lon="2.36035">
        <ele>292.8</ele>
        <time>2019-06-02T07:55:41.000Z</time>
      </trkpt>
      <trkpt lat="43.32106" lon="2.36033">
        <ele>292.8</ele>
        <time>2019-06-02T07:55:42.000Z</time>
      </trkpt>
      <trkpt lat="43.32109" lon="2.36032">
        <ele>292.9</ele>
        <time>2019-06-02T07:55:43.000Z</time>
      </trkpt>
      <trkpt lat="43.32111" lon="2.3603">
        <ele>292.9</ele>
        <time>2019-06-02T07:55:44.000Z</time>
      </trkpt>
      <trkpt lat="43.32114" lon="2.36029">
        <ele>293</ele>
        <time>2019-06-02T07:55:45.000Z</time>
      </trkpt>
      <trkpt lat="43.32116" lon="2.36027">
        <ele>293.1</ele>
        <time>2019-06-02T07:55:46.000Z</time>
      </trkpt>
      <trkpt lat="43.32119" lon="2.36026">
        <ele>293.1</ele>
        <time>2019-06-02T07:55:47.000Z</time>
      </trkpt>
      <trkpt lat="43.32121" lon="2.36024">
        <ele>293.2</ele>
        <time>2019-06-02T07:55:48.000Z</time>
      </trkpt>
      <trkpt lat="43.32123" lon="2.36022">
        <ele>293.3</ele>
        <time>2019-06-02T07:55:49.000Z</time>
      </trkpt>
      <trkpt lat="43.32126" lon="2.36021">
        <ele>293.4</ele>
        <time>2019-06-02T07:55:50.000Z</time>
      </trkpt>
      <trkpt lat="43.32128" lon="2.36019">
        <ele>293.5</ele>
        <time>2019-06-02T07:55:51.000Z</time>
      </trkpt>
      <trkpt lat="43.3213" lon="2.36017">
        <ele>293.6</ele>
        <time>2019-06-02T07:55:52.000Z</time>
      </trkpt>
      <trkpt lat="43.32132" lon="2.36015">
        <ele>293.7</ele>
        <time>2019-06-02T07:55:53.000Z</time>
      </trkpt>
      <trkpt lat="43.32135" lon="2.36013">
        <ele>293.8</ele>
        <time>2019-06-02T07:55:54.000Z</time>
      </trkpt>
      <trkpt lat="43.32137" lon="2.36011">
        <ele>293.9</ele>
        <time>2019-06-02T07:55:55.000Z</time>
      </trkpt>
      <trkpt lat="43.32139" lon="2.36008">
        <ele>294</ele>
        <time>2019-06-02T07:55:56.000Z</time>
      </trkpt>
      <trkpt lat="43.32141" lon="2.36006">
        <ele>294.2</ele>
        <time>2019-06-02T07:55:57.000Z</time>
      </trkpt>
      <trkpt lat="43.32144" lon="2.36004">
        <ele>294.3</ele>
        <time>2019-06-02T07:55:58.000Z</time>
      </trkpt>
      <trkpt lat="43.32146" lon="2.36002">
        <ele>294.4</ele>
        <time>2019-06-02T07:55:59.000Z</time>
      </trkpt>
      <trkpt lat="43.32148" lon="2.36">
        <ele>294.5</ele>
        <time>2019-06-02T07:56:00.000Z</time>
      </trkpt>
      <trkpt lat="43.32151" lon="2.35998">
        <ele>294.6</ele>
        <time>2019-06-02T07:56:01.000Z</time>
      </trkpt>
      <trkpt lat="43.32153" lon="2.35997">
        <ele>294.7</ele>
        <time>2019-06-02T07:56:02.000Z</time>
      </trkpt>
      <trkpt lat="43.32155" lon="2.35995">
        <ele>294.8</ele>
        <time>2019-06-02T07:56:03.000Z</time>
      </trkpt>
      <trkpt lat="43.32158" lon="2.35993">
        <ele>294.8</ele>
        <time>2019-06-02T07:56:04.000Z</time>
      </trkpt>
      <trkpt lat="43.3216" lon="2.35991">
        <ele>294.9</ele>
        <time>2019-06-02T07:56:05.000Z</time>
      </trkpt>
      <trkpt lat="43.32163" lon="2.35989">
        <ele>295</ele>
        <time>2019-06-02T07:56:06.000Z</time>
      </trkpt>
      <trkpt lat="43.32165" lon="2.35988">
        <ele>295.1</ele>
        <time>2019-06-02T07:56:07.000Z</time>
      </trkpt>
      <trkpt lat="43.32168" lon="2.35986">
        <ele>295.2</ele>
        <time>2019-06-02T07:56:08.000Z</time>
      </trkpt>
      <trkpt lat="43.3217" lon="2.35985">
        <ele>295.3</ele>
        <time>2019-06-02T07:56:09.000Z</time>
      </trkpt>
      <trkpt lat="43.32172" lon="2.35983">
        <ele>295.4</ele>
        <time>2019-06-02T07:56:10.000Z</time>
      </trkpt>
      <trkpt lat="43.32175" lon="2.35982">
        <ele>295.4</ele>
        <time>2019-06-02T07:56:11.000Z</time>
      </trkpt>
      <trkpt lat="43.32177" lon="2.3598">
        <ele>295.5</ele>
        <time>2019-06-02T07:56:12.000Z</time>
      </trkpt>
      <trkpt lat="43.3218" lon="2.35979">
        <ele>295.6</ele>
        <time>2019-06-02T07:56:13.000Z</time>
      </trkpt>
      <trkpt lat="43.32182" lon="2.35978">
        <ele>295.7</ele>
        <time>2019-06-02T07:56:14.000Z</time>
      </trkpt>
      <trkpt lat="43.32184" lon="2.35976">
        <ele>295.8</ele>
        <time>2019-06-02T07:56:15.000Z</time>
      </trkpt>
      <trkpt lat="43.32186" lon="2.35975">
        <ele>295.8</ele>
        <time>2019-06-02T07:56:16.000Z</time>
      </trkpt>
      <trkpt lat="43.32189" lon="2.35974">
        <ele>295.9</ele>
        <time>2019-06-02T07:56:17.000Z</time>
      </trkpt>
      <trkpt lat="43.32191" lon="2.35973">
        <ele>296</ele>
        <time>2019-06-02T07:56:18.000Z</time>
      </trkpt>
      <trkpt lat="43.32193" lon="2.35972">
        <ele>296.1</ele>
        <time>2019-06-02T07:56:19.000Z</time>
      </trkpt>
      <trkpt lat="43.32195" lon="2.3597">
        <ele>296.2</ele>
        <time>2019-06-02T07:56:20.000Z</time>
      </trkpt>
      <trkpt lat="43.32197" lon="2.35968">
        <ele>296.2</ele>
        <time>2019-06-02T07:56:21.000Z</time>
      </trkpt>
      <trkpt lat="43.32198" lon="2.35966">
        <ele>296.3</ele>
        <time>2019-06-02T07:56:22.000Z</time>
      </trkpt>
      <trkpt lat="43.322" lon="2.35962">
        <ele>296.4</ele>
        <time>2019-06-02T07:56:23.000Z</time>
      </trkpt>
      <trkpt lat="43.32201" lon="2.35959">
        <ele>296.5</ele>
        <time>2019-06-02T07:56:24.000Z</time>
      </trkpt>
      <trkpt lat="43.32202" lon="2.35956">
        <ele>296.6</ele>
        <time>2019-06-02T07:56:25.000Z</time>
      </trkpt>
      <trkpt lat="43.32203" lon="2.35955">
        <ele>296.7</ele>
        <time>2019-06-02T07:56:26.000Z</time>
      </trkpt>
      <trkpt lat="43.32205" lon="2.35956">
        <ele>296.7</ele>
        <time>2019-06-02T07:56:27.000Z</time>
      </trkpt>
      <trkpt lat="43.32206" lon="2.35957">
        <ele>296.7</ele>
        <time>2019-06-02T07:56:28.000Z</time>
      </trkpt>
      <trkpt lat="43.32208" lon="2.35959">
        <ele>296.7</ele>
        <time>2019-06-02T07:56:29.000Z</time>
      </trkpt>
      <trkpt lat="43.3221" lon="2.35959">
        <ele>296.8</ele>
        <time>2019-06-02T07:56:30.000Z</time>
      </trkpt>
      <trkpt lat="43.32212" lon="2.35959">
        <ele>296.8</ele>
        <time>2019-06-02T07:56:31.000Z</time>
      </trkpt>
      <trkpt lat="43.32214" lon="2.35959">
        <ele>296.9</ele>
        <time>2019-06-02T07:56:32.000Z</time>
      </trkpt>
      <trkpt lat="43.32216" lon="2.35958">
        <ele>297</ele>
        <time>2019-06-02T07:56:33.000Z</time>
      </trkpt>
      <trkpt lat="43.32218" lon="2.35957">
        <ele>297.1</ele>
        <time>2019-06-02T07:56:34.000Z</time>
      </trkpt>
      <trkpt lat="43.3222" lon="2.35956">
        <ele>297.2</ele>
        <time>2019-06-02T07:56:35.000Z</time>
      </trkpt>
      <trkpt lat="43.32223" lon="2.35954">
        <ele>297.3</ele>
        <time>2019-06-02T07:56:36.000Z</time>
      </trkpt>
      <trkpt lat="43.32225" lon="2.35953">
        <ele>297.4</ele>
        <time>2019-06-02T07:56:37.000Z</time>
      </trkpt>
      <trkpt lat="43.32227" lon="2.35951">
        <ele>297.5</ele>
        <time>2019-06-02T07:56:38.000Z</time>
      </trkpt>
      <trkpt lat="43.32229" lon="2.35949">
        <ele>297.6</ele>
        <time>2019-06-02T07:56:39.000Z</time>
      </trkpt>
      <trkpt lat="43.32232" lon="2.35948">
        <ele>297.7</ele>
        <time>2019-06-02T07:56:40.000Z</time>
      </trkpt>
      <trkpt lat="43.32234" lon="2.35947">
        <ele>297.8</ele>
        <time>2019-06-02T07:56:41.000Z</time>
      </trkpt>
      <trkpt lat="43.32236" lon="2.35946">
        <ele>297.9</ele>
        <time>2019-06-02T07:56:42.000Z</time>
      </trkpt>
      <trkpt lat="43.32238" lon="2.35944">
        <ele>298</ele>
        <time>2019-06-02T07:56:43.000Z</time>
      </trkpt>
      <trkpt lat="43.3224" lon="2.35943">
        <ele>298</ele>
        <time>2019-06-02T07:56:44.000Z</time>
      </trkpt>
      <trkpt lat="43.32242" lon="2.35942">
        <ele>298.1</ele>
        <time>2019-06-02T07:56:45.000Z</time>
      </trkpt>
      <trkpt lat="43.32244" lon="2.35941">
        <ele>298.2</ele>
        <time>2019-06-02T07:56:46.000Z</time>
      </trkpt>
      <trkpt lat="43.32247" lon="2.3594">
        <ele>298.3</ele>
        <time>2019-06-02T07:56:47.000Z</time>
      </trkpt>
      <trkpt lat="43.32249" lon="2.35939">
        <ele>298.4</ele>
        <time>2019-06-02T07:56:48.000Z</time>
      </trkpt>
      <trkpt lat="43.32251" lon="2.35938">
        <ele>298.5</ele>
        <time>2019-06-02T07:56:49.000Z</time>
      </trkpt>
      <trkpt lat="43.32254" lon="2.35937">
        <ele>298.5</ele>
        <time>2019-06-02T07:56:50.000Z</time>
      </trkpt>
      <trkpt lat="43.32256" lon="2.35935">
        <ele>298.6</ele>
        <time>2019-06-02T07:56:51.000Z</time>
      </trkpt>
      <trkpt lat="43.32258" lon="2.35934">
        <ele>298.6</ele>
        <time>2019-06-02T07:56:52.000Z</time>
      </trkpt>
      <trkpt lat="43.32261" lon="2.35933">
        <ele>298.7</ele>
        <time>2019-06-02T07:56:53.000Z</time>
      </trkpt>
      <trkpt lat="43.32263" lon="2.35931">
        <ele>298.7</ele>
        <time>2019-06-02T07:56:54.000Z</time>
      </trkpt>
      <trkpt lat="43.32266" lon="2.3593">
        <ele>298.8</ele>
        <time>2019-06-02T07:56:55.000Z</time>
      </trkpt>
      <trkpt lat="43.32268" lon="2.35928">
        <ele>298.8</ele>
        <time>2019-06-02T07:56:56.000Z</time>
      </trkpt>
      <trkpt lat="43.32271" lon="2.35927">
        <ele>298.9</ele>
        <time>2019-06-02T07:56:57.000Z</time>
      </trkpt>
      <trkpt lat="43.32273" lon="2.35925">
        <ele>299</ele>
        <time>2019-06-02T07:56:58.000Z</time>
      </trkpt>
      <trkpt lat="43.32276" lon="2.35924">
        <ele>299.1</ele>
        <time>2019-06-02T07:56:59.000Z</time>
      </trkpt>
      <trkpt lat="43.32278" lon="2.35922">
        <ele>299.1</ele>
        <time>2019-06-02T07:57:00.000Z</time>
      </trkpt>
      <trkpt lat="43.3228" lon="2.3592">
        <ele>299.2</ele>
        <time>2019-06-02T07:57:01.000Z</time>
      </trkpt>
      <trkpt lat="43.32283" lon="2.35919">
        <ele>299.3</ele>
        <time>2019-06-02T07:57:02.000Z</time>
      </trkpt>
      <trkpt lat="43.32285" lon="2.35917">
        <ele>299.4</ele>
        <time>2019-06-02T07:57:03.000Z</time>
      </trkpt>
      <trkpt lat="43.32288" lon="2.35915">
        <ele>299.5</ele>
        <time>2019-06-02T07:57:04.000Z</time>
      </trkpt>
      <trkpt lat="43.3229" lon="2.35914">
        <ele>299.5</ele>
        <time>2019-06-02T07:57:05.000Z</time>
      </trkpt>
      <trkpt lat="43.32293" lon="2.35912">
        <ele>299.6</ele>
        <time>2019-06-02T07:57:06.000Z</time>
      </trkpt>
      <trkpt lat="43.32295" lon="2.35911">
        <ele>299.6</ele>
        <time>2019-06-02T07:57:07.000Z</time>
      </trkpt>
      <trkpt lat="43.32297" lon="2.35909">
        <ele>299.7</ele>
        <time>2019-06-02T07:57:08.000Z</time>
      </trkpt>
      <trkpt lat="43.323" lon="2.35907">
        <ele>299.7</ele>
        <time>2019-06-02T07:57:09.000Z</time>
      </trkpt>
      <trkpt lat="43.32302" lon="2.35906">
        <ele>299.8</ele>
        <time>2019-06-02T07:57:10.000Z</time>
      </trkpt>
      <trkpt lat="43.32305" lon="2.35904">
        <ele>299.9</ele>
        <time>2019-06-02T07:57:11.000Z</time>
      </trkpt>
      <trkpt lat="43.32307" lon="2.35903">
        <ele>299.9</ele>
        <time>2019-06-02T07:57:12.000Z</time>
      </trkpt>
      <trkpt lat="43.3231" lon="2.35901">
        <ele>300</ele>
        <time>2019-06-02T07:57:13.000Z</time>
      </trkpt>
      <trkpt lat="43.32312" lon="2.359">
        <ele>300</ele>
        <time>2019-06-02T07:57:14.000Z</time>
      </trkpt>
      <trkpt lat="43.32314" lon="2.35898">
        <ele>300.1</ele>
        <time>2019-06-02T07:57:15.000Z</time>
      </trkpt>
      <trkpt lat="43.32317" lon="2.35897">
        <ele>300.2</ele>
        <time>2019-06-02T07:57:16.000Z</time>
      </trkpt>
      <trkpt lat="43.32319" lon="2.35896">
        <ele>300.2</ele>
        <time>2019-06-02T07:57:17.000Z</time>
      </trkpt>
      <trkpt lat="43.32321" lon="2.35894">
        <ele>300.3</ele>
        <time>2019-06-02T07:57:18.000Z</time>
      </trkpt>
      <trkpt lat="43.32323" lon="2.35893">
        <ele>300.4</ele>
        <time>2019-06-02T07:57:19.000Z</time>
      </trkpt>
      <trkpt lat="43.32326" lon="2.35891">
        <ele>300.5</ele>
        <time>2019-06-02T07:57:20.000Z</time>
      </trkpt>
      <trkpt lat="43.32328" lon="2.3589">
        <ele>300.5</ele>
        <time>2019-06-02T07:57:21.000Z</time>
      </trkpt>
      <trkpt lat="43.3233" lon="2.35888">
        <ele>300.6</ele>
        <time>2019-06-02T07:57:22.000Z</time>
      </trkpt>
      <trkpt lat="43.32332" lon="2.35887">
        <ele>300.7</ele>
        <time>2019-06-02T07:57:23.000Z</time>
      </trkpt>
      <trkpt lat="43.32334" lon="2.35885">
        <ele>300.7</ele>
        <time>2019-06-02T07:57:24.000Z</time>
      </trkpt>
      <trkpt lat="43.32336" lon="2.35884">
        <ele>300.8</ele>
        <time>2019-06-02T07:57:25.000Z</time>
      </trkpt>
      <trkpt lat="43.32338" lon="2.35883">
        <ele>300.8</ele>
        <time>2019-06-02T07:57:26.000Z</time>
      </trkpt>
      <trkpt lat="43.32341" lon="2.35881">
        <ele>300.9</ele>
        <time>2019-06-02T07:57:27.000Z</time>
      </trkpt>
      <trkpt lat="43.32343" lon="2.3588">
        <ele>300.9</ele>
        <time>2019-06-02T07:57:28.000Z</time>
      </trkpt>
      <trkpt lat="43.32345" lon="2.35879">
        <ele>300.9</ele>
        <time>2019-06-02T07:57:29.000Z</time>
      </trkpt>
      <trkpt lat="43.32347" lon="2.35878">
        <ele>301</ele>
        <time>2019-06-02T07:57:30.000Z</time>
      </trkpt>
      <trkpt lat="43.32349" lon="2.35877">
        <ele>301</ele>
        <time>2019-06-02T07:57:31.000Z</time>
      </trkpt>
      <trkpt lat="43.32351" lon="2.35877">
        <ele>301</ele>
        <time>2019-06-02T07:57:32.000Z</time>
      </trkpt>
      <trkpt lat="43.32354" lon="2.35876">
        <ele>301.1</ele>
        <time>2019-06-02T07:57:33.000Z</time>
      </trkpt>
      <trkpt lat="43.32356" lon="2.35876">
        <ele>301.1</ele>
        <time>2019-06-02T07:57:34.000Z</time>
      </trkpt>
      <trkpt lat="43.32358" lon="2.35875">
        <ele>301.1</ele>
        <time>2019-06-02T07:57:35.000Z</time>
      </trkpt>
      <trkpt lat="43.32361" lon="2.35875">
        <ele>301.2</ele>
        <time>2019-06-02T07:57:36.000Z</time>
      </trkpt>
      <trkpt lat="43.32363" lon="2.35874">
        <ele>301.2</ele>
        <time>2019-06-02T07:57:37.000Z</time>
      </trkpt>
      <trkpt lat="43.32365" lon="2.35873">
        <ele>301.3</ele>
        <time>2019-06-02T07:57:38.000Z</time>
      </trkpt>
      <trkpt lat="43.32368" lon="2.35872">
        <ele>301.3</ele>
        <time>2019-06-02T07:57:39.000Z</time>
      </trkpt>
      <trkpt lat="43.3237" lon="2.35871">
        <ele>301.4</ele>
        <time>2019-06-02T07:57:40.000Z</time>
      </trkpt>
      <trkpt lat="43.32372" lon="2.3587">
        <ele>301.5</ele>
        <time>2019-06-02T07:57:41.000Z</time>
      </trkpt>
      <trkpt lat="43.32375" lon="2.35868">
        <ele>301.6</ele>
        <time>2019-06-02T07:57:42.000Z</time>
      </trkpt>
      <trkpt lat="43.32377" lon="2.35867">
        <ele>301.7</ele>
        <time>2019-06-02T07:57:43.000Z</time>
      </trkpt>
      <trkpt lat="43.32379" lon="2.35865">
        <ele>301.8</ele>
        <time>2019-06-02T07:57:44.000Z</time>
      </trkpt>
      <trkpt lat="43.32382" lon="2.35863">
        <ele>302</ele>
        <time>2019-06-02T07:57:45.000Z</time>
      </trkpt>
      <trkpt lat="43.32384" lon="2.35862">
        <ele>302.1</ele>
        <time>2019-06-02T07:57:46.000Z</time>
      </trkpt>
      <trkpt lat="43.32387" lon="2.3586">
        <ele>302.3</ele>
        <time>2019-06-02T07:57:47.000Z</time>
      </trkpt>
      <trkpt lat="43.32389" lon="2.35858">
        <ele>302.4</ele>
        <time>2019-06-02T07:57:48.000Z</time>
      </trkpt>
      <trkpt lat="43.32391" lon="2.35857">
        <ele>302.6</ele>
        <time>2019-06-02T07:57:49.000Z</time>
      </trkpt>
      <trkpt lat="43.32394" lon="2.35855">
        <ele>302.7</ele>
        <time>2019-06-02T07:57:50.000Z</time>
      </trkpt>
      <trkpt lat="43.32396" lon="2.35854">
        <ele>302.9</ele>
        <time>2019-06-02T07:57:51.000Z</time>
      </trkpt>
      <trkpt lat="43.32398" lon="2.35852">
        <ele>303</ele>
        <time>2019-06-02T07:57:52.000Z</time>
      </trkpt>
      <trkpt lat="43.32401" lon="2.35851">
        <ele>303.2</ele>
        <time>2019-06-02T07:57:53.000Z</time>
      </trkpt>
      <trkpt lat="43.32403" lon="2.3585">
        <ele>303.3</ele>
        <time>2019-06-02T07:57:54.000Z</time>
      </trkpt>
      <trkpt lat="43.32406" lon="2.35848">
        <ele>303.5</ele>
        <time>2019-06-02T07:57:55.000Z</time>
      </trkpt>
      <trkpt lat="43.32408" lon="2.35847">
        <ele>303.6</ele>
        <time>2019-06-02T07:57:56.000Z</time>
      </trkpt>
      <trkpt lat="43.32411" lon="2.35846">
        <ele>303.8</ele>
        <time>2019-06-02T07:57:57.000Z</time>
      </trkpt>
      <trkpt lat="43.32413" lon="2.35845">
        <ele>303.9</ele>
        <time>2019-06-02T07:57:58.000Z</time>
      </trkpt>
      <trkpt lat="43.32415" lon="2.35844">
        <ele>304.1</ele>
        <time>2019-06-02T07:57:59.000Z</time>
      </trkpt>
      <trkpt lat="43.32418" lon="2.35843">
        <ele>304.2</ele>
        <time>2019-06-02T07:58:00.000Z</time>
      </trkpt>
      <trkpt lat="43.3242" lon="2.35842">
        <ele>304.1</ele>
        <time>2019-06-02T07:58:01.000Z</time>
      </trkpt>
      <trkpt lat="43.32423" lon="2.3584">
        <ele>304.1</ele>
        <time>2019-06-02T07:58:02.000Z</time>
      </trkpt>
      <trkpt lat="43.32425" lon="2.35839">
        <ele>304.1</ele>
        <time>2019-06-02T07:58:03.000Z</time>
      </trkpt>
      <trkpt lat="43.32428" lon="2.35838">
        <ele>304.1</ele>
        <time>2019-06-02T07:58:04.000Z</time>
      </trkpt>
      <trkpt lat="43.3243" lon="2.35837">
        <ele>304.1</ele>
        <time>2019-06-02T07:58:05.000Z</time>
      </trkpt>
      <trkpt lat="43.32432" lon="2.35835">
        <ele>304.1</ele>
        <time>2019-06-02T07:58:06.000Z</time>
      </trkpt>
      <trkpt lat="43.32435" lon="2.35834">
        <ele>304.1</ele>
        <time>2019-06-02T07:58:07.000Z</time>
      </trkpt>
      <trkpt lat="43.32437" lon="2.35832">
        <ele>304</ele>
        <time>2019-06-02T07:58:08.000Z</time>
      </trkpt>
      <trkpt lat="43.32439" lon="2.35831">
        <ele>303.9</ele>
        <time>2019-06-02T07:58:09.000Z</time>
      </trkpt>
      <trkpt lat="43.32442" lon="2.35829">
        <ele>303.8</ele>
        <time>2019-06-02T07:58:10.000Z</time>
      </trkpt>
      <trkpt lat="43.32444" lon="2.35827">
        <ele>303.8</ele>
        <time>2019-06-02T07:58:11.000Z</time>
      </trkpt>
      <trkpt lat="43.32446" lon="2.35825">
        <ele>303.7</ele>
        <time>2019-06-02T07:58:12.000Z</time>
      </trkpt>
      <trkpt lat="43.32449" lon="2.35824">
        <ele>303.6</ele>
        <time>2019-06-02T07:58:13.000Z</time>
      </trkpt>
      <trkpt lat="43.32451" lon="2.35822">
        <ele>303.6</ele>
        <time>2019-06-02T07:58:14.000Z</time>
      </trkpt>
      <trkpt lat="43.32453" lon="2.3582">
        <ele>303.5</ele>
        <time>2019-06-02T07:58:15.000Z</time>
      </trkpt>
      <trkpt lat="43.32455" lon="2.35818">
        <ele>303.5</ele>
        <time>2019-06-02T07:58:16.000Z</time>
      </trkpt>
      <trkpt lat="43.32457" lon="2.35816">
        <ele>303.5</ele>
        <time>2019-06-02T07:58:17.000Z</time>
      </trkpt>
      <trkpt lat="43.32459" lon="2.35814">
        <ele>303.4</ele>
        <time>2019-06-02T07:58:18.000Z</time>
      </trkpt>
      <trkpt lat="43.32461" lon="2.35812">
        <ele>303.4</ele>
        <time>2019-06-02T07:58:19.000Z</time>
      </trkpt>
      <trkpt lat="43.32463" lon="2.3581">
        <ele>303.4</ele>
        <time>2019-06-02T07:58:20.000Z</time>
      </trkpt>
      <trkpt lat="43.32465" lon="2.35807">
        <ele>303.5</ele>
        <time>2019-06-02T07:58:21.000Z</time>
      </trkpt>
      <trkpt lat="43.32466" lon="2.35805">
        <ele>303.5</ele>
        <time>2019-06-02T07:58:22.000Z</time>
      </trkpt>
      <trkpt lat="43.32468" lon="2.35803">
        <ele>303.5</ele>
        <time>2019-06-02T07:58:23.000Z</time>
      </trkpt>
      <trkpt lat="43.3247" lon="2.35801">
        <ele>303.6</ele>
        <time>2019-06-02T07:58:24.000Z</time>
      </trkpt>
      <trkpt lat="43.32471" lon="2.35798">
        <ele>303.6</ele>
        <time>2019-06-02T07:58:25.000Z</time>
      </trkpt>
      <trkpt lat="43.32473" lon="2.35795">
        <ele>303.7</ele>
        <time>2019-06-02T07:58:26.000Z</time>
      </trkpt>
      <trkpt lat="43.32474" lon="2.35793">
        <ele>303.8</ele>
        <time>2019-06-02T07:58:27.000Z</time>
      </trkpt>
      <trkpt lat="43.32475" lon="2.3579">
        <ele>303.9</ele>
        <time>2019-06-02T07:58:28.000Z</time>
      </trkpt>
      <trkpt lat="43.32477" lon="2.35787">
        <ele>304</ele>
        <time>2019-06-02T07:58:29.000Z</time>
      </trkpt>
      <trkpt lat="43.32478" lon="2.35784">
        <ele>304.1</ele>
        <time>2019-06-02T07:58:30.000Z</time>
      </trkpt>
      <trkpt lat="43.32479" lon="2.3578">
        <ele>304.2</ele>
        <time>2019-06-02T07:58:31.000Z</time>
      </trkpt>
      <trkpt lat="43.32481" lon="2.35777">
        <ele>304.4</ele>
        <time>2019-06-02T07:58:32.000Z</time>
      </trkpt>
      <trkpt lat="43.32482" lon="2.35774">
        <ele>304.5</ele>
        <time>2019-06-02T07:58:33.000Z</time>
      </trkpt>
      <trkpt lat="43.32483" lon="2.35771">
        <ele>304.7</ele>
        <time>2019-06-02T07:58:34.000Z</time>
      </trkpt>
      <trkpt lat="43.32484" lon="2.35768">
        <ele>304.8</ele>
        <time>2019-06-02T07:58:35.000Z</time>
      </trkpt>
      <trkpt lat="43.32485" lon="2.35765">
        <ele>305</ele>
        <time>2019-06-02T07:58:36.000Z</time>
      </trkpt>
      <trkpt lat="43.32487" lon="2.35762">
        <ele>305.1</ele>
        <time>2019-06-02T07:58:37.000Z</time>
      </trkpt>
      <trkpt lat="43.32488" lon="2.35759">
        <ele>305.3</ele>
        <time>2019-06-02T07:58:38.000Z</time>
      </trkpt>
      <trkpt lat="43.32489" lon="2.35756">
        <ele>305.4</ele>
        <time>2019-06-02T07:58:39.000Z</time>
      </trkpt>
      <trkpt lat="43.3249" lon="2.35753">
        <ele>305.6</ele>
        <time>2019-06-02T07:58:40.000Z</time>
      </trkpt>
      <trkpt lat="43.32491" lon="2.35751">
        <ele>305.7</ele>
        <time>2019-06-02T07:58:41.000Z</time>
      </trkpt>
      <trkpt lat="43.32492" lon="2.35748">
        <ele>305.8</ele>
        <time>2019-06-02T07:58:42.000Z</time>
      </trkpt>
      <trkpt lat="43.32493" lon="2.35746">
        <ele>305.7</ele>
        <time>2019-06-02T07:58:43.000Z</time>
      </trkpt>
      <trkpt lat="43.32494" lon="2.35744">
        <ele>305.7</ele>
        <time>2019-06-02T07:58:44.000Z</time>
      </trkpt>
      <trkpt lat="43.32494" lon="2.35742">
        <ele>305.6</ele>
        <time>2019-06-02T07:58:45.000Z</time>
      </trkpt>
      <trkpt lat="43.32495" lon="2.3574">
        <ele>305.6</ele>
        <time>2019-06-02T07:58:46.000Z</time>
      </trkpt>
      <trkpt lat="43.32496" lon="2.35739">
        <ele>305.6</ele>
        <time>2019-06-02T07:58:47.000Z</time>
      </trkpt>
      <trkpt lat="43.32496" lon="2.35737">
        <ele>305.6</ele>
        <time>2019-06-02T07:58:48.000Z</time>
      </trkpt>
      <trkpt lat="43.32497" lon="2.35736">
        <ele>305.6</ele>
        <time>2019-06-02T07:58:49.000Z</time>
      </trkpt>
      <trkpt lat="43.32497" lon="2.35735">
        <ele>305.5</ele>
        <time>2019-06-02T07:58:50.000Z</time>
      </trkpt>
      <trkpt lat="43.32497" lon="2.35734">
        <ele>305.5</ele>
        <time>2019-06-02T07:58:51.000Z</time>
      </trkpt>
      <trkpt lat="43.32497" lon="2.35732">
        <ele>305.5</ele>
        <time>2019-06-02T07:58:52.000Z</time>
      </trkpt>
      <trkpt lat="43.32497" lon="2.35731">
        <ele>305.4</ele>
        <time>2019-06-02T07:58:53.000Z</time>
      </trkpt>
      <trkpt lat="43.32497" lon="2.3573">
        <ele>305.4</ele>
        <time>2019-06-02T07:58:54.000Z</time>
      </trkpt>
      <trkpt lat="43.32496" lon="2.35729">
        <ele>305.3</ele>
        <time>2019-06-02T07:58:55.000Z</time>
      </trkpt>
      <trkpt lat="43.32496" lon="2.35729">
        <ele>305.3</ele>
        <time>2019-06-02T07:58:56.000Z</time>
      </trkpt>
      <trkpt lat="43.32496" lon="2.35728">
        <ele>305.3</ele>
        <time>2019-06-02T07:58:57.000Z</time>
      </trkpt>
      <trkpt lat="43.32496" lon="2.35728">
        <ele>305.3</ele>
        <time>2019-06-02T07:58:58.000Z</time>
      </trkpt>
      <trkpt lat="43.32496" lon="2.35728">
        <ele>305.3</ele>
        <time>2019-06-02T07:58:59.000Z</time>
      </trkpt>
      <trkpt lat="43.32496" lon="2.35728">
        <ele>305.3</ele>
        <time>2019-06-02T07:59:00.000Z</time>
      </trkpt>
      <trkpt lat="43.32496" lon="2.35728">
        <ele>305.3</ele>
        <time>2019-06-02T07:59:01.000Z</time>
      </trkpt>
      <trkpt lat="43.32496" lon="2.35728">
        <ele>305.3</ele>
        <time>2019-06-02T07:59:02.000Z</time>
      </trkpt>
      <trkpt lat="43.32496" lon="2.35728">
        <ele>305.3</ele>
        <time>2019-06-02T07:59:03.000Z</time>
      </trkpt>
      <trkpt lat="43.32496" lon="2.35728">
        <ele>305.3</ele>
        <time>2019-06-02T07:59:04.000Z</time>
      </trkpt>
      <trkpt lat="43.32496" lon="2.35728">
        <ele>305.3</ele>
        <time>2019-06-02T07:59:05.000Z</time>
      </trkpt>
      <trkpt lat="43.32496" lon="2.35728">
        <ele>305.3</ele>
        <time>2019-06-02T07:59:06.000Z</time>
      </trkpt>
      <trkpt lat="43.32496" lon="2.35728">
        <ele>305.3</ele>
        <time>2019-06-02T07:59:07.000Z</time>
      </trkpt>
      <trkpt lat="43.32496" lon="2.35728">
        <ele>305.3</ele>
        <time>2019-06-02T07:59:08.000Z</time>
      </trkpt>
      <trkpt lat="43.32496" lon="2.35728">
        <ele>305.3</ele>
        <time>2019-06-02T07:59:09.000Z</time>
      </trkpt>
      <trkpt lat="43.32496" lon="2.35728">
        <ele>305.3</ele>
        <time>2019-06-02T07:59:10.000Z</time>
      </trkpt>
      <trkpt lat="43.32496" lon="2.35728">
        <ele>305.3</ele>
        <time>2019-06-02T07:59:11.000Z</time>
      </trkpt>
      <trkpt lat="43.32496" lon="2.35728">
        <ele>305.3</ele>
        <time>2019-06-02T07:59:12.000Z</time>
      </trkpt>
      <trkpt lat="43.32496" lon="2.35728">
        <ele>305.3</ele>
        <time>2019-06-02T07:59:13.000Z</time>
      </trkpt>
      <trkpt lat="43.32496" lon="2.35728">
        <ele>305.3</ele>
        <time>2019-06-02T07:59:14.000Z</time>
      </trkpt>
      <trkpt lat="43.32496" lon="2.35728">
        <ele>305.3</ele>
        <time>2019-06-02T07:59:15.000Z</time>
      </trkpt>
      <trkpt lat="43.32495" lon="2.35728">
        <ele>305.3</ele>
        <time>2019-06-02T07:59:16.000Z</time>
      </trkpt>
      <trkpt lat="43.32495" lon="2.35727">
        <ele>305.2</ele>
        <time>2019-06-02T07:59:17.000Z</time>
      </trkpt>
      <trkpt lat="43.32494" lon="2.35727">
        <ele>305.2</ele>
        <time>2019-06-02T07:59:18.000Z</time>
      </trkpt>
      <trkpt lat="43.32493" lon="2.35726">
        <ele>305.1</ele>
        <time>2019-06-02T07:59:19.000Z</time>
      </trkpt>
      <trkpt lat="43.32492" lon="2.35725">
        <ele>305</ele>
        <time>2019-06-02T07:59:20.000Z</time>
      </trkpt>
      <trkpt lat="43.32492" lon="2.35724">
        <ele>305</ele>
        <time>2019-06-02T07:59:21.000Z</time>
      </trkpt>
      <trkpt lat="43.32492" lon="2.35724">
        <ele>305</ele>
        <time>2019-06-02T07:59:22.000Z</time>
      </trkpt>
      <trkpt lat="43.32492" lon="2.35724">
        <ele>305</ele>
        <time>2019-06-02T07:59:23.000Z</time>
      </trkpt>
      <trkpt lat="43.32492" lon="2.35724">
        <ele>305</ele>
        <time>2019-06-02T07:59:24.000Z</time>
      </trkpt>
      <trkpt lat="43.32492" lon="2.35724">
        <ele>305</ele>
        <time>2019-06-02T07:59:25.000Z</time>
      </trkpt>
      <trkpt lat="43.32492" lon="2.35724">
        <ele>305</ele>
        <time>2019-06-02T07:59:26.000Z</time>
      </trkpt>
      <trkpt lat="43.32492" lon="2.35724">
        <ele>305</ele>
        <time>2019-06-02T07:59:27.000Z</time>
      </trkpt>
      <trkpt lat="43.32492" lon="2.35724">
        <ele>305</ele>
        <time>2019-06-02T07:59:28.000Z</time>
      </trkpt>
      <trkpt lat="43.32492" lon="2.35724">
        <ele>305</ele>
        <time>2019-06-02T07:59:29.000Z</time>
      </trkpt>
      <trkpt lat="43.32492" lon="2.35724">
        <ele>305</ele>
        <time>2019-06-02T07:59:30.000Z</time>
      </trkpt>
      <trkpt lat="43.32492" lon="2.35724">
        <ele>305</ele>
        <time>2019-06-02T07:59:31.000Z</time>
      </trkpt>
      <trkpt lat="43.32492" lon="2.35724">
        <ele>305</ele>
        <time>2019-06-02T07:59:32.000Z</time>
      </trkpt>
      <trkpt lat="43.32492" lon="2.35724">
        <ele>305</ele>
        <time>2019-06-02T07:59:33.000Z</time>
      </trkpt>
      <trkpt lat="43.32492" lon="2.35724">
        <ele>305</ele>
        <time>2019-06-02T07:59:34.000Z</time>
      </trkpt>
      <trkpt lat="43.32492" lon="2.35724">
        <ele>305</ele>
        <time>2019-06-02T07:59:35.000Z</time>
      </trkpt>
      <trkpt lat="43.32492" lon="2.35724">
        <ele>305</ele>
        <time>2019-06-02T07:59:36.000Z</time>
      </trkpt>
      <trkpt lat="43.32492" lon="2.35724">
        <ele>305</ele>
        <time>2019-06-02T07:59:37.000Z</time>
      </trkpt>
      <trkpt lat="43.32492" lon="2.35724">
        <ele>305</ele>
        <time>2019-06-02T07:59:38.000Z</time>
      </trkpt>
      <trkpt lat="43.32492" lon="2.35724">
        <ele>305</ele>
        <time>2019-06-02T07:59:39.000Z</time>
      </trkpt>
      <trkpt lat="43.32492" lon="2.35724">
        <ele>305</ele>
        <time>2019-06-02T07:59:40.000Z</time>
      </trkpt>
      <trkpt lat="43.32492" lon="2.35724">
        <ele>305</ele>
        <time>2019-06-02T07:59:41.000Z</time>
      </trkpt>
      <trkpt lat="43.32492" lon="2.35724">
        <ele>305</ele>
        <time>2019-06-02T07:59:42.000Z</time>
      </trkpt>
      <trkpt lat="43.32492" lon="2.35724">
        <ele>305</ele>
        <time>2019-06-02T07:59:43.000Z</time>
      </trkpt>
      <trkpt lat="43.32492" lon="2.35724">
        <ele>305</ele>
        <time>2019-06-02T07:59:44.000Z</time>
      </trkpt>
      <trkpt lat="43.32492" lon="2.35724">
        <ele>305</ele>
        <time>2019-06-02T07:59:45.000Z</time>
      </trkpt>
      <trkpt lat="43.32492" lon="2.35724">
        <ele>305</ele>
        <time>2019-06-02T07:59:46.000Z</time>
      </trkpt>
      <trkpt lat="43.32492" lon="2.35724">
        <ele>305</ele>
        <time>2019-06-02T07:59:47.000Z</time>
      </trkpt>
      <trkpt lat="43.32492" lon="2.35724">
        <ele>305</ele>
        <time>2019-06-02T07:59:48.000Z</time>
      </trkpt>
      <trkpt lat="43.32493" lon="2.35726">
        <ele>305.1</ele>
        <time>2019-06-02T07:59:49.000Z</time>
      </trkpt>
      <trkpt lat="43.32498" lon="2.35732">
        <ele>305.5</ele>
        <time>2019-06-02T07:59:50.000Z</time>
      </trkpt>
      <trkpt lat="43.32499" lon="2.35733">
        <ele>305.6</ele>
        <time>2019-06-02T07:59:51.000Z</time>
      </trkpt>
      <trkpt lat="43.32499" lon="2.35733">
        <ele>305.5</ele>
        <time>2019-06-02T07:59:52.000Z</time>
      </trkpt>
      <trkpt lat="43.32499" lon="2.35733">
        <ele>305.5</ele>
        <time>2019-06-02T07:59:53.000Z</time>
      </trkpt>
      <trkpt lat="43.32499" lon="2.35733">
        <ele>305.5</ele>
        <time>2019-06-02T07:59:54.000Z</time>
      </trkpt>
      <trkpt lat="43.32499" lon="2.35733">
        <ele>305.6</ele>
        <time>2019-06-02T07:59:55.000Z</time>
      </trkpt>
      <trkpt lat="43.32499" lon="2.35733">
        <ele>305.6</ele>
        <time>2019-06-02T07:59:56.000Z</time>
      </trkpt>
      <trkpt lat="43.32499" lon="2.35733">
        <ele>305.6</ele>
        <time>2019-06-02T07:59:57.000Z</time>
      </trkpt>
      <trkpt lat="43.32499" lon="2.35733">
        <ele>305.6</ele>
        <time>2019-06-02T07:59:58.000Z</time>
      </trkpt>
      <trkpt lat="43.32499" lon="2.35733">
        <ele>305.6</ele>
        <time>2019-06-02T07:59:59.000Z</time>
      </trkpt>
      <trkpt lat="43.32499" lon="2.35733">
        <ele>305.6</ele>
        <time>2019-06-02T08:00:00.000Z</time>
      </trkpt>
      <trkpt lat="43.32499" lon="2.35733">
        <ele>305.6</ele>
        <time>2019-06-02T08:00:01.000Z</time>
      </trkpt>
      <trkpt lat="43.32499" lon="2.35733">
        <ele>305.6</ele>
        <time>2019-06-02T08:00:02.000Z</time>
      </trkpt>
      <trkpt lat="43.32499" lon="2.35733">
        <ele>305.6</ele>
        <time>2019-06-02T08:00:03.000Z</time>
      </trkpt>
      <trkpt lat="43.32499" lon="2.35733">
        <ele>305.6</ele>
        <time>2019-06-02T08:00:04.000Z</time>
      </trkpt>
      <trkpt lat="43.32499" lon="2.35733">
        <ele>305.6</ele>
        <time>2019-06-02T08:00:05.000Z</time>
      </trkpt>
      <trkpt lat="43.32499" lon="2.35733">
        <ele>305.6</ele>
        <time>2019-06-02T08:00:06.000Z</time>
      </trkpt>
      <trkpt lat="43.32499" lon="2.35733">
        <ele>305.6</ele>
        <time>2019-06-02T08:00:07.000Z</time>
      </trkpt>
      <trkpt lat="43.32499" lon="2.35733">
        <ele>305.6</ele>
        <time>2019-06-02T08:00:08.000Z</time>
      </trkpt>
      <trkpt lat="43.32499" lon="2.35733">
        <ele>305.6</ele>
        <time>2019-06-02T08:00:09.000Z</time>
      </trkpt>
      <trkpt lat="43.32499" lon="2.35733">
        <ele>305.6</ele>
        <time>2019-06-02T08:00:10.000Z</time>
      </trkpt>
      <trkpt lat="43.32499" lon="2.35733">
        <ele>305.6</ele>
        <time>2019-06-02T08:00:11.000Z</time>
      </trkpt>
      <trkpt lat="43.32499" lon="2.35733">
        <ele>305.6</ele>
        <time>2019-06-02T08:00:12.000Z</time>
      </trkpt>
      <trkpt lat="43.32499" lon="2.35733">
        <ele>305.6</ele>
        <time>2019-06-02T08:00:13.000Z</time>
      </trkpt>
      <trkpt lat="43.32499" lon="2.35733">
        <ele>305.6</ele>
        <time>2019-06-02T08:00:14.000Z</time>
      </trkpt>
      <trkpt lat="43.32499" lon="2.35733">
        <ele>305.6</ele>
        <time>2019-06-02T08:00:15.000Z</time>
      </trkpt>
      <trkpt lat="43.32499" lon="2.35733">
        <ele>305.6</ele>
        <time>2019-06-02T08:00:16.000Z</time>
      </trkpt>
      <trkpt lat="43.32499" lon="2.35733">
        <ele>305.6</ele>
        <time>2019-06-02T08:00:17.000Z</time>
      </trkpt>
      <trkpt lat="43.32499" lon="2.35733">
        <ele>305.6</ele>
        <time>2019-06-02T08:00:18.000Z</time>
      </trkpt>
      <trkpt lat="43.32499" lon="2.35733">
        <ele>305.6</ele>
        <time>2019-06-02T08:00:19.000Z</time>
      </trkpt>
      <trkpt lat="43.32499" lon="2.35733">
        <ele>305.6</ele>
        <time>2019-06-02T08:00:20.000Z</time>
      </trkpt>
      <trkpt lat="43.32499" lon="2.35733">
        <ele>305.6</ele>
        <time>2019-06-02T08:00:21.000Z</time>
      </trkpt>
      <trkpt lat="43.32499" lon="2.35733">
        <ele>305.6</ele>
        <time>2019-06-02T08:00:22.000Z</time>
      </trkpt>
      <trkpt lat="43.32499" lon="2.35733">
        <ele>305.6</ele>
        <time>2019-06-02T08:00:23.000Z</time>
      </trkpt>
      <trkpt lat="43.32499" lon="2.35733">
        <ele>305.6</ele>
        <time>2019-06-02T08:00:24.000Z</time>
      </trkpt>
      <trkpt lat="43.32499" lon="2.35733">
        <ele>305.6</ele>
        <time>2019-06-02T08:00:25.000Z</time>
      </trkpt>
      <trkpt lat="43.32499" lon="2.35733">
        <ele>305.6</ele>
        <time>2019-06-02T08:00:26.000Z</time>
      </trkpt>
      <trkpt lat="43.32499" lon="2.35733">
        <ele>305.6</ele>
        <time>2019-06-02T08:00:27.000Z</time>
      </trkpt>
      <trkpt lat="43.32499" lon="2.35733">
        <ele>305.6</ele>
        <time>2019-06-02T08:00:28.000Z</time>
      </trkpt>
      <trkpt lat="43.32499" lon="2.35733">
        <ele>305.6</ele>
        <time>2019-06-02T08:00:29.000Z</time>
      </trkpt>
      <trkpt lat="43.32499" lon="2.35733">
        <ele>305.6</ele>
        <time>2019-06-02T08:00:30.000Z</time>
      </trkpt>
      <trkpt lat="43.32499" lon="2.35733">
        <ele>305.6</ele>
        <time>2019-06-02T08:00:31.000Z</time>
      </trkpt>
      <trkpt lat="43.32499" lon="2.35733">
        <ele>305.6</ele>
        <time>2019-06-02T08:00:32.000Z</time>
      </trkpt>
      <trkpt lat="43.32499" lon="2.35733">
        <ele>305.6</ele>
        <time>2019-06-02T08:00:33.000Z</time>
      </trkpt>
      <trkpt lat="43.32499" lon="2.35733">
        <ele>305.6</ele>
        <time>2019-06-02T08:00:34.000Z</time>
      </trkpt>
      <trkpt lat="43.32499" lon="2.35733">
        <ele>305.6</ele>
        <time>2019-06-02T08:00:35.000Z</time>
      </trkpt>
      <trkpt lat="43.32499" lon="2.35733">
        <ele>305.6</ele>
        <time>2019-06-02T08:00:36.000Z</time>
      </trkpt>
      <trkpt lat="43.32499" lon="2.35733">
        <ele>305.6</ele>
        <time>2019-06-02T08:00:37.000Z</time>
      </trkpt>
      <trkpt lat="43.32499" lon="2.35733">
        <ele>305.6</ele>
        <time>2019-06-02T08:00:38.000Z</time>
      </trkpt>
      <trkpt lat="43.32499" lon="2.35733">
        <ele>305.6</ele>
        <time>2019-06-02T08:00:39.000Z</time>
      </trkpt>
      <trkpt lat="43.32499" lon="2.35733">
        <ele>305.6</ele>
        <time>2019-06-02T08:00:40.000Z</time>
      </trkpt>
      <trkpt lat="43.32499" lon="2.35733">
        <ele>305.6</ele>
        <time>2019-06-02T08:00:41.000Z</time>
      </trkpt>
      <trkpt lat="43.32499" lon="2.35733">
        <ele>305.6</ele>
        <time>2019-06-02T08:00:42.000Z</time>
      </trkpt>
      <trkpt lat="43.32499" lon="2.35733">
        <ele>305.6</ele>
        <time>2019-06-02T08:00:43.000Z</time>
      </trkpt>
      <trkpt lat="43.32499" lon="2.35733">
        <ele>305.6</ele>
        <time>2019-06-02T08:00:44.000Z</time>
      </trkpt>
      <trkpt lat="43.32499" lon="2.35733">
        <ele>305.6</ele>
        <time>2019-06-02T08:00:45.000Z</time>
      </trkpt>
      <trkpt lat="43.32499" lon="2.35733">
        <ele>305.6</ele>
        <time>2019-06-02T08:00:46.000Z</time>
      </trkpt>
      <trkpt lat="43.32499" lon="2.35733">
        <ele>305.6</ele>
        <time>2019-06-02T08:00:47.000Z</time>
      </trkpt>
      <trkpt lat="43.32499" lon="2.35733">
        <ele>305.6</ele>
        <time>2019-06-02T08:00:48.000Z</time>
      </trkpt>
      <trkpt lat="43.32499" lon="2.35733">
        <ele>305.6</ele>
        <time>2019-06-02T08:00:49.000Z</time>
      </trkpt>
      <trkpt lat="43.32499" lon="2.35733">
        <ele>305.6</ele>
        <time>2019-06-02T08:00:50.000Z</time>
      </trkpt>
      <trkpt lat="43.32499" lon="2.35733">
        <ele>305.6</ele>
        <time>2019-06-02T08:00:51.000Z</time>
      </trkpt>
      <trkpt lat="43.32499" lon="2.35733">
        <ele>305.6</ele>
        <time>2019-06-02T08:00:52.000Z</time>
      </trkpt>
      <trkpt lat="43.32499" lon="2.35733">
        <ele>305.6</ele>
        <time>2019-06-02T08:00:53.000Z</time>
      </trkpt>
      <trkpt lat="43.32499" lon="2.35733">
        <ele>305.6</ele>
        <time>2019-06-02T08:00:54.000Z</time>
      </trkpt>
      <trkpt lat="43.32499" lon="2.35733">
        <ele>305.6</ele>
        <time>2019-06-02T08:00:55.000Z</time>
      </trkpt>
      <trkpt lat="43.32499" lon="2.35733">
        <ele>305.6</ele>
        <time>2019-06-02T08:00:56.000Z</time>
      </trkpt>
      <trkpt lat="43.32499" lon="2.35733">
        <ele>305.6</ele>
        <time>2019-06-02T08:00:57.000Z</time>
      </trkpt>
      <trkpt lat="43.32499" lon="2.35733">
        <ele>305.6</ele>
        <time>2019-06-02T08:00:58.000Z</time>
      </trkpt>
      <trkpt lat="43.32499" lon="2.35733">
        <ele>305.6</ele>
        <time>2019-06-02T08:00:59.000Z</time>
      </trkpt>
      <trkpt lat="43.32499" lon="2.35733">
        <ele>305.6</ele>
        <time>2019-06-02T08:01:00.000Z</time>
      </trkpt>
      <trkpt lat="43.32499" lon="2.35733">
        <ele>305.6</ele>
        <time>2019-06-02T08:01:01.000Z</time>
      </trkpt>
      <trkpt lat="43.32499" lon="2.35733">
        <ele>305.6</ele>
        <time>2019-06-02T08:01:02.000Z</time>
      </trkpt>
      <trkpt lat="43.32499" lon="2.35733">
        <ele>305.6</ele>
        <time>2019-06-02T08:01:03.000Z</time>
      </trkpt>
      <trkpt lat="43.32499" lon="2.35733">
        <ele>305.6</ele>
        <time>2019-06-02T08:01:04.000Z</time>
      </trkpt>
      <trkpt lat="43.32499" lon="2.35733">
        <ele>305.6</ele>
        <time>2019-06-02T08:01:05.000Z</time>
      </trkpt>
      <trkpt lat="43.32499" lon="2.35733">
        <ele>305.6</ele>
        <time>2019-06-02T08:01:06.000Z</time>
      </trkpt>
      <trkpt lat="43.32499" lon="2.35733">
        <ele>305.6</ele>
        <time>2019-06-02T08:01:07.000Z</time>
      </trkpt>
      <trkpt lat="43.32499" lon="2.35733">
        <ele>305.6</ele>
        <time>2019-06-02T08:01:08.000Z</time>
      </trkpt>
      <trkpt lat="43.32499" lon="2.35733">
        <ele>305.6</ele>
        <time>2019-06-02T08:01:09.000Z</time>
      </trkpt>
      <trkpt lat="43.32499" lon="2.35733">
        <ele>305.6</ele>
        <time>2019-06-02T08:01:10.000Z</time>
      </trkpt>
      <trkpt lat="43.32499" lon="2.35733">
        <ele>305.6</ele>
        <time>2019-06-02T08:01:11.000Z</time>
      </trkpt>
      <trkpt lat="43.32499" lon="2.35733">
        <ele>305.6</ele>
        <time>2019-06-02T08:01:12.000Z</time>
      </trkpt>
      <trkpt lat="43.32499" lon="2.35733">
        <ele>305.6</ele>
        <time>2019-06-02T08:01:13.000Z</time>
      </trkpt>
      <trkpt lat="43.32499" lon="2.35733">
        <ele>305.6</ele>
        <time>2019-06-02T08:01:14.000Z</time>
      </trkpt>
      <trkpt lat="43.32499" lon="2.35733">
        <ele>305.6</ele>
        <time>2019-06-02T08:01:15.000Z</time>
      </trkpt>
      <trkpt lat="43.32499" lon="2.35733">
        <ele>305.6</ele>
        <time>2019-06-02T08:01:16.000Z</time>
      </trkpt>
      <trkpt lat="43.32499" lon="2.35733">
        <ele>305.6</ele>
        <time>2019-06-02T08:01:17.000Z</time>
      </trkpt>
      <trkpt lat="43.32499" lon="2.35733">
        <ele>305.6</ele>
        <time>2019-06-02T08:01:18.000Z</time>
      </trkpt>
      <trkpt lat="43.32499" lon="2.35733">
        <ele>305.6</ele>
        <time>2019-06-02T08:01:19.000Z</time>
      </trkpt>
      <trkpt lat="43.32499" lon="2.35733">
        <ele>305.6</ele>
        <time>2019-06-02T08:01:20.000Z</time>
      </trkpt>
      <trkpt lat="43.32499" lon="2.35733">
        <ele>305.6</ele>
        <time>2019-06-02T08:01:21.000Z</time>
      </trkpt>
      <trkpt lat="43.32499" lon="2.35733">
        <ele>305.6</ele>
        <time>2019-06-02T08:01:22.000Z</time>
      </trkpt>
      <trkpt lat="43.32499" lon="2.35733">
        <ele>305.6</ele>
        <time>2019-06-02T08:01:23.000Z</time>
      </trkpt>
      <trkpt lat="43.32499" lon="2.35733">
        <ele>305.6</ele>
        <time>2019-06-02T08:01:24.000Z</time>
      </trkpt>
      <trkpt lat="43.32499" lon="2.35733">
        <ele>305.6</ele>
        <time>2019-06-02T08:01:25.000Z</time>
      </trkpt>
      <trkpt lat="43.32499" lon="2.35733">
        <ele>305.6</ele>
        <time>2019-06-02T08:01:26.000Z</time>
      </trkpt>
      <trkpt lat="43.32499" lon="2.35733">
        <ele>305.6</ele>
        <time>2019-06-02T08:01:27.000Z</time>
      </trkpt>
      <trkpt lat="43.32499" lon="2.35733">
        <ele>305.6</ele>
        <time>2019-06-02T08:01:28.000Z</time>
      </trkpt>
      <trkpt lat="43.32499" lon="2.35733">
        <ele>305.6</ele>
        <time>2019-06-02T08:01:29.000Z</time>
      </trkpt>
      <trkpt lat="43.32499" lon="2.35733">
        <ele>305.6</ele>
        <time>2019-06-02T08:01:30.000Z</time>
      </trkpt>
      <trkpt lat="43.32499" lon="2.35733">
        <ele>305.6</ele>
        <time>2019-06-02T08:01:31.000Z</time>
      </trkpt>
      <trkpt lat="43.32499" lon="2.35733">
        <ele>305.6</ele>
        <time>2019-06-02T08:01:32.000Z</time>
      </trkpt>
      <trkpt lat="43.32499" lon="2.35733">
        <ele>305.6</ele>
        <time>2019-06-02T08:01:33.000Z</time>
      </trkpt>
      <trkpt lat="43.32499" lon="2.35733">
        <ele>305.6</ele>
        <time>2019-06-02T08:01:34.000Z</time>
      </trkpt>
      <trkpt lat="43.32499" lon="2.35733">
        <ele>305.6</ele>
        <time>2019-06-02T08:01:35.000Z</time>
      </trkpt>
      <trkpt lat="43.32499" lon="2.35733">
        <ele>305.6</ele>
        <time>2019-06-02T08:01:36.000Z</time>
      </trkpt>
      <trkpt lat="43.32499" lon="2.35733">
        <ele>305.6</ele>
        <time>2019-06-02T08:01:37.000Z</time>
      </trkpt>
      <trkpt lat="43.32499" lon="2.35733">
        <ele>305.6</ele>
        <time>2019-06-02T08:01:38.000Z</time>
      </trkpt>
      <trkpt lat="43.32499" lon="2.35733">
        <ele>305.6</ele>
        <time>2019-06-02T08:01:39.000Z</time>
      </trkpt>
      <trkpt lat="43.32499" lon="2.35733">
        <ele>305.6</ele>
        <time>2019-06-02T08:01:40.000Z</time>
      </trkpt>
      <trkpt lat="43.32499" lon="2.35733">
        <ele>305.6</ele>
        <time>2019-06-02T08:01:41.000Z</time>
      </trkpt>
      <trkpt lat="43.32499" lon="2.35733">
        <ele>305.6</ele>
        <time>2019-06-02T08:01:42.000Z</time>
      </trkpt>
      <trkpt lat="43.32499" lon="2.35733">
        <ele>305.6</ele>
        <time>2019-06-02T08:01:43.000Z</time>
      </trkpt>
      <trkpt lat="43.32499" lon="2.35733">
        <ele>305.6</ele>
        <time>2019-06-02T08:01:44.000Z</time>
      </trkpt>
      <trkpt lat="43.32499" lon="2.35733">
        <ele>305.6</ele>
        <time>2019-06-02T08:01:45.000Z</time>
      </trkpt>
      <trkpt lat="43.32499" lon="2.35733">
        <ele>305.6</ele>
        <time>2019-06-02T08:01:46.000Z</time>
      </trkpt>
      <trkpt lat="43.32499" lon="2.35733">
        <ele>305.6</ele>
        <time>2019-06-02T08:01:47.000Z</time>
      </trkpt>
      <trkpt lat="43.32499" lon="2.35733">
        <ele>305.6</ele>
        <time>2019-06-02T08:01:48.000Z</time>
      </trkpt>
      <trkpt lat="43.32499" lon="2.35733">
        <ele>305.6</ele>
        <time>2019-06-02T08:01:49.000Z</time>
      </trkpt>
      <trkpt lat="43.32499" lon="2.35733">
        <ele>305.6</ele>
        <time>2019-06-02T08:01:50.000Z</time>
      </trkpt>
      <trkpt lat="43.32499" lon="2.35733">
        <ele>305.6</ele>
        <time>2019-06-02T08:01:51.000Z</time>
      </trkpt>
      <trkpt lat="43.32499" lon="2.35733">
        <ele>305.6</ele>
        <time>2019-06-02T08:01:52.000Z</time>
      </trkpt>
      <trkpt lat="43.32499" lon="2.35733">
        <ele>305.6</ele>
        <time>2019-06-02T08:01:53.000Z</time>
      </trkpt>
      <trkpt lat="43.32499" lon="2.35733">
        <ele>305.6</ele>
        <time>2019-06-02T08:01:54.000Z</time>
      </trkpt>
      <trkpt lat="43.32499" lon="2.35733">
        <ele>305.6</ele>
        <time>2019-06-02T08:01:55.000Z</time>
      </trkpt>
      <trkpt lat="43.32499" lon="2.35733">
        <ele>305.6</ele>
        <time>2019-06-02T08:01:56.000Z</time>
      </trkpt>
      <trkpt lat="43.32499" lon="2.35733">
        <ele>305.6</ele>
        <time>2019-06-02T08:01:57.000Z</time>
      </trkpt>
      <trkpt lat="43.32499" lon="2.35733">
        <ele>305.6</ele>
        <time>2019-06-02T08:01:58.000Z</time>
      </trkpt>
      <trkpt lat="43.32499" lon="2.35733">
        <ele>305.6</ele>
        <time>2019-06-02T08:01:59.000Z</time>
      </trkpt>
      <trkpt lat="43.32499" lon="2.35733">
        <ele>305.6</ele>
        <time>2019-06-02T08:02:00.000Z</time>
      </trkpt>
      <trkpt lat="43.32499" lon="2.35733">
        <ele>305.6</ele>
        <time>2019-06-02T08:02:01.000Z</time>
      </trkpt>
      <trkpt lat="43.32499" lon="2.35733">
        <ele>305.6</ele>
        <time>2019-06-02T08:02:02.000Z</time>
      </trkpt>
      <trkpt lat="43.32499" lon="2.35733">
        <ele>305.6</ele>
        <time>2019-06-02T08:02:03.000Z</time>
      </trkpt>
      <trkpt lat="43.32499" lon="2.35733">
        <ele>305.6</ele>
        <time>2019-06-02T08:02:04.000Z</time>
      </trkpt>
      <trkpt lat="43.32499" lon="2.35733">
        <ele>305.6</ele>
        <time>2019-06-02T08:02:05.000Z</time>
      </trkpt>
      <trkpt lat="43.32499" lon="2.35733">
        <ele>305.6</ele>
        <time>2019-06-02T08:02:06.000Z</time>
      </trkpt>
      <trkpt lat="43.32499" lon="2.35733">
        <ele>305.6</ele>
        <time>2019-06-02T08:02:07.000Z</time>
      </trkpt>
      <trkpt lat="43.32499" lon="2.35733">
        <ele>305.6</ele>
        <time>2019-06-02T08:02:08.000Z</time>
      </trkpt>
      <trkpt lat="43.32499" lon="2.35733">
        <ele>305.6</ele>
        <time>2019-06-02T08:02:09.000Z</time>
      </trkpt>
      <trkpt lat="43.32499" lon="2.35733">
        <ele>305.6</ele>
        <time>2019-06-02T08:02:10.000Z</time>
      </trkpt>
      <trkpt lat="43.32499" lon="2.35733">
        <ele>305.6</ele>
        <time>2019-06-02T08:02:11.000Z</time>
      </trkpt>
      <trkpt lat="43.32499" lon="2.35733">
        <ele>305.6</ele>
        <time>2019-06-02T08:02:12.000Z</time>
      </trkpt>
      <trkpt lat="43.32499" lon="2.35733">
        <ele>305.6</ele>
        <time>2019-06-02T08:02:13.000Z</time>
      </trkpt>
      <trkpt lat="43.32499" lon="2.35733">
        <ele>305.6</ele>
        <time>2019-06-02T08:02:14.000Z</time>
      </trkpt>
      <trkpt lat="43.32499" lon="2.35733">
        <ele>305.6</ele>
        <time>2019-06-02T08:02:15.000Z</time>
      </trkpt>
      <trkpt lat="43.32499" lon="2.35733">
        <ele>305.6</ele>
        <time>2019-06-02T08:02:16.000Z</time>
      </trkpt>
      <trkpt lat="43.32499" lon="2.35733">
        <ele>305.6</ele>
        <time>2019-06-02T08:02:17.000Z</time>
      </trkpt>
      <trkpt lat="43.32499" lon="2.35733">
        <ele>305.6</ele>
        <time>2019-06-02T08:02:18.000Z</time>
      </trkpt>
      <trkpt lat="43.32499" lon="2.35733">
        <ele>305.6</ele>
        <time>2019-06-02T08:02:19.000Z</time>
      </trkpt>
      <trkpt lat="43.32499" lon="2.35733">
        <ele>305.6</ele>
        <time>2019-06-02T08:02:20.000Z</time>
      </trkpt>
      <trkpt lat="43.32499" lon="2.35733">
        <ele>305.6</ele>
        <time>2019-06-02T08:02:21.000Z</time>
      </trkpt>
      <trkpt lat="43.32499" lon="2.35733">
        <ele>305.6</ele>
        <time>2019-06-02T08:02:22.000Z</time>
      </trkpt>
      <trkpt lat="43.32499" lon="2.35733">
        <ele>305.6</ele>
        <time>2019-06-02T08:02:23.000Z</time>
      </trkpt>
      <trkpt lat="43.32499" lon="2.35733">
        <ele>305.6</ele>
        <time>2019-06-02T08:02:24.000Z</time>
      </trkpt>
      <trkpt lat="43.32499" lon="2.35733">
        <ele>305.6</ele>
        <time>2019-06-02T08:02:25.000Z</time>
      </trkpt>
      <trkpt lat="43.32499" lon="2.35733">
        <ele>305.6</ele>
        <time>2019-06-02T08:02:26.000Z</time>
      </trkpt>
      <trkpt lat="43.32499" lon="2.35733">
        <ele>305.6</ele>
        <time>2019-06-02T08:02:27.000Z</time>
      </trkpt>
      <trkpt lat="43.32499" lon="2.35733">
        <ele>305.6</ele>
        <time>2019-06-02T08:02:28.000Z</time>
      </trkpt>
      <trkpt lat="43.32499" lon="2.35733">
        <ele>305.6</ele>
        <time>2019-06-02T08:02:29.000Z</time>
      </trkpt>
      <trkpt lat="43.32499" lon="2.35733">
        <ele>305.6</ele>
        <time>2019-06-02T08:02:30.000Z</time>
      </trkpt>
      <trkpt lat="43.32499" lon="2.35733">
        <ele>305.6</ele>
        <time>2019-06-02T08:02:31.000Z</time>
      </trkpt>
      <trkpt lat="43.32499" lon="2.35733">
        <ele>305.6</ele>
        <time>2019-06-02T08:02:32.000Z</time>
      </trkpt>
      <trkpt lat="43.32499" lon="2.35733">
        <ele>305.6</ele>
        <time>2019-06-02T08:02:33.000Z</time>
      </trkpt>
      <trkpt lat="43.32499" lon="2.35733">
        <ele>305.6</ele>
        <time>2019-06-02T08:02:34.000Z</time>
      </trkpt>
      <trkpt lat="43.32499" lon="2.35733">
        <ele>305.6</ele>
        <time>2019-06-02T08:02:35.000Z</time>
      </trkpt>
      <trkpt lat="43.325" lon="2.35732">
        <ele>305.5</ele>
        <time>2019-06-02T08:02:36.000Z</time>
      </trkpt>
      <trkpt lat="43.32501" lon="2.35732">
        <ele>305.5</ele>
        <time>2019-06-02T08:02:37.000Z</time>
      </trkpt>
      <trkpt lat="43.32503" lon="2.35731">
        <ele>305.5</ele>
        <time>2019-06-02T08:02:38.000Z</time>
      </trkpt>
      <trkpt lat="43.32506" lon="2.3573">
        <ele>305.4</ele>
        <time>2019-06-02T08:02:39.000Z</time>
      </trkpt>
      <trkpt lat="43.32508" lon="2.35729">
        <ele>305.3</ele>
        <time>2019-06-02T08:02:40.000Z</time>
      </trkpt>
      <trkpt lat="43.32511" lon="2.35728">
        <ele>305.3</ele>
        <time>2019-06-02T08:02:41.000Z</time>
      </trkpt>
      <trkpt lat="43.32514" lon="2.35727">
        <ele>305.2</ele>
        <time>2019-06-02T08:02:42.000Z</time>
      </trkpt>
      <trkpt lat="43.32516" lon="2.35726">
        <ele>305.2</ele>
        <time>2019-06-02T08:02:43.000Z</time>
      </trkpt>
      <trkpt lat="43.32519" lon="2.35725">
        <ele>305.2</ele>
        <time>2019-06-02T08:02:44.000Z</time>
      </trkpt>
      <trkpt lat="43.32522" lon="2.35724">
        <ele>305.1</ele>
        <time>2019-06-02T08:02:45.000Z</time>
      </trkpt>
      <trkpt lat="43.32526" lon="2.35723">
        <ele>305.1</ele>
        <time>2019-06-02T08:02:46.000Z</time>
      </trkpt>
      <trkpt lat="43.32529" lon="2.35722">
        <ele>305.1</ele>
        <time>2019-06-02T08:02:47.000Z</time>
      </trkpt>
      <trkpt lat="43.32532" lon="2.35721">
        <ele>305.1</ele>
        <time>2019-06-02T08:02:48.000Z</time>
      </trkpt>
      <trkpt lat="43.32535" lon="2.35721">
        <ele>305.1</ele>
        <time>2019-06-02T08:02:49.000Z</time>
      </trkpt>
      <trkpt lat="43.32538" lon="2.3572">
        <ele>305.1</ele>
        <time>2019-06-02T08:02:50.000Z</time>
      </trkpt>
      <trkpt lat="43.32541" lon="2.35719">
        <ele>305.1</ele>
        <time>2019-06-02T08:02:51.000Z</time>
      </trkpt>
      <trkpt lat="43.32544" lon="2.35719">
        <ele>305.1</ele>
        <time>2019-06-02T08:02:52.000Z</time>
      </trkpt>
      <trkpt lat="43.32548" lon="2.35719">
        <ele>305.1</ele>
        <time>2019-06-02T08:02:53.000Z</time>
      </trkpt>
      <trkpt lat="43.32551" lon="2.35719">
        <ele>305.1</ele>
        <time>2019-06-02T08:02:54.000Z</time>
      </trkpt>
      <trkpt lat="43.32554" lon="2.35719">
        <ele>305.1</ele>
        <time>2019-06-02T08:02:55.000Z</time>
      </trkpt>
      <trkpt lat="43.32557" lon="2.35719">
        <ele>305.1</ele>
        <time>2019-06-02T08:02:56.000Z</time>
      </trkpt>
      <trkpt lat="43.3256" lon="2.35719">
        <ele>305</ele>
        <time>2019-06-02T08:02:57.000Z</time>
      </trkpt>
      <trkpt lat="43.32563" lon="2.3572">
        <ele>305</ele>
        <time>2019-06-02T08:02:58.000Z</time>
      </trkpt>
      <trkpt lat="43.32566" lon="2.3572">
        <ele>305</ele>
        <time>2019-06-02T08:02:59.000Z</time>
      </trkpt>
      <trkpt lat="43.32568" lon="2.3572">
        <ele>304.9</ele>
        <time>2019-06-02T08:03:00.000Z</time>
      </trkpt>
      <trkpt lat="43.32571" lon="2.35721">
        <ele>304.9</ele>
        <time>2019-06-02T08:03:01.000Z</time>
      </trkpt>
      <trkpt lat="43.32575" lon="2.35721">
        <ele>304.8</ele>
        <time>2019-06-02T08:03:02.000Z</time>
      </trkpt>
      <trkpt lat="43.32579" lon="2.35722">
        <ele>304.7</ele>
        <time>2019-06-02T08:03:03.000Z</time>
      </trkpt>
      <trkpt lat="43.32583" lon="2.35723">
        <ele>304.6</ele>
        <time>2019-06-02T08:03:04.000Z</time>
      </trkpt>
      <trkpt lat="43.32588" lon="2.35723">
        <ele>303.9</ele>
        <time>2019-06-02T08:03:05.000Z</time>
      </trkpt>
      <trkpt lat="43.32593" lon="2.35724">
        <ele>303.2</ele>
        <time>2019-06-02T08:03:06.000Z</time>
      </trkpt>
      <trkpt lat="43.32598" lon="2.35724">
        <ele>302.6</ele>
        <time>2019-06-02T08:03:07.000Z</time>
      </trkpt>
      <trkpt lat="43.32602" lon="2.35723">
        <ele>302.1</ele>
        <time>2019-06-02T08:03:08.000Z</time>
      </trkpt>
      <trkpt lat="43.32606" lon="2.35722">
        <ele>301.6</ele>
        <time>2019-06-02T08:03:09.000Z</time>
      </trkpt>
      <trkpt lat="43.3261" lon="2.3572">
        <ele>301.2</ele>
        <time>2019-06-02T08:03:10.000Z</time>
      </trkpt>
      <trkpt lat="43.32614" lon="2.35719">
        <ele>300.8</ele>
        <time>2019-06-02T08:03:11.000Z</time>
      </trkpt>
      <trkpt lat="43.32618" lon="2.35716">
        <ele>300.5</ele>
        <time>2019-06-02T08:03:12.000Z</time>
      </trkpt>
      <trkpt lat="43.32621" lon="2.35714">
        <ele>300.3</ele>
        <time>2019-06-02T08:03:13.000Z</time>
      </trkpt>
      <trkpt lat="43.32625" lon="2.35711">
        <ele>300</ele>
        <time>2019-06-02T08:03:14.000Z</time>
      </trkpt>
      <trkpt lat="43.32628" lon="2.35708">
        <ele>299.8</ele>
        <time>2019-06-02T08:03:15.000Z</time>
      </trkpt>
      <trkpt lat="43.32631" lon="2.35706">
        <ele>299.6</ele>
        <time>2019-06-02T08:03:16.000Z</time>
      </trkpt>
      <trkpt lat="43.32634" lon="2.35703">
        <ele>299.5</ele>
        <time>2019-06-02T08:03:17.000Z</time>
      </trkpt>
      <trkpt lat="43.32637" lon="2.35701">
        <ele>299.3</ele>
        <time>2019-06-02T08:03:18.000Z</time>
      </trkpt>
      <trkpt lat="43.3264" lon="2.35698">
        <ele>299.1</ele>
        <time>2019-06-02T08:03:19.000Z</time>
      </trkpt>
      <trkpt lat="43.32643" lon="2.35696">
        <ele>298.9</ele>
        <time>2019-06-02T08:03:20.000Z</time>
      </trkpt>
      <trkpt lat="43.32646" lon="2.35694">
        <ele>298.7</ele>
        <time>2019-06-02T08:03:21.000Z</time>
      </trkpt>
      <trkpt lat="43.32648" lon="2.35692">
        <ele>298.4</ele>
        <time>2019-06-02T08:03:22.000Z</time>
      </trkpt>
      <trkpt lat="43.32651" lon="2.3569">
        <ele>298.2</ele>
        <time>2019-06-02T08:03:23.000Z</time>
      </trkpt>
      <trkpt lat="43.32654" lon="2.35689">
        <ele>298</ele>
        <time>2019-06-02T08:03:24.000Z</time>
      </trkpt>
      <trkpt lat="43.32657" lon="2.35688">
        <ele>297.7</ele>
        <time>2019-06-02T08:03:25.000Z</time>
      </trkpt>
      <trkpt lat="43.32659" lon="2.35686">
        <ele>297.4</ele>
        <time>2019-06-02T08:03:26.000Z</time>
      </trkpt>
      <trkpt lat="43.32662" lon="2.35685">
        <ele>297.1</ele>
        <time>2019-06-02T08:03:27.000Z</time>
      </trkpt>
      <trkpt lat="43.32665" lon="2.35684">
        <ele>296.8</ele>
        <time>2019-06-02T08:03:28.000Z</time>
      </trkpt>
      <trkpt lat="43.32667" lon="2.35683">
        <ele>296.6</ele>
        <time>2019-06-02T08:03:29.000Z</time>
      </trkpt>
      <trkpt lat="43.3267" lon="2.35682">
        <ele>296.3</ele>
        <time>2019-06-02T08:03:30.000Z</time>
      </trkpt>
      <trkpt lat="43.32673" lon="2.35681">
        <ele>296.1</ele>
        <time>2019-06-02T08:03:31.000Z</time>
      </trkpt>
      <trkpt lat="43.32676" lon="2.35679">
        <ele>295.9</ele>
        <time>2019-06-02T08:03:32.000Z</time>
      </trkpt>
      <trkpt lat="43.32679" lon="2.35678">
        <ele>295.6</ele>
        <time>2019-06-02T08:03:33.000Z</time>
      </trkpt>
      <trkpt lat="43.32682" lon="2.35676">
        <ele>295.4</ele>
        <time>2019-06-02T08:03:34.000Z</time>
      </trkpt>
      <trkpt lat="43.32685" lon="2.35675">
        <ele>295.1</ele>
        <time>2019-06-02T08:03:35.000Z</time>
      </trkpt>
      <trkpt lat="43.32688" lon="2.35673">
        <ele>294.9</ele>
        <time>2019-06-02T08:03:36.000Z</time>
      </trkpt>
      <trkpt lat="43.32691" lon="2.35672">
        <ele>294.6</ele>
        <time>2019-06-02T08:03:37.000Z</time>
      </trkpt>
      <trkpt lat="43.32694" lon="2.35671">
        <ele>294.4</ele>
        <time>2019-06-02T08:03:38.000Z</time>
      </trkpt>
      <trkpt lat="43.32697" lon="2.3567">
        <ele>294.1</ele>
        <time>2019-06-02T08:03:39.000Z</time>
      </trkpt>
      <trkpt lat="43.327" lon="2.35669">
        <ele>293.8</ele>
        <time>2019-06-02T08:03:40.000Z</time>
      </trkpt>
      <trkpt lat="43.32703" lon="2.35669">
        <ele>293.6</ele>
        <time>2019-06-02T08:03:41.000Z</time>
      </trkpt>
      <trkpt lat="43.32705" lon="2.35668">
        <ele>293.3</ele>
        <time>2019-06-02T08:03:42.000Z</time>
      </trkpt>
      <trkpt lat="43.32708" lon="2.35668">
        <ele>293</ele>
        <time>2019-06-02T08:03:43.000Z</time>
      </trkpt>
      <trkpt lat="43.32711" lon="2.35667">
        <ele>292.7</ele>
        <time>2019-06-02T08:03:44.000Z</time>
      </trkpt>
      <trkpt lat="43.32713" lon="2.35667">
        <ele>292.4</ele>
        <time>2019-06-02T08:03:45.000Z</time>
      </trkpt>
      <trkpt lat="43.32716" lon="2.35667">
        <ele>292</ele>
        <time>2019-06-02T08:03:46.000Z</time>
      </trkpt>
      <trkpt lat="43.32719" lon="2.35667">
        <ele>291.7</ele>
        <time>2019-06-02T08:03:47.000Z</time>
      </trkpt>
      <trkpt lat="43.32722" lon="2.35667">
        <ele>291.4</ele>
        <time>2019-06-02T08:03:48.000Z</time>
      </trkpt>
      <trkpt lat="43.32725" lon="2.35667">
        <ele>291</ele>
        <time>2019-06-02T08:03:49.000Z</time>
      </trkpt>
      <trkpt lat="43.32728" lon="2.35667">
        <ele>290.7</ele>
        <time>2019-06-02T08:03:50.000Z</time>
      </trkpt>
      <trkpt lat="43.32731" lon="2.35667">
        <ele>290.3</ele>
        <time>2019-06-02T08:03:51.000Z</time>
      </trkpt>
      <trkpt lat="43.32733" lon="2.35666">
        <ele>290</ele>
        <time>2019-06-02T08:03:52.000Z</time>
      </trkpt>
      <trkpt lat="43.32736" lon="2.35666">
        <ele>289.7</ele>
        <time>2019-06-02T08:03:53.000Z</time>
      </trkpt>
      <trkpt lat="43.32739" lon="2.35666">
        <ele>289.4</ele>
        <time>2019-06-02T08:03:54.000Z</time>
      </trkpt>
      <trkpt lat="43.32742" lon="2.35665">
        <ele>289</ele>
        <time>2019-06-02T08:03:55.000Z</time>
      </trkpt>
      <trkpt lat="43.32745" lon="2.35665">
        <ele>288.7</ele>
        <time>2019-06-02T08:03:56.000Z</time>
      </trkpt>
      <trkpt lat="43.32748" lon="2.35664">
        <ele>288.4</ele>
        <time>2019-06-02T08:03:57.000Z</time>
      </trkpt>
      <trkpt lat="43.3275" lon="2.35664">
        <ele>288.1</ele>
        <time>2019-06-02T08:03:58.000Z</time>
      </trkpt>
      <trkpt lat="43.32753" lon="2.35663">
        <ele>288.1</ele>
        <time>2019-06-02T08:03:59.000Z</time>
      </trkpt>
      <trkpt lat="43.32756" lon="2.35663">
        <ele>288.1</ele>
        <time>2019-06-02T08:04:00.000Z</time>
      </trkpt>
      <trkpt lat="43.32759" lon="2.35662">
        <ele>288</ele>
        <time>2019-06-02T08:04:01.000Z</time>
      </trkpt>
      <trkpt lat="43.32761" lon="2.35661">
        <ele>288</ele>
        <time>2019-06-02T08:04:02.000Z</time>
      </trkpt>
      <trkpt lat="43.32764" lon="2.35661">
        <ele>288</ele>
        <time>2019-06-02T08:04:03.000Z</time>
      </trkpt>
      <trkpt lat="43.32767" lon="2.3566">
        <ele>287.9</ele>
        <time>2019-06-02T08:04:04.000Z</time>
      </trkpt>
      <trkpt lat="43.32769" lon="2.3566">
        <ele>287.9</ele>
        <time>2019-06-02T08:04:05.000Z</time>
      </trkpt>
      <trkpt lat="43.32772" lon="2.35659">
        <ele>287.9</ele>
        <time>2019-06-02T08:04:06.000Z</time>
      </trkpt>
      <trkpt lat="43.32775" lon="2.35659">
        <ele>287.8</ele>
        <time>2019-06-02T08:04:07.000Z</time>
      </trkpt>
      <trkpt lat="43.32777" lon="2.35658">
        <ele>287.8</ele>
        <time>2019-06-02T08:04:08.000Z</time>
      </trkpt>
      <trkpt lat="43.3278" lon="2.35658">
        <ele>287.7</ele>
        <time>2019-06-02T08:04:09.000Z</time>
      </trkpt>
      <trkpt lat="43.32783" lon="2.35658">
        <ele>287.7</ele>
        <time>2019-06-02T08:04:10.000Z</time>
      </trkpt>
      <trkpt lat="43.32785" lon="2.35657">
        <ele>287.6</ele>
        <time>2019-06-02T08:04:11.000Z</time>
      </trkpt>
      <trkpt lat="43.32788" lon="2.35657">
        <ele>287.6</ele>
        <time>2019-06-02T08:04:12.000Z</time>
      </trkpt>
      <trkpt lat="43.32791" lon="2.35658">
        <ele>287.5</ele>
        <time>2019-06-02T08:04:13.000Z</time>
      </trkpt>
      <trkpt lat="43.32794" lon="2.35658">
        <ele>287.4</ele>
        <time>2019-06-02T08:04:14.000Z</time>
      </trkpt>
      <trkpt lat="43.32797" lon="2.35658">
        <ele>287.3</ele>
        <time>2019-06-02T08:04:15.000Z</time>
      </trkpt>
      <trkpt lat="43.328" lon="2.35659">
        <ele>287.2</ele>
        <time>2019-06-02T08:04:16.000Z</time>
      </trkpt>
      <trkpt lat="43.32803" lon="2.3566">
        <ele>287.1</ele>
        <time>2019-06-02T08:04:17.000Z</time>
      </trkpt>
      <trkpt lat="43.32806" lon="2.3566">
        <ele>287</ele>
        <time>2019-06-02T08:04:18.000Z</time>
      </trkpt>
      <trkpt lat="43.32809" lon="2.35661">
        <ele>286.9</ele>
        <time>2019-06-02T08:04:19.000Z</time>
      </trkpt>
      <trkpt lat="43.32811" lon="2.35662">
        <ele>286.8</ele>
        <time>2019-06-02T08:04:20.000Z</time>
      </trkpt>
      <trkpt lat="43.32814" lon="2.35662">
        <ele>286.7</ele>
        <time>2019-06-02T08:04:21.000Z</time>
      </trkpt>
      <trkpt lat="43.32817" lon="2.35663">
        <ele>286.6</ele>
        <time>2019-06-02T08:04:22.000Z</time>
      </trkpt>
      <trkpt lat="43.3282" lon="2.35663">
        <ele>286.5</ele>
        <time>2019-06-02T08:04:23.000Z</time>
      </trkpt>
      <trkpt lat="43.32822" lon="2.35663">
        <ele>286.5</ele>
        <time>2019-06-02T08:04:24.000Z</time>
      </trkpt>
      <trkpt lat="43.32825" lon="2.35663">
        <ele>286.4</ele>
        <time>2019-06-02T08:04:25.000Z</time>
      </trkpt>
      <trkpt lat="43.32828" lon="2.35663">
        <ele>286.3</ele>
        <time>2019-06-02T08:04:26.000Z</time>
      </trkpt>
      <trkpt lat="43.3283" lon="2.35663">
        <ele>286.3</ele>
        <time>2019-06-02T08:04:27.000Z</time>
      </trkpt>
      <trkpt lat="43.32833" lon="2.35663">
        <ele>286.2</ele>
        <time>2019-06-02T08:04:28.000Z</time>
      </trkpt>
      <trkpt lat="43.32835" lon="2.35663">
        <ele>286.2</ele>
        <time>2019-06-02T08:04:29.000Z</time>
      </trkpt>
      <trkpt lat="43.32838" lon="2.35663">
        <ele>286.2</ele>
        <time>2019-06-02T08:04:30.000Z</time>
      </trkpt>
      <trkpt lat="43.32841" lon="2.35662">
        <ele>286.2</ele>
        <time>2019-06-02T08:04:31.000Z</time>
      </trkpt>
      <trkpt lat="43.32844" lon="2.35662">
        <ele>286.3</ele>
        <time>2019-06-02T08:04:32.000Z</time>
      </trkpt>
      <trkpt lat="43.32847" lon="2.35661">
        <ele>286.3</ele>
        <time>2019-06-02T08:04:33.000Z</time>
      </trkpt>
      <trkpt lat="43.32849" lon="2.35661">
        <ele>286.3</ele>
        <time>2019-06-02T08:04:34.000Z</time>
      </trkpt>
      <trkpt lat="43.32852" lon="2.3566">
        <ele>286.3</ele>
        <time>2019-06-02T08:04:35.000Z</time>
      </trkpt>
      <trkpt lat="43.32855" lon="2.35659">
        <ele>286.3</ele>
        <time>2019-06-02T08:04:36.000Z</time>
      </trkpt>
      <trkpt lat="43.32857" lon="2.35658">
        <ele>286.4</ele>
        <time>2019-06-02T08:04:37.000Z</time>
      </trkpt>
      <trkpt lat="43.32859" lon="2.35656">
        <ele>286.4</ele>
        <time>2019-06-02T08:04:38.000Z</time>
      </trkpt>
      <trkpt lat="43.32862" lon="2.35655">
        <ele>286.5</ele>
        <time>2019-06-02T08:04:39.000Z</time>
      </trkpt>
      <trkpt lat="43.32864" lon="2.35653">
        <ele>286.5</ele>
        <time>2019-06-02T08:04:40.000Z</time>
      </trkpt>
      <trkpt lat="43.32866" lon="2.35652">
        <ele>286.5</ele>
        <time>2019-06-02T08:04:41.000Z</time>
      </trkpt>
      <trkpt lat="43.32868" lon="2.3565">
        <ele>286.6</ele>
        <time>2019-06-02T08:04:42.000Z</time>
      </trkpt>
      <trkpt lat="43.32869" lon="2.35649">
        <ele>286.6</ele>
        <time>2019-06-02T08:04:43.000Z</time>
      </trkpt>
      <trkpt lat="43.32871" lon="2.35648">
        <ele>286.6</ele>
        <time>2019-06-02T08:04:44.000Z</time>
      </trkpt>
      <trkpt lat="43.32872" lon="2.35646">
        <ele>286.7</ele>
        <time>2019-06-02T08:04:45.000Z</time>
      </trkpt>
      <trkpt lat="43.32873" lon="2.35646">
        <ele>286.7</ele>
        <time>2019-06-02T08:04:46.000Z</time>
      </trkpt>
      <trkpt lat="43.32874" lon="2.35645">
        <ele>286.7</ele>
        <time>2019-06-02T08:04:47.000Z</time>
      </trkpt>
      <trkpt lat="43.32875" lon="2.35645">
        <ele>286.7</ele>
        <time>2019-06-02T08:04:48.000Z</time>
      </trkpt>
      <trkpt lat="43.32875" lon="2.35645">
        <ele>286.7</ele>
        <time>2019-06-02T08:04:49.000Z</time>
      </trkpt>
      <trkpt lat="43.32875" lon="2.35645">
        <ele>286.7</ele>
        <time>2019-06-02T08:04:50.000Z</time>
      </trkpt>
      <trkpt lat="43.32875" lon="2.35645">
        <ele>286.7</ele>
        <time>2019-06-02T08:04:51.000Z</time>
      </trkpt>
      <trkpt lat="43.32875" lon="2.35645">
        <ele>286.7</ele>
        <time>2019-06-02T08:04:52.000Z</time>
      </trkpt>
      <trkpt lat="43.32875" lon="2.35645">
        <ele>286.7</ele>
        <time>2019-06-02T08:04:53.000Z</time>
      </trkpt>
      <trkpt lat="43.32876" lon="2.35645">
        <ele>286.6</ele>
        <time>2019-06-02T08:04:54.000Z</time>
      </trkpt>
      <trkpt lat="43.32877" lon="2.35646">
        <ele>286.6</ele>
        <time>2019-06-02T08:04:55.000Z</time>
      </trkpt>
      <trkpt lat="43.32879" lon="2.35647">
        <ele>286.5</ele>
        <time>2019-06-02T08:04:56.000Z</time>
      </trkpt>
      <trkpt lat="43.32881" lon="2.35649">
        <ele>286.5</ele>
        <time>2019-06-02T08:04:57.000Z</time>
      </trkpt>
      <trkpt lat="43.32883" lon="2.35652">
        <ele>286.4</ele>
        <time>2019-06-02T08:04:58.000Z</time>
      </trkpt>
      <trkpt lat="43.32885" lon="2.35655">
        <ele>286.3</ele>
        <time>2019-06-02T08:04:59.000Z</time>
      </trkpt>
      <trkpt lat="43.32886" lon="2.35659">
        <ele>286.2</ele>
        <time>2019-06-02T08:05:00.000Z</time>
      </trkpt>
      <trkpt lat="43.32888" lon="2.35664">
        <ele>286.1</ele>
        <time>2019-06-02T08:05:01.000Z</time>
      </trkpt>
      <trkpt lat="43.32889" lon="2.35668">
        <ele>285.9</ele>
        <time>2019-06-02T08:05:02.000Z</time>
      </trkpt>
      <trkpt lat="43.3289" lon="2.35672">
        <ele>285.7</ele>
        <time>2019-06-02T08:05:03.000Z</time>
      </trkpt>
      <trkpt lat="43.3289" lon="2.35676">
        <ele>285.5</ele>
        <time>2019-06-02T08:05:04.000Z</time>
      </trkpt>
      <trkpt lat="43.32891" lon="2.3568">
        <ele>285.3</ele>
        <time>2019-06-02T08:05:05.000Z</time>
      </trkpt>
      <trkpt lat="43.32891" lon="2.35684">
        <ele>285.1</ele>
        <time>2019-06-02T08:05:06.000Z</time>
      </trkpt>
      <trkpt lat="43.32892" lon="2.35688">
        <ele>284.9</ele>
        <time>2019-06-02T08:05:07.000Z</time>
      </trkpt>
      <trkpt lat="43.32893" lon="2.35692">
        <ele>284.8</ele>
        <time>2019-06-02T08:05:08.000Z</time>
      </trkpt>
      <trkpt lat="43.32893" lon="2.35695">
        <ele>284.6</ele>
        <time>2019-06-02T08:05:09.000Z</time>
      </trkpt>
      <trkpt lat="43.32894" lon="2.35699">
        <ele>284.4</ele>
        <time>2019-06-02T08:05:10.000Z</time>
      </trkpt>
      <trkpt lat="43.32896" lon="2.35703">
        <ele>284.3</ele>
        <time>2019-06-02T08:05:11.000Z</time>
      </trkpt>
      <trkpt lat="43.32897" lon="2.35706">
        <ele>284.1</ele>
        <time>2019-06-02T08:05:12.000Z</time>
      </trkpt>
      <trkpt lat="43.32898" lon="2.3571">
        <ele>284</ele>
        <time>2019-06-02T08:05:13.000Z</time>
      </trkpt>
      <trkpt lat="43.329" lon="2.35713">
        <ele>283.9</ele>
        <time>2019-06-02T08:05:14.000Z</time>
      </trkpt>
      <trkpt lat="43.32901" lon="2.35717">
        <ele>283.8</ele>
        <time>2019-06-02T08:05:15.000Z</time>
      </trkpt>
      <trkpt lat="43.32902" lon="2.3572">
        <ele>283.6</ele>
        <time>2019-06-02T08:05:16.000Z</time>
      </trkpt>
      <trkpt lat="43.32902" lon="2.35724">
        <ele>283.5</ele>
        <time>2019-06-02T08:05:17.000Z</time>
      </trkpt>
      <trkpt lat="43.32902" lon="2.35727">
        <ele>283.3</ele>
        <time>2019-06-02T08:05:18.000Z</time>
      </trkpt>
      <trkpt lat="43.32902" lon="2.35731">
        <ele>283.2</ele>
        <time>2019-06-02T08:05:19.000Z</time>
      </trkpt>
      <trkpt lat="43.32902" lon="2.35734">
        <ele>283</ele>
        <time>2019-06-02T08:05:20.000Z</time>
      </trkpt>
      <trkpt lat="43.32902" lon="2.35738">
        <ele>282.8</ele>
        <time>2019-06-02T08:05:21.000Z</time>
      </trkpt>
      <trkpt lat="43.32902" lon="2.35741">
        <ele>282.7</ele>
        <time>2019-06-02T08:05:22.000Z</time>
      </trkpt>
      <trkpt lat="43.32902" lon="2.35744">
        <ele>282.6</ele>
        <time>2019-06-02T08:05:23.000Z</time>
      </trkpt>
      <trkpt lat="43.32901" lon="2.35746">
        <ele>282.4</ele>
        <time>2019-06-02T08:05:24.000Z</time>
      </trkpt>
      <trkpt lat="43.32901" lon="2.35749">
        <ele>282.3</ele>
        <time>2019-06-02T08:05:25.000Z</time>
      </trkpt>
      <trkpt lat="43.32901" lon="2.35751">
        <ele>282.3</ele>
        <time>2019-06-02T08:05:26.000Z</time>
      </trkpt>
      <trkpt lat="43.329" lon="2.35754">
        <ele>282.3</ele>
        <time>2019-06-02T08:05:27.000Z</time>
      </trkpt>
      <trkpt lat="43.32899" lon="2.35756">
        <ele>282.4</ele>
        <time>2019-06-02T08:05:28.000Z</time>
      </trkpt>
      <trkpt lat="43.32899" lon="2.35758">
        <ele>282.4</ele>
        <time>2019-06-02T08:05:29.000Z</time>
      </trkpt>
      <trkpt lat="43.32898" lon="2.3576">
        <ele>282.5</ele>
        <time>2019-06-02T08:05:30.000Z</time>
      </trkpt>
      <trkpt lat="43.32897" lon="2.35762">
        <ele>282.5</ele>
        <time>2019-06-02T08:05:31.000Z</time>
      </trkpt>
      <trkpt lat="43.32897" lon="2.35764">
        <ele>282.5</ele>
        <time>2019-06-02T08:05:32.000Z</time>
      </trkpt>
      <trkpt lat="43.32896" lon="2.35767">
        <ele>282.6</ele>
        <time>2019-06-02T08:05:33.000Z</time>
      </trkpt>
      <trkpt lat="43.32896" lon="2.35769">
        <ele>282.6</ele>
        <time>2019-06-02T08:05:34.000Z</time>
      </trkpt>
      <trkpt lat="43.32896" lon="2.35771">
        <ele>282.7</ele>
        <time>2019-06-02T08:05:35.000Z</time>
      </trkpt>
      <trkpt lat="43.32895" lon="2.35773">
        <ele>282.7</ele>
        <time>2019-06-02T08:05:36.000Z</time>
      </trkpt>
      <trkpt lat="43.32895" lon="2.35776">
        <ele>282.8</ele>
        <time>2019-06-02T08:05:37.000Z</time>
      </trkpt>
      <trkpt lat="43.32895" lon="2.35778">
        <ele>282.9</ele>
        <time>2019-06-02T08:05:38.000Z</time>
      </trkpt>
      <trkpt lat="43.32895" lon="2.35779">
        <ele>282.9</ele>
        <time>2019-06-02T08:05:39.000Z</time>
      </trkpt>
      <trkpt lat="43.32894" lon="2.35781">
        <ele>282.9</ele>
        <time>2019-06-02T08:05:40.000Z</time>
      </trkpt>
      <trkpt lat="43.32894" lon="2.35782">
        <ele>282.9</ele>
        <time>2019-06-02T08:05:41.000Z</time>
      </trkpt>
      <trkpt lat="43.32893" lon="2.35783">
        <ele>282.9</ele>
        <time>2019-06-02T08:05:42.000Z</time>
      </trkpt>
      <trkpt lat="43.32893" lon="2.35785">
        <ele>282.9</ele>
        <time>2019-06-02T08:05:43.000Z</time>
      </trkpt>
      <trkpt lat="43.32892" lon="2.35786">
        <ele>282.9</ele>
        <time>2019-06-02T08:05:44.000Z</time>
      </trkpt>
      <trkpt lat="43.32891" lon="2.35787">
        <ele>282.9</ele>
        <time>2019-06-02T08:05:45.000Z</time>
      </trkpt>
      <trkpt lat="43.3289" lon="2.35787">
        <ele>282.8</ele>
        <time>2019-06-02T08:05:46.000Z</time>
      </trkpt>
      <trkpt lat="43.32889" lon="2.35788">
        <ele>282.8</ele>
        <time>2019-06-02T08:05:47.000Z</time>
      </trkpt>
    </trkseg>
  </trk>
</gpx>